<?xml version="1.0" encoding="UTF-8"?>
<gpx version="1.1" creator="https://www.youtrack.es" xsi:schemaLocation="http://www.topografix.com/GPX/1/1 http://www.topografix.com/GPX/1/1/gpx.xsd http://www.garmin.com/xmlschemas/GpxExtensions/v3 http://www.garmin.com/xmlschemas/GpxExtensionsv3.xsd http://www.garmin.com/xmlschemas/TrackPointExtension/v1 http://www.garmin.com/xmlschemas/TrackPointExtensionv1.xsd" xmlns:gpxtpx="http://www.garmin.com/xmlschemas/TrackPointExtension/v1" xmlns:gpxx="http://www.garmin.com/xmlschemas/GpxExtensions/v3" xmlns:xsi="http://www.w3.org/2001/XMLSchema-instance">
  <metadata>
    <link href="https://www.youtrack.es">
      <text>YouTrack.es</text>
    </link>
    <time>2026-05-08T18:56:02Z</time>
  </metadata>
  <trk>
    <src>https://www.youtrack.es</src>
    <link href="https://www.youtrack.es/ruta/28545-maro">
      <text>YouTrack.es</text>
    </link>
    <trkseg>
      <trkpt lat="36.7490820" lon="-3.7834460">
        <ele>219.0</ele>
        <time>2022-01-08T12:06:15Z</time>
      </trkpt>
      <trkpt lat="36.7490820" lon="-3.7834460">
        <ele>219.0</ele>
        <time>2022-01-08T12:06:16Z</time>
      </trkpt>
      <trkpt lat="36.7490890" lon="-3.7834780">
        <ele>219.0</ele>
        <time>2022-01-08T12:06:17Z</time>
      </trkpt>
      <trkpt lat="36.7490890" lon="-3.7834780">
        <ele>219.0</ele>
        <time>2022-01-08T12:06:18Z</time>
      </trkpt>
      <trkpt lat="36.7490990" lon="-3.7835070">
        <ele>220.0</ele>
        <time>2022-01-08T12:06:19Z</time>
      </trkpt>
      <trkpt lat="36.7490990" lon="-3.7835070">
        <ele>220.0</ele>
        <time>2022-01-08T12:06:20Z</time>
      </trkpt>
      <trkpt lat="36.7491040" lon="-3.7835350">
        <ele>220.0</ele>
        <time>2022-01-08T12:06:21Z</time>
      </trkpt>
      <trkpt lat="36.7491040" lon="-3.7835350">
        <ele>220.0</ele>
        <time>2022-01-08T12:06:22Z</time>
      </trkpt>
      <trkpt lat="36.7491140" lon="-3.7835650">
        <ele>220.0</ele>
        <time>2022-01-08T12:06:23Z</time>
      </trkpt>
      <trkpt lat="36.7491140" lon="-3.7835650">
        <ele>220.0</ele>
        <time>2022-01-08T12:06:24Z</time>
      </trkpt>
      <trkpt lat="36.7491270" lon="-3.7835860">
        <ele>220.0</ele>
        <time>2022-01-08T12:06:25Z</time>
      </trkpt>
      <trkpt lat="36.7491270" lon="-3.7835860">
        <ele>220.0</ele>
        <time>2022-01-08T12:06:26Z</time>
      </trkpt>
      <trkpt lat="36.7491340" lon="-3.7836160">
        <ele>220.0</ele>
        <time>2022-01-08T12:06:27Z</time>
      </trkpt>
      <trkpt lat="36.7491340" lon="-3.7836160">
        <ele>219.0</ele>
        <time>2022-01-08T12:06:28Z</time>
      </trkpt>
      <trkpt lat="36.7491390" lon="-3.7836470">
        <ele>218.0</ele>
        <time>2022-01-08T12:06:29Z</time>
      </trkpt>
      <trkpt lat="36.7491390" lon="-3.7836470">
        <ele>217.0</ele>
        <time>2022-01-08T12:06:30Z</time>
      </trkpt>
      <trkpt lat="36.7491370" lon="-3.7836740">
        <ele>217.0</ele>
        <time>2022-01-08T12:06:31Z</time>
      </trkpt>
      <trkpt lat="36.7491370" lon="-3.7836740">
        <ele>217.0</ele>
        <time>2022-01-08T12:06:32Z</time>
      </trkpt>
      <trkpt lat="36.7491380" lon="-3.7837010">
        <ele>217.0</ele>
        <time>2022-01-08T12:06:33Z</time>
      </trkpt>
      <trkpt lat="36.7491380" lon="-3.7837010">
        <ele>217.0</ele>
        <time>2022-01-08T12:06:34Z</time>
      </trkpt>
      <trkpt lat="36.7491390" lon="-3.7837250">
        <ele>216.0</ele>
        <time>2022-01-08T12:06:35Z</time>
      </trkpt>
      <trkpt lat="36.7491390" lon="-3.7837250">
        <ele>215.0</ele>
        <time>2022-01-08T12:06:36Z</time>
      </trkpt>
      <trkpt lat="36.7491390" lon="-3.7837250">
        <ele>215.0</ele>
        <time>2022-01-08T12:06:37Z</time>
      </trkpt>
      <trkpt lat="36.7491370" lon="-3.7837570">
        <ele>215.0</ele>
        <time>2022-01-08T12:06:38Z</time>
      </trkpt>
      <trkpt lat="36.7491370" lon="-3.7837570">
        <ele>215.0</ele>
        <time>2022-01-08T12:06:39Z</time>
      </trkpt>
      <trkpt lat="36.7491370" lon="-3.7837570">
        <ele>214.0</ele>
        <time>2022-01-08T12:06:40Z</time>
      </trkpt>
      <trkpt lat="36.7491410" lon="-3.7837900">
        <ele>213.0</ele>
        <time>2022-01-08T12:06:41Z</time>
      </trkpt>
      <trkpt lat="36.7491410" lon="-3.7837900">
        <ele>212.0</ele>
        <time>2022-01-08T12:06:42Z</time>
      </trkpt>
      <trkpt lat="36.7491410" lon="-3.7837900">
        <ele>211.0</ele>
        <time>2022-01-08T12:06:43Z</time>
      </trkpt>
      <trkpt lat="36.7491490" lon="-3.7838150">
        <ele>211.0</ele>
        <time>2022-01-08T12:06:44Z</time>
      </trkpt>
      <trkpt lat="36.7491490" lon="-3.7838150">
        <ele>210.0</ele>
        <time>2022-01-08T12:06:45Z</time>
      </trkpt>
      <trkpt lat="36.7491570" lon="-3.7838410">
        <ele>209.0</ele>
        <time>2022-01-08T12:06:46Z</time>
      </trkpt>
      <trkpt lat="36.7491570" lon="-3.7838410">
        <ele>208.0</ele>
        <time>2022-01-08T12:06:47Z</time>
      </trkpt>
      <trkpt lat="36.7491670" lon="-3.7838680">
        <ele>208.0</ele>
        <time>2022-01-08T12:06:48Z</time>
      </trkpt>
      <trkpt lat="36.7491670" lon="-3.7838680">
        <ele>207.0</ele>
        <time>2022-01-08T12:06:49Z</time>
      </trkpt>
      <trkpt lat="36.7491730" lon="-3.7838960">
        <ele>207.0</ele>
        <time>2022-01-08T12:06:50Z</time>
      </trkpt>
      <trkpt lat="36.7491730" lon="-3.7838960">
        <ele>206.0</ele>
        <time>2022-01-08T12:06:51Z</time>
      </trkpt>
      <trkpt lat="36.7491750" lon="-3.7839130">
        <ele>206.0</ele>
        <time>2022-01-08T12:06:52Z</time>
      </trkpt>
      <trkpt lat="36.7491770" lon="-3.7839300">
        <ele>206.0</ele>
        <time>2022-01-08T12:06:53Z</time>
      </trkpt>
      <trkpt lat="36.7491800" lon="-3.7839470">
        <ele>204.0</ele>
        <time>2022-01-08T12:06:54Z</time>
      </trkpt>
      <trkpt lat="36.7491800" lon="-3.7839790">
        <ele>203.0</ele>
        <time>2022-01-08T12:06:55Z</time>
      </trkpt>
      <trkpt lat="36.7491800" lon="-3.7839790">
        <ele>203.0</ele>
        <time>2022-01-08T12:06:56Z</time>
      </trkpt>
      <trkpt lat="36.7491780" lon="-3.7840050">
        <ele>202.0</ele>
        <time>2022-01-08T12:06:57Z</time>
      </trkpt>
      <trkpt lat="36.7491780" lon="-3.7840050">
        <ele>202.0</ele>
        <time>2022-01-08T12:06:58Z</time>
      </trkpt>
      <trkpt lat="36.7491760" lon="-3.7840320">
        <ele>201.0</ele>
        <time>2022-01-08T12:06:59Z</time>
      </trkpt>
      <trkpt lat="36.7491760" lon="-3.7840320">
        <ele>201.0</ele>
        <time>2022-01-08T12:07:00Z</time>
      </trkpt>
      <trkpt lat="36.7491880" lon="-3.7840650">
        <ele>200.0</ele>
        <time>2022-01-08T12:07:01Z</time>
      </trkpt>
      <trkpt lat="36.7491880" lon="-3.7840650">
        <ele>199.0</ele>
        <time>2022-01-08T12:07:02Z</time>
      </trkpt>
      <trkpt lat="36.7491990" lon="-3.7840910">
        <ele>199.0</ele>
        <time>2022-01-08T12:07:03Z</time>
      </trkpt>
      <trkpt lat="36.7491990" lon="-3.7840910">
        <ele>198.0</ele>
        <time>2022-01-08T12:07:04Z</time>
      </trkpt>
      <trkpt lat="36.7492070" lon="-3.7841190">
        <ele>198.0</ele>
        <time>2022-01-08T12:07:05Z</time>
      </trkpt>
      <trkpt lat="36.7492070" lon="-3.7841190">
        <ele>197.0</ele>
        <time>2022-01-08T12:07:06Z</time>
      </trkpt>
      <trkpt lat="36.7492090" lon="-3.7841520">
        <ele>197.0</ele>
        <time>2022-01-08T12:07:07Z</time>
      </trkpt>
      <trkpt lat="36.7492090" lon="-3.7841520">
        <ele>196.0</ele>
        <time>2022-01-08T12:07:08Z</time>
      </trkpt>
      <trkpt lat="36.7492130" lon="-3.7841870">
        <ele>196.0</ele>
        <time>2022-01-08T12:07:09Z</time>
      </trkpt>
      <trkpt lat="36.7492130" lon="-3.7841870">
        <ele>195.0</ele>
        <time>2022-01-08T12:07:10Z</time>
      </trkpt>
      <trkpt lat="36.7492170" lon="-3.7842040">
        <ele>194.0</ele>
        <time>2022-01-08T12:07:11Z</time>
      </trkpt>
      <trkpt lat="36.7492210" lon="-3.7842210">
        <ele>194.0</ele>
        <time>2022-01-08T12:07:12Z</time>
      </trkpt>
      <trkpt lat="36.7492260" lon="-3.7842380">
        <ele>193.0</ele>
        <time>2022-01-08T12:07:13Z</time>
      </trkpt>
      <trkpt lat="36.7492330" lon="-3.7842670">
        <ele>192.0</ele>
        <time>2022-01-08T12:07:14Z</time>
      </trkpt>
      <trkpt lat="36.7492330" lon="-3.7842670">
        <ele>192.0</ele>
        <time>2022-01-08T12:07:15Z</time>
      </trkpt>
      <trkpt lat="36.7492390" lon="-3.7843020">
        <ele>191.0</ele>
        <time>2022-01-08T12:07:16Z</time>
      </trkpt>
      <trkpt lat="36.7492390" lon="-3.7843020">
        <ele>191.0</ele>
        <time>2022-01-08T12:07:17Z</time>
      </trkpt>
      <trkpt lat="36.7492380" lon="-3.7843360">
        <ele>190.0</ele>
        <time>2022-01-08T12:07:18Z</time>
      </trkpt>
      <trkpt lat="36.7492380" lon="-3.7843360">
        <ele>189.0</ele>
        <time>2022-01-08T12:07:19Z</time>
      </trkpt>
      <trkpt lat="36.7492430" lon="-3.7843660">
        <ele>189.0</ele>
        <time>2022-01-08T12:07:20Z</time>
      </trkpt>
      <trkpt lat="36.7492430" lon="-3.7843660">
        <ele>189.0</ele>
        <time>2022-01-08T12:07:21Z</time>
      </trkpt>
      <trkpt lat="36.7492460" lon="-3.7843900">
        <ele>189.0</ele>
        <time>2022-01-08T12:07:22Z</time>
      </trkpt>
      <trkpt lat="36.7492460" lon="-3.7843900">
        <ele>188.0</ele>
        <time>2022-01-08T12:07:23Z</time>
      </trkpt>
      <trkpt lat="36.7492540" lon="-3.7844150">
        <ele>187.0</ele>
        <time>2022-01-08T12:07:24Z</time>
      </trkpt>
      <trkpt lat="36.7492540" lon="-3.7844150">
        <ele>187.0</ele>
        <time>2022-01-08T12:07:25Z</time>
      </trkpt>
      <trkpt lat="36.7492630" lon="-3.7844440">
        <ele>187.0</ele>
        <time>2022-01-08T12:07:26Z</time>
      </trkpt>
      <trkpt lat="36.7492630" lon="-3.7844440">
        <ele>187.0</ele>
        <time>2022-01-08T12:07:27Z</time>
      </trkpt>
      <trkpt lat="36.7492700" lon="-3.7844740">
        <ele>186.0</ele>
        <time>2022-01-08T12:07:28Z</time>
      </trkpt>
      <trkpt lat="36.7492700" lon="-3.7844740">
        <ele>185.0</ele>
        <time>2022-01-08T12:07:29Z</time>
      </trkpt>
      <trkpt lat="36.7492850" lon="-3.7845040">
        <ele>184.0</ele>
        <time>2022-01-08T12:07:30Z</time>
      </trkpt>
      <trkpt lat="36.7492850" lon="-3.7845040">
        <ele>184.0</ele>
        <time>2022-01-08T12:07:31Z</time>
      </trkpt>
      <trkpt lat="36.7493010" lon="-3.7845300">
        <ele>182.0</ele>
        <time>2022-01-08T12:07:32Z</time>
      </trkpt>
      <trkpt lat="36.7493010" lon="-3.7845300">
        <ele>181.0</ele>
        <time>2022-01-08T12:07:33Z</time>
      </trkpt>
      <trkpt lat="36.7493210" lon="-3.7845500">
        <ele>181.0</ele>
        <time>2022-01-08T12:07:34Z</time>
      </trkpt>
      <trkpt lat="36.7493210" lon="-3.7845500">
        <ele>180.0</ele>
        <time>2022-01-08T12:07:35Z</time>
      </trkpt>
      <trkpt lat="36.7493430" lon="-3.7845690">
        <ele>180.0</ele>
        <time>2022-01-08T12:07:36Z</time>
      </trkpt>
      <trkpt lat="36.7493430" lon="-3.7845690">
        <ele>180.0</ele>
        <time>2022-01-08T12:07:37Z</time>
      </trkpt>
      <trkpt lat="36.7493660" lon="-3.7845870">
        <ele>179.0</ele>
        <time>2022-01-08T12:07:38Z</time>
      </trkpt>
      <trkpt lat="36.7493660" lon="-3.7845870">
        <ele>179.0</ele>
        <time>2022-01-08T12:07:39Z</time>
      </trkpt>
      <trkpt lat="36.7493880" lon="-3.7845990">
        <ele>179.0</ele>
        <time>2022-01-08T12:07:40Z</time>
      </trkpt>
      <trkpt lat="36.7493880" lon="-3.7845990">
        <ele>179.0</ele>
        <time>2022-01-08T12:07:41Z</time>
      </trkpt>
      <trkpt lat="36.7494070" lon="-3.7846070">
        <ele>178.0</ele>
        <time>2022-01-08T12:07:42Z</time>
      </trkpt>
      <trkpt lat="36.7494070" lon="-3.7846070">
        <ele>177.0</ele>
        <time>2022-01-08T12:07:43Z</time>
      </trkpt>
      <trkpt lat="36.7494240" lon="-3.7846190">
        <ele>176.0</ele>
        <time>2022-01-08T12:07:44Z</time>
      </trkpt>
      <trkpt lat="36.7494240" lon="-3.7846190">
        <ele>175.0</ele>
        <time>2022-01-08T12:07:45Z</time>
      </trkpt>
      <trkpt lat="36.7494240" lon="-3.7846190">
        <ele>175.0</ele>
        <time>2022-01-08T12:07:46Z</time>
      </trkpt>
      <trkpt lat="36.7494500" lon="-3.7846230">
        <ele>175.0</ele>
        <time>2022-01-08T12:07:47Z</time>
      </trkpt>
      <trkpt lat="36.7494500" lon="-3.7846230">
        <ele>174.0</ele>
        <time>2022-01-08T12:07:48Z</time>
      </trkpt>
      <trkpt lat="36.7494730" lon="-3.7846280">
        <ele>173.0</ele>
        <time>2022-01-08T12:07:49Z</time>
      </trkpt>
      <trkpt lat="36.7494730" lon="-3.7846280">
        <ele>173.0</ele>
        <time>2022-01-08T12:07:50Z</time>
      </trkpt>
      <trkpt lat="36.7494920" lon="-3.7846300">
        <ele>171.0</ele>
        <time>2022-01-08T12:07:51Z</time>
      </trkpt>
      <trkpt lat="36.7494920" lon="-3.7846300">
        <ele>170.0</ele>
        <time>2022-01-08T12:07:52Z</time>
      </trkpt>
      <trkpt lat="36.7495180" lon="-3.7846270">
        <ele>170.0</ele>
        <time>2022-01-08T12:07:53Z</time>
      </trkpt>
      <trkpt lat="36.7495180" lon="-3.7846270">
        <ele>170.0</ele>
        <time>2022-01-08T12:07:54Z</time>
      </trkpt>
      <trkpt lat="36.7495180" lon="-3.7846270">
        <ele>170.0</ele>
        <time>2022-01-08T12:07:55Z</time>
      </trkpt>
      <trkpt lat="36.7495180" lon="-3.7846270">
        <ele>170.0</ele>
        <time>2022-01-08T12:07:56Z</time>
      </trkpt>
      <trkpt lat="36.7495180" lon="-3.7846270">
        <ele>170.0</ele>
        <time>2022-01-08T12:07:57Z</time>
      </trkpt>
      <trkpt lat="36.7495380" lon="-3.7846310">
        <ele>170.0</ele>
        <time>2022-01-08T12:07:58Z</time>
      </trkpt>
      <trkpt lat="36.7495380" lon="-3.7846310">
        <ele>170.0</ele>
        <time>2022-01-08T12:07:59Z</time>
      </trkpt>
      <trkpt lat="36.7495380" lon="-3.7846310">
        <ele>170.0</ele>
        <time>2022-01-08T12:08:00Z</time>
      </trkpt>
      <trkpt lat="36.7495380" lon="-3.7846310">
        <ele>170.0</ele>
        <time>2022-01-08T12:08:01Z</time>
      </trkpt>
      <trkpt lat="36.7495380" lon="-3.7846310">
        <ele>169.0</ele>
        <time>2022-01-08T12:08:02Z</time>
      </trkpt>
      <trkpt lat="36.7495380" lon="-3.7846310">
        <ele>169.0</ele>
        <time>2022-01-08T12:08:03Z</time>
      </trkpt>
      <trkpt lat="36.7495380" lon="-3.7846310">
        <ele>169.0</ele>
        <time>2022-01-08T12:08:04Z</time>
      </trkpt>
      <trkpt lat="36.7495380" lon="-3.7846310">
        <ele>169.0</ele>
        <time>2022-01-08T12:08:05Z</time>
      </trkpt>
      <trkpt lat="36.7495380" lon="-3.7846310">
        <ele>169.0</ele>
        <time>2022-01-08T12:08:06Z</time>
      </trkpt>
      <trkpt lat="36.7495380" lon="-3.7846310">
        <ele>169.0</ele>
        <time>2022-01-08T12:08:07Z</time>
      </trkpt>
      <trkpt lat="36.7495380" lon="-3.7846310">
        <ele>169.0</ele>
        <time>2022-01-08T12:08:08Z</time>
      </trkpt>
      <trkpt lat="36.7495380" lon="-3.7846310">
        <ele>169.0</ele>
        <time>2022-01-08T12:08:09Z</time>
      </trkpt>
      <trkpt lat="36.7495380" lon="-3.7846310">
        <ele>168.0</ele>
        <time>2022-01-08T12:08:10Z</time>
      </trkpt>
      <trkpt lat="36.7495380" lon="-3.7846310">
        <ele>168.0</ele>
        <time>2022-01-08T12:08:11Z</time>
      </trkpt>
      <trkpt lat="36.7495380" lon="-3.7846310">
        <ele>168.0</ele>
        <time>2022-01-08T12:08:12Z</time>
      </trkpt>
      <trkpt lat="36.7495380" lon="-3.7846310">
        <ele>168.0</ele>
        <time>2022-01-08T12:08:13Z</time>
      </trkpt>
      <trkpt lat="36.7495380" lon="-3.7846310">
        <ele>167.0</ele>
        <time>2022-01-08T12:08:14Z</time>
      </trkpt>
      <trkpt lat="36.7495380" lon="-3.7846310">
        <ele>167.0</ele>
        <time>2022-01-08T12:08:15Z</time>
      </trkpt>
      <trkpt lat="36.7495380" lon="-3.7846310">
        <ele>167.0</ele>
        <time>2022-01-08T12:08:16Z</time>
      </trkpt>
      <trkpt lat="36.7495380" lon="-3.7846310">
        <ele>167.0</ele>
        <time>2022-01-08T12:08:17Z</time>
      </trkpt>
      <trkpt lat="36.7495380" lon="-3.7846310">
        <ele>167.0</ele>
        <time>2022-01-08T12:08:18Z</time>
      </trkpt>
      <trkpt lat="36.7495380" lon="-3.7846310">
        <ele>167.0</ele>
        <time>2022-01-08T12:08:19Z</time>
      </trkpt>
      <trkpt lat="36.7495380" lon="-3.7846310">
        <ele>167.0</ele>
        <time>2022-01-08T12:08:20Z</time>
      </trkpt>
      <trkpt lat="36.7495380" lon="-3.7846310">
        <ele>167.0</ele>
        <time>2022-01-08T12:08:21Z</time>
      </trkpt>
      <trkpt lat="36.7495380" lon="-3.7846310">
        <ele>167.0</ele>
        <time>2022-01-08T12:08:22Z</time>
      </trkpt>
      <trkpt lat="36.7495380" lon="-3.7846310">
        <ele>167.0</ele>
        <time>2022-01-08T12:08:23Z</time>
      </trkpt>
      <trkpt lat="36.7495380" lon="-3.7846310">
        <ele>167.0</ele>
        <time>2022-01-08T12:08:24Z</time>
      </trkpt>
      <trkpt lat="36.7495380" lon="-3.7846310">
        <ele>167.0</ele>
        <time>2022-01-08T12:08:25Z</time>
      </trkpt>
      <trkpt lat="36.7495380" lon="-3.7846310">
        <ele>167.0</ele>
        <time>2022-01-08T12:08:26Z</time>
      </trkpt>
      <trkpt lat="36.7495380" lon="-3.7846310">
        <ele>167.0</ele>
        <time>2022-01-08T12:08:27Z</time>
      </trkpt>
      <trkpt lat="36.7495380" lon="-3.7846310">
        <ele>167.0</ele>
        <time>2022-01-08T12:08:28Z</time>
      </trkpt>
      <trkpt lat="36.7495380" lon="-3.7846310">
        <ele>167.0</ele>
        <time>2022-01-08T12:08:29Z</time>
      </trkpt>
      <trkpt lat="36.7495380" lon="-3.7846310">
        <ele>167.0</ele>
        <time>2022-01-08T12:08:30Z</time>
      </trkpt>
      <trkpt lat="36.7495380" lon="-3.7846310">
        <ele>167.0</ele>
        <time>2022-01-08T12:08:31Z</time>
      </trkpt>
      <trkpt lat="36.7495380" lon="-3.7846310">
        <ele>166.0</ele>
        <time>2022-01-08T12:08:32Z</time>
      </trkpt>
      <trkpt lat="36.7495380" lon="-3.7846310">
        <ele>166.0</ele>
        <time>2022-01-08T12:08:33Z</time>
      </trkpt>
      <trkpt lat="36.7495380" lon="-3.7846310">
        <ele>166.0</ele>
        <time>2022-01-08T12:08:34Z</time>
      </trkpt>
      <trkpt lat="36.7495380" lon="-3.7846310">
        <ele>166.0</ele>
        <time>2022-01-08T12:08:35Z</time>
      </trkpt>
      <trkpt lat="36.7495380" lon="-3.7846310">
        <ele>166.0</ele>
        <time>2022-01-08T12:08:36Z</time>
      </trkpt>
      <trkpt lat="36.7495380" lon="-3.7846310">
        <ele>166.0</ele>
        <time>2022-01-08T12:08:37Z</time>
      </trkpt>
      <trkpt lat="36.7495380" lon="-3.7846310">
        <ele>166.0</ele>
        <time>2022-01-08T12:08:38Z</time>
      </trkpt>
      <trkpt lat="36.7495380" lon="-3.7846310">
        <ele>166.0</ele>
        <time>2022-01-08T12:08:39Z</time>
      </trkpt>
      <trkpt lat="36.7495380" lon="-3.7846310">
        <ele>166.0</ele>
        <time>2022-01-08T12:08:40Z</time>
      </trkpt>
      <trkpt lat="36.7495380" lon="-3.7846310">
        <ele>165.0</ele>
        <time>2022-01-08T12:08:41Z</time>
      </trkpt>
      <trkpt lat="36.7495380" lon="-3.7846310">
        <ele>165.0</ele>
        <time>2022-01-08T12:08:42Z</time>
      </trkpt>
      <trkpt lat="36.7495380" lon="-3.7846310">
        <ele>164.0</ele>
        <time>2022-01-08T12:08:43Z</time>
      </trkpt>
      <trkpt lat="36.7495380" lon="-3.7846310">
        <ele>164.0</ele>
        <time>2022-01-08T12:08:44Z</time>
      </trkpt>
      <trkpt lat="36.7495520" lon="-3.7846570">
        <ele>164.0</ele>
        <time>2022-01-08T12:08:45Z</time>
      </trkpt>
      <trkpt lat="36.7495520" lon="-3.7846570">
        <ele>164.0</ele>
        <time>2022-01-08T12:08:46Z</time>
      </trkpt>
      <trkpt lat="36.7495730" lon="-3.7846590">
        <ele>164.0</ele>
        <time>2022-01-08T12:08:47Z</time>
      </trkpt>
      <trkpt lat="36.7495730" lon="-3.7846590">
        <ele>164.0</ele>
        <time>2022-01-08T12:08:48Z</time>
      </trkpt>
      <trkpt lat="36.7495950" lon="-3.7846630">
        <ele>163.0</ele>
        <time>2022-01-08T12:08:49Z</time>
      </trkpt>
      <trkpt lat="36.7495950" lon="-3.7846630">
        <ele>162.0</ele>
        <time>2022-01-08T12:08:50Z</time>
      </trkpt>
      <trkpt lat="36.7496130" lon="-3.7846720">
        <ele>162.0</ele>
        <time>2022-01-08T12:08:51Z</time>
      </trkpt>
      <trkpt lat="36.7496130" lon="-3.7846720">
        <ele>162.0</ele>
        <time>2022-01-08T12:08:52Z</time>
      </trkpt>
      <trkpt lat="36.7496340" lon="-3.7846800">
        <ele>162.0</ele>
        <time>2022-01-08T12:08:53Z</time>
      </trkpt>
      <trkpt lat="36.7496340" lon="-3.7846800">
        <ele>162.0</ele>
        <time>2022-01-08T12:08:54Z</time>
      </trkpt>
      <trkpt lat="36.7496570" lon="-3.7846800">
        <ele>162.0</ele>
        <time>2022-01-08T12:08:55Z</time>
      </trkpt>
      <trkpt lat="36.7496570" lon="-3.7846800">
        <ele>162.0</ele>
        <time>2022-01-08T12:08:56Z</time>
      </trkpt>
      <trkpt lat="36.7496780" lon="-3.7846820">
        <ele>161.0</ele>
        <time>2022-01-08T12:08:57Z</time>
      </trkpt>
      <trkpt lat="36.7496780" lon="-3.7846820">
        <ele>161.0</ele>
        <time>2022-01-08T12:08:58Z</time>
      </trkpt>
      <trkpt lat="36.7496920" lon="-3.7846950">
        <ele>161.0</ele>
        <time>2022-01-08T12:08:59Z</time>
      </trkpt>
      <trkpt lat="36.7496920" lon="-3.7846950">
        <ele>161.0</ele>
        <time>2022-01-08T12:09:00Z</time>
      </trkpt>
      <trkpt lat="36.7497060" lon="-3.7847120">
        <ele>161.0</ele>
        <time>2022-01-08T12:09:01Z</time>
      </trkpt>
      <trkpt lat="36.7497060" lon="-3.7847120">
        <ele>161.0</ele>
        <time>2022-01-08T12:09:02Z</time>
      </trkpt>
      <trkpt lat="36.7497060" lon="-3.7847120">
        <ele>161.0</ele>
        <time>2022-01-08T12:09:03Z</time>
      </trkpt>
      <trkpt lat="36.7497320" lon="-3.7847110">
        <ele>161.0</ele>
        <time>2022-01-08T12:09:04Z</time>
      </trkpt>
      <trkpt lat="36.7497320" lon="-3.7847110">
        <ele>161.0</ele>
        <time>2022-01-08T12:09:05Z</time>
      </trkpt>
      <trkpt lat="36.7497550" lon="-3.7847090">
        <ele>161.0</ele>
        <time>2022-01-08T12:09:06Z</time>
      </trkpt>
      <trkpt lat="36.7497550" lon="-3.7847090">
        <ele>161.0</ele>
        <time>2022-01-08T12:09:07Z</time>
      </trkpt>
      <trkpt lat="36.7497770" lon="-3.7847000">
        <ele>160.0</ele>
        <time>2022-01-08T12:09:08Z</time>
      </trkpt>
      <trkpt lat="36.7497770" lon="-3.7847000">
        <ele>160.0</ele>
        <time>2022-01-08T12:09:09Z</time>
      </trkpt>
      <trkpt lat="36.7498030" lon="-3.7846930">
        <ele>160.0</ele>
        <time>2022-01-08T12:09:10Z</time>
      </trkpt>
      <trkpt lat="36.7498030" lon="-3.7846930">
        <ele>160.0</ele>
        <time>2022-01-08T12:09:11Z</time>
      </trkpt>
      <trkpt lat="36.7498270" lon="-3.7846830">
        <ele>160.0</ele>
        <time>2022-01-08T12:09:12Z</time>
      </trkpt>
      <trkpt lat="36.7498270" lon="-3.7846830">
        <ele>160.0</ele>
        <time>2022-01-08T12:09:13Z</time>
      </trkpt>
      <trkpt lat="36.7498530" lon="-3.7846710">
        <ele>160.0</ele>
        <time>2022-01-08T12:09:14Z</time>
      </trkpt>
      <trkpt lat="36.7498530" lon="-3.7846710">
        <ele>160.0</ele>
        <time>2022-01-08T12:09:15Z</time>
      </trkpt>
      <trkpt lat="36.7498810" lon="-3.7846550">
        <ele>160.0</ele>
        <time>2022-01-08T12:09:16Z</time>
      </trkpt>
      <trkpt lat="36.7498810" lon="-3.7846550">
        <ele>160.0</ele>
        <time>2022-01-08T12:09:17Z</time>
      </trkpt>
      <trkpt lat="36.7499090" lon="-3.7846400">
        <ele>160.0</ele>
        <time>2022-01-08T12:09:18Z</time>
      </trkpt>
      <trkpt lat="36.7499090" lon="-3.7846400">
        <ele>160.0</ele>
        <time>2022-01-08T12:09:19Z</time>
      </trkpt>
      <trkpt lat="36.7499350" lon="-3.7846200">
        <ele>159.0</ele>
        <time>2022-01-08T12:09:20Z</time>
      </trkpt>
      <trkpt lat="36.7499350" lon="-3.7846200">
        <ele>159.0</ele>
        <time>2022-01-08T12:09:21Z</time>
      </trkpt>
      <trkpt lat="36.7499580" lon="-3.7846050">
        <ele>159.0</ele>
        <time>2022-01-08T12:09:22Z</time>
      </trkpt>
      <trkpt lat="36.7499580" lon="-3.7846050">
        <ele>158.0</ele>
        <time>2022-01-08T12:09:23Z</time>
      </trkpt>
      <trkpt lat="36.7499770" lon="-3.7845940">
        <ele>158.0</ele>
        <time>2022-01-08T12:09:24Z</time>
      </trkpt>
      <trkpt lat="36.7499770" lon="-3.7845940">
        <ele>158.0</ele>
        <time>2022-01-08T12:09:25Z</time>
      </trkpt>
      <trkpt lat="36.7499970" lon="-3.7845900">
        <ele>158.0</ele>
        <time>2022-01-08T12:09:26Z</time>
      </trkpt>
      <trkpt lat="36.7499970" lon="-3.7845900">
        <ele>157.0</ele>
        <time>2022-01-08T12:09:27Z</time>
      </trkpt>
      <trkpt lat="36.7499970" lon="-3.7845900">
        <ele>157.0</ele>
        <time>2022-01-08T12:09:28Z</time>
      </trkpt>
      <trkpt lat="36.7500150" lon="-3.7845780">
        <ele>157.0</ele>
        <time>2022-01-08T12:09:29Z</time>
      </trkpt>
      <trkpt lat="36.7500150" lon="-3.7845780">
        <ele>157.0</ele>
        <time>2022-01-08T12:09:30Z</time>
      </trkpt>
      <trkpt lat="36.7500150" lon="-3.7845780">
        <ele>157.0</ele>
        <time>2022-01-08T12:09:31Z</time>
      </trkpt>
      <trkpt lat="36.7500360" lon="-3.7845660">
        <ele>157.0</ele>
        <time>2022-01-08T12:09:32Z</time>
      </trkpt>
      <trkpt lat="36.7500360" lon="-3.7845660">
        <ele>157.0</ele>
        <time>2022-01-08T12:09:33Z</time>
      </trkpt>
      <trkpt lat="36.7500360" lon="-3.7845660">
        <ele>157.0</ele>
        <time>2022-01-08T12:09:34Z</time>
      </trkpt>
      <trkpt lat="36.7500560" lon="-3.7845530">
        <ele>157.0</ele>
        <time>2022-01-08T12:09:35Z</time>
      </trkpt>
      <trkpt lat="36.7500560" lon="-3.7845530">
        <ele>157.0</ele>
        <time>2022-01-08T12:09:36Z</time>
      </trkpt>
      <trkpt lat="36.7500770" lon="-3.7845440">
        <ele>157.0</ele>
        <time>2022-01-08T12:09:37Z</time>
      </trkpt>
      <trkpt lat="36.7500770" lon="-3.7845440">
        <ele>157.0</ele>
        <time>2022-01-08T12:09:38Z</time>
      </trkpt>
      <trkpt lat="36.7500770" lon="-3.7845440">
        <ele>156.0</ele>
        <time>2022-01-08T12:09:39Z</time>
      </trkpt>
      <trkpt lat="36.7501040" lon="-3.7845320">
        <ele>156.0</ele>
        <time>2022-01-08T12:09:40Z</time>
      </trkpt>
      <trkpt lat="36.7501040" lon="-3.7845320">
        <ele>156.0</ele>
        <time>2022-01-08T12:09:41Z</time>
      </trkpt>
      <trkpt lat="36.7501270" lon="-3.7845190">
        <ele>156.0</ele>
        <time>2022-01-08T12:09:42Z</time>
      </trkpt>
      <trkpt lat="36.7501270" lon="-3.7845190">
        <ele>156.0</ele>
        <time>2022-01-08T12:09:43Z</time>
      </trkpt>
      <trkpt lat="36.7501270" lon="-3.7845190">
        <ele>156.0</ele>
        <time>2022-01-08T12:09:44Z</time>
      </trkpt>
      <trkpt lat="36.7501270" lon="-3.7845190">
        <ele>156.0</ele>
        <time>2022-01-08T12:09:45Z</time>
      </trkpt>
      <trkpt lat="36.7501270" lon="-3.7845190">
        <ele>155.0</ele>
        <time>2022-01-08T12:09:46Z</time>
      </trkpt>
      <trkpt lat="36.7501270" lon="-3.7845190">
        <ele>155.0</ele>
        <time>2022-01-08T12:09:47Z</time>
      </trkpt>
      <trkpt lat="36.7501270" lon="-3.7845190">
        <ele>155.0</ele>
        <time>2022-01-08T12:09:48Z</time>
      </trkpt>
      <trkpt lat="36.7501270" lon="-3.7845190">
        <ele>155.0</ele>
        <time>2022-01-08T12:09:49Z</time>
      </trkpt>
      <trkpt lat="36.7501270" lon="-3.7845190">
        <ele>155.0</ele>
        <time>2022-01-08T12:09:50Z</time>
      </trkpt>
      <trkpt lat="36.7501270" lon="-3.7845190">
        <ele>154.0</ele>
        <time>2022-01-08T12:09:51Z</time>
      </trkpt>
      <trkpt lat="36.7501450" lon="-3.7845380">
        <ele>153.0</ele>
        <time>2022-01-08T12:09:52Z</time>
      </trkpt>
      <trkpt lat="36.7501450" lon="-3.7845380">
        <ele>153.0</ele>
        <time>2022-01-08T12:09:53Z</time>
      </trkpt>
      <trkpt lat="36.7501450" lon="-3.7845380">
        <ele>153.0</ele>
        <time>2022-01-08T12:09:54Z</time>
      </trkpt>
      <trkpt lat="36.7501450" lon="-3.7845380">
        <ele>152.0</ele>
        <time>2022-01-08T12:09:55Z</time>
      </trkpt>
      <trkpt lat="36.7501570" lon="-3.7845610">
        <ele>152.0</ele>
        <time>2022-01-08T12:09:56Z</time>
      </trkpt>
      <trkpt lat="36.7501570" lon="-3.7845610">
        <ele>152.0</ele>
        <time>2022-01-08T12:09:57Z</time>
      </trkpt>
      <trkpt lat="36.7501570" lon="-3.7845610">
        <ele>152.0</ele>
        <time>2022-01-08T12:09:58Z</time>
      </trkpt>
      <trkpt lat="36.7501770" lon="-3.7845890">
        <ele>151.0</ele>
        <time>2022-01-08T12:09:59Z</time>
      </trkpt>
      <trkpt lat="36.7501770" lon="-3.7845890">
        <ele>151.0</ele>
        <time>2022-01-08T12:10:00Z</time>
      </trkpt>
      <trkpt lat="36.7501920" lon="-3.7846240">
        <ele>151.0</ele>
        <time>2022-01-08T12:10:01Z</time>
      </trkpt>
      <trkpt lat="36.7501920" lon="-3.7846240">
        <ele>151.0</ele>
        <time>2022-01-08T12:10:02Z</time>
      </trkpt>
      <trkpt lat="36.7501940" lon="-3.7846560">
        <ele>151.0</ele>
        <time>2022-01-08T12:10:03Z</time>
      </trkpt>
      <trkpt lat="36.7501940" lon="-3.7846560">
        <ele>150.0</ele>
        <time>2022-01-08T12:10:04Z</time>
      </trkpt>
      <trkpt lat="36.7501940" lon="-3.7846560">
        <ele>149.0</ele>
        <time>2022-01-08T12:10:05Z</time>
      </trkpt>
      <trkpt lat="36.7501970" lon="-3.7846340">
        <ele>149.0</ele>
        <time>2022-01-08T12:10:06Z</time>
      </trkpt>
      <trkpt lat="36.7501970" lon="-3.7846340">
        <ele>149.0</ele>
        <time>2022-01-08T12:10:07Z</time>
      </trkpt>
      <trkpt lat="36.7501970" lon="-3.7846070">
        <ele>150.0</ele>
        <time>2022-01-08T12:10:08Z</time>
      </trkpt>
      <trkpt lat="36.7501940" lon="-3.7845800">
        <ele>150.0</ele>
        <time>2022-01-08T12:10:09Z</time>
      </trkpt>
      <trkpt lat="36.7501800" lon="-3.7845540">
        <ele>150.0</ele>
        <time>2022-01-08T12:10:10Z</time>
      </trkpt>
      <trkpt lat="36.7501730" lon="-3.7845320">
        <ele>150.0</ele>
        <time>2022-01-08T12:10:11Z</time>
      </trkpt>
      <trkpt lat="36.7501730" lon="-3.7845320">
        <ele>150.0</ele>
        <time>2022-01-08T12:10:12Z</time>
      </trkpt>
      <trkpt lat="36.7501500" lon="-3.7845010">
        <ele>150.0</ele>
        <time>2022-01-08T12:10:13Z</time>
      </trkpt>
      <trkpt lat="36.7501500" lon="-3.7845010">
        <ele>150.0</ele>
        <time>2022-01-08T12:10:14Z</time>
      </trkpt>
      <trkpt lat="36.7501330" lon="-3.7844860">
        <ele>151.0</ele>
        <time>2022-01-08T12:10:15Z</time>
      </trkpt>
      <trkpt lat="36.7501330" lon="-3.7844860">
        <ele>151.0</ele>
        <time>2022-01-08T12:10:16Z</time>
      </trkpt>
      <trkpt lat="36.7501330" lon="-3.7844860">
        <ele>151.0</ele>
        <time>2022-01-08T12:10:17Z</time>
      </trkpt>
      <trkpt lat="36.7501330" lon="-3.7844860">
        <ele>151.0</ele>
        <time>2022-01-08T12:10:18Z</time>
      </trkpt>
      <trkpt lat="36.7501120" lon="-3.7844700">
        <ele>151.0</ele>
        <time>2022-01-08T12:10:19Z</time>
      </trkpt>
      <trkpt lat="36.7501120" lon="-3.7844700">
        <ele>152.0</ele>
        <time>2022-01-08T12:10:20Z</time>
      </trkpt>
      <trkpt lat="36.7501120" lon="-3.7844700">
        <ele>152.0</ele>
        <time>2022-01-08T12:10:21Z</time>
      </trkpt>
      <trkpt lat="36.7500940" lon="-3.7844630">
        <ele>152.0</ele>
        <time>2022-01-08T12:10:22Z</time>
      </trkpt>
      <trkpt lat="36.7500940" lon="-3.7844630">
        <ele>152.0</ele>
        <time>2022-01-08T12:10:23Z</time>
      </trkpt>
      <trkpt lat="36.7500940" lon="-3.7844630">
        <ele>152.0</ele>
        <time>2022-01-08T12:10:24Z</time>
      </trkpt>
      <trkpt lat="36.7500730" lon="-3.7844810">
        <ele>152.0</ele>
        <time>2022-01-08T12:10:25Z</time>
      </trkpt>
      <trkpt lat="36.7500730" lon="-3.7844810">
        <ele>152.0</ele>
        <time>2022-01-08T12:10:26Z</time>
      </trkpt>
      <trkpt lat="36.7500560" lon="-3.7845040">
        <ele>152.0</ele>
        <time>2022-01-08T12:10:27Z</time>
      </trkpt>
      <trkpt lat="36.7500560" lon="-3.7845040">
        <ele>152.0</ele>
        <time>2022-01-08T12:10:28Z</time>
      </trkpt>
      <trkpt lat="36.7500280" lon="-3.7845170">
        <ele>152.0</ele>
        <time>2022-01-08T12:10:29Z</time>
      </trkpt>
      <trkpt lat="36.7500280" lon="-3.7845170">
        <ele>152.0</ele>
        <time>2022-01-08T12:10:30Z</time>
      </trkpt>
      <trkpt lat="36.7500090" lon="-3.7845300">
        <ele>152.0</ele>
        <time>2022-01-08T12:10:31Z</time>
      </trkpt>
      <trkpt lat="36.7500090" lon="-3.7845300">
        <ele>152.0</ele>
        <time>2022-01-08T12:10:32Z</time>
      </trkpt>
      <trkpt lat="36.7500090" lon="-3.7845300">
        <ele>151.0</ele>
        <time>2022-01-08T12:10:33Z</time>
      </trkpt>
      <trkpt lat="36.7500090" lon="-3.7845300">
        <ele>151.0</ele>
        <time>2022-01-08T12:10:34Z</time>
      </trkpt>
      <trkpt lat="36.7500090" lon="-3.7845300">
        <ele>151.0</ele>
        <time>2022-01-08T12:10:35Z</time>
      </trkpt>
      <trkpt lat="36.7499890" lon="-3.7845530">
        <ele>151.0</ele>
        <time>2022-01-08T12:10:36Z</time>
      </trkpt>
      <trkpt lat="36.7499890" lon="-3.7845530">
        <ele>150.0</ele>
        <time>2022-01-08T12:10:37Z</time>
      </trkpt>
      <trkpt lat="36.7499890" lon="-3.7845530">
        <ele>149.0</ele>
        <time>2022-01-08T12:10:38Z</time>
      </trkpt>
      <trkpt lat="36.7499660" lon="-3.7845590">
        <ele>149.0</ele>
        <time>2022-01-08T12:10:39Z</time>
      </trkpt>
      <trkpt lat="36.7499660" lon="-3.7845590">
        <ele>149.0</ele>
        <time>2022-01-08T12:10:40Z</time>
      </trkpt>
      <trkpt lat="36.7499660" lon="-3.7845590">
        <ele>149.0</ele>
        <time>2022-01-08T12:10:41Z</time>
      </trkpt>
      <trkpt lat="36.7499390" lon="-3.7845670">
        <ele>149.0</ele>
        <time>2022-01-08T12:10:42Z</time>
      </trkpt>
      <trkpt lat="36.7499390" lon="-3.7845670">
        <ele>148.0</ele>
        <time>2022-01-08T12:10:43Z</time>
      </trkpt>
      <trkpt lat="36.7499210" lon="-3.7845780">
        <ele>148.0</ele>
        <time>2022-01-08T12:10:44Z</time>
      </trkpt>
      <trkpt lat="36.7499210" lon="-3.7845780">
        <ele>148.0</ele>
        <time>2022-01-08T12:10:45Z</time>
      </trkpt>
      <trkpt lat="36.7499000" lon="-3.7845970">
        <ele>148.0</ele>
        <time>2022-01-08T12:10:46Z</time>
      </trkpt>
      <trkpt lat="36.7499000" lon="-3.7845970">
        <ele>148.0</ele>
        <time>2022-01-08T12:10:47Z</time>
      </trkpt>
      <trkpt lat="36.7498760" lon="-3.7846110">
        <ele>148.0</ele>
        <time>2022-01-08T12:10:48Z</time>
      </trkpt>
      <trkpt lat="36.7498760" lon="-3.7846110">
        <ele>148.0</ele>
        <time>2022-01-08T12:10:49Z</time>
      </trkpt>
      <trkpt lat="36.7498550" lon="-3.7846170">
        <ele>148.0</ele>
        <time>2022-01-08T12:10:50Z</time>
      </trkpt>
      <trkpt lat="36.7498550" lon="-3.7846170">
        <ele>148.0</ele>
        <time>2022-01-08T12:10:51Z</time>
      </trkpt>
      <trkpt lat="36.7498310" lon="-3.7846190">
        <ele>148.0</ele>
        <time>2022-01-08T12:10:52Z</time>
      </trkpt>
      <trkpt lat="36.7498310" lon="-3.7846190">
        <ele>148.0</ele>
        <time>2022-01-08T12:10:53Z</time>
      </trkpt>
      <trkpt lat="36.7498090" lon="-3.7846170">
        <ele>147.0</ele>
        <time>2022-01-08T12:10:54Z</time>
      </trkpt>
      <trkpt lat="36.7498090" lon="-3.7846170">
        <ele>148.0</ele>
        <time>2022-01-08T12:10:55Z</time>
      </trkpt>
      <trkpt lat="36.7497810" lon="-3.7846150">
        <ele>148.0</ele>
        <time>2022-01-08T12:10:56Z</time>
      </trkpt>
      <trkpt lat="36.7497810" lon="-3.7846150">
        <ele>148.0</ele>
        <time>2022-01-08T12:10:57Z</time>
      </trkpt>
      <trkpt lat="36.7497550" lon="-3.7846050">
        <ele>148.0</ele>
        <time>2022-01-08T12:10:58Z</time>
      </trkpt>
      <trkpt lat="36.7497550" lon="-3.7846050">
        <ele>148.0</ele>
        <time>2022-01-08T12:10:59Z</time>
      </trkpt>
      <trkpt lat="36.7497300" lon="-3.7845990">
        <ele>148.0</ele>
        <time>2022-01-08T12:11:00Z</time>
      </trkpt>
      <trkpt lat="36.7497300" lon="-3.7845990">
        <ele>148.0</ele>
        <time>2022-01-08T12:11:01Z</time>
      </trkpt>
      <trkpt lat="36.7497040" lon="-3.7845950">
        <ele>149.0</ele>
        <time>2022-01-08T12:11:02Z</time>
      </trkpt>
      <trkpt lat="36.7497040" lon="-3.7845950">
        <ele>149.0</ele>
        <time>2022-01-08T12:11:03Z</time>
      </trkpt>
      <trkpt lat="36.7496790" lon="-3.7845950">
        <ele>149.0</ele>
        <time>2022-01-08T12:11:04Z</time>
      </trkpt>
      <trkpt lat="36.7496790" lon="-3.7845950">
        <ele>149.0</ele>
        <time>2022-01-08T12:11:05Z</time>
      </trkpt>
      <trkpt lat="36.7496530" lon="-3.7845930">
        <ele>149.0</ele>
        <time>2022-01-08T12:11:06Z</time>
      </trkpt>
      <trkpt lat="36.7496530" lon="-3.7845930">
        <ele>149.0</ele>
        <time>2022-01-08T12:11:07Z</time>
      </trkpt>
      <trkpt lat="36.7496290" lon="-3.7845970">
        <ele>149.0</ele>
        <time>2022-01-08T12:11:08Z</time>
      </trkpt>
      <trkpt lat="36.7496290" lon="-3.7845970">
        <ele>150.0</ele>
        <time>2022-01-08T12:11:09Z</time>
      </trkpt>
      <trkpt lat="36.7496040" lon="-3.7846000">
        <ele>150.0</ele>
        <time>2022-01-08T12:11:10Z</time>
      </trkpt>
      <trkpt lat="36.7496040" lon="-3.7846000">
        <ele>150.0</ele>
        <time>2022-01-08T12:11:11Z</time>
      </trkpt>
      <trkpt lat="36.7495810" lon="-3.7845990">
        <ele>150.0</ele>
        <time>2022-01-08T12:11:12Z</time>
      </trkpt>
      <trkpt lat="36.7495810" lon="-3.7845990">
        <ele>150.0</ele>
        <time>2022-01-08T12:11:13Z</time>
      </trkpt>
      <trkpt lat="36.7495570" lon="-3.7845970">
        <ele>151.0</ele>
        <time>2022-01-08T12:11:14Z</time>
      </trkpt>
      <trkpt lat="36.7495570" lon="-3.7845970">
        <ele>151.0</ele>
        <time>2022-01-08T12:11:15Z</time>
      </trkpt>
      <trkpt lat="36.7495320" lon="-3.7845950">
        <ele>151.0</ele>
        <time>2022-01-08T12:11:16Z</time>
      </trkpt>
      <trkpt lat="36.7495320" lon="-3.7845950">
        <ele>151.0</ele>
        <time>2022-01-08T12:11:17Z</time>
      </trkpt>
      <trkpt lat="36.7495320" lon="-3.7845950">
        <ele>152.0</ele>
        <time>2022-01-08T12:11:18Z</time>
      </trkpt>
      <trkpt lat="36.7494950" lon="-3.7845930">
        <ele>152.0</ele>
        <time>2022-01-08T12:11:19Z</time>
      </trkpt>
      <trkpt lat="36.7494950" lon="-3.7845930">
        <ele>152.0</ele>
        <time>2022-01-08T12:11:20Z</time>
      </trkpt>
      <trkpt lat="36.7494730" lon="-3.7845910">
        <ele>152.0</ele>
        <time>2022-01-08T12:11:21Z</time>
      </trkpt>
      <trkpt lat="36.7494730" lon="-3.7845910">
        <ele>152.0</ele>
        <time>2022-01-08T12:11:22Z</time>
      </trkpt>
      <trkpt lat="36.7494500" lon="-3.7845880">
        <ele>152.0</ele>
        <time>2022-01-08T12:11:23Z</time>
      </trkpt>
      <trkpt lat="36.7494500" lon="-3.7845880">
        <ele>152.0</ele>
        <time>2022-01-08T12:11:24Z</time>
      </trkpt>
      <trkpt lat="36.7494280" lon="-3.7845830">
        <ele>152.0</ele>
        <time>2022-01-08T12:11:25Z</time>
      </trkpt>
      <trkpt lat="36.7494280" lon="-3.7845830">
        <ele>152.0</ele>
        <time>2022-01-08T12:11:26Z</time>
      </trkpt>
      <trkpt lat="36.7494030" lon="-3.7845760">
        <ele>152.0</ele>
        <time>2022-01-08T12:11:27Z</time>
      </trkpt>
      <trkpt lat="36.7494030" lon="-3.7845760">
        <ele>152.0</ele>
        <time>2022-01-08T12:11:28Z</time>
      </trkpt>
      <trkpt lat="36.7493800" lon="-3.7845670">
        <ele>152.0</ele>
        <time>2022-01-08T12:11:29Z</time>
      </trkpt>
      <trkpt lat="36.7493800" lon="-3.7845670">
        <ele>153.0</ele>
        <time>2022-01-08T12:11:30Z</time>
      </trkpt>
      <trkpt lat="36.7493560" lon="-3.7845560">
        <ele>153.0</ele>
        <time>2022-01-08T12:11:31Z</time>
      </trkpt>
      <trkpt lat="36.7493560" lon="-3.7845560">
        <ele>153.0</ele>
        <time>2022-01-08T12:11:32Z</time>
      </trkpt>
      <trkpt lat="36.7493350" lon="-3.7845410">
        <ele>153.0</ele>
        <time>2022-01-08T12:11:33Z</time>
      </trkpt>
      <trkpt lat="36.7493350" lon="-3.7845410">
        <ele>153.0</ele>
        <time>2022-01-08T12:11:34Z</time>
      </trkpt>
      <trkpt lat="36.7493180" lon="-3.7845200">
        <ele>154.0</ele>
        <time>2022-01-08T12:11:35Z</time>
      </trkpt>
      <trkpt lat="36.7493180" lon="-3.7845200">
        <ele>154.0</ele>
        <time>2022-01-08T12:11:36Z</time>
      </trkpt>
      <trkpt lat="36.7493110" lon="-3.7845070">
        <ele>154.0</ele>
        <time>2022-01-08T12:11:37Z</time>
      </trkpt>
      <trkpt lat="36.7493040" lon="-3.7844940">
        <ele>154.0</ele>
        <time>2022-01-08T12:11:38Z</time>
      </trkpt>
      <trkpt lat="36.7492970" lon="-3.7844810">
        <ele>154.0</ele>
        <time>2022-01-08T12:11:39Z</time>
      </trkpt>
      <trkpt lat="36.7492840" lon="-3.7844510">
        <ele>154.0</ele>
        <time>2022-01-08T12:11:40Z</time>
      </trkpt>
      <trkpt lat="36.7492840" lon="-3.7844510">
        <ele>155.0</ele>
        <time>2022-01-08T12:11:41Z</time>
      </trkpt>
      <trkpt lat="36.7492730" lon="-3.7844220">
        <ele>155.0</ele>
        <time>2022-01-08T12:11:42Z</time>
      </trkpt>
      <trkpt lat="36.7492730" lon="-3.7844220">
        <ele>155.0</ele>
        <time>2022-01-08T12:11:43Z</time>
      </trkpt>
      <trkpt lat="36.7492630" lon="-3.7843940">
        <ele>155.0</ele>
        <time>2022-01-08T12:11:44Z</time>
      </trkpt>
      <trkpt lat="36.7492630" lon="-3.7843940">
        <ele>155.0</ele>
        <time>2022-01-08T12:11:45Z</time>
      </trkpt>
      <trkpt lat="36.7492550" lon="-3.7843630">
        <ele>155.0</ele>
        <time>2022-01-08T12:11:46Z</time>
      </trkpt>
      <trkpt lat="36.7492550" lon="-3.7843630">
        <ele>156.0</ele>
        <time>2022-01-08T12:11:47Z</time>
      </trkpt>
      <trkpt lat="36.7492540" lon="-3.7843290">
        <ele>156.0</ele>
        <time>2022-01-08T12:11:48Z</time>
      </trkpt>
      <trkpt lat="36.7492540" lon="-3.7843290">
        <ele>156.0</ele>
        <time>2022-01-08T12:11:49Z</time>
      </trkpt>
      <trkpt lat="36.7492510" lon="-3.7842980">
        <ele>156.0</ele>
        <time>2022-01-08T12:11:50Z</time>
      </trkpt>
      <trkpt lat="36.7492510" lon="-3.7842980">
        <ele>156.0</ele>
        <time>2022-01-08T12:11:51Z</time>
      </trkpt>
      <trkpt lat="36.7492480" lon="-3.7842630">
        <ele>156.0</ele>
        <time>2022-01-08T12:11:52Z</time>
      </trkpt>
      <trkpt lat="36.7492480" lon="-3.7842630">
        <ele>156.0</ele>
        <time>2022-01-08T12:11:53Z</time>
      </trkpt>
      <trkpt lat="36.7492430" lon="-3.7842300">
        <ele>156.0</ele>
        <time>2022-01-08T12:11:54Z</time>
      </trkpt>
      <trkpt lat="36.7492430" lon="-3.7842300">
        <ele>156.0</ele>
        <time>2022-01-08T12:11:55Z</time>
      </trkpt>
      <trkpt lat="36.7492410" lon="-3.7841950">
        <ele>156.0</ele>
        <time>2022-01-08T12:11:56Z</time>
      </trkpt>
      <trkpt lat="36.7492410" lon="-3.7841950">
        <ele>156.0</ele>
        <time>2022-01-08T12:11:57Z</time>
      </trkpt>
      <trkpt lat="36.7492400" lon="-3.7841590">
        <ele>156.0</ele>
        <time>2022-01-08T12:11:58Z</time>
      </trkpt>
      <trkpt lat="36.7492400" lon="-3.7841590">
        <ele>156.0</ele>
        <time>2022-01-08T12:11:59Z</time>
      </trkpt>
      <trkpt lat="36.7492370" lon="-3.7841250">
        <ele>156.0</ele>
        <time>2022-01-08T12:12:00Z</time>
      </trkpt>
      <trkpt lat="36.7492370" lon="-3.7841250">
        <ele>156.0</ele>
        <time>2022-01-08T12:12:01Z</time>
      </trkpt>
      <trkpt lat="36.7492330" lon="-3.7840900">
        <ele>156.0</ele>
        <time>2022-01-08T12:12:02Z</time>
      </trkpt>
      <trkpt lat="36.7492330" lon="-3.7840900">
        <ele>157.0</ele>
        <time>2022-01-08T12:12:03Z</time>
      </trkpt>
      <trkpt lat="36.7492270" lon="-3.7840570">
        <ele>157.0</ele>
        <time>2022-01-08T12:12:04Z</time>
      </trkpt>
      <trkpt lat="36.7492270" lon="-3.7840570">
        <ele>157.0</ele>
        <time>2022-01-08T12:12:05Z</time>
      </trkpt>
      <trkpt lat="36.7492170" lon="-3.7840190">
        <ele>157.0</ele>
        <time>2022-01-08T12:12:06Z</time>
      </trkpt>
      <trkpt lat="36.7492170" lon="-3.7840190">
        <ele>157.0</ele>
        <time>2022-01-08T12:12:07Z</time>
      </trkpt>
      <trkpt lat="36.7492150" lon="-3.7839810">
        <ele>157.0</ele>
        <time>2022-01-08T12:12:08Z</time>
      </trkpt>
      <trkpt lat="36.7492150" lon="-3.7839810">
        <ele>157.0</ele>
        <time>2022-01-08T12:12:09Z</time>
      </trkpt>
      <trkpt lat="36.7492140" lon="-3.7839460">
        <ele>157.0</ele>
        <time>2022-01-08T12:12:10Z</time>
      </trkpt>
      <trkpt lat="36.7492140" lon="-3.7839460">
        <ele>157.0</ele>
        <time>2022-01-08T12:12:11Z</time>
      </trkpt>
      <trkpt lat="36.7492140" lon="-3.7839150">
        <ele>157.0</ele>
        <time>2022-01-08T12:12:12Z</time>
      </trkpt>
      <trkpt lat="36.7492140" lon="-3.7839150">
        <ele>157.0</ele>
        <time>2022-01-08T12:12:13Z</time>
      </trkpt>
      <trkpt lat="36.7492110" lon="-3.7838820">
        <ele>157.0</ele>
        <time>2022-01-08T12:12:14Z</time>
      </trkpt>
      <trkpt lat="36.7492110" lon="-3.7838820">
        <ele>156.0</ele>
        <time>2022-01-08T12:12:15Z</time>
      </trkpt>
      <trkpt lat="36.7492060" lon="-3.7838510">
        <ele>156.0</ele>
        <time>2022-01-08T12:12:16Z</time>
      </trkpt>
      <trkpt lat="36.7492060" lon="-3.7838510">
        <ele>156.0</ele>
        <time>2022-01-08T12:12:17Z</time>
      </trkpt>
      <trkpt lat="36.7491990" lon="-3.7838190">
        <ele>156.0</ele>
        <time>2022-01-08T12:12:18Z</time>
      </trkpt>
      <trkpt lat="36.7491990" lon="-3.7838190">
        <ele>156.0</ele>
        <time>2022-01-08T12:12:19Z</time>
      </trkpt>
      <trkpt lat="36.7491900" lon="-3.7837890">
        <ele>156.0</ele>
        <time>2022-01-08T12:12:20Z</time>
      </trkpt>
      <trkpt lat="36.7491900" lon="-3.7837890">
        <ele>156.0</ele>
        <time>2022-01-08T12:12:21Z</time>
      </trkpt>
      <trkpt lat="36.7491850" lon="-3.7837570">
        <ele>156.0</ele>
        <time>2022-01-08T12:12:22Z</time>
      </trkpt>
      <trkpt lat="36.7491850" lon="-3.7837570">
        <ele>156.0</ele>
        <time>2022-01-08T12:12:23Z</time>
      </trkpt>
      <trkpt lat="36.7491840" lon="-3.7837260">
        <ele>156.0</ele>
        <time>2022-01-08T12:12:24Z</time>
      </trkpt>
      <trkpt lat="36.7491840" lon="-3.7837260">
        <ele>156.0</ele>
        <time>2022-01-08T12:12:25Z</time>
      </trkpt>
      <trkpt lat="36.7491800" lon="-3.7836950">
        <ele>156.0</ele>
        <time>2022-01-08T12:12:26Z</time>
      </trkpt>
      <trkpt lat="36.7491800" lon="-3.7836950">
        <ele>156.0</ele>
        <time>2022-01-08T12:12:27Z</time>
      </trkpt>
      <trkpt lat="36.7491760" lon="-3.7836630">
        <ele>155.0</ele>
        <time>2022-01-08T12:12:28Z</time>
      </trkpt>
      <trkpt lat="36.7491760" lon="-3.7836630">
        <ele>155.0</ele>
        <time>2022-01-08T12:12:29Z</time>
      </trkpt>
      <trkpt lat="36.7491700" lon="-3.7836330">
        <ele>155.0</ele>
        <time>2022-01-08T12:12:30Z</time>
      </trkpt>
      <trkpt lat="36.7491700" lon="-3.7836330">
        <ele>155.0</ele>
        <time>2022-01-08T12:12:31Z</time>
      </trkpt>
      <trkpt lat="36.7491630" lon="-3.7836080">
        <ele>155.0</ele>
        <time>2022-01-08T12:12:32Z</time>
      </trkpt>
      <trkpt lat="36.7491630" lon="-3.7836080">
        <ele>155.0</ele>
        <time>2022-01-08T12:12:33Z</time>
      </trkpt>
      <trkpt lat="36.7491530" lon="-3.7835810">
        <ele>154.0</ele>
        <time>2022-01-08T12:12:34Z</time>
      </trkpt>
      <trkpt lat="36.7491530" lon="-3.7835810">
        <ele>154.0</ele>
        <time>2022-01-08T12:12:35Z</time>
      </trkpt>
      <trkpt lat="36.7491450" lon="-3.7835510">
        <ele>154.0</ele>
        <time>2022-01-08T12:12:36Z</time>
      </trkpt>
      <trkpt lat="36.7491450" lon="-3.7835510">
        <ele>153.0</ele>
        <time>2022-01-08T12:12:37Z</time>
      </trkpt>
      <trkpt lat="36.7491360" lon="-3.7835200">
        <ele>152.0</ele>
        <time>2022-01-08T12:12:38Z</time>
      </trkpt>
      <trkpt lat="36.7491360" lon="-3.7835200">
        <ele>152.0</ele>
        <time>2022-01-08T12:12:39Z</time>
      </trkpt>
      <trkpt lat="36.7491290" lon="-3.7834850">
        <ele>152.0</ele>
        <time>2022-01-08T12:12:40Z</time>
      </trkpt>
      <trkpt lat="36.7491290" lon="-3.7834850">
        <ele>152.0</ele>
        <time>2022-01-08T12:12:41Z</time>
      </trkpt>
      <trkpt lat="36.7491280" lon="-3.7834510">
        <ele>152.0</ele>
        <time>2022-01-08T12:12:42Z</time>
      </trkpt>
      <trkpt lat="36.7491280" lon="-3.7834510">
        <ele>152.0</ele>
        <time>2022-01-08T12:12:43Z</time>
      </trkpt>
      <trkpt lat="36.7491200" lon="-3.7834220">
        <ele>152.0</ele>
        <time>2022-01-08T12:12:44Z</time>
      </trkpt>
      <trkpt lat="36.7491200" lon="-3.7834220">
        <ele>152.0</ele>
        <time>2022-01-08T12:12:45Z</time>
      </trkpt>
      <trkpt lat="36.7491130" lon="-3.7833930">
        <ele>152.0</ele>
        <time>2022-01-08T12:12:46Z</time>
      </trkpt>
      <trkpt lat="36.7491130" lon="-3.7833930">
        <ele>152.0</ele>
        <time>2022-01-08T12:12:47Z</time>
      </trkpt>
      <trkpt lat="36.7491150" lon="-3.7833620">
        <ele>151.0</ele>
        <time>2022-01-08T12:12:48Z</time>
      </trkpt>
      <trkpt lat="36.7491150" lon="-3.7833620">
        <ele>151.0</ele>
        <time>2022-01-08T12:12:49Z</time>
      </trkpt>
      <trkpt lat="36.7491110" lon="-3.7833330">
        <ele>151.0</ele>
        <time>2022-01-08T12:12:50Z</time>
      </trkpt>
      <trkpt lat="36.7491110" lon="-3.7833330">
        <ele>150.0</ele>
        <time>2022-01-08T12:12:51Z</time>
      </trkpt>
      <trkpt lat="36.7491080" lon="-3.7833000">
        <ele>149.0</ele>
        <time>2022-01-08T12:12:52Z</time>
      </trkpt>
      <trkpt lat="36.7491080" lon="-3.7833000">
        <ele>149.0</ele>
        <time>2022-01-08T12:12:53Z</time>
      </trkpt>
      <trkpt lat="36.7490980" lon="-3.7832660">
        <ele>148.0</ele>
        <time>2022-01-08T12:12:54Z</time>
      </trkpt>
      <trkpt lat="36.7490980" lon="-3.7832660">
        <ele>148.0</ele>
        <time>2022-01-08T12:12:55Z</time>
      </trkpt>
      <trkpt lat="36.7490940" lon="-3.7832350">
        <ele>148.0</ele>
        <time>2022-01-08T12:12:56Z</time>
      </trkpt>
      <trkpt lat="36.7490940" lon="-3.7832350">
        <ele>148.0</ele>
        <time>2022-01-08T12:12:57Z</time>
      </trkpt>
      <trkpt lat="36.7490870" lon="-3.7832060">
        <ele>147.0</ele>
        <time>2022-01-08T12:12:58Z</time>
      </trkpt>
      <trkpt lat="36.7490870" lon="-3.7832060">
        <ele>147.0</ele>
        <time>2022-01-08T12:12:59Z</time>
      </trkpt>
      <trkpt lat="36.7490730" lon="-3.7831820">
        <ele>146.0</ele>
        <time>2022-01-08T12:13:00Z</time>
      </trkpt>
      <trkpt lat="36.7490730" lon="-3.7831820">
        <ele>146.0</ele>
        <time>2022-01-08T12:13:01Z</time>
      </trkpt>
      <trkpt lat="36.7490630" lon="-3.7831540">
        <ele>146.0</ele>
        <time>2022-01-08T12:13:02Z</time>
      </trkpt>
      <trkpt lat="36.7490630" lon="-3.7831540">
        <ele>146.0</ele>
        <time>2022-01-08T12:13:03Z</time>
      </trkpt>
      <trkpt lat="36.7490520" lon="-3.7831250">
        <ele>145.0</ele>
        <time>2022-01-08T12:13:04Z</time>
      </trkpt>
      <trkpt lat="36.7490520" lon="-3.7831250">
        <ele>145.0</ele>
        <time>2022-01-08T12:13:05Z</time>
      </trkpt>
      <trkpt lat="36.7490420" lon="-3.7830920">
        <ele>144.0</ele>
        <time>2022-01-08T12:13:06Z</time>
      </trkpt>
      <trkpt lat="36.7490420" lon="-3.7830920">
        <ele>144.0</ele>
        <time>2022-01-08T12:13:07Z</time>
      </trkpt>
      <trkpt lat="36.7490320" lon="-3.7830630">
        <ele>144.0</ele>
        <time>2022-01-08T12:13:08Z</time>
      </trkpt>
      <trkpt lat="36.7490320" lon="-3.7830630">
        <ele>144.0</ele>
        <time>2022-01-08T12:13:09Z</time>
      </trkpt>
      <trkpt lat="36.7490210" lon="-3.7830370">
        <ele>144.0</ele>
        <time>2022-01-08T12:13:10Z</time>
      </trkpt>
      <trkpt lat="36.7490210" lon="-3.7830370">
        <ele>143.0</ele>
        <time>2022-01-08T12:13:11Z</time>
      </trkpt>
      <trkpt lat="36.7490000" lon="-3.7830170">
        <ele>143.0</ele>
        <time>2022-01-08T12:13:12Z</time>
      </trkpt>
      <trkpt lat="36.7490000" lon="-3.7830170">
        <ele>143.0</ele>
        <time>2022-01-08T12:13:13Z</time>
      </trkpt>
      <trkpt lat="36.7489740" lon="-3.7830020">
        <ele>143.0</ele>
        <time>2022-01-08T12:13:14Z</time>
      </trkpt>
      <trkpt lat="36.7489740" lon="-3.7830020">
        <ele>143.0</ele>
        <time>2022-01-08T12:13:15Z</time>
      </trkpt>
      <trkpt lat="36.7489460" lon="-3.7829970">
        <ele>143.0</ele>
        <time>2022-01-08T12:13:16Z</time>
      </trkpt>
      <trkpt lat="36.7489460" lon="-3.7829970">
        <ele>143.0</ele>
        <time>2022-01-08T12:13:17Z</time>
      </trkpt>
      <trkpt lat="36.7489170" lon="-3.7829990">
        <ele>143.0</ele>
        <time>2022-01-08T12:13:18Z</time>
      </trkpt>
      <trkpt lat="36.7489170" lon="-3.7829990">
        <ele>143.0</ele>
        <time>2022-01-08T12:13:19Z</time>
      </trkpt>
      <trkpt lat="36.7488900" lon="-3.7830080">
        <ele>143.0</ele>
        <time>2022-01-08T12:13:20Z</time>
      </trkpt>
      <trkpt lat="36.7488900" lon="-3.7830080">
        <ele>143.0</ele>
        <time>2022-01-08T12:13:21Z</time>
      </trkpt>
      <trkpt lat="36.7488670" lon="-3.7830190">
        <ele>144.0</ele>
        <time>2022-01-08T12:13:22Z</time>
      </trkpt>
      <trkpt lat="36.7488670" lon="-3.7830190">
        <ele>144.0</ele>
        <time>2022-01-08T12:13:23Z</time>
      </trkpt>
      <trkpt lat="36.7488460" lon="-3.7830340">
        <ele>144.0</ele>
        <time>2022-01-08T12:13:24Z</time>
      </trkpt>
      <trkpt lat="36.7488460" lon="-3.7830340">
        <ele>144.0</ele>
        <time>2022-01-08T12:13:25Z</time>
      </trkpt>
      <trkpt lat="36.7488250" lon="-3.7830530">
        <ele>145.0</ele>
        <time>2022-01-08T12:13:26Z</time>
      </trkpt>
      <trkpt lat="36.7488250" lon="-3.7830530">
        <ele>146.0</ele>
        <time>2022-01-08T12:13:27Z</time>
      </trkpt>
      <trkpt lat="36.7488030" lon="-3.7830680">
        <ele>146.0</ele>
        <time>2022-01-08T12:13:28Z</time>
      </trkpt>
      <trkpt lat="36.7488030" lon="-3.7830680">
        <ele>146.0</ele>
        <time>2022-01-08T12:13:29Z</time>
      </trkpt>
      <trkpt lat="36.7487800" lon="-3.7830830">
        <ele>146.0</ele>
        <time>2022-01-08T12:13:30Z</time>
      </trkpt>
      <trkpt lat="36.7487800" lon="-3.7830830">
        <ele>146.0</ele>
        <time>2022-01-08T12:13:31Z</time>
      </trkpt>
      <trkpt lat="36.7487540" lon="-3.7830920">
        <ele>147.0</ele>
        <time>2022-01-08T12:13:32Z</time>
      </trkpt>
      <trkpt lat="36.7487540" lon="-3.7830920">
        <ele>147.0</ele>
        <time>2022-01-08T12:13:33Z</time>
      </trkpt>
      <trkpt lat="36.7487300" lon="-3.7831060">
        <ele>147.0</ele>
        <time>2022-01-08T12:13:34Z</time>
      </trkpt>
      <trkpt lat="36.7487300" lon="-3.7831060">
        <ele>147.0</ele>
        <time>2022-01-08T12:13:35Z</time>
      </trkpt>
      <trkpt lat="36.7487080" lon="-3.7831240">
        <ele>147.0</ele>
        <time>2022-01-08T12:13:36Z</time>
      </trkpt>
      <trkpt lat="36.7487080" lon="-3.7831240">
        <ele>148.0</ele>
        <time>2022-01-08T12:13:37Z</time>
      </trkpt>
      <trkpt lat="36.7486850" lon="-3.7831430">
        <ele>149.0</ele>
        <time>2022-01-08T12:13:38Z</time>
      </trkpt>
      <trkpt lat="36.7486850" lon="-3.7831430">
        <ele>149.0</ele>
        <time>2022-01-08T12:13:39Z</time>
      </trkpt>
      <trkpt lat="36.7486600" lon="-3.7831600">
        <ele>149.0</ele>
        <time>2022-01-08T12:13:40Z</time>
      </trkpt>
      <trkpt lat="36.7486600" lon="-3.7831600">
        <ele>149.0</ele>
        <time>2022-01-08T12:13:41Z</time>
      </trkpt>
      <trkpt lat="36.7486360" lon="-3.7831800">
        <ele>149.0</ele>
        <time>2022-01-08T12:13:42Z</time>
      </trkpt>
      <trkpt lat="36.7486360" lon="-3.7831800">
        <ele>149.0</ele>
        <time>2022-01-08T12:13:43Z</time>
      </trkpt>
      <trkpt lat="36.7486140" lon="-3.7832020">
        <ele>149.0</ele>
        <time>2022-01-08T12:13:44Z</time>
      </trkpt>
      <trkpt lat="36.7486140" lon="-3.7832020">
        <ele>150.0</ele>
        <time>2022-01-08T12:13:45Z</time>
      </trkpt>
      <trkpt lat="36.7485930" lon="-3.7832260">
        <ele>150.0</ele>
        <time>2022-01-08T12:13:46Z</time>
      </trkpt>
      <trkpt lat="36.7485930" lon="-3.7832260">
        <ele>150.0</ele>
        <time>2022-01-08T12:13:47Z</time>
      </trkpt>
      <trkpt lat="36.7485740" lon="-3.7832510">
        <ele>151.0</ele>
        <time>2022-01-08T12:13:48Z</time>
      </trkpt>
      <trkpt lat="36.7485740" lon="-3.7832510">
        <ele>151.0</ele>
        <time>2022-01-08T12:13:49Z</time>
      </trkpt>
      <trkpt lat="36.7485590" lon="-3.7832790">
        <ele>151.0</ele>
        <time>2022-01-08T12:13:50Z</time>
      </trkpt>
      <trkpt lat="36.7485590" lon="-3.7832790">
        <ele>151.0</ele>
        <time>2022-01-08T12:13:51Z</time>
      </trkpt>
      <trkpt lat="36.7485470" lon="-3.7833070">
        <ele>151.0</ele>
        <time>2022-01-08T12:13:52Z</time>
      </trkpt>
      <trkpt lat="36.7485470" lon="-3.7833070">
        <ele>151.0</ele>
        <time>2022-01-08T12:13:53Z</time>
      </trkpt>
      <trkpt lat="36.7485330" lon="-3.7833310">
        <ele>151.0</ele>
        <time>2022-01-08T12:13:54Z</time>
      </trkpt>
      <trkpt lat="36.7485330" lon="-3.7833310">
        <ele>151.0</ele>
        <time>2022-01-08T12:13:55Z</time>
      </trkpt>
      <trkpt lat="36.7485140" lon="-3.7833500">
        <ele>151.0</ele>
        <time>2022-01-08T12:13:56Z</time>
      </trkpt>
      <trkpt lat="36.7485140" lon="-3.7833500">
        <ele>151.0</ele>
        <time>2022-01-08T12:13:57Z</time>
      </trkpt>
      <trkpt lat="36.7484980" lon="-3.7833730">
        <ele>151.0</ele>
        <time>2022-01-08T12:13:58Z</time>
      </trkpt>
      <trkpt lat="36.7484980" lon="-3.7833730">
        <ele>151.0</ele>
        <time>2022-01-08T12:13:59Z</time>
      </trkpt>
      <trkpt lat="36.7484840" lon="-3.7833980">
        <ele>150.0</ele>
        <time>2022-01-08T12:14:00Z</time>
      </trkpt>
      <trkpt lat="36.7484840" lon="-3.7833980">
        <ele>150.0</ele>
        <time>2022-01-08T12:14:01Z</time>
      </trkpt>
      <trkpt lat="36.7484700" lon="-3.7834240">
        <ele>150.0</ele>
        <time>2022-01-08T12:14:02Z</time>
      </trkpt>
      <trkpt lat="36.7484700" lon="-3.7834240">
        <ele>150.0</ele>
        <time>2022-01-08T12:14:03Z</time>
      </trkpt>
      <trkpt lat="36.7484520" lon="-3.7834450">
        <ele>150.0</ele>
        <time>2022-01-08T12:14:04Z</time>
      </trkpt>
      <trkpt lat="36.7484520" lon="-3.7834450">
        <ele>150.0</ele>
        <time>2022-01-08T12:14:05Z</time>
      </trkpt>
      <trkpt lat="36.7484350" lon="-3.7834670">
        <ele>150.0</ele>
        <time>2022-01-08T12:14:06Z</time>
      </trkpt>
      <trkpt lat="36.7484350" lon="-3.7834670">
        <ele>150.0</ele>
        <time>2022-01-08T12:14:07Z</time>
      </trkpt>
      <trkpt lat="36.7484190" lon="-3.7834920">
        <ele>150.0</ele>
        <time>2022-01-08T12:14:08Z</time>
      </trkpt>
      <trkpt lat="36.7484190" lon="-3.7834920">
        <ele>149.0</ele>
        <time>2022-01-08T12:14:09Z</time>
      </trkpt>
      <trkpt lat="36.7484020" lon="-3.7835120">
        <ele>149.0</ele>
        <time>2022-01-08T12:14:10Z</time>
      </trkpt>
      <trkpt lat="36.7484020" lon="-3.7835120">
        <ele>149.0</ele>
        <time>2022-01-08T12:14:11Z</time>
      </trkpt>
      <trkpt lat="36.7483840" lon="-3.7835310">
        <ele>148.0</ele>
        <time>2022-01-08T12:14:12Z</time>
      </trkpt>
      <trkpt lat="36.7483840" lon="-3.7835310">
        <ele>148.0</ele>
        <time>2022-01-08T12:14:13Z</time>
      </trkpt>
      <trkpt lat="36.7483650" lon="-3.7835540">
        <ele>147.0</ele>
        <time>2022-01-08T12:14:14Z</time>
      </trkpt>
      <trkpt lat="36.7483650" lon="-3.7835540">
        <ele>147.0</ele>
        <time>2022-01-08T12:14:15Z</time>
      </trkpt>
      <trkpt lat="36.7483460" lon="-3.7835720">
        <ele>147.0</ele>
        <time>2022-01-08T12:14:16Z</time>
      </trkpt>
      <trkpt lat="36.7483460" lon="-3.7835720">
        <ele>146.0</ele>
        <time>2022-01-08T12:14:17Z</time>
      </trkpt>
      <trkpt lat="36.7483240" lon="-3.7835860">
        <ele>146.0</ele>
        <time>2022-01-08T12:14:18Z</time>
      </trkpt>
      <trkpt lat="36.7483240" lon="-3.7835860">
        <ele>146.0</ele>
        <time>2022-01-08T12:14:19Z</time>
      </trkpt>
      <trkpt lat="36.7483060" lon="-3.7836080">
        <ele>145.0</ele>
        <time>2022-01-08T12:14:20Z</time>
      </trkpt>
      <trkpt lat="36.7483060" lon="-3.7836080">
        <ele>145.0</ele>
        <time>2022-01-08T12:14:21Z</time>
      </trkpt>
      <trkpt lat="36.7482870" lon="-3.7836270">
        <ele>145.0</ele>
        <time>2022-01-08T12:14:22Z</time>
      </trkpt>
      <trkpt lat="36.7482870" lon="-3.7836270">
        <ele>144.0</ele>
        <time>2022-01-08T12:14:23Z</time>
      </trkpt>
      <trkpt lat="36.7482660" lon="-3.7836490">
        <ele>144.0</ele>
        <time>2022-01-08T12:14:24Z</time>
      </trkpt>
      <trkpt lat="36.7482660" lon="-3.7836490">
        <ele>144.0</ele>
        <time>2022-01-08T12:14:25Z</time>
      </trkpt>
      <trkpt lat="36.7482450" lon="-3.7836720">
        <ele>143.0</ele>
        <time>2022-01-08T12:14:26Z</time>
      </trkpt>
      <trkpt lat="36.7482450" lon="-3.7836720">
        <ele>143.0</ele>
        <time>2022-01-08T12:14:27Z</time>
      </trkpt>
      <trkpt lat="36.7482450" lon="-3.7836720">
        <ele>143.0</ele>
        <time>2022-01-08T12:14:28Z</time>
      </trkpt>
      <trkpt lat="36.7482080" lon="-3.7837000">
        <ele>142.0</ele>
        <time>2022-01-08T12:14:29Z</time>
      </trkpt>
      <trkpt lat="36.7482080" lon="-3.7837000">
        <ele>142.0</ele>
        <time>2022-01-08T12:14:30Z</time>
      </trkpt>
      <trkpt lat="36.7481860" lon="-3.7837130">
        <ele>140.0</ele>
        <time>2022-01-08T12:14:31Z</time>
      </trkpt>
      <trkpt lat="36.7481860" lon="-3.7837130">
        <ele>140.0</ele>
        <time>2022-01-08T12:14:32Z</time>
      </trkpt>
      <trkpt lat="36.7481590" lon="-3.7837250">
        <ele>140.0</ele>
        <time>2022-01-08T12:14:33Z</time>
      </trkpt>
      <trkpt lat="36.7481590" lon="-3.7837250">
        <ele>140.0</ele>
        <time>2022-01-08T12:14:34Z</time>
      </trkpt>
      <trkpt lat="36.7481340" lon="-3.7837430">
        <ele>140.0</ele>
        <time>2022-01-08T12:14:35Z</time>
      </trkpt>
      <trkpt lat="36.7481340" lon="-3.7837430">
        <ele>140.0</ele>
        <time>2022-01-08T12:14:36Z</time>
      </trkpt>
      <trkpt lat="36.7481070" lon="-3.7837630">
        <ele>139.0</ele>
        <time>2022-01-08T12:14:37Z</time>
      </trkpt>
      <trkpt lat="36.7481070" lon="-3.7837630">
        <ele>138.0</ele>
        <time>2022-01-08T12:14:38Z</time>
      </trkpt>
      <trkpt lat="36.7480860" lon="-3.7837760">
        <ele>138.0</ele>
        <time>2022-01-08T12:14:39Z</time>
      </trkpt>
      <trkpt lat="36.7480860" lon="-3.7837760">
        <ele>138.0</ele>
        <time>2022-01-08T12:14:40Z</time>
      </trkpt>
      <trkpt lat="36.7480630" lon="-3.7837960">
        <ele>138.0</ele>
        <time>2022-01-08T12:14:41Z</time>
      </trkpt>
      <trkpt lat="36.7480630" lon="-3.7837960">
        <ele>137.0</ele>
        <time>2022-01-08T12:14:42Z</time>
      </trkpt>
      <trkpt lat="36.7480430" lon="-3.7838150">
        <ele>136.0</ele>
        <time>2022-01-08T12:14:43Z</time>
      </trkpt>
      <trkpt lat="36.7480430" lon="-3.7838150">
        <ele>135.0</ele>
        <time>2022-01-08T12:14:44Z</time>
      </trkpt>
      <trkpt lat="36.7480270" lon="-3.7838390">
        <ele>134.0</ele>
        <time>2022-01-08T12:14:45Z</time>
      </trkpt>
      <trkpt lat="36.7480270" lon="-3.7838390">
        <ele>134.0</ele>
        <time>2022-01-08T12:14:46Z</time>
      </trkpt>
      <trkpt lat="36.7480160" lon="-3.7838500">
        <ele>134.0</ele>
        <time>2022-01-08T12:14:47Z</time>
      </trkpt>
      <trkpt lat="36.7480050" lon="-3.7838610">
        <ele>134.0</ele>
        <time>2022-01-08T12:14:48Z</time>
      </trkpt>
      <trkpt lat="36.7479940" lon="-3.7838720">
        <ele>134.0</ele>
        <time>2022-01-08T12:14:49Z</time>
      </trkpt>
      <trkpt lat="36.7479800" lon="-3.7838990">
        <ele>133.0</ele>
        <time>2022-01-08T12:14:50Z</time>
      </trkpt>
      <trkpt lat="36.7479800" lon="-3.7838990">
        <ele>133.0</ele>
        <time>2022-01-08T12:14:51Z</time>
      </trkpt>
      <trkpt lat="36.7479630" lon="-3.7839220">
        <ele>133.0</ele>
        <time>2022-01-08T12:14:52Z</time>
      </trkpt>
      <trkpt lat="36.7479630" lon="-3.7839220">
        <ele>133.0</ele>
        <time>2022-01-08T12:14:53Z</time>
      </trkpt>
      <trkpt lat="36.7479510" lon="-3.7839480">
        <ele>132.0</ele>
        <time>2022-01-08T12:14:54Z</time>
      </trkpt>
      <trkpt lat="36.7479510" lon="-3.7839480">
        <ele>131.0</ele>
        <time>2022-01-08T12:14:55Z</time>
      </trkpt>
      <trkpt lat="36.7479390" lon="-3.7839850">
        <ele>131.0</ele>
        <time>2022-01-08T12:14:56Z</time>
      </trkpt>
      <trkpt lat="36.7479390" lon="-3.7839850">
        <ele>131.0</ele>
        <time>2022-01-08T12:14:57Z</time>
      </trkpt>
      <trkpt lat="36.7479400" lon="-3.7840250">
        <ele>130.0</ele>
        <time>2022-01-08T12:14:58Z</time>
      </trkpt>
      <trkpt lat="36.7479400" lon="-3.7840250">
        <ele>129.0</ele>
        <time>2022-01-08T12:14:59Z</time>
      </trkpt>
      <trkpt lat="36.7479380" lon="-3.7840670">
        <ele>129.0</ele>
        <time>2022-01-08T12:15:00Z</time>
      </trkpt>
      <trkpt lat="36.7479380" lon="-3.7840670">
        <ele>128.0</ele>
        <time>2022-01-08T12:15:01Z</time>
      </trkpt>
      <trkpt lat="36.7479340" lon="-3.7841060">
        <ele>127.0</ele>
        <time>2022-01-08T12:15:02Z</time>
      </trkpt>
      <trkpt lat="36.7479340" lon="-3.7841060">
        <ele>127.0</ele>
        <time>2022-01-08T12:15:03Z</time>
      </trkpt>
      <trkpt lat="36.7479330" lon="-3.7841430">
        <ele>126.0</ele>
        <time>2022-01-08T12:15:04Z</time>
      </trkpt>
      <trkpt lat="36.7479330" lon="-3.7841430">
        <ele>126.0</ele>
        <time>2022-01-08T12:15:05Z</time>
      </trkpt>
      <trkpt lat="36.7479350" lon="-3.7841620">
        <ele>126.0</ele>
        <time>2022-01-08T12:15:06Z</time>
      </trkpt>
      <trkpt lat="36.7479360" lon="-3.7841820">
        <ele>126.0</ele>
        <time>2022-01-08T12:15:07Z</time>
      </trkpt>
      <trkpt lat="36.7479370" lon="-3.7842010">
        <ele>126.0</ele>
        <time>2022-01-08T12:15:08Z</time>
      </trkpt>
      <trkpt lat="36.7479370" lon="-3.7842360">
        <ele>126.0</ele>
        <time>2022-01-08T12:15:09Z</time>
      </trkpt>
      <trkpt lat="36.7479370" lon="-3.7842360">
        <ele>125.0</ele>
        <time>2022-01-08T12:15:10Z</time>
      </trkpt>
      <trkpt lat="36.7479460" lon="-3.7842590">
        <ele>125.0</ele>
        <time>2022-01-08T12:15:11Z</time>
      </trkpt>
      <trkpt lat="36.7479460" lon="-3.7842590">
        <ele>125.0</ele>
        <time>2022-01-08T12:15:12Z</time>
      </trkpt>
      <trkpt lat="36.7479650" lon="-3.7842580">
        <ele>125.0</ele>
        <time>2022-01-08T12:15:13Z</time>
      </trkpt>
      <trkpt lat="36.7479650" lon="-3.7842580">
        <ele>125.0</ele>
        <time>2022-01-08T12:15:14Z</time>
      </trkpt>
      <trkpt lat="36.7479820" lon="-3.7842710">
        <ele>125.0</ele>
        <time>2022-01-08T12:15:15Z</time>
      </trkpt>
      <trkpt lat="36.7479820" lon="-3.7842710">
        <ele>124.0</ele>
        <time>2022-01-08T12:15:16Z</time>
      </trkpt>
      <trkpt lat="36.7479970" lon="-3.7843020">
        <ele>124.0</ele>
        <time>2022-01-08T12:15:17Z</time>
      </trkpt>
      <trkpt lat="36.7479970" lon="-3.7843020">
        <ele>124.0</ele>
        <time>2022-01-08T12:15:18Z</time>
      </trkpt>
      <trkpt lat="36.7480130" lon="-3.7843330">
        <ele>123.0</ele>
        <time>2022-01-08T12:15:19Z</time>
      </trkpt>
      <trkpt lat="36.7480130" lon="-3.7843330">
        <ele>123.0</ele>
        <time>2022-01-08T12:15:20Z</time>
      </trkpt>
      <trkpt lat="36.7480270" lon="-3.7843600">
        <ele>123.0</ele>
        <time>2022-01-08T12:15:21Z</time>
      </trkpt>
      <trkpt lat="36.7480270" lon="-3.7843600">
        <ele>122.0</ele>
        <time>2022-01-08T12:15:22Z</time>
      </trkpt>
      <trkpt lat="36.7480400" lon="-3.7843840">
        <ele>121.0</ele>
        <time>2022-01-08T12:15:23Z</time>
      </trkpt>
      <trkpt lat="36.7480400" lon="-3.7843840">
        <ele>121.0</ele>
        <time>2022-01-08T12:15:24Z</time>
      </trkpt>
      <trkpt lat="36.7480560" lon="-3.7844070">
        <ele>121.0</ele>
        <time>2022-01-08T12:15:25Z</time>
      </trkpt>
      <trkpt lat="36.7480560" lon="-3.7844070">
        <ele>121.0</ele>
        <time>2022-01-08T12:15:26Z</time>
      </trkpt>
      <trkpt lat="36.7480730" lon="-3.7844230">
        <ele>121.0</ele>
        <time>2022-01-08T12:15:27Z</time>
      </trkpt>
      <trkpt lat="36.7480730" lon="-3.7844230">
        <ele>121.0</ele>
        <time>2022-01-08T12:15:28Z</time>
      </trkpt>
      <trkpt lat="36.7481000" lon="-3.7844340">
        <ele>120.0</ele>
        <time>2022-01-08T12:15:29Z</time>
      </trkpt>
      <trkpt lat="36.7481000" lon="-3.7844340">
        <ele>119.0</ele>
        <time>2022-01-08T12:15:30Z</time>
      </trkpt>
      <trkpt lat="36.7481210" lon="-3.7844480">
        <ele>119.0</ele>
        <time>2022-01-08T12:15:31Z</time>
      </trkpt>
      <trkpt lat="36.7481210" lon="-3.7844480">
        <ele>119.0</ele>
        <time>2022-01-08T12:15:32Z</time>
      </trkpt>
      <trkpt lat="36.7481310" lon="-3.7844710">
        <ele>118.0</ele>
        <time>2022-01-08T12:15:33Z</time>
      </trkpt>
      <trkpt lat="36.7481310" lon="-3.7844710">
        <ele>118.0</ele>
        <time>2022-01-08T12:15:34Z</time>
      </trkpt>
      <trkpt lat="36.7481470" lon="-3.7844910">
        <ele>118.0</ele>
        <time>2022-01-08T12:15:35Z</time>
      </trkpt>
      <trkpt lat="36.7481470" lon="-3.7844910">
        <ele>118.0</ele>
        <time>2022-01-08T12:15:36Z</time>
      </trkpt>
      <trkpt lat="36.7481650" lon="-3.7845070">
        <ele>117.0</ele>
        <time>2022-01-08T12:15:37Z</time>
      </trkpt>
      <trkpt lat="36.7481650" lon="-3.7845070">
        <ele>117.0</ele>
        <time>2022-01-08T12:15:38Z</time>
      </trkpt>
      <trkpt lat="36.7481870" lon="-3.7845270">
        <ele>117.0</ele>
        <time>2022-01-08T12:15:39Z</time>
      </trkpt>
      <trkpt lat="36.7481870" lon="-3.7845270">
        <ele>117.0</ele>
        <time>2022-01-08T12:15:40Z</time>
      </trkpt>
      <trkpt lat="36.7482080" lon="-3.7845590">
        <ele>117.0</ele>
        <time>2022-01-08T12:15:41Z</time>
      </trkpt>
      <trkpt lat="36.7482080" lon="-3.7845590">
        <ele>116.0</ele>
        <time>2022-01-08T12:15:42Z</time>
      </trkpt>
      <trkpt lat="36.7482320" lon="-3.7845940">
        <ele>116.0</ele>
        <time>2022-01-08T12:15:43Z</time>
      </trkpt>
      <trkpt lat="36.7482320" lon="-3.7845940">
        <ele>116.0</ele>
        <time>2022-01-08T12:15:44Z</time>
      </trkpt>
      <trkpt lat="36.7482630" lon="-3.7846240">
        <ele>116.0</ele>
        <time>2022-01-08T12:15:45Z</time>
      </trkpt>
      <trkpt lat="36.7482630" lon="-3.7846240">
        <ele>116.0</ele>
        <time>2022-01-08T12:15:46Z</time>
      </trkpt>
      <trkpt lat="36.7482840" lon="-3.7846480">
        <ele>116.0</ele>
        <time>2022-01-08T12:15:47Z</time>
      </trkpt>
      <trkpt lat="36.7482840" lon="-3.7846480">
        <ele>115.0</ele>
        <time>2022-01-08T12:15:48Z</time>
      </trkpt>
      <trkpt lat="36.7483040" lon="-3.7846700">
        <ele>115.0</ele>
        <time>2022-01-08T12:15:49Z</time>
      </trkpt>
      <trkpt lat="36.7483040" lon="-3.7846700">
        <ele>114.0</ele>
        <time>2022-01-08T12:15:50Z</time>
      </trkpt>
      <trkpt lat="36.7483260" lon="-3.7846860">
        <ele>114.0</ele>
        <time>2022-01-08T12:15:51Z</time>
      </trkpt>
      <trkpt lat="36.7483260" lon="-3.7846860">
        <ele>114.0</ele>
        <time>2022-01-08T12:15:52Z</time>
      </trkpt>
      <trkpt lat="36.7483530" lon="-3.7846980">
        <ele>114.0</ele>
        <time>2022-01-08T12:15:53Z</time>
      </trkpt>
      <trkpt lat="36.7483530" lon="-3.7846980">
        <ele>113.0</ele>
        <time>2022-01-08T12:15:54Z</time>
      </trkpt>
      <trkpt lat="36.7483810" lon="-3.7847090">
        <ele>113.0</ele>
        <time>2022-01-08T12:15:55Z</time>
      </trkpt>
      <trkpt lat="36.7483810" lon="-3.7847090">
        <ele>112.0</ele>
        <time>2022-01-08T12:15:56Z</time>
      </trkpt>
      <trkpt lat="36.7484110" lon="-3.7847080">
        <ele>112.0</ele>
        <time>2022-01-08T12:15:57Z</time>
      </trkpt>
      <trkpt lat="36.7484110" lon="-3.7847080">
        <ele>112.0</ele>
        <time>2022-01-08T12:15:58Z</time>
      </trkpt>
      <trkpt lat="36.7484320" lon="-3.7847090">
        <ele>111.0</ele>
        <time>2022-01-08T12:15:59Z</time>
      </trkpt>
      <trkpt lat="36.7484320" lon="-3.7847090">
        <ele>111.0</ele>
        <time>2022-01-08T12:16:00Z</time>
      </trkpt>
      <trkpt lat="36.7484320" lon="-3.7847090">
        <ele>111.0</ele>
        <time>2022-01-08T12:16:01Z</time>
      </trkpt>
      <trkpt lat="36.7484590" lon="-3.7847220">
        <ele>111.0</ele>
        <time>2022-01-08T12:16:02Z</time>
      </trkpt>
      <trkpt lat="36.7484590" lon="-3.7847220">
        <ele>110.0</ele>
        <time>2022-01-08T12:16:03Z</time>
      </trkpt>
      <trkpt lat="36.7484760" lon="-3.7847320">
        <ele>110.0</ele>
        <time>2022-01-08T12:16:04Z</time>
      </trkpt>
      <trkpt lat="36.7484760" lon="-3.7847320">
        <ele>110.0</ele>
        <time>2022-01-08T12:16:05Z</time>
      </trkpt>
      <trkpt lat="36.7484760" lon="-3.7847320">
        <ele>108.0</ele>
        <time>2022-01-08T12:16:06Z</time>
      </trkpt>
      <trkpt lat="36.7485030" lon="-3.7847430">
        <ele>107.0</ele>
        <time>2022-01-08T12:16:07Z</time>
      </trkpt>
      <trkpt lat="36.7485030" lon="-3.7847430">
        <ele>107.0</ele>
        <time>2022-01-08T12:16:08Z</time>
      </trkpt>
      <trkpt lat="36.7485250" lon="-3.7847590">
        <ele>108.0</ele>
        <time>2022-01-08T12:16:09Z</time>
      </trkpt>
      <trkpt lat="36.7485250" lon="-3.7847590">
        <ele>108.0</ele>
        <time>2022-01-08T12:16:10Z</time>
      </trkpt>
      <trkpt lat="36.7485420" lon="-3.7847750">
        <ele>108.0</ele>
        <time>2022-01-08T12:16:11Z</time>
      </trkpt>
      <trkpt lat="36.7485420" lon="-3.7847750">
        <ele>107.0</ele>
        <time>2022-01-08T12:16:12Z</time>
      </trkpt>
      <trkpt lat="36.7485590" lon="-3.7847920">
        <ele>107.0</ele>
        <time>2022-01-08T12:16:13Z</time>
      </trkpt>
      <trkpt lat="36.7485590" lon="-3.7847920">
        <ele>107.0</ele>
        <time>2022-01-08T12:16:14Z</time>
      </trkpt>
      <trkpt lat="36.7485750" lon="-3.7848150">
        <ele>107.0</ele>
        <time>2022-01-08T12:16:15Z</time>
      </trkpt>
      <trkpt lat="36.7485750" lon="-3.7848150">
        <ele>107.0</ele>
        <time>2022-01-08T12:16:16Z</time>
      </trkpt>
      <trkpt lat="36.7485870" lon="-3.7848380">
        <ele>107.0</ele>
        <time>2022-01-08T12:16:17Z</time>
      </trkpt>
      <trkpt lat="36.7485870" lon="-3.7848380">
        <ele>107.0</ele>
        <time>2022-01-08T12:16:18Z</time>
      </trkpt>
      <trkpt lat="36.7486000" lon="-3.7848610">
        <ele>106.0</ele>
        <time>2022-01-08T12:16:19Z</time>
      </trkpt>
      <trkpt lat="36.7486000" lon="-3.7848610">
        <ele>106.0</ele>
        <time>2022-01-08T12:16:20Z</time>
      </trkpt>
      <trkpt lat="36.7486150" lon="-3.7848850">
        <ele>106.0</ele>
        <time>2022-01-08T12:16:21Z</time>
      </trkpt>
      <trkpt lat="36.7486150" lon="-3.7848850">
        <ele>106.0</ele>
        <time>2022-01-08T12:16:22Z</time>
      </trkpt>
      <trkpt lat="36.7486280" lon="-3.7849070">
        <ele>106.0</ele>
        <time>2022-01-08T12:16:23Z</time>
      </trkpt>
      <trkpt lat="36.7486280" lon="-3.7849070">
        <ele>106.0</ele>
        <time>2022-01-08T12:16:24Z</time>
      </trkpt>
      <trkpt lat="36.7486270" lon="-3.7849330">
        <ele>105.0</ele>
        <time>2022-01-08T12:16:25Z</time>
      </trkpt>
      <trkpt lat="36.7486270" lon="-3.7849330">
        <ele>104.0</ele>
        <time>2022-01-08T12:16:26Z</time>
      </trkpt>
      <trkpt lat="36.7486270" lon="-3.7849330">
        <ele>104.0</ele>
        <time>2022-01-08T12:16:27Z</time>
      </trkpt>
      <trkpt lat="36.7486270" lon="-3.7849330">
        <ele>104.0</ele>
        <time>2022-01-08T12:16:28Z</time>
      </trkpt>
      <trkpt lat="36.7486050" lon="-3.7849260">
        <ele>104.0</ele>
        <time>2022-01-08T12:16:29Z</time>
      </trkpt>
      <trkpt lat="36.7486050" lon="-3.7849260">
        <ele>104.0</ele>
        <time>2022-01-08T12:16:30Z</time>
      </trkpt>
      <trkpt lat="36.7485890" lon="-3.7849080">
        <ele>104.0</ele>
        <time>2022-01-08T12:16:31Z</time>
      </trkpt>
      <trkpt lat="36.7485890" lon="-3.7849080">
        <ele>104.0</ele>
        <time>2022-01-08T12:16:32Z</time>
      </trkpt>
      <trkpt lat="36.7485640" lon="-3.7848940">
        <ele>105.0</ele>
        <time>2022-01-08T12:16:33Z</time>
      </trkpt>
      <trkpt lat="36.7485640" lon="-3.7848940">
        <ele>105.0</ele>
        <time>2022-01-08T12:16:34Z</time>
      </trkpt>
      <trkpt lat="36.7485450" lon="-3.7848890">
        <ele>106.0</ele>
        <time>2022-01-08T12:16:35Z</time>
      </trkpt>
      <trkpt lat="36.7485450" lon="-3.7848890">
        <ele>106.0</ele>
        <time>2022-01-08T12:16:36Z</time>
      </trkpt>
      <trkpt lat="36.7485450" lon="-3.7848890">
        <ele>107.0</ele>
        <time>2022-01-08T12:16:37Z</time>
      </trkpt>
      <trkpt lat="36.7485450" lon="-3.7848890">
        <ele>107.0</ele>
        <time>2022-01-08T12:16:38Z</time>
      </trkpt>
      <trkpt lat="36.7485450" lon="-3.7848890">
        <ele>107.0</ele>
        <time>2022-01-08T12:16:39Z</time>
      </trkpt>
      <trkpt lat="36.7485410" lon="-3.7848640">
        <ele>107.0</ele>
        <time>2022-01-08T12:16:40Z</time>
      </trkpt>
      <trkpt lat="36.7485410" lon="-3.7848640">
        <ele>107.0</ele>
        <time>2022-01-08T12:16:41Z</time>
      </trkpt>
      <trkpt lat="36.7485210" lon="-3.7848600">
        <ele>107.0</ele>
        <time>2022-01-08T12:16:42Z</time>
      </trkpt>
      <trkpt lat="36.7485210" lon="-3.7848600">
        <ele>107.0</ele>
        <time>2022-01-08T12:16:43Z</time>
      </trkpt>
      <trkpt lat="36.7485020" lon="-3.7848600">
        <ele>107.0</ele>
        <time>2022-01-08T12:16:44Z</time>
      </trkpt>
      <trkpt lat="36.7485020" lon="-3.7848600">
        <ele>107.0</ele>
        <time>2022-01-08T12:16:45Z</time>
      </trkpt>
      <trkpt lat="36.7485020" lon="-3.7848600">
        <ele>107.0</ele>
        <time>2022-01-08T12:16:46Z</time>
      </trkpt>
      <trkpt lat="36.7484810" lon="-3.7848460">
        <ele>107.0</ele>
        <time>2022-01-08T12:16:47Z</time>
      </trkpt>
      <trkpt lat="36.7484810" lon="-3.7848460">
        <ele>107.0</ele>
        <time>2022-01-08T12:16:48Z</time>
      </trkpt>
      <trkpt lat="36.7484640" lon="-3.7848560">
        <ele>108.0</ele>
        <time>2022-01-08T12:16:49Z</time>
      </trkpt>
      <trkpt lat="36.7484640" lon="-3.7848560">
        <ele>108.0</ele>
        <time>2022-01-08T12:16:50Z</time>
      </trkpt>
      <trkpt lat="36.7484530" lon="-3.7848750">
        <ele>108.0</ele>
        <time>2022-01-08T12:16:51Z</time>
      </trkpt>
      <trkpt lat="36.7484530" lon="-3.7848750">
        <ele>109.0</ele>
        <time>2022-01-08T12:16:52Z</time>
      </trkpt>
      <trkpt lat="36.7484500" lon="-3.7849100">
        <ele>109.0</ele>
        <time>2022-01-08T12:16:53Z</time>
      </trkpt>
      <trkpt lat="36.7484500" lon="-3.7849100">
        <ele>109.0</ele>
        <time>2022-01-08T12:16:54Z</time>
      </trkpt>
      <trkpt lat="36.7484480" lon="-3.7849520">
        <ele>109.0</ele>
        <time>2022-01-08T12:16:55Z</time>
      </trkpt>
      <trkpt lat="36.7484480" lon="-3.7849520">
        <ele>109.0</ele>
        <time>2022-01-08T12:16:56Z</time>
      </trkpt>
      <trkpt lat="36.7484370" lon="-3.7849910">
        <ele>109.0</ele>
        <time>2022-01-08T12:16:57Z</time>
      </trkpt>
      <trkpt lat="36.7484370" lon="-3.7849910">
        <ele>108.0</ele>
        <time>2022-01-08T12:16:58Z</time>
      </trkpt>
      <trkpt lat="36.7484300" lon="-3.7850270">
        <ele>108.0</ele>
        <time>2022-01-08T12:16:59Z</time>
      </trkpt>
      <trkpt lat="36.7484300" lon="-3.7850270">
        <ele>107.0</ele>
        <time>2022-01-08T12:17:00Z</time>
      </trkpt>
      <trkpt lat="36.7484200" lon="-3.7850610">
        <ele>107.0</ele>
        <time>2022-01-08T12:17:01Z</time>
      </trkpt>
      <trkpt lat="36.7484200" lon="-3.7850610">
        <ele>107.0</ele>
        <time>2022-01-08T12:17:02Z</time>
      </trkpt>
      <trkpt lat="36.7484190" lon="-3.7850990">
        <ele>106.0</ele>
        <time>2022-01-08T12:17:03Z</time>
      </trkpt>
      <trkpt lat="36.7484190" lon="-3.7850990">
        <ele>106.0</ele>
        <time>2022-01-08T12:17:04Z</time>
      </trkpt>
      <trkpt lat="36.7484120" lon="-3.7851330">
        <ele>106.0</ele>
        <time>2022-01-08T12:17:05Z</time>
      </trkpt>
      <trkpt lat="36.7484120" lon="-3.7851330">
        <ele>105.0</ele>
        <time>2022-01-08T12:17:06Z</time>
      </trkpt>
      <trkpt lat="36.7484070" lon="-3.7851650">
        <ele>105.0</ele>
        <time>2022-01-08T12:17:07Z</time>
      </trkpt>
      <trkpt lat="36.7484070" lon="-3.7851650">
        <ele>105.0</ele>
        <time>2022-01-08T12:17:08Z</time>
      </trkpt>
      <trkpt lat="36.7484020" lon="-3.7851980">
        <ele>104.0</ele>
        <time>2022-01-08T12:17:09Z</time>
      </trkpt>
      <trkpt lat="36.7484020" lon="-3.7851980">
        <ele>104.0</ele>
        <time>2022-01-08T12:17:10Z</time>
      </trkpt>
      <trkpt lat="36.7483990" lon="-3.7852300">
        <ele>104.0</ele>
        <time>2022-01-08T12:17:11Z</time>
      </trkpt>
      <trkpt lat="36.7483990" lon="-3.7852300">
        <ele>104.0</ele>
        <time>2022-01-08T12:17:12Z</time>
      </trkpt>
      <trkpt lat="36.7484000" lon="-3.7852620">
        <ele>104.0</ele>
        <time>2022-01-08T12:17:13Z</time>
      </trkpt>
      <trkpt lat="36.7484000" lon="-3.7852620">
        <ele>103.0</ele>
        <time>2022-01-08T12:17:14Z</time>
      </trkpt>
      <trkpt lat="36.7484070" lon="-3.7852940">
        <ele>103.0</ele>
        <time>2022-01-08T12:17:15Z</time>
      </trkpt>
      <trkpt lat="36.7484070" lon="-3.7852940">
        <ele>102.0</ele>
        <time>2022-01-08T12:17:16Z</time>
      </trkpt>
      <trkpt lat="36.7484140" lon="-3.7853290">
        <ele>102.0</ele>
        <time>2022-01-08T12:17:17Z</time>
      </trkpt>
      <trkpt lat="36.7484140" lon="-3.7853290">
        <ele>102.0</ele>
        <time>2022-01-08T12:17:18Z</time>
      </trkpt>
      <trkpt lat="36.7484150" lon="-3.7853470">
        <ele>102.0</ele>
        <time>2022-01-08T12:17:19Z</time>
      </trkpt>
      <trkpt lat="36.7484160" lon="-3.7853640">
        <ele>102.0</ele>
        <time>2022-01-08T12:17:20Z</time>
      </trkpt>
      <trkpt lat="36.7484170" lon="-3.7853810">
        <ele>102.0</ele>
        <time>2022-01-08T12:17:21Z</time>
      </trkpt>
      <trkpt lat="36.7484160" lon="-3.7854180">
        <ele>100.0</ele>
        <time>2022-01-08T12:17:22Z</time>
      </trkpt>
      <trkpt lat="36.7484160" lon="-3.7854180">
        <ele>99.0</ele>
        <time>2022-01-08T12:17:23Z</time>
      </trkpt>
      <trkpt lat="36.7484090" lon="-3.7854510">
        <ele>99.0</ele>
        <time>2022-01-08T12:17:24Z</time>
      </trkpt>
      <trkpt lat="36.7484090" lon="-3.7854510">
        <ele>99.0</ele>
        <time>2022-01-08T12:17:25Z</time>
      </trkpt>
      <trkpt lat="36.7483960" lon="-3.7854780">
        <ele>99.0</ele>
        <time>2022-01-08T12:17:26Z</time>
      </trkpt>
      <trkpt lat="36.7483960" lon="-3.7854780">
        <ele>99.0</ele>
        <time>2022-01-08T12:17:27Z</time>
      </trkpt>
      <trkpt lat="36.7483830" lon="-3.7855080">
        <ele>99.0</ele>
        <time>2022-01-08T12:17:28Z</time>
      </trkpt>
      <trkpt lat="36.7483830" lon="-3.7855080">
        <ele>98.0</ele>
        <time>2022-01-08T12:17:29Z</time>
      </trkpt>
      <trkpt lat="36.7483690" lon="-3.7855320">
        <ele>98.0</ele>
        <time>2022-01-08T12:17:30Z</time>
      </trkpt>
      <trkpt lat="36.7483690" lon="-3.7855320">
        <ele>98.0</ele>
        <time>2022-01-08T12:17:31Z</time>
      </trkpt>
      <trkpt lat="36.7483560" lon="-3.7855550">
        <ele>98.0</ele>
        <time>2022-01-08T12:17:32Z</time>
      </trkpt>
      <trkpt lat="36.7483560" lon="-3.7855550">
        <ele>98.0</ele>
        <time>2022-01-08T12:17:33Z</time>
      </trkpt>
      <trkpt lat="36.7483420" lon="-3.7855790">
        <ele>98.0</ele>
        <time>2022-01-08T12:17:34Z</time>
      </trkpt>
      <trkpt lat="36.7483420" lon="-3.7855790">
        <ele>97.0</ele>
        <time>2022-01-08T12:17:35Z</time>
      </trkpt>
      <trkpt lat="36.7483270" lon="-3.7855950">
        <ele>97.0</ele>
        <time>2022-01-08T12:17:36Z</time>
      </trkpt>
      <trkpt lat="36.7483270" lon="-3.7855950">
        <ele>97.0</ele>
        <time>2022-01-08T12:17:37Z</time>
      </trkpt>
      <trkpt lat="36.7483110" lon="-3.7856090">
        <ele>97.0</ele>
        <time>2022-01-08T12:17:38Z</time>
      </trkpt>
      <trkpt lat="36.7483110" lon="-3.7856090">
        <ele>96.0</ele>
        <time>2022-01-08T12:17:39Z</time>
      </trkpt>
      <trkpt lat="36.7482880" lon="-3.7856350">
        <ele>96.0</ele>
        <time>2022-01-08T12:17:40Z</time>
      </trkpt>
      <trkpt lat="36.7482880" lon="-3.7856350">
        <ele>96.0</ele>
        <time>2022-01-08T12:17:41Z</time>
      </trkpt>
      <trkpt lat="36.7482720" lon="-3.7856580">
        <ele>95.0</ele>
        <time>2022-01-08T12:17:42Z</time>
      </trkpt>
      <trkpt lat="36.7482720" lon="-3.7856580">
        <ele>95.0</ele>
        <time>2022-01-08T12:17:43Z</time>
      </trkpt>
      <trkpt lat="36.7482600" lon="-3.7856900">
        <ele>95.0</ele>
        <time>2022-01-08T12:17:44Z</time>
      </trkpt>
      <trkpt lat="36.7482600" lon="-3.7856900">
        <ele>94.0</ele>
        <time>2022-01-08T12:17:45Z</time>
      </trkpt>
      <trkpt lat="36.7482420" lon="-3.7857100">
        <ele>94.0</ele>
        <time>2022-01-08T12:17:46Z</time>
      </trkpt>
      <trkpt lat="36.7482420" lon="-3.7857100">
        <ele>94.0</ele>
        <time>2022-01-08T12:17:47Z</time>
      </trkpt>
      <trkpt lat="36.7482190" lon="-3.7857290">
        <ele>94.0</ele>
        <time>2022-01-08T12:17:48Z</time>
      </trkpt>
      <trkpt lat="36.7482190" lon="-3.7857290">
        <ele>94.0</ele>
        <time>2022-01-08T12:17:49Z</time>
      </trkpt>
      <trkpt lat="36.7481970" lon="-3.7857450">
        <ele>94.0</ele>
        <time>2022-01-08T12:17:50Z</time>
      </trkpt>
      <trkpt lat="36.7481970" lon="-3.7857450">
        <ele>94.0</ele>
        <time>2022-01-08T12:17:51Z</time>
      </trkpt>
      <trkpt lat="36.7481770" lon="-3.7857610">
        <ele>93.0</ele>
        <time>2022-01-08T12:17:52Z</time>
      </trkpt>
      <trkpt lat="36.7481770" lon="-3.7857610">
        <ele>93.0</ele>
        <time>2022-01-08T12:17:53Z</time>
      </trkpt>
      <trkpt lat="36.7481640" lon="-3.7857890">
        <ele>92.0</ele>
        <time>2022-01-08T12:17:54Z</time>
      </trkpt>
      <trkpt lat="36.7481640" lon="-3.7857890">
        <ele>92.0</ele>
        <time>2022-01-08T12:17:55Z</time>
      </trkpt>
      <trkpt lat="36.7481560" lon="-3.7858230">
        <ele>92.0</ele>
        <time>2022-01-08T12:17:56Z</time>
      </trkpt>
      <trkpt lat="36.7481560" lon="-3.7858230">
        <ele>92.0</ele>
        <time>2022-01-08T12:17:57Z</time>
      </trkpt>
      <trkpt lat="36.7481460" lon="-3.7858500">
        <ele>92.0</ele>
        <time>2022-01-08T12:17:58Z</time>
      </trkpt>
      <trkpt lat="36.7481460" lon="-3.7858500">
        <ele>92.0</ele>
        <time>2022-01-08T12:17:59Z</time>
      </trkpt>
      <trkpt lat="36.7481360" lon="-3.7858740">
        <ele>91.0</ele>
        <time>2022-01-08T12:18:00Z</time>
      </trkpt>
      <trkpt lat="36.7481360" lon="-3.7858740">
        <ele>91.0</ele>
        <time>2022-01-08T12:18:01Z</time>
      </trkpt>
      <trkpt lat="36.7481250" lon="-3.7859060">
        <ele>91.0</ele>
        <time>2022-01-08T12:18:02Z</time>
      </trkpt>
      <trkpt lat="36.7481250" lon="-3.7859060">
        <ele>91.0</ele>
        <time>2022-01-08T12:18:03Z</time>
      </trkpt>
      <trkpt lat="36.7481230" lon="-3.7859400">
        <ele>91.0</ele>
        <time>2022-01-08T12:18:04Z</time>
      </trkpt>
      <trkpt lat="36.7481230" lon="-3.7859400">
        <ele>90.0</ele>
        <time>2022-01-08T12:18:05Z</time>
      </trkpt>
      <trkpt lat="36.7481150" lon="-3.7859740">
        <ele>90.0</ele>
        <time>2022-01-08T12:18:06Z</time>
      </trkpt>
      <trkpt lat="36.7481150" lon="-3.7859740">
        <ele>90.0</ele>
        <time>2022-01-08T12:18:07Z</time>
      </trkpt>
      <trkpt lat="36.7481000" lon="-3.7860120">
        <ele>89.0</ele>
        <time>2022-01-08T12:18:08Z</time>
      </trkpt>
      <trkpt lat="36.7481000" lon="-3.7860120">
        <ele>89.0</ele>
        <time>2022-01-08T12:18:09Z</time>
      </trkpt>
      <trkpt lat="36.7480840" lon="-3.7860410">
        <ele>88.0</ele>
        <time>2022-01-08T12:18:10Z</time>
      </trkpt>
      <trkpt lat="36.7480840" lon="-3.7860410">
        <ele>88.0</ele>
        <time>2022-01-08T12:18:11Z</time>
      </trkpt>
      <trkpt lat="36.7480680" lon="-3.7860690">
        <ele>88.0</ele>
        <time>2022-01-08T12:18:12Z</time>
      </trkpt>
      <trkpt lat="36.7480680" lon="-3.7860690">
        <ele>87.0</ele>
        <time>2022-01-08T12:18:13Z</time>
      </trkpt>
      <trkpt lat="36.7480540" lon="-3.7860960">
        <ele>87.0</ele>
        <time>2022-01-08T12:18:14Z</time>
      </trkpt>
      <trkpt lat="36.7480540" lon="-3.7860960">
        <ele>87.0</ele>
        <time>2022-01-08T12:18:15Z</time>
      </trkpt>
      <trkpt lat="36.7480540" lon="-3.7860960">
        <ele>87.0</ele>
        <time>2022-01-08T12:18:16Z</time>
      </trkpt>
      <trkpt lat="36.7480370" lon="-3.7861320">
        <ele>87.0</ele>
        <time>2022-01-08T12:18:17Z</time>
      </trkpt>
      <trkpt lat="36.7480370" lon="-3.7861320">
        <ele>87.0</ele>
        <time>2022-01-08T12:18:18Z</time>
      </trkpt>
      <trkpt lat="36.7480270" lon="-3.7861610">
        <ele>87.0</ele>
        <time>2022-01-08T12:18:19Z</time>
      </trkpt>
      <trkpt lat="36.7480270" lon="-3.7861610">
        <ele>86.0</ele>
        <time>2022-01-08T12:18:20Z</time>
      </trkpt>
      <trkpt lat="36.7480180" lon="-3.7861870">
        <ele>86.0</ele>
        <time>2022-01-08T12:18:21Z</time>
      </trkpt>
      <trkpt lat="36.7480180" lon="-3.7861870">
        <ele>86.0</ele>
        <time>2022-01-08T12:18:22Z</time>
      </trkpt>
      <trkpt lat="36.7480190" lon="-3.7862150">
        <ele>86.0</ele>
        <time>2022-01-08T12:18:23Z</time>
      </trkpt>
      <trkpt lat="36.7480190" lon="-3.7862150">
        <ele>85.0</ele>
        <time>2022-01-08T12:18:24Z</time>
      </trkpt>
      <trkpt lat="36.7480190" lon="-3.7862150">
        <ele>85.0</ele>
        <time>2022-01-08T12:18:25Z</time>
      </trkpt>
      <trkpt lat="36.7480130" lon="-3.7862420">
        <ele>85.0</ele>
        <time>2022-01-08T12:18:26Z</time>
      </trkpt>
      <trkpt lat="36.7480130" lon="-3.7862420">
        <ele>85.0</ele>
        <time>2022-01-08T12:18:27Z</time>
      </trkpt>
      <trkpt lat="36.7480090" lon="-3.7862700">
        <ele>85.0</ele>
        <time>2022-01-08T12:18:28Z</time>
      </trkpt>
      <trkpt lat="36.7480090" lon="-3.7862700">
        <ele>85.0</ele>
        <time>2022-01-08T12:18:29Z</time>
      </trkpt>
      <trkpt lat="36.7480100" lon="-3.7862960">
        <ele>85.0</ele>
        <time>2022-01-08T12:18:30Z</time>
      </trkpt>
      <trkpt lat="36.7480100" lon="-3.7862960">
        <ele>85.0</ele>
        <time>2022-01-08T12:18:31Z</time>
      </trkpt>
      <trkpt lat="36.7480100" lon="-3.7862960">
        <ele>85.0</ele>
        <time>2022-01-08T12:18:32Z</time>
      </trkpt>
      <trkpt lat="36.7480100" lon="-3.7862960">
        <ele>85.0</ele>
        <time>2022-01-08T12:18:33Z</time>
      </trkpt>
      <trkpt lat="36.7480100" lon="-3.7862960">
        <ele>85.0</ele>
        <time>2022-01-08T12:18:34Z</time>
      </trkpt>
      <trkpt lat="36.7480100" lon="-3.7862960">
        <ele>85.0</ele>
        <time>2022-01-08T12:18:35Z</time>
      </trkpt>
      <trkpt lat="36.7480100" lon="-3.7862960">
        <ele>85.0</ele>
        <time>2022-01-08T12:18:36Z</time>
      </trkpt>
      <trkpt lat="36.7480100" lon="-3.7862960">
        <ele>85.0</ele>
        <time>2022-01-08T12:18:37Z</time>
      </trkpt>
      <trkpt lat="36.7480100" lon="-3.7862960">
        <ele>85.0</ele>
        <time>2022-01-08T12:18:38Z</time>
      </trkpt>
      <trkpt lat="36.7480100" lon="-3.7862960">
        <ele>86.0</ele>
        <time>2022-01-08T12:18:39Z</time>
      </trkpt>
      <trkpt lat="36.7480100" lon="-3.7862960">
        <ele>86.0</ele>
        <time>2022-01-08T12:18:40Z</time>
      </trkpt>
      <trkpt lat="36.7480100" lon="-3.7862960">
        <ele>86.0</ele>
        <time>2022-01-08T12:18:41Z</time>
      </trkpt>
      <trkpt lat="36.7480100" lon="-3.7862960">
        <ele>87.0</ele>
        <time>2022-01-08T12:18:42Z</time>
      </trkpt>
      <trkpt lat="36.7480100" lon="-3.7862960">
        <ele>88.0</ele>
        <time>2022-01-08T12:18:43Z</time>
      </trkpt>
      <trkpt lat="36.7480100" lon="-3.7862960">
        <ele>88.0</ele>
        <time>2022-01-08T12:18:44Z</time>
      </trkpt>
      <trkpt lat="36.7480100" lon="-3.7862960">
        <ele>88.0</ele>
        <time>2022-01-08T12:18:45Z</time>
      </trkpt>
      <trkpt lat="36.7480100" lon="-3.7862960">
        <ele>89.0</ele>
        <time>2022-01-08T12:18:46Z</time>
      </trkpt>
      <trkpt lat="36.7480100" lon="-3.7862960">
        <ele>90.0</ele>
        <time>2022-01-08T12:18:47Z</time>
      </trkpt>
      <trkpt lat="36.7480100" lon="-3.7862960">
        <ele>90.0</ele>
        <time>2022-01-08T12:18:48Z</time>
      </trkpt>
      <trkpt lat="36.7480100" lon="-3.7862960">
        <ele>91.0</ele>
        <time>2022-01-08T12:18:49Z</time>
      </trkpt>
      <trkpt lat="36.7480100" lon="-3.7862960">
        <ele>91.0</ele>
        <time>2022-01-08T12:18:50Z</time>
      </trkpt>
      <trkpt lat="36.7480100" lon="-3.7862960">
        <ele>92.0</ele>
        <time>2022-01-08T12:18:51Z</time>
      </trkpt>
      <trkpt lat="36.7480100" lon="-3.7862960">
        <ele>92.0</ele>
        <time>2022-01-08T12:18:52Z</time>
      </trkpt>
      <trkpt lat="36.7480100" lon="-3.7862960">
        <ele>92.0</ele>
        <time>2022-01-08T12:18:53Z</time>
      </trkpt>
      <trkpt lat="36.7480100" lon="-3.7862960">
        <ele>93.0</ele>
        <time>2022-01-08T12:18:54Z</time>
      </trkpt>
      <trkpt lat="36.7480100" lon="-3.7862960">
        <ele>93.0</ele>
        <time>2022-01-08T12:18:55Z</time>
      </trkpt>
      <trkpt lat="36.7480100" lon="-3.7862960">
        <ele>93.0</ele>
        <time>2022-01-08T12:18:56Z</time>
      </trkpt>
      <trkpt lat="36.7480100" lon="-3.7862960">
        <ele>94.0</ele>
        <time>2022-01-08T12:18:57Z</time>
      </trkpt>
      <trkpt lat="36.7480100" lon="-3.7862960">
        <ele>94.0</ele>
        <time>2022-01-08T12:18:58Z</time>
      </trkpt>
      <trkpt lat="36.7480080" lon="-3.7862680">
        <ele>95.0</ele>
        <time>2022-01-08T12:18:59Z</time>
      </trkpt>
      <trkpt lat="36.7480080" lon="-3.7862680">
        <ele>95.0</ele>
        <time>2022-01-08T12:19:00Z</time>
      </trkpt>
      <trkpt lat="36.7480080" lon="-3.7862350">
        <ele>95.0</ele>
        <time>2022-01-08T12:19:01Z</time>
      </trkpt>
      <trkpt lat="36.7480080" lon="-3.7862350">
        <ele>96.0</ele>
        <time>2022-01-08T12:19:02Z</time>
      </trkpt>
      <trkpt lat="36.7480190" lon="-3.7862120">
        <ele>97.0</ele>
        <time>2022-01-08T12:19:03Z</time>
      </trkpt>
      <trkpt lat="36.7480190" lon="-3.7862120">
        <ele>97.0</ele>
        <time>2022-01-08T12:19:04Z</time>
      </trkpt>
      <trkpt lat="36.7480190" lon="-3.7862120">
        <ele>97.0</ele>
        <time>2022-01-08T12:19:05Z</time>
      </trkpt>
      <trkpt lat="36.7480190" lon="-3.7862120">
        <ele>97.0</ele>
        <time>2022-01-08T12:19:06Z</time>
      </trkpt>
      <trkpt lat="36.7479860" lon="-3.7862030">
        <ele>97.0</ele>
        <time>2022-01-08T12:19:07Z</time>
      </trkpt>
      <trkpt lat="36.7479860" lon="-3.7862030">
        <ele>97.0</ele>
        <time>2022-01-08T12:19:08Z</time>
      </trkpt>
      <trkpt lat="36.7479550" lon="-3.7862070">
        <ele>97.0</ele>
        <time>2022-01-08T12:19:09Z</time>
      </trkpt>
      <trkpt lat="36.7479550" lon="-3.7862070">
        <ele>97.0</ele>
        <time>2022-01-08T12:19:10Z</time>
      </trkpt>
      <trkpt lat="36.7479240" lon="-3.7862190">
        <ele>97.0</ele>
        <time>2022-01-08T12:19:11Z</time>
      </trkpt>
      <trkpt lat="36.7479240" lon="-3.7862190">
        <ele>97.0</ele>
        <time>2022-01-08T12:19:12Z</time>
      </trkpt>
      <trkpt lat="36.7478990" lon="-3.7862370">
        <ele>96.0</ele>
        <time>2022-01-08T12:19:13Z</time>
      </trkpt>
      <trkpt lat="36.7478990" lon="-3.7862370">
        <ele>96.0</ele>
        <time>2022-01-08T12:19:14Z</time>
      </trkpt>
      <trkpt lat="36.7478790" lon="-3.7862680">
        <ele>96.0</ele>
        <time>2022-01-08T12:19:15Z</time>
      </trkpt>
      <trkpt lat="36.7478790" lon="-3.7862680">
        <ele>94.0</ele>
        <time>2022-01-08T12:19:16Z</time>
      </trkpt>
      <trkpt lat="36.7478580" lon="-3.7862950">
        <ele>94.0</ele>
        <time>2022-01-08T12:19:17Z</time>
      </trkpt>
      <trkpt lat="36.7478580" lon="-3.7862950">
        <ele>94.0</ele>
        <time>2022-01-08T12:19:18Z</time>
      </trkpt>
      <trkpt lat="36.7478340" lon="-3.7863160">
        <ele>94.0</ele>
        <time>2022-01-08T12:19:19Z</time>
      </trkpt>
      <trkpt lat="36.7478340" lon="-3.7863160">
        <ele>94.0</ele>
        <time>2022-01-08T12:19:20Z</time>
      </trkpt>
      <trkpt lat="36.7478070" lon="-3.7863300">
        <ele>94.0</ele>
        <time>2022-01-08T12:19:21Z</time>
      </trkpt>
      <trkpt lat="36.7478070" lon="-3.7863300">
        <ele>93.0</ele>
        <time>2022-01-08T12:19:22Z</time>
      </trkpt>
      <trkpt lat="36.7477810" lon="-3.7863360">
        <ele>93.0</ele>
        <time>2022-01-08T12:19:23Z</time>
      </trkpt>
      <trkpt lat="36.7477810" lon="-3.7863360">
        <ele>92.0</ele>
        <time>2022-01-08T12:19:24Z</time>
      </trkpt>
      <trkpt lat="36.7477570" lon="-3.7863360">
        <ele>92.0</ele>
        <time>2022-01-08T12:19:25Z</time>
      </trkpt>
      <trkpt lat="36.7477570" lon="-3.7863360">
        <ele>92.0</ele>
        <time>2022-01-08T12:19:26Z</time>
      </trkpt>
      <trkpt lat="36.7477300" lon="-3.7863370">
        <ele>91.0</ele>
        <time>2022-01-08T12:19:27Z</time>
      </trkpt>
      <trkpt lat="36.7477300" lon="-3.7863370">
        <ele>91.0</ele>
        <time>2022-01-08T12:19:28Z</time>
      </trkpt>
      <trkpt lat="36.7477040" lon="-3.7863420">
        <ele>91.0</ele>
        <time>2022-01-08T12:19:29Z</time>
      </trkpt>
      <trkpt lat="36.7477040" lon="-3.7863420">
        <ele>90.0</ele>
        <time>2022-01-08T12:19:30Z</time>
      </trkpt>
      <trkpt lat="36.7476750" lon="-3.7863480">
        <ele>90.0</ele>
        <time>2022-01-08T12:19:31Z</time>
      </trkpt>
      <trkpt lat="36.7476570" lon="-3.7863480">
        <ele>89.0</ele>
        <time>2022-01-08T12:19:32Z</time>
      </trkpt>
      <trkpt lat="36.7476380" lon="-3.7863520">
        <ele>89.0</ele>
        <time>2022-01-08T12:19:33Z</time>
      </trkpt>
      <trkpt lat="36.7476380" lon="-3.7863520">
        <ele>89.0</ele>
        <time>2022-01-08T12:19:34Z</time>
      </trkpt>
      <trkpt lat="36.7476090" lon="-3.7863630">
        <ele>88.0</ele>
        <time>2022-01-08T12:19:35Z</time>
      </trkpt>
      <trkpt lat="36.7476090" lon="-3.7863630">
        <ele>87.0</ele>
        <time>2022-01-08T12:19:36Z</time>
      </trkpt>
      <trkpt lat="36.7475820" lon="-3.7863740">
        <ele>87.0</ele>
        <time>2022-01-08T12:19:37Z</time>
      </trkpt>
      <trkpt lat="36.7475820" lon="-3.7863740">
        <ele>87.0</ele>
        <time>2022-01-08T12:19:38Z</time>
      </trkpt>
      <trkpt lat="36.7475510" lon="-3.7863870">
        <ele>87.0</ele>
        <time>2022-01-08T12:19:39Z</time>
      </trkpt>
      <trkpt lat="36.7475510" lon="-3.7863870">
        <ele>86.0</ele>
        <time>2022-01-08T12:19:40Z</time>
      </trkpt>
      <trkpt lat="36.7475180" lon="-3.7863980">
        <ele>86.0</ele>
        <time>2022-01-08T12:19:41Z</time>
      </trkpt>
      <trkpt lat="36.7475180" lon="-3.7863980">
        <ele>86.0</ele>
        <time>2022-01-08T12:19:42Z</time>
      </trkpt>
      <trkpt lat="36.7474880" lon="-3.7864060">
        <ele>85.0</ele>
        <time>2022-01-08T12:19:43Z</time>
      </trkpt>
      <trkpt lat="36.7474880" lon="-3.7864060">
        <ele>85.0</ele>
        <time>2022-01-08T12:19:44Z</time>
      </trkpt>
      <trkpt lat="36.7474580" lon="-3.7864150">
        <ele>85.0</ele>
        <time>2022-01-08T12:19:45Z</time>
      </trkpt>
      <trkpt lat="36.7474580" lon="-3.7864150">
        <ele>85.0</ele>
        <time>2022-01-08T12:19:46Z</time>
      </trkpt>
      <trkpt lat="36.7474280" lon="-3.7864230">
        <ele>85.0</ele>
        <time>2022-01-08T12:19:47Z</time>
      </trkpt>
      <trkpt lat="36.7474280" lon="-3.7864230">
        <ele>84.0</ele>
        <time>2022-01-08T12:19:48Z</time>
      </trkpt>
      <trkpt lat="36.7474000" lon="-3.7864310">
        <ele>83.0</ele>
        <time>2022-01-08T12:19:49Z</time>
      </trkpt>
      <trkpt lat="36.7474000" lon="-3.7864310">
        <ele>83.0</ele>
        <time>2022-01-08T12:19:50Z</time>
      </trkpt>
      <trkpt lat="36.7473720" lon="-3.7864370">
        <ele>82.0</ele>
        <time>2022-01-08T12:19:51Z</time>
      </trkpt>
      <trkpt lat="36.7473720" lon="-3.7864370">
        <ele>82.0</ele>
        <time>2022-01-08T12:19:52Z</time>
      </trkpt>
      <trkpt lat="36.7473410" lon="-3.7864380">
        <ele>82.0</ele>
        <time>2022-01-08T12:19:53Z</time>
      </trkpt>
      <trkpt lat="36.7473410" lon="-3.7864380">
        <ele>82.0</ele>
        <time>2022-01-08T12:19:54Z</time>
      </trkpt>
      <trkpt lat="36.7473130" lon="-3.7864410">
        <ele>80.0</ele>
        <time>2022-01-08T12:19:55Z</time>
      </trkpt>
      <trkpt lat="36.7473130" lon="-3.7864410">
        <ele>79.0</ele>
        <time>2022-01-08T12:19:56Z</time>
      </trkpt>
      <trkpt lat="36.7472890" lon="-3.7864450">
        <ele>79.0</ele>
        <time>2022-01-08T12:19:57Z</time>
      </trkpt>
      <trkpt lat="36.7472890" lon="-3.7864450">
        <ele>79.0</ele>
        <time>2022-01-08T12:19:58Z</time>
      </trkpt>
      <trkpt lat="36.7472630" lon="-3.7864500">
        <ele>79.0</ele>
        <time>2022-01-08T12:19:59Z</time>
      </trkpt>
      <trkpt lat="36.7472630" lon="-3.7864500">
        <ele>79.0</ele>
        <time>2022-01-08T12:20:00Z</time>
      </trkpt>
      <trkpt lat="36.7472360" lon="-3.7864590">
        <ele>79.0</ele>
        <time>2022-01-08T12:20:01Z</time>
      </trkpt>
      <trkpt lat="36.7472360" lon="-3.7864590">
        <ele>79.0</ele>
        <time>2022-01-08T12:20:02Z</time>
      </trkpt>
      <trkpt lat="36.7472130" lon="-3.7864700">
        <ele>78.0</ele>
        <time>2022-01-08T12:20:03Z</time>
      </trkpt>
      <trkpt lat="36.7472130" lon="-3.7864700">
        <ele>77.0</ele>
        <time>2022-01-08T12:20:04Z</time>
      </trkpt>
      <trkpt lat="36.7471950" lon="-3.7864810">
        <ele>77.0</ele>
        <time>2022-01-08T12:20:05Z</time>
      </trkpt>
      <trkpt lat="36.7471950" lon="-3.7864810">
        <ele>76.0</ele>
        <time>2022-01-08T12:20:06Z</time>
      </trkpt>
      <trkpt lat="36.7471770" lon="-3.7864960">
        <ele>75.0</ele>
        <time>2022-01-08T12:20:07Z</time>
      </trkpt>
      <trkpt lat="36.7471770" lon="-3.7864960">
        <ele>75.0</ele>
        <time>2022-01-08T12:20:08Z</time>
      </trkpt>
      <trkpt lat="36.7471630" lon="-3.7865210">
        <ele>75.0</ele>
        <time>2022-01-08T12:20:09Z</time>
      </trkpt>
      <trkpt lat="36.7471630" lon="-3.7865210">
        <ele>75.0</ele>
        <time>2022-01-08T12:20:10Z</time>
      </trkpt>
      <trkpt lat="36.7471460" lon="-3.7865530">
        <ele>75.0</ele>
        <time>2022-01-08T12:20:11Z</time>
      </trkpt>
      <trkpt lat="36.7471460" lon="-3.7865530">
        <ele>75.0</ele>
        <time>2022-01-08T12:20:12Z</time>
      </trkpt>
      <trkpt lat="36.7471470" lon="-3.7865950">
        <ele>73.0</ele>
        <time>2022-01-08T12:20:13Z</time>
      </trkpt>
      <trkpt lat="36.7471470" lon="-3.7865950">
        <ele>73.0</ele>
        <time>2022-01-08T12:20:14Z</time>
      </trkpt>
      <trkpt lat="36.7471530" lon="-3.7866370">
        <ele>73.0</ele>
        <time>2022-01-08T12:20:15Z</time>
      </trkpt>
      <trkpt lat="36.7471530" lon="-3.7866370">
        <ele>73.0</ele>
        <time>2022-01-08T12:20:16Z</time>
      </trkpt>
      <trkpt lat="36.7471660" lon="-3.7866690">
        <ele>73.0</ele>
        <time>2022-01-08T12:20:17Z</time>
      </trkpt>
      <trkpt lat="36.7471660" lon="-3.7866690">
        <ele>73.0</ele>
        <time>2022-01-08T12:20:18Z</time>
      </trkpt>
      <trkpt lat="36.7471850" lon="-3.7866940">
        <ele>73.0</ele>
        <time>2022-01-08T12:20:19Z</time>
      </trkpt>
      <trkpt lat="36.7471850" lon="-3.7866940">
        <ele>72.0</ele>
        <time>2022-01-08T12:20:20Z</time>
      </trkpt>
      <trkpt lat="36.7472040" lon="-3.7867270">
        <ele>72.0</ele>
        <time>2022-01-08T12:20:21Z</time>
      </trkpt>
      <trkpt lat="36.7472040" lon="-3.7867270">
        <ele>72.0</ele>
        <time>2022-01-08T12:20:22Z</time>
      </trkpt>
      <trkpt lat="36.7472190" lon="-3.7867600">
        <ele>72.0</ele>
        <time>2022-01-08T12:20:23Z</time>
      </trkpt>
      <trkpt lat="36.7472190" lon="-3.7867600">
        <ele>72.0</ele>
        <time>2022-01-08T12:20:24Z</time>
      </trkpt>
      <trkpt lat="36.7472320" lon="-3.7867900">
        <ele>72.0</ele>
        <time>2022-01-08T12:20:25Z</time>
      </trkpt>
      <trkpt lat="36.7472320" lon="-3.7867900">
        <ele>72.0</ele>
        <time>2022-01-08T12:20:26Z</time>
      </trkpt>
      <trkpt lat="36.7472370" lon="-3.7868250">
        <ele>72.0</ele>
        <time>2022-01-08T12:20:27Z</time>
      </trkpt>
      <trkpt lat="36.7472370" lon="-3.7868250">
        <ele>72.0</ele>
        <time>2022-01-08T12:20:28Z</time>
      </trkpt>
      <trkpt lat="36.7472470" lon="-3.7868580">
        <ele>72.0</ele>
        <time>2022-01-08T12:20:29Z</time>
      </trkpt>
      <trkpt lat="36.7472470" lon="-3.7868580">
        <ele>72.0</ele>
        <time>2022-01-08T12:20:30Z</time>
      </trkpt>
      <trkpt lat="36.7472590" lon="-3.7868880">
        <ele>71.0</ele>
        <time>2022-01-08T12:20:31Z</time>
      </trkpt>
      <trkpt lat="36.7472590" lon="-3.7868880">
        <ele>70.0</ele>
        <time>2022-01-08T12:20:32Z</time>
      </trkpt>
      <trkpt lat="36.7472690" lon="-3.7869200">
        <ele>70.0</ele>
        <time>2022-01-08T12:20:33Z</time>
      </trkpt>
      <trkpt lat="36.7472690" lon="-3.7869200">
        <ele>70.0</ele>
        <time>2022-01-08T12:20:34Z</time>
      </trkpt>
      <trkpt lat="36.7472800" lon="-3.7869490">
        <ele>70.0</ele>
        <time>2022-01-08T12:20:35Z</time>
      </trkpt>
      <trkpt lat="36.7472800" lon="-3.7869490">
        <ele>70.0</ele>
        <time>2022-01-08T12:20:36Z</time>
      </trkpt>
      <trkpt lat="36.7472890" lon="-3.7869790">
        <ele>70.0</ele>
        <time>2022-01-08T12:20:37Z</time>
      </trkpt>
      <trkpt lat="36.7472890" lon="-3.7869790">
        <ele>70.0</ele>
        <time>2022-01-08T12:20:38Z</time>
      </trkpt>
      <trkpt lat="36.7472960" lon="-3.7870090">
        <ele>70.0</ele>
        <time>2022-01-08T12:20:39Z</time>
      </trkpt>
      <trkpt lat="36.7472960" lon="-3.7870090">
        <ele>70.0</ele>
        <time>2022-01-08T12:20:40Z</time>
      </trkpt>
      <trkpt lat="36.7473010" lon="-3.7870380">
        <ele>69.0</ele>
        <time>2022-01-08T12:20:41Z</time>
      </trkpt>
      <trkpt lat="36.7473010" lon="-3.7870380">
        <ele>69.0</ele>
        <time>2022-01-08T12:20:42Z</time>
      </trkpt>
      <trkpt lat="36.7473020" lon="-3.7870670">
        <ele>69.0</ele>
        <time>2022-01-08T12:20:43Z</time>
      </trkpt>
      <trkpt lat="36.7473020" lon="-3.7870670">
        <ele>69.0</ele>
        <time>2022-01-08T12:20:44Z</time>
      </trkpt>
      <trkpt lat="36.7473010" lon="-3.7870990">
        <ele>69.0</ele>
        <time>2022-01-08T12:20:45Z</time>
      </trkpt>
      <trkpt lat="36.7473010" lon="-3.7870990">
        <ele>69.0</ele>
        <time>2022-01-08T12:20:46Z</time>
      </trkpt>
      <trkpt lat="36.7473000" lon="-3.7871300">
        <ele>69.0</ele>
        <time>2022-01-08T12:20:47Z</time>
      </trkpt>
      <trkpt lat="36.7473000" lon="-3.7871300">
        <ele>69.0</ele>
        <time>2022-01-08T12:20:48Z</time>
      </trkpt>
      <trkpt lat="36.7472970" lon="-3.7871620">
        <ele>69.0</ele>
        <time>2022-01-08T12:20:49Z</time>
      </trkpt>
      <trkpt lat="36.7472970" lon="-3.7871620">
        <ele>69.0</ele>
        <time>2022-01-08T12:20:50Z</time>
      </trkpt>
      <trkpt lat="36.7472880" lon="-3.7871920">
        <ele>69.0</ele>
        <time>2022-01-08T12:20:51Z</time>
      </trkpt>
      <trkpt lat="36.7472880" lon="-3.7871920">
        <ele>68.0</ele>
        <time>2022-01-08T12:20:52Z</time>
      </trkpt>
      <trkpt lat="36.7472730" lon="-3.7872170">
        <ele>68.0</ele>
        <time>2022-01-08T12:20:53Z</time>
      </trkpt>
      <trkpt lat="36.7472730" lon="-3.7872170">
        <ele>68.0</ele>
        <time>2022-01-08T12:20:54Z</time>
      </trkpt>
      <trkpt lat="36.7472540" lon="-3.7872350">
        <ele>68.0</ele>
        <time>2022-01-08T12:20:55Z</time>
      </trkpt>
      <trkpt lat="36.7472540" lon="-3.7872350">
        <ele>69.0</ele>
        <time>2022-01-08T12:20:56Z</time>
      </trkpt>
      <trkpt lat="36.7472310" lon="-3.7872430">
        <ele>69.0</ele>
        <time>2022-01-08T12:20:57Z</time>
      </trkpt>
      <trkpt lat="36.7472310" lon="-3.7872430">
        <ele>69.0</ele>
        <time>2022-01-08T12:20:58Z</time>
      </trkpt>
      <trkpt lat="36.7472050" lon="-3.7872470">
        <ele>69.0</ele>
        <time>2022-01-08T12:20:59Z</time>
      </trkpt>
      <trkpt lat="36.7472050" lon="-3.7872470">
        <ele>69.0</ele>
        <time>2022-01-08T12:21:00Z</time>
      </trkpt>
      <trkpt lat="36.7471800" lon="-3.7872480">
        <ele>69.0</ele>
        <time>2022-01-08T12:21:01Z</time>
      </trkpt>
      <trkpt lat="36.7471800" lon="-3.7872480">
        <ele>69.0</ele>
        <time>2022-01-08T12:21:02Z</time>
      </trkpt>
      <trkpt lat="36.7471550" lon="-3.7872440">
        <ele>69.0</ele>
        <time>2022-01-08T12:21:03Z</time>
      </trkpt>
      <trkpt lat="36.7471550" lon="-3.7872440">
        <ele>69.0</ele>
        <time>2022-01-08T12:21:04Z</time>
      </trkpt>
      <trkpt lat="36.7471320" lon="-3.7872410">
        <ele>69.0</ele>
        <time>2022-01-08T12:21:05Z</time>
      </trkpt>
      <trkpt lat="36.7471320" lon="-3.7872410">
        <ele>69.0</ele>
        <time>2022-01-08T12:21:06Z</time>
      </trkpt>
      <trkpt lat="36.7471070" lon="-3.7872350">
        <ele>69.0</ele>
        <time>2022-01-08T12:21:07Z</time>
      </trkpt>
      <trkpt lat="36.7471070" lon="-3.7872350">
        <ele>69.0</ele>
        <time>2022-01-08T12:21:08Z</time>
      </trkpt>
      <trkpt lat="36.7470820" lon="-3.7872310">
        <ele>69.0</ele>
        <time>2022-01-08T12:21:09Z</time>
      </trkpt>
      <trkpt lat="36.7470820" lon="-3.7872310">
        <ele>68.0</ele>
        <time>2022-01-08T12:21:10Z</time>
      </trkpt>
      <trkpt lat="36.7470560" lon="-3.7872270">
        <ele>68.0</ele>
        <time>2022-01-08T12:21:11Z</time>
      </trkpt>
      <trkpt lat="36.7470560" lon="-3.7872270">
        <ele>68.0</ele>
        <time>2022-01-08T12:21:12Z</time>
      </trkpt>
      <trkpt lat="36.7470280" lon="-3.7872230">
        <ele>68.0</ele>
        <time>2022-01-08T12:21:13Z</time>
      </trkpt>
      <trkpt lat="36.7470280" lon="-3.7872230">
        <ele>68.0</ele>
        <time>2022-01-08T12:21:14Z</time>
      </trkpt>
      <trkpt lat="36.7470000" lon="-3.7872230">
        <ele>68.0</ele>
        <time>2022-01-08T12:21:15Z</time>
      </trkpt>
      <trkpt lat="36.7470000" lon="-3.7872230">
        <ele>69.0</ele>
        <time>2022-01-08T12:21:16Z</time>
      </trkpt>
      <trkpt lat="36.7469730" lon="-3.7872220">
        <ele>69.0</ele>
        <time>2022-01-08T12:21:17Z</time>
      </trkpt>
      <trkpt lat="36.7469730" lon="-3.7872220">
        <ele>69.0</ele>
        <time>2022-01-08T12:21:18Z</time>
      </trkpt>
      <trkpt lat="36.7469500" lon="-3.7872250">
        <ele>69.0</ele>
        <time>2022-01-08T12:21:19Z</time>
      </trkpt>
      <trkpt lat="36.7469500" lon="-3.7872250">
        <ele>69.0</ele>
        <time>2022-01-08T12:21:20Z</time>
      </trkpt>
      <trkpt lat="36.7469230" lon="-3.7872250">
        <ele>69.0</ele>
        <time>2022-01-08T12:21:21Z</time>
      </trkpt>
      <trkpt lat="36.7469230" lon="-3.7872250">
        <ele>69.0</ele>
        <time>2022-01-08T12:21:22Z</time>
      </trkpt>
      <trkpt lat="36.7468950" lon="-3.7872260">
        <ele>69.0</ele>
        <time>2022-01-08T12:21:23Z</time>
      </trkpt>
      <trkpt lat="36.7468950" lon="-3.7872260">
        <ele>69.0</ele>
        <time>2022-01-08T12:21:24Z</time>
      </trkpt>
      <trkpt lat="36.7468660" lon="-3.7872310">
        <ele>69.0</ele>
        <time>2022-01-08T12:21:25Z</time>
      </trkpt>
      <trkpt lat="36.7468660" lon="-3.7872310">
        <ele>69.0</ele>
        <time>2022-01-08T12:21:26Z</time>
      </trkpt>
      <trkpt lat="36.7468390" lon="-3.7872380">
        <ele>69.0</ele>
        <time>2022-01-08T12:21:27Z</time>
      </trkpt>
      <trkpt lat="36.7468390" lon="-3.7872380">
        <ele>69.0</ele>
        <time>2022-01-08T12:21:28Z</time>
      </trkpt>
      <trkpt lat="36.7468110" lon="-3.7872440">
        <ele>69.0</ele>
        <time>2022-01-08T12:21:29Z</time>
      </trkpt>
      <trkpt lat="36.7468110" lon="-3.7872440">
        <ele>69.0</ele>
        <time>2022-01-08T12:21:30Z</time>
      </trkpt>
      <trkpt lat="36.7467820" lon="-3.7872490">
        <ele>69.0</ele>
        <time>2022-01-08T12:21:31Z</time>
      </trkpt>
      <trkpt lat="36.7467820" lon="-3.7872490">
        <ele>69.0</ele>
        <time>2022-01-08T12:21:32Z</time>
      </trkpt>
      <trkpt lat="36.7467540" lon="-3.7872490">
        <ele>69.0</ele>
        <time>2022-01-08T12:21:33Z</time>
      </trkpt>
      <trkpt lat="36.7467540" lon="-3.7872490">
        <ele>68.0</ele>
        <time>2022-01-08T12:21:34Z</time>
      </trkpt>
      <trkpt lat="36.7467250" lon="-3.7872500">
        <ele>68.0</ele>
        <time>2022-01-08T12:21:35Z</time>
      </trkpt>
      <trkpt lat="36.7467250" lon="-3.7872500">
        <ele>68.0</ele>
        <time>2022-01-08T12:21:36Z</time>
      </trkpt>
      <trkpt lat="36.7466980" lon="-3.7872550">
        <ele>68.0</ele>
        <time>2022-01-08T12:21:37Z</time>
      </trkpt>
      <trkpt lat="36.7466980" lon="-3.7872550">
        <ele>67.0</ele>
        <time>2022-01-08T12:21:38Z</time>
      </trkpt>
      <trkpt lat="36.7466750" lon="-3.7872700">
        <ele>67.0</ele>
        <time>2022-01-08T12:21:39Z</time>
      </trkpt>
      <trkpt lat="36.7466750" lon="-3.7872700">
        <ele>67.0</ele>
        <time>2022-01-08T12:21:40Z</time>
      </trkpt>
      <trkpt lat="36.7466600" lon="-3.7872980">
        <ele>67.0</ele>
        <time>2022-01-08T12:21:41Z</time>
      </trkpt>
      <trkpt lat="36.7466600" lon="-3.7872980">
        <ele>67.0</ele>
        <time>2022-01-08T12:21:42Z</time>
      </trkpt>
      <trkpt lat="36.7466470" lon="-3.7873270">
        <ele>67.0</ele>
        <time>2022-01-08T12:21:43Z</time>
      </trkpt>
      <trkpt lat="36.7466470" lon="-3.7873270">
        <ele>67.0</ele>
        <time>2022-01-08T12:21:44Z</time>
      </trkpt>
      <trkpt lat="36.7466430" lon="-3.7873430">
        <ele>67.0</ele>
        <time>2022-01-08T12:21:45Z</time>
      </trkpt>
      <trkpt lat="36.7466390" lon="-3.7873590">
        <ele>67.0</ele>
        <time>2022-01-08T12:21:46Z</time>
      </trkpt>
      <trkpt lat="36.7466340" lon="-3.7873740">
        <ele>67.0</ele>
        <time>2022-01-08T12:21:47Z</time>
      </trkpt>
      <trkpt lat="36.7466290" lon="-3.7874080">
        <ele>66.0</ele>
        <time>2022-01-08T12:21:48Z</time>
      </trkpt>
      <trkpt lat="36.7466290" lon="-3.7874080">
        <ele>66.0</ele>
        <time>2022-01-08T12:21:49Z</time>
      </trkpt>
      <trkpt lat="36.7466220" lon="-3.7874370">
        <ele>66.0</ele>
        <time>2022-01-08T12:21:50Z</time>
      </trkpt>
      <trkpt lat="36.7466220" lon="-3.7874370">
        <ele>66.0</ele>
        <time>2022-01-08T12:21:51Z</time>
      </trkpt>
      <trkpt lat="36.7466170" lon="-3.7874640">
        <ele>65.0</ele>
        <time>2022-01-08T12:21:52Z</time>
      </trkpt>
      <trkpt lat="36.7466170" lon="-3.7874640">
        <ele>65.0</ele>
        <time>2022-01-08T12:21:53Z</time>
      </trkpt>
      <trkpt lat="36.7466090" lon="-3.7874910">
        <ele>65.0</ele>
        <time>2022-01-08T12:21:54Z</time>
      </trkpt>
      <trkpt lat="36.7466090" lon="-3.7874910">
        <ele>65.0</ele>
        <time>2022-01-08T12:21:55Z</time>
      </trkpt>
      <trkpt lat="36.7465990" lon="-3.7875160">
        <ele>64.0</ele>
        <time>2022-01-08T12:21:56Z</time>
      </trkpt>
      <trkpt lat="36.7465990" lon="-3.7875160">
        <ele>64.0</ele>
        <time>2022-01-08T12:21:57Z</time>
      </trkpt>
      <trkpt lat="36.7465880" lon="-3.7875430">
        <ele>64.0</ele>
        <time>2022-01-08T12:21:58Z</time>
      </trkpt>
      <trkpt lat="36.7465880" lon="-3.7875430">
        <ele>63.0</ele>
        <time>2022-01-08T12:21:59Z</time>
      </trkpt>
      <trkpt lat="36.7465730" lon="-3.7875680">
        <ele>63.0</ele>
        <time>2022-01-08T12:22:00Z</time>
      </trkpt>
      <trkpt lat="36.7465730" lon="-3.7875680">
        <ele>63.0</ele>
        <time>2022-01-08T12:22:01Z</time>
      </trkpt>
      <trkpt lat="36.7465580" lon="-3.7875930">
        <ele>63.0</ele>
        <time>2022-01-08T12:22:02Z</time>
      </trkpt>
      <trkpt lat="36.7465580" lon="-3.7875930">
        <ele>62.0</ele>
        <time>2022-01-08T12:22:03Z</time>
      </trkpt>
      <trkpt lat="36.7465410" lon="-3.7876150">
        <ele>62.0</ele>
        <time>2022-01-08T12:22:04Z</time>
      </trkpt>
      <trkpt lat="36.7465410" lon="-3.7876150">
        <ele>61.0</ele>
        <time>2022-01-08T12:22:05Z</time>
      </trkpt>
      <trkpt lat="36.7465280" lon="-3.7876400">
        <ele>61.0</ele>
        <time>2022-01-08T12:22:06Z</time>
      </trkpt>
      <trkpt lat="36.7465280" lon="-3.7876400">
        <ele>61.0</ele>
        <time>2022-01-08T12:22:07Z</time>
      </trkpt>
      <trkpt lat="36.7465170" lon="-3.7876690">
        <ele>60.0</ele>
        <time>2022-01-08T12:22:08Z</time>
      </trkpt>
      <trkpt lat="36.7465170" lon="-3.7876690">
        <ele>60.0</ele>
        <time>2022-01-08T12:22:09Z</time>
      </trkpt>
      <trkpt lat="36.7465040" lon="-3.7876950">
        <ele>60.0</ele>
        <time>2022-01-08T12:22:10Z</time>
      </trkpt>
      <trkpt lat="36.7465040" lon="-3.7876950">
        <ele>60.0</ele>
        <time>2022-01-08T12:22:11Z</time>
      </trkpt>
      <trkpt lat="36.7464910" lon="-3.7877230">
        <ele>60.0</ele>
        <time>2022-01-08T12:22:12Z</time>
      </trkpt>
      <trkpt lat="36.7464910" lon="-3.7877230">
        <ele>60.0</ele>
        <time>2022-01-08T12:22:13Z</time>
      </trkpt>
      <trkpt lat="36.7464780" lon="-3.7877470">
        <ele>60.0</ele>
        <time>2022-01-08T12:22:14Z</time>
      </trkpt>
      <trkpt lat="36.7464780" lon="-3.7877470">
        <ele>60.0</ele>
        <time>2022-01-08T12:22:15Z</time>
      </trkpt>
      <trkpt lat="36.7464650" lon="-3.7877710">
        <ele>60.0</ele>
        <time>2022-01-08T12:22:16Z</time>
      </trkpt>
      <trkpt lat="36.7464650" lon="-3.7877710">
        <ele>60.0</ele>
        <time>2022-01-08T12:22:17Z</time>
      </trkpt>
      <trkpt lat="36.7464510" lon="-3.7877970">
        <ele>60.0</ele>
        <time>2022-01-08T12:22:18Z</time>
      </trkpt>
      <trkpt lat="36.7464510" lon="-3.7877970">
        <ele>60.0</ele>
        <time>2022-01-08T12:22:19Z</time>
      </trkpt>
      <trkpt lat="36.7464350" lon="-3.7878210">
        <ele>60.0</ele>
        <time>2022-01-08T12:22:20Z</time>
      </trkpt>
      <trkpt lat="36.7464350" lon="-3.7878210">
        <ele>60.0</ele>
        <time>2022-01-08T12:22:21Z</time>
      </trkpt>
      <trkpt lat="36.7464190" lon="-3.7878410">
        <ele>60.0</ele>
        <time>2022-01-08T12:22:22Z</time>
      </trkpt>
      <trkpt lat="36.7464190" lon="-3.7878410">
        <ele>60.0</ele>
        <time>2022-01-08T12:22:23Z</time>
      </trkpt>
      <trkpt lat="36.7463980" lon="-3.7878550">
        <ele>60.0</ele>
        <time>2022-01-08T12:22:24Z</time>
      </trkpt>
      <trkpt lat="36.7463980" lon="-3.7878550">
        <ele>60.0</ele>
        <time>2022-01-08T12:22:25Z</time>
      </trkpt>
      <trkpt lat="36.7463770" lon="-3.7878690">
        <ele>59.0</ele>
        <time>2022-01-08T12:22:26Z</time>
      </trkpt>
      <trkpt lat="36.7463770" lon="-3.7878690">
        <ele>59.0</ele>
        <time>2022-01-08T12:22:27Z</time>
      </trkpt>
      <trkpt lat="36.7463550" lon="-3.7878810">
        <ele>59.0</ele>
        <time>2022-01-08T12:22:28Z</time>
      </trkpt>
      <trkpt lat="36.7463550" lon="-3.7878810">
        <ele>59.0</ele>
        <time>2022-01-08T12:22:29Z</time>
      </trkpt>
      <trkpt lat="36.7463330" lon="-3.7878930">
        <ele>59.0</ele>
        <time>2022-01-08T12:22:30Z</time>
      </trkpt>
      <trkpt lat="36.7463330" lon="-3.7878930">
        <ele>59.0</ele>
        <time>2022-01-08T12:22:31Z</time>
      </trkpt>
      <trkpt lat="36.7463110" lon="-3.7879060">
        <ele>59.0</ele>
        <time>2022-01-08T12:22:32Z</time>
      </trkpt>
      <trkpt lat="36.7463110" lon="-3.7879060">
        <ele>59.0</ele>
        <time>2022-01-08T12:22:33Z</time>
      </trkpt>
      <trkpt lat="36.7462890" lon="-3.7879090">
        <ele>59.0</ele>
        <time>2022-01-08T12:22:34Z</time>
      </trkpt>
      <trkpt lat="36.7462890" lon="-3.7879090">
        <ele>59.0</ele>
        <time>2022-01-08T12:22:35Z</time>
      </trkpt>
      <trkpt lat="36.7462650" lon="-3.7879140">
        <ele>59.0</ele>
        <time>2022-01-08T12:22:36Z</time>
      </trkpt>
      <trkpt lat="36.7462650" lon="-3.7879140">
        <ele>58.0</ele>
        <time>2022-01-08T12:22:37Z</time>
      </trkpt>
      <trkpt lat="36.7462380" lon="-3.7879160">
        <ele>57.0</ele>
        <time>2022-01-08T12:22:38Z</time>
      </trkpt>
      <trkpt lat="36.7462380" lon="-3.7879160">
        <ele>57.0</ele>
        <time>2022-01-08T12:22:39Z</time>
      </trkpt>
      <trkpt lat="36.7462060" lon="-3.7879200">
        <ele>56.0</ele>
        <time>2022-01-08T12:22:40Z</time>
      </trkpt>
      <trkpt lat="36.7462060" lon="-3.7879200">
        <ele>55.0</ele>
        <time>2022-01-08T12:22:41Z</time>
      </trkpt>
      <trkpt lat="36.7461800" lon="-3.7879270">
        <ele>55.0</ele>
        <time>2022-01-08T12:22:42Z</time>
      </trkpt>
      <trkpt lat="36.7461800" lon="-3.7879270">
        <ele>55.0</ele>
        <time>2022-01-08T12:22:43Z</time>
      </trkpt>
      <trkpt lat="36.7461570" lon="-3.7879280">
        <ele>55.0</ele>
        <time>2022-01-08T12:22:44Z</time>
      </trkpt>
      <trkpt lat="36.7461570" lon="-3.7879280">
        <ele>55.0</ele>
        <time>2022-01-08T12:22:45Z</time>
      </trkpt>
      <trkpt lat="36.7461300" lon="-3.7879330">
        <ele>54.0</ele>
        <time>2022-01-08T12:22:46Z</time>
      </trkpt>
      <trkpt lat="36.7461300" lon="-3.7879330">
        <ele>54.0</ele>
        <time>2022-01-08T12:22:47Z</time>
      </trkpt>
      <trkpt lat="36.7461040" lon="-3.7879380">
        <ele>54.0</ele>
        <time>2022-01-08T12:22:48Z</time>
      </trkpt>
      <trkpt lat="36.7461040" lon="-3.7879380">
        <ele>54.0</ele>
        <time>2022-01-08T12:22:49Z</time>
      </trkpt>
      <trkpt lat="36.7460800" lon="-3.7879440">
        <ele>53.0</ele>
        <time>2022-01-08T12:22:50Z</time>
      </trkpt>
      <trkpt lat="36.7460800" lon="-3.7879440">
        <ele>53.0</ele>
        <time>2022-01-08T12:22:51Z</time>
      </trkpt>
      <trkpt lat="36.7460550" lon="-3.7879500">
        <ele>53.0</ele>
        <time>2022-01-08T12:22:52Z</time>
      </trkpt>
      <trkpt lat="36.7460550" lon="-3.7879500">
        <ele>52.0</ele>
        <time>2022-01-08T12:22:53Z</time>
      </trkpt>
      <trkpt lat="36.7460330" lon="-3.7879630">
        <ele>52.0</ele>
        <time>2022-01-08T12:22:54Z</time>
      </trkpt>
      <trkpt lat="36.7460330" lon="-3.7879630">
        <ele>52.0</ele>
        <time>2022-01-08T12:22:55Z</time>
      </trkpt>
      <trkpt lat="36.7460020" lon="-3.7879800">
        <ele>51.0</ele>
        <time>2022-01-08T12:22:56Z</time>
      </trkpt>
      <trkpt lat="36.7460020" lon="-3.7879800">
        <ele>51.0</ele>
        <time>2022-01-08T12:22:57Z</time>
      </trkpt>
      <trkpt lat="36.7459800" lon="-3.7879900">
        <ele>51.0</ele>
        <time>2022-01-08T12:22:58Z</time>
      </trkpt>
      <trkpt lat="36.7459800" lon="-3.7879900">
        <ele>51.0</ele>
        <time>2022-01-08T12:22:59Z</time>
      </trkpt>
      <trkpt lat="36.7459530" lon="-3.7879950">
        <ele>51.0</ele>
        <time>2022-01-08T12:23:00Z</time>
      </trkpt>
      <trkpt lat="36.7459530" lon="-3.7879950">
        <ele>51.0</ele>
        <time>2022-01-08T12:23:01Z</time>
      </trkpt>
      <trkpt lat="36.7459250" lon="-3.7879970">
        <ele>50.0</ele>
        <time>2022-01-08T12:23:02Z</time>
      </trkpt>
      <trkpt lat="36.7459250" lon="-3.7879970">
        <ele>50.0</ele>
        <time>2022-01-08T12:23:03Z</time>
      </trkpt>
      <trkpt lat="36.7459000" lon="-3.7879990">
        <ele>49.0</ele>
        <time>2022-01-08T12:23:04Z</time>
      </trkpt>
      <trkpt lat="36.7459000" lon="-3.7879990">
        <ele>49.0</ele>
        <time>2022-01-08T12:23:05Z</time>
      </trkpt>
      <trkpt lat="36.7458750" lon="-3.7880060">
        <ele>48.0</ele>
        <time>2022-01-08T12:23:06Z</time>
      </trkpt>
      <trkpt lat="36.7458750" lon="-3.7880060">
        <ele>48.0</ele>
        <time>2022-01-08T12:23:07Z</time>
      </trkpt>
      <trkpt lat="36.7458480" lon="-3.7880060">
        <ele>47.0</ele>
        <time>2022-01-08T12:23:08Z</time>
      </trkpt>
      <trkpt lat="36.7458480" lon="-3.7880060">
        <ele>46.0</ele>
        <time>2022-01-08T12:23:09Z</time>
      </trkpt>
      <trkpt lat="36.7458230" lon="-3.7879980">
        <ele>46.0</ele>
        <time>2022-01-08T12:23:10Z</time>
      </trkpt>
      <trkpt lat="36.7458230" lon="-3.7879980">
        <ele>46.0</ele>
        <time>2022-01-08T12:23:11Z</time>
      </trkpt>
      <trkpt lat="36.7457990" lon="-3.7879890">
        <ele>45.0</ele>
        <time>2022-01-08T12:23:12Z</time>
      </trkpt>
      <trkpt lat="36.7457990" lon="-3.7879890">
        <ele>45.0</ele>
        <time>2022-01-08T12:23:13Z</time>
      </trkpt>
      <trkpt lat="36.7457810" lon="-3.7879750">
        <ele>44.0</ele>
        <time>2022-01-08T12:23:14Z</time>
      </trkpt>
      <trkpt lat="36.7457810" lon="-3.7879750">
        <ele>44.0</ele>
        <time>2022-01-08T12:23:15Z</time>
      </trkpt>
      <trkpt lat="36.7457690" lon="-3.7879470">
        <ele>44.0</ele>
        <time>2022-01-08T12:23:16Z</time>
      </trkpt>
      <trkpt lat="36.7457690" lon="-3.7879470">
        <ele>43.0</ele>
        <time>2022-01-08T12:23:17Z</time>
      </trkpt>
      <trkpt lat="36.7457560" lon="-3.7879250">
        <ele>42.0</ele>
        <time>2022-01-08T12:23:18Z</time>
      </trkpt>
      <trkpt lat="36.7457560" lon="-3.7879250">
        <ele>42.0</ele>
        <time>2022-01-08T12:23:19Z</time>
      </trkpt>
      <trkpt lat="36.7457450" lon="-3.7878990">
        <ele>42.0</ele>
        <time>2022-01-08T12:23:20Z</time>
      </trkpt>
      <trkpt lat="36.7457450" lon="-3.7878990">
        <ele>42.0</ele>
        <time>2022-01-08T12:23:21Z</time>
      </trkpt>
      <trkpt lat="36.7457410" lon="-3.7878710">
        <ele>42.0</ele>
        <time>2022-01-08T12:23:22Z</time>
      </trkpt>
      <trkpt lat="36.7457410" lon="-3.7878710">
        <ele>41.0</ele>
        <time>2022-01-08T12:23:23Z</time>
      </trkpt>
      <trkpt lat="36.7457430" lon="-3.7878440">
        <ele>41.0</ele>
        <time>2022-01-08T12:23:24Z</time>
      </trkpt>
      <trkpt lat="36.7457430" lon="-3.7878440">
        <ele>41.0</ele>
        <time>2022-01-08T12:23:25Z</time>
      </trkpt>
      <trkpt lat="36.7457360" lon="-3.7878130">
        <ele>41.0</ele>
        <time>2022-01-08T12:23:26Z</time>
      </trkpt>
      <trkpt lat="36.7457360" lon="-3.7878130">
        <ele>41.0</ele>
        <time>2022-01-08T12:23:27Z</time>
      </trkpt>
      <trkpt lat="36.7457280" lon="-3.7877870">
        <ele>40.0</ele>
        <time>2022-01-08T12:23:28Z</time>
      </trkpt>
      <trkpt lat="36.7457280" lon="-3.7877870">
        <ele>40.0</ele>
        <time>2022-01-08T12:23:29Z</time>
      </trkpt>
      <trkpt lat="36.7457180" lon="-3.7877590">
        <ele>39.0</ele>
        <time>2022-01-08T12:23:30Z</time>
      </trkpt>
      <trkpt lat="36.7457180" lon="-3.7877590">
        <ele>39.0</ele>
        <time>2022-01-08T12:23:31Z</time>
      </trkpt>
      <trkpt lat="36.7457110" lon="-3.7877320">
        <ele>39.0</ele>
        <time>2022-01-08T12:23:32Z</time>
      </trkpt>
      <trkpt lat="36.7457110" lon="-3.7877320">
        <ele>38.0</ele>
        <time>2022-01-08T12:23:33Z</time>
      </trkpt>
      <trkpt lat="36.7456930" lon="-3.7877000">
        <ele>38.0</ele>
        <time>2022-01-08T12:23:34Z</time>
      </trkpt>
      <trkpt lat="36.7456930" lon="-3.7877000">
        <ele>38.0</ele>
        <time>2022-01-08T12:23:35Z</time>
      </trkpt>
      <trkpt lat="36.7456750" lon="-3.7876770">
        <ele>38.0</ele>
        <time>2022-01-08T12:23:36Z</time>
      </trkpt>
      <trkpt lat="36.7456750" lon="-3.7876770">
        <ele>37.0</ele>
        <time>2022-01-08T12:23:37Z</time>
      </trkpt>
      <trkpt lat="36.7456510" lon="-3.7876640">
        <ele>37.0</ele>
        <time>2022-01-08T12:23:38Z</time>
      </trkpt>
      <trkpt lat="36.7456510" lon="-3.7876640">
        <ele>36.0</ele>
        <time>2022-01-08T12:23:39Z</time>
      </trkpt>
      <trkpt lat="36.7456260" lon="-3.7876490">
        <ele>36.0</ele>
        <time>2022-01-08T12:23:40Z</time>
      </trkpt>
      <trkpt lat="36.7456260" lon="-3.7876490">
        <ele>36.0</ele>
        <time>2022-01-08T12:23:41Z</time>
      </trkpt>
      <trkpt lat="36.7455950" lon="-3.7876470">
        <ele>36.0</ele>
        <time>2022-01-08T12:23:42Z</time>
      </trkpt>
      <trkpt lat="36.7455750" lon="-3.7876460">
        <ele>35.0</ele>
        <time>2022-01-08T12:23:43Z</time>
      </trkpt>
      <trkpt lat="36.7455560" lon="-3.7876450">
        <ele>35.0</ele>
        <time>2022-01-08T12:23:44Z</time>
      </trkpt>
      <trkpt lat="36.7455370" lon="-3.7876460">
        <ele>35.0</ele>
        <time>2022-01-08T12:23:45Z</time>
      </trkpt>
      <trkpt lat="36.7455170" lon="-3.7876460">
        <ele>35.0</ele>
        <time>2022-01-08T12:23:46Z</time>
      </trkpt>
      <trkpt lat="36.7455170" lon="-3.7876460">
        <ele>34.0</ele>
        <time>2022-01-08T12:23:47Z</time>
      </trkpt>
      <trkpt lat="36.7454870" lon="-3.7876520">
        <ele>33.0</ele>
        <time>2022-01-08T12:23:48Z</time>
      </trkpt>
      <trkpt lat="36.7454870" lon="-3.7876520">
        <ele>32.0</ele>
        <time>2022-01-08T12:23:49Z</time>
      </trkpt>
      <trkpt lat="36.7454610" lon="-3.7876570">
        <ele>31.0</ele>
        <time>2022-01-08T12:23:50Z</time>
      </trkpt>
      <trkpt lat="36.7454610" lon="-3.7876570">
        <ele>31.0</ele>
        <time>2022-01-08T12:23:51Z</time>
      </trkpt>
      <trkpt lat="36.7454310" lon="-3.7876690">
        <ele>31.0</ele>
        <time>2022-01-08T12:23:52Z</time>
      </trkpt>
      <trkpt lat="36.7454310" lon="-3.7876690">
        <ele>30.0</ele>
        <time>2022-01-08T12:23:53Z</time>
      </trkpt>
      <trkpt lat="36.7454060" lon="-3.7876840">
        <ele>30.0</ele>
        <time>2022-01-08T12:23:54Z</time>
      </trkpt>
      <trkpt lat="36.7454060" lon="-3.7876840">
        <ele>30.0</ele>
        <time>2022-01-08T12:23:55Z</time>
      </trkpt>
      <trkpt lat="36.7453850" lon="-3.7876980">
        <ele>30.0</ele>
        <time>2022-01-08T12:23:56Z</time>
      </trkpt>
      <trkpt lat="36.7453850" lon="-3.7876980">
        <ele>30.0</ele>
        <time>2022-01-08T12:23:57Z</time>
      </trkpt>
      <trkpt lat="36.7453850" lon="-3.7876980">
        <ele>29.0</ele>
        <time>2022-01-08T12:23:58Z</time>
      </trkpt>
      <trkpt lat="36.7453550" lon="-3.7877170">
        <ele>29.0</ele>
        <time>2022-01-08T12:23:59Z</time>
      </trkpt>
      <trkpt lat="36.7453550" lon="-3.7877170">
        <ele>29.0</ele>
        <time>2022-01-08T12:24:00Z</time>
      </trkpt>
      <trkpt lat="36.7453420" lon="-3.7877390">
        <ele>28.0</ele>
        <time>2022-01-08T12:24:01Z</time>
      </trkpt>
      <trkpt lat="36.7453420" lon="-3.7877390">
        <ele>27.0</ele>
        <time>2022-01-08T12:24:02Z</time>
      </trkpt>
      <trkpt lat="36.7453350" lon="-3.7877720">
        <ele>27.0</ele>
        <time>2022-01-08T12:24:03Z</time>
      </trkpt>
      <trkpt lat="36.7453350" lon="-3.7877720">
        <ele>27.0</ele>
        <time>2022-01-08T12:24:04Z</time>
      </trkpt>
      <trkpt lat="36.7453410" lon="-3.7878150">
        <ele>27.0</ele>
        <time>2022-01-08T12:24:05Z</time>
      </trkpt>
      <trkpt lat="36.7453410" lon="-3.7878150">
        <ele>27.0</ele>
        <time>2022-01-08T12:24:06Z</time>
      </trkpt>
      <trkpt lat="36.7453540" lon="-3.7878480">
        <ele>27.0</ele>
        <time>2022-01-08T12:24:07Z</time>
      </trkpt>
      <trkpt lat="36.7453540" lon="-3.7878480">
        <ele>26.0</ele>
        <time>2022-01-08T12:24:08Z</time>
      </trkpt>
      <trkpt lat="36.7453710" lon="-3.7878740">
        <ele>25.0</ele>
        <time>2022-01-08T12:24:09Z</time>
      </trkpt>
      <trkpt lat="36.7453710" lon="-3.7878740">
        <ele>24.0</ele>
        <time>2022-01-08T12:24:10Z</time>
      </trkpt>
      <trkpt lat="36.7453850" lon="-3.7878980">
        <ele>24.0</ele>
        <time>2022-01-08T12:24:11Z</time>
      </trkpt>
      <trkpt lat="36.7453850" lon="-3.7878980">
        <ele>24.0</ele>
        <time>2022-01-08T12:24:12Z</time>
      </trkpt>
      <trkpt lat="36.7454020" lon="-3.7879250">
        <ele>24.0</ele>
        <time>2022-01-08T12:24:13Z</time>
      </trkpt>
      <trkpt lat="36.7454020" lon="-3.7879250">
        <ele>23.0</ele>
        <time>2022-01-08T12:24:14Z</time>
      </trkpt>
      <trkpt lat="36.7454170" lon="-3.7879580">
        <ele>23.0</ele>
        <time>2022-01-08T12:24:15Z</time>
      </trkpt>
      <trkpt lat="36.7454170" lon="-3.7879580">
        <ele>23.0</ele>
        <time>2022-01-08T12:24:16Z</time>
      </trkpt>
      <trkpt lat="36.7454290" lon="-3.7879850">
        <ele>22.0</ele>
        <time>2022-01-08T12:24:17Z</time>
      </trkpt>
      <trkpt lat="36.7454290" lon="-3.7879850">
        <ele>22.0</ele>
        <time>2022-01-08T12:24:18Z</time>
      </trkpt>
      <trkpt lat="36.7454380" lon="-3.7880120">
        <ele>22.0</ele>
        <time>2022-01-08T12:24:19Z</time>
      </trkpt>
      <trkpt lat="36.7454380" lon="-3.7880120">
        <ele>22.0</ele>
        <time>2022-01-08T12:24:20Z</time>
      </trkpt>
      <trkpt lat="36.7454470" lon="-3.7880470">
        <ele>21.0</ele>
        <time>2022-01-08T12:24:21Z</time>
      </trkpt>
      <trkpt lat="36.7454470" lon="-3.7880470">
        <ele>20.0</ele>
        <time>2022-01-08T12:24:22Z</time>
      </trkpt>
      <trkpt lat="36.7454520" lon="-3.7880820">
        <ele>20.0</ele>
        <time>2022-01-08T12:24:23Z</time>
      </trkpt>
      <trkpt lat="36.7454520" lon="-3.7880820">
        <ele>19.0</ele>
        <time>2022-01-08T12:24:24Z</time>
      </trkpt>
      <trkpt lat="36.7454500" lon="-3.7881070">
        <ele>19.0</ele>
        <time>2022-01-08T12:24:25Z</time>
      </trkpt>
      <trkpt lat="36.7454500" lon="-3.7881070">
        <ele>18.0</ele>
        <time>2022-01-08T12:24:26Z</time>
      </trkpt>
      <trkpt lat="36.7454510" lon="-3.7881350">
        <ele>18.0</ele>
        <time>2022-01-08T12:24:27Z</time>
      </trkpt>
      <trkpt lat="36.7454510" lon="-3.7881350">
        <ele>18.0</ele>
        <time>2022-01-08T12:24:28Z</time>
      </trkpt>
      <trkpt lat="36.7454520" lon="-3.7881650">
        <ele>18.0</ele>
        <time>2022-01-08T12:24:29Z</time>
      </trkpt>
      <trkpt lat="36.7454520" lon="-3.7881650">
        <ele>18.0</ele>
        <time>2022-01-08T12:24:30Z</time>
      </trkpt>
      <trkpt lat="36.7454540" lon="-3.7881930">
        <ele>18.0</ele>
        <time>2022-01-08T12:24:31Z</time>
      </trkpt>
      <trkpt lat="36.7454540" lon="-3.7881930">
        <ele>18.0</ele>
        <time>2022-01-08T12:24:32Z</time>
      </trkpt>
      <trkpt lat="36.7454570" lon="-3.7882240">
        <ele>18.0</ele>
        <time>2022-01-08T12:24:33Z</time>
      </trkpt>
      <trkpt lat="36.7454570" lon="-3.7882240">
        <ele>18.0</ele>
        <time>2022-01-08T12:24:34Z</time>
      </trkpt>
      <trkpt lat="36.7454610" lon="-3.7882540">
        <ele>18.0</ele>
        <time>2022-01-08T12:24:35Z</time>
      </trkpt>
      <trkpt lat="36.7454610" lon="-3.7882540">
        <ele>18.0</ele>
        <time>2022-01-08T12:24:36Z</time>
      </trkpt>
      <trkpt lat="36.7454650" lon="-3.7882820">
        <ele>18.0</ele>
        <time>2022-01-08T12:24:37Z</time>
      </trkpt>
      <trkpt lat="36.7454650" lon="-3.7882820">
        <ele>18.0</ele>
        <time>2022-01-08T12:24:38Z</time>
      </trkpt>
      <trkpt lat="36.7454650" lon="-3.7882820">
        <ele>19.0</ele>
        <time>2022-01-08T12:24:39Z</time>
      </trkpt>
      <trkpt lat="36.7454740" lon="-3.7883110">
        <ele>19.0</ele>
        <time>2022-01-08T12:24:40Z</time>
      </trkpt>
      <trkpt lat="36.7454740" lon="-3.7883110">
        <ele>19.0</ele>
        <time>2022-01-08T12:24:41Z</time>
      </trkpt>
      <trkpt lat="36.7454800" lon="-3.7883340">
        <ele>19.0</ele>
        <time>2022-01-08T12:24:42Z</time>
      </trkpt>
      <trkpt lat="36.7454800" lon="-3.7883340">
        <ele>19.0</ele>
        <time>2022-01-08T12:24:43Z</time>
      </trkpt>
      <trkpt lat="36.7454830" lon="-3.7883590">
        <ele>20.0</ele>
        <time>2022-01-08T12:24:44Z</time>
      </trkpt>
      <trkpt lat="36.7454830" lon="-3.7883590">
        <ele>20.0</ele>
        <time>2022-01-08T12:24:45Z</time>
      </trkpt>
      <trkpt lat="36.7454900" lon="-3.7883870">
        <ele>20.0</ele>
        <time>2022-01-08T12:24:46Z</time>
      </trkpt>
      <trkpt lat="36.7454900" lon="-3.7883870">
        <ele>20.0</ele>
        <time>2022-01-08T12:24:47Z</time>
      </trkpt>
      <trkpt lat="36.7454960" lon="-3.7884130">
        <ele>21.0</ele>
        <time>2022-01-08T12:24:48Z</time>
      </trkpt>
      <trkpt lat="36.7454960" lon="-3.7884130">
        <ele>21.0</ele>
        <time>2022-01-08T12:24:49Z</time>
      </trkpt>
      <trkpt lat="36.7455060" lon="-3.7884390">
        <ele>22.0</ele>
        <time>2022-01-08T12:24:50Z</time>
      </trkpt>
      <trkpt lat="36.7455060" lon="-3.7884390">
        <ele>22.0</ele>
        <time>2022-01-08T12:24:51Z</time>
      </trkpt>
      <trkpt lat="36.7455170" lon="-3.7884610">
        <ele>22.0</ele>
        <time>2022-01-08T12:24:52Z</time>
      </trkpt>
      <trkpt lat="36.7455170" lon="-3.7884610">
        <ele>22.0</ele>
        <time>2022-01-08T12:24:53Z</time>
      </trkpt>
      <trkpt lat="36.7455330" lon="-3.7884860">
        <ele>23.0</ele>
        <time>2022-01-08T12:24:54Z</time>
      </trkpt>
      <trkpt lat="36.7455330" lon="-3.7884860">
        <ele>23.0</ele>
        <time>2022-01-08T12:24:55Z</time>
      </trkpt>
      <trkpt lat="36.7455500" lon="-3.7885090">
        <ele>24.0</ele>
        <time>2022-01-08T12:24:56Z</time>
      </trkpt>
      <trkpt lat="36.7455500" lon="-3.7885090">
        <ele>24.0</ele>
        <time>2022-01-08T12:24:57Z</time>
      </trkpt>
      <trkpt lat="36.7455690" lon="-3.7885300">
        <ele>24.0</ele>
        <time>2022-01-08T12:24:58Z</time>
      </trkpt>
      <trkpt lat="36.7455690" lon="-3.7885300">
        <ele>24.0</ele>
        <time>2022-01-08T12:24:59Z</time>
      </trkpt>
      <trkpt lat="36.7455910" lon="-3.7885490">
        <ele>24.0</ele>
        <time>2022-01-08T12:25:00Z</time>
      </trkpt>
      <trkpt lat="36.7455910" lon="-3.7885490">
        <ele>24.0</ele>
        <time>2022-01-08T12:25:01Z</time>
      </trkpt>
      <trkpt lat="36.7456140" lon="-3.7885620">
        <ele>25.0</ele>
        <time>2022-01-08T12:25:02Z</time>
      </trkpt>
      <trkpt lat="36.7456140" lon="-3.7885620">
        <ele>25.0</ele>
        <time>2022-01-08T12:25:03Z</time>
      </trkpt>
      <trkpt lat="36.7456370" lon="-3.7885790">
        <ele>26.0</ele>
        <time>2022-01-08T12:25:04Z</time>
      </trkpt>
      <trkpt lat="36.7456370" lon="-3.7885790">
        <ele>26.0</ele>
        <time>2022-01-08T12:25:05Z</time>
      </trkpt>
      <trkpt lat="36.7456610" lon="-3.7885950">
        <ele>26.0</ele>
        <time>2022-01-08T12:25:06Z</time>
      </trkpt>
      <trkpt lat="36.7456610" lon="-3.7885950">
        <ele>26.0</ele>
        <time>2022-01-08T12:25:07Z</time>
      </trkpt>
      <trkpt lat="36.7456810" lon="-3.7886130">
        <ele>26.0</ele>
        <time>2022-01-08T12:25:08Z</time>
      </trkpt>
      <trkpt lat="36.7456810" lon="-3.7886130">
        <ele>26.0</ele>
        <time>2022-01-08T12:25:09Z</time>
      </trkpt>
      <trkpt lat="36.7457030" lon="-3.7886270">
        <ele>26.0</ele>
        <time>2022-01-08T12:25:10Z</time>
      </trkpt>
      <trkpt lat="36.7457030" lon="-3.7886270">
        <ele>26.0</ele>
        <time>2022-01-08T12:25:11Z</time>
      </trkpt>
      <trkpt lat="36.7457270" lon="-3.7886370">
        <ele>26.0</ele>
        <time>2022-01-08T12:25:12Z</time>
      </trkpt>
      <trkpt lat="36.7457270" lon="-3.7886370">
        <ele>27.0</ele>
        <time>2022-01-08T12:25:13Z</time>
      </trkpt>
      <trkpt lat="36.7457490" lon="-3.7886520">
        <ele>27.0</ele>
        <time>2022-01-08T12:25:14Z</time>
      </trkpt>
      <trkpt lat="36.7457490" lon="-3.7886520">
        <ele>27.0</ele>
        <time>2022-01-08T12:25:15Z</time>
      </trkpt>
      <trkpt lat="36.7457720" lon="-3.7886670">
        <ele>27.0</ele>
        <time>2022-01-08T12:25:16Z</time>
      </trkpt>
      <trkpt lat="36.7457720" lon="-3.7886670">
        <ele>28.0</ele>
        <time>2022-01-08T12:25:17Z</time>
      </trkpt>
      <trkpt lat="36.7457930" lon="-3.7886800">
        <ele>28.0</ele>
        <time>2022-01-08T12:25:18Z</time>
      </trkpt>
      <trkpt lat="36.7457930" lon="-3.7886800">
        <ele>29.0</ele>
        <time>2022-01-08T12:25:19Z</time>
      </trkpt>
      <trkpt lat="36.7458150" lon="-3.7886940">
        <ele>29.0</ele>
        <time>2022-01-08T12:25:20Z</time>
      </trkpt>
      <trkpt lat="36.7458150" lon="-3.7886940">
        <ele>29.0</ele>
        <time>2022-01-08T12:25:21Z</time>
      </trkpt>
      <trkpt lat="36.7458370" lon="-3.7887110">
        <ele>30.0</ele>
        <time>2022-01-08T12:25:22Z</time>
      </trkpt>
      <trkpt lat="36.7458370" lon="-3.7887110">
        <ele>30.0</ele>
        <time>2022-01-08T12:25:23Z</time>
      </trkpt>
      <trkpt lat="36.7458580" lon="-3.7887300">
        <ele>30.0</ele>
        <time>2022-01-08T12:25:24Z</time>
      </trkpt>
      <trkpt lat="36.7458580" lon="-3.7887300">
        <ele>30.0</ele>
        <time>2022-01-08T12:25:25Z</time>
      </trkpt>
      <trkpt lat="36.7458770" lon="-3.7887500">
        <ele>30.0</ele>
        <time>2022-01-08T12:25:26Z</time>
      </trkpt>
      <trkpt lat="36.7458770" lon="-3.7887500">
        <ele>30.0</ele>
        <time>2022-01-08T12:25:27Z</time>
      </trkpt>
      <trkpt lat="36.7458970" lon="-3.7887680">
        <ele>31.0</ele>
        <time>2022-01-08T12:25:28Z</time>
      </trkpt>
      <trkpt lat="36.7458970" lon="-3.7887680">
        <ele>31.0</ele>
        <time>2022-01-08T12:25:29Z</time>
      </trkpt>
      <trkpt lat="36.7458970" lon="-3.7887680">
        <ele>32.0</ele>
        <time>2022-01-08T12:25:30Z</time>
      </trkpt>
      <trkpt lat="36.7458970" lon="-3.7887680">
        <ele>32.0</ele>
        <time>2022-01-08T12:25:31Z</time>
      </trkpt>
      <trkpt lat="36.7458970" lon="-3.7887680">
        <ele>33.0</ele>
        <time>2022-01-08T12:25:32Z</time>
      </trkpt>
      <trkpt lat="36.7458970" lon="-3.7887680">
        <ele>33.0</ele>
        <time>2022-01-08T12:25:33Z</time>
      </trkpt>
      <trkpt lat="36.7458970" lon="-3.7887680">
        <ele>33.0</ele>
        <time>2022-01-08T12:25:34Z</time>
      </trkpt>
      <trkpt lat="36.7458970" lon="-3.7887680">
        <ele>33.0</ele>
        <time>2022-01-08T12:25:35Z</time>
      </trkpt>
      <trkpt lat="36.7458970" lon="-3.7887680">
        <ele>34.0</ele>
        <time>2022-01-08T12:25:36Z</time>
      </trkpt>
      <trkpt lat="36.7458970" lon="-3.7887680">
        <ele>34.0</ele>
        <time>2022-01-08T12:25:37Z</time>
      </trkpt>
      <trkpt lat="36.7458970" lon="-3.7887680">
        <ele>34.0</ele>
        <time>2022-01-08T12:25:38Z</time>
      </trkpt>
      <trkpt lat="36.7458970" lon="-3.7887680">
        <ele>35.0</ele>
        <time>2022-01-08T12:25:39Z</time>
      </trkpt>
      <trkpt lat="36.7458970" lon="-3.7887680">
        <ele>35.0</ele>
        <time>2022-01-08T12:25:40Z</time>
      </trkpt>
      <trkpt lat="36.7458970" lon="-3.7887680">
        <ele>35.0</ele>
        <time>2022-01-08T12:25:41Z</time>
      </trkpt>
      <trkpt lat="36.7458970" lon="-3.7887680">
        <ele>35.0</ele>
        <time>2022-01-08T12:25:42Z</time>
      </trkpt>
      <trkpt lat="36.7458970" lon="-3.7887680">
        <ele>36.0</ele>
        <time>2022-01-08T12:25:43Z</time>
      </trkpt>
      <trkpt lat="36.7459060" lon="-3.7887950">
        <ele>36.0</ele>
        <time>2022-01-08T12:25:44Z</time>
      </trkpt>
      <trkpt lat="36.7459060" lon="-3.7887950">
        <ele>36.0</ele>
        <time>2022-01-08T12:25:45Z</time>
      </trkpt>
      <trkpt lat="36.7459220" lon="-3.7888080">
        <ele>36.0</ele>
        <time>2022-01-08T12:25:46Z</time>
      </trkpt>
      <trkpt lat="36.7459220" lon="-3.7888080">
        <ele>36.0</ele>
        <time>2022-01-08T12:25:47Z</time>
      </trkpt>
      <trkpt lat="36.7459380" lon="-3.7888230">
        <ele>36.0</ele>
        <time>2022-01-08T12:25:48Z</time>
      </trkpt>
      <trkpt lat="36.7459380" lon="-3.7888230">
        <ele>36.0</ele>
        <time>2022-01-08T12:25:49Z</time>
      </trkpt>
      <trkpt lat="36.7459550" lon="-3.7888480">
        <ele>36.0</ele>
        <time>2022-01-08T12:25:50Z</time>
      </trkpt>
      <trkpt lat="36.7459550" lon="-3.7888480">
        <ele>36.0</ele>
        <time>2022-01-08T12:25:51Z</time>
      </trkpt>
      <trkpt lat="36.7459770" lon="-3.7888690">
        <ele>36.0</ele>
        <time>2022-01-08T12:25:52Z</time>
      </trkpt>
      <trkpt lat="36.7459770" lon="-3.7888690">
        <ele>36.0</ele>
        <time>2022-01-08T12:25:53Z</time>
      </trkpt>
      <trkpt lat="36.7459950" lon="-3.7888880">
        <ele>36.0</ele>
        <time>2022-01-08T12:25:54Z</time>
      </trkpt>
      <trkpt lat="36.7459950" lon="-3.7888880">
        <ele>36.0</ele>
        <time>2022-01-08T12:25:55Z</time>
      </trkpt>
      <trkpt lat="36.7460140" lon="-3.7889020">
        <ele>36.0</ele>
        <time>2022-01-08T12:25:56Z</time>
      </trkpt>
      <trkpt lat="36.7460140" lon="-3.7889020">
        <ele>36.0</ele>
        <time>2022-01-08T12:25:57Z</time>
      </trkpt>
      <trkpt lat="36.7460350" lon="-3.7889160">
        <ele>36.0</ele>
        <time>2022-01-08T12:25:58Z</time>
      </trkpt>
      <trkpt lat="36.7460350" lon="-3.7889160">
        <ele>36.0</ele>
        <time>2022-01-08T12:25:59Z</time>
      </trkpt>
      <trkpt lat="36.7460570" lon="-3.7889270">
        <ele>36.0</ele>
        <time>2022-01-08T12:26:00Z</time>
      </trkpt>
      <trkpt lat="36.7460570" lon="-3.7889270">
        <ele>36.0</ele>
        <time>2022-01-08T12:26:01Z</time>
      </trkpt>
      <trkpt lat="36.7460780" lon="-3.7889420">
        <ele>36.0</ele>
        <time>2022-01-08T12:26:02Z</time>
      </trkpt>
      <trkpt lat="36.7460780" lon="-3.7889420">
        <ele>37.0</ele>
        <time>2022-01-08T12:26:03Z</time>
      </trkpt>
      <trkpt lat="36.7460970" lon="-3.7889610">
        <ele>37.0</ele>
        <time>2022-01-08T12:26:04Z</time>
      </trkpt>
      <trkpt lat="36.7460970" lon="-3.7889610">
        <ele>37.0</ele>
        <time>2022-01-08T12:26:05Z</time>
      </trkpt>
      <trkpt lat="36.7461120" lon="-3.7889820">
        <ele>37.0</ele>
        <time>2022-01-08T12:26:06Z</time>
      </trkpt>
      <trkpt lat="36.7461120" lon="-3.7889820">
        <ele>37.0</ele>
        <time>2022-01-08T12:26:07Z</time>
      </trkpt>
      <trkpt lat="36.7461250" lon="-3.7890050">
        <ele>37.0</ele>
        <time>2022-01-08T12:26:08Z</time>
      </trkpt>
      <trkpt lat="36.7461250" lon="-3.7890050">
        <ele>37.0</ele>
        <time>2022-01-08T12:26:09Z</time>
      </trkpt>
      <trkpt lat="36.7461310" lon="-3.7890280">
        <ele>37.0</ele>
        <time>2022-01-08T12:26:10Z</time>
      </trkpt>
      <trkpt lat="36.7461310" lon="-3.7890280">
        <ele>37.0</ele>
        <time>2022-01-08T12:26:11Z</time>
      </trkpt>
      <trkpt lat="36.7461300" lon="-3.7890570">
        <ele>37.0</ele>
        <time>2022-01-08T12:26:12Z</time>
      </trkpt>
      <trkpt lat="36.7461300" lon="-3.7890570">
        <ele>37.0</ele>
        <time>2022-01-08T12:26:13Z</time>
      </trkpt>
      <trkpt lat="36.7461230" lon="-3.7890850">
        <ele>37.0</ele>
        <time>2022-01-08T12:26:14Z</time>
      </trkpt>
      <trkpt lat="36.7461230" lon="-3.7890850">
        <ele>37.0</ele>
        <time>2022-01-08T12:26:15Z</time>
      </trkpt>
      <trkpt lat="36.7461160" lon="-3.7891120">
        <ele>37.0</ele>
        <time>2022-01-08T12:26:16Z</time>
      </trkpt>
      <trkpt lat="36.7461160" lon="-3.7891120">
        <ele>37.0</ele>
        <time>2022-01-08T12:26:17Z</time>
      </trkpt>
      <trkpt lat="36.7461070" lon="-3.7891400">
        <ele>37.0</ele>
        <time>2022-01-08T12:26:18Z</time>
      </trkpt>
      <trkpt lat="36.7461070" lon="-3.7891400">
        <ele>37.0</ele>
        <time>2022-01-08T12:26:19Z</time>
      </trkpt>
      <trkpt lat="36.7460970" lon="-3.7891680">
        <ele>37.0</ele>
        <time>2022-01-08T12:26:20Z</time>
      </trkpt>
      <trkpt lat="36.7460970" lon="-3.7891680">
        <ele>37.0</ele>
        <time>2022-01-08T12:26:21Z</time>
      </trkpt>
      <trkpt lat="36.7460890" lon="-3.7891950">
        <ele>37.0</ele>
        <time>2022-01-08T12:26:22Z</time>
      </trkpt>
      <trkpt lat="36.7460890" lon="-3.7891950">
        <ele>37.0</ele>
        <time>2022-01-08T12:26:23Z</time>
      </trkpt>
      <trkpt lat="36.7460850" lon="-3.7892250">
        <ele>37.0</ele>
        <time>2022-01-08T12:26:24Z</time>
      </trkpt>
      <trkpt lat="36.7460850" lon="-3.7892250">
        <ele>37.0</ele>
        <time>2022-01-08T12:26:25Z</time>
      </trkpt>
      <trkpt lat="36.7460790" lon="-3.7892540">
        <ele>37.0</ele>
        <time>2022-01-08T12:26:26Z</time>
      </trkpt>
      <trkpt lat="36.7460790" lon="-3.7892540">
        <ele>37.0</ele>
        <time>2022-01-08T12:26:27Z</time>
      </trkpt>
      <trkpt lat="36.7460770" lon="-3.7892870">
        <ele>37.0</ele>
        <time>2022-01-08T12:26:28Z</time>
      </trkpt>
      <trkpt lat="36.7460770" lon="-3.7892870">
        <ele>36.0</ele>
        <time>2022-01-08T12:26:29Z</time>
      </trkpt>
      <trkpt lat="36.7460750" lon="-3.7893170">
        <ele>36.0</ele>
        <time>2022-01-08T12:26:30Z</time>
      </trkpt>
      <trkpt lat="36.7460750" lon="-3.7893170">
        <ele>36.0</ele>
        <time>2022-01-08T12:26:31Z</time>
      </trkpt>
      <trkpt lat="36.7460750" lon="-3.7893470">
        <ele>36.0</ele>
        <time>2022-01-08T12:26:32Z</time>
      </trkpt>
      <trkpt lat="36.7460750" lon="-3.7893470">
        <ele>36.0</ele>
        <time>2022-01-08T12:26:33Z</time>
      </trkpt>
      <trkpt lat="36.7460750" lon="-3.7893760">
        <ele>36.0</ele>
        <time>2022-01-08T12:26:34Z</time>
      </trkpt>
      <trkpt lat="36.7460750" lon="-3.7893760">
        <ele>36.0</ele>
        <time>2022-01-08T12:26:35Z</time>
      </trkpt>
      <trkpt lat="36.7460770" lon="-3.7894040">
        <ele>36.0</ele>
        <time>2022-01-08T12:26:36Z</time>
      </trkpt>
      <trkpt lat="36.7460770" lon="-3.7894040">
        <ele>36.0</ele>
        <time>2022-01-08T12:26:37Z</time>
      </trkpt>
      <trkpt lat="36.7460800" lon="-3.7894300">
        <ele>36.0</ele>
        <time>2022-01-08T12:26:38Z</time>
      </trkpt>
      <trkpt lat="36.7460800" lon="-3.7894300">
        <ele>35.0</ele>
        <time>2022-01-08T12:26:39Z</time>
      </trkpt>
      <trkpt lat="36.7460810" lon="-3.7894560">
        <ele>35.0</ele>
        <time>2022-01-08T12:26:40Z</time>
      </trkpt>
      <trkpt lat="36.7460810" lon="-3.7894560">
        <ele>35.0</ele>
        <time>2022-01-08T12:26:41Z</time>
      </trkpt>
      <trkpt lat="36.7460860" lon="-3.7894830">
        <ele>35.0</ele>
        <time>2022-01-08T12:26:42Z</time>
      </trkpt>
      <trkpt lat="36.7460860" lon="-3.7894830">
        <ele>35.0</ele>
        <time>2022-01-08T12:26:43Z</time>
      </trkpt>
      <trkpt lat="36.7460920" lon="-3.7895090">
        <ele>35.0</ele>
        <time>2022-01-08T12:26:44Z</time>
      </trkpt>
      <trkpt lat="36.7460920" lon="-3.7895090">
        <ele>35.0</ele>
        <time>2022-01-08T12:26:45Z</time>
      </trkpt>
      <trkpt lat="36.7460960" lon="-3.7895350">
        <ele>34.0</ele>
        <time>2022-01-08T12:26:46Z</time>
      </trkpt>
      <trkpt lat="36.7460960" lon="-3.7895350">
        <ele>34.0</ele>
        <time>2022-01-08T12:26:47Z</time>
      </trkpt>
      <trkpt lat="36.7460980" lon="-3.7895610">
        <ele>34.0</ele>
        <time>2022-01-08T12:26:48Z</time>
      </trkpt>
      <trkpt lat="36.7460980" lon="-3.7895610">
        <ele>34.0</ele>
        <time>2022-01-08T12:26:49Z</time>
      </trkpt>
      <trkpt lat="36.7461020" lon="-3.7895860">
        <ele>34.0</ele>
        <time>2022-01-08T12:26:50Z</time>
      </trkpt>
      <trkpt lat="36.7461020" lon="-3.7895860">
        <ele>34.0</ele>
        <time>2022-01-08T12:26:51Z</time>
      </trkpt>
      <trkpt lat="36.7461080" lon="-3.7896120">
        <ele>34.0</ele>
        <time>2022-01-08T12:26:52Z</time>
      </trkpt>
      <trkpt lat="36.7461080" lon="-3.7896120">
        <ele>34.0</ele>
        <time>2022-01-08T12:26:53Z</time>
      </trkpt>
      <trkpt lat="36.7461140" lon="-3.7896380">
        <ele>34.0</ele>
        <time>2022-01-08T12:26:54Z</time>
      </trkpt>
      <trkpt lat="36.7461140" lon="-3.7896380">
        <ele>34.0</ele>
        <time>2022-01-08T12:26:55Z</time>
      </trkpt>
      <trkpt lat="36.7461190" lon="-3.7896640">
        <ele>34.0</ele>
        <time>2022-01-08T12:26:56Z</time>
      </trkpt>
      <trkpt lat="36.7461190" lon="-3.7896640">
        <ele>33.0</ele>
        <time>2022-01-08T12:26:57Z</time>
      </trkpt>
      <trkpt lat="36.7461230" lon="-3.7896900">
        <ele>33.0</ele>
        <time>2022-01-08T12:26:58Z</time>
      </trkpt>
      <trkpt lat="36.7461230" lon="-3.7896900">
        <ele>33.0</ele>
        <time>2022-01-08T12:26:59Z</time>
      </trkpt>
      <trkpt lat="36.7461250" lon="-3.7897150">
        <ele>33.0</ele>
        <time>2022-01-08T12:27:00Z</time>
      </trkpt>
      <trkpt lat="36.7461250" lon="-3.7897150">
        <ele>33.0</ele>
        <time>2022-01-08T12:27:01Z</time>
      </trkpt>
      <trkpt lat="36.7461200" lon="-3.7897410">
        <ele>33.0</ele>
        <time>2022-01-08T12:27:02Z</time>
      </trkpt>
      <trkpt lat="36.7461200" lon="-3.7897410">
        <ele>32.0</ele>
        <time>2022-01-08T12:27:03Z</time>
      </trkpt>
      <trkpt lat="36.7461070" lon="-3.7897580">
        <ele>32.0</ele>
        <time>2022-01-08T12:27:04Z</time>
      </trkpt>
      <trkpt lat="36.7461070" lon="-3.7897580">
        <ele>32.0</ele>
        <time>2022-01-08T12:27:05Z</time>
      </trkpt>
      <trkpt lat="36.7460880" lon="-3.7897590">
        <ele>32.0</ele>
        <time>2022-01-08T12:27:06Z</time>
      </trkpt>
      <trkpt lat="36.7460880" lon="-3.7897590">
        <ele>31.0</ele>
        <time>2022-01-08T12:27:07Z</time>
      </trkpt>
      <trkpt lat="36.7460710" lon="-3.7897470">
        <ele>31.0</ele>
        <time>2022-01-08T12:27:08Z</time>
      </trkpt>
      <trkpt lat="36.7460710" lon="-3.7897470">
        <ele>31.0</ele>
        <time>2022-01-08T12:27:09Z</time>
      </trkpt>
      <trkpt lat="36.7460560" lon="-3.7897350">
        <ele>31.0</ele>
        <time>2022-01-08T12:27:10Z</time>
      </trkpt>
      <trkpt lat="36.7460560" lon="-3.7897350">
        <ele>30.0</ele>
        <time>2022-01-08T12:27:11Z</time>
      </trkpt>
      <trkpt lat="36.7460370" lon="-3.7897270">
        <ele>30.0</ele>
        <time>2022-01-08T12:27:12Z</time>
      </trkpt>
      <trkpt lat="36.7460370" lon="-3.7897270">
        <ele>30.0</ele>
        <time>2022-01-08T12:27:13Z</time>
      </trkpt>
      <trkpt lat="36.7460160" lon="-3.7897240">
        <ele>30.0</ele>
        <time>2022-01-08T12:27:14Z</time>
      </trkpt>
      <trkpt lat="36.7460160" lon="-3.7897240">
        <ele>29.0</ele>
        <time>2022-01-08T12:27:15Z</time>
      </trkpt>
      <trkpt lat="36.7459960" lon="-3.7897210">
        <ele>29.0</ele>
        <time>2022-01-08T12:27:16Z</time>
      </trkpt>
      <trkpt lat="36.7459960" lon="-3.7897210">
        <ele>29.0</ele>
        <time>2022-01-08T12:27:17Z</time>
      </trkpt>
      <trkpt lat="36.7459730" lon="-3.7897210">
        <ele>29.0</ele>
        <time>2022-01-08T12:27:18Z</time>
      </trkpt>
      <trkpt lat="36.7459730" lon="-3.7897210">
        <ele>29.0</ele>
        <time>2022-01-08T12:27:19Z</time>
      </trkpt>
      <trkpt lat="36.7459490" lon="-3.7897230">
        <ele>29.0</ele>
        <time>2022-01-08T12:27:20Z</time>
      </trkpt>
      <trkpt lat="36.7459490" lon="-3.7897230">
        <ele>29.0</ele>
        <time>2022-01-08T12:27:21Z</time>
      </trkpt>
      <trkpt lat="36.7459250" lon="-3.7897280">
        <ele>28.0</ele>
        <time>2022-01-08T12:27:22Z</time>
      </trkpt>
      <trkpt lat="36.7459250" lon="-3.7897280">
        <ele>28.0</ele>
        <time>2022-01-08T12:27:23Z</time>
      </trkpt>
      <trkpt lat="36.7459000" lon="-3.7897310">
        <ele>28.0</ele>
        <time>2022-01-08T12:27:24Z</time>
      </trkpt>
      <trkpt lat="36.7459000" lon="-3.7897310">
        <ele>28.0</ele>
        <time>2022-01-08T12:27:25Z</time>
      </trkpt>
      <trkpt lat="36.7459000" lon="-3.7897310">
        <ele>27.0</ele>
        <time>2022-01-08T12:27:26Z</time>
      </trkpt>
      <trkpt lat="36.7459000" lon="-3.7897310">
        <ele>27.0</ele>
        <time>2022-01-08T12:27:27Z</time>
      </trkpt>
      <trkpt lat="36.7458820" lon="-3.7897370">
        <ele>27.0</ele>
        <time>2022-01-08T12:27:28Z</time>
      </trkpt>
      <trkpt lat="36.7458820" lon="-3.7897370">
        <ele>27.0</ele>
        <time>2022-01-08T12:27:29Z</time>
      </trkpt>
      <trkpt lat="36.7458580" lon="-3.7897450">
        <ele>27.0</ele>
        <time>2022-01-08T12:27:30Z</time>
      </trkpt>
      <trkpt lat="36.7458580" lon="-3.7897450">
        <ele>28.0</ele>
        <time>2022-01-08T12:27:31Z</time>
      </trkpt>
      <trkpt lat="36.7458310" lon="-3.7897600">
        <ele>28.0</ele>
        <time>2022-01-08T12:27:32Z</time>
      </trkpt>
      <trkpt lat="36.7458310" lon="-3.7897600">
        <ele>27.0</ele>
        <time>2022-01-08T12:27:33Z</time>
      </trkpt>
      <trkpt lat="36.7458010" lon="-3.7897750">
        <ele>27.0</ele>
        <time>2022-01-08T12:27:34Z</time>
      </trkpt>
      <trkpt lat="36.7458010" lon="-3.7897750">
        <ele>27.0</ele>
        <time>2022-01-08T12:27:35Z</time>
      </trkpt>
      <trkpt lat="36.7457720" lon="-3.7897870">
        <ele>27.0</ele>
        <time>2022-01-08T12:27:36Z</time>
      </trkpt>
      <trkpt lat="36.7457720" lon="-3.7897870">
        <ele>27.0</ele>
        <time>2022-01-08T12:27:37Z</time>
      </trkpt>
      <trkpt lat="36.7457450" lon="-3.7898030">
        <ele>26.0</ele>
        <time>2022-01-08T12:27:38Z</time>
      </trkpt>
      <trkpt lat="36.7457450" lon="-3.7898030">
        <ele>26.0</ele>
        <time>2022-01-08T12:27:39Z</time>
      </trkpt>
      <trkpt lat="36.7457170" lon="-3.7898160">
        <ele>26.0</ele>
        <time>2022-01-08T12:27:40Z</time>
      </trkpt>
      <trkpt lat="36.7457170" lon="-3.7898160">
        <ele>25.0</ele>
        <time>2022-01-08T12:27:41Z</time>
      </trkpt>
      <trkpt lat="36.7456880" lon="-3.7898230">
        <ele>25.0</ele>
        <time>2022-01-08T12:27:42Z</time>
      </trkpt>
      <trkpt lat="36.7456880" lon="-3.7898230">
        <ele>24.0</ele>
        <time>2022-01-08T12:27:43Z</time>
      </trkpt>
      <trkpt lat="36.7456610" lon="-3.7898260">
        <ele>23.0</ele>
        <time>2022-01-08T12:27:44Z</time>
      </trkpt>
      <trkpt lat="36.7456610" lon="-3.7898260">
        <ele>23.0</ele>
        <time>2022-01-08T12:27:45Z</time>
      </trkpt>
      <trkpt lat="36.7456360" lon="-3.7898350">
        <ele>22.0</ele>
        <time>2022-01-08T12:27:46Z</time>
      </trkpt>
      <trkpt lat="36.7456360" lon="-3.7898350">
        <ele>21.0</ele>
        <time>2022-01-08T12:27:47Z</time>
      </trkpt>
      <trkpt lat="36.7456080" lon="-3.7898400">
        <ele>21.0</ele>
        <time>2022-01-08T12:27:48Z</time>
      </trkpt>
      <trkpt lat="36.7456080" lon="-3.7898400">
        <ele>18.0</ele>
        <time>2022-01-08T12:27:49Z</time>
      </trkpt>
      <trkpt lat="36.7455820" lon="-3.7898470">
        <ele>17.0</ele>
        <time>2022-01-08T12:27:50Z</time>
      </trkpt>
      <trkpt lat="36.7455820" lon="-3.7898470">
        <ele>17.0</ele>
        <time>2022-01-08T12:27:51Z</time>
      </trkpt>
      <trkpt lat="36.7455530" lon="-3.7898480">
        <ele>17.0</ele>
        <time>2022-01-08T12:27:52Z</time>
      </trkpt>
      <trkpt lat="36.7455530" lon="-3.7898480">
        <ele>16.0</ele>
        <time>2022-01-08T12:27:53Z</time>
      </trkpt>
      <trkpt lat="36.7455220" lon="-3.7898490">
        <ele>16.0</ele>
        <time>2022-01-08T12:27:54Z</time>
      </trkpt>
      <trkpt lat="36.7455220" lon="-3.7898490">
        <ele>16.0</ele>
        <time>2022-01-08T12:27:55Z</time>
      </trkpt>
      <trkpt lat="36.7454910" lon="-3.7898480">
        <ele>16.0</ele>
        <time>2022-01-08T12:27:56Z</time>
      </trkpt>
      <trkpt lat="36.7454910" lon="-3.7898480">
        <ele>15.0</ele>
        <time>2022-01-08T12:27:57Z</time>
      </trkpt>
      <trkpt lat="36.7454640" lon="-3.7898490">
        <ele>15.0</ele>
        <time>2022-01-08T12:27:58Z</time>
      </trkpt>
      <trkpt lat="36.7454640" lon="-3.7898490">
        <ele>14.0</ele>
        <time>2022-01-08T12:27:59Z</time>
      </trkpt>
      <trkpt lat="36.7454400" lon="-3.7898370">
        <ele>13.0</ele>
        <time>2022-01-08T12:28:00Z</time>
      </trkpt>
      <trkpt lat="36.7454400" lon="-3.7898370">
        <ele>13.0</ele>
        <time>2022-01-08T12:28:01Z</time>
      </trkpt>
      <trkpt lat="36.7454150" lon="-3.7898190">
        <ele>13.0</ele>
        <time>2022-01-08T12:28:02Z</time>
      </trkpt>
      <trkpt lat="36.7454150" lon="-3.7898190">
        <ele>13.0</ele>
        <time>2022-01-08T12:28:03Z</time>
      </trkpt>
      <trkpt lat="36.7453790" lon="-3.7898150">
        <ele>13.0</ele>
        <time>2022-01-08T12:28:04Z</time>
      </trkpt>
      <trkpt lat="36.7453790" lon="-3.7898150">
        <ele>13.0</ele>
        <time>2022-01-08T12:28:05Z</time>
      </trkpt>
      <trkpt lat="36.7453510" lon="-3.7898060">
        <ele>13.0</ele>
        <time>2022-01-08T12:28:06Z</time>
      </trkpt>
      <trkpt lat="36.7453510" lon="-3.7898060">
        <ele>13.0</ele>
        <time>2022-01-08T12:28:07Z</time>
      </trkpt>
      <trkpt lat="36.7453260" lon="-3.7897910">
        <ele>10.0</ele>
        <time>2022-01-08T12:28:08Z</time>
      </trkpt>
      <trkpt lat="36.7453260" lon="-3.7897910">
        <ele>10.0</ele>
        <time>2022-01-08T12:28:09Z</time>
      </trkpt>
      <trkpt lat="36.7453050" lon="-3.7897760">
        <ele>10.0</ele>
        <time>2022-01-08T12:28:10Z</time>
      </trkpt>
      <trkpt lat="36.7453050" lon="-3.7897760">
        <ele>10.0</ele>
        <time>2022-01-08T12:28:11Z</time>
      </trkpt>
      <trkpt lat="36.7452820" lon="-3.7897600">
        <ele>10.0</ele>
        <time>2022-01-08T12:28:12Z</time>
      </trkpt>
      <trkpt lat="36.7452820" lon="-3.7897600">
        <ele>10.0</ele>
        <time>2022-01-08T12:28:13Z</time>
      </trkpt>
      <trkpt lat="36.7452640" lon="-3.7897330">
        <ele>10.0</ele>
        <time>2022-01-08T12:28:14Z</time>
      </trkpt>
      <trkpt lat="36.7452640" lon="-3.7897330">
        <ele>10.0</ele>
        <time>2022-01-08T12:28:15Z</time>
      </trkpt>
      <trkpt lat="36.7452480" lon="-3.7897070">
        <ele>10.0</ele>
        <time>2022-01-08T12:28:16Z</time>
      </trkpt>
      <trkpt lat="36.7452480" lon="-3.7897070">
        <ele>10.0</ele>
        <time>2022-01-08T12:28:17Z</time>
      </trkpt>
      <trkpt lat="36.7452400" lon="-3.7896750">
        <ele>9.0</ele>
        <time>2022-01-08T12:28:18Z</time>
      </trkpt>
      <trkpt lat="36.7452400" lon="-3.7896750">
        <ele>9.0</ele>
        <time>2022-01-08T12:28:19Z</time>
      </trkpt>
      <trkpt lat="36.7452350" lon="-3.7896480">
        <ele>9.0</ele>
        <time>2022-01-08T12:28:20Z</time>
      </trkpt>
      <trkpt lat="36.7452350" lon="-3.7896480">
        <ele>9.0</ele>
        <time>2022-01-08T12:28:21Z</time>
      </trkpt>
      <trkpt lat="36.7452240" lon="-3.7896220">
        <ele>9.0</ele>
        <time>2022-01-08T12:28:22Z</time>
      </trkpt>
      <trkpt lat="36.7452240" lon="-3.7896220">
        <ele>9.0</ele>
        <time>2022-01-08T12:28:23Z</time>
      </trkpt>
      <trkpt lat="36.7452170" lon="-3.7895910">
        <ele>9.0</ele>
        <time>2022-01-08T12:28:24Z</time>
      </trkpt>
      <trkpt lat="36.7452170" lon="-3.7895910">
        <ele>9.0</ele>
        <time>2022-01-08T12:28:25Z</time>
      </trkpt>
      <trkpt lat="36.7452040" lon="-3.7895610">
        <ele>9.0</ele>
        <time>2022-01-08T12:28:26Z</time>
      </trkpt>
      <trkpt lat="36.7452040" lon="-3.7895610">
        <ele>9.0</ele>
        <time>2022-01-08T12:28:27Z</time>
      </trkpt>
      <trkpt lat="36.7451880" lon="-3.7895390">
        <ele>8.0</ele>
        <time>2022-01-08T12:28:28Z</time>
      </trkpt>
      <trkpt lat="36.7451880" lon="-3.7895390">
        <ele>8.0</ele>
        <time>2022-01-08T12:28:29Z</time>
      </trkpt>
      <trkpt lat="36.7451740" lon="-3.7895170">
        <ele>9.0</ele>
        <time>2022-01-08T12:28:30Z</time>
      </trkpt>
      <trkpt lat="36.7451740" lon="-3.7895170">
        <ele>9.0</ele>
        <time>2022-01-08T12:28:31Z</time>
      </trkpt>
      <trkpt lat="36.7451530" lon="-3.7894990">
        <ele>10.0</ele>
        <time>2022-01-08T12:28:32Z</time>
      </trkpt>
      <trkpt lat="36.7451530" lon="-3.7894990">
        <ele>10.0</ele>
        <time>2022-01-08T12:28:33Z</time>
      </trkpt>
      <trkpt lat="36.7451350" lon="-3.7894870">
        <ele>10.0</ele>
        <time>2022-01-08T12:28:34Z</time>
      </trkpt>
      <trkpt lat="36.7451350" lon="-3.7894870">
        <ele>10.0</ele>
        <time>2022-01-08T12:28:35Z</time>
      </trkpt>
      <trkpt lat="36.7451260" lon="-3.7894640">
        <ele>10.0</ele>
        <time>2022-01-08T12:28:36Z</time>
      </trkpt>
      <trkpt lat="36.7451260" lon="-3.7894640">
        <ele>10.0</ele>
        <time>2022-01-08T12:28:37Z</time>
      </trkpt>
      <trkpt lat="36.7451030" lon="-3.7894520">
        <ele>11.0</ele>
        <time>2022-01-08T12:28:38Z</time>
      </trkpt>
      <trkpt lat="36.7451030" lon="-3.7894520">
        <ele>12.0</ele>
        <time>2022-01-08T12:28:39Z</time>
      </trkpt>
      <trkpt lat="36.7450730" lon="-3.7894420">
        <ele>12.0</ele>
        <time>2022-01-08T12:28:40Z</time>
      </trkpt>
      <trkpt lat="36.7450730" lon="-3.7894420">
        <ele>12.0</ele>
        <time>2022-01-08T12:28:41Z</time>
      </trkpt>
      <trkpt lat="36.7450560" lon="-3.7894350">
        <ele>11.0</ele>
        <time>2022-01-08T12:28:42Z</time>
      </trkpt>
      <trkpt lat="36.7450560" lon="-3.7894350">
        <ele>11.0</ele>
        <time>2022-01-08T12:28:43Z</time>
      </trkpt>
      <trkpt lat="36.7450290" lon="-3.7894290">
        <ele>11.0</ele>
        <time>2022-01-08T12:28:44Z</time>
      </trkpt>
      <trkpt lat="36.7450290" lon="-3.7894290">
        <ele>11.0</ele>
        <time>2022-01-08T12:28:45Z</time>
      </trkpt>
      <trkpt lat="36.7450020" lon="-3.7894180">
        <ele>10.0</ele>
        <time>2022-01-08T12:28:46Z</time>
      </trkpt>
      <trkpt lat="36.7450020" lon="-3.7894180">
        <ele>9.0</ele>
        <time>2022-01-08T12:28:47Z</time>
      </trkpt>
      <trkpt lat="36.7449790" lon="-3.7894050">
        <ele>9.0</ele>
        <time>2022-01-08T12:28:48Z</time>
      </trkpt>
      <trkpt lat="36.7449790" lon="-3.7894050">
        <ele>9.0</ele>
        <time>2022-01-08T12:28:49Z</time>
      </trkpt>
      <trkpt lat="36.7449560" lon="-3.7893930">
        <ele>9.0</ele>
        <time>2022-01-08T12:28:50Z</time>
      </trkpt>
      <trkpt lat="36.7449560" lon="-3.7893930">
        <ele>9.0</ele>
        <time>2022-01-08T12:28:51Z</time>
      </trkpt>
      <trkpt lat="36.7449320" lon="-3.7893870">
        <ele>9.0</ele>
        <time>2022-01-08T12:28:52Z</time>
      </trkpt>
      <trkpt lat="36.7449320" lon="-3.7893870">
        <ele>8.0</ele>
        <time>2022-01-08T12:28:53Z</time>
      </trkpt>
      <trkpt lat="36.7449080" lon="-3.7893770">
        <ele>8.0</ele>
        <time>2022-01-08T12:28:54Z</time>
      </trkpt>
      <trkpt lat="36.7449080" lon="-3.7893770">
        <ele>7.0</ele>
        <time>2022-01-08T12:28:55Z</time>
      </trkpt>
      <trkpt lat="36.7448900" lon="-3.7893650">
        <ele>6.0</ele>
        <time>2022-01-08T12:28:56Z</time>
      </trkpt>
      <trkpt lat="36.7448900" lon="-3.7893650">
        <ele>6.0</ele>
        <time>2022-01-08T12:28:57Z</time>
      </trkpt>
      <trkpt lat="36.7448900" lon="-3.7893650">
        <ele>5.0</ele>
        <time>2022-01-08T12:28:58Z</time>
      </trkpt>
      <trkpt lat="36.7448660" lon="-3.7893490">
        <ele>5.0</ele>
        <time>2022-01-08T12:28:59Z</time>
      </trkpt>
      <trkpt lat="36.7448660" lon="-3.7893490">
        <ele>4.0</ele>
        <time>2022-01-08T12:29:00Z</time>
      </trkpt>
      <trkpt lat="36.7448660" lon="-3.7893490">
        <ele>4.0</ele>
        <time>2022-01-08T12:29:01Z</time>
      </trkpt>
      <trkpt lat="36.7448450" lon="-3.7893270">
        <ele>4.0</ele>
        <time>2022-01-08T12:29:02Z</time>
      </trkpt>
      <trkpt lat="36.7448450" lon="-3.7893270">
        <ele>4.0</ele>
        <time>2022-01-08T12:29:03Z</time>
      </trkpt>
      <trkpt lat="36.7448280" lon="-3.7893170">
        <ele>4.0</ele>
        <time>2022-01-08T12:29:04Z</time>
      </trkpt>
      <trkpt lat="36.7448280" lon="-3.7893170">
        <ele>4.0</ele>
        <time>2022-01-08T12:29:05Z</time>
      </trkpt>
      <trkpt lat="36.7448280" lon="-3.7893170">
        <ele>3.0</ele>
        <time>2022-01-08T12:29:06Z</time>
      </trkpt>
      <trkpt lat="36.7448070" lon="-3.7892940">
        <ele>3.0</ele>
        <time>2022-01-08T12:29:07Z</time>
      </trkpt>
      <trkpt lat="36.7448070" lon="-3.7892940">
        <ele>3.0</ele>
        <time>2022-01-08T12:29:08Z</time>
      </trkpt>
      <trkpt lat="36.7447920" lon="-3.7892810">
        <ele>3.0</ele>
        <time>2022-01-08T12:29:09Z</time>
      </trkpt>
      <trkpt lat="36.7447920" lon="-3.7892810">
        <ele>3.0</ele>
        <time>2022-01-08T12:29:10Z</time>
      </trkpt>
      <trkpt lat="36.7447750" lon="-3.7892660">
        <ele>2.0</ele>
        <time>2022-01-08T12:29:11Z</time>
      </trkpt>
      <trkpt lat="36.7447750" lon="-3.7892660">
        <ele>1.0</ele>
        <time>2022-01-08T12:29:12Z</time>
      </trkpt>
      <trkpt lat="36.7447550" lon="-3.7892550">
        <ele>1.0</ele>
        <time>2022-01-08T12:29:13Z</time>
      </trkpt>
      <trkpt lat="36.7447550" lon="-3.7892550">
        <ele>0.0</ele>
        <time>2022-01-08T12:29:14Z</time>
      </trkpt>
      <trkpt lat="36.7447550" lon="-3.7892550">
        <ele>0.0</ele>
        <time>2022-01-08T12:29:15Z</time>
      </trkpt>
      <trkpt lat="36.7447550" lon="-3.7892550">
        <ele>0.0</ele>
        <time>2022-01-08T12:29:16Z</time>
      </trkpt>
      <trkpt lat="36.7447550" lon="-3.7892550">
        <ele>-1.0</ele>
        <time>2022-01-08T12:29:17Z</time>
      </trkpt>
      <trkpt lat="36.7447550" lon="-3.7892550">
        <ele>-2.0</ele>
        <time>2022-01-08T12:29:18Z</time>
      </trkpt>
      <trkpt lat="36.7447550" lon="-3.7892550">
        <ele>-2.0</ele>
        <time>2022-01-08T12:29:19Z</time>
      </trkpt>
      <trkpt lat="36.7447550" lon="-3.7892550">
        <ele>-2.0</ele>
        <time>2022-01-08T12:29:20Z</time>
      </trkpt>
      <trkpt lat="36.7447550" lon="-3.7892550">
        <ele>-1.0</ele>
        <time>2022-01-08T12:29:21Z</time>
      </trkpt>
      <trkpt lat="36.7447550" lon="-3.7892550">
        <ele>-1.0</ele>
        <time>2022-01-08T12:29:22Z</time>
      </trkpt>
      <trkpt lat="36.7447550" lon="-3.7892550">
        <ele>-1.0</ele>
        <time>2022-01-08T12:29:23Z</time>
      </trkpt>
      <trkpt lat="36.7447550" lon="-3.7892550">
        <ele>0.0</ele>
        <time>2022-01-08T12:29:24Z</time>
      </trkpt>
      <trkpt lat="36.7447550" lon="-3.7892550">
        <ele>0.0</ele>
        <time>2022-01-08T12:29:25Z</time>
      </trkpt>
      <trkpt lat="36.7447550" lon="-3.7892550">
        <ele>0.0</ele>
        <time>2022-01-08T12:29:26Z</time>
      </trkpt>
      <trkpt lat="36.7447550" lon="-3.7892550">
        <ele>1.0</ele>
        <time>2022-01-08T12:29:27Z</time>
      </trkpt>
      <trkpt lat="36.7447550" lon="-3.7892550">
        <ele>2.0</ele>
        <time>2022-01-08T12:29:28Z</time>
      </trkpt>
      <trkpt lat="36.7448630" lon="-3.7893180">
        <ele>0.0</ele>
        <time>2022-01-08T12:38:55Z</time>
      </trkpt>
      <trkpt lat="36.7448750" lon="-3.7893320">
        <ele>0.0</ele>
        <time>2022-01-08T12:38:56Z</time>
      </trkpt>
      <trkpt lat="36.7448750" lon="-3.7893320">
        <ele>0.0</ele>
        <time>2022-01-08T12:38:57Z</time>
      </trkpt>
      <trkpt lat="36.7448750" lon="-3.7893320">
        <ele>0.0</ele>
        <time>2022-01-08T12:38:58Z</time>
      </trkpt>
      <trkpt lat="36.7448950" lon="-3.7893570">
        <ele>0.0</ele>
        <time>2022-01-08T12:38:59Z</time>
      </trkpt>
      <trkpt lat="36.7448950" lon="-3.7893570">
        <ele>-1.0</ele>
        <time>2022-01-08T12:39:00Z</time>
      </trkpt>
      <trkpt lat="36.7449070" lon="-3.7893780">
        <ele>-1.0</ele>
        <time>2022-01-08T12:39:01Z</time>
      </trkpt>
      <trkpt lat="36.7449070" lon="-3.7893780">
        <ele>-1.0</ele>
        <time>2022-01-08T12:39:02Z</time>
      </trkpt>
      <trkpt lat="36.7449190" lon="-3.7893960">
        <ele>-1.0</ele>
        <time>2022-01-08T12:39:03Z</time>
      </trkpt>
      <trkpt lat="36.7449190" lon="-3.7893960">
        <ele>-2.0</ele>
        <time>2022-01-08T12:39:04Z</time>
      </trkpt>
      <trkpt lat="36.7449390" lon="-3.7894110">
        <ele>-2.0</ele>
        <time>2022-01-08T12:39:05Z</time>
      </trkpt>
      <trkpt lat="36.7449390" lon="-3.7894110">
        <ele>-2.0</ele>
        <time>2022-01-08T12:39:06Z</time>
      </trkpt>
      <trkpt lat="36.7449580" lon="-3.7894310">
        <ele>-2.0</ele>
        <time>2022-01-08T12:39:07Z</time>
      </trkpt>
      <trkpt lat="36.7449580" lon="-3.7894310">
        <ele>-2.0</ele>
        <time>2022-01-08T12:39:08Z</time>
      </trkpt>
      <trkpt lat="36.7449710" lon="-3.7894480">
        <ele>-2.0</ele>
        <time>2022-01-08T12:39:09Z</time>
      </trkpt>
      <trkpt lat="36.7449710" lon="-3.7894480">
        <ele>-2.0</ele>
        <time>2022-01-08T12:39:10Z</time>
      </trkpt>
      <trkpt lat="36.7449900" lon="-3.7894650">
        <ele>-2.0</ele>
        <time>2022-01-08T12:39:11Z</time>
      </trkpt>
      <trkpt lat="36.7449900" lon="-3.7894650">
        <ele>-3.0</ele>
        <time>2022-01-08T12:39:12Z</time>
      </trkpt>
      <trkpt lat="36.7450100" lon="-3.7894830">
        <ele>-3.0</ele>
        <time>2022-01-08T12:39:13Z</time>
      </trkpt>
      <trkpt lat="36.7450100" lon="-3.7894830">
        <ele>-3.0</ele>
        <time>2022-01-08T12:39:14Z</time>
      </trkpt>
      <trkpt lat="36.7450300" lon="-3.7895040">
        <ele>-3.0</ele>
        <time>2022-01-08T12:39:15Z</time>
      </trkpt>
      <trkpt lat="36.7450300" lon="-3.7895040">
        <ele>-3.0</ele>
        <time>2022-01-08T12:39:16Z</time>
      </trkpt>
      <trkpt lat="36.7450400" lon="-3.7895310">
        <ele>-5.0</ele>
        <time>2022-01-08T12:39:17Z</time>
      </trkpt>
      <trkpt lat="36.7450400" lon="-3.7895310">
        <ele>-6.0</ele>
        <time>2022-01-08T12:39:18Z</time>
      </trkpt>
      <trkpt lat="36.7450490" lon="-3.7895580">
        <ele>-7.0</ele>
        <time>2022-01-08T12:39:19Z</time>
      </trkpt>
      <trkpt lat="36.7450490" lon="-3.7895580">
        <ele>-7.0</ele>
        <time>2022-01-08T12:39:20Z</time>
      </trkpt>
      <trkpt lat="36.7450660" lon="-3.7895830">
        <ele>-7.0</ele>
        <time>2022-01-08T12:39:21Z</time>
      </trkpt>
      <trkpt lat="36.7450660" lon="-3.7895830">
        <ele>-7.0</ele>
        <time>2022-01-08T12:39:22Z</time>
      </trkpt>
      <trkpt lat="36.7450840" lon="-3.7896050">
        <ele>-7.0</ele>
        <time>2022-01-08T12:39:23Z</time>
      </trkpt>
      <trkpt lat="36.7450840" lon="-3.7896050">
        <ele>-7.0</ele>
        <time>2022-01-08T12:39:24Z</time>
      </trkpt>
      <trkpt lat="36.7451030" lon="-3.7896220">
        <ele>-7.0</ele>
        <time>2022-01-08T12:39:25Z</time>
      </trkpt>
      <trkpt lat="36.7451030" lon="-3.7896220">
        <ele>-8.0</ele>
        <time>2022-01-08T12:39:26Z</time>
      </trkpt>
      <trkpt lat="36.7451180" lon="-3.7896340">
        <ele>-8.0</ele>
        <time>2022-01-08T12:39:27Z</time>
      </trkpt>
      <trkpt lat="36.7451180" lon="-3.7896340">
        <ele>-9.0</ele>
        <time>2022-01-08T12:39:28Z</time>
      </trkpt>
      <trkpt lat="36.7451370" lon="-3.7896470">
        <ele>-10.0</ele>
        <time>2022-01-08T12:39:29Z</time>
      </trkpt>
      <trkpt lat="36.7451370" lon="-3.7896470">
        <ele>-10.0</ele>
        <time>2022-01-08T12:39:30Z</time>
      </trkpt>
      <trkpt lat="36.7451630" lon="-3.7896610">
        <ele>-10.0</ele>
        <time>2022-01-08T12:39:31Z</time>
      </trkpt>
      <trkpt lat="36.7451630" lon="-3.7896610">
        <ele>-11.0</ele>
        <time>2022-01-08T12:39:32Z</time>
      </trkpt>
      <trkpt lat="36.7451830" lon="-3.7896800">
        <ele>-11.0</ele>
        <time>2022-01-08T12:39:33Z</time>
      </trkpt>
      <trkpt lat="36.7451830" lon="-3.7896800">
        <ele>-12.0</ele>
        <time>2022-01-08T12:39:34Z</time>
      </trkpt>
      <trkpt lat="36.7452000" lon="-3.7897020">
        <ele>-12.0</ele>
        <time>2022-01-08T12:39:35Z</time>
      </trkpt>
      <trkpt lat="36.7452000" lon="-3.7897020">
        <ele>-13.0</ele>
        <time>2022-01-08T12:39:36Z</time>
      </trkpt>
      <trkpt lat="36.7452080" lon="-3.7897250">
        <ele>-14.0</ele>
        <time>2022-01-08T12:39:37Z</time>
      </trkpt>
      <trkpt lat="36.7452080" lon="-3.7897250">
        <ele>-14.0</ele>
        <time>2022-01-08T12:39:38Z</time>
      </trkpt>
      <trkpt lat="36.7452230" lon="-3.7897420">
        <ele>-15.0</ele>
        <time>2022-01-08T12:39:39Z</time>
      </trkpt>
      <trkpt lat="36.7452230" lon="-3.7897420">
        <ele>-15.0</ele>
        <time>2022-01-08T12:39:40Z</time>
      </trkpt>
      <trkpt lat="36.7452450" lon="-3.7897610">
        <ele>-16.0</ele>
        <time>2022-01-08T12:39:41Z</time>
      </trkpt>
      <trkpt lat="36.7452450" lon="-3.7897610">
        <ele>-16.0</ele>
        <time>2022-01-08T12:39:42Z</time>
      </trkpt>
      <trkpt lat="36.7452690" lon="-3.7897740">
        <ele>-16.0</ele>
        <time>2022-01-08T12:39:43Z</time>
      </trkpt>
      <trkpt lat="36.7452690" lon="-3.7897740">
        <ele>-16.0</ele>
        <time>2022-01-08T12:39:44Z</time>
      </trkpt>
      <trkpt lat="36.7452910" lon="-3.7897820">
        <ele>-17.0</ele>
        <time>2022-01-08T12:39:45Z</time>
      </trkpt>
      <trkpt lat="36.7452910" lon="-3.7897820">
        <ele>-18.0</ele>
        <time>2022-01-08T12:39:46Z</time>
      </trkpt>
      <trkpt lat="36.7453170" lon="-3.7897900">
        <ele>-18.0</ele>
        <time>2022-01-08T12:39:47Z</time>
      </trkpt>
      <trkpt lat="36.7453170" lon="-3.7897900">
        <ele>-18.0</ele>
        <time>2022-01-08T12:39:48Z</time>
      </trkpt>
      <trkpt lat="36.7453430" lon="-3.7898000">
        <ele>-18.0</ele>
        <time>2022-01-08T12:39:49Z</time>
      </trkpt>
      <trkpt lat="36.7453430" lon="-3.7898000">
        <ele>-18.0</ele>
        <time>2022-01-08T12:39:50Z</time>
      </trkpt>
      <trkpt lat="36.7453670" lon="-3.7898170">
        <ele>-18.0</ele>
        <time>2022-01-08T12:39:51Z</time>
      </trkpt>
      <trkpt lat="36.7453670" lon="-3.7898170">
        <ele>-18.0</ele>
        <time>2022-01-08T12:39:52Z</time>
      </trkpt>
      <trkpt lat="36.7453900" lon="-3.7898360">
        <ele>-17.0</ele>
        <time>2022-01-08T12:39:53Z</time>
      </trkpt>
      <trkpt lat="36.7453900" lon="-3.7898360">
        <ele>-17.0</ele>
        <time>2022-01-08T12:39:54Z</time>
      </trkpt>
      <trkpt lat="36.7454130" lon="-3.7898550">
        <ele>-17.0</ele>
        <time>2022-01-08T12:39:55Z</time>
      </trkpt>
      <trkpt lat="36.7454130" lon="-3.7898550">
        <ele>-17.0</ele>
        <time>2022-01-08T12:39:56Z</time>
      </trkpt>
      <trkpt lat="36.7454390" lon="-3.7898640">
        <ele>-17.0</ele>
        <time>2022-01-08T12:39:57Z</time>
      </trkpt>
      <trkpt lat="36.7454390" lon="-3.7898640">
        <ele>-17.0</ele>
        <time>2022-01-08T12:39:58Z</time>
      </trkpt>
      <trkpt lat="36.7454630" lon="-3.7898740">
        <ele>-16.0</ele>
        <time>2022-01-08T12:39:59Z</time>
      </trkpt>
      <trkpt lat="36.7454630" lon="-3.7898740">
        <ele>-16.0</ele>
        <time>2022-01-08T12:40:00Z</time>
      </trkpt>
      <trkpt lat="36.7454790" lon="-3.7898870">
        <ele>-16.0</ele>
        <time>2022-01-08T12:40:01Z</time>
      </trkpt>
      <trkpt lat="36.7454790" lon="-3.7898870">
        <ele>-16.0</ele>
        <time>2022-01-08T12:40:02Z</time>
      </trkpt>
      <trkpt lat="36.7454790" lon="-3.7898870">
        <ele>-16.0</ele>
        <time>2022-01-08T12:40:03Z</time>
      </trkpt>
      <trkpt lat="36.7455080" lon="-3.7899020">
        <ele>-16.0</ele>
        <time>2022-01-08T12:40:04Z</time>
      </trkpt>
      <trkpt lat="36.7455080" lon="-3.7899020">
        <ele>-16.0</ele>
        <time>2022-01-08T12:40:05Z</time>
      </trkpt>
      <trkpt lat="36.7455260" lon="-3.7899150">
        <ele>-16.0</ele>
        <time>2022-01-08T12:40:06Z</time>
      </trkpt>
      <trkpt lat="36.7455260" lon="-3.7899150">
        <ele>-15.0</ele>
        <time>2022-01-08T12:40:07Z</time>
      </trkpt>
      <trkpt lat="36.7455260" lon="-3.7899150">
        <ele>-15.0</ele>
        <time>2022-01-08T12:40:08Z</time>
      </trkpt>
      <trkpt lat="36.7455390" lon="-3.7899330">
        <ele>-15.0</ele>
        <time>2022-01-08T12:40:09Z</time>
      </trkpt>
      <trkpt lat="36.7455390" lon="-3.7899330">
        <ele>-15.0</ele>
        <time>2022-01-08T12:40:10Z</time>
      </trkpt>
      <trkpt lat="36.7455390" lon="-3.7899330">
        <ele>-15.0</ele>
        <time>2022-01-08T12:40:11Z</time>
      </trkpt>
      <trkpt lat="36.7455490" lon="-3.7899560">
        <ele>-16.0</ele>
        <time>2022-01-08T12:40:12Z</time>
      </trkpt>
      <trkpt lat="36.7455490" lon="-3.7899560">
        <ele>-16.0</ele>
        <time>2022-01-08T12:40:13Z</time>
      </trkpt>
      <trkpt lat="36.7455490" lon="-3.7899560">
        <ele>-16.0</ele>
        <time>2022-01-08T12:40:14Z</time>
      </trkpt>
      <trkpt lat="36.7455690" lon="-3.7899740">
        <ele>-17.0</ele>
        <time>2022-01-08T12:40:15Z</time>
      </trkpt>
      <trkpt lat="36.7455690" lon="-3.7899740">
        <ele>-17.0</ele>
        <time>2022-01-08T12:40:16Z</time>
      </trkpt>
      <trkpt lat="36.7455690" lon="-3.7899740">
        <ele>-17.0</ele>
        <time>2022-01-08T12:40:17Z</time>
      </trkpt>
      <trkpt lat="36.7455780" lon="-3.7899970">
        <ele>-17.0</ele>
        <time>2022-01-08T12:40:18Z</time>
      </trkpt>
      <trkpt lat="36.7455780" lon="-3.7899970">
        <ele>-17.0</ele>
        <time>2022-01-08T12:40:19Z</time>
      </trkpt>
      <trkpt lat="36.7455780" lon="-3.7899970">
        <ele>-17.0</ele>
        <time>2022-01-08T12:40:20Z</time>
      </trkpt>
      <trkpt lat="36.7455780" lon="-3.7899970">
        <ele>-17.0</ele>
        <time>2022-01-08T12:40:21Z</time>
      </trkpt>
      <trkpt lat="36.7455780" lon="-3.7899970">
        <ele>-16.0</ele>
        <time>2022-01-08T12:40:22Z</time>
      </trkpt>
      <trkpt lat="36.7455780" lon="-3.7899970">
        <ele>-16.0</ele>
        <time>2022-01-08T12:40:23Z</time>
      </trkpt>
      <trkpt lat="36.7455820" lon="-3.7900230">
        <ele>-16.0</ele>
        <time>2022-01-08T12:40:24Z</time>
      </trkpt>
      <trkpt lat="36.7455820" lon="-3.7900230">
        <ele>-16.0</ele>
        <time>2022-01-08T12:40:25Z</time>
      </trkpt>
      <trkpt lat="36.7455820" lon="-3.7900230">
        <ele>-16.0</ele>
        <time>2022-01-08T12:40:26Z</time>
      </trkpt>
      <trkpt lat="36.7455820" lon="-3.7900230">
        <ele>-16.0</ele>
        <time>2022-01-08T12:40:27Z</time>
      </trkpt>
      <trkpt lat="36.7455820" lon="-3.7900230">
        <ele>-15.0</ele>
        <time>2022-01-08T12:40:28Z</time>
      </trkpt>
      <trkpt lat="36.7455820" lon="-3.7900230">
        <ele>-14.0</ele>
        <time>2022-01-08T12:40:29Z</time>
      </trkpt>
      <trkpt lat="36.7455820" lon="-3.7900230">
        <ele>-14.0</ele>
        <time>2022-01-08T12:40:30Z</time>
      </trkpt>
      <trkpt lat="36.7455820" lon="-3.7900230">
        <ele>-14.0</ele>
        <time>2022-01-08T12:40:31Z</time>
      </trkpt>
      <trkpt lat="36.7455820" lon="-3.7900230">
        <ele>-14.0</ele>
        <time>2022-01-08T12:40:32Z</time>
      </trkpt>
      <trkpt lat="36.7455820" lon="-3.7900230">
        <ele>-14.0</ele>
        <time>2022-01-08T12:40:33Z</time>
      </trkpt>
      <trkpt lat="36.7455820" lon="-3.7900230">
        <ele>-13.0</ele>
        <time>2022-01-08T12:40:34Z</time>
      </trkpt>
      <trkpt lat="36.7455820" lon="-3.7900230">
        <ele>-12.0</ele>
        <time>2022-01-08T12:40:35Z</time>
      </trkpt>
      <trkpt lat="36.7455820" lon="-3.7900230">
        <ele>-11.0</ele>
        <time>2022-01-08T12:40:36Z</time>
      </trkpt>
      <trkpt lat="36.7455910" lon="-3.7900430">
        <ele>-11.0</ele>
        <time>2022-01-08T12:40:37Z</time>
      </trkpt>
      <trkpt lat="36.7455910" lon="-3.7900430">
        <ele>-11.0</ele>
        <time>2022-01-08T12:40:38Z</time>
      </trkpt>
      <trkpt lat="36.7455910" lon="-3.7900430">
        <ele>-11.0</ele>
        <time>2022-01-08T12:40:39Z</time>
      </trkpt>
      <trkpt lat="36.7455910" lon="-3.7900430">
        <ele>-11.0</ele>
        <time>2022-01-08T12:40:40Z</time>
      </trkpt>
      <trkpt lat="36.7455910" lon="-3.7900430">
        <ele>-11.0</ele>
        <time>2022-01-08T12:40:41Z</time>
      </trkpt>
      <trkpt lat="36.7456000" lon="-3.7900660">
        <ele>-10.0</ele>
        <time>2022-01-08T12:40:42Z</time>
      </trkpt>
      <trkpt lat="36.7456000" lon="-3.7900660">
        <ele>-10.0</ele>
        <time>2022-01-08T12:40:43Z</time>
      </trkpt>
      <trkpt lat="36.7456000" lon="-3.7900660">
        <ele>-10.0</ele>
        <time>2022-01-08T12:40:44Z</time>
      </trkpt>
      <trkpt lat="36.7456000" lon="-3.7900660">
        <ele>-10.0</ele>
        <time>2022-01-08T12:40:45Z</time>
      </trkpt>
      <trkpt lat="36.7456000" lon="-3.7900660">
        <ele>-10.0</ele>
        <time>2022-01-08T12:40:46Z</time>
      </trkpt>
      <trkpt lat="36.7456130" lon="-3.7900890">
        <ele>-10.0</ele>
        <time>2022-01-08T12:40:47Z</time>
      </trkpt>
      <trkpt lat="36.7456130" lon="-3.7900890">
        <ele>-10.0</ele>
        <time>2022-01-08T12:40:48Z</time>
      </trkpt>
      <trkpt lat="36.7456130" lon="-3.7900890">
        <ele>-10.0</ele>
        <time>2022-01-08T12:40:49Z</time>
      </trkpt>
      <trkpt lat="36.7456130" lon="-3.7900890">
        <ele>-10.0</ele>
        <time>2022-01-08T12:40:50Z</time>
      </trkpt>
      <trkpt lat="36.7456130" lon="-3.7900890">
        <ele>-10.0</ele>
        <time>2022-01-08T12:40:51Z</time>
      </trkpt>
      <trkpt lat="36.7456130" lon="-3.7900890">
        <ele>-10.0</ele>
        <time>2022-01-08T12:40:52Z</time>
      </trkpt>
      <trkpt lat="36.7456130" lon="-3.7900890">
        <ele>-9.0</ele>
        <time>2022-01-08T12:40:53Z</time>
      </trkpt>
      <trkpt lat="36.7456130" lon="-3.7900890">
        <ele>-9.0</ele>
        <time>2022-01-08T12:40:54Z</time>
      </trkpt>
      <trkpt lat="36.7456130" lon="-3.7900890">
        <ele>-9.0</ele>
        <time>2022-01-08T12:40:55Z</time>
      </trkpt>
      <trkpt lat="36.7456130" lon="-3.7900890">
        <ele>-8.0</ele>
        <time>2022-01-08T12:40:56Z</time>
      </trkpt>
      <trkpt lat="36.7456130" lon="-3.7900890">
        <ele>-8.0</ele>
        <time>2022-01-08T12:40:57Z</time>
      </trkpt>
      <trkpt lat="36.7456130" lon="-3.7900890">
        <ele>-8.0</ele>
        <time>2022-01-08T12:40:58Z</time>
      </trkpt>
      <trkpt lat="36.7456130" lon="-3.7900890">
        <ele>-8.0</ele>
        <time>2022-01-08T12:40:59Z</time>
      </trkpt>
      <trkpt lat="36.7455970" lon="-3.7900800">
        <ele>-8.0</ele>
        <time>2022-01-08T12:41:00Z</time>
      </trkpt>
      <trkpt lat="36.7455970" lon="-3.7900800">
        <ele>-8.0</ele>
        <time>2022-01-08T12:41:01Z</time>
      </trkpt>
      <trkpt lat="36.7455970" lon="-3.7900800">
        <ele>-8.0</ele>
        <time>2022-01-08T12:41:02Z</time>
      </trkpt>
      <trkpt lat="36.7455970" lon="-3.7900800">
        <ele>-8.0</ele>
        <time>2022-01-08T12:41:03Z</time>
      </trkpt>
      <trkpt lat="36.7455970" lon="-3.7900800">
        <ele>-8.0</ele>
        <time>2022-01-08T12:41:04Z</time>
      </trkpt>
      <trkpt lat="36.7456030" lon="-3.7900580">
        <ele>-8.0</ele>
        <time>2022-01-08T12:41:05Z</time>
      </trkpt>
      <trkpt lat="36.7456030" lon="-3.7900580">
        <ele>-8.0</ele>
        <time>2022-01-08T12:41:06Z</time>
      </trkpt>
      <trkpt lat="36.7456030" lon="-3.7900580">
        <ele>-7.0</ele>
        <time>2022-01-08T12:41:07Z</time>
      </trkpt>
      <trkpt lat="36.7456030" lon="-3.7900580">
        <ele>-6.0</ele>
        <time>2022-01-08T12:41:08Z</time>
      </trkpt>
      <trkpt lat="36.7456030" lon="-3.7900580">
        <ele>-6.0</ele>
        <time>2022-01-08T12:41:09Z</time>
      </trkpt>
      <trkpt lat="36.7456030" lon="-3.7900580">
        <ele>-6.0</ele>
        <time>2022-01-08T12:41:10Z</time>
      </trkpt>
      <trkpt lat="36.7456030" lon="-3.7900580">
        <ele>-5.0</ele>
        <time>2022-01-08T12:41:11Z</time>
      </trkpt>
      <trkpt lat="36.7456030" lon="-3.7900580">
        <ele>-4.0</ele>
        <time>2022-01-08T12:41:12Z</time>
      </trkpt>
      <trkpt lat="36.7456030" lon="-3.7900580">
        <ele>-4.0</ele>
        <time>2022-01-08T12:41:13Z</time>
      </trkpt>
      <trkpt lat="36.7456030" lon="-3.7900580">
        <ele>-4.0</ele>
        <time>2022-01-08T12:41:14Z</time>
      </trkpt>
      <trkpt lat="36.7456030" lon="-3.7900580">
        <ele>-4.0</ele>
        <time>2022-01-08T12:41:15Z</time>
      </trkpt>
      <trkpt lat="36.7456030" lon="-3.7900580">
        <ele>-5.0</ele>
        <time>2022-01-08T12:41:16Z</time>
      </trkpt>
      <trkpt lat="36.7456030" lon="-3.7900580">
        <ele>-5.0</ele>
        <time>2022-01-08T12:41:17Z</time>
      </trkpt>
      <trkpt lat="36.7456030" lon="-3.7900580">
        <ele>-5.0</ele>
        <time>2022-01-08T12:41:18Z</time>
      </trkpt>
      <trkpt lat="36.7456030" lon="-3.7900580">
        <ele>-5.0</ele>
        <time>2022-01-08T12:41:19Z</time>
      </trkpt>
      <trkpt lat="36.7456030" lon="-3.7900580">
        <ele>-5.0</ele>
        <time>2022-01-08T12:41:20Z</time>
      </trkpt>
      <trkpt lat="36.7456030" lon="-3.7900580">
        <ele>-5.0</ele>
        <time>2022-01-08T12:41:21Z</time>
      </trkpt>
      <trkpt lat="36.7456030" lon="-3.7900580">
        <ele>-5.0</ele>
        <time>2022-01-08T12:41:22Z</time>
      </trkpt>
      <trkpt lat="36.7456030" lon="-3.7900580">
        <ele>-6.0</ele>
        <time>2022-01-08T12:41:23Z</time>
      </trkpt>
      <trkpt lat="36.7456030" lon="-3.7900580">
        <ele>-6.0</ele>
        <time>2022-01-08T12:41:24Z</time>
      </trkpt>
      <trkpt lat="36.7456030" lon="-3.7900580">
        <ele>-6.0</ele>
        <time>2022-01-08T12:41:25Z</time>
      </trkpt>
      <trkpt lat="36.7456030" lon="-3.7900580">
        <ele>-6.0</ele>
        <time>2022-01-08T12:41:26Z</time>
      </trkpt>
      <trkpt lat="36.7456030" lon="-3.7900580">
        <ele>-6.0</ele>
        <time>2022-01-08T12:41:27Z</time>
      </trkpt>
      <trkpt lat="36.7456030" lon="-3.7900580">
        <ele>-6.0</ele>
        <time>2022-01-08T12:41:28Z</time>
      </trkpt>
      <trkpt lat="36.7456030" lon="-3.7900580">
        <ele>-6.0</ele>
        <time>2022-01-08T12:41:29Z</time>
      </trkpt>
      <trkpt lat="36.7456030" lon="-3.7900580">
        <ele>-6.0</ele>
        <time>2022-01-08T12:41:30Z</time>
      </trkpt>
      <trkpt lat="36.7456030" lon="-3.7900580">
        <ele>-6.0</ele>
        <time>2022-01-08T12:41:31Z</time>
      </trkpt>
      <trkpt lat="36.7456030" lon="-3.7900580">
        <ele>-6.0</ele>
        <time>2022-01-08T12:41:32Z</time>
      </trkpt>
      <trkpt lat="36.7456030" lon="-3.7900580">
        <ele>-6.0</ele>
        <time>2022-01-08T12:41:33Z</time>
      </trkpt>
      <trkpt lat="36.7456030" lon="-3.7900580">
        <ele>-6.0</ele>
        <time>2022-01-08T12:41:34Z</time>
      </trkpt>
      <trkpt lat="36.7456180" lon="-3.7900730">
        <ele>-6.0</ele>
        <time>2022-01-08T12:41:35Z</time>
      </trkpt>
      <trkpt lat="36.7456180" lon="-3.7900730">
        <ele>-6.0</ele>
        <time>2022-01-08T12:41:36Z</time>
      </trkpt>
      <trkpt lat="36.7456180" lon="-3.7900730">
        <ele>-6.0</ele>
        <time>2022-01-08T12:41:37Z</time>
      </trkpt>
      <trkpt lat="36.7456180" lon="-3.7900730">
        <ele>-6.0</ele>
        <time>2022-01-08T12:41:38Z</time>
      </trkpt>
      <trkpt lat="36.7456380" lon="-3.7900790">
        <ele>-6.0</ele>
        <time>2022-01-08T12:41:39Z</time>
      </trkpt>
      <trkpt lat="36.7456380" lon="-3.7900790">
        <ele>-6.0</ele>
        <time>2022-01-08T12:41:40Z</time>
      </trkpt>
      <trkpt lat="36.7456380" lon="-3.7900790">
        <ele>-6.0</ele>
        <time>2022-01-08T12:41:41Z</time>
      </trkpt>
      <trkpt lat="36.7456470" lon="-3.7901080">
        <ele>-6.0</ele>
        <time>2022-01-08T12:41:42Z</time>
      </trkpt>
      <trkpt lat="36.7456470" lon="-3.7901080">
        <ele>-5.0</ele>
        <time>2022-01-08T12:41:43Z</time>
      </trkpt>
      <trkpt lat="36.7456470" lon="-3.7901080">
        <ele>-5.0</ele>
        <time>2022-01-08T12:41:44Z</time>
      </trkpt>
      <trkpt lat="36.7456590" lon="-3.7901390">
        <ele>-5.0</ele>
        <time>2022-01-08T12:41:45Z</time>
      </trkpt>
      <trkpt lat="36.7456590" lon="-3.7901390">
        <ele>-6.0</ele>
        <time>2022-01-08T12:41:46Z</time>
      </trkpt>
      <trkpt lat="36.7456650" lon="-3.7901610">
        <ele>-6.0</ele>
        <time>2022-01-08T12:41:47Z</time>
      </trkpt>
      <trkpt lat="36.7456650" lon="-3.7901610">
        <ele>-6.0</ele>
        <time>2022-01-08T12:41:48Z</time>
      </trkpt>
      <trkpt lat="36.7456650" lon="-3.7901610">
        <ele>-6.0</ele>
        <time>2022-01-08T12:41:49Z</time>
      </trkpt>
      <trkpt lat="36.7456650" lon="-3.7901610">
        <ele>-6.0</ele>
        <time>2022-01-08T12:41:50Z</time>
      </trkpt>
      <trkpt lat="36.7456650" lon="-3.7901610">
        <ele>-6.0</ele>
        <time>2022-01-08T12:41:51Z</time>
      </trkpt>
      <trkpt lat="36.7456650" lon="-3.7901610">
        <ele>-6.0</ele>
        <time>2022-01-08T12:41:52Z</time>
      </trkpt>
      <trkpt lat="36.7456650" lon="-3.7901610">
        <ele>-5.0</ele>
        <time>2022-01-08T12:41:53Z</time>
      </trkpt>
      <trkpt lat="36.7456650" lon="-3.7901610">
        <ele>-5.0</ele>
        <time>2022-01-08T12:41:54Z</time>
      </trkpt>
      <trkpt lat="36.7456650" lon="-3.7901610">
        <ele>-5.0</ele>
        <time>2022-01-08T12:41:55Z</time>
      </trkpt>
      <trkpt lat="36.7456650" lon="-3.7901610">
        <ele>-5.0</ele>
        <time>2022-01-08T12:41:56Z</time>
      </trkpt>
      <trkpt lat="36.7456650" lon="-3.7901610">
        <ele>-5.0</ele>
        <time>2022-01-08T12:41:57Z</time>
      </trkpt>
      <trkpt lat="36.7456650" lon="-3.7901610">
        <ele>-5.0</ele>
        <time>2022-01-08T12:41:58Z</time>
      </trkpt>
      <trkpt lat="36.7456650" lon="-3.7901610">
        <ele>-4.0</ele>
        <time>2022-01-08T12:41:59Z</time>
      </trkpt>
      <trkpt lat="36.7456650" lon="-3.7901610">
        <ele>-4.0</ele>
        <time>2022-01-08T12:42:00Z</time>
      </trkpt>
      <trkpt lat="36.7456650" lon="-3.7901610">
        <ele>-4.0</ele>
        <time>2022-01-08T12:42:01Z</time>
      </trkpt>
      <trkpt lat="36.7456650" lon="-3.7901610">
        <ele>-4.0</ele>
        <time>2022-01-08T12:42:02Z</time>
      </trkpt>
      <trkpt lat="36.7456650" lon="-3.7901610">
        <ele>-4.0</ele>
        <time>2022-01-08T12:42:03Z</time>
      </trkpt>
      <trkpt lat="36.7456650" lon="-3.7901610">
        <ele>-4.0</ele>
        <time>2022-01-08T12:42:04Z</time>
      </trkpt>
      <trkpt lat="36.7456650" lon="-3.7901610">
        <ele>-4.0</ele>
        <time>2022-01-08T12:42:05Z</time>
      </trkpt>
      <trkpt lat="36.7456650" lon="-3.7901610">
        <ele>-4.0</ele>
        <time>2022-01-08T12:42:06Z</time>
      </trkpt>
      <trkpt lat="36.7456650" lon="-3.7901610">
        <ele>-4.0</ele>
        <time>2022-01-08T12:42:07Z</time>
      </trkpt>
      <trkpt lat="36.7456650" lon="-3.7901610">
        <ele>-4.0</ele>
        <time>2022-01-08T12:42:08Z</time>
      </trkpt>
      <trkpt lat="36.7456650" lon="-3.7901610">
        <ele>-4.0</ele>
        <time>2022-01-08T12:42:09Z</time>
      </trkpt>
      <trkpt lat="36.7456650" lon="-3.7901610">
        <ele>-4.0</ele>
        <time>2022-01-08T12:42:10Z</time>
      </trkpt>
      <trkpt lat="36.7456560" lon="-3.7901830">
        <ele>-4.0</ele>
        <time>2022-01-08T12:42:11Z</time>
      </trkpt>
      <trkpt lat="36.7456560" lon="-3.7901830">
        <ele>-4.0</ele>
        <time>2022-01-08T12:42:12Z</time>
      </trkpt>
      <trkpt lat="36.7456560" lon="-3.7901830">
        <ele>-4.0</ele>
        <time>2022-01-08T12:42:13Z</time>
      </trkpt>
      <trkpt lat="36.7456560" lon="-3.7901830">
        <ele>-4.0</ele>
        <time>2022-01-08T12:42:14Z</time>
      </trkpt>
      <trkpt lat="36.7456560" lon="-3.7901830">
        <ele>-4.0</ele>
        <time>2022-01-08T12:42:15Z</time>
      </trkpt>
      <trkpt lat="36.7456560" lon="-3.7901830">
        <ele>-4.0</ele>
        <time>2022-01-08T12:42:16Z</time>
      </trkpt>
      <trkpt lat="36.7456560" lon="-3.7901830">
        <ele>-4.0</ele>
        <time>2022-01-08T12:42:17Z</time>
      </trkpt>
      <trkpt lat="36.7456560" lon="-3.7901830">
        <ele>-4.0</ele>
        <time>2022-01-08T12:42:18Z</time>
      </trkpt>
      <trkpt lat="36.7456560" lon="-3.7901830">
        <ele>-4.0</ele>
        <time>2022-01-08T12:42:19Z</time>
      </trkpt>
      <trkpt lat="36.7456560" lon="-3.7901830">
        <ele>-4.0</ele>
        <time>2022-01-08T12:42:20Z</time>
      </trkpt>
      <trkpt lat="36.7456560" lon="-3.7901830">
        <ele>-4.0</ele>
        <time>2022-01-08T12:42:21Z</time>
      </trkpt>
      <trkpt lat="36.7456560" lon="-3.7901830">
        <ele>-4.0</ele>
        <time>2022-01-08T12:42:22Z</time>
      </trkpt>
      <trkpt lat="36.7456560" lon="-3.7901830">
        <ele>-4.0</ele>
        <time>2022-01-08T12:42:23Z</time>
      </trkpt>
      <trkpt lat="36.7456560" lon="-3.7901830">
        <ele>-4.0</ele>
        <time>2022-01-08T12:42:24Z</time>
      </trkpt>
      <trkpt lat="36.7456560" lon="-3.7901830">
        <ele>-5.0</ele>
        <time>2022-01-08T12:42:25Z</time>
      </trkpt>
      <trkpt lat="36.7456560" lon="-3.7901830">
        <ele>-5.0</ele>
        <time>2022-01-08T12:42:26Z</time>
      </trkpt>
      <trkpt lat="36.7456420" lon="-3.7901640">
        <ele>-5.0</ele>
        <time>2022-01-08T12:42:27Z</time>
      </trkpt>
      <trkpt lat="36.7456420" lon="-3.7901640">
        <ele>-6.0</ele>
        <time>2022-01-08T12:42:28Z</time>
      </trkpt>
      <trkpt lat="36.7456420" lon="-3.7901640">
        <ele>-6.0</ele>
        <time>2022-01-08T12:42:29Z</time>
      </trkpt>
      <trkpt lat="36.7456280" lon="-3.7901350">
        <ele>-6.0</ele>
        <time>2022-01-08T12:42:30Z</time>
      </trkpt>
      <trkpt lat="36.7456280" lon="-3.7901350">
        <ele>-5.0</ele>
        <time>2022-01-08T12:42:31Z</time>
      </trkpt>
      <trkpt lat="36.7456160" lon="-3.7900980">
        <ele>-5.0</ele>
        <time>2022-01-08T12:42:32Z</time>
      </trkpt>
      <trkpt lat="36.7456050" lon="-3.7900790">
        <ele>-5.0</ele>
        <time>2022-01-08T12:42:33Z</time>
      </trkpt>
      <trkpt lat="36.7456050" lon="-3.7900790">
        <ele>-5.0</ele>
        <time>2022-01-08T12:42:34Z</time>
      </trkpt>
      <trkpt lat="36.7455830" lon="-3.7900610">
        <ele>-5.0</ele>
        <time>2022-01-08T12:42:35Z</time>
      </trkpt>
      <trkpt lat="36.7455830" lon="-3.7900610">
        <ele>-4.0</ele>
        <time>2022-01-08T12:42:36Z</time>
      </trkpt>
      <trkpt lat="36.7455700" lon="-3.7900450">
        <ele>-4.0</ele>
        <time>2022-01-08T12:42:37Z</time>
      </trkpt>
      <trkpt lat="36.7455700" lon="-3.7900450">
        <ele>-4.0</ele>
        <time>2022-01-08T12:42:38Z</time>
      </trkpt>
      <trkpt lat="36.7455700" lon="-3.7900450">
        <ele>-4.0</ele>
        <time>2022-01-08T12:42:39Z</time>
      </trkpt>
      <trkpt lat="36.7455490" lon="-3.7900320">
        <ele>-4.0</ele>
        <time>2022-01-08T12:42:40Z</time>
      </trkpt>
      <trkpt lat="36.7455490" lon="-3.7900320">
        <ele>-4.0</ele>
        <time>2022-01-08T12:42:41Z</time>
      </trkpt>
      <trkpt lat="36.7455490" lon="-3.7900320">
        <ele>-4.0</ele>
        <time>2022-01-08T12:42:42Z</time>
      </trkpt>
      <trkpt lat="36.7455490" lon="-3.7900320">
        <ele>-3.0</ele>
        <time>2022-01-08T12:42:43Z</time>
      </trkpt>
      <trkpt lat="36.7455490" lon="-3.7900320">
        <ele>-3.0</ele>
        <time>2022-01-08T12:42:44Z</time>
      </trkpt>
      <trkpt lat="36.7455490" lon="-3.7900320">
        <ele>-3.0</ele>
        <time>2022-01-08T12:42:45Z</time>
      </trkpt>
      <trkpt lat="36.7455490" lon="-3.7900320">
        <ele>-3.0</ele>
        <time>2022-01-08T12:42:46Z</time>
      </trkpt>
      <trkpt lat="36.7455490" lon="-3.7900320">
        <ele>-4.0</ele>
        <time>2022-01-08T12:42:47Z</time>
      </trkpt>
      <trkpt lat="36.7455490" lon="-3.7900320">
        <ele>-4.0</ele>
        <time>2022-01-08T12:42:48Z</time>
      </trkpt>
      <trkpt lat="36.7455490" lon="-3.7900320">
        <ele>-3.0</ele>
        <time>2022-01-08T12:42:49Z</time>
      </trkpt>
      <trkpt lat="36.7455490" lon="-3.7900320">
        <ele>-3.0</ele>
        <time>2022-01-08T12:42:50Z</time>
      </trkpt>
      <trkpt lat="36.7455370" lon="-3.7900070">
        <ele>-3.0</ele>
        <time>2022-01-08T12:42:51Z</time>
      </trkpt>
      <trkpt lat="36.7455370" lon="-3.7900070">
        <ele>-3.0</ele>
        <time>2022-01-08T12:42:52Z</time>
      </trkpt>
      <trkpt lat="36.7455370" lon="-3.7900070">
        <ele>-2.0</ele>
        <time>2022-01-08T12:42:53Z</time>
      </trkpt>
      <trkpt lat="36.7455370" lon="-3.7900070">
        <ele>-2.0</ele>
        <time>2022-01-08T12:42:54Z</time>
      </trkpt>
      <trkpt lat="36.7455370" lon="-3.7900070">
        <ele>-2.0</ele>
        <time>2022-01-08T12:42:55Z</time>
      </trkpt>
      <trkpt lat="36.7455370" lon="-3.7900070">
        <ele>-2.0</ele>
        <time>2022-01-08T12:42:56Z</time>
      </trkpt>
      <trkpt lat="36.7455370" lon="-3.7900070">
        <ele>-2.0</ele>
        <time>2022-01-08T12:42:57Z</time>
      </trkpt>
      <trkpt lat="36.7455370" lon="-3.7900070">
        <ele>-2.0</ele>
        <time>2022-01-08T12:42:58Z</time>
      </trkpt>
      <trkpt lat="36.7455370" lon="-3.7900070">
        <ele>-2.0</ele>
        <time>2022-01-08T12:42:59Z</time>
      </trkpt>
      <trkpt lat="36.7455370" lon="-3.7900070">
        <ele>-2.0</ele>
        <time>2022-01-08T12:43:00Z</time>
      </trkpt>
      <trkpt lat="36.7455370" lon="-3.7900070">
        <ele>-2.0</ele>
        <time>2022-01-08T12:43:01Z</time>
      </trkpt>
      <trkpt lat="36.7455370" lon="-3.7900070">
        <ele>-2.0</ele>
        <time>2022-01-08T12:43:02Z</time>
      </trkpt>
      <trkpt lat="36.7455370" lon="-3.7900070">
        <ele>-1.0</ele>
        <time>2022-01-08T12:43:03Z</time>
      </trkpt>
      <trkpt lat="36.7455370" lon="-3.7900070">
        <ele>-1.0</ele>
        <time>2022-01-08T12:43:04Z</time>
      </trkpt>
      <trkpt lat="36.7455370" lon="-3.7900070">
        <ele>0.0</ele>
        <time>2022-01-08T12:43:05Z</time>
      </trkpt>
      <trkpt lat="36.7455370" lon="-3.7900070">
        <ele>0.0</ele>
        <time>2022-01-08T12:43:06Z</time>
      </trkpt>
      <trkpt lat="36.7455370" lon="-3.7900070">
        <ele>0.0</ele>
        <time>2022-01-08T12:43:07Z</time>
      </trkpt>
      <trkpt lat="36.7455370" lon="-3.7900070">
        <ele>0.0</ele>
        <time>2022-01-08T12:43:08Z</time>
      </trkpt>
      <trkpt lat="36.7455370" lon="-3.7900070">
        <ele>1.0</ele>
        <time>2022-01-08T12:43:09Z</time>
      </trkpt>
      <trkpt lat="36.7455370" lon="-3.7900070">
        <ele>1.0</ele>
        <time>2022-01-08T12:43:10Z</time>
      </trkpt>
      <trkpt lat="36.7455370" lon="-3.7900070">
        <ele>1.0</ele>
        <time>2022-01-08T12:43:11Z</time>
      </trkpt>
      <trkpt lat="36.7455370" lon="-3.7900070">
        <ele>1.0</ele>
        <time>2022-01-08T12:43:12Z</time>
      </trkpt>
      <trkpt lat="36.7455370" lon="-3.7900070">
        <ele>1.0</ele>
        <time>2022-01-08T12:43:13Z</time>
      </trkpt>
      <trkpt lat="36.7455370" lon="-3.7900070">
        <ele>1.0</ele>
        <time>2022-01-08T12:43:14Z</time>
      </trkpt>
      <trkpt lat="36.7455370" lon="-3.7900070">
        <ele>1.0</ele>
        <time>2022-01-08T12:43:15Z</time>
      </trkpt>
      <trkpt lat="36.7455370" lon="-3.7900070">
        <ele>1.0</ele>
        <time>2022-01-08T12:43:16Z</time>
      </trkpt>
      <trkpt lat="36.7455370" lon="-3.7900070">
        <ele>1.0</ele>
        <time>2022-01-08T12:43:17Z</time>
      </trkpt>
      <trkpt lat="36.7455370" lon="-3.7900070">
        <ele>1.0</ele>
        <time>2022-01-08T12:43:18Z</time>
      </trkpt>
      <trkpt lat="36.7455370" lon="-3.7900070">
        <ele>1.0</ele>
        <time>2022-01-08T12:43:19Z</time>
      </trkpt>
      <trkpt lat="36.7455370" lon="-3.7900070">
        <ele>1.0</ele>
        <time>2022-01-08T12:43:20Z</time>
      </trkpt>
      <trkpt lat="36.7455370" lon="-3.7900070">
        <ele>1.0</ele>
        <time>2022-01-08T12:43:21Z</time>
      </trkpt>
      <trkpt lat="36.7455370" lon="-3.7900070">
        <ele>1.0</ele>
        <time>2022-01-08T12:43:22Z</time>
      </trkpt>
      <trkpt lat="36.7455370" lon="-3.7900070">
        <ele>1.0</ele>
        <time>2022-01-08T12:43:23Z</time>
      </trkpt>
      <trkpt lat="36.7455370" lon="-3.7900070">
        <ele>1.0</ele>
        <time>2022-01-08T12:43:24Z</time>
      </trkpt>
      <trkpt lat="36.7455370" lon="-3.7900070">
        <ele>1.0</ele>
        <time>2022-01-08T12:43:25Z</time>
      </trkpt>
      <trkpt lat="36.7455370" lon="-3.7900070">
        <ele>1.0</ele>
        <time>2022-01-08T12:43:26Z</time>
      </trkpt>
      <trkpt lat="36.7455370" lon="-3.7900070">
        <ele>1.0</ele>
        <time>2022-01-08T12:43:27Z</time>
      </trkpt>
      <trkpt lat="36.7455370" lon="-3.7900070">
        <ele>1.0</ele>
        <time>2022-01-08T12:43:28Z</time>
      </trkpt>
      <trkpt lat="36.7455370" lon="-3.7900070">
        <ele>2.0</ele>
        <time>2022-01-08T12:43:29Z</time>
      </trkpt>
      <trkpt lat="36.7455370" lon="-3.7900070">
        <ele>2.0</ele>
        <time>2022-01-08T12:43:30Z</time>
      </trkpt>
      <trkpt lat="36.7455370" lon="-3.7900070">
        <ele>2.0</ele>
        <time>2022-01-08T12:43:31Z</time>
      </trkpt>
      <trkpt lat="36.7455370" lon="-3.7900070">
        <ele>2.0</ele>
        <time>2022-01-08T12:43:32Z</time>
      </trkpt>
      <trkpt lat="36.7455370" lon="-3.7900070">
        <ele>2.0</ele>
        <time>2022-01-08T12:43:33Z</time>
      </trkpt>
      <trkpt lat="36.7455370" lon="-3.7900070">
        <ele>2.0</ele>
        <time>2022-01-08T12:43:34Z</time>
      </trkpt>
      <trkpt lat="36.7455370" lon="-3.7900070">
        <ele>2.0</ele>
        <time>2022-01-08T12:43:35Z</time>
      </trkpt>
      <trkpt lat="36.7455370" lon="-3.7900070">
        <ele>2.0</ele>
        <time>2022-01-08T12:43:36Z</time>
      </trkpt>
      <trkpt lat="36.7455370" lon="-3.7900070">
        <ele>2.0</ele>
        <time>2022-01-08T12:43:37Z</time>
      </trkpt>
      <trkpt lat="36.7455370" lon="-3.7900070">
        <ele>2.0</ele>
        <time>2022-01-08T12:43:38Z</time>
      </trkpt>
      <trkpt lat="36.7455370" lon="-3.7900070">
        <ele>2.0</ele>
        <time>2022-01-08T12:43:39Z</time>
      </trkpt>
      <trkpt lat="36.7455370" lon="-3.7900070">
        <ele>2.0</ele>
        <time>2022-01-08T12:43:40Z</time>
      </trkpt>
      <trkpt lat="36.7455370" lon="-3.7900070">
        <ele>2.0</ele>
        <time>2022-01-08T12:43:41Z</time>
      </trkpt>
      <trkpt lat="36.7455370" lon="-3.7900070">
        <ele>2.0</ele>
        <time>2022-01-08T12:43:42Z</time>
      </trkpt>
      <trkpt lat="36.7455370" lon="-3.7900070">
        <ele>2.0</ele>
        <time>2022-01-08T12:43:43Z</time>
      </trkpt>
      <trkpt lat="36.7455370" lon="-3.7900070">
        <ele>2.0</ele>
        <time>2022-01-08T12:43:44Z</time>
      </trkpt>
      <trkpt lat="36.7455370" lon="-3.7900070">
        <ele>2.0</ele>
        <time>2022-01-08T12:43:45Z</time>
      </trkpt>
      <trkpt lat="36.7455370" lon="-3.7900070">
        <ele>2.0</ele>
        <time>2022-01-08T12:43:46Z</time>
      </trkpt>
      <trkpt lat="36.7455370" lon="-3.7900070">
        <ele>2.0</ele>
        <time>2022-01-08T12:43:47Z</time>
      </trkpt>
      <trkpt lat="36.7455370" lon="-3.7900070">
        <ele>2.0</ele>
        <time>2022-01-08T12:43:48Z</time>
      </trkpt>
      <trkpt lat="36.7455370" lon="-3.7900070">
        <ele>2.0</ele>
        <time>2022-01-08T12:43:49Z</time>
      </trkpt>
      <trkpt lat="36.7455370" lon="-3.7900070">
        <ele>2.0</ele>
        <time>2022-01-08T12:43:50Z</time>
      </trkpt>
      <trkpt lat="36.7455180" lon="-3.7899950">
        <ele>3.0</ele>
        <time>2022-01-08T12:43:51Z</time>
      </trkpt>
      <trkpt lat="36.7455180" lon="-3.7899950">
        <ele>3.0</ele>
        <time>2022-01-08T12:43:52Z</time>
      </trkpt>
      <trkpt lat="36.7455180" lon="-3.7899950">
        <ele>3.0</ele>
        <time>2022-01-08T12:43:53Z</time>
      </trkpt>
      <trkpt lat="36.7455180" lon="-3.7899950">
        <ele>2.0</ele>
        <time>2022-01-08T12:43:54Z</time>
      </trkpt>
      <trkpt lat="36.7455180" lon="-3.7899950">
        <ele>2.0</ele>
        <time>2022-01-08T12:43:55Z</time>
      </trkpt>
      <trkpt lat="36.7455180" lon="-3.7899950">
        <ele>2.0</ele>
        <time>2022-01-08T12:43:56Z</time>
      </trkpt>
      <trkpt lat="36.7455180" lon="-3.7899950">
        <ele>2.0</ele>
        <time>2022-01-08T12:43:57Z</time>
      </trkpt>
      <trkpt lat="36.7455180" lon="-3.7899950">
        <ele>2.0</ele>
        <time>2022-01-08T12:43:58Z</time>
      </trkpt>
      <trkpt lat="36.7455180" lon="-3.7899950">
        <ele>2.0</ele>
        <time>2022-01-08T12:43:59Z</time>
      </trkpt>
      <trkpt lat="36.7455180" lon="-3.7899950">
        <ele>2.0</ele>
        <time>2022-01-08T12:44:00Z</time>
      </trkpt>
      <trkpt lat="36.7455180" lon="-3.7899950">
        <ele>2.0</ele>
        <time>2022-01-08T12:44:01Z</time>
      </trkpt>
      <trkpt lat="36.7455180" lon="-3.7899950">
        <ele>2.0</ele>
        <time>2022-01-08T12:44:02Z</time>
      </trkpt>
      <trkpt lat="36.7455180" lon="-3.7899950">
        <ele>3.0</ele>
        <time>2022-01-08T12:44:03Z</time>
      </trkpt>
      <trkpt lat="36.7455180" lon="-3.7899950">
        <ele>3.0</ele>
        <time>2022-01-08T12:44:04Z</time>
      </trkpt>
      <trkpt lat="36.7455180" lon="-3.7899950">
        <ele>3.0</ele>
        <time>2022-01-08T12:44:05Z</time>
      </trkpt>
      <trkpt lat="36.7455180" lon="-3.7899950">
        <ele>3.0</ele>
        <time>2022-01-08T12:44:06Z</time>
      </trkpt>
      <trkpt lat="36.7455180" lon="-3.7899950">
        <ele>3.0</ele>
        <time>2022-01-08T12:44:07Z</time>
      </trkpt>
      <trkpt lat="36.7455180" lon="-3.7899950">
        <ele>3.0</ele>
        <time>2022-01-08T12:44:08Z</time>
      </trkpt>
      <trkpt lat="36.7455180" lon="-3.7899950">
        <ele>3.0</ele>
        <time>2022-01-08T12:44:09Z</time>
      </trkpt>
      <trkpt lat="36.7455180" lon="-3.7899950">
        <ele>3.0</ele>
        <time>2022-01-08T12:44:10Z</time>
      </trkpt>
      <trkpt lat="36.7455180" lon="-3.7899950">
        <ele>3.0</ele>
        <time>2022-01-08T12:44:11Z</time>
      </trkpt>
      <trkpt lat="36.7455180" lon="-3.7899950">
        <ele>3.0</ele>
        <time>2022-01-08T12:44:12Z</time>
      </trkpt>
      <trkpt lat="36.7455180" lon="-3.7899950">
        <ele>3.0</ele>
        <time>2022-01-08T12:44:13Z</time>
      </trkpt>
      <trkpt lat="36.7455180" lon="-3.7899950">
        <ele>3.0</ele>
        <time>2022-01-08T12:44:14Z</time>
      </trkpt>
      <trkpt lat="36.7455180" lon="-3.7899950">
        <ele>3.0</ele>
        <time>2022-01-08T12:44:15Z</time>
      </trkpt>
      <trkpt lat="36.7455180" lon="-3.7899950">
        <ele>3.0</ele>
        <time>2022-01-08T12:44:16Z</time>
      </trkpt>
      <trkpt lat="36.7455180" lon="-3.7899950">
        <ele>3.0</ele>
        <time>2022-01-08T12:44:17Z</time>
      </trkpt>
      <trkpt lat="36.7455180" lon="-3.7899950">
        <ele>3.0</ele>
        <time>2022-01-08T12:44:18Z</time>
      </trkpt>
      <trkpt lat="36.7455180" lon="-3.7899950">
        <ele>3.0</ele>
        <time>2022-01-08T12:44:19Z</time>
      </trkpt>
      <trkpt lat="36.7455180" lon="-3.7899950">
        <ele>3.0</ele>
        <time>2022-01-08T12:44:20Z</time>
      </trkpt>
      <trkpt lat="36.7455180" lon="-3.7899950">
        <ele>3.0</ele>
        <time>2022-01-08T12:44:21Z</time>
      </trkpt>
      <trkpt lat="36.7455180" lon="-3.7899950">
        <ele>3.0</ele>
        <time>2022-01-08T12:44:22Z</time>
      </trkpt>
      <trkpt lat="36.7455180" lon="-3.7899950">
        <ele>4.0</ele>
        <time>2022-01-08T12:44:23Z</time>
      </trkpt>
      <trkpt lat="36.7455180" lon="-3.7899950">
        <ele>4.0</ele>
        <time>2022-01-08T12:44:24Z</time>
      </trkpt>
      <trkpt lat="36.7455180" lon="-3.7899950">
        <ele>4.0</ele>
        <time>2022-01-08T12:44:25Z</time>
      </trkpt>
      <trkpt lat="36.7455180" lon="-3.7899950">
        <ele>4.0</ele>
        <time>2022-01-08T12:44:26Z</time>
      </trkpt>
      <trkpt lat="36.7455180" lon="-3.7899950">
        <ele>4.0</ele>
        <time>2022-01-08T12:44:27Z</time>
      </trkpt>
      <trkpt lat="36.7455180" lon="-3.7899950">
        <ele>4.0</ele>
        <time>2022-01-08T12:44:28Z</time>
      </trkpt>
      <trkpt lat="36.7455180" lon="-3.7899950">
        <ele>4.0</ele>
        <time>2022-01-08T12:44:29Z</time>
      </trkpt>
      <trkpt lat="36.7455180" lon="-3.7899950">
        <ele>4.0</ele>
        <time>2022-01-08T12:44:30Z</time>
      </trkpt>
      <trkpt lat="36.7455180" lon="-3.7899950">
        <ele>4.0</ele>
        <time>2022-01-08T12:44:31Z</time>
      </trkpt>
      <trkpt lat="36.7455180" lon="-3.7899950">
        <ele>4.0</ele>
        <time>2022-01-08T12:44:32Z</time>
      </trkpt>
      <trkpt lat="36.7455180" lon="-3.7899950">
        <ele>4.0</ele>
        <time>2022-01-08T12:44:33Z</time>
      </trkpt>
      <trkpt lat="36.7455180" lon="-3.7899950">
        <ele>5.0</ele>
        <time>2022-01-08T12:44:34Z</time>
      </trkpt>
      <trkpt lat="36.7455180" lon="-3.7899950">
        <ele>5.0</ele>
        <time>2022-01-08T12:44:35Z</time>
      </trkpt>
      <trkpt lat="36.7455180" lon="-3.7899950">
        <ele>5.0</ele>
        <time>2022-01-08T12:44:36Z</time>
      </trkpt>
      <trkpt lat="36.7455180" lon="-3.7899950">
        <ele>5.0</ele>
        <time>2022-01-08T12:44:37Z</time>
      </trkpt>
      <trkpt lat="36.7455180" lon="-3.7899950">
        <ele>5.0</ele>
        <time>2022-01-08T12:44:38Z</time>
      </trkpt>
      <trkpt lat="36.7455180" lon="-3.7899950">
        <ele>5.0</ele>
        <time>2022-01-08T12:44:39Z</time>
      </trkpt>
      <trkpt lat="36.7455180" lon="-3.7899950">
        <ele>5.0</ele>
        <time>2022-01-08T12:44:40Z</time>
      </trkpt>
      <trkpt lat="36.7455180" lon="-3.7899950">
        <ele>5.0</ele>
        <time>2022-01-08T12:44:41Z</time>
      </trkpt>
      <trkpt lat="36.7455180" lon="-3.7899950">
        <ele>6.0</ele>
        <time>2022-01-08T12:44:42Z</time>
      </trkpt>
      <trkpt lat="36.7455180" lon="-3.7899950">
        <ele>7.0</ele>
        <time>2022-01-08T12:44:43Z</time>
      </trkpt>
      <trkpt lat="36.7455180" lon="-3.7899950">
        <ele>7.0</ele>
        <time>2022-01-08T12:44:44Z</time>
      </trkpt>
      <trkpt lat="36.7455180" lon="-3.7899950">
        <ele>6.0</ele>
        <time>2022-01-08T12:44:45Z</time>
      </trkpt>
      <trkpt lat="36.7455180" lon="-3.7899950">
        <ele>6.0</ele>
        <time>2022-01-08T12:44:46Z</time>
      </trkpt>
      <trkpt lat="36.7455180" lon="-3.7899950">
        <ele>6.0</ele>
        <time>2022-01-08T12:44:47Z</time>
      </trkpt>
      <trkpt lat="36.7455300" lon="-3.7900180">
        <ele>6.0</ele>
        <time>2022-01-08T12:44:48Z</time>
      </trkpt>
      <trkpt lat="36.7455300" lon="-3.7900180">
        <ele>6.0</ele>
        <time>2022-01-08T12:44:49Z</time>
      </trkpt>
      <trkpt lat="36.7455490" lon="-3.7900330">
        <ele>6.0</ele>
        <time>2022-01-08T12:44:50Z</time>
      </trkpt>
      <trkpt lat="36.7455490" lon="-3.7900330">
        <ele>5.0</ele>
        <time>2022-01-08T12:44:51Z</time>
      </trkpt>
      <trkpt lat="36.7455670" lon="-3.7900450">
        <ele>5.0</ele>
        <time>2022-01-08T12:44:52Z</time>
      </trkpt>
      <trkpt lat="36.7455670" lon="-3.7900450">
        <ele>5.0</ele>
        <time>2022-01-08T12:44:53Z</time>
      </trkpt>
      <trkpt lat="36.7455840" lon="-3.7900430">
        <ele>5.0</ele>
        <time>2022-01-08T12:44:54Z</time>
      </trkpt>
      <trkpt lat="36.7455840" lon="-3.7900430">
        <ele>5.0</ele>
        <time>2022-01-08T12:44:55Z</time>
      </trkpt>
      <trkpt lat="36.7455840" lon="-3.7900430">
        <ele>5.0</ele>
        <time>2022-01-08T12:44:56Z</time>
      </trkpt>
      <trkpt lat="36.7455840" lon="-3.7900430">
        <ele>5.0</ele>
        <time>2022-01-08T12:44:57Z</time>
      </trkpt>
      <trkpt lat="36.7456010" lon="-3.7900610">
        <ele>5.0</ele>
        <time>2022-01-08T12:44:58Z</time>
      </trkpt>
      <trkpt lat="36.7456010" lon="-3.7900610">
        <ele>5.0</ele>
        <time>2022-01-08T12:44:59Z</time>
      </trkpt>
      <trkpt lat="36.7456130" lon="-3.7900910">
        <ele>5.0</ele>
        <time>2022-01-08T12:45:00Z</time>
      </trkpt>
      <trkpt lat="36.7456130" lon="-3.7900910">
        <ele>5.0</ele>
        <time>2022-01-08T12:45:01Z</time>
      </trkpt>
      <trkpt lat="36.7456320" lon="-3.7901070">
        <ele>4.0</ele>
        <time>2022-01-08T12:45:02Z</time>
      </trkpt>
      <trkpt lat="36.7456320" lon="-3.7901070">
        <ele>4.0</ele>
        <time>2022-01-08T12:45:03Z</time>
      </trkpt>
      <trkpt lat="36.7456320" lon="-3.7901070">
        <ele>4.0</ele>
        <time>2022-01-08T12:45:04Z</time>
      </trkpt>
      <trkpt lat="36.7456480" lon="-3.7901180">
        <ele>4.0</ele>
        <time>2022-01-08T12:45:05Z</time>
      </trkpt>
      <trkpt lat="36.7456480" lon="-3.7901180">
        <ele>4.0</ele>
        <time>2022-01-08T12:45:06Z</time>
      </trkpt>
      <trkpt lat="36.7456480" lon="-3.7901180">
        <ele>4.0</ele>
        <time>2022-01-08T12:45:07Z</time>
      </trkpt>
      <trkpt lat="36.7456480" lon="-3.7901180">
        <ele>4.0</ele>
        <time>2022-01-08T12:45:08Z</time>
      </trkpt>
      <trkpt lat="36.7456480" lon="-3.7901180">
        <ele>4.0</ele>
        <time>2022-01-08T12:45:09Z</time>
      </trkpt>
      <trkpt lat="36.7456480" lon="-3.7901180">
        <ele>4.0</ele>
        <time>2022-01-08T12:45:10Z</time>
      </trkpt>
      <trkpt lat="36.7456480" lon="-3.7901180">
        <ele>4.0</ele>
        <time>2022-01-08T12:45:11Z</time>
      </trkpt>
      <trkpt lat="36.7456450" lon="-3.7901410">
        <ele>4.0</ele>
        <time>2022-01-08T12:45:12Z</time>
      </trkpt>
      <trkpt lat="36.7456450" lon="-3.7901410">
        <ele>4.0</ele>
        <time>2022-01-08T12:45:13Z</time>
      </trkpt>
      <trkpt lat="36.7456450" lon="-3.7901410">
        <ele>5.0</ele>
        <time>2022-01-08T12:45:14Z</time>
      </trkpt>
      <trkpt lat="36.7456450" lon="-3.7901410">
        <ele>5.0</ele>
        <time>2022-01-08T12:45:15Z</time>
      </trkpt>
      <trkpt lat="36.7456450" lon="-3.7901410">
        <ele>5.0</ele>
        <time>2022-01-08T12:45:16Z</time>
      </trkpt>
      <trkpt lat="36.7456450" lon="-3.7901410">
        <ele>5.0</ele>
        <time>2022-01-08T12:45:17Z</time>
      </trkpt>
      <trkpt lat="36.7456450" lon="-3.7901410">
        <ele>6.0</ele>
        <time>2022-01-08T12:45:18Z</time>
      </trkpt>
      <trkpt lat="36.7456450" lon="-3.7901410">
        <ele>7.0</ele>
        <time>2022-01-08T12:45:19Z</time>
      </trkpt>
      <trkpt lat="36.7456440" lon="-3.7901640">
        <ele>8.0</ele>
        <time>2022-01-08T12:45:20Z</time>
      </trkpt>
      <trkpt lat="36.7456440" lon="-3.7901640">
        <ele>8.0</ele>
        <time>2022-01-08T12:45:21Z</time>
      </trkpt>
      <trkpt lat="36.7456440" lon="-3.7901640">
        <ele>8.0</ele>
        <time>2022-01-08T12:45:22Z</time>
      </trkpt>
      <trkpt lat="36.7456440" lon="-3.7901640">
        <ele>8.0</ele>
        <time>2022-01-08T12:45:23Z</time>
      </trkpt>
      <trkpt lat="36.7456440" lon="-3.7901640">
        <ele>8.0</ele>
        <time>2022-01-08T12:45:24Z</time>
      </trkpt>
      <trkpt lat="36.7456440" lon="-3.7901640">
        <ele>7.0</ele>
        <time>2022-01-08T12:45:25Z</time>
      </trkpt>
      <trkpt lat="36.7456440" lon="-3.7901640">
        <ele>7.0</ele>
        <time>2022-01-08T12:45:26Z</time>
      </trkpt>
      <trkpt lat="36.7456440" lon="-3.7901640">
        <ele>7.0</ele>
        <time>2022-01-08T12:45:27Z</time>
      </trkpt>
      <trkpt lat="36.7456440" lon="-3.7901640">
        <ele>7.0</ele>
        <time>2022-01-08T12:45:28Z</time>
      </trkpt>
      <trkpt lat="36.7456440" lon="-3.7901640">
        <ele>7.0</ele>
        <time>2022-01-08T12:45:29Z</time>
      </trkpt>
      <trkpt lat="36.7456440" lon="-3.7901640">
        <ele>7.0</ele>
        <time>2022-01-08T12:45:30Z</time>
      </trkpt>
      <trkpt lat="36.7456440" lon="-3.7901640">
        <ele>8.0</ele>
        <time>2022-01-08T12:45:31Z</time>
      </trkpt>
      <trkpt lat="36.7456440" lon="-3.7901640">
        <ele>8.0</ele>
        <time>2022-01-08T12:45:32Z</time>
      </trkpt>
      <trkpt lat="36.7456440" lon="-3.7901640">
        <ele>8.0</ele>
        <time>2022-01-08T12:45:33Z</time>
      </trkpt>
      <trkpt lat="36.7456440" lon="-3.7901640">
        <ele>8.0</ele>
        <time>2022-01-08T12:45:34Z</time>
      </trkpt>
      <trkpt lat="36.7456440" lon="-3.7901640">
        <ele>8.0</ele>
        <time>2022-01-08T12:45:35Z</time>
      </trkpt>
      <trkpt lat="36.7456440" lon="-3.7901640">
        <ele>8.0</ele>
        <time>2022-01-08T12:45:36Z</time>
      </trkpt>
      <trkpt lat="36.7456440" lon="-3.7901640">
        <ele>8.0</ele>
        <time>2022-01-08T12:45:37Z</time>
      </trkpt>
      <trkpt lat="36.7456440" lon="-3.7901640">
        <ele>8.0</ele>
        <time>2022-01-08T12:45:38Z</time>
      </trkpt>
      <trkpt lat="36.7456440" lon="-3.7901640">
        <ele>8.0</ele>
        <time>2022-01-08T12:45:39Z</time>
      </trkpt>
      <trkpt lat="36.7456440" lon="-3.7901640">
        <ele>8.0</ele>
        <time>2022-01-08T12:45:40Z</time>
      </trkpt>
      <trkpt lat="36.7456440" lon="-3.7901640">
        <ele>9.0</ele>
        <time>2022-01-08T12:45:41Z</time>
      </trkpt>
      <trkpt lat="36.7456440" lon="-3.7901640">
        <ele>9.0</ele>
        <time>2022-01-08T12:45:42Z</time>
      </trkpt>
      <trkpt lat="36.7456440" lon="-3.7901640">
        <ele>9.0</ele>
        <time>2022-01-08T12:45:43Z</time>
      </trkpt>
      <trkpt lat="36.7456440" lon="-3.7901640">
        <ele>8.0</ele>
        <time>2022-01-08T12:45:44Z</time>
      </trkpt>
      <trkpt lat="36.7456440" lon="-3.7901640">
        <ele>8.0</ele>
        <time>2022-01-08T12:45:45Z</time>
      </trkpt>
      <trkpt lat="36.7456440" lon="-3.7901640">
        <ele>8.0</ele>
        <time>2022-01-08T12:45:46Z</time>
      </trkpt>
      <trkpt lat="36.7456440" lon="-3.7901640">
        <ele>8.0</ele>
        <time>2022-01-08T12:45:47Z</time>
      </trkpt>
      <trkpt lat="36.7456440" lon="-3.7901640">
        <ele>8.0</ele>
        <time>2022-01-08T12:45:48Z</time>
      </trkpt>
      <trkpt lat="36.7456440" lon="-3.7901640">
        <ele>8.0</ele>
        <time>2022-01-08T12:45:49Z</time>
      </trkpt>
      <trkpt lat="36.7456440" lon="-3.7901640">
        <ele>8.0</ele>
        <time>2022-01-08T12:45:50Z</time>
      </trkpt>
      <trkpt lat="36.7456440" lon="-3.7901640">
        <ele>9.0</ele>
        <time>2022-01-08T12:45:51Z</time>
      </trkpt>
      <trkpt lat="36.7456440" lon="-3.7901640">
        <ele>9.0</ele>
        <time>2022-01-08T12:45:52Z</time>
      </trkpt>
      <trkpt lat="36.7456440" lon="-3.7901640">
        <ele>9.0</ele>
        <time>2022-01-08T12:45:53Z</time>
      </trkpt>
      <trkpt lat="36.7456440" lon="-3.7901640">
        <ele>9.0</ele>
        <time>2022-01-08T12:45:54Z</time>
      </trkpt>
      <trkpt lat="36.7456440" lon="-3.7901640">
        <ele>9.0</ele>
        <time>2022-01-08T12:45:55Z</time>
      </trkpt>
      <trkpt lat="36.7456440" lon="-3.7901640">
        <ele>8.0</ele>
        <time>2022-01-08T12:45:56Z</time>
      </trkpt>
      <trkpt lat="36.7456440" lon="-3.7901640">
        <ele>8.0</ele>
        <time>2022-01-08T12:45:57Z</time>
      </trkpt>
      <trkpt lat="36.7456440" lon="-3.7901640">
        <ele>8.0</ele>
        <time>2022-01-08T12:45:58Z</time>
      </trkpt>
      <trkpt lat="36.7456440" lon="-3.7901640">
        <ele>8.0</ele>
        <time>2022-01-08T12:45:59Z</time>
      </trkpt>
      <trkpt lat="36.7456440" lon="-3.7901640">
        <ele>8.0</ele>
        <time>2022-01-08T12:46:00Z</time>
      </trkpt>
      <trkpt lat="36.7456440" lon="-3.7901640">
        <ele>8.0</ele>
        <time>2022-01-08T12:46:01Z</time>
      </trkpt>
      <trkpt lat="36.7456440" lon="-3.7901640">
        <ele>8.0</ele>
        <time>2022-01-08T12:46:02Z</time>
      </trkpt>
      <trkpt lat="36.7456440" lon="-3.7901640">
        <ele>8.0</ele>
        <time>2022-01-08T12:46:03Z</time>
      </trkpt>
      <trkpt lat="36.7456440" lon="-3.7901640">
        <ele>8.0</ele>
        <time>2022-01-08T12:46:04Z</time>
      </trkpt>
      <trkpt lat="36.7456440" lon="-3.7901640">
        <ele>8.0</ele>
        <time>2022-01-08T12:46:05Z</time>
      </trkpt>
      <trkpt lat="36.7456440" lon="-3.7901640">
        <ele>8.0</ele>
        <time>2022-01-08T12:46:06Z</time>
      </trkpt>
      <trkpt lat="36.7456440" lon="-3.7901640">
        <ele>8.0</ele>
        <time>2022-01-08T12:46:07Z</time>
      </trkpt>
      <trkpt lat="36.7456440" lon="-3.7901640">
        <ele>8.0</ele>
        <time>2022-01-08T12:46:08Z</time>
      </trkpt>
      <trkpt lat="36.7456440" lon="-3.7901640">
        <ele>8.0</ele>
        <time>2022-01-08T12:46:09Z</time>
      </trkpt>
      <trkpt lat="36.7456440" lon="-3.7901640">
        <ele>8.0</ele>
        <time>2022-01-08T12:46:10Z</time>
      </trkpt>
      <trkpt lat="36.7456440" lon="-3.7901640">
        <ele>8.0</ele>
        <time>2022-01-08T12:46:11Z</time>
      </trkpt>
      <trkpt lat="36.7456440" lon="-3.7901640">
        <ele>8.0</ele>
        <time>2022-01-08T12:46:12Z</time>
      </trkpt>
      <trkpt lat="36.7456440" lon="-3.7901640">
        <ele>8.0</ele>
        <time>2022-01-08T12:46:13Z</time>
      </trkpt>
      <trkpt lat="36.7456440" lon="-3.7901640">
        <ele>8.0</ele>
        <time>2022-01-08T12:46:14Z</time>
      </trkpt>
      <trkpt lat="36.7456440" lon="-3.7901640">
        <ele>8.0</ele>
        <time>2022-01-08T12:46:15Z</time>
      </trkpt>
      <trkpt lat="36.7456440" lon="-3.7901640">
        <ele>8.0</ele>
        <time>2022-01-08T12:46:16Z</time>
      </trkpt>
      <trkpt lat="36.7456440" lon="-3.7901640">
        <ele>8.0</ele>
        <time>2022-01-08T12:46:17Z</time>
      </trkpt>
      <trkpt lat="36.7456440" lon="-3.7901640">
        <ele>8.0</ele>
        <time>2022-01-08T12:46:18Z</time>
      </trkpt>
      <trkpt lat="36.7456440" lon="-3.7901640">
        <ele>8.0</ele>
        <time>2022-01-08T12:46:19Z</time>
      </trkpt>
      <trkpt lat="36.7456440" lon="-3.7901640">
        <ele>8.0</ele>
        <time>2022-01-08T12:46:20Z</time>
      </trkpt>
      <trkpt lat="36.7456440" lon="-3.7901640">
        <ele>8.0</ele>
        <time>2022-01-08T12:46:21Z</time>
      </trkpt>
      <trkpt lat="36.7456440" lon="-3.7901640">
        <ele>8.0</ele>
        <time>2022-01-08T12:46:22Z</time>
      </trkpt>
      <trkpt lat="36.7456440" lon="-3.7901640">
        <ele>9.0</ele>
        <time>2022-01-08T12:46:23Z</time>
      </trkpt>
      <trkpt lat="36.7456440" lon="-3.7901640">
        <ele>9.0</ele>
        <time>2022-01-08T12:46:24Z</time>
      </trkpt>
      <trkpt lat="36.7456440" lon="-3.7901640">
        <ele>8.0</ele>
        <time>2022-01-08T12:46:25Z</time>
      </trkpt>
      <trkpt lat="36.7456440" lon="-3.7901640">
        <ele>8.0</ele>
        <time>2022-01-08T12:46:26Z</time>
      </trkpt>
      <trkpt lat="36.7456440" lon="-3.7901640">
        <ele>8.0</ele>
        <time>2022-01-08T12:46:27Z</time>
      </trkpt>
      <trkpt lat="36.7456440" lon="-3.7901640">
        <ele>8.0</ele>
        <time>2022-01-08T12:46:28Z</time>
      </trkpt>
      <trkpt lat="36.7456440" lon="-3.7901640">
        <ele>8.0</ele>
        <time>2022-01-08T12:46:29Z</time>
      </trkpt>
      <trkpt lat="36.7456440" lon="-3.7901640">
        <ele>8.0</ele>
        <time>2022-01-08T12:46:30Z</time>
      </trkpt>
      <trkpt lat="36.7456440" lon="-3.7901640">
        <ele>8.0</ele>
        <time>2022-01-08T12:46:31Z</time>
      </trkpt>
      <trkpt lat="36.7456440" lon="-3.7901640">
        <ele>8.0</ele>
        <time>2022-01-08T12:46:32Z</time>
      </trkpt>
      <trkpt lat="36.7456440" lon="-3.7901640">
        <ele>8.0</ele>
        <time>2022-01-08T12:46:33Z</time>
      </trkpt>
      <trkpt lat="36.7456440" lon="-3.7901640">
        <ele>8.0</ele>
        <time>2022-01-08T12:46:34Z</time>
      </trkpt>
      <trkpt lat="36.7456440" lon="-3.7901640">
        <ele>8.0</ele>
        <time>2022-01-08T12:46:35Z</time>
      </trkpt>
      <trkpt lat="36.7456440" lon="-3.7901640">
        <ele>8.0</ele>
        <time>2022-01-08T12:46:36Z</time>
      </trkpt>
      <trkpt lat="36.7456440" lon="-3.7901640">
        <ele>8.0</ele>
        <time>2022-01-08T12:46:37Z</time>
      </trkpt>
      <trkpt lat="36.7456440" lon="-3.7901640">
        <ele>8.0</ele>
        <time>2022-01-08T12:46:38Z</time>
      </trkpt>
      <trkpt lat="36.7456440" lon="-3.7901640">
        <ele>9.0</ele>
        <time>2022-01-08T12:46:39Z</time>
      </trkpt>
      <trkpt lat="36.7456440" lon="-3.7901640">
        <ele>9.0</ele>
        <time>2022-01-08T12:46:40Z</time>
      </trkpt>
      <trkpt lat="36.7456440" lon="-3.7901640">
        <ele>9.0</ele>
        <time>2022-01-08T12:46:41Z</time>
      </trkpt>
      <trkpt lat="36.7456440" lon="-3.7901640">
        <ele>9.0</ele>
        <time>2022-01-08T12:46:42Z</time>
      </trkpt>
      <trkpt lat="36.7456440" lon="-3.7901640">
        <ele>8.0</ele>
        <time>2022-01-08T12:46:43Z</time>
      </trkpt>
      <trkpt lat="36.7456440" lon="-3.7901640">
        <ele>8.0</ele>
        <time>2022-01-08T12:46:44Z</time>
      </trkpt>
      <trkpt lat="36.7456440" lon="-3.7901640">
        <ele>8.0</ele>
        <time>2022-01-08T12:46:45Z</time>
      </trkpt>
      <trkpt lat="36.7456440" lon="-3.7901640">
        <ele>8.0</ele>
        <time>2022-01-08T12:46:46Z</time>
      </trkpt>
      <trkpt lat="36.7456440" lon="-3.7901640">
        <ele>8.0</ele>
        <time>2022-01-08T12:46:47Z</time>
      </trkpt>
      <trkpt lat="36.7456440" lon="-3.7901640">
        <ele>8.0</ele>
        <time>2022-01-08T12:46:48Z</time>
      </trkpt>
      <trkpt lat="36.7456440" lon="-3.7901640">
        <ele>8.0</ele>
        <time>2022-01-08T12:46:49Z</time>
      </trkpt>
      <trkpt lat="36.7456440" lon="-3.7901640">
        <ele>8.0</ele>
        <time>2022-01-08T12:46:50Z</time>
      </trkpt>
      <trkpt lat="36.7456440" lon="-3.7901640">
        <ele>9.0</ele>
        <time>2022-01-08T12:46:51Z</time>
      </trkpt>
      <trkpt lat="36.7456440" lon="-3.7901640">
        <ele>9.0</ele>
        <time>2022-01-08T12:46:52Z</time>
      </trkpt>
      <trkpt lat="36.7456440" lon="-3.7901640">
        <ele>9.0</ele>
        <time>2022-01-08T12:46:53Z</time>
      </trkpt>
      <trkpt lat="36.7456440" lon="-3.7901640">
        <ele>9.0</ele>
        <time>2022-01-08T12:46:54Z</time>
      </trkpt>
      <trkpt lat="36.7456440" lon="-3.7901640">
        <ele>9.0</ele>
        <time>2022-01-08T12:46:55Z</time>
      </trkpt>
      <trkpt lat="36.7456440" lon="-3.7901640">
        <ele>9.0</ele>
        <time>2022-01-08T12:46:56Z</time>
      </trkpt>
      <trkpt lat="36.7456440" lon="-3.7901640">
        <ele>9.0</ele>
        <time>2022-01-08T12:46:57Z</time>
      </trkpt>
      <trkpt lat="36.7456440" lon="-3.7901640">
        <ele>9.0</ele>
        <time>2022-01-08T12:46:58Z</time>
      </trkpt>
      <trkpt lat="36.7456440" lon="-3.7901640">
        <ele>9.0</ele>
        <time>2022-01-08T12:46:59Z</time>
      </trkpt>
      <trkpt lat="36.7456440" lon="-3.7901640">
        <ele>9.0</ele>
        <time>2022-01-08T12:47:00Z</time>
      </trkpt>
      <trkpt lat="36.7456440" lon="-3.7901640">
        <ele>9.0</ele>
        <time>2022-01-08T12:47:01Z</time>
      </trkpt>
      <trkpt lat="36.7456440" lon="-3.7901640">
        <ele>9.0</ele>
        <time>2022-01-08T12:47:02Z</time>
      </trkpt>
      <trkpt lat="36.7456440" lon="-3.7901640">
        <ele>9.0</ele>
        <time>2022-01-08T12:47:03Z</time>
      </trkpt>
      <trkpt lat="36.7456440" lon="-3.7901640">
        <ele>9.0</ele>
        <time>2022-01-08T12:47:04Z</time>
      </trkpt>
      <trkpt lat="36.7456440" lon="-3.7901640">
        <ele>9.0</ele>
        <time>2022-01-08T12:47:05Z</time>
      </trkpt>
      <trkpt lat="36.7456440" lon="-3.7901640">
        <ele>9.0</ele>
        <time>2022-01-08T12:47:06Z</time>
      </trkpt>
      <trkpt lat="36.7456440" lon="-3.7901640">
        <ele>9.0</ele>
        <time>2022-01-08T12:47:07Z</time>
      </trkpt>
      <trkpt lat="36.7456440" lon="-3.7901640">
        <ele>9.0</ele>
        <time>2022-01-08T12:47:08Z</time>
      </trkpt>
      <trkpt lat="36.7456440" lon="-3.7901640">
        <ele>8.0</ele>
        <time>2022-01-08T12:47:09Z</time>
      </trkpt>
      <trkpt lat="36.7456440" lon="-3.7901640">
        <ele>8.0</ele>
        <time>2022-01-08T12:47:10Z</time>
      </trkpt>
      <trkpt lat="36.7456440" lon="-3.7901640">
        <ele>8.0</ele>
        <time>2022-01-08T12:47:11Z</time>
      </trkpt>
      <trkpt lat="36.7456440" lon="-3.7901640">
        <ele>8.0</ele>
        <time>2022-01-08T12:47:12Z</time>
      </trkpt>
      <trkpt lat="36.7456440" lon="-3.7901640">
        <ele>8.0</ele>
        <time>2022-01-08T12:47:13Z</time>
      </trkpt>
      <trkpt lat="36.7456440" lon="-3.7901640">
        <ele>8.0</ele>
        <time>2022-01-08T12:47:14Z</time>
      </trkpt>
      <trkpt lat="36.7456440" lon="-3.7901640">
        <ele>8.0</ele>
        <time>2022-01-08T12:47:15Z</time>
      </trkpt>
      <trkpt lat="36.7456440" lon="-3.7901640">
        <ele>8.0</ele>
        <time>2022-01-08T12:47:16Z</time>
      </trkpt>
      <trkpt lat="36.7456440" lon="-3.7901640">
        <ele>8.0</ele>
        <time>2022-01-08T12:47:17Z</time>
      </trkpt>
      <trkpt lat="36.7456440" lon="-3.7901640">
        <ele>8.0</ele>
        <time>2022-01-08T12:47:18Z</time>
      </trkpt>
      <trkpt lat="36.7456440" lon="-3.7901640">
        <ele>8.0</ele>
        <time>2022-01-08T12:47:19Z</time>
      </trkpt>
      <trkpt lat="36.7456440" lon="-3.7901640">
        <ele>8.0</ele>
        <time>2022-01-08T12:47:20Z</time>
      </trkpt>
      <trkpt lat="36.7456440" lon="-3.7901640">
        <ele>8.0</ele>
        <time>2022-01-08T12:47:21Z</time>
      </trkpt>
      <trkpt lat="36.7456440" lon="-3.7901640">
        <ele>8.0</ele>
        <time>2022-01-08T12:47:22Z</time>
      </trkpt>
      <trkpt lat="36.7456440" lon="-3.7901640">
        <ele>8.0</ele>
        <time>2022-01-08T12:47:23Z</time>
      </trkpt>
      <trkpt lat="36.7456440" lon="-3.7901640">
        <ele>8.0</ele>
        <time>2022-01-08T12:47:24Z</time>
      </trkpt>
      <trkpt lat="36.7456440" lon="-3.7901640">
        <ele>8.0</ele>
        <time>2022-01-08T12:47:25Z</time>
      </trkpt>
      <trkpt lat="36.7456440" lon="-3.7901640">
        <ele>8.0</ele>
        <time>2022-01-08T12:47:26Z</time>
      </trkpt>
      <trkpt lat="36.7456440" lon="-3.7901640">
        <ele>8.0</ele>
        <time>2022-01-08T12:47:27Z</time>
      </trkpt>
      <trkpt lat="36.7456440" lon="-3.7901640">
        <ele>8.0</ele>
        <time>2022-01-08T12:47:28Z</time>
      </trkpt>
      <trkpt lat="36.7456440" lon="-3.7901640">
        <ele>8.0</ele>
        <time>2022-01-08T12:47:29Z</time>
      </trkpt>
      <trkpt lat="36.7456440" lon="-3.7901640">
        <ele>8.0</ele>
        <time>2022-01-08T12:47:30Z</time>
      </trkpt>
      <trkpt lat="36.7456440" lon="-3.7901640">
        <ele>8.0</ele>
        <time>2022-01-08T12:47:31Z</time>
      </trkpt>
      <trkpt lat="36.7456440" lon="-3.7901640">
        <ele>8.0</ele>
        <time>2022-01-08T12:47:32Z</time>
      </trkpt>
      <trkpt lat="36.7456440" lon="-3.7901640">
        <ele>8.0</ele>
        <time>2022-01-08T12:47:33Z</time>
      </trkpt>
      <trkpt lat="36.7456440" lon="-3.7901640">
        <ele>8.0</ele>
        <time>2022-01-08T12:47:34Z</time>
      </trkpt>
      <trkpt lat="36.7456440" lon="-3.7901640">
        <ele>8.0</ele>
        <time>2022-01-08T12:47:35Z</time>
      </trkpt>
      <trkpt lat="36.7456440" lon="-3.7901640">
        <ele>8.0</ele>
        <time>2022-01-08T12:47:36Z</time>
      </trkpt>
      <trkpt lat="36.7456440" lon="-3.7901640">
        <ele>8.0</ele>
        <time>2022-01-08T12:47:37Z</time>
      </trkpt>
      <trkpt lat="36.7456440" lon="-3.7901640">
        <ele>8.0</ele>
        <time>2022-01-08T12:47:38Z</time>
      </trkpt>
      <trkpt lat="36.7456440" lon="-3.7901640">
        <ele>9.0</ele>
        <time>2022-01-08T12:47:39Z</time>
      </trkpt>
      <trkpt lat="36.7456440" lon="-3.7901640">
        <ele>9.0</ele>
        <time>2022-01-08T12:47:40Z</time>
      </trkpt>
      <trkpt lat="36.7456440" lon="-3.7901640">
        <ele>9.0</ele>
        <time>2022-01-08T12:47:41Z</time>
      </trkpt>
      <trkpt lat="36.7456440" lon="-3.7901640">
        <ele>9.0</ele>
        <time>2022-01-08T12:47:42Z</time>
      </trkpt>
      <trkpt lat="36.7456440" lon="-3.7901640">
        <ele>9.0</ele>
        <time>2022-01-08T12:47:43Z</time>
      </trkpt>
      <trkpt lat="36.7456440" lon="-3.7901640">
        <ele>9.0</ele>
        <time>2022-01-08T12:47:44Z</time>
      </trkpt>
      <trkpt lat="36.7456440" lon="-3.7901640">
        <ele>9.0</ele>
        <time>2022-01-08T12:47:45Z</time>
      </trkpt>
      <trkpt lat="36.7456440" lon="-3.7901640">
        <ele>9.0</ele>
        <time>2022-01-08T12:47:46Z</time>
      </trkpt>
      <trkpt lat="36.7456440" lon="-3.7901640">
        <ele>9.0</ele>
        <time>2022-01-08T12:47:47Z</time>
      </trkpt>
      <trkpt lat="36.7456440" lon="-3.7901640">
        <ele>9.0</ele>
        <time>2022-01-08T12:47:48Z</time>
      </trkpt>
      <trkpt lat="36.7456440" lon="-3.7901640">
        <ele>9.0</ele>
        <time>2022-01-08T12:47:49Z</time>
      </trkpt>
      <trkpt lat="36.7456440" lon="-3.7901640">
        <ele>9.0</ele>
        <time>2022-01-08T12:47:50Z</time>
      </trkpt>
      <trkpt lat="36.7456440" lon="-3.7901640">
        <ele>9.0</ele>
        <time>2022-01-08T12:47:51Z</time>
      </trkpt>
      <trkpt lat="36.7456440" lon="-3.7901640">
        <ele>9.0</ele>
        <time>2022-01-08T12:47:52Z</time>
      </trkpt>
      <trkpt lat="36.7456440" lon="-3.7901640">
        <ele>9.0</ele>
        <time>2022-01-08T12:47:53Z</time>
      </trkpt>
      <trkpt lat="36.7456440" lon="-3.7901640">
        <ele>9.0</ele>
        <time>2022-01-08T12:47:54Z</time>
      </trkpt>
      <trkpt lat="36.7456440" lon="-3.7901640">
        <ele>9.0</ele>
        <time>2022-01-08T12:47:55Z</time>
      </trkpt>
      <trkpt lat="36.7456440" lon="-3.7901640">
        <ele>9.0</ele>
        <time>2022-01-08T12:47:56Z</time>
      </trkpt>
      <trkpt lat="36.7456440" lon="-3.7901640">
        <ele>9.0</ele>
        <time>2022-01-08T12:47:57Z</time>
      </trkpt>
      <trkpt lat="36.7456440" lon="-3.7901640">
        <ele>9.0</ele>
        <time>2022-01-08T12:47:58Z</time>
      </trkpt>
      <trkpt lat="36.7456440" lon="-3.7901640">
        <ele>9.0</ele>
        <time>2022-01-08T12:47:59Z</time>
      </trkpt>
      <trkpt lat="36.7456440" lon="-3.7901640">
        <ele>9.0</ele>
        <time>2022-01-08T12:48:00Z</time>
      </trkpt>
      <trkpt lat="36.7456440" lon="-3.7901640">
        <ele>9.0</ele>
        <time>2022-01-08T12:48:01Z</time>
      </trkpt>
      <trkpt lat="36.7456440" lon="-3.7901640">
        <ele>9.0</ele>
        <time>2022-01-08T12:48:02Z</time>
      </trkpt>
      <trkpt lat="36.7456440" lon="-3.7901640">
        <ele>8.0</ele>
        <time>2022-01-08T12:48:03Z</time>
      </trkpt>
      <trkpt lat="36.7456440" lon="-3.7901640">
        <ele>8.0</ele>
        <time>2022-01-08T12:48:04Z</time>
      </trkpt>
      <trkpt lat="36.7456440" lon="-3.7901640">
        <ele>8.0</ele>
        <time>2022-01-08T12:48:05Z</time>
      </trkpt>
      <trkpt lat="36.7456440" lon="-3.7901640">
        <ele>9.0</ele>
        <time>2022-01-08T12:48:06Z</time>
      </trkpt>
      <trkpt lat="36.7456440" lon="-3.7901640">
        <ele>9.0</ele>
        <time>2022-01-08T12:48:07Z</time>
      </trkpt>
      <trkpt lat="36.7456440" lon="-3.7901640">
        <ele>9.0</ele>
        <time>2022-01-08T12:48:08Z</time>
      </trkpt>
      <trkpt lat="36.7456440" lon="-3.7901640">
        <ele>9.0</ele>
        <time>2022-01-08T12:48:09Z</time>
      </trkpt>
      <trkpt lat="36.7456440" lon="-3.7901640">
        <ele>9.0</ele>
        <time>2022-01-08T12:48:10Z</time>
      </trkpt>
      <trkpt lat="36.7456440" lon="-3.7901640">
        <ele>9.0</ele>
        <time>2022-01-08T12:48:11Z</time>
      </trkpt>
      <trkpt lat="36.7456440" lon="-3.7901640">
        <ele>9.0</ele>
        <time>2022-01-08T12:48:12Z</time>
      </trkpt>
      <trkpt lat="36.7456440" lon="-3.7901640">
        <ele>9.0</ele>
        <time>2022-01-08T12:48:13Z</time>
      </trkpt>
      <trkpt lat="36.7456440" lon="-3.7901640">
        <ele>6.0</ele>
        <time>2022-01-08T12:48:14Z</time>
      </trkpt>
      <trkpt lat="36.7456440" lon="-3.7901640">
        <ele>5.0</ele>
        <time>2022-01-08T12:48:15Z</time>
      </trkpt>
      <trkpt lat="36.7456440" lon="-3.7901640">
        <ele>3.0</ele>
        <time>2022-01-08T12:48:16Z</time>
      </trkpt>
      <trkpt lat="36.7456440" lon="-3.7901640">
        <ele>-2.0</ele>
        <time>2022-01-08T12:48:17Z</time>
      </trkpt>
      <trkpt lat="36.7456440" lon="-3.7901640">
        <ele>-5.0</ele>
        <time>2022-01-08T12:48:18Z</time>
      </trkpt>
      <trkpt lat="36.7456440" lon="-3.7901640">
        <ele>-8.0</ele>
        <time>2022-01-08T12:48:19Z</time>
      </trkpt>
      <trkpt lat="36.7456440" lon="-3.7901640">
        <ele>-10.0</ele>
        <time>2022-01-08T12:48:20Z</time>
      </trkpt>
      <trkpt lat="36.7456440" lon="-3.7901640">
        <ele>-10.0</ele>
        <time>2022-01-08T12:48:21Z</time>
      </trkpt>
      <trkpt lat="36.7456440" lon="-3.7901640">
        <ele>-11.0</ele>
        <time>2022-01-08T12:48:22Z</time>
      </trkpt>
      <trkpt lat="36.7456440" lon="-3.7901640">
        <ele>-12.0</ele>
        <time>2022-01-08T12:48:23Z</time>
      </trkpt>
      <trkpt lat="36.7456440" lon="-3.7901640">
        <ele>-13.0</ele>
        <time>2022-01-08T12:48:24Z</time>
      </trkpt>
      <trkpt lat="36.7456440" lon="-3.7901640">
        <ele>-14.0</ele>
        <time>2022-01-08T12:48:25Z</time>
      </trkpt>
      <trkpt lat="36.7456440" lon="-3.7901640">
        <ele>-14.0</ele>
        <time>2022-01-08T12:48:26Z</time>
      </trkpt>
      <trkpt lat="36.7456440" lon="-3.7901640">
        <ele>-14.0</ele>
        <time>2022-01-08T12:48:27Z</time>
      </trkpt>
      <trkpt lat="36.7456440" lon="-3.7901640">
        <ele>-15.0</ele>
        <time>2022-01-08T12:48:28Z</time>
      </trkpt>
      <trkpt lat="36.7456440" lon="-3.7901640">
        <ele>-15.0</ele>
        <time>2022-01-08T12:48:29Z</time>
      </trkpt>
      <trkpt lat="36.7456440" lon="-3.7901640">
        <ele>-15.0</ele>
        <time>2022-01-08T12:48:30Z</time>
      </trkpt>
      <trkpt lat="36.7456440" lon="-3.7901640">
        <ele>-15.0</ele>
        <time>2022-01-08T12:48:31Z</time>
      </trkpt>
      <trkpt lat="36.7456440" lon="-3.7901640">
        <ele>-15.0</ele>
        <time>2022-01-08T12:48:32Z</time>
      </trkpt>
      <trkpt lat="36.7456440" lon="-3.7901640">
        <ele>-15.0</ele>
        <time>2022-01-08T12:48:33Z</time>
      </trkpt>
      <trkpt lat="36.7456440" lon="-3.7901640">
        <ele>-15.0</ele>
        <time>2022-01-08T12:48:34Z</time>
      </trkpt>
      <trkpt lat="36.7456440" lon="-3.7901640">
        <ele>-15.0</ele>
        <time>2022-01-08T12:48:35Z</time>
      </trkpt>
      <trkpt lat="36.7456440" lon="-3.7901640">
        <ele>-15.0</ele>
        <time>2022-01-08T12:48:36Z</time>
      </trkpt>
      <trkpt lat="36.7456440" lon="-3.7901640">
        <ele>-15.0</ele>
        <time>2022-01-08T12:48:37Z</time>
      </trkpt>
      <trkpt lat="36.7456440" lon="-3.7901640">
        <ele>-16.0</ele>
        <time>2022-01-08T12:48:38Z</time>
      </trkpt>
      <trkpt lat="36.7456440" lon="-3.7901640">
        <ele>-16.0</ele>
        <time>2022-01-08T12:48:39Z</time>
      </trkpt>
      <trkpt lat="36.7456440" lon="-3.7901640">
        <ele>-16.0</ele>
        <time>2022-01-08T12:48:40Z</time>
      </trkpt>
      <trkpt lat="36.7456440" lon="-3.7901640">
        <ele>-16.0</ele>
        <time>2022-01-08T12:48:41Z</time>
      </trkpt>
      <trkpt lat="36.7456440" lon="-3.7901640">
        <ele>-16.0</ele>
        <time>2022-01-08T12:48:42Z</time>
      </trkpt>
      <trkpt lat="36.7456440" lon="-3.7901640">
        <ele>-16.0</ele>
        <time>2022-01-08T12:48:43Z</time>
      </trkpt>
      <trkpt lat="36.7456440" lon="-3.7901640">
        <ele>-16.0</ele>
        <time>2022-01-08T12:48:44Z</time>
      </trkpt>
      <trkpt lat="36.7456440" lon="-3.7901640">
        <ele>-15.0</ele>
        <time>2022-01-08T12:48:45Z</time>
      </trkpt>
      <trkpt lat="36.7456440" lon="-3.7901640">
        <ele>-15.0</ele>
        <time>2022-01-08T12:48:46Z</time>
      </trkpt>
      <trkpt lat="36.7456440" lon="-3.7901640">
        <ele>-15.0</ele>
        <time>2022-01-08T12:48:47Z</time>
      </trkpt>
      <trkpt lat="36.7456440" lon="-3.7901640">
        <ele>-15.0</ele>
        <time>2022-01-08T12:48:48Z</time>
      </trkpt>
      <trkpt lat="36.7456440" lon="-3.7901640">
        <ele>-15.0</ele>
        <time>2022-01-08T12:48:49Z</time>
      </trkpt>
      <trkpt lat="36.7456440" lon="-3.7901640">
        <ele>-14.0</ele>
        <time>2022-01-08T12:48:50Z</time>
      </trkpt>
      <trkpt lat="36.7456440" lon="-3.7901640">
        <ele>-14.0</ele>
        <time>2022-01-08T12:48:51Z</time>
      </trkpt>
      <trkpt lat="36.7456440" lon="-3.7901640">
        <ele>-14.0</ele>
        <time>2022-01-08T12:48:52Z</time>
      </trkpt>
      <trkpt lat="36.7456440" lon="-3.7901640">
        <ele>-13.0</ele>
        <time>2022-01-08T12:48:53Z</time>
      </trkpt>
      <trkpt lat="36.7456440" lon="-3.7901640">
        <ele>-12.0</ele>
        <time>2022-01-08T12:48:54Z</time>
      </trkpt>
      <trkpt lat="36.7456440" lon="-3.7901640">
        <ele>-11.0</ele>
        <time>2022-01-08T12:48:55Z</time>
      </trkpt>
      <trkpt lat="36.7456440" lon="-3.7901640">
        <ele>-11.0</ele>
        <time>2022-01-08T12:48:56Z</time>
      </trkpt>
      <trkpt lat="36.7456440" lon="-3.7901640">
        <ele>-10.0</ele>
        <time>2022-01-08T12:48:57Z</time>
      </trkpt>
      <trkpt lat="36.7456440" lon="-3.7901640">
        <ele>-10.0</ele>
        <time>2022-01-08T12:48:58Z</time>
      </trkpt>
      <trkpt lat="36.7456440" lon="-3.7901640">
        <ele>-10.0</ele>
        <time>2022-01-08T12:48:59Z</time>
      </trkpt>
      <trkpt lat="36.7456440" lon="-3.7901640">
        <ele>-9.0</ele>
        <time>2022-01-08T12:49:00Z</time>
      </trkpt>
      <trkpt lat="36.7456440" lon="-3.7901640">
        <ele>-9.0</ele>
        <time>2022-01-08T12:49:01Z</time>
      </trkpt>
      <trkpt lat="36.7456440" lon="-3.7901640">
        <ele>-9.0</ele>
        <time>2022-01-08T12:49:02Z</time>
      </trkpt>
      <trkpt lat="36.7456440" lon="-3.7901640">
        <ele>-9.0</ele>
        <time>2022-01-08T12:49:03Z</time>
      </trkpt>
      <trkpt lat="36.7456440" lon="-3.7901640">
        <ele>-9.0</ele>
        <time>2022-01-08T12:49:04Z</time>
      </trkpt>
      <trkpt lat="36.7456440" lon="-3.7901640">
        <ele>-9.0</ele>
        <time>2022-01-08T12:49:05Z</time>
      </trkpt>
      <trkpt lat="36.7456440" lon="-3.7901640">
        <ele>-8.0</ele>
        <time>2022-01-08T12:49:06Z</time>
      </trkpt>
      <trkpt lat="36.7456440" lon="-3.7901640">
        <ele>-7.0</ele>
        <time>2022-01-08T12:49:07Z</time>
      </trkpt>
      <trkpt lat="36.7456440" lon="-3.7901640">
        <ele>-7.0</ele>
        <time>2022-01-08T12:49:08Z</time>
      </trkpt>
      <trkpt lat="36.7456440" lon="-3.7901640">
        <ele>-7.0</ele>
        <time>2022-01-08T12:49:09Z</time>
      </trkpt>
      <trkpt lat="36.7456440" lon="-3.7901640">
        <ele>-7.0</ele>
        <time>2022-01-08T12:49:10Z</time>
      </trkpt>
      <trkpt lat="36.7456440" lon="-3.7901640">
        <ele>-7.0</ele>
        <time>2022-01-08T12:49:11Z</time>
      </trkpt>
      <trkpt lat="36.7456440" lon="-3.7901640">
        <ele>-6.0</ele>
        <time>2022-01-08T12:49:12Z</time>
      </trkpt>
      <trkpt lat="36.7456440" lon="-3.7901640">
        <ele>-6.0</ele>
        <time>2022-01-08T12:49:13Z</time>
      </trkpt>
      <trkpt lat="36.7456440" lon="-3.7901640">
        <ele>-6.0</ele>
        <time>2022-01-08T12:49:14Z</time>
      </trkpt>
      <trkpt lat="36.7456440" lon="-3.7901640">
        <ele>-5.0</ele>
        <time>2022-01-08T12:49:15Z</time>
      </trkpt>
      <trkpt lat="36.7456440" lon="-3.7901640">
        <ele>-5.0</ele>
        <time>2022-01-08T12:49:16Z</time>
      </trkpt>
      <trkpt lat="36.7456440" lon="-3.7901640">
        <ele>-4.0</ele>
        <time>2022-01-08T12:49:17Z</time>
      </trkpt>
      <trkpt lat="36.7456440" lon="-3.7901640">
        <ele>-4.0</ele>
        <time>2022-01-08T12:49:18Z</time>
      </trkpt>
      <trkpt lat="36.7456440" lon="-3.7901640">
        <ele>-4.0</ele>
        <time>2022-01-08T12:49:19Z</time>
      </trkpt>
      <trkpt lat="36.7456440" lon="-3.7901640">
        <ele>-4.0</ele>
        <time>2022-01-08T12:49:20Z</time>
      </trkpt>
      <trkpt lat="36.7456440" lon="-3.7901640">
        <ele>-4.0</ele>
        <time>2022-01-08T12:49:21Z</time>
      </trkpt>
      <trkpt lat="36.7456440" lon="-3.7901640">
        <ele>-4.0</ele>
        <time>2022-01-08T12:49:22Z</time>
      </trkpt>
      <trkpt lat="36.7456440" lon="-3.7901640">
        <ele>-4.0</ele>
        <time>2022-01-08T12:49:23Z</time>
      </trkpt>
      <trkpt lat="36.7456440" lon="-3.7901640">
        <ele>-4.0</ele>
        <time>2022-01-08T12:49:24Z</time>
      </trkpt>
      <trkpt lat="36.7456440" lon="-3.7901640">
        <ele>-4.0</ele>
        <time>2022-01-08T12:49:25Z</time>
      </trkpt>
      <trkpt lat="36.7456440" lon="-3.7901640">
        <ele>-3.0</ele>
        <time>2022-01-08T12:49:26Z</time>
      </trkpt>
      <trkpt lat="36.7456440" lon="-3.7901640">
        <ele>-2.0</ele>
        <time>2022-01-08T12:49:27Z</time>
      </trkpt>
      <trkpt lat="36.7456440" lon="-3.7901640">
        <ele>-2.0</ele>
        <time>2022-01-08T12:49:28Z</time>
      </trkpt>
      <trkpt lat="36.7456440" lon="-3.7901640">
        <ele>-2.0</ele>
        <time>2022-01-08T12:49:29Z</time>
      </trkpt>
      <trkpt lat="36.7456440" lon="-3.7901640">
        <ele>-2.0</ele>
        <time>2022-01-08T12:49:30Z</time>
      </trkpt>
      <trkpt lat="36.7456440" lon="-3.7901640">
        <ele>-2.0</ele>
        <time>2022-01-08T12:49:31Z</time>
      </trkpt>
      <trkpt lat="36.7456440" lon="-3.7901640">
        <ele>-1.0</ele>
        <time>2022-01-08T12:49:32Z</time>
      </trkpt>
      <trkpt lat="36.7456440" lon="-3.7901640">
        <ele>-1.0</ele>
        <time>2022-01-08T12:49:33Z</time>
      </trkpt>
      <trkpt lat="36.7456440" lon="-3.7901640">
        <ele>-1.0</ele>
        <time>2022-01-08T12:49:34Z</time>
      </trkpt>
      <trkpt lat="36.7456440" lon="-3.7901640">
        <ele>-1.0</ele>
        <time>2022-01-08T12:49:35Z</time>
      </trkpt>
      <trkpt lat="36.7456440" lon="-3.7901640">
        <ele>-1.0</ele>
        <time>2022-01-08T12:49:36Z</time>
      </trkpt>
      <trkpt lat="36.7456440" lon="-3.7901640">
        <ele>0.0</ele>
        <time>2022-01-08T12:49:37Z</time>
      </trkpt>
      <trkpt lat="36.7456440" lon="-3.7901640">
        <ele>0.0</ele>
        <time>2022-01-08T12:49:38Z</time>
      </trkpt>
      <trkpt lat="36.7456440" lon="-3.7901640">
        <ele>1.0</ele>
        <time>2022-01-08T12:49:39Z</time>
      </trkpt>
      <trkpt lat="36.7456440" lon="-3.7901640">
        <ele>1.0</ele>
        <time>2022-01-08T12:49:40Z</time>
      </trkpt>
      <trkpt lat="36.7456440" lon="-3.7901640">
        <ele>2.0</ele>
        <time>2022-01-08T12:49:41Z</time>
      </trkpt>
      <trkpt lat="36.7456440" lon="-3.7901640">
        <ele>2.0</ele>
        <time>2022-01-08T12:49:42Z</time>
      </trkpt>
      <trkpt lat="36.7456440" lon="-3.7901640">
        <ele>2.0</ele>
        <time>2022-01-08T12:49:43Z</time>
      </trkpt>
      <trkpt lat="36.7456440" lon="-3.7901640">
        <ele>3.0</ele>
        <time>2022-01-08T12:49:44Z</time>
      </trkpt>
      <trkpt lat="36.7456440" lon="-3.7901640">
        <ele>3.0</ele>
        <time>2022-01-08T12:49:45Z</time>
      </trkpt>
      <trkpt lat="36.7456440" lon="-3.7901640">
        <ele>3.0</ele>
        <time>2022-01-08T12:49:46Z</time>
      </trkpt>
      <trkpt lat="36.7456440" lon="-3.7901640">
        <ele>4.0</ele>
        <time>2022-01-08T12:49:47Z</time>
      </trkpt>
      <trkpt lat="36.7456440" lon="-3.7901640">
        <ele>4.0</ele>
        <time>2022-01-08T12:49:48Z</time>
      </trkpt>
      <trkpt lat="36.7456440" lon="-3.7901640">
        <ele>4.0</ele>
        <time>2022-01-08T12:49:49Z</time>
      </trkpt>
      <trkpt lat="36.7456440" lon="-3.7901640">
        <ele>5.0</ele>
        <time>2022-01-08T12:49:50Z</time>
      </trkpt>
      <trkpt lat="36.7456440" lon="-3.7901640">
        <ele>5.0</ele>
        <time>2022-01-08T12:49:51Z</time>
      </trkpt>
      <trkpt lat="36.7456440" lon="-3.7901640">
        <ele>5.0</ele>
        <time>2022-01-08T12:49:52Z</time>
      </trkpt>
      <trkpt lat="36.7456440" lon="-3.7901640">
        <ele>5.0</ele>
        <time>2022-01-08T12:49:53Z</time>
      </trkpt>
      <trkpt lat="36.7456440" lon="-3.7901640">
        <ele>5.0</ele>
        <time>2022-01-08T12:49:54Z</time>
      </trkpt>
      <trkpt lat="36.7456440" lon="-3.7901640">
        <ele>5.0</ele>
        <time>2022-01-08T12:49:55Z</time>
      </trkpt>
      <trkpt lat="36.7456440" lon="-3.7901640">
        <ele>6.0</ele>
        <time>2022-01-08T12:49:56Z</time>
      </trkpt>
      <trkpt lat="36.7456440" lon="-3.7901640">
        <ele>6.0</ele>
        <time>2022-01-08T12:49:57Z</time>
      </trkpt>
      <trkpt lat="36.7456440" lon="-3.7901640">
        <ele>6.0</ele>
        <time>2022-01-08T12:49:58Z</time>
      </trkpt>
      <trkpt lat="36.7456440" lon="-3.7901640">
        <ele>6.0</ele>
        <time>2022-01-08T12:49:59Z</time>
      </trkpt>
      <trkpt lat="36.7456440" lon="-3.7901640">
        <ele>6.0</ele>
        <time>2022-01-08T12:50:00Z</time>
      </trkpt>
      <trkpt lat="36.7456440" lon="-3.7901640">
        <ele>6.0</ele>
        <time>2022-01-08T12:50:01Z</time>
      </trkpt>
      <trkpt lat="36.7456440" lon="-3.7901640">
        <ele>6.0</ele>
        <time>2022-01-08T12:50:02Z</time>
      </trkpt>
      <trkpt lat="36.7456440" lon="-3.7901640">
        <ele>7.0</ele>
        <time>2022-01-08T12:50:03Z</time>
      </trkpt>
      <trkpt lat="36.7456440" lon="-3.7901640">
        <ele>7.0</ele>
        <time>2022-01-08T12:50:04Z</time>
      </trkpt>
      <trkpt lat="36.7456440" lon="-3.7901640">
        <ele>7.0</ele>
        <time>2022-01-08T12:50:05Z</time>
      </trkpt>
      <trkpt lat="36.7456440" lon="-3.7901640">
        <ele>7.0</ele>
        <time>2022-01-08T12:50:06Z</time>
      </trkpt>
      <trkpt lat="36.7456440" lon="-3.7901640">
        <ele>7.0</ele>
        <time>2022-01-08T12:50:07Z</time>
      </trkpt>
      <trkpt lat="36.7456440" lon="-3.7901640">
        <ele>7.0</ele>
        <time>2022-01-08T12:50:08Z</time>
      </trkpt>
      <trkpt lat="36.7456440" lon="-3.7901640">
        <ele>7.0</ele>
        <time>2022-01-08T12:50:09Z</time>
      </trkpt>
      <trkpt lat="36.7456440" lon="-3.7901640">
        <ele>7.0</ele>
        <time>2022-01-08T12:50:10Z</time>
      </trkpt>
      <trkpt lat="36.7456440" lon="-3.7901640">
        <ele>7.0</ele>
        <time>2022-01-08T12:50:11Z</time>
      </trkpt>
      <trkpt lat="36.7456440" lon="-3.7901640">
        <ele>7.0</ele>
        <time>2022-01-08T12:50:12Z</time>
      </trkpt>
      <trkpt lat="36.7456440" lon="-3.7901640">
        <ele>7.0</ele>
        <time>2022-01-08T12:50:13Z</time>
      </trkpt>
      <trkpt lat="36.7456440" lon="-3.7901640">
        <ele>7.0</ele>
        <time>2022-01-08T12:50:14Z</time>
      </trkpt>
      <trkpt lat="36.7456440" lon="-3.7901640">
        <ele>7.0</ele>
        <time>2022-01-08T12:50:15Z</time>
      </trkpt>
      <trkpt lat="36.7456440" lon="-3.7901640">
        <ele>7.0</ele>
        <time>2022-01-08T12:50:16Z</time>
      </trkpt>
      <trkpt lat="36.7456440" lon="-3.7901640">
        <ele>7.0</ele>
        <time>2022-01-08T12:50:17Z</time>
      </trkpt>
      <trkpt lat="36.7456440" lon="-3.7901640">
        <ele>7.0</ele>
        <time>2022-01-08T12:50:18Z</time>
      </trkpt>
      <trkpt lat="36.7456440" lon="-3.7901640">
        <ele>7.0</ele>
        <time>2022-01-08T12:50:19Z</time>
      </trkpt>
      <trkpt lat="36.7456440" lon="-3.7901640">
        <ele>7.0</ele>
        <time>2022-01-08T12:50:20Z</time>
      </trkpt>
      <trkpt lat="36.7456440" lon="-3.7901640">
        <ele>7.0</ele>
        <time>2022-01-08T12:50:21Z</time>
      </trkpt>
      <trkpt lat="36.7456440" lon="-3.7901640">
        <ele>7.0</ele>
        <time>2022-01-08T12:50:22Z</time>
      </trkpt>
      <trkpt lat="36.7456440" lon="-3.7901640">
        <ele>7.0</ele>
        <time>2022-01-08T12:50:23Z</time>
      </trkpt>
      <trkpt lat="36.7456440" lon="-3.7901640">
        <ele>7.0</ele>
        <time>2022-01-08T12:50:24Z</time>
      </trkpt>
      <trkpt lat="36.7456440" lon="-3.7901640">
        <ele>7.0</ele>
        <time>2022-01-08T12:50:25Z</time>
      </trkpt>
      <trkpt lat="36.7456440" lon="-3.7901640">
        <ele>7.0</ele>
        <time>2022-01-08T12:50:26Z</time>
      </trkpt>
      <trkpt lat="36.7456440" lon="-3.7901640">
        <ele>7.0</ele>
        <time>2022-01-08T12:50:27Z</time>
      </trkpt>
      <trkpt lat="36.7456440" lon="-3.7901640">
        <ele>7.0</ele>
        <time>2022-01-08T12:50:28Z</time>
      </trkpt>
      <trkpt lat="36.7456440" lon="-3.7901640">
        <ele>7.0</ele>
        <time>2022-01-08T12:50:29Z</time>
      </trkpt>
      <trkpt lat="36.7456440" lon="-3.7901640">
        <ele>7.0</ele>
        <time>2022-01-08T12:50:30Z</time>
      </trkpt>
      <trkpt lat="36.7456440" lon="-3.7901640">
        <ele>7.0</ele>
        <time>2022-01-08T12:50:31Z</time>
      </trkpt>
      <trkpt lat="36.7456440" lon="-3.7901640">
        <ele>7.0</ele>
        <time>2022-01-08T12:50:32Z</time>
      </trkpt>
      <trkpt lat="36.7456440" lon="-3.7901640">
        <ele>7.0</ele>
        <time>2022-01-08T12:50:33Z</time>
      </trkpt>
      <trkpt lat="36.7456440" lon="-3.7901640">
        <ele>7.0</ele>
        <time>2022-01-08T12:50:34Z</time>
      </trkpt>
      <trkpt lat="36.7456440" lon="-3.7901640">
        <ele>7.0</ele>
        <time>2022-01-08T12:50:35Z</time>
      </trkpt>
      <trkpt lat="36.7456440" lon="-3.7901640">
        <ele>7.0</ele>
        <time>2022-01-08T12:50:36Z</time>
      </trkpt>
      <trkpt lat="36.7456440" lon="-3.7901640">
        <ele>7.0</ele>
        <time>2022-01-08T12:50:37Z</time>
      </trkpt>
      <trkpt lat="36.7456440" lon="-3.7901640">
        <ele>7.0</ele>
        <time>2022-01-08T12:50:38Z</time>
      </trkpt>
      <trkpt lat="36.7456440" lon="-3.7901640">
        <ele>7.0</ele>
        <time>2022-01-08T12:50:39Z</time>
      </trkpt>
      <trkpt lat="36.7456440" lon="-3.7901640">
        <ele>7.0</ele>
        <time>2022-01-08T12:50:40Z</time>
      </trkpt>
      <trkpt lat="36.7456440" lon="-3.7901640">
        <ele>8.0</ele>
        <time>2022-01-08T12:50:41Z</time>
      </trkpt>
      <trkpt lat="36.7456440" lon="-3.7901640">
        <ele>8.0</ele>
        <time>2022-01-08T12:50:42Z</time>
      </trkpt>
      <trkpt lat="36.7456440" lon="-3.7901640">
        <ele>8.0</ele>
        <time>2022-01-08T12:50:43Z</time>
      </trkpt>
      <trkpt lat="36.7456440" lon="-3.7901640">
        <ele>7.0</ele>
        <time>2022-01-08T12:50:44Z</time>
      </trkpt>
      <trkpt lat="36.7456440" lon="-3.7901640">
        <ele>8.0</ele>
        <time>2022-01-08T12:50:45Z</time>
      </trkpt>
      <trkpt lat="36.7456440" lon="-3.7901640">
        <ele>8.0</ele>
        <time>2022-01-08T12:50:46Z</time>
      </trkpt>
      <trkpt lat="36.7456440" lon="-3.7901640">
        <ele>8.0</ele>
        <time>2022-01-08T12:50:47Z</time>
      </trkpt>
      <trkpt lat="36.7456440" lon="-3.7901640">
        <ele>8.0</ele>
        <time>2022-01-08T12:50:48Z</time>
      </trkpt>
      <trkpt lat="36.7456440" lon="-3.7901640">
        <ele>8.0</ele>
        <time>2022-01-08T12:50:49Z</time>
      </trkpt>
      <trkpt lat="36.7456440" lon="-3.7901640">
        <ele>8.0</ele>
        <time>2022-01-08T12:50:50Z</time>
      </trkpt>
      <trkpt lat="36.7456440" lon="-3.7901640">
        <ele>8.0</ele>
        <time>2022-01-08T12:50:51Z</time>
      </trkpt>
      <trkpt lat="36.7456440" lon="-3.7901640">
        <ele>8.0</ele>
        <time>2022-01-08T12:50:52Z</time>
      </trkpt>
      <trkpt lat="36.7456440" lon="-3.7901640">
        <ele>8.0</ele>
        <time>2022-01-08T12:50:53Z</time>
      </trkpt>
      <trkpt lat="36.7456440" lon="-3.7901640">
        <ele>8.0</ele>
        <time>2022-01-08T12:50:54Z</time>
      </trkpt>
      <trkpt lat="36.7456440" lon="-3.7901640">
        <ele>8.0</ele>
        <time>2022-01-08T12:50:55Z</time>
      </trkpt>
      <trkpt lat="36.7456440" lon="-3.7901640">
        <ele>8.0</ele>
        <time>2022-01-08T12:50:56Z</time>
      </trkpt>
      <trkpt lat="36.7456440" lon="-3.7901640">
        <ele>8.0</ele>
        <time>2022-01-08T12:50:57Z</time>
      </trkpt>
      <trkpt lat="36.7456440" lon="-3.7901640">
        <ele>8.0</ele>
        <time>2022-01-08T12:50:58Z</time>
      </trkpt>
      <trkpt lat="36.7456440" lon="-3.7901640">
        <ele>8.0</ele>
        <time>2022-01-08T12:50:59Z</time>
      </trkpt>
      <trkpt lat="36.7456440" lon="-3.7901640">
        <ele>8.0</ele>
        <time>2022-01-08T12:51:00Z</time>
      </trkpt>
      <trkpt lat="36.7456440" lon="-3.7901640">
        <ele>8.0</ele>
        <time>2022-01-08T12:51:01Z</time>
      </trkpt>
      <trkpt lat="36.7456440" lon="-3.7901640">
        <ele>8.0</ele>
        <time>2022-01-08T12:51:02Z</time>
      </trkpt>
      <trkpt lat="36.7456440" lon="-3.7901640">
        <ele>8.0</ele>
        <time>2022-01-08T12:51:03Z</time>
      </trkpt>
      <trkpt lat="36.7456440" lon="-3.7901640">
        <ele>8.0</ele>
        <time>2022-01-08T12:51:04Z</time>
      </trkpt>
      <trkpt lat="36.7456440" lon="-3.7901640">
        <ele>8.0</ele>
        <time>2022-01-08T12:51:05Z</time>
      </trkpt>
      <trkpt lat="36.7456440" lon="-3.7901640">
        <ele>8.0</ele>
        <time>2022-01-08T12:51:06Z</time>
      </trkpt>
      <trkpt lat="36.7456440" lon="-3.7901640">
        <ele>8.0</ele>
        <time>2022-01-08T12:51:07Z</time>
      </trkpt>
      <trkpt lat="36.7456440" lon="-3.7901640">
        <ele>8.0</ele>
        <time>2022-01-08T12:51:08Z</time>
      </trkpt>
      <trkpt lat="36.7456440" lon="-3.7901640">
        <ele>8.0</ele>
        <time>2022-01-08T12:51:09Z</time>
      </trkpt>
      <trkpt lat="36.7456440" lon="-3.7901640">
        <ele>8.0</ele>
        <time>2022-01-08T12:51:10Z</time>
      </trkpt>
      <trkpt lat="36.7456440" lon="-3.7901640">
        <ele>8.0</ele>
        <time>2022-01-08T12:51:11Z</time>
      </trkpt>
      <trkpt lat="36.7456440" lon="-3.7901640">
        <ele>8.0</ele>
        <time>2022-01-08T12:51:12Z</time>
      </trkpt>
      <trkpt lat="36.7456440" lon="-3.7901640">
        <ele>8.0</ele>
        <time>2022-01-08T12:51:13Z</time>
      </trkpt>
      <trkpt lat="36.7456440" lon="-3.7901640">
        <ele>8.0</ele>
        <time>2022-01-08T12:51:14Z</time>
      </trkpt>
      <trkpt lat="36.7456440" lon="-3.7901640">
        <ele>8.0</ele>
        <time>2022-01-08T12:51:15Z</time>
      </trkpt>
      <trkpt lat="36.7456440" lon="-3.7901640">
        <ele>8.0</ele>
        <time>2022-01-08T12:51:16Z</time>
      </trkpt>
      <trkpt lat="36.7456440" lon="-3.7901640">
        <ele>8.0</ele>
        <time>2022-01-08T12:51:17Z</time>
      </trkpt>
      <trkpt lat="36.7456440" lon="-3.7901640">
        <ele>8.0</ele>
        <time>2022-01-08T12:51:18Z</time>
      </trkpt>
      <trkpt lat="36.7456440" lon="-3.7901640">
        <ele>8.0</ele>
        <time>2022-01-08T12:51:19Z</time>
      </trkpt>
      <trkpt lat="36.7456440" lon="-3.7901640">
        <ele>8.0</ele>
        <time>2022-01-08T12:51:20Z</time>
      </trkpt>
      <trkpt lat="36.7456440" lon="-3.7901640">
        <ele>8.0</ele>
        <time>2022-01-08T12:51:21Z</time>
      </trkpt>
      <trkpt lat="36.7456440" lon="-3.7901640">
        <ele>8.0</ele>
        <time>2022-01-08T12:51:22Z</time>
      </trkpt>
      <trkpt lat="36.7456440" lon="-3.7901640">
        <ele>8.0</ele>
        <time>2022-01-08T12:51:23Z</time>
      </trkpt>
      <trkpt lat="36.7456440" lon="-3.7901640">
        <ele>8.0</ele>
        <time>2022-01-08T12:51:24Z</time>
      </trkpt>
      <trkpt lat="36.7456440" lon="-3.7901640">
        <ele>8.0</ele>
        <time>2022-01-08T12:51:25Z</time>
      </trkpt>
      <trkpt lat="36.7456440" lon="-3.7901640">
        <ele>8.0</ele>
        <time>2022-01-08T12:51:26Z</time>
      </trkpt>
      <trkpt lat="36.7456440" lon="-3.7901640">
        <ele>8.0</ele>
        <time>2022-01-08T12:51:27Z</time>
      </trkpt>
      <trkpt lat="36.7456440" lon="-3.7901640">
        <ele>8.0</ele>
        <time>2022-01-08T12:51:28Z</time>
      </trkpt>
      <trkpt lat="36.7456440" lon="-3.7901640">
        <ele>8.0</ele>
        <time>2022-01-08T12:51:29Z</time>
      </trkpt>
      <trkpt lat="36.7456440" lon="-3.7901640">
        <ele>7.0</ele>
        <time>2022-01-08T12:51:30Z</time>
      </trkpt>
      <trkpt lat="36.7456440" lon="-3.7901640">
        <ele>7.0</ele>
        <time>2022-01-08T12:51:31Z</time>
      </trkpt>
      <trkpt lat="36.7456440" lon="-3.7901640">
        <ele>7.0</ele>
        <time>2022-01-08T12:51:32Z</time>
      </trkpt>
      <trkpt lat="36.7456440" lon="-3.7901640">
        <ele>7.0</ele>
        <time>2022-01-08T12:51:33Z</time>
      </trkpt>
      <trkpt lat="36.7456440" lon="-3.7901640">
        <ele>7.0</ele>
        <time>2022-01-08T12:51:34Z</time>
      </trkpt>
      <trkpt lat="36.7456440" lon="-3.7901640">
        <ele>7.0</ele>
        <time>2022-01-08T12:51:35Z</time>
      </trkpt>
      <trkpt lat="36.7456440" lon="-3.7901640">
        <ele>7.0</ele>
        <time>2022-01-08T12:51:36Z</time>
      </trkpt>
      <trkpt lat="36.7456440" lon="-3.7901640">
        <ele>7.0</ele>
        <time>2022-01-08T12:51:37Z</time>
      </trkpt>
      <trkpt lat="36.7456440" lon="-3.7901640">
        <ele>7.0</ele>
        <time>2022-01-08T12:51:38Z</time>
      </trkpt>
      <trkpt lat="36.7456440" lon="-3.7901640">
        <ele>8.0</ele>
        <time>2022-01-08T12:51:39Z</time>
      </trkpt>
      <trkpt lat="36.7456440" lon="-3.7901640">
        <ele>8.0</ele>
        <time>2022-01-08T12:51:40Z</time>
      </trkpt>
      <trkpt lat="36.7456440" lon="-3.7901640">
        <ele>8.0</ele>
        <time>2022-01-08T12:51:41Z</time>
      </trkpt>
      <trkpt lat="36.7456440" lon="-3.7901640">
        <ele>8.0</ele>
        <time>2022-01-08T12:51:42Z</time>
      </trkpt>
      <trkpt lat="36.7456440" lon="-3.7901640">
        <ele>8.0</ele>
        <time>2022-01-08T12:51:43Z</time>
      </trkpt>
      <trkpt lat="36.7456440" lon="-3.7901640">
        <ele>8.0</ele>
        <time>2022-01-08T12:51:44Z</time>
      </trkpt>
      <trkpt lat="36.7456440" lon="-3.7901640">
        <ele>8.0</ele>
        <time>2022-01-08T12:51:45Z</time>
      </trkpt>
      <trkpt lat="36.7456440" lon="-3.7901640">
        <ele>8.0</ele>
        <time>2022-01-08T12:51:46Z</time>
      </trkpt>
      <trkpt lat="36.7456440" lon="-3.7901640">
        <ele>8.0</ele>
        <time>2022-01-08T12:51:47Z</time>
      </trkpt>
      <trkpt lat="36.7456440" lon="-3.7901640">
        <ele>8.0</ele>
        <time>2022-01-08T12:51:48Z</time>
      </trkpt>
      <trkpt lat="36.7456440" lon="-3.7901640">
        <ele>8.0</ele>
        <time>2022-01-08T12:51:49Z</time>
      </trkpt>
      <trkpt lat="36.7456440" lon="-3.7901640">
        <ele>8.0</ele>
        <time>2022-01-08T12:51:50Z</time>
      </trkpt>
      <trkpt lat="36.7456440" lon="-3.7901640">
        <ele>8.0</ele>
        <time>2022-01-08T12:51:51Z</time>
      </trkpt>
      <trkpt lat="36.7456440" lon="-3.7901640">
        <ele>8.0</ele>
        <time>2022-01-08T12:51:52Z</time>
      </trkpt>
      <trkpt lat="36.7456440" lon="-3.7901640">
        <ele>8.0</ele>
        <time>2022-01-08T12:51:53Z</time>
      </trkpt>
      <trkpt lat="36.7456440" lon="-3.7901640">
        <ele>8.0</ele>
        <time>2022-01-08T12:51:54Z</time>
      </trkpt>
      <trkpt lat="36.7456440" lon="-3.7901640">
        <ele>8.0</ele>
        <time>2022-01-08T12:51:55Z</time>
      </trkpt>
      <trkpt lat="36.7456440" lon="-3.7901640">
        <ele>8.0</ele>
        <time>2022-01-08T12:51:56Z</time>
      </trkpt>
      <trkpt lat="36.7456440" lon="-3.7901640">
        <ele>8.0</ele>
        <time>2022-01-08T12:51:57Z</time>
      </trkpt>
      <trkpt lat="36.7456440" lon="-3.7901640">
        <ele>8.0</ele>
        <time>2022-01-08T12:51:58Z</time>
      </trkpt>
      <trkpt lat="36.7456440" lon="-3.7901640">
        <ele>8.0</ele>
        <time>2022-01-08T12:51:59Z</time>
      </trkpt>
      <trkpt lat="36.7456440" lon="-3.7901640">
        <ele>8.0</ele>
        <time>2022-01-08T12:52:00Z</time>
      </trkpt>
      <trkpt lat="36.7456440" lon="-3.7901640">
        <ele>8.0</ele>
        <time>2022-01-08T12:52:01Z</time>
      </trkpt>
      <trkpt lat="36.7456440" lon="-3.7901640">
        <ele>8.0</ele>
        <time>2022-01-08T12:52:02Z</time>
      </trkpt>
      <trkpt lat="36.7456440" lon="-3.7901640">
        <ele>8.0</ele>
        <time>2022-01-08T12:52:03Z</time>
      </trkpt>
      <trkpt lat="36.7456440" lon="-3.7901640">
        <ele>8.0</ele>
        <time>2022-01-08T12:52:04Z</time>
      </trkpt>
      <trkpt lat="36.7456440" lon="-3.7901640">
        <ele>8.0</ele>
        <time>2022-01-08T12:52:05Z</time>
      </trkpt>
      <trkpt lat="36.7456440" lon="-3.7901640">
        <ele>8.0</ele>
        <time>2022-01-08T12:52:06Z</time>
      </trkpt>
      <trkpt lat="36.7456440" lon="-3.7901640">
        <ele>8.0</ele>
        <time>2022-01-08T12:52:07Z</time>
      </trkpt>
      <trkpt lat="36.7456440" lon="-3.7901640">
        <ele>8.0</ele>
        <time>2022-01-08T12:52:08Z</time>
      </trkpt>
      <trkpt lat="36.7456440" lon="-3.7901640">
        <ele>8.0</ele>
        <time>2022-01-08T12:52:09Z</time>
      </trkpt>
      <trkpt lat="36.7456440" lon="-3.7901640">
        <ele>8.0</ele>
        <time>2022-01-08T12:52:10Z</time>
      </trkpt>
      <trkpt lat="36.7456440" lon="-3.7901640">
        <ele>8.0</ele>
        <time>2022-01-08T12:52:11Z</time>
      </trkpt>
      <trkpt lat="36.7456440" lon="-3.7901640">
        <ele>8.0</ele>
        <time>2022-01-08T12:52:12Z</time>
      </trkpt>
      <trkpt lat="36.7456440" lon="-3.7901640">
        <ele>8.0</ele>
        <time>2022-01-08T12:52:13Z</time>
      </trkpt>
      <trkpt lat="36.7456440" lon="-3.7901640">
        <ele>8.0</ele>
        <time>2022-01-08T12:52:14Z</time>
      </trkpt>
      <trkpt lat="36.7456440" lon="-3.7901640">
        <ele>8.0</ele>
        <time>2022-01-08T12:52:15Z</time>
      </trkpt>
      <trkpt lat="36.7456440" lon="-3.7901640">
        <ele>8.0</ele>
        <time>2022-01-08T12:52:16Z</time>
      </trkpt>
      <trkpt lat="36.7456440" lon="-3.7901640">
        <ele>8.0</ele>
        <time>2022-01-08T12:52:17Z</time>
      </trkpt>
      <trkpt lat="36.7456440" lon="-3.7901640">
        <ele>8.0</ele>
        <time>2022-01-08T12:52:18Z</time>
      </trkpt>
      <trkpt lat="36.7456440" lon="-3.7901640">
        <ele>8.0</ele>
        <time>2022-01-08T12:52:19Z</time>
      </trkpt>
      <trkpt lat="36.7456440" lon="-3.7901640">
        <ele>8.0</ele>
        <time>2022-01-08T12:52:20Z</time>
      </trkpt>
      <trkpt lat="36.7456440" lon="-3.7901640">
        <ele>8.0</ele>
        <time>2022-01-08T12:52:21Z</time>
      </trkpt>
      <trkpt lat="36.7456440" lon="-3.7901640">
        <ele>7.0</ele>
        <time>2022-01-08T12:52:22Z</time>
      </trkpt>
      <trkpt lat="36.7456440" lon="-3.7901640">
        <ele>7.0</ele>
        <time>2022-01-08T12:52:23Z</time>
      </trkpt>
      <trkpt lat="36.7456440" lon="-3.7901640">
        <ele>7.0</ele>
        <time>2022-01-08T12:52:24Z</time>
      </trkpt>
      <trkpt lat="36.7456440" lon="-3.7901640">
        <ele>7.0</ele>
        <time>2022-01-08T12:52:25Z</time>
      </trkpt>
      <trkpt lat="36.7456440" lon="-3.7901640">
        <ele>7.0</ele>
        <time>2022-01-08T12:52:26Z</time>
      </trkpt>
      <trkpt lat="36.7456440" lon="-3.7901640">
        <ele>7.0</ele>
        <time>2022-01-08T12:52:27Z</time>
      </trkpt>
      <trkpt lat="36.7456440" lon="-3.7901640">
        <ele>7.0</ele>
        <time>2022-01-08T12:52:28Z</time>
      </trkpt>
      <trkpt lat="36.7456440" lon="-3.7901640">
        <ele>7.0</ele>
        <time>2022-01-08T12:52:29Z</time>
      </trkpt>
      <trkpt lat="36.7456440" lon="-3.7901640">
        <ele>7.0</ele>
        <time>2022-01-08T12:52:30Z</time>
      </trkpt>
      <trkpt lat="36.7456440" lon="-3.7901640">
        <ele>7.0</ele>
        <time>2022-01-08T12:52:31Z</time>
      </trkpt>
      <trkpt lat="36.7456440" lon="-3.7901640">
        <ele>7.0</ele>
        <time>2022-01-08T12:52:32Z</time>
      </trkpt>
      <trkpt lat="36.7456440" lon="-3.7901640">
        <ele>7.0</ele>
        <time>2022-01-08T12:52:33Z</time>
      </trkpt>
      <trkpt lat="36.7456440" lon="-3.7901640">
        <ele>7.0</ele>
        <time>2022-01-08T12:52:34Z</time>
      </trkpt>
      <trkpt lat="36.7456440" lon="-3.7901640">
        <ele>8.0</ele>
        <time>2022-01-08T12:52:35Z</time>
      </trkpt>
      <trkpt lat="36.7456440" lon="-3.7901640">
        <ele>8.0</ele>
        <time>2022-01-08T12:52:36Z</time>
      </trkpt>
      <trkpt lat="36.7456440" lon="-3.7901640">
        <ele>8.0</ele>
        <time>2022-01-08T12:52:37Z</time>
      </trkpt>
      <trkpt lat="36.7456440" lon="-3.7901640">
        <ele>8.0</ele>
        <time>2022-01-08T12:52:38Z</time>
      </trkpt>
      <trkpt lat="36.7456440" lon="-3.7901640">
        <ele>8.0</ele>
        <time>2022-01-08T12:52:39Z</time>
      </trkpt>
      <trkpt lat="36.7456440" lon="-3.7901640">
        <ele>8.0</ele>
        <time>2022-01-08T12:52:40Z</time>
      </trkpt>
      <trkpt lat="36.7456440" lon="-3.7901640">
        <ele>8.0</ele>
        <time>2022-01-08T12:52:41Z</time>
      </trkpt>
      <trkpt lat="36.7456440" lon="-3.7901640">
        <ele>8.0</ele>
        <time>2022-01-08T12:52:42Z</time>
      </trkpt>
      <trkpt lat="36.7456440" lon="-3.7901640">
        <ele>8.0</ele>
        <time>2022-01-08T12:52:43Z</time>
      </trkpt>
      <trkpt lat="36.7456440" lon="-3.7901640">
        <ele>8.0</ele>
        <time>2022-01-08T12:52:44Z</time>
      </trkpt>
      <trkpt lat="36.7456440" lon="-3.7901640">
        <ele>8.0</ele>
        <time>2022-01-08T12:52:45Z</time>
      </trkpt>
      <trkpt lat="36.7456440" lon="-3.7901640">
        <ele>8.0</ele>
        <time>2022-01-08T12:52:46Z</time>
      </trkpt>
      <trkpt lat="36.7456440" lon="-3.7901640">
        <ele>8.0</ele>
        <time>2022-01-08T12:52:47Z</time>
      </trkpt>
      <trkpt lat="36.7456440" lon="-3.7901640">
        <ele>8.0</ele>
        <time>2022-01-08T12:52:48Z</time>
      </trkpt>
      <trkpt lat="36.7456440" lon="-3.7901640">
        <ele>8.0</ele>
        <time>2022-01-08T12:52:49Z</time>
      </trkpt>
      <trkpt lat="36.7456440" lon="-3.7901640">
        <ele>8.0</ele>
        <time>2022-01-08T12:52:50Z</time>
      </trkpt>
      <trkpt lat="36.7456440" lon="-3.7901640">
        <ele>8.0</ele>
        <time>2022-01-08T12:52:51Z</time>
      </trkpt>
      <trkpt lat="36.7456440" lon="-3.7901640">
        <ele>8.0</ele>
        <time>2022-01-08T12:52:52Z</time>
      </trkpt>
      <trkpt lat="36.7456440" lon="-3.7901640">
        <ele>8.0</ele>
        <time>2022-01-08T12:52:53Z</time>
      </trkpt>
      <trkpt lat="36.7456440" lon="-3.7901640">
        <ele>8.0</ele>
        <time>2022-01-08T12:52:54Z</time>
      </trkpt>
      <trkpt lat="36.7456440" lon="-3.7901640">
        <ele>8.0</ele>
        <time>2022-01-08T12:52:55Z</time>
      </trkpt>
      <trkpt lat="36.7456440" lon="-3.7901640">
        <ele>8.0</ele>
        <time>2022-01-08T12:52:56Z</time>
      </trkpt>
      <trkpt lat="36.7456440" lon="-3.7901640">
        <ele>8.0</ele>
        <time>2022-01-08T12:52:57Z</time>
      </trkpt>
      <trkpt lat="36.7456440" lon="-3.7901640">
        <ele>8.0</ele>
        <time>2022-01-08T12:52:58Z</time>
      </trkpt>
      <trkpt lat="36.7456440" lon="-3.7901640">
        <ele>8.0</ele>
        <time>2022-01-08T12:52:59Z</time>
      </trkpt>
      <trkpt lat="36.7456440" lon="-3.7901640">
        <ele>8.0</ele>
        <time>2022-01-08T12:53:00Z</time>
      </trkpt>
      <trkpt lat="36.7456440" lon="-3.7901640">
        <ele>8.0</ele>
        <time>2022-01-08T12:53:01Z</time>
      </trkpt>
      <trkpt lat="36.7456440" lon="-3.7901640">
        <ele>8.0</ele>
        <time>2022-01-08T12:53:02Z</time>
      </trkpt>
      <trkpt lat="36.7456440" lon="-3.7901640">
        <ele>8.0</ele>
        <time>2022-01-08T12:53:03Z</time>
      </trkpt>
      <trkpt lat="36.7456440" lon="-3.7901640">
        <ele>8.0</ele>
        <time>2022-01-08T12:53:04Z</time>
      </trkpt>
      <trkpt lat="36.7456440" lon="-3.7901640">
        <ele>8.0</ele>
        <time>2022-01-08T12:53:05Z</time>
      </trkpt>
      <trkpt lat="36.7456520" lon="-3.7901760">
        <ele>8.0</ele>
        <time>2022-01-08T12:53:06Z</time>
      </trkpt>
      <trkpt lat="36.7447560" lon="-3.7892340">
        <ele>110.0</ele>
        <time>2022-01-08T14:13:53Z</time>
      </trkpt>
      <trkpt lat="36.7447560" lon="-3.7892340">
        <ele>110.0</ele>
        <time>2022-01-08T14:13:54Z</time>
      </trkpt>
      <trkpt lat="36.7447560" lon="-3.7892340">
        <ele>110.0</ele>
        <time>2022-01-08T14:13:55Z</time>
      </trkpt>
      <trkpt lat="36.7447560" lon="-3.7892340">
        <ele>110.0</ele>
        <time>2022-01-08T14:13:56Z</time>
      </trkpt>
      <trkpt lat="36.7447560" lon="-3.7892340">
        <ele>93.0</ele>
        <time>2022-01-08T14:13:57Z</time>
      </trkpt>
      <trkpt lat="36.7447560" lon="-3.7892340">
        <ele>84.0</ele>
        <time>2022-01-08T14:13:58Z</time>
      </trkpt>
      <trkpt lat="36.7447560" lon="-3.7892340">
        <ele>81.0</ele>
        <time>2022-01-08T14:13:59Z</time>
      </trkpt>
      <trkpt lat="36.7447460" lon="-3.7891980">
        <ele>81.0</ele>
        <time>2022-01-08T14:14:00Z</time>
      </trkpt>
      <trkpt lat="36.7447460" lon="-3.7891980">
        <ele>78.0</ele>
        <time>2022-01-08T14:14:01Z</time>
      </trkpt>
      <trkpt lat="36.7447370" lon="-3.7891740">
        <ele>76.0</ele>
        <time>2022-01-08T14:14:02Z</time>
      </trkpt>
      <trkpt lat="36.7447370" lon="-3.7891740">
        <ele>75.0</ele>
        <time>2022-01-08T14:14:03Z</time>
      </trkpt>
      <trkpt lat="36.7447230" lon="-3.7891510">
        <ele>69.0</ele>
        <time>2022-01-08T14:14:04Z</time>
      </trkpt>
      <trkpt lat="36.7447230" lon="-3.7891510">
        <ele>67.0</ele>
        <time>2022-01-08T14:14:05Z</time>
      </trkpt>
      <trkpt lat="36.7447120" lon="-3.7891250">
        <ele>65.0</ele>
        <time>2022-01-08T14:14:06Z</time>
      </trkpt>
      <trkpt lat="36.7447120" lon="-3.7891250">
        <ele>63.0</ele>
        <time>2022-01-08T14:14:07Z</time>
      </trkpt>
      <trkpt lat="36.7447130" lon="-3.7890930">
        <ele>62.0</ele>
        <time>2022-01-08T14:14:08Z</time>
      </trkpt>
      <trkpt lat="36.7447130" lon="-3.7890930">
        <ele>60.0</ele>
        <time>2022-01-08T14:14:09Z</time>
      </trkpt>
      <trkpt lat="36.7447080" lon="-3.7890540">
        <ele>58.0</ele>
        <time>2022-01-08T14:14:10Z</time>
      </trkpt>
      <trkpt lat="36.7447080" lon="-3.7890540">
        <ele>56.0</ele>
        <time>2022-01-08T14:14:11Z</time>
      </trkpt>
      <trkpt lat="36.7447020" lon="-3.7890250">
        <ele>54.0</ele>
        <time>2022-01-08T14:14:12Z</time>
      </trkpt>
      <trkpt lat="36.7447020" lon="-3.7890250">
        <ele>54.0</ele>
        <time>2022-01-08T14:14:13Z</time>
      </trkpt>
      <trkpt lat="36.7446930" lon="-3.7889940">
        <ele>50.0</ele>
        <time>2022-01-08T14:14:14Z</time>
      </trkpt>
      <trkpt lat="36.7446930" lon="-3.7889940">
        <ele>47.0</ele>
        <time>2022-01-08T14:14:15Z</time>
      </trkpt>
      <trkpt lat="36.7446840" lon="-3.7889680">
        <ele>46.0</ele>
        <time>2022-01-08T14:14:16Z</time>
      </trkpt>
      <trkpt lat="36.7446840" lon="-3.7889680">
        <ele>45.0</ele>
        <time>2022-01-08T14:14:17Z</time>
      </trkpt>
      <trkpt lat="36.7446720" lon="-3.7889420">
        <ele>44.0</ele>
        <time>2022-01-08T14:14:18Z</time>
      </trkpt>
      <trkpt lat="36.7446720" lon="-3.7889420">
        <ele>42.0</ele>
        <time>2022-01-08T14:14:19Z</time>
      </trkpt>
      <trkpt lat="36.7446560" lon="-3.7889210">
        <ele>41.0</ele>
        <time>2022-01-08T14:14:20Z</time>
      </trkpt>
      <trkpt lat="36.7446560" lon="-3.7889210">
        <ele>39.0</ele>
        <time>2022-01-08T14:14:21Z</time>
      </trkpt>
      <trkpt lat="36.7446360" lon="-3.7888950">
        <ele>37.0</ele>
        <time>2022-01-08T14:14:22Z</time>
      </trkpt>
      <trkpt lat="36.7446360" lon="-3.7888950">
        <ele>37.0</ele>
        <time>2022-01-08T14:14:23Z</time>
      </trkpt>
      <trkpt lat="36.7446240" lon="-3.7888670">
        <ele>35.0</ele>
        <time>2022-01-08T14:14:24Z</time>
      </trkpt>
      <trkpt lat="36.7446240" lon="-3.7888670">
        <ele>33.0</ele>
        <time>2022-01-08T14:14:25Z</time>
      </trkpt>
      <trkpt lat="36.7446080" lon="-3.7888390">
        <ele>33.0</ele>
        <time>2022-01-08T14:14:26Z</time>
      </trkpt>
      <trkpt lat="36.7446080" lon="-3.7888390">
        <ele>31.0</ele>
        <time>2022-01-08T14:14:27Z</time>
      </trkpt>
      <trkpt lat="36.7445980" lon="-3.7888180">
        <ele>29.0</ele>
        <time>2022-01-08T14:14:28Z</time>
      </trkpt>
      <trkpt lat="36.7445980" lon="-3.7888180">
        <ele>28.0</ele>
        <time>2022-01-08T14:14:29Z</time>
      </trkpt>
      <trkpt lat="36.7445780" lon="-3.7887910">
        <ele>26.0</ele>
        <time>2022-01-08T14:14:30Z</time>
      </trkpt>
      <trkpt lat="36.7445780" lon="-3.7887910">
        <ele>25.0</ele>
        <time>2022-01-08T14:14:31Z</time>
      </trkpt>
      <trkpt lat="36.7445780" lon="-3.7887910">
        <ele>25.0</ele>
        <time>2022-01-08T14:14:32Z</time>
      </trkpt>
      <trkpt lat="36.7445780" lon="-3.7887910">
        <ele>22.0</ele>
        <time>2022-01-08T14:14:33Z</time>
      </trkpt>
      <trkpt lat="36.7445780" lon="-3.7887910">
        <ele>20.0</ele>
        <time>2022-01-08T14:14:34Z</time>
      </trkpt>
      <trkpt lat="36.7445780" lon="-3.7887910">
        <ele>20.0</ele>
        <time>2022-01-08T14:14:35Z</time>
      </trkpt>
      <trkpt lat="36.7445970" lon="-3.7888040">
        <ele>19.0</ele>
        <time>2022-01-08T14:14:36Z</time>
      </trkpt>
      <trkpt lat="36.7445970" lon="-3.7888040">
        <ele>18.0</ele>
        <time>2022-01-08T14:14:37Z</time>
      </trkpt>
      <trkpt lat="36.7446170" lon="-3.7888150">
        <ele>17.0</ele>
        <time>2022-01-08T14:14:38Z</time>
      </trkpt>
      <trkpt lat="36.7446170" lon="-3.7888150">
        <ele>16.0</ele>
        <time>2022-01-08T14:14:39Z</time>
      </trkpt>
      <trkpt lat="36.7446370" lon="-3.7888350">
        <ele>16.0</ele>
        <time>2022-01-08T14:14:40Z</time>
      </trkpt>
      <trkpt lat="36.7446370" lon="-3.7888350">
        <ele>15.0</ele>
        <time>2022-01-08T14:14:41Z</time>
      </trkpt>
      <trkpt lat="36.7446550" lon="-3.7888590">
        <ele>13.0</ele>
        <time>2022-01-08T14:14:42Z</time>
      </trkpt>
      <trkpt lat="36.7446550" lon="-3.7888590">
        <ele>12.0</ele>
        <time>2022-01-08T14:14:43Z</time>
      </trkpt>
      <trkpt lat="36.7446620" lon="-3.7888880">
        <ele>11.0</ele>
        <time>2022-01-08T14:14:44Z</time>
      </trkpt>
      <trkpt lat="36.7446620" lon="-3.7888880">
        <ele>11.0</ele>
        <time>2022-01-08T14:14:45Z</time>
      </trkpt>
      <trkpt lat="36.7446610" lon="-3.7889190">
        <ele>11.0</ele>
        <time>2022-01-08T14:14:46Z</time>
      </trkpt>
      <trkpt lat="36.7446610" lon="-3.7889190">
        <ele>9.0</ele>
        <time>2022-01-08T14:14:47Z</time>
      </trkpt>
      <trkpt lat="36.7446630" lon="-3.7889460">
        <ele>7.0</ele>
        <time>2022-01-08T14:14:48Z</time>
      </trkpt>
      <trkpt lat="36.7446630" lon="-3.7889460">
        <ele>7.0</ele>
        <time>2022-01-08T14:14:49Z</time>
      </trkpt>
      <trkpt lat="36.7446630" lon="-3.7889460">
        <ele>6.0</ele>
        <time>2022-01-08T14:14:50Z</time>
      </trkpt>
      <trkpt lat="36.7446700" lon="-3.7889740">
        <ele>6.0</ele>
        <time>2022-01-08T14:14:51Z</time>
      </trkpt>
      <trkpt lat="36.7446780" lon="-3.7890050">
        <ele>3.0</ele>
        <time>2022-01-08T14:14:52Z</time>
      </trkpt>
      <trkpt lat="36.7446780" lon="-3.7890050">
        <ele>2.0</ele>
        <time>2022-01-08T14:14:53Z</time>
      </trkpt>
      <trkpt lat="36.7446910" lon="-3.7890360">
        <ele>2.0</ele>
        <time>2022-01-08T14:14:54Z</time>
      </trkpt>
      <trkpt lat="36.7446910" lon="-3.7890360">
        <ele>2.0</ele>
        <time>2022-01-08T14:14:55Z</time>
      </trkpt>
      <trkpt lat="36.7447050" lon="-3.7890700">
        <ele>2.0</ele>
        <time>2022-01-08T14:14:56Z</time>
      </trkpt>
      <trkpt lat="36.7447050" lon="-3.7890700">
        <ele>-1.0</ele>
        <time>2022-01-08T14:14:57Z</time>
      </trkpt>
      <trkpt lat="36.7447050" lon="-3.7890700">
        <ele>-1.0</ele>
        <time>2022-01-08T14:14:58Z</time>
      </trkpt>
      <trkpt lat="36.7447130" lon="-3.7890980">
        <ele>-1.0</ele>
        <time>2022-01-08T14:14:59Z</time>
      </trkpt>
      <trkpt lat="36.7447170" lon="-3.7891260">
        <ele>-3.0</ele>
        <time>2022-01-08T14:15:00Z</time>
      </trkpt>
      <trkpt lat="36.7447170" lon="-3.7891260">
        <ele>-4.0</ele>
        <time>2022-01-08T14:15:01Z</time>
      </trkpt>
      <trkpt lat="36.7447170" lon="-3.7891260">
        <ele>-5.0</ele>
        <time>2022-01-08T14:15:02Z</time>
      </trkpt>
      <trkpt lat="36.7447170" lon="-3.7891260">
        <ele>-5.0</ele>
        <time>2022-01-08T14:15:03Z</time>
      </trkpt>
      <trkpt lat="36.7447170" lon="-3.7891260">
        <ele>-6.0</ele>
        <time>2022-01-08T14:15:04Z</time>
      </trkpt>
      <trkpt lat="36.7447170" lon="-3.7891260">
        <ele>-6.0</ele>
        <time>2022-01-08T14:15:05Z</time>
      </trkpt>
      <trkpt lat="36.7447100" lon="-3.7890960">
        <ele>-7.0</ele>
        <time>2022-01-08T14:15:06Z</time>
      </trkpt>
      <trkpt lat="36.7447100" lon="-3.7890960">
        <ele>-7.0</ele>
        <time>2022-01-08T14:15:07Z</time>
      </trkpt>
      <trkpt lat="36.7447130" lon="-3.7890720">
        <ele>-8.0</ele>
        <time>2022-01-08T14:15:08Z</time>
      </trkpt>
      <trkpt lat="36.7447130" lon="-3.7890720">
        <ele>-9.0</ele>
        <time>2022-01-08T14:15:09Z</time>
      </trkpt>
      <trkpt lat="36.7447130" lon="-3.7890720">
        <ele>-10.0</ele>
        <time>2022-01-08T14:15:10Z</time>
      </trkpt>
      <trkpt lat="36.7447050" lon="-3.7890200">
        <ele>-10.0</ele>
        <time>2022-01-08T14:15:11Z</time>
      </trkpt>
      <trkpt lat="36.7447050" lon="-3.7890200">
        <ele>-10.0</ele>
        <time>2022-01-08T14:15:12Z</time>
      </trkpt>
      <trkpt lat="36.7446920" lon="-3.7889850">
        <ele>-10.0</ele>
        <time>2022-01-08T14:15:13Z</time>
      </trkpt>
      <trkpt lat="36.7446920" lon="-3.7889850">
        <ele>-12.0</ele>
        <time>2022-01-08T14:15:14Z</time>
      </trkpt>
      <trkpt lat="36.7446790" lon="-3.7889560">
        <ele>-14.0</ele>
        <time>2022-01-08T14:15:15Z</time>
      </trkpt>
      <trkpt lat="36.7446790" lon="-3.7889560">
        <ele>-14.0</ele>
        <time>2022-01-08T14:15:16Z</time>
      </trkpt>
      <trkpt lat="36.7446660" lon="-3.7889290">
        <ele>-14.0</ele>
        <time>2022-01-08T14:15:17Z</time>
      </trkpt>
      <trkpt lat="36.7446660" lon="-3.7889290">
        <ele>-14.0</ele>
        <time>2022-01-08T14:15:18Z</time>
      </trkpt>
      <trkpt lat="36.7446500" lon="-3.7889020">
        <ele>-14.0</ele>
        <time>2022-01-08T14:15:19Z</time>
      </trkpt>
      <trkpt lat="36.7446500" lon="-3.7889020">
        <ele>-15.0</ele>
        <time>2022-01-08T14:15:20Z</time>
      </trkpt>
      <trkpt lat="36.7446320" lon="-3.7888740">
        <ele>-15.0</ele>
        <time>2022-01-08T14:15:21Z</time>
      </trkpt>
      <trkpt lat="36.7446320" lon="-3.7888740">
        <ele>-15.0</ele>
        <time>2022-01-08T14:15:22Z</time>
      </trkpt>
      <trkpt lat="36.7446130" lon="-3.7888500">
        <ele>-16.0</ele>
        <time>2022-01-08T14:15:23Z</time>
      </trkpt>
      <trkpt lat="36.7446130" lon="-3.7888500">
        <ele>-17.0</ele>
        <time>2022-01-08T14:15:24Z</time>
      </trkpt>
      <trkpt lat="36.7445950" lon="-3.7888240">
        <ele>-17.0</ele>
        <time>2022-01-08T14:15:25Z</time>
      </trkpt>
      <trkpt lat="36.7445950" lon="-3.7888240">
        <ele>-18.0</ele>
        <time>2022-01-08T14:15:26Z</time>
      </trkpt>
      <trkpt lat="36.7445720" lon="-3.7887960">
        <ele>-18.0</ele>
        <time>2022-01-08T14:15:27Z</time>
      </trkpt>
      <trkpt lat="36.7445720" lon="-3.7887960">
        <ele>-18.0</ele>
        <time>2022-01-08T14:15:28Z</time>
      </trkpt>
      <trkpt lat="36.7445570" lon="-3.7887680">
        <ele>-18.0</ele>
        <time>2022-01-08T14:15:29Z</time>
      </trkpt>
      <trkpt lat="36.7445570" lon="-3.7887680">
        <ele>-18.0</ele>
        <time>2022-01-08T14:15:30Z</time>
      </trkpt>
      <trkpt lat="36.7445440" lon="-3.7887380">
        <ele>-20.0</ele>
        <time>2022-01-08T14:15:31Z</time>
      </trkpt>
      <trkpt lat="36.7445440" lon="-3.7887380">
        <ele>-21.0</ele>
        <time>2022-01-08T14:15:32Z</time>
      </trkpt>
      <trkpt lat="36.7445320" lon="-3.7887030">
        <ele>-21.0</ele>
        <time>2022-01-08T14:15:33Z</time>
      </trkpt>
      <trkpt lat="36.7445320" lon="-3.7887030">
        <ele>-21.0</ele>
        <time>2022-01-08T14:15:34Z</time>
      </trkpt>
      <trkpt lat="36.7445170" lon="-3.7886750">
        <ele>-21.0</ele>
        <time>2022-01-08T14:15:35Z</time>
      </trkpt>
      <trkpt lat="36.7445170" lon="-3.7886750">
        <ele>-21.0</ele>
        <time>2022-01-08T14:15:36Z</time>
      </trkpt>
      <trkpt lat="36.7445040" lon="-3.7886500">
        <ele>-22.0</ele>
        <time>2022-01-08T14:15:37Z</time>
      </trkpt>
      <trkpt lat="36.7445040" lon="-3.7886500">
        <ele>-22.0</ele>
        <time>2022-01-08T14:15:38Z</time>
      </trkpt>
      <trkpt lat="36.7444950" lon="-3.7886250">
        <ele>-22.0</ele>
        <time>2022-01-08T14:15:39Z</time>
      </trkpt>
      <trkpt lat="36.7444950" lon="-3.7886250">
        <ele>-22.0</ele>
        <time>2022-01-08T14:15:40Z</time>
      </trkpt>
      <trkpt lat="36.7445080" lon="-3.7885980">
        <ele>-22.0</ele>
        <time>2022-01-08T14:15:41Z</time>
      </trkpt>
      <trkpt lat="36.7445080" lon="-3.7885980">
        <ele>-23.0</ele>
        <time>2022-01-08T14:15:42Z</time>
      </trkpt>
      <trkpt lat="36.7445270" lon="-3.7885750">
        <ele>-23.0</ele>
        <time>2022-01-08T14:15:43Z</time>
      </trkpt>
      <trkpt lat="36.7445270" lon="-3.7885750">
        <ele>-24.0</ele>
        <time>2022-01-08T14:15:44Z</time>
      </trkpt>
      <trkpt lat="36.7445420" lon="-3.7885480">
        <ele>-24.0</ele>
        <time>2022-01-08T14:15:45Z</time>
      </trkpt>
      <trkpt lat="36.7445420" lon="-3.7885480">
        <ele>-24.0</ele>
        <time>2022-01-08T14:15:46Z</time>
      </trkpt>
      <trkpt lat="36.7445430" lon="-3.7885230">
        <ele>-24.0</ele>
        <time>2022-01-08T14:15:47Z</time>
      </trkpt>
      <trkpt lat="36.7445430" lon="-3.7885230">
        <ele>-24.0</ele>
        <time>2022-01-08T14:15:48Z</time>
      </trkpt>
      <trkpt lat="36.7445530" lon="-3.7884980">
        <ele>-24.0</ele>
        <time>2022-01-08T14:15:49Z</time>
      </trkpt>
      <trkpt lat="36.7445530" lon="-3.7884980">
        <ele>-24.0</ele>
        <time>2022-01-08T14:15:50Z</time>
      </trkpt>
      <trkpt lat="36.7445560" lon="-3.7884660">
        <ele>-24.0</ele>
        <time>2022-01-08T14:15:51Z</time>
      </trkpt>
      <trkpt lat="36.7445560" lon="-3.7884660">
        <ele>-25.0</ele>
        <time>2022-01-08T14:15:52Z</time>
      </trkpt>
      <trkpt lat="36.7445540" lon="-3.7884330">
        <ele>-25.0</ele>
        <time>2022-01-08T14:15:53Z</time>
      </trkpt>
      <trkpt lat="36.7445540" lon="-3.7884330">
        <ele>-25.0</ele>
        <time>2022-01-08T14:15:54Z</time>
      </trkpt>
      <trkpt lat="36.7445590" lon="-3.7883970">
        <ele>-26.0</ele>
        <time>2022-01-08T14:15:55Z</time>
      </trkpt>
      <trkpt lat="36.7445590" lon="-3.7883740">
        <ele>-26.0</ele>
        <time>2022-01-08T14:15:56Z</time>
      </trkpt>
      <trkpt lat="36.7445590" lon="-3.7883740">
        <ele>-27.0</ele>
        <time>2022-01-08T14:15:57Z</time>
      </trkpt>
      <trkpt lat="36.7445540" lon="-3.7883360">
        <ele>-27.0</ele>
        <time>2022-01-08T14:15:58Z</time>
      </trkpt>
      <trkpt lat="36.7445540" lon="-3.7883360">
        <ele>-27.0</ele>
        <time>2022-01-08T14:15:59Z</time>
      </trkpt>
      <trkpt lat="36.7445460" lon="-3.7883000">
        <ele>-27.0</ele>
        <time>2022-01-08T14:16:00Z</time>
      </trkpt>
      <trkpt lat="36.7445460" lon="-3.7883000">
        <ele>-27.0</ele>
        <time>2022-01-08T14:16:01Z</time>
      </trkpt>
      <trkpt lat="36.7445390" lon="-3.7882730">
        <ele>-27.0</ele>
        <time>2022-01-08T14:16:02Z</time>
      </trkpt>
      <trkpt lat="36.7445390" lon="-3.7882730">
        <ele>-27.0</ele>
        <time>2022-01-08T14:16:03Z</time>
      </trkpt>
      <trkpt lat="36.7445280" lon="-3.7882490">
        <ele>-28.0</ele>
        <time>2022-01-08T14:16:04Z</time>
      </trkpt>
      <trkpt lat="36.7445280" lon="-3.7882490">
        <ele>-28.0</ele>
        <time>2022-01-08T14:16:05Z</time>
      </trkpt>
      <trkpt lat="36.7445140" lon="-3.7882280">
        <ele>-28.0</ele>
        <time>2022-01-08T14:16:06Z</time>
      </trkpt>
      <trkpt lat="36.7445140" lon="-3.7882280">
        <ele>-28.0</ele>
        <time>2022-01-08T14:16:07Z</time>
      </trkpt>
      <trkpt lat="36.7444990" lon="-3.7882030">
        <ele>-29.0</ele>
        <time>2022-01-08T14:16:08Z</time>
      </trkpt>
      <trkpt lat="36.7444990" lon="-3.7882030">
        <ele>-29.0</ele>
        <time>2022-01-08T14:16:09Z</time>
      </trkpt>
      <trkpt lat="36.7444910" lon="-3.7881780">
        <ele>-29.0</ele>
        <time>2022-01-08T14:16:10Z</time>
      </trkpt>
      <trkpt lat="36.7444910" lon="-3.7881780">
        <ele>-29.0</ele>
        <time>2022-01-08T14:16:11Z</time>
      </trkpt>
      <trkpt lat="36.7444910" lon="-3.7881780">
        <ele>-30.0</ele>
        <time>2022-01-08T14:16:12Z</time>
      </trkpt>
      <trkpt lat="36.7444810" lon="-3.7881450">
        <ele>-30.0</ele>
        <time>2022-01-08T14:16:13Z</time>
      </trkpt>
      <trkpt lat="36.7444810" lon="-3.7881450">
        <ele>-30.0</ele>
        <time>2022-01-08T14:16:14Z</time>
      </trkpt>
      <trkpt lat="36.7444710" lon="-3.7881190">
        <ele>-30.0</ele>
        <time>2022-01-08T14:16:15Z</time>
      </trkpt>
      <trkpt lat="36.7444710" lon="-3.7881190">
        <ele>-30.0</ele>
        <time>2022-01-08T14:16:16Z</time>
      </trkpt>
      <trkpt lat="36.7444550" lon="-3.7880920">
        <ele>-30.0</ele>
        <time>2022-01-08T14:16:17Z</time>
      </trkpt>
      <trkpt lat="36.7444550" lon="-3.7880920">
        <ele>-30.0</ele>
        <time>2022-01-08T14:16:18Z</time>
      </trkpt>
      <trkpt lat="36.7444360" lon="-3.7880690">
        <ele>-31.0</ele>
        <time>2022-01-08T14:16:19Z</time>
      </trkpt>
      <trkpt lat="36.7444360" lon="-3.7880690">
        <ele>-31.0</ele>
        <time>2022-01-08T14:16:20Z</time>
      </trkpt>
      <trkpt lat="36.7444160" lon="-3.7880470">
        <ele>-31.0</ele>
        <time>2022-01-08T14:16:21Z</time>
      </trkpt>
      <trkpt lat="36.7444160" lon="-3.7880470">
        <ele>-31.0</ele>
        <time>2022-01-08T14:16:22Z</time>
      </trkpt>
      <trkpt lat="36.7443940" lon="-3.7880240">
        <ele>-31.0</ele>
        <time>2022-01-08T14:16:23Z</time>
      </trkpt>
      <trkpt lat="36.7443940" lon="-3.7880240">
        <ele>-31.0</ele>
        <time>2022-01-08T14:16:24Z</time>
      </trkpt>
      <trkpt lat="36.7443940" lon="-3.7880240">
        <ele>-31.0</ele>
        <time>2022-01-08T14:16:25Z</time>
      </trkpt>
      <trkpt lat="36.7443760" lon="-3.7880020">
        <ele>-31.0</ele>
        <time>2022-01-08T14:16:26Z</time>
      </trkpt>
      <trkpt lat="36.7443610" lon="-3.7879850">
        <ele>-31.0</ele>
        <time>2022-01-08T14:16:27Z</time>
      </trkpt>
      <trkpt lat="36.7443610" lon="-3.7879850">
        <ele>-31.0</ele>
        <time>2022-01-08T14:16:28Z</time>
      </trkpt>
      <trkpt lat="36.7443470" lon="-3.7879630">
        <ele>-32.0</ele>
        <time>2022-01-08T14:16:29Z</time>
      </trkpt>
      <trkpt lat="36.7443470" lon="-3.7879630">
        <ele>-32.0</ele>
        <time>2022-01-08T14:16:30Z</time>
      </trkpt>
      <trkpt lat="36.7443250" lon="-3.7879450">
        <ele>-32.0</ele>
        <time>2022-01-08T14:16:31Z</time>
      </trkpt>
      <trkpt lat="36.7443250" lon="-3.7879450">
        <ele>-32.0</ele>
        <time>2022-01-08T14:16:32Z</time>
      </trkpt>
      <trkpt lat="36.7443070" lon="-3.7879250">
        <ele>-32.0</ele>
        <time>2022-01-08T14:16:33Z</time>
      </trkpt>
      <trkpt lat="36.7443070" lon="-3.7879250">
        <ele>-32.0</ele>
        <time>2022-01-08T14:16:34Z</time>
      </trkpt>
      <trkpt lat="36.7442880" lon="-3.7879080">
        <ele>-33.0</ele>
        <time>2022-01-08T14:16:35Z</time>
      </trkpt>
      <trkpt lat="36.7442880" lon="-3.7879080">
        <ele>-33.0</ele>
        <time>2022-01-08T14:16:36Z</time>
      </trkpt>
      <trkpt lat="36.7442660" lon="-3.7878940">
        <ele>-33.0</ele>
        <time>2022-01-08T14:16:37Z</time>
      </trkpt>
      <trkpt lat="36.7442660" lon="-3.7878940">
        <ele>-33.0</ele>
        <time>2022-01-08T14:16:38Z</time>
      </trkpt>
      <trkpt lat="36.7442460" lon="-3.7878740">
        <ele>-33.0</ele>
        <time>2022-01-08T14:16:39Z</time>
      </trkpt>
      <trkpt lat="36.7442460" lon="-3.7878740">
        <ele>-33.0</ele>
        <time>2022-01-08T14:16:40Z</time>
      </trkpt>
      <trkpt lat="36.7442260" lon="-3.7878540">
        <ele>-33.0</ele>
        <time>2022-01-08T14:16:41Z</time>
      </trkpt>
      <trkpt lat="36.7442260" lon="-3.7878540">
        <ele>-33.0</ele>
        <time>2022-01-08T14:16:42Z</time>
      </trkpt>
      <trkpt lat="36.7442100" lon="-3.7878340">
        <ele>-34.0</ele>
        <time>2022-01-08T14:16:43Z</time>
      </trkpt>
      <trkpt lat="36.7442100" lon="-3.7878340">
        <ele>-34.0</ele>
        <time>2022-01-08T14:16:44Z</time>
      </trkpt>
      <trkpt lat="36.7442100" lon="-3.7878340">
        <ele>-34.0</ele>
        <time>2022-01-08T14:16:45Z</time>
      </trkpt>
      <trkpt lat="36.7441950" lon="-3.7878090">
        <ele>-34.0</ele>
        <time>2022-01-08T14:16:46Z</time>
      </trkpt>
      <trkpt lat="36.7441950" lon="-3.7878090">
        <ele>-34.0</ele>
        <time>2022-01-08T14:16:47Z</time>
      </trkpt>
      <trkpt lat="36.7441800" lon="-3.7877890">
        <ele>-34.0</ele>
        <time>2022-01-08T14:16:48Z</time>
      </trkpt>
      <trkpt lat="36.7441800" lon="-3.7877890">
        <ele>-34.0</ele>
        <time>2022-01-08T14:16:49Z</time>
      </trkpt>
      <trkpt lat="36.7441590" lon="-3.7877660">
        <ele>-35.0</ele>
        <time>2022-01-08T14:16:50Z</time>
      </trkpt>
      <trkpt lat="36.7441590" lon="-3.7877660">
        <ele>-35.0</ele>
        <time>2022-01-08T14:16:51Z</time>
      </trkpt>
      <trkpt lat="36.7441350" lon="-3.7877500">
        <ele>-35.0</ele>
        <time>2022-01-08T14:16:52Z</time>
      </trkpt>
      <trkpt lat="36.7441350" lon="-3.7877500">
        <ele>-35.0</ele>
        <time>2022-01-08T14:16:53Z</time>
      </trkpt>
      <trkpt lat="36.7441120" lon="-3.7877330">
        <ele>-35.0</ele>
        <time>2022-01-08T14:16:54Z</time>
      </trkpt>
      <trkpt lat="36.7441120" lon="-3.7877330">
        <ele>-35.0</ele>
        <time>2022-01-08T14:16:55Z</time>
      </trkpt>
      <trkpt lat="36.7440920" lon="-3.7877150">
        <ele>-35.0</ele>
        <time>2022-01-08T14:16:56Z</time>
      </trkpt>
      <trkpt lat="36.7440920" lon="-3.7877150">
        <ele>-35.0</ele>
        <time>2022-01-08T14:16:57Z</time>
      </trkpt>
      <trkpt lat="36.7440740" lon="-3.7876960">
        <ele>-35.0</ele>
        <time>2022-01-08T14:16:58Z</time>
      </trkpt>
      <trkpt lat="36.7440740" lon="-3.7876960">
        <ele>-35.0</ele>
        <time>2022-01-08T14:16:59Z</time>
      </trkpt>
      <trkpt lat="36.7440580" lon="-3.7876760">
        <ele>-35.0</ele>
        <time>2022-01-08T14:17:00Z</time>
      </trkpt>
      <trkpt lat="36.7440580" lon="-3.7876760">
        <ele>-35.0</ele>
        <time>2022-01-08T14:17:01Z</time>
      </trkpt>
      <trkpt lat="36.7440410" lon="-3.7876560">
        <ele>-35.0</ele>
        <time>2022-01-08T14:17:02Z</time>
      </trkpt>
      <trkpt lat="36.7440410" lon="-3.7876560">
        <ele>-35.0</ele>
        <time>2022-01-08T14:17:03Z</time>
      </trkpt>
      <trkpt lat="36.7440210" lon="-3.7876320">
        <ele>-35.0</ele>
        <time>2022-01-08T14:17:04Z</time>
      </trkpt>
      <trkpt lat="36.7440210" lon="-3.7876320">
        <ele>-35.0</ele>
        <time>2022-01-08T14:17:05Z</time>
      </trkpt>
      <trkpt lat="36.7440050" lon="-3.7876090">
        <ele>-35.0</ele>
        <time>2022-01-08T14:17:06Z</time>
      </trkpt>
      <trkpt lat="36.7440050" lon="-3.7876090">
        <ele>-35.0</ele>
        <time>2022-01-08T14:17:07Z</time>
      </trkpt>
      <trkpt lat="36.7439830" lon="-3.7875900">
        <ele>-35.0</ele>
        <time>2022-01-08T14:17:08Z</time>
      </trkpt>
      <trkpt lat="36.7439830" lon="-3.7875900">
        <ele>-35.0</ele>
        <time>2022-01-08T14:17:09Z</time>
      </trkpt>
      <trkpt lat="36.7439580" lon="-3.7875650">
        <ele>-35.0</ele>
        <time>2022-01-08T14:17:10Z</time>
      </trkpt>
      <trkpt lat="36.7439580" lon="-3.7875650">
        <ele>-35.0</ele>
        <time>2022-01-08T14:17:11Z</time>
      </trkpt>
      <trkpt lat="36.7439340" lon="-3.7875350">
        <ele>-35.0</ele>
        <time>2022-01-08T14:17:12Z</time>
      </trkpt>
      <trkpt lat="36.7439340" lon="-3.7875350">
        <ele>-35.0</ele>
        <time>2022-01-08T14:17:13Z</time>
      </trkpt>
      <trkpt lat="36.7439090" lon="-3.7875060">
        <ele>-35.0</ele>
        <time>2022-01-08T14:17:14Z</time>
      </trkpt>
      <trkpt lat="36.7438960" lon="-3.7874900">
        <ele>-35.0</ele>
        <time>2022-01-08T14:17:15Z</time>
      </trkpt>
      <trkpt lat="36.7438960" lon="-3.7874900">
        <ele>-35.0</ele>
        <time>2022-01-08T14:17:16Z</time>
      </trkpt>
      <trkpt lat="36.7438740" lon="-3.7874660">
        <ele>-35.0</ele>
        <time>2022-01-08T14:17:17Z</time>
      </trkpt>
      <trkpt lat="36.7438740" lon="-3.7874660">
        <ele>-35.0</ele>
        <time>2022-01-08T14:17:18Z</time>
      </trkpt>
      <trkpt lat="36.7438490" lon="-3.7874460">
        <ele>-36.0</ele>
        <time>2022-01-08T14:17:19Z</time>
      </trkpt>
      <trkpt lat="36.7438490" lon="-3.7874460">
        <ele>-36.0</ele>
        <time>2022-01-08T14:17:20Z</time>
      </trkpt>
      <trkpt lat="36.7438230" lon="-3.7874220">
        <ele>-36.0</ele>
        <time>2022-01-08T14:17:21Z</time>
      </trkpt>
      <trkpt lat="36.7438230" lon="-3.7874220">
        <ele>-36.0</ele>
        <time>2022-01-08T14:17:22Z</time>
      </trkpt>
      <trkpt lat="36.7438020" lon="-3.7873960">
        <ele>-36.0</ele>
        <time>2022-01-08T14:17:23Z</time>
      </trkpt>
      <trkpt lat="36.7438020" lon="-3.7873960">
        <ele>-36.0</ele>
        <time>2022-01-08T14:17:24Z</time>
      </trkpt>
      <trkpt lat="36.7437830" lon="-3.7873730">
        <ele>-36.0</ele>
        <time>2022-01-08T14:17:25Z</time>
      </trkpt>
      <trkpt lat="36.7437830" lon="-3.7873730">
        <ele>-36.0</ele>
        <time>2022-01-08T14:17:26Z</time>
      </trkpt>
      <trkpt lat="36.7437610" lon="-3.7873500">
        <ele>-35.0</ele>
        <time>2022-01-08T14:17:27Z</time>
      </trkpt>
      <trkpt lat="36.7437610" lon="-3.7873500">
        <ele>-35.0</ele>
        <time>2022-01-08T14:17:28Z</time>
      </trkpt>
      <trkpt lat="36.7437340" lon="-3.7873350">
        <ele>-35.0</ele>
        <time>2022-01-08T14:17:29Z</time>
      </trkpt>
      <trkpt lat="36.7437340" lon="-3.7873350">
        <ele>-35.0</ele>
        <time>2022-01-08T14:17:30Z</time>
      </trkpt>
      <trkpt lat="36.7437180" lon="-3.7873240">
        <ele>-35.0</ele>
        <time>2022-01-08T14:17:31Z</time>
      </trkpt>
      <trkpt lat="36.7437180" lon="-3.7873240">
        <ele>-35.0</ele>
        <time>2022-01-08T14:17:32Z</time>
      </trkpt>
      <trkpt lat="36.7437020" lon="-3.7873120">
        <ele>-35.0</ele>
        <time>2022-01-08T14:17:33Z</time>
      </trkpt>
      <trkpt lat="36.7437020" lon="-3.7873120">
        <ele>-35.0</ele>
        <time>2022-01-08T14:17:34Z</time>
      </trkpt>
      <trkpt lat="36.7436810" lon="-3.7872920">
        <ele>-35.0</ele>
        <time>2022-01-08T14:17:35Z</time>
      </trkpt>
      <trkpt lat="36.7436810" lon="-3.7872920">
        <ele>-35.0</ele>
        <time>2022-01-08T14:17:36Z</time>
      </trkpt>
      <trkpt lat="36.7436520" lon="-3.7872730">
        <ele>-35.0</ele>
        <time>2022-01-08T14:17:37Z</time>
      </trkpt>
      <trkpt lat="36.7436520" lon="-3.7872730">
        <ele>-36.0</ele>
        <time>2022-01-08T14:17:38Z</time>
      </trkpt>
      <trkpt lat="36.7436250" lon="-3.7872530">
        <ele>-36.0</ele>
        <time>2022-01-08T14:17:39Z</time>
      </trkpt>
      <trkpt lat="36.7436250" lon="-3.7872530">
        <ele>-36.0</ele>
        <time>2022-01-08T14:17:40Z</time>
      </trkpt>
      <trkpt lat="36.7435960" lon="-3.7872360">
        <ele>-36.0</ele>
        <time>2022-01-08T14:17:41Z</time>
      </trkpt>
      <trkpt lat="36.7435960" lon="-3.7872360">
        <ele>-36.0</ele>
        <time>2022-01-08T14:17:42Z</time>
      </trkpt>
      <trkpt lat="36.7435690" lon="-3.7872230">
        <ele>-36.0</ele>
        <time>2022-01-08T14:17:43Z</time>
      </trkpt>
      <trkpt lat="36.7435690" lon="-3.7872230">
        <ele>-36.0</ele>
        <time>2022-01-08T14:17:44Z</time>
      </trkpt>
      <trkpt lat="36.7435470" lon="-3.7872130">
        <ele>-37.0</ele>
        <time>2022-01-08T14:17:45Z</time>
      </trkpt>
      <trkpt lat="36.7435470" lon="-3.7872130">
        <ele>-37.0</ele>
        <time>2022-01-08T14:17:46Z</time>
      </trkpt>
      <trkpt lat="36.7435250" lon="-3.7872060">
        <ele>-37.0</ele>
        <time>2022-01-08T14:17:47Z</time>
      </trkpt>
      <trkpt lat="36.7435250" lon="-3.7872060">
        <ele>-37.0</ele>
        <time>2022-01-08T14:17:48Z</time>
      </trkpt>
      <trkpt lat="36.7434930" lon="-3.7871930">
        <ele>-37.0</ele>
        <time>2022-01-08T14:17:49Z</time>
      </trkpt>
      <trkpt lat="36.7434930" lon="-3.7871930">
        <ele>-38.0</ele>
        <time>2022-01-08T14:17:50Z</time>
      </trkpt>
      <trkpt lat="36.7434650" lon="-3.7871820">
        <ele>-38.0</ele>
        <time>2022-01-08T14:17:51Z</time>
      </trkpt>
      <trkpt lat="36.7434650" lon="-3.7871820">
        <ele>-38.0</ele>
        <time>2022-01-08T14:17:52Z</time>
      </trkpt>
      <trkpt lat="36.7434310" lon="-3.7871780">
        <ele>-38.0</ele>
        <time>2022-01-08T14:17:53Z</time>
      </trkpt>
      <trkpt lat="36.7434310" lon="-3.7871780">
        <ele>-38.0</ele>
        <time>2022-01-08T14:17:54Z</time>
      </trkpt>
      <trkpt lat="36.7434000" lon="-3.7871730">
        <ele>-38.0</ele>
        <time>2022-01-08T14:17:55Z</time>
      </trkpt>
      <trkpt lat="36.7433810" lon="-3.7871670">
        <ele>-38.0</ele>
        <time>2022-01-08T14:17:56Z</time>
      </trkpt>
      <trkpt lat="36.7433810" lon="-3.7871670">
        <ele>-38.0</ele>
        <time>2022-01-08T14:17:57Z</time>
      </trkpt>
      <trkpt lat="36.7433520" lon="-3.7871590">
        <ele>-38.0</ele>
        <time>2022-01-08T14:17:58Z</time>
      </trkpt>
      <trkpt lat="36.7433520" lon="-3.7871590">
        <ele>-38.0</ele>
        <time>2022-01-08T14:17:59Z</time>
      </trkpt>
      <trkpt lat="36.7433520" lon="-3.7871590">
        <ele>-39.0</ele>
        <time>2022-01-08T14:18:00Z</time>
      </trkpt>
      <trkpt lat="36.7433270" lon="-3.7871410">
        <ele>-39.0</ele>
        <time>2022-01-08T14:18:01Z</time>
      </trkpt>
      <trkpt lat="36.7433120" lon="-3.7871260">
        <ele>-39.0</ele>
        <time>2022-01-08T14:18:02Z</time>
      </trkpt>
      <trkpt lat="36.7433120" lon="-3.7871260">
        <ele>-39.0</ele>
        <time>2022-01-08T14:18:03Z</time>
      </trkpt>
      <trkpt lat="36.7433080" lon="-3.7870960">
        <ele>-39.0</ele>
        <time>2022-01-08T14:18:04Z</time>
      </trkpt>
      <trkpt lat="36.7433080" lon="-3.7870960">
        <ele>-39.0</ele>
        <time>2022-01-08T14:18:05Z</time>
      </trkpt>
      <trkpt lat="36.7433080" lon="-3.7870960">
        <ele>-38.0</ele>
        <time>2022-01-08T14:18:06Z</time>
      </trkpt>
      <trkpt lat="36.7433100" lon="-3.7870730">
        <ele>-37.0</ele>
        <time>2022-01-08T14:18:07Z</time>
      </trkpt>
      <trkpt lat="36.7433100" lon="-3.7870730">
        <ele>-37.0</ele>
        <time>2022-01-08T14:18:08Z</time>
      </trkpt>
      <trkpt lat="36.7433100" lon="-3.7870730">
        <ele>-37.0</ele>
        <time>2022-01-08T14:18:09Z</time>
      </trkpt>
      <trkpt lat="36.7433100" lon="-3.7870730">
        <ele>-36.0</ele>
        <time>2022-01-08T14:18:10Z</time>
      </trkpt>
      <trkpt lat="36.7433100" lon="-3.7870730">
        <ele>-36.0</ele>
        <time>2022-01-08T14:18:11Z</time>
      </trkpt>
      <trkpt lat="36.7433170" lon="-3.7870420">
        <ele>-36.0</ele>
        <time>2022-01-08T14:18:12Z</time>
      </trkpt>
      <trkpt lat="36.7433170" lon="-3.7870420">
        <ele>-36.0</ele>
        <time>2022-01-08T14:18:13Z</time>
      </trkpt>
      <trkpt lat="36.7433170" lon="-3.7870420">
        <ele>-36.0</ele>
        <time>2022-01-08T14:18:14Z</time>
      </trkpt>
      <trkpt lat="36.7433280" lon="-3.7870160">
        <ele>-35.0</ele>
        <time>2022-01-08T14:18:15Z</time>
      </trkpt>
      <trkpt lat="36.7433280" lon="-3.7870160">
        <ele>-35.0</ele>
        <time>2022-01-08T14:18:16Z</time>
      </trkpt>
      <trkpt lat="36.7433280" lon="-3.7870160">
        <ele>-35.0</ele>
        <time>2022-01-08T14:18:17Z</time>
      </trkpt>
      <trkpt lat="36.7433280" lon="-3.7870160">
        <ele>-35.0</ele>
        <time>2022-01-08T14:18:18Z</time>
      </trkpt>
      <trkpt lat="36.7433280" lon="-3.7870160">
        <ele>-33.0</ele>
        <time>2022-01-08T14:18:19Z</time>
      </trkpt>
      <trkpt lat="36.7432970" lon="-3.7870090">
        <ele>-33.0</ele>
        <time>2022-01-08T14:18:20Z</time>
      </trkpt>
      <trkpt lat="36.7432970" lon="-3.7870090">
        <ele>-33.0</ele>
        <time>2022-01-08T14:18:21Z</time>
      </trkpt>
      <trkpt lat="36.7432970" lon="-3.7870090">
        <ele>-32.0</ele>
        <time>2022-01-08T14:18:22Z</time>
      </trkpt>
      <trkpt lat="36.7432820" lon="-3.7869960">
        <ele>-32.0</ele>
        <time>2022-01-08T14:18:23Z</time>
      </trkpt>
      <trkpt lat="36.7432820" lon="-3.7869960">
        <ele>-31.0</ele>
        <time>2022-01-08T14:18:24Z</time>
      </trkpt>
      <trkpt lat="36.7432820" lon="-3.7869960">
        <ele>-31.0</ele>
        <time>2022-01-08T14:18:25Z</time>
      </trkpt>
      <trkpt lat="36.7432820" lon="-3.7869960">
        <ele>-31.0</ele>
        <time>2022-01-08T14:18:26Z</time>
      </trkpt>
      <trkpt lat="36.7432820" lon="-3.7869960">
        <ele>-31.0</ele>
        <time>2022-01-08T14:18:27Z</time>
      </trkpt>
      <trkpt lat="36.7432820" lon="-3.7869960">
        <ele>-30.0</ele>
        <time>2022-01-08T14:18:28Z</time>
      </trkpt>
      <trkpt lat="36.7432820" lon="-3.7869960">
        <ele>-30.0</ele>
        <time>2022-01-08T14:18:29Z</time>
      </trkpt>
      <trkpt lat="36.7432510" lon="-3.7869720">
        <ele>-30.0</ele>
        <time>2022-01-08T14:18:30Z</time>
      </trkpt>
      <trkpt lat="36.7432510" lon="-3.7869720">
        <ele>-29.0</ele>
        <time>2022-01-08T14:18:31Z</time>
      </trkpt>
      <trkpt lat="36.7432510" lon="-3.7869720">
        <ele>-28.0</ele>
        <time>2022-01-08T14:18:32Z</time>
      </trkpt>
      <trkpt lat="36.7432460" lon="-3.7869430">
        <ele>-28.0</ele>
        <time>2022-01-08T14:18:33Z</time>
      </trkpt>
      <trkpt lat="36.7432460" lon="-3.7869430">
        <ele>-27.0</ele>
        <time>2022-01-08T14:18:34Z</time>
      </trkpt>
      <trkpt lat="36.7432460" lon="-3.7869430">
        <ele>-27.0</ele>
        <time>2022-01-08T14:18:35Z</time>
      </trkpt>
      <trkpt lat="36.7432460" lon="-3.7869430">
        <ele>-27.0</ele>
        <time>2022-01-08T14:18:36Z</time>
      </trkpt>
      <trkpt lat="36.7432460" lon="-3.7869430">
        <ele>-27.0</ele>
        <time>2022-01-08T14:18:37Z</time>
      </trkpt>
      <trkpt lat="36.7432460" lon="-3.7869430">
        <ele>-27.0</ele>
        <time>2022-01-08T14:18:38Z</time>
      </trkpt>
      <trkpt lat="36.7432460" lon="-3.7869430">
        <ele>-26.0</ele>
        <time>2022-01-08T14:18:39Z</time>
      </trkpt>
      <trkpt lat="36.7432460" lon="-3.7869430">
        <ele>-26.0</ele>
        <time>2022-01-08T14:18:40Z</time>
      </trkpt>
      <trkpt lat="36.7432460" lon="-3.7869430">
        <ele>-25.0</ele>
        <time>2022-01-08T14:18:41Z</time>
      </trkpt>
      <trkpt lat="36.7432210" lon="-3.7869450">
        <ele>-25.0</ele>
        <time>2022-01-08T14:18:42Z</time>
      </trkpt>
      <trkpt lat="36.7432210" lon="-3.7869450">
        <ele>-25.0</ele>
        <time>2022-01-08T14:18:43Z</time>
      </trkpt>
      <trkpt lat="36.7432200" lon="-3.7869340">
        <ele>-24.0</ele>
        <time>2022-01-08T14:18:44Z</time>
      </trkpt>
      <trkpt lat="36.7432180" lon="-3.7869230">
        <ele>-24.0</ele>
        <time>2022-01-08T14:18:45Z</time>
      </trkpt>
      <trkpt lat="36.7432170" lon="-3.7869130">
        <ele>-24.0</ele>
        <time>2022-01-08T14:18:46Z</time>
      </trkpt>
      <trkpt lat="36.7432150" lon="-3.7869020">
        <ele>-23.0</ele>
        <time>2022-01-08T14:18:47Z</time>
      </trkpt>
      <trkpt lat="36.7432140" lon="-3.7868910">
        <ele>-22.0</ele>
        <time>2022-01-08T14:18:48Z</time>
      </trkpt>
      <trkpt lat="36.7432120" lon="-3.7868810">
        <ele>-22.0</ele>
        <time>2022-01-08T14:18:49Z</time>
      </trkpt>
      <trkpt lat="36.7432120" lon="-3.7868810">
        <ele>-22.0</ele>
        <time>2022-01-08T14:18:50Z</time>
      </trkpt>
      <trkpt lat="36.7432210" lon="-3.7868590">
        <ele>-22.0</ele>
        <time>2022-01-08T14:18:51Z</time>
      </trkpt>
      <trkpt lat="36.7432210" lon="-3.7868590">
        <ele>-21.0</ele>
        <time>2022-01-08T14:18:52Z</time>
      </trkpt>
      <trkpt lat="36.7432210" lon="-3.7868590">
        <ele>-21.0</ele>
        <time>2022-01-08T14:18:53Z</time>
      </trkpt>
      <trkpt lat="36.7432210" lon="-3.7868590">
        <ele>-21.0</ele>
        <time>2022-01-08T14:18:54Z</time>
      </trkpt>
      <trkpt lat="36.7432210" lon="-3.7868590">
        <ele>-21.0</ele>
        <time>2022-01-08T14:18:55Z</time>
      </trkpt>
      <trkpt lat="36.7432210" lon="-3.7868590">
        <ele>-20.0</ele>
        <time>2022-01-08T14:18:56Z</time>
      </trkpt>
      <trkpt lat="36.7432210" lon="-3.7868590">
        <ele>-20.0</ele>
        <time>2022-01-08T14:18:57Z</time>
      </trkpt>
      <trkpt lat="36.7432330" lon="-3.7868400">
        <ele>-19.0</ele>
        <time>2022-01-08T14:18:58Z</time>
      </trkpt>
      <trkpt lat="36.7432330" lon="-3.7868400">
        <ele>-19.0</ele>
        <time>2022-01-08T14:18:59Z</time>
      </trkpt>
      <trkpt lat="36.7432330" lon="-3.7868400">
        <ele>-18.0</ele>
        <time>2022-01-08T14:19:00Z</time>
      </trkpt>
      <trkpt lat="36.7432330" lon="-3.7868400">
        <ele>-18.0</ele>
        <time>2022-01-08T14:19:01Z</time>
      </trkpt>
      <trkpt lat="36.7432150" lon="-3.7868310">
        <ele>-18.0</ele>
        <time>2022-01-08T14:19:02Z</time>
      </trkpt>
      <trkpt lat="36.7432150" lon="-3.7868310">
        <ele>-18.0</ele>
        <time>2022-01-08T14:19:03Z</time>
      </trkpt>
      <trkpt lat="36.7432150" lon="-3.7868310">
        <ele>-18.0</ele>
        <time>2022-01-08T14:19:04Z</time>
      </trkpt>
      <trkpt lat="36.7432150" lon="-3.7868310">
        <ele>-18.0</ele>
        <time>2022-01-08T14:19:05Z</time>
      </trkpt>
      <trkpt lat="36.7431990" lon="-3.7868150">
        <ele>-18.0</ele>
        <time>2022-01-08T14:19:06Z</time>
      </trkpt>
      <trkpt lat="36.7431990" lon="-3.7868150">
        <ele>-17.0</ele>
        <time>2022-01-08T14:19:07Z</time>
      </trkpt>
      <trkpt lat="36.7431990" lon="-3.7868150">
        <ele>-16.0</ele>
        <time>2022-01-08T14:19:08Z</time>
      </trkpt>
      <trkpt lat="36.7431990" lon="-3.7868150">
        <ele>-16.0</ele>
        <time>2022-01-08T14:19:09Z</time>
      </trkpt>
      <trkpt lat="36.7431990" lon="-3.7868150">
        <ele>-16.0</ele>
        <time>2022-01-08T14:19:10Z</time>
      </trkpt>
      <trkpt lat="36.7431890" lon="-3.7867940">
        <ele>-15.0</ele>
        <time>2022-01-08T14:19:11Z</time>
      </trkpt>
      <trkpt lat="36.7431890" lon="-3.7867940">
        <ele>-15.0</ele>
        <time>2022-01-08T14:19:12Z</time>
      </trkpt>
      <trkpt lat="36.7431890" lon="-3.7867940">
        <ele>-15.0</ele>
        <time>2022-01-08T14:19:13Z</time>
      </trkpt>
      <trkpt lat="36.7431890" lon="-3.7867940">
        <ele>-15.0</ele>
        <time>2022-01-08T14:19:14Z</time>
      </trkpt>
      <trkpt lat="36.7431810" lon="-3.7867700">
        <ele>-14.0</ele>
        <time>2022-01-08T14:19:15Z</time>
      </trkpt>
      <trkpt lat="36.7431810" lon="-3.7867700">
        <ele>-14.0</ele>
        <time>2022-01-08T14:19:16Z</time>
      </trkpt>
      <trkpt lat="36.7431810" lon="-3.7867700">
        <ele>-14.0</ele>
        <time>2022-01-08T14:19:17Z</time>
      </trkpt>
      <trkpt lat="36.7431810" lon="-3.7867700">
        <ele>-14.0</ele>
        <time>2022-01-08T14:19:18Z</time>
      </trkpt>
      <trkpt lat="36.7431620" lon="-3.7867540">
        <ele>-14.0</ele>
        <time>2022-01-08T14:19:19Z</time>
      </trkpt>
      <trkpt lat="36.7431620" lon="-3.7867540">
        <ele>-13.0</ele>
        <time>2022-01-08T14:19:20Z</time>
      </trkpt>
      <trkpt lat="36.7431620" lon="-3.7867540">
        <ele>-13.0</ele>
        <time>2022-01-08T14:19:21Z</time>
      </trkpt>
      <trkpt lat="36.7431620" lon="-3.7867540">
        <ele>-12.0</ele>
        <time>2022-01-08T14:19:22Z</time>
      </trkpt>
      <trkpt lat="36.7431430" lon="-3.7867310">
        <ele>-12.0</ele>
        <time>2022-01-08T14:19:23Z</time>
      </trkpt>
      <trkpt lat="36.7431430" lon="-3.7867310">
        <ele>-11.0</ele>
        <time>2022-01-08T14:19:24Z</time>
      </trkpt>
      <trkpt lat="36.7431430" lon="-3.7867310">
        <ele>-11.0</ele>
        <time>2022-01-08T14:19:25Z</time>
      </trkpt>
      <trkpt lat="36.7431260" lon="-3.7867420">
        <ele>-11.0</ele>
        <time>2022-01-08T14:19:26Z</time>
      </trkpt>
      <trkpt lat="36.7431260" lon="-3.7867420">
        <ele>-11.0</ele>
        <time>2022-01-08T14:19:27Z</time>
      </trkpt>
      <trkpt lat="36.7431260" lon="-3.7867420">
        <ele>-11.0</ele>
        <time>2022-01-08T14:19:28Z</time>
      </trkpt>
      <trkpt lat="36.7431260" lon="-3.7867420">
        <ele>-11.0</ele>
        <time>2022-01-08T14:19:29Z</time>
      </trkpt>
      <trkpt lat="36.7431000" lon="-3.7867430">
        <ele>-11.0</ele>
        <time>2022-01-08T14:19:30Z</time>
      </trkpt>
      <trkpt lat="36.7431000" lon="-3.7867430">
        <ele>-11.0</ele>
        <time>2022-01-08T14:19:31Z</time>
      </trkpt>
      <trkpt lat="36.7431000" lon="-3.7867430">
        <ele>-10.0</ele>
        <time>2022-01-08T14:19:32Z</time>
      </trkpt>
      <trkpt lat="36.7431000" lon="-3.7867430">
        <ele>-10.0</ele>
        <time>2022-01-08T14:19:33Z</time>
      </trkpt>
      <trkpt lat="36.7431000" lon="-3.7867430">
        <ele>-10.0</ele>
        <time>2022-01-08T14:19:34Z</time>
      </trkpt>
      <trkpt lat="36.7431000" lon="-3.7867430">
        <ele>-10.0</ele>
        <time>2022-01-08T14:19:35Z</time>
      </trkpt>
      <trkpt lat="36.7431000" lon="-3.7867430">
        <ele>-9.0</ele>
        <time>2022-01-08T14:19:36Z</time>
      </trkpt>
      <trkpt lat="36.7431000" lon="-3.7867430">
        <ele>-9.0</ele>
        <time>2022-01-08T14:19:37Z</time>
      </trkpt>
      <trkpt lat="36.7430790" lon="-3.7867390">
        <ele>-9.0</ele>
        <time>2022-01-08T14:19:38Z</time>
      </trkpt>
      <trkpt lat="36.7430790" lon="-3.7867390">
        <ele>-9.0</ele>
        <time>2022-01-08T14:19:39Z</time>
      </trkpt>
      <trkpt lat="36.7430790" lon="-3.7867390">
        <ele>-9.0</ele>
        <time>2022-01-08T14:19:40Z</time>
      </trkpt>
      <trkpt lat="36.7430590" lon="-3.7867460">
        <ele>-9.0</ele>
        <time>2022-01-08T14:19:41Z</time>
      </trkpt>
      <trkpt lat="36.7430590" lon="-3.7867460">
        <ele>-8.0</ele>
        <time>2022-01-08T14:19:42Z</time>
      </trkpt>
      <trkpt lat="36.7430500" lon="-3.7867680">
        <ele>-8.0</ele>
        <time>2022-01-08T14:19:43Z</time>
      </trkpt>
      <trkpt lat="36.7430500" lon="-3.7867680">
        <ele>-8.0</ele>
        <time>2022-01-08T14:19:44Z</time>
      </trkpt>
      <trkpt lat="36.7430400" lon="-3.7867910">
        <ele>-8.0</ele>
        <time>2022-01-08T14:19:45Z</time>
      </trkpt>
      <trkpt lat="36.7430400" lon="-3.7867910">
        <ele>-8.0</ele>
        <time>2022-01-08T14:19:46Z</time>
      </trkpt>
      <trkpt lat="36.7430350" lon="-3.7868150">
        <ele>-8.0</ele>
        <time>2022-01-08T14:19:47Z</time>
      </trkpt>
      <trkpt lat="36.7430350" lon="-3.7868150">
        <ele>-8.0</ele>
        <time>2022-01-08T14:19:48Z</time>
      </trkpt>
      <trkpt lat="36.7430350" lon="-3.7868150">
        <ele>-8.0</ele>
        <time>2022-01-08T14:19:49Z</time>
      </trkpt>
      <trkpt lat="36.7430310" lon="-3.7868450">
        <ele>-8.0</ele>
        <time>2022-01-08T14:19:50Z</time>
      </trkpt>
      <trkpt lat="36.7430310" lon="-3.7868450">
        <ele>-8.0</ele>
        <time>2022-01-08T14:19:51Z</time>
      </trkpt>
      <trkpt lat="36.7430250" lon="-3.7868720">
        <ele>-8.0</ele>
        <time>2022-01-08T14:19:52Z</time>
      </trkpt>
      <trkpt lat="36.7430250" lon="-3.7868720">
        <ele>-7.0</ele>
        <time>2022-01-08T14:19:53Z</time>
      </trkpt>
      <trkpt lat="36.7430150" lon="-3.7868950">
        <ele>-7.0</ele>
        <time>2022-01-08T14:19:54Z</time>
      </trkpt>
      <trkpt lat="36.7430150" lon="-3.7868950">
        <ele>-8.0</ele>
        <time>2022-01-08T14:19:55Z</time>
      </trkpt>
      <trkpt lat="36.7430130" lon="-3.7869200">
        <ele>-8.0</ele>
        <time>2022-01-08T14:19:56Z</time>
      </trkpt>
      <trkpt lat="36.7430130" lon="-3.7869200">
        <ele>-8.0</ele>
        <time>2022-01-08T14:19:57Z</time>
      </trkpt>
      <trkpt lat="36.7430130" lon="-3.7869200">
        <ele>-7.0</ele>
        <time>2022-01-08T14:19:58Z</time>
      </trkpt>
      <trkpt lat="36.7430160" lon="-3.7869460">
        <ele>-7.0</ele>
        <time>2022-01-08T14:19:59Z</time>
      </trkpt>
      <trkpt lat="36.7430160" lon="-3.7869460">
        <ele>-7.0</ele>
        <time>2022-01-08T14:20:00Z</time>
      </trkpt>
      <trkpt lat="36.7430160" lon="-3.7869460">
        <ele>-7.0</ele>
        <time>2022-01-08T14:20:01Z</time>
      </trkpt>
      <trkpt lat="36.7430160" lon="-3.7869460">
        <ele>-7.0</ele>
        <time>2022-01-08T14:20:02Z</time>
      </trkpt>
      <trkpt lat="36.7429840" lon="-3.7870340">
        <ele>-6.0</ele>
        <time>2022-01-08T14:20:44Z</time>
      </trkpt>
      <trkpt lat="36.7429840" lon="-3.7870340">
        <ele>-6.0</ele>
        <time>2022-01-08T14:20:45Z</time>
      </trkpt>
      <trkpt lat="36.7429660" lon="-3.7870540">
        <ele>-6.0</ele>
        <time>2022-01-08T14:20:46Z</time>
      </trkpt>
      <trkpt lat="36.7429660" lon="-3.7870540">
        <ele>-6.0</ele>
        <time>2022-01-08T14:20:47Z</time>
      </trkpt>
      <trkpt lat="36.7429490" lon="-3.7870760">
        <ele>-6.0</ele>
        <time>2022-01-08T14:20:48Z</time>
      </trkpt>
      <trkpt lat="36.7429490" lon="-3.7870760">
        <ele>-7.0</ele>
        <time>2022-01-08T14:20:49Z</time>
      </trkpt>
      <trkpt lat="36.7429490" lon="-3.7870760">
        <ele>-7.0</ele>
        <time>2022-01-08T14:20:50Z</time>
      </trkpt>
      <trkpt lat="36.7429490" lon="-3.7870760">
        <ele>-7.0</ele>
        <time>2022-01-08T14:20:51Z</time>
      </trkpt>
      <trkpt lat="36.7429490" lon="-3.7870760">
        <ele>-7.0</ele>
        <time>2022-01-08T14:20:52Z</time>
      </trkpt>
      <trkpt lat="36.7429490" lon="-3.7870760">
        <ele>-7.0</ele>
        <time>2022-01-08T14:20:53Z</time>
      </trkpt>
      <trkpt lat="36.7429650" lon="-3.7870620">
        <ele>-7.0</ele>
        <time>2022-01-08T14:20:54Z</time>
      </trkpt>
      <trkpt lat="36.7429650" lon="-3.7870620">
        <ele>-6.0</ele>
        <time>2022-01-08T14:20:55Z</time>
      </trkpt>
      <trkpt lat="36.7429810" lon="-3.7870310">
        <ele>-5.0</ele>
        <time>2022-01-08T14:20:56Z</time>
      </trkpt>
      <trkpt lat="36.7429810" lon="-3.7870310">
        <ele>-5.0</ele>
        <time>2022-01-08T14:20:57Z</time>
      </trkpt>
      <trkpt lat="36.7429960" lon="-3.7870080">
        <ele>-5.0</ele>
        <time>2022-01-08T14:20:58Z</time>
      </trkpt>
      <trkpt lat="36.7429960" lon="-3.7870080">
        <ele>-5.0</ele>
        <time>2022-01-08T14:20:59Z</time>
      </trkpt>
      <trkpt lat="36.7430060" lon="-3.7869840">
        <ele>-5.0</ele>
        <time>2022-01-08T14:21:00Z</time>
      </trkpt>
      <trkpt lat="36.7430060" lon="-3.7869840">
        <ele>-5.0</ele>
        <time>2022-01-08T14:21:01Z</time>
      </trkpt>
      <trkpt lat="36.7429970" lon="-3.7869600">
        <ele>-5.0</ele>
        <time>2022-01-08T14:21:02Z</time>
      </trkpt>
      <trkpt lat="36.7429970" lon="-3.7869600">
        <ele>-5.0</ele>
        <time>2022-01-08T14:21:03Z</time>
      </trkpt>
      <trkpt lat="36.7429970" lon="-3.7869600">
        <ele>-5.0</ele>
        <time>2022-01-08T14:21:04Z</time>
      </trkpt>
      <trkpt lat="36.7429880" lon="-3.7869350">
        <ele>-5.0</ele>
        <time>2022-01-08T14:21:05Z</time>
      </trkpt>
      <trkpt lat="36.7429970" lon="-3.7868980">
        <ele>-5.0</ele>
        <time>2022-01-08T14:21:06Z</time>
      </trkpt>
      <trkpt lat="36.7429970" lon="-3.7868980">
        <ele>-5.0</ele>
        <time>2022-01-08T14:21:07Z</time>
      </trkpt>
      <trkpt lat="36.7430060" lon="-3.7868680">
        <ele>-5.0</ele>
        <time>2022-01-08T14:21:08Z</time>
      </trkpt>
      <trkpt lat="36.7430060" lon="-3.7868680">
        <ele>-5.0</ele>
        <time>2022-01-08T14:21:09Z</time>
      </trkpt>
      <trkpt lat="36.7430100" lon="-3.7868390">
        <ele>-5.0</ele>
        <time>2022-01-08T14:21:10Z</time>
      </trkpt>
      <trkpt lat="36.7430100" lon="-3.7868390">
        <ele>-5.0</ele>
        <time>2022-01-08T14:21:11Z</time>
      </trkpt>
      <trkpt lat="36.7430190" lon="-3.7868120">
        <ele>-5.0</ele>
        <time>2022-01-08T14:21:12Z</time>
      </trkpt>
      <trkpt lat="36.7430190" lon="-3.7868120">
        <ele>-5.0</ele>
        <time>2022-01-08T14:21:13Z</time>
      </trkpt>
      <trkpt lat="36.7430280" lon="-3.7867850">
        <ele>-5.0</ele>
        <time>2022-01-08T14:21:14Z</time>
      </trkpt>
      <trkpt lat="36.7430280" lon="-3.7867850">
        <ele>-5.0</ele>
        <time>2022-01-08T14:21:15Z</time>
      </trkpt>
      <trkpt lat="36.7430340" lon="-3.7867560">
        <ele>-5.0</ele>
        <time>2022-01-08T14:21:16Z</time>
      </trkpt>
      <trkpt lat="36.7430340" lon="-3.7867560">
        <ele>-5.0</ele>
        <time>2022-01-08T14:21:17Z</time>
      </trkpt>
      <trkpt lat="36.7430340" lon="-3.7867560">
        <ele>-5.0</ele>
        <time>2022-01-08T14:21:18Z</time>
      </trkpt>
      <trkpt lat="36.7430280" lon="-3.7867290">
        <ele>-4.0</ele>
        <time>2022-01-08T14:21:19Z</time>
      </trkpt>
      <trkpt lat="36.7430280" lon="-3.7867290">
        <ele>-3.0</ele>
        <time>2022-01-08T14:21:20Z</time>
      </trkpt>
      <trkpt lat="36.7430280" lon="-3.7867290">
        <ele>-3.0</ele>
        <time>2022-01-08T14:21:21Z</time>
      </trkpt>
      <trkpt lat="36.7430090" lon="-3.7867100">
        <ele>-2.0</ele>
        <time>2022-01-08T14:21:22Z</time>
      </trkpt>
      <trkpt lat="36.7430090" lon="-3.7867100">
        <ele>-2.0</ele>
        <time>2022-01-08T14:21:23Z</time>
      </trkpt>
      <trkpt lat="36.7429880" lon="-3.7866920">
        <ele>-2.0</ele>
        <time>2022-01-08T14:21:24Z</time>
      </trkpt>
      <trkpt lat="36.7429880" lon="-3.7866920">
        <ele>-2.0</ele>
        <time>2022-01-08T14:21:25Z</time>
      </trkpt>
      <trkpt lat="36.7429750" lon="-3.7866660">
        <ele>-2.0</ele>
        <time>2022-01-08T14:21:26Z</time>
      </trkpt>
      <trkpt lat="36.7429750" lon="-3.7866660">
        <ele>-1.0</ele>
        <time>2022-01-08T14:21:27Z</time>
      </trkpt>
      <trkpt lat="36.7429620" lon="-3.7866420">
        <ele>-1.0</ele>
        <time>2022-01-08T14:21:28Z</time>
      </trkpt>
      <trkpt lat="36.7429620" lon="-3.7866420">
        <ele>-1.0</ele>
        <time>2022-01-08T14:21:29Z</time>
      </trkpt>
      <trkpt lat="36.7429500" lon="-3.7866170">
        <ele>0.0</ele>
        <time>2022-01-08T14:21:30Z</time>
      </trkpt>
      <trkpt lat="36.7429500" lon="-3.7866170">
        <ele>0.0</ele>
        <time>2022-01-08T14:21:31Z</time>
      </trkpt>
      <trkpt lat="36.7429320" lon="-3.7865920">
        <ele>0.0</ele>
        <time>2022-01-08T14:21:32Z</time>
      </trkpt>
      <trkpt lat="36.7429320" lon="-3.7865920">
        <ele>1.0</ele>
        <time>2022-01-08T14:21:33Z</time>
      </trkpt>
      <trkpt lat="36.7429060" lon="-3.7865800">
        <ele>1.0</ele>
        <time>2022-01-08T14:21:34Z</time>
      </trkpt>
      <trkpt lat="36.7429060" lon="-3.7865800">
        <ele>1.0</ele>
        <time>2022-01-08T14:21:35Z</time>
      </trkpt>
      <trkpt lat="36.7428870" lon="-3.7865590">
        <ele>1.0</ele>
        <time>2022-01-08T14:21:36Z</time>
      </trkpt>
      <trkpt lat="36.7428870" lon="-3.7865590">
        <ele>1.0</ele>
        <time>2022-01-08T14:21:37Z</time>
      </trkpt>
      <trkpt lat="36.7428650" lon="-3.7865320">
        <ele>1.0</ele>
        <time>2022-01-08T14:21:38Z</time>
      </trkpt>
      <trkpt lat="36.7428650" lon="-3.7865320">
        <ele>2.0</ele>
        <time>2022-01-08T14:21:39Z</time>
      </trkpt>
      <trkpt lat="36.7428520" lon="-3.7865120">
        <ele>2.0</ele>
        <time>2022-01-08T14:21:40Z</time>
      </trkpt>
      <trkpt lat="36.7428520" lon="-3.7865120">
        <ele>2.0</ele>
        <time>2022-01-08T14:21:41Z</time>
      </trkpt>
      <trkpt lat="36.7428520" lon="-3.7865120">
        <ele>2.0</ele>
        <time>2022-01-08T14:21:42Z</time>
      </trkpt>
      <trkpt lat="36.7428320" lon="-3.7864960">
        <ele>2.0</ele>
        <time>2022-01-08T14:21:43Z</time>
      </trkpt>
      <trkpt lat="36.7428320" lon="-3.7864960">
        <ele>2.0</ele>
        <time>2022-01-08T14:21:44Z</time>
      </trkpt>
      <trkpt lat="36.7428320" lon="-3.7864960">
        <ele>3.0</ele>
        <time>2022-01-08T14:21:45Z</time>
      </trkpt>
      <trkpt lat="36.7428230" lon="-3.7864670">
        <ele>3.0</ele>
        <time>2022-01-08T14:21:46Z</time>
      </trkpt>
      <trkpt lat="36.7428230" lon="-3.7864670">
        <ele>3.0</ele>
        <time>2022-01-08T14:21:47Z</time>
      </trkpt>
      <trkpt lat="36.7428230" lon="-3.7864670">
        <ele>3.0</ele>
        <time>2022-01-08T14:21:48Z</time>
      </trkpt>
      <trkpt lat="36.7428200" lon="-3.7864400">
        <ele>4.0</ele>
        <time>2022-01-08T14:21:49Z</time>
      </trkpt>
      <trkpt lat="36.7428200" lon="-3.7864400">
        <ele>4.0</ele>
        <time>2022-01-08T14:21:50Z</time>
      </trkpt>
      <trkpt lat="36.7428200" lon="-3.7864400">
        <ele>4.0</ele>
        <time>2022-01-08T14:21:51Z</time>
      </trkpt>
      <trkpt lat="36.7428200" lon="-3.7864400">
        <ele>4.0</ele>
        <time>2022-01-08T14:21:52Z</time>
      </trkpt>
      <trkpt lat="36.7428200" lon="-3.7864400">
        <ele>5.0</ele>
        <time>2022-01-08T14:21:53Z</time>
      </trkpt>
      <trkpt lat="36.7428090" lon="-3.7864110">
        <ele>5.0</ele>
        <time>2022-01-08T14:21:54Z</time>
      </trkpt>
      <trkpt lat="36.7428090" lon="-3.7864110">
        <ele>6.0</ele>
        <time>2022-01-08T14:21:55Z</time>
      </trkpt>
      <trkpt lat="36.7427890" lon="-3.7863980">
        <ele>6.0</ele>
        <time>2022-01-08T14:21:56Z</time>
      </trkpt>
      <trkpt lat="36.7427890" lon="-3.7863980">
        <ele>6.0</ele>
        <time>2022-01-08T14:21:57Z</time>
      </trkpt>
      <trkpt lat="36.7427640" lon="-3.7863930">
        <ele>6.0</ele>
        <time>2022-01-08T14:21:58Z</time>
      </trkpt>
      <trkpt lat="36.7427640" lon="-3.7863930">
        <ele>6.0</ele>
        <time>2022-01-08T14:21:59Z</time>
      </trkpt>
      <trkpt lat="36.7427390" lon="-3.7863930">
        <ele>5.0</ele>
        <time>2022-01-08T14:22:00Z</time>
      </trkpt>
      <trkpt lat="36.7427390" lon="-3.7863930">
        <ele>5.0</ele>
        <time>2022-01-08T14:22:01Z</time>
      </trkpt>
      <trkpt lat="36.7427190" lon="-3.7863930">
        <ele>5.0</ele>
        <time>2022-01-08T14:22:02Z</time>
      </trkpt>
      <trkpt lat="36.7427190" lon="-3.7863930">
        <ele>5.0</ele>
        <time>2022-01-08T14:22:03Z</time>
      </trkpt>
      <trkpt lat="36.7426940" lon="-3.7863970">
        <ele>3.0</ele>
        <time>2022-01-08T14:22:04Z</time>
      </trkpt>
      <trkpt lat="36.7426940" lon="-3.7863970">
        <ele>3.0</ele>
        <time>2022-01-08T14:22:05Z</time>
      </trkpt>
      <trkpt lat="36.7426660" lon="-3.7864040">
        <ele>3.0</ele>
        <time>2022-01-08T14:22:06Z</time>
      </trkpt>
      <trkpt lat="36.7426660" lon="-3.7864040">
        <ele>3.0</ele>
        <time>2022-01-08T14:22:07Z</time>
      </trkpt>
      <trkpt lat="36.7426390" lon="-3.7864110">
        <ele>3.0</ele>
        <time>2022-01-08T14:22:08Z</time>
      </trkpt>
      <trkpt lat="36.7426390" lon="-3.7864110">
        <ele>2.0</ele>
        <time>2022-01-08T14:22:09Z</time>
      </trkpt>
      <trkpt lat="36.7426110" lon="-3.7864080">
        <ele>2.0</ele>
        <time>2022-01-08T14:22:10Z</time>
      </trkpt>
      <trkpt lat="36.7425930" lon="-3.7863930">
        <ele>2.0</ele>
        <time>2022-01-08T14:22:11Z</time>
      </trkpt>
      <trkpt lat="36.7425770" lon="-3.7863790">
        <ele>1.0</ele>
        <time>2022-01-08T14:22:12Z</time>
      </trkpt>
      <trkpt lat="36.7425770" lon="-3.7863790">
        <ele>0.0</ele>
        <time>2022-01-08T14:22:13Z</time>
      </trkpt>
      <trkpt lat="36.7425530" lon="-3.7863670">
        <ele>-1.0</ele>
        <time>2022-01-08T14:22:14Z</time>
      </trkpt>
      <trkpt lat="36.7425530" lon="-3.7863670">
        <ele>-1.0</ele>
        <time>2022-01-08T14:22:15Z</time>
      </trkpt>
      <trkpt lat="36.7425300" lon="-3.7863540">
        <ele>0.0</ele>
        <time>2022-01-08T14:22:16Z</time>
      </trkpt>
      <trkpt lat="36.7425300" lon="-3.7863540">
        <ele>0.0</ele>
        <time>2022-01-08T14:22:17Z</time>
      </trkpt>
      <trkpt lat="36.7425300" lon="-3.7863540">
        <ele>0.0</ele>
        <time>2022-01-08T14:22:18Z</time>
      </trkpt>
      <trkpt lat="36.7425150" lon="-3.7863400">
        <ele>1.0</ele>
        <time>2022-01-08T14:22:19Z</time>
      </trkpt>
      <trkpt lat="36.7425150" lon="-3.7863400">
        <ele>1.0</ele>
        <time>2022-01-08T14:22:20Z</time>
      </trkpt>
      <trkpt lat="36.7425150" lon="-3.7863400">
        <ele>1.0</ele>
        <time>2022-01-08T14:22:21Z</time>
      </trkpt>
      <trkpt lat="36.7425150" lon="-3.7863400">
        <ele>1.0</ele>
        <time>2022-01-08T14:22:22Z</time>
      </trkpt>
      <trkpt lat="36.7425150" lon="-3.7863400">
        <ele>3.0</ele>
        <time>2022-01-08T14:22:23Z</time>
      </trkpt>
      <trkpt lat="36.7425150" lon="-3.7863400">
        <ele>3.0</ele>
        <time>2022-01-08T14:22:24Z</time>
      </trkpt>
      <trkpt lat="36.7425150" lon="-3.7863400">
        <ele>3.0</ele>
        <time>2022-01-08T14:22:25Z</time>
      </trkpt>
      <trkpt lat="36.7425060" lon="-3.7863140">
        <ele>4.0</ele>
        <time>2022-01-08T14:22:26Z</time>
      </trkpt>
      <trkpt lat="36.7425060" lon="-3.7863140">
        <ele>4.0</ele>
        <time>2022-01-08T14:22:27Z</time>
      </trkpt>
      <trkpt lat="36.7424870" lon="-3.7863070">
        <ele>5.0</ele>
        <time>2022-01-08T14:22:28Z</time>
      </trkpt>
      <trkpt lat="36.7424870" lon="-3.7863070">
        <ele>5.0</ele>
        <time>2022-01-08T14:22:29Z</time>
      </trkpt>
      <trkpt lat="36.7424870" lon="-3.7863070">
        <ele>5.0</ele>
        <time>2022-01-08T14:22:30Z</time>
      </trkpt>
      <trkpt lat="36.7424630" lon="-3.7863060">
        <ele>5.0</ele>
        <time>2022-01-08T14:22:31Z</time>
      </trkpt>
      <trkpt lat="36.7424630" lon="-3.7863060">
        <ele>5.0</ele>
        <time>2022-01-08T14:22:32Z</time>
      </trkpt>
      <trkpt lat="36.7424630" lon="-3.7863060">
        <ele>5.0</ele>
        <time>2022-01-08T14:22:33Z</time>
      </trkpt>
      <trkpt lat="36.7424370" lon="-3.7863120">
        <ele>6.0</ele>
        <time>2022-01-08T14:22:34Z</time>
      </trkpt>
      <trkpt lat="36.7424370" lon="-3.7863120">
        <ele>6.0</ele>
        <time>2022-01-08T14:22:35Z</time>
      </trkpt>
      <trkpt lat="36.7424120" lon="-3.7863180">
        <ele>6.0</ele>
        <time>2022-01-08T14:22:36Z</time>
      </trkpt>
      <trkpt lat="36.7424120" lon="-3.7863180">
        <ele>5.0</ele>
        <time>2022-01-08T14:22:37Z</time>
      </trkpt>
      <trkpt lat="36.7423870" lon="-3.7863310">
        <ele>4.0</ele>
        <time>2022-01-08T14:22:38Z</time>
      </trkpt>
      <trkpt lat="36.7423870" lon="-3.7863310">
        <ele>4.0</ele>
        <time>2022-01-08T14:22:39Z</time>
      </trkpt>
      <trkpt lat="36.7423550" lon="-3.7863480">
        <ele>4.0</ele>
        <time>2022-01-08T14:22:40Z</time>
      </trkpt>
      <trkpt lat="36.7423330" lon="-3.7863540">
        <ele>4.0</ele>
        <time>2022-01-08T14:22:41Z</time>
      </trkpt>
      <trkpt lat="36.7423330" lon="-3.7863540">
        <ele>4.0</ele>
        <time>2022-01-08T14:22:42Z</time>
      </trkpt>
      <trkpt lat="36.7422990" lon="-3.7863540">
        <ele>3.0</ele>
        <time>2022-01-08T14:22:43Z</time>
      </trkpt>
      <trkpt lat="36.7422990" lon="-3.7863540">
        <ele>3.0</ele>
        <time>2022-01-08T14:22:44Z</time>
      </trkpt>
      <trkpt lat="36.7422730" lon="-3.7863530">
        <ele>3.0</ele>
        <time>2022-01-08T14:22:45Z</time>
      </trkpt>
      <trkpt lat="36.7422730" lon="-3.7863530">
        <ele>3.0</ele>
        <time>2022-01-08T14:22:46Z</time>
      </trkpt>
      <trkpt lat="36.7422510" lon="-3.7863330">
        <ele>2.0</ele>
        <time>2022-01-08T14:22:47Z</time>
      </trkpt>
      <trkpt lat="36.7422510" lon="-3.7863330">
        <ele>2.0</ele>
        <time>2022-01-08T14:22:48Z</time>
      </trkpt>
      <trkpt lat="36.7422290" lon="-3.7863040">
        <ele>2.0</ele>
        <time>2022-01-08T14:22:49Z</time>
      </trkpt>
      <trkpt lat="36.7422290" lon="-3.7863040">
        <ele>2.0</ele>
        <time>2022-01-08T14:22:50Z</time>
      </trkpt>
      <trkpt lat="36.7422070" lon="-3.7862790">
        <ele>2.0</ele>
        <time>2022-01-08T14:22:51Z</time>
      </trkpt>
      <trkpt lat="36.7422070" lon="-3.7862790">
        <ele>2.0</ele>
        <time>2022-01-08T14:22:52Z</time>
      </trkpt>
      <trkpt lat="36.7421820" lon="-3.7862680">
        <ele>2.0</ele>
        <time>2022-01-08T14:22:53Z</time>
      </trkpt>
      <trkpt lat="36.7421820" lon="-3.7862680">
        <ele>2.0</ele>
        <time>2022-01-08T14:22:54Z</time>
      </trkpt>
      <trkpt lat="36.7421590" lon="-3.7862650">
        <ele>2.0</ele>
        <time>2022-01-08T14:22:55Z</time>
      </trkpt>
      <trkpt lat="36.7421590" lon="-3.7862650">
        <ele>2.0</ele>
        <time>2022-01-08T14:22:56Z</time>
      </trkpt>
      <trkpt lat="36.7421370" lon="-3.7862640">
        <ele>2.0</ele>
        <time>2022-01-08T14:22:57Z</time>
      </trkpt>
      <trkpt lat="36.7421370" lon="-3.7862640">
        <ele>2.0</ele>
        <time>2022-01-08T14:22:58Z</time>
      </trkpt>
      <trkpt lat="36.7421170" lon="-3.7862670">
        <ele>1.0</ele>
        <time>2022-01-08T14:22:59Z</time>
      </trkpt>
      <trkpt lat="36.7421170" lon="-3.7862670">
        <ele>1.0</ele>
        <time>2022-01-08T14:23:00Z</time>
      </trkpt>
      <trkpt lat="36.7421170" lon="-3.7862670">
        <ele>1.0</ele>
        <time>2022-01-08T14:23:01Z</time>
      </trkpt>
      <trkpt lat="36.7421010" lon="-3.7862570">
        <ele>0.0</ele>
        <time>2022-01-08T14:23:02Z</time>
      </trkpt>
      <trkpt lat="36.7421010" lon="-3.7862570">
        <ele>1.0</ele>
        <time>2022-01-08T14:23:03Z</time>
      </trkpt>
      <trkpt lat="36.7421010" lon="-3.7862570">
        <ele>1.0</ele>
        <time>2022-01-08T14:23:04Z</time>
      </trkpt>
      <trkpt lat="36.7421010" lon="-3.7862570">
        <ele>1.0</ele>
        <time>2022-01-08T14:23:05Z</time>
      </trkpt>
      <trkpt lat="36.7421010" lon="-3.7862570">
        <ele>1.0</ele>
        <time>2022-01-08T14:23:06Z</time>
      </trkpt>
      <trkpt lat="36.7421010" lon="-3.7862570">
        <ele>1.0</ele>
        <time>2022-01-08T14:23:07Z</time>
      </trkpt>
      <trkpt lat="36.7421010" lon="-3.7862570">
        <ele>1.0</ele>
        <time>2022-01-08T14:23:08Z</time>
      </trkpt>
      <trkpt lat="36.7421010" lon="-3.7862570">
        <ele>1.0</ele>
        <time>2022-01-08T14:23:09Z</time>
      </trkpt>
      <trkpt lat="36.7421010" lon="-3.7862570">
        <ele>1.0</ele>
        <time>2022-01-08T14:23:10Z</time>
      </trkpt>
      <trkpt lat="36.7421010" lon="-3.7862570">
        <ele>1.0</ele>
        <time>2022-01-08T14:23:11Z</time>
      </trkpt>
      <trkpt lat="36.7421010" lon="-3.7862570">
        <ele>1.0</ele>
        <time>2022-01-08T14:23:12Z</time>
      </trkpt>
      <trkpt lat="36.7421010" lon="-3.7862570">
        <ele>1.0</ele>
        <time>2022-01-08T14:23:13Z</time>
      </trkpt>
      <trkpt lat="36.7421010" lon="-3.7862570">
        <ele>1.0</ele>
        <time>2022-01-08T14:23:14Z</time>
      </trkpt>
      <trkpt lat="36.7421010" lon="-3.7862570">
        <ele>1.0</ele>
        <time>2022-01-08T14:23:15Z</time>
      </trkpt>
      <trkpt lat="36.7421010" lon="-3.7862570">
        <ele>1.0</ele>
        <time>2022-01-08T14:23:16Z</time>
      </trkpt>
      <trkpt lat="36.7421010" lon="-3.7862570">
        <ele>1.0</ele>
        <time>2022-01-08T14:23:17Z</time>
      </trkpt>
      <trkpt lat="36.7421010" lon="-3.7862570">
        <ele>1.0</ele>
        <time>2022-01-08T14:23:18Z</time>
      </trkpt>
      <trkpt lat="36.7421010" lon="-3.7862570">
        <ele>1.0</ele>
        <time>2022-01-08T14:23:19Z</time>
      </trkpt>
      <trkpt lat="36.7421010" lon="-3.7862570">
        <ele>1.0</ele>
        <time>2022-01-08T14:23:20Z</time>
      </trkpt>
      <trkpt lat="36.7421010" lon="-3.7862570">
        <ele>1.0</ele>
        <time>2022-01-08T14:23:21Z</time>
      </trkpt>
      <trkpt lat="36.7421010" lon="-3.7862570">
        <ele>1.0</ele>
        <time>2022-01-08T14:23:22Z</time>
      </trkpt>
      <trkpt lat="36.7420970" lon="-3.7862970">
        <ele>1.0</ele>
        <time>2022-01-08T14:23:23Z</time>
      </trkpt>
      <trkpt lat="36.7420970" lon="-3.7862970">
        <ele>1.0</ele>
        <time>2022-01-08T14:23:24Z</time>
      </trkpt>
      <trkpt lat="36.7420860" lon="-3.7863310">
        <ele>1.0</ele>
        <time>2022-01-08T14:23:25Z</time>
      </trkpt>
      <trkpt lat="36.7420830" lon="-3.7863480">
        <ele>1.0</ele>
        <time>2022-01-08T14:23:26Z</time>
      </trkpt>
      <trkpt lat="36.7420860" lon="-3.7863660">
        <ele>1.0</ele>
        <time>2022-01-08T14:23:27Z</time>
      </trkpt>
      <trkpt lat="36.7420860" lon="-3.7863660">
        <ele>1.0</ele>
        <time>2022-01-08T14:23:28Z</time>
      </trkpt>
      <trkpt lat="36.7420800" lon="-3.7863940">
        <ele>1.0</ele>
        <time>2022-01-08T14:23:29Z</time>
      </trkpt>
      <trkpt lat="36.7420800" lon="-3.7863940">
        <ele>-1.0</ele>
        <time>2022-01-08T14:23:30Z</time>
      </trkpt>
      <trkpt lat="36.7420630" lon="-3.7864180">
        <ele>-2.0</ele>
        <time>2022-01-08T14:23:31Z</time>
      </trkpt>
      <trkpt lat="36.7420630" lon="-3.7864180">
        <ele>-2.0</ele>
        <time>2022-01-08T14:23:32Z</time>
      </trkpt>
      <trkpt lat="36.7420430" lon="-3.7864290">
        <ele>-2.0</ele>
        <time>2022-01-08T14:23:33Z</time>
      </trkpt>
      <trkpt lat="36.7420430" lon="-3.7864290">
        <ele>-1.0</ele>
        <time>2022-01-08T14:23:34Z</time>
      </trkpt>
      <trkpt lat="36.7420220" lon="-3.7864500">
        <ele>-1.0</ele>
        <time>2022-01-08T14:23:35Z</time>
      </trkpt>
      <trkpt lat="36.7420220" lon="-3.7864500">
        <ele>-1.0</ele>
        <time>2022-01-08T14:23:36Z</time>
      </trkpt>
      <trkpt lat="36.7420120" lon="-3.7864720">
        <ele>-1.0</ele>
        <time>2022-01-08T14:23:37Z</time>
      </trkpt>
      <trkpt lat="36.7420120" lon="-3.7864720">
        <ele>-1.0</ele>
        <time>2022-01-08T14:23:38Z</time>
      </trkpt>
      <trkpt lat="36.7419930" lon="-3.7864820">
        <ele>-1.0</ele>
        <time>2022-01-08T14:23:39Z</time>
      </trkpt>
      <trkpt lat="36.7419930" lon="-3.7864820">
        <ele>-1.0</ele>
        <time>2022-01-08T14:23:40Z</time>
      </trkpt>
      <trkpt lat="36.7419740" lon="-3.7865020">
        <ele>-1.0</ele>
        <time>2022-01-08T14:23:41Z</time>
      </trkpt>
      <trkpt lat="36.7419740" lon="-3.7865020">
        <ele>-1.0</ele>
        <time>2022-01-08T14:23:42Z</time>
      </trkpt>
      <trkpt lat="36.7419620" lon="-3.7865270">
        <ele>-1.0</ele>
        <time>2022-01-08T14:23:43Z</time>
      </trkpt>
      <trkpt lat="36.7419620" lon="-3.7865270">
        <ele>-1.0</ele>
        <time>2022-01-08T14:23:44Z</time>
      </trkpt>
      <trkpt lat="36.7419440" lon="-3.7865520">
        <ele>-2.0</ele>
        <time>2022-01-08T14:23:45Z</time>
      </trkpt>
      <trkpt lat="36.7419440" lon="-3.7865520">
        <ele>-2.0</ele>
        <time>2022-01-08T14:23:46Z</time>
      </trkpt>
      <trkpt lat="36.7419400" lon="-3.7865870">
        <ele>-3.0</ele>
        <time>2022-01-08T14:23:47Z</time>
      </trkpt>
      <trkpt lat="36.7419400" lon="-3.7865870">
        <ele>-3.0</ele>
        <time>2022-01-08T14:23:48Z</time>
      </trkpt>
      <trkpt lat="36.7419590" lon="-3.7866180">
        <ele>-3.0</ele>
        <time>2022-01-08T14:23:49Z</time>
      </trkpt>
      <trkpt lat="36.7419590" lon="-3.7866180">
        <ele>-3.0</ele>
        <time>2022-01-08T14:23:50Z</time>
      </trkpt>
      <trkpt lat="36.7419630" lon="-3.7866530">
        <ele>-3.0</ele>
        <time>2022-01-08T14:23:51Z</time>
      </trkpt>
      <trkpt lat="36.7419630" lon="-3.7866530">
        <ele>-2.0</ele>
        <time>2022-01-08T14:23:52Z</time>
      </trkpt>
      <trkpt lat="36.7419470" lon="-3.7866740">
        <ele>-2.0</ele>
        <time>2022-01-08T14:23:53Z</time>
      </trkpt>
      <trkpt lat="36.7419470" lon="-3.7866740">
        <ele>-2.0</ele>
        <time>2022-01-08T14:23:54Z</time>
      </trkpt>
      <trkpt lat="36.7419240" lon="-3.7866900">
        <ele>-2.0</ele>
        <time>2022-01-08T14:23:55Z</time>
      </trkpt>
      <trkpt lat="36.7419240" lon="-3.7866900">
        <ele>-2.0</ele>
        <time>2022-01-08T14:23:56Z</time>
      </trkpt>
      <trkpt lat="36.7418990" lon="-3.7866950">
        <ele>-2.0</ele>
        <time>2022-01-08T14:23:57Z</time>
      </trkpt>
      <trkpt lat="36.7418990" lon="-3.7866950">
        <ele>-2.0</ele>
        <time>2022-01-08T14:23:58Z</time>
      </trkpt>
      <trkpt lat="36.7418990" lon="-3.7866950">
        <ele>-2.0</ele>
        <time>2022-01-08T14:23:59Z</time>
      </trkpt>
      <trkpt lat="36.7418750" lon="-3.7866750">
        <ele>-3.0</ele>
        <time>2022-01-08T14:24:00Z</time>
      </trkpt>
      <trkpt lat="36.7418750" lon="-3.7866750">
        <ele>-3.0</ele>
        <time>2022-01-08T14:24:01Z</time>
      </trkpt>
      <trkpt lat="36.7418520" lon="-3.7866730">
        <ele>-3.0</ele>
        <time>2022-01-08T14:24:02Z</time>
      </trkpt>
      <trkpt lat="36.7418520" lon="-3.7866730">
        <ele>-4.0</ele>
        <time>2022-01-08T14:24:03Z</time>
      </trkpt>
      <trkpt lat="36.7418320" lon="-3.7866680">
        <ele>-4.0</ele>
        <time>2022-01-08T14:24:04Z</time>
      </trkpt>
      <trkpt lat="36.7418320" lon="-3.7866680">
        <ele>-4.0</ele>
        <time>2022-01-08T14:24:05Z</time>
      </trkpt>
      <trkpt lat="36.7418110" lon="-3.7866420">
        <ele>-4.0</ele>
        <time>2022-01-08T14:24:06Z</time>
      </trkpt>
      <trkpt lat="36.7417970" lon="-3.7866290">
        <ele>-4.0</ele>
        <time>2022-01-08T14:24:07Z</time>
      </trkpt>
      <trkpt lat="36.7417970" lon="-3.7866290">
        <ele>-4.0</ele>
        <time>2022-01-08T14:24:08Z</time>
      </trkpt>
      <trkpt lat="36.7417680" lon="-3.7866130">
        <ele>-5.0</ele>
        <time>2022-01-08T14:24:09Z</time>
      </trkpt>
      <trkpt lat="36.7417680" lon="-3.7866130">
        <ele>-5.0</ele>
        <time>2022-01-08T14:24:10Z</time>
      </trkpt>
      <trkpt lat="36.7417450" lon="-3.7866090">
        <ele>-6.0</ele>
        <time>2022-01-08T14:24:11Z</time>
      </trkpt>
      <trkpt lat="36.7417450" lon="-3.7866090">
        <ele>-6.0</ele>
        <time>2022-01-08T14:24:12Z</time>
      </trkpt>
      <trkpt lat="36.7417450" lon="-3.7866090">
        <ele>-7.0</ele>
        <time>2022-01-08T14:24:13Z</time>
      </trkpt>
      <trkpt lat="36.7417220" lon="-3.7866110">
        <ele>-7.0</ele>
        <time>2022-01-08T14:24:14Z</time>
      </trkpt>
      <trkpt lat="36.7417220" lon="-3.7866110">
        <ele>-7.0</ele>
        <time>2022-01-08T14:24:15Z</time>
      </trkpt>
      <trkpt lat="36.7417080" lon="-3.7866320">
        <ele>-7.0</ele>
        <time>2022-01-08T14:24:16Z</time>
      </trkpt>
      <trkpt lat="36.7417080" lon="-3.7866320">
        <ele>-7.0</ele>
        <time>2022-01-08T14:24:17Z</time>
      </trkpt>
      <trkpt lat="36.7416950" lon="-3.7866580">
        <ele>-7.0</ele>
        <time>2022-01-08T14:24:18Z</time>
      </trkpt>
      <trkpt lat="36.7416950" lon="-3.7866580">
        <ele>-7.0</ele>
        <time>2022-01-08T14:24:19Z</time>
      </trkpt>
      <trkpt lat="36.7416710" lon="-3.7866870">
        <ele>-8.0</ele>
        <time>2022-01-08T14:24:20Z</time>
      </trkpt>
      <trkpt lat="36.7416550" lon="-3.7866980">
        <ele>-8.0</ele>
        <time>2022-01-08T14:24:21Z</time>
      </trkpt>
      <trkpt lat="36.7416550" lon="-3.7866980">
        <ele>-9.0</ele>
        <time>2022-01-08T14:24:22Z</time>
      </trkpt>
      <trkpt lat="36.7416410" lon="-3.7867330">
        <ele>-10.0</ele>
        <time>2022-01-08T14:24:23Z</time>
      </trkpt>
      <trkpt lat="36.7416410" lon="-3.7867330">
        <ele>-9.0</ele>
        <time>2022-01-08T14:24:24Z</time>
      </trkpt>
      <trkpt lat="36.7416310" lon="-3.7867680">
        <ele>-9.0</ele>
        <time>2022-01-08T14:24:25Z</time>
      </trkpt>
      <trkpt lat="36.7416310" lon="-3.7867680">
        <ele>-9.0</ele>
        <time>2022-01-08T14:24:26Z</time>
      </trkpt>
      <trkpt lat="36.7416310" lon="-3.7867680">
        <ele>-9.0</ele>
        <time>2022-01-08T14:24:27Z</time>
      </trkpt>
      <trkpt lat="36.7416290" lon="-3.7867900">
        <ele>-9.0</ele>
        <time>2022-01-08T14:24:28Z</time>
      </trkpt>
      <trkpt lat="36.7416290" lon="-3.7867900">
        <ele>-9.0</ele>
        <time>2022-01-08T14:24:29Z</time>
      </trkpt>
      <trkpt lat="36.7416290" lon="-3.7867900">
        <ele>-8.0</ele>
        <time>2022-01-08T14:24:30Z</time>
      </trkpt>
      <trkpt lat="36.7416170" lon="-3.7868090">
        <ele>-8.0</ele>
        <time>2022-01-08T14:24:31Z</time>
      </trkpt>
      <trkpt lat="36.7416170" lon="-3.7868090">
        <ele>-8.0</ele>
        <time>2022-01-08T14:24:32Z</time>
      </trkpt>
      <trkpt lat="36.7416170" lon="-3.7868090">
        <ele>-8.0</ele>
        <time>2022-01-08T14:24:33Z</time>
      </trkpt>
      <trkpt lat="36.7416170" lon="-3.7868090">
        <ele>-8.0</ele>
        <time>2022-01-08T14:24:34Z</time>
      </trkpt>
      <trkpt lat="36.7416360" lon="-3.7868230">
        <ele>-7.0</ele>
        <time>2022-01-08T14:24:35Z</time>
      </trkpt>
      <trkpt lat="36.7416360" lon="-3.7868230">
        <ele>-7.0</ele>
        <time>2022-01-08T14:24:36Z</time>
      </trkpt>
      <trkpt lat="36.7416360" lon="-3.7868230">
        <ele>-7.0</ele>
        <time>2022-01-08T14:24:37Z</time>
      </trkpt>
      <trkpt lat="36.7416350" lon="-3.7868520">
        <ele>-7.0</ele>
        <time>2022-01-08T14:24:38Z</time>
      </trkpt>
      <trkpt lat="36.7416350" lon="-3.7868520">
        <ele>-7.0</ele>
        <time>2022-01-08T14:24:39Z</time>
      </trkpt>
      <trkpt lat="36.7416190" lon="-3.7868810">
        <ele>-7.0</ele>
        <time>2022-01-08T14:24:40Z</time>
      </trkpt>
      <trkpt lat="36.7416190" lon="-3.7868810">
        <ele>-6.0</ele>
        <time>2022-01-08T14:24:41Z</time>
      </trkpt>
      <trkpt lat="36.7416080" lon="-3.7869050">
        <ele>-6.0</ele>
        <time>2022-01-08T14:24:42Z</time>
      </trkpt>
      <trkpt lat="36.7416080" lon="-3.7869050">
        <ele>-6.0</ele>
        <time>2022-01-08T14:24:43Z</time>
      </trkpt>
      <trkpt lat="36.7416100" lon="-3.7869320">
        <ele>-6.0</ele>
        <time>2022-01-08T14:24:44Z</time>
      </trkpt>
      <trkpt lat="36.7416100" lon="-3.7869320">
        <ele>-6.0</ele>
        <time>2022-01-08T14:24:45Z</time>
      </trkpt>
      <trkpt lat="36.7416100" lon="-3.7869320">
        <ele>-6.0</ele>
        <time>2022-01-08T14:24:46Z</time>
      </trkpt>
      <trkpt lat="36.7416080" lon="-3.7869650">
        <ele>-5.0</ele>
        <time>2022-01-08T14:24:47Z</time>
      </trkpt>
      <trkpt lat="36.7416080" lon="-3.7869650">
        <ele>-5.0</ele>
        <time>2022-01-08T14:24:48Z</time>
      </trkpt>
      <trkpt lat="36.7416280" lon="-3.7869810">
        <ele>-5.0</ele>
        <time>2022-01-08T14:24:49Z</time>
      </trkpt>
      <trkpt lat="36.7416280" lon="-3.7869810">
        <ele>-5.0</ele>
        <time>2022-01-08T14:24:50Z</time>
      </trkpt>
      <trkpt lat="36.7416280" lon="-3.7869810">
        <ele>-5.0</ele>
        <time>2022-01-08T14:24:51Z</time>
      </trkpt>
      <trkpt lat="36.7416280" lon="-3.7869810">
        <ele>-5.0</ele>
        <time>2022-01-08T14:24:52Z</time>
      </trkpt>
      <trkpt lat="36.7416280" lon="-3.7869810">
        <ele>-5.0</ele>
        <time>2022-01-08T14:24:53Z</time>
      </trkpt>
      <trkpt lat="36.7416280" lon="-3.7869810">
        <ele>-4.0</ele>
        <time>2022-01-08T14:24:54Z</time>
      </trkpt>
      <trkpt lat="36.7416280" lon="-3.7869810">
        <ele>-4.0</ele>
        <time>2022-01-08T14:24:55Z</time>
      </trkpt>
      <trkpt lat="36.7416280" lon="-3.7869810">
        <ele>-4.0</ele>
        <time>2022-01-08T14:24:56Z</time>
      </trkpt>
      <trkpt lat="36.7416280" lon="-3.7869810">
        <ele>-4.0</ele>
        <time>2022-01-08T14:24:57Z</time>
      </trkpt>
      <trkpt lat="36.7416280" lon="-3.7869810">
        <ele>-4.0</ele>
        <time>2022-01-08T14:24:58Z</time>
      </trkpt>
      <trkpt lat="36.7416280" lon="-3.7869810">
        <ele>-3.0</ele>
        <time>2022-01-08T14:24:59Z</time>
      </trkpt>
      <trkpt lat="36.7416280" lon="-3.7869810">
        <ele>-3.0</ele>
        <time>2022-01-08T14:25:00Z</time>
      </trkpt>
      <trkpt lat="36.7416280" lon="-3.7869810">
        <ele>-3.0</ele>
        <time>2022-01-08T14:25:01Z</time>
      </trkpt>
      <trkpt lat="36.7416190" lon="-3.7869520">
        <ele>-4.0</ele>
        <time>2022-01-08T14:25:02Z</time>
      </trkpt>
      <trkpt lat="36.7416190" lon="-3.7869520">
        <ele>-4.0</ele>
        <time>2022-01-08T14:25:03Z</time>
      </trkpt>
      <trkpt lat="36.7416190" lon="-3.7869520">
        <ele>-4.0</ele>
        <time>2022-01-08T14:25:04Z</time>
      </trkpt>
      <trkpt lat="36.7416250" lon="-3.7869220">
        <ele>-4.0</ele>
        <time>2022-01-08T14:25:05Z</time>
      </trkpt>
      <trkpt lat="36.7416250" lon="-3.7869220">
        <ele>-4.0</ele>
        <time>2022-01-08T14:25:06Z</time>
      </trkpt>
      <trkpt lat="36.7416300" lon="-3.7868950">
        <ele>-4.0</ele>
        <time>2022-01-08T14:25:07Z</time>
      </trkpt>
      <trkpt lat="36.7416300" lon="-3.7868950">
        <ele>-4.0</ele>
        <time>2022-01-08T14:25:08Z</time>
      </trkpt>
      <trkpt lat="36.7416380" lon="-3.7868680">
        <ele>-4.0</ele>
        <time>2022-01-08T14:25:09Z</time>
      </trkpt>
      <trkpt lat="36.7416380" lon="-3.7868680">
        <ele>-5.0</ele>
        <time>2022-01-08T14:25:10Z</time>
      </trkpt>
      <trkpt lat="36.7416530" lon="-3.7868390">
        <ele>-6.0</ele>
        <time>2022-01-08T14:25:11Z</time>
      </trkpt>
      <trkpt lat="36.7416620" lon="-3.7868140">
        <ele>-6.0</ele>
        <time>2022-01-08T14:25:12Z</time>
      </trkpt>
      <trkpt lat="36.7416690" lon="-3.7867900">
        <ele>-6.0</ele>
        <time>2022-01-08T14:25:13Z</time>
      </trkpt>
      <trkpt lat="36.7416740" lon="-3.7867670">
        <ele>-5.0</ele>
        <time>2022-01-08T14:25:14Z</time>
      </trkpt>
      <trkpt lat="36.7416740" lon="-3.7867670">
        <ele>-5.0</ele>
        <time>2022-01-08T14:25:15Z</time>
      </trkpt>
      <trkpt lat="36.7416870" lon="-3.7867290">
        <ele>-5.0</ele>
        <time>2022-01-08T14:25:16Z</time>
      </trkpt>
      <trkpt lat="36.7416870" lon="-3.7867290">
        <ele>-5.0</ele>
        <time>2022-01-08T14:25:17Z</time>
      </trkpt>
      <trkpt lat="36.7416940" lon="-3.7867020">
        <ele>-5.0</ele>
        <time>2022-01-08T14:25:18Z</time>
      </trkpt>
      <trkpt lat="36.7416940" lon="-3.7867020">
        <ele>-6.0</ele>
        <time>2022-01-08T14:25:19Z</time>
      </trkpt>
      <trkpt lat="36.7417060" lon="-3.7866730">
        <ele>-6.0</ele>
        <time>2022-01-08T14:25:20Z</time>
      </trkpt>
      <trkpt lat="36.7417060" lon="-3.7866730">
        <ele>-6.0</ele>
        <time>2022-01-08T14:25:21Z</time>
      </trkpt>
      <trkpt lat="36.7417210" lon="-3.7866580">
        <ele>-6.0</ele>
        <time>2022-01-08T14:25:22Z</time>
      </trkpt>
      <trkpt lat="36.7417210" lon="-3.7866580">
        <ele>-6.0</ele>
        <time>2022-01-08T14:25:23Z</time>
      </trkpt>
      <trkpt lat="36.7417380" lon="-3.7866370">
        <ele>-6.0</ele>
        <time>2022-01-08T14:25:24Z</time>
      </trkpt>
      <trkpt lat="36.7417380" lon="-3.7866370">
        <ele>-5.0</ele>
        <time>2022-01-08T14:25:25Z</time>
      </trkpt>
      <trkpt lat="36.7417540" lon="-3.7866240">
        <ele>-5.0</ele>
        <time>2022-01-08T14:25:26Z</time>
      </trkpt>
      <trkpt lat="36.7417540" lon="-3.7866240">
        <ele>-5.0</ele>
        <time>2022-01-08T14:25:27Z</time>
      </trkpt>
      <trkpt lat="36.7417810" lon="-3.7866130">
        <ele>-4.0</ele>
        <time>2022-01-08T14:25:28Z</time>
      </trkpt>
      <trkpt lat="36.7417810" lon="-3.7866130">
        <ele>-4.0</ele>
        <time>2022-01-08T14:25:29Z</time>
      </trkpt>
      <trkpt lat="36.7418040" lon="-3.7866050">
        <ele>-4.0</ele>
        <time>2022-01-08T14:25:30Z</time>
      </trkpt>
      <trkpt lat="36.7418040" lon="-3.7866050">
        <ele>-4.0</ele>
        <time>2022-01-08T14:25:31Z</time>
      </trkpt>
      <trkpt lat="36.7418240" lon="-3.7866130">
        <ele>-4.0</ele>
        <time>2022-01-08T14:25:32Z</time>
      </trkpt>
      <trkpt lat="36.7418240" lon="-3.7866130">
        <ele>-4.0</ele>
        <time>2022-01-08T14:25:33Z</time>
      </trkpt>
      <trkpt lat="36.7418450" lon="-3.7866190">
        <ele>-4.0</ele>
        <time>2022-01-08T14:25:34Z</time>
      </trkpt>
      <trkpt lat="36.7418450" lon="-3.7866190">
        <ele>-3.0</ele>
        <time>2022-01-08T14:25:35Z</time>
      </trkpt>
      <trkpt lat="36.7418580" lon="-3.7865990">
        <ele>-2.0</ele>
        <time>2022-01-08T14:25:36Z</time>
      </trkpt>
      <trkpt lat="36.7418580" lon="-3.7865990">
        <ele>-2.0</ele>
        <time>2022-01-08T14:25:37Z</time>
      </trkpt>
      <trkpt lat="36.7418680" lon="-3.7865720">
        <ele>-2.0</ele>
        <time>2022-01-08T14:25:38Z</time>
      </trkpt>
      <trkpt lat="36.7418680" lon="-3.7865720">
        <ele>-2.0</ele>
        <time>2022-01-08T14:25:39Z</time>
      </trkpt>
      <trkpt lat="36.7418680" lon="-3.7865720">
        <ele>-1.0</ele>
        <time>2022-01-08T14:25:40Z</time>
      </trkpt>
      <trkpt lat="36.7418840" lon="-3.7865500">
        <ele>-1.0</ele>
        <time>2022-01-08T14:25:41Z</time>
      </trkpt>
      <trkpt lat="36.7419020" lon="-3.7865370">
        <ele>-1.0</ele>
        <time>2022-01-08T14:25:42Z</time>
      </trkpt>
      <trkpt lat="36.7419020" lon="-3.7865370">
        <ele>-1.0</ele>
        <time>2022-01-08T14:25:43Z</time>
      </trkpt>
      <trkpt lat="36.7419250" lon="-3.7865300">
        <ele>-1.0</ele>
        <time>2022-01-08T14:25:44Z</time>
      </trkpt>
      <trkpt lat="36.7419250" lon="-3.7865300">
        <ele>-1.0</ele>
        <time>2022-01-08T14:25:45Z</time>
      </trkpt>
      <trkpt lat="36.7419430" lon="-3.7865350">
        <ele>0.0</ele>
        <time>2022-01-08T14:25:46Z</time>
      </trkpt>
      <trkpt lat="36.7419430" lon="-3.7865350">
        <ele>0.0</ele>
        <time>2022-01-08T14:25:47Z</time>
      </trkpt>
      <trkpt lat="36.7419600" lon="-3.7865500">
        <ele>1.0</ele>
        <time>2022-01-08T14:25:48Z</time>
      </trkpt>
      <trkpt lat="36.7419600" lon="-3.7865500">
        <ele>1.0</ele>
        <time>2022-01-08T14:25:49Z</time>
      </trkpt>
      <trkpt lat="36.7419600" lon="-3.7865500">
        <ele>1.0</ele>
        <time>2022-01-08T14:25:50Z</time>
      </trkpt>
      <trkpt lat="36.7419860" lon="-3.7865460">
        <ele>1.0</ele>
        <time>2022-01-08T14:25:51Z</time>
      </trkpt>
      <trkpt lat="36.7419860" lon="-3.7865460">
        <ele>1.0</ele>
        <time>2022-01-08T14:25:52Z</time>
      </trkpt>
      <trkpt lat="36.7420020" lon="-3.7865290">
        <ele>1.0</ele>
        <time>2022-01-08T14:25:53Z</time>
      </trkpt>
      <trkpt lat="36.7420020" lon="-3.7865290">
        <ele>2.0</ele>
        <time>2022-01-08T14:25:54Z</time>
      </trkpt>
      <trkpt lat="36.7420140" lon="-3.7865080">
        <ele>2.0</ele>
        <time>2022-01-08T14:25:55Z</time>
      </trkpt>
      <trkpt lat="36.7420140" lon="-3.7865080">
        <ele>3.0</ele>
        <time>2022-01-08T14:25:56Z</time>
      </trkpt>
      <trkpt lat="36.7420360" lon="-3.7864910">
        <ele>3.0</ele>
        <time>2022-01-08T14:25:57Z</time>
      </trkpt>
      <trkpt lat="36.7420360" lon="-3.7864910">
        <ele>3.0</ele>
        <time>2022-01-08T14:25:58Z</time>
      </trkpt>
      <trkpt lat="36.7420360" lon="-3.7864910">
        <ele>3.0</ele>
        <time>2022-01-08T14:25:59Z</time>
      </trkpt>
      <trkpt lat="36.7420570" lon="-3.7864740">
        <ele>3.0</ele>
        <time>2022-01-08T14:26:00Z</time>
      </trkpt>
      <trkpt lat="36.7420710" lon="-3.7864570">
        <ele>3.0</ele>
        <time>2022-01-08T14:26:01Z</time>
      </trkpt>
      <trkpt lat="36.7420710" lon="-3.7864570">
        <ele>3.0</ele>
        <time>2022-01-08T14:26:02Z</time>
      </trkpt>
      <trkpt lat="36.7420890" lon="-3.7864390">
        <ele>3.0</ele>
        <time>2022-01-08T14:26:03Z</time>
      </trkpt>
      <trkpt lat="36.7420890" lon="-3.7864390">
        <ele>3.0</ele>
        <time>2022-01-08T14:26:04Z</time>
      </trkpt>
      <trkpt lat="36.7421050" lon="-3.7864130">
        <ele>3.0</ele>
        <time>2022-01-08T14:26:05Z</time>
      </trkpt>
      <trkpt lat="36.7421050" lon="-3.7864130">
        <ele>3.0</ele>
        <time>2022-01-08T14:26:06Z</time>
      </trkpt>
      <trkpt lat="36.7421130" lon="-3.7863900">
        <ele>3.0</ele>
        <time>2022-01-08T14:26:07Z</time>
      </trkpt>
      <trkpt lat="36.7421130" lon="-3.7863900">
        <ele>4.0</ele>
        <time>2022-01-08T14:26:08Z</time>
      </trkpt>
      <trkpt lat="36.7421130" lon="-3.7863640">
        <ele>4.0</ele>
        <time>2022-01-08T14:26:09Z</time>
      </trkpt>
      <trkpt lat="36.7421130" lon="-3.7863640">
        <ele>4.0</ele>
        <time>2022-01-08T14:26:10Z</time>
      </trkpt>
      <trkpt lat="36.7421250" lon="-3.7863390">
        <ele>5.0</ele>
        <time>2022-01-08T14:26:11Z</time>
      </trkpt>
      <trkpt lat="36.7421250" lon="-3.7863390">
        <ele>6.0</ele>
        <time>2022-01-08T14:26:12Z</time>
      </trkpt>
      <trkpt lat="36.7421250" lon="-3.7863390">
        <ele>6.0</ele>
        <time>2022-01-08T14:26:13Z</time>
      </trkpt>
      <trkpt lat="36.7421420" lon="-3.7863160">
        <ele>5.0</ele>
        <time>2022-01-08T14:26:14Z</time>
      </trkpt>
      <trkpt lat="36.7421420" lon="-3.7863160">
        <ele>5.0</ele>
        <time>2022-01-08T14:26:15Z</time>
      </trkpt>
      <trkpt lat="36.7421600" lon="-3.7862900">
        <ele>6.0</ele>
        <time>2022-01-08T14:26:16Z</time>
      </trkpt>
      <trkpt lat="36.7421600" lon="-3.7862900">
        <ele>7.0</ele>
        <time>2022-01-08T14:26:17Z</time>
      </trkpt>
      <trkpt lat="36.7421720" lon="-3.7862610">
        <ele>7.0</ele>
        <time>2022-01-08T14:26:18Z</time>
      </trkpt>
      <trkpt lat="36.7421720" lon="-3.7862610">
        <ele>8.0</ele>
        <time>2022-01-08T14:26:19Z</time>
      </trkpt>
      <trkpt lat="36.7421820" lon="-3.7862340">
        <ele>8.0</ele>
        <time>2022-01-08T14:26:20Z</time>
      </trkpt>
      <trkpt lat="36.7421820" lon="-3.7862340">
        <ele>8.0</ele>
        <time>2022-01-08T14:26:21Z</time>
      </trkpt>
      <trkpt lat="36.7421820" lon="-3.7862340">
        <ele>9.0</ele>
        <time>2022-01-08T14:26:22Z</time>
      </trkpt>
      <trkpt lat="36.7422040" lon="-3.7862140">
        <ele>9.0</ele>
        <time>2022-01-08T14:26:23Z</time>
      </trkpt>
      <trkpt lat="36.7422040" lon="-3.7862140">
        <ele>9.0</ele>
        <time>2022-01-08T14:26:24Z</time>
      </trkpt>
      <trkpt lat="36.7422080" lon="-3.7861850">
        <ele>10.0</ele>
        <time>2022-01-08T14:26:25Z</time>
      </trkpt>
      <trkpt lat="36.7422080" lon="-3.7861850">
        <ele>10.0</ele>
        <time>2022-01-08T14:26:26Z</time>
      </trkpt>
      <trkpt lat="36.7422140" lon="-3.7861490">
        <ele>10.0</ele>
        <time>2022-01-08T14:26:27Z</time>
      </trkpt>
      <trkpt lat="36.7422140" lon="-3.7861490">
        <ele>10.0</ele>
        <time>2022-01-08T14:26:28Z</time>
      </trkpt>
      <trkpt lat="36.7422250" lon="-3.7861170">
        <ele>10.0</ele>
        <time>2022-01-08T14:26:29Z</time>
      </trkpt>
      <trkpt lat="36.7422250" lon="-3.7861170">
        <ele>10.0</ele>
        <time>2022-01-08T14:26:30Z</time>
      </trkpt>
      <trkpt lat="36.7422330" lon="-3.7860940">
        <ele>11.0</ele>
        <time>2022-01-08T14:26:31Z</time>
      </trkpt>
      <trkpt lat="36.7422330" lon="-3.7860940">
        <ele>11.0</ele>
        <time>2022-01-08T14:26:32Z</time>
      </trkpt>
      <trkpt lat="36.7422330" lon="-3.7860940">
        <ele>11.0</ele>
        <time>2022-01-08T14:26:33Z</time>
      </trkpt>
      <trkpt lat="36.7422410" lon="-3.7860680">
        <ele>11.0</ele>
        <time>2022-01-08T14:26:34Z</time>
      </trkpt>
      <trkpt lat="36.7422410" lon="-3.7860680">
        <ele>11.0</ele>
        <time>2022-01-08T14:26:35Z</time>
      </trkpt>
      <trkpt lat="36.7422410" lon="-3.7860680">
        <ele>11.0</ele>
        <time>2022-01-08T14:26:36Z</time>
      </trkpt>
      <trkpt lat="36.7422410" lon="-3.7860680">
        <ele>11.0</ele>
        <time>2022-01-08T14:26:37Z</time>
      </trkpt>
      <trkpt lat="36.7422540" lon="-3.7860460">
        <ele>12.0</ele>
        <time>2022-01-08T14:26:38Z</time>
      </trkpt>
      <trkpt lat="36.7422630" lon="-3.7860230">
        <ele>12.0</ele>
        <time>2022-01-08T14:26:39Z</time>
      </trkpt>
      <trkpt lat="36.7422630" lon="-3.7860230">
        <ele>13.0</ele>
        <time>2022-01-08T14:26:40Z</time>
      </trkpt>
      <trkpt lat="36.7422800" lon="-3.7860120">
        <ele>13.0</ele>
        <time>2022-01-08T14:26:41Z</time>
      </trkpt>
      <trkpt lat="36.7422800" lon="-3.7860120">
        <ele>13.0</ele>
        <time>2022-01-08T14:26:42Z</time>
      </trkpt>
      <trkpt lat="36.7422800" lon="-3.7860120">
        <ele>13.0</ele>
        <time>2022-01-08T14:26:43Z</time>
      </trkpt>
      <trkpt lat="36.7422800" lon="-3.7860120">
        <ele>14.0</ele>
        <time>2022-01-08T14:26:44Z</time>
      </trkpt>
      <trkpt lat="36.7423010" lon="-3.7860220">
        <ele>14.0</ele>
        <time>2022-01-08T14:26:45Z</time>
      </trkpt>
      <trkpt lat="36.7423010" lon="-3.7860220">
        <ele>15.0</ele>
        <time>2022-01-08T14:26:46Z</time>
      </trkpt>
      <trkpt lat="36.7423010" lon="-3.7860220">
        <ele>15.0</ele>
        <time>2022-01-08T14:26:47Z</time>
      </trkpt>
      <trkpt lat="36.7423210" lon="-3.7860360">
        <ele>15.0</ele>
        <time>2022-01-08T14:26:48Z</time>
      </trkpt>
      <trkpt lat="36.7423210" lon="-3.7860360">
        <ele>16.0</ele>
        <time>2022-01-08T14:26:49Z</time>
      </trkpt>
      <trkpt lat="36.7423210" lon="-3.7860360">
        <ele>16.0</ele>
        <time>2022-01-08T14:26:50Z</time>
      </trkpt>
      <trkpt lat="36.7423210" lon="-3.7860360">
        <ele>16.0</ele>
        <time>2022-01-08T14:26:51Z</time>
      </trkpt>
      <trkpt lat="36.7423210" lon="-3.7860360">
        <ele>17.0</ele>
        <time>2022-01-08T14:26:52Z</time>
      </trkpt>
      <trkpt lat="36.7423340" lon="-3.7860510">
        <ele>17.0</ele>
        <time>2022-01-08T14:26:53Z</time>
      </trkpt>
      <trkpt lat="36.7423340" lon="-3.7860510">
        <ele>17.0</ele>
        <time>2022-01-08T14:26:54Z</time>
      </trkpt>
      <trkpt lat="36.7423450" lon="-3.7860690">
        <ele>17.0</ele>
        <time>2022-01-08T14:26:55Z</time>
      </trkpt>
      <trkpt lat="36.7423450" lon="-3.7860690">
        <ele>17.0</ele>
        <time>2022-01-08T14:26:56Z</time>
      </trkpt>
      <trkpt lat="36.7423580" lon="-3.7860860">
        <ele>17.0</ele>
        <time>2022-01-08T14:26:57Z</time>
      </trkpt>
      <trkpt lat="36.7423580" lon="-3.7860860">
        <ele>17.0</ele>
        <time>2022-01-08T14:26:58Z</time>
      </trkpt>
      <trkpt lat="36.7423760" lon="-3.7860940">
        <ele>17.0</ele>
        <time>2022-01-08T14:26:59Z</time>
      </trkpt>
      <trkpt lat="36.7423760" lon="-3.7860940">
        <ele>17.0</ele>
        <time>2022-01-08T14:27:00Z</time>
      </trkpt>
      <trkpt lat="36.7423760" lon="-3.7860940">
        <ele>18.0</ele>
        <time>2022-01-08T14:27:01Z</time>
      </trkpt>
      <trkpt lat="36.7423790" lon="-3.7860710">
        <ele>18.0</ele>
        <time>2022-01-08T14:27:02Z</time>
      </trkpt>
      <trkpt lat="36.7423790" lon="-3.7860710">
        <ele>18.0</ele>
        <time>2022-01-08T14:27:03Z</time>
      </trkpt>
      <trkpt lat="36.7423790" lon="-3.7860710">
        <ele>19.0</ele>
        <time>2022-01-08T14:27:04Z</time>
      </trkpt>
      <trkpt lat="36.7423830" lon="-3.7860380">
        <ele>19.0</ele>
        <time>2022-01-08T14:27:05Z</time>
      </trkpt>
      <trkpt lat="36.7423830" lon="-3.7860380">
        <ele>19.0</ele>
        <time>2022-01-08T14:27:06Z</time>
      </trkpt>
      <trkpt lat="36.7423790" lon="-3.7860140">
        <ele>20.0</ele>
        <time>2022-01-08T14:27:07Z</time>
      </trkpt>
      <trkpt lat="36.7423790" lon="-3.7860140">
        <ele>20.0</ele>
        <time>2022-01-08T14:27:08Z</time>
      </trkpt>
      <trkpt lat="36.7423830" lon="-3.7859900">
        <ele>20.0</ele>
        <time>2022-01-08T14:27:09Z</time>
      </trkpt>
      <trkpt lat="36.7423830" lon="-3.7859900">
        <ele>20.0</ele>
        <time>2022-01-08T14:27:10Z</time>
      </trkpt>
      <trkpt lat="36.7423830" lon="-3.7859900">
        <ele>20.0</ele>
        <time>2022-01-08T14:27:11Z</time>
      </trkpt>
      <trkpt lat="36.7423910" lon="-3.7859690">
        <ele>20.0</ele>
        <time>2022-01-08T14:27:12Z</time>
      </trkpt>
      <trkpt lat="36.7423910" lon="-3.7859690">
        <ele>20.0</ele>
        <time>2022-01-08T14:27:13Z</time>
      </trkpt>
      <trkpt lat="36.7423910" lon="-3.7859690">
        <ele>21.0</ele>
        <time>2022-01-08T14:27:14Z</time>
      </trkpt>
      <trkpt lat="36.7424010" lon="-3.7859430">
        <ele>21.0</ele>
        <time>2022-01-08T14:27:15Z</time>
      </trkpt>
      <trkpt lat="36.7424010" lon="-3.7859430">
        <ele>22.0</ele>
        <time>2022-01-08T14:27:16Z</time>
      </trkpt>
      <trkpt lat="36.7424010" lon="-3.7859430">
        <ele>22.0</ele>
        <time>2022-01-08T14:27:17Z</time>
      </trkpt>
      <trkpt lat="36.7424020" lon="-3.7859190">
        <ele>22.0</ele>
        <time>2022-01-08T14:27:18Z</time>
      </trkpt>
      <trkpt lat="36.7424020" lon="-3.7859190">
        <ele>22.0</ele>
        <time>2022-01-08T14:27:19Z</time>
      </trkpt>
      <trkpt lat="36.7424020" lon="-3.7859190">
        <ele>23.0</ele>
        <time>2022-01-08T14:27:20Z</time>
      </trkpt>
      <trkpt lat="36.7424050" lon="-3.7858890">
        <ele>23.0</ele>
        <time>2022-01-08T14:27:21Z</time>
      </trkpt>
      <trkpt lat="36.7424050" lon="-3.7858890">
        <ele>23.0</ele>
        <time>2022-01-08T14:27:22Z</time>
      </trkpt>
      <trkpt lat="36.7424050" lon="-3.7858890">
        <ele>23.0</ele>
        <time>2022-01-08T14:27:23Z</time>
      </trkpt>
      <trkpt lat="36.7424000" lon="-3.7858590">
        <ele>24.0</ele>
        <time>2022-01-08T14:27:24Z</time>
      </trkpt>
      <trkpt lat="36.7424000" lon="-3.7858590">
        <ele>24.0</ele>
        <time>2022-01-08T14:27:25Z</time>
      </trkpt>
      <trkpt lat="36.7424000" lon="-3.7858590">
        <ele>25.0</ele>
        <time>2022-01-08T14:27:26Z</time>
      </trkpt>
      <trkpt lat="36.7424010" lon="-3.7858320">
        <ele>25.0</ele>
        <time>2022-01-08T14:27:27Z</time>
      </trkpt>
      <trkpt lat="36.7424010" lon="-3.7858320">
        <ele>26.0</ele>
        <time>2022-01-08T14:27:28Z</time>
      </trkpt>
      <trkpt lat="36.7424010" lon="-3.7858320">
        <ele>26.0</ele>
        <time>2022-01-08T14:27:29Z</time>
      </trkpt>
      <trkpt lat="36.7424120" lon="-3.7858070">
        <ele>26.0</ele>
        <time>2022-01-08T14:27:30Z</time>
      </trkpt>
      <trkpt lat="36.7424120" lon="-3.7858070">
        <ele>26.0</ele>
        <time>2022-01-08T14:27:31Z</time>
      </trkpt>
      <trkpt lat="36.7424120" lon="-3.7858070">
        <ele>26.0</ele>
        <time>2022-01-08T14:27:32Z</time>
      </trkpt>
      <trkpt lat="36.7424120" lon="-3.7858070">
        <ele>27.0</ele>
        <time>2022-01-08T14:27:33Z</time>
      </trkpt>
      <trkpt lat="36.7424080" lon="-3.7857770">
        <ele>27.0</ele>
        <time>2022-01-08T14:27:34Z</time>
      </trkpt>
      <trkpt lat="36.7424080" lon="-3.7857770">
        <ele>27.0</ele>
        <time>2022-01-08T14:27:35Z</time>
      </trkpt>
      <trkpt lat="36.7424080" lon="-3.7857770">
        <ele>27.0</ele>
        <time>2022-01-08T14:27:36Z</time>
      </trkpt>
      <trkpt lat="36.7424040" lon="-3.7857470">
        <ele>28.0</ele>
        <time>2022-01-08T14:27:37Z</time>
      </trkpt>
      <trkpt lat="36.7424040" lon="-3.7857470">
        <ele>29.0</ele>
        <time>2022-01-08T14:27:38Z</time>
      </trkpt>
      <trkpt lat="36.7423920" lon="-3.7857160">
        <ele>29.0</ele>
        <time>2022-01-08T14:27:39Z</time>
      </trkpt>
      <trkpt lat="36.7423920" lon="-3.7857160">
        <ele>30.0</ele>
        <time>2022-01-08T14:27:40Z</time>
      </trkpt>
      <trkpt lat="36.7423820" lon="-3.7856830">
        <ele>30.0</ele>
        <time>2022-01-08T14:27:41Z</time>
      </trkpt>
      <trkpt lat="36.7423820" lon="-3.7856830">
        <ele>30.0</ele>
        <time>2022-01-08T14:27:42Z</time>
      </trkpt>
      <trkpt lat="36.7423590" lon="-3.7856500">
        <ele>30.0</ele>
        <time>2022-01-08T14:27:43Z</time>
      </trkpt>
      <trkpt lat="36.7423590" lon="-3.7856500">
        <ele>30.0</ele>
        <time>2022-01-08T14:27:44Z</time>
      </trkpt>
      <trkpt lat="36.7423340" lon="-3.7856210">
        <ele>30.0</ele>
        <time>2022-01-08T14:27:45Z</time>
      </trkpt>
      <trkpt lat="36.7423340" lon="-3.7856210">
        <ele>30.0</ele>
        <time>2022-01-08T14:27:46Z</time>
      </trkpt>
      <trkpt lat="36.7423150" lon="-3.7855870">
        <ele>29.0</ele>
        <time>2022-01-08T14:27:47Z</time>
      </trkpt>
      <trkpt lat="36.7423150" lon="-3.7855870">
        <ele>28.0</ele>
        <time>2022-01-08T14:27:48Z</time>
      </trkpt>
      <trkpt lat="36.7423150" lon="-3.7855600">
        <ele>28.0</ele>
        <time>2022-01-08T14:27:49Z</time>
      </trkpt>
      <trkpt lat="36.7423150" lon="-3.7855600">
        <ele>28.0</ele>
        <time>2022-01-08T14:27:50Z</time>
      </trkpt>
      <trkpt lat="36.7423170" lon="-3.7855360">
        <ele>28.0</ele>
        <time>2022-01-08T14:27:51Z</time>
      </trkpt>
      <trkpt lat="36.7423170" lon="-3.7855360">
        <ele>29.0</ele>
        <time>2022-01-08T14:27:52Z</time>
      </trkpt>
      <trkpt lat="36.7423170" lon="-3.7855360">
        <ele>29.0</ele>
        <time>2022-01-08T14:27:53Z</time>
      </trkpt>
      <trkpt lat="36.7423170" lon="-3.7855130">
        <ele>29.0</ele>
        <time>2022-01-08T14:27:54Z</time>
      </trkpt>
      <trkpt lat="36.7423230" lon="-3.7854840">
        <ele>29.0</ele>
        <time>2022-01-08T14:27:55Z</time>
      </trkpt>
      <trkpt lat="36.7423230" lon="-3.7854840">
        <ele>29.0</ele>
        <time>2022-01-08T14:27:56Z</time>
      </trkpt>
      <trkpt lat="36.7423200" lon="-3.7854530">
        <ele>30.0</ele>
        <time>2022-01-08T14:27:57Z</time>
      </trkpt>
      <trkpt lat="36.7423200" lon="-3.7854530">
        <ele>30.0</ele>
        <time>2022-01-08T14:27:58Z</time>
      </trkpt>
      <trkpt lat="36.7423060" lon="-3.7854140">
        <ele>30.0</ele>
        <time>2022-01-08T14:27:59Z</time>
      </trkpt>
      <trkpt lat="36.7422950" lon="-3.7853900">
        <ele>30.0</ele>
        <time>2022-01-08T14:28:00Z</time>
      </trkpt>
      <trkpt lat="36.7422840" lon="-3.7853650">
        <ele>30.0</ele>
        <time>2022-01-08T14:28:01Z</time>
      </trkpt>
      <trkpt lat="36.7422800" lon="-3.7853430">
        <ele>30.0</ele>
        <time>2022-01-08T14:28:02Z</time>
      </trkpt>
      <trkpt lat="36.7422800" lon="-3.7853430">
        <ele>30.0</ele>
        <time>2022-01-08T14:28:03Z</time>
      </trkpt>
      <trkpt lat="36.7422820" lon="-3.7853170">
        <ele>30.0</ele>
        <time>2022-01-08T14:28:04Z</time>
      </trkpt>
      <trkpt lat="36.7422820" lon="-3.7853170">
        <ele>30.0</ele>
        <time>2022-01-08T14:28:05Z</time>
      </trkpt>
      <trkpt lat="36.7422860" lon="-3.7852890">
        <ele>30.0</ele>
        <time>2022-01-08T14:28:06Z</time>
      </trkpt>
      <trkpt lat="36.7422860" lon="-3.7852890">
        <ele>30.0</ele>
        <time>2022-01-08T14:28:07Z</time>
      </trkpt>
      <trkpt lat="36.7422720" lon="-3.7852510">
        <ele>30.0</ele>
        <time>2022-01-08T14:28:08Z</time>
      </trkpt>
      <trkpt lat="36.7422630" lon="-3.7852250">
        <ele>30.0</ele>
        <time>2022-01-08T14:28:09Z</time>
      </trkpt>
      <trkpt lat="36.7422590" lon="-3.7851970">
        <ele>30.0</ele>
        <time>2022-01-08T14:28:10Z</time>
      </trkpt>
      <trkpt lat="36.7422590" lon="-3.7851970">
        <ele>31.0</ele>
        <time>2022-01-08T14:28:11Z</time>
      </trkpt>
      <trkpt lat="36.7422470" lon="-3.7851520">
        <ele>31.0</ele>
        <time>2022-01-08T14:28:12Z</time>
      </trkpt>
      <trkpt lat="36.7422470" lon="-3.7851520">
        <ele>31.0</ele>
        <time>2022-01-08T14:28:13Z</time>
      </trkpt>
      <trkpt lat="36.7422430" lon="-3.7851150">
        <ele>31.0</ele>
        <time>2022-01-08T14:28:14Z</time>
      </trkpt>
      <trkpt lat="36.7422430" lon="-3.7851150">
        <ele>31.0</ele>
        <time>2022-01-08T14:28:15Z</time>
      </trkpt>
      <trkpt lat="36.7422420" lon="-3.7850760">
        <ele>31.0</ele>
        <time>2022-01-08T14:28:16Z</time>
      </trkpt>
      <trkpt lat="36.7422420" lon="-3.7850760">
        <ele>30.0</ele>
        <time>2022-01-08T14:28:17Z</time>
      </trkpt>
      <trkpt lat="36.7422390" lon="-3.7850420">
        <ele>30.0</ele>
        <time>2022-01-08T14:28:18Z</time>
      </trkpt>
      <trkpt lat="36.7422390" lon="-3.7850420">
        <ele>31.0</ele>
        <time>2022-01-08T14:28:19Z</time>
      </trkpt>
      <trkpt lat="36.7422320" lon="-3.7850170">
        <ele>31.0</ele>
        <time>2022-01-08T14:28:20Z</time>
      </trkpt>
      <trkpt lat="36.7422320" lon="-3.7850170">
        <ele>31.0</ele>
        <time>2022-01-08T14:28:21Z</time>
      </trkpt>
      <trkpt lat="36.7422020" lon="-3.7849940">
        <ele>31.0</ele>
        <time>2022-01-08T14:28:22Z</time>
      </trkpt>
      <trkpt lat="36.7421850" lon="-3.7849840">
        <ele>30.0</ele>
        <time>2022-01-08T14:28:23Z</time>
      </trkpt>
      <trkpt lat="36.7421850" lon="-3.7849840">
        <ele>30.0</ele>
        <time>2022-01-08T14:28:24Z</time>
      </trkpt>
      <trkpt lat="36.7421610" lon="-3.7849660">
        <ele>29.0</ele>
        <time>2022-01-08T14:28:25Z</time>
      </trkpt>
      <trkpt lat="36.7421610" lon="-3.7849660">
        <ele>29.0</ele>
        <time>2022-01-08T14:28:26Z</time>
      </trkpt>
      <trkpt lat="36.7421610" lon="-3.7849660">
        <ele>29.0</ele>
        <time>2022-01-08T14:28:27Z</time>
      </trkpt>
      <trkpt lat="36.7421540" lon="-3.7849330">
        <ele>29.0</ele>
        <time>2022-01-08T14:28:28Z</time>
      </trkpt>
      <trkpt lat="36.7421540" lon="-3.7849330">
        <ele>29.0</ele>
        <time>2022-01-08T14:28:29Z</time>
      </trkpt>
      <trkpt lat="36.7421350" lon="-3.7849100">
        <ele>29.0</ele>
        <time>2022-01-08T14:28:30Z</time>
      </trkpt>
      <trkpt lat="36.7421350" lon="-3.7849100">
        <ele>29.0</ele>
        <time>2022-01-08T14:28:31Z</time>
      </trkpt>
      <trkpt lat="36.7421140" lon="-3.7848760">
        <ele>29.0</ele>
        <time>2022-01-08T14:28:32Z</time>
      </trkpt>
      <trkpt lat="36.7421140" lon="-3.7848760">
        <ele>29.0</ele>
        <time>2022-01-08T14:28:33Z</time>
      </trkpt>
      <trkpt lat="36.7420960" lon="-3.7848460">
        <ele>29.0</ele>
        <time>2022-01-08T14:28:34Z</time>
      </trkpt>
      <trkpt lat="36.7420960" lon="-3.7848460">
        <ele>29.0</ele>
        <time>2022-01-08T14:28:35Z</time>
      </trkpt>
      <trkpt lat="36.7420790" lon="-3.7848210">
        <ele>30.0</ele>
        <time>2022-01-08T14:28:36Z</time>
      </trkpt>
      <trkpt lat="36.7420790" lon="-3.7848210">
        <ele>30.0</ele>
        <time>2022-01-08T14:28:37Z</time>
      </trkpt>
      <trkpt lat="36.7420760" lon="-3.7847960">
        <ele>30.0</ele>
        <time>2022-01-08T14:28:38Z</time>
      </trkpt>
      <trkpt lat="36.7420760" lon="-3.7847960">
        <ele>31.0</ele>
        <time>2022-01-08T14:28:39Z</time>
      </trkpt>
      <trkpt lat="36.7420760" lon="-3.7847960">
        <ele>31.0</ele>
        <time>2022-01-08T14:28:40Z</time>
      </trkpt>
      <trkpt lat="36.7420910" lon="-3.7847800">
        <ele>31.0</ele>
        <time>2022-01-08T14:28:41Z</time>
      </trkpt>
      <trkpt lat="36.7420910" lon="-3.7847800">
        <ele>31.0</ele>
        <time>2022-01-08T14:28:42Z</time>
      </trkpt>
      <trkpt lat="36.7421050" lon="-3.7847620">
        <ele>31.0</ele>
        <time>2022-01-08T14:28:43Z</time>
      </trkpt>
      <trkpt lat="36.7421050" lon="-3.7847620">
        <ele>31.0</ele>
        <time>2022-01-08T14:28:44Z</time>
      </trkpt>
      <trkpt lat="36.7421170" lon="-3.7847440">
        <ele>32.0</ele>
        <time>2022-01-08T14:28:45Z</time>
      </trkpt>
      <trkpt lat="36.7421170" lon="-3.7847440">
        <ele>32.0</ele>
        <time>2022-01-08T14:28:46Z</time>
      </trkpt>
      <trkpt lat="36.7421310" lon="-3.7847230">
        <ele>32.0</ele>
        <time>2022-01-08T14:28:47Z</time>
      </trkpt>
      <trkpt lat="36.7421310" lon="-3.7847230">
        <ele>32.0</ele>
        <time>2022-01-08T14:28:48Z</time>
      </trkpt>
      <trkpt lat="36.7421470" lon="-3.7847060">
        <ele>33.0</ele>
        <time>2022-01-08T14:28:49Z</time>
      </trkpt>
      <trkpt lat="36.7421470" lon="-3.7847060">
        <ele>34.0</ele>
        <time>2022-01-08T14:28:50Z</time>
      </trkpt>
      <trkpt lat="36.7421630" lon="-3.7846860">
        <ele>34.0</ele>
        <time>2022-01-08T14:28:51Z</time>
      </trkpt>
      <trkpt lat="36.7421630" lon="-3.7846860">
        <ele>34.0</ele>
        <time>2022-01-08T14:28:52Z</time>
      </trkpt>
      <trkpt lat="36.7421790" lon="-3.7846640">
        <ele>35.0</ele>
        <time>2022-01-08T14:28:53Z</time>
      </trkpt>
      <trkpt lat="36.7421790" lon="-3.7846640">
        <ele>35.0</ele>
        <time>2022-01-08T14:28:54Z</time>
      </trkpt>
      <trkpt lat="36.7421970" lon="-3.7846420">
        <ele>35.0</ele>
        <time>2022-01-08T14:28:55Z</time>
      </trkpt>
      <trkpt lat="36.7421970" lon="-3.7846420">
        <ele>36.0</ele>
        <time>2022-01-08T14:28:56Z</time>
      </trkpt>
      <trkpt lat="36.7422130" lon="-3.7846290">
        <ele>36.0</ele>
        <time>2022-01-08T14:28:57Z</time>
      </trkpt>
      <trkpt lat="36.7422130" lon="-3.7846290">
        <ele>36.0</ele>
        <time>2022-01-08T14:28:58Z</time>
      </trkpt>
      <trkpt lat="36.7422130" lon="-3.7846290">
        <ele>36.0</ele>
        <time>2022-01-08T14:28:59Z</time>
      </trkpt>
      <trkpt lat="36.7422380" lon="-3.7846100">
        <ele>36.0</ele>
        <time>2022-01-08T14:29:00Z</time>
      </trkpt>
      <trkpt lat="36.7422380" lon="-3.7846100">
        <ele>36.0</ele>
        <time>2022-01-08T14:29:01Z</time>
      </trkpt>
      <trkpt lat="36.7422620" lon="-3.7845930">
        <ele>36.0</ele>
        <time>2022-01-08T14:29:02Z</time>
      </trkpt>
      <trkpt lat="36.7422620" lon="-3.7845930">
        <ele>36.0</ele>
        <time>2022-01-08T14:29:03Z</time>
      </trkpt>
      <trkpt lat="36.7422910" lon="-3.7845760">
        <ele>36.0</ele>
        <time>2022-01-08T14:29:04Z</time>
      </trkpt>
      <trkpt lat="36.7423070" lon="-3.7845620">
        <ele>36.0</ele>
        <time>2022-01-08T14:29:05Z</time>
      </trkpt>
      <trkpt lat="36.7423070" lon="-3.7845620">
        <ele>37.0</ele>
        <time>2022-01-08T14:29:06Z</time>
      </trkpt>
      <trkpt lat="36.7423300" lon="-3.7845390">
        <ele>37.0</ele>
        <time>2022-01-08T14:29:07Z</time>
      </trkpt>
      <trkpt lat="36.7423300" lon="-3.7845390">
        <ele>37.0</ele>
        <time>2022-01-08T14:29:08Z</time>
      </trkpt>
      <trkpt lat="36.7423300" lon="-3.7845390">
        <ele>37.0</ele>
        <time>2022-01-08T14:29:09Z</time>
      </trkpt>
      <trkpt lat="36.7423560" lon="-3.7845060">
        <ele>37.0</ele>
        <time>2022-01-08T14:29:10Z</time>
      </trkpt>
      <trkpt lat="36.7423570" lon="-3.7844700">
        <ele>37.0</ele>
        <time>2022-01-08T14:29:11Z</time>
      </trkpt>
      <trkpt lat="36.7423570" lon="-3.7844700">
        <ele>37.0</ele>
        <time>2022-01-08T14:29:12Z</time>
      </trkpt>
      <trkpt lat="36.7423440" lon="-3.7844470">
        <ele>37.0</ele>
        <time>2022-01-08T14:29:13Z</time>
      </trkpt>
      <trkpt lat="36.7423320" lon="-3.7844230">
        <ele>37.0</ele>
        <time>2022-01-08T14:29:14Z</time>
      </trkpt>
      <trkpt lat="36.7423190" lon="-3.7844000">
        <ele>37.0</ele>
        <time>2022-01-08T14:29:15Z</time>
      </trkpt>
      <trkpt lat="36.7423060" lon="-3.7843770">
        <ele>37.0</ele>
        <time>2022-01-08T14:29:16Z</time>
      </trkpt>
      <trkpt lat="36.7422880" lon="-3.7843750">
        <ele>37.0</ele>
        <time>2022-01-08T14:29:17Z</time>
      </trkpt>
      <trkpt lat="36.7422880" lon="-3.7843750">
        <ele>37.0</ele>
        <time>2022-01-08T14:29:18Z</time>
      </trkpt>
      <trkpt lat="36.7422310" lon="-3.7843710">
        <ele>37.0</ele>
        <time>2022-01-08T14:29:19Z</time>
      </trkpt>
      <trkpt lat="36.7422180" lon="-3.7843720">
        <ele>37.0</ele>
        <time>2022-01-08T14:29:20Z</time>
      </trkpt>
      <trkpt lat="36.7422000" lon="-3.7843700">
        <ele>37.0</ele>
        <time>2022-01-08T14:29:21Z</time>
      </trkpt>
      <trkpt lat="36.7421830" lon="-3.7843660">
        <ele>37.0</ele>
        <time>2022-01-08T14:29:22Z</time>
      </trkpt>
      <trkpt lat="36.7421610" lon="-3.7843640">
        <ele>37.0</ele>
        <time>2022-01-08T14:29:23Z</time>
      </trkpt>
      <trkpt lat="36.7421440" lon="-3.7843570">
        <ele>36.0</ele>
        <time>2022-01-08T14:29:24Z</time>
      </trkpt>
      <trkpt lat="36.7421440" lon="-3.7843570">
        <ele>36.0</ele>
        <time>2022-01-08T14:29:25Z</time>
      </trkpt>
      <trkpt lat="36.7421260" lon="-3.7843430">
        <ele>35.0</ele>
        <time>2022-01-08T14:29:26Z</time>
      </trkpt>
      <trkpt lat="36.7421260" lon="-3.7843430">
        <ele>35.0</ele>
        <time>2022-01-08T14:29:27Z</time>
      </trkpt>
      <trkpt lat="36.7421260" lon="-3.7843430">
        <ele>35.0</ele>
        <time>2022-01-08T14:29:28Z</time>
      </trkpt>
      <trkpt lat="36.7421260" lon="-3.7843430">
        <ele>35.0</ele>
        <time>2022-01-08T14:29:29Z</time>
      </trkpt>
      <trkpt lat="36.7421260" lon="-3.7843430">
        <ele>35.0</ele>
        <time>2022-01-08T14:29:30Z</time>
      </trkpt>
      <trkpt lat="36.7421260" lon="-3.7843430">
        <ele>35.0</ele>
        <time>2022-01-08T14:29:31Z</time>
      </trkpt>
      <trkpt lat="36.7421260" lon="-3.7843430">
        <ele>35.0</ele>
        <time>2022-01-08T14:29:32Z</time>
      </trkpt>
      <trkpt lat="36.7421260" lon="-3.7843430">
        <ele>35.0</ele>
        <time>2022-01-08T14:29:33Z</time>
      </trkpt>
      <trkpt lat="36.7421260" lon="-3.7843430">
        <ele>35.0</ele>
        <time>2022-01-08T14:29:34Z</time>
      </trkpt>
      <trkpt lat="36.7421260" lon="-3.7843430">
        <ele>35.0</ele>
        <time>2022-01-08T14:29:35Z</time>
      </trkpt>
      <trkpt lat="36.7421220" lon="-3.7843160">
        <ele>35.0</ele>
        <time>2022-01-08T14:29:36Z</time>
      </trkpt>
      <trkpt lat="36.7421220" lon="-3.7843160">
        <ele>35.0</ele>
        <time>2022-01-08T14:29:37Z</time>
      </trkpt>
      <trkpt lat="36.7421220" lon="-3.7843160">
        <ele>34.0</ele>
        <time>2022-01-08T14:29:38Z</time>
      </trkpt>
      <trkpt lat="36.7421060" lon="-3.7842850">
        <ele>34.0</ele>
        <time>2022-01-08T14:29:39Z</time>
      </trkpt>
      <trkpt lat="36.7421060" lon="-3.7842850">
        <ele>34.0</ele>
        <time>2022-01-08T14:29:40Z</time>
      </trkpt>
      <trkpt lat="36.7420840" lon="-3.7842640">
        <ele>34.0</ele>
        <time>2022-01-08T14:29:41Z</time>
      </trkpt>
      <trkpt lat="36.7420840" lon="-3.7842640">
        <ele>34.0</ele>
        <time>2022-01-08T14:29:42Z</time>
      </trkpt>
      <trkpt lat="36.7420840" lon="-3.7842640">
        <ele>34.0</ele>
        <time>2022-01-08T14:29:43Z</time>
      </trkpt>
      <trkpt lat="36.7420680" lon="-3.7842450">
        <ele>33.0</ele>
        <time>2022-01-08T14:29:44Z</time>
      </trkpt>
      <trkpt lat="36.7420680" lon="-3.7842450">
        <ele>33.0</ele>
        <time>2022-01-08T14:29:45Z</time>
      </trkpt>
      <trkpt lat="36.7420630" lon="-3.7842180">
        <ele>33.0</ele>
        <time>2022-01-08T14:29:46Z</time>
      </trkpt>
      <trkpt lat="36.7420630" lon="-3.7842180">
        <ele>33.0</ele>
        <time>2022-01-08T14:29:47Z</time>
      </trkpt>
      <trkpt lat="36.7420440" lon="-3.7841800">
        <ele>33.0</ele>
        <time>2022-01-08T14:29:48Z</time>
      </trkpt>
      <trkpt lat="36.7420440" lon="-3.7841800">
        <ele>33.0</ele>
        <time>2022-01-08T14:29:49Z</time>
      </trkpt>
      <trkpt lat="36.7420420" lon="-3.7841530">
        <ele>33.0</ele>
        <time>2022-01-08T14:29:50Z</time>
      </trkpt>
      <trkpt lat="36.7420420" lon="-3.7841530">
        <ele>33.0</ele>
        <time>2022-01-08T14:29:51Z</time>
      </trkpt>
      <trkpt lat="36.7420320" lon="-3.7841290">
        <ele>32.0</ele>
        <time>2022-01-08T14:29:52Z</time>
      </trkpt>
      <trkpt lat="36.7420320" lon="-3.7841290">
        <ele>33.0</ele>
        <time>2022-01-08T14:29:53Z</time>
      </trkpt>
      <trkpt lat="36.7420130" lon="-3.7841040">
        <ele>33.0</ele>
        <time>2022-01-08T14:29:54Z</time>
      </trkpt>
      <trkpt lat="36.7420130" lon="-3.7841040">
        <ele>33.0</ele>
        <time>2022-01-08T14:29:55Z</time>
      </trkpt>
      <trkpt lat="36.7419950" lon="-3.7840710">
        <ele>33.0</ele>
        <time>2022-01-08T14:29:56Z</time>
      </trkpt>
      <trkpt lat="36.7419870" lon="-3.7840480">
        <ele>33.0</ele>
        <time>2022-01-08T14:29:57Z</time>
      </trkpt>
      <trkpt lat="36.7419710" lon="-3.7840310">
        <ele>33.0</ele>
        <time>2022-01-08T14:29:58Z</time>
      </trkpt>
      <trkpt lat="36.7419520" lon="-3.7840170">
        <ele>32.0</ele>
        <time>2022-01-08T14:29:59Z</time>
      </trkpt>
      <trkpt lat="36.7419280" lon="-3.7840040">
        <ele>32.0</ele>
        <time>2022-01-08T14:30:00Z</time>
      </trkpt>
      <trkpt lat="36.7419050" lon="-3.7839970">
        <ele>31.0</ele>
        <time>2022-01-08T14:30:01Z</time>
      </trkpt>
      <trkpt lat="36.7419050" lon="-3.7839970">
        <ele>30.0</ele>
        <time>2022-01-08T14:30:02Z</time>
      </trkpt>
      <trkpt lat="36.7418830" lon="-3.7839670">
        <ele>30.0</ele>
        <time>2022-01-08T14:30:03Z</time>
      </trkpt>
      <trkpt lat="36.7418700" lon="-3.7839470">
        <ele>30.0</ele>
        <time>2022-01-08T14:30:04Z</time>
      </trkpt>
      <trkpt lat="36.7418490" lon="-3.7839300">
        <ele>30.0</ele>
        <time>2022-01-08T14:30:05Z</time>
      </trkpt>
      <trkpt lat="36.7418490" lon="-3.7839300">
        <ele>30.0</ele>
        <time>2022-01-08T14:30:06Z</time>
      </trkpt>
      <trkpt lat="36.7418090" lon="-3.7839030">
        <ele>30.0</ele>
        <time>2022-01-08T14:30:07Z</time>
      </trkpt>
      <trkpt lat="36.7418090" lon="-3.7839030">
        <ele>30.0</ele>
        <time>2022-01-08T14:30:08Z</time>
      </trkpt>
      <trkpt lat="36.7417960" lon="-3.7838740">
        <ele>30.0</ele>
        <time>2022-01-08T14:30:09Z</time>
      </trkpt>
      <trkpt lat="36.7417960" lon="-3.7838740">
        <ele>30.0</ele>
        <time>2022-01-08T14:30:10Z</time>
      </trkpt>
      <trkpt lat="36.7417930" lon="-3.7838400">
        <ele>30.0</ele>
        <time>2022-01-08T14:30:11Z</time>
      </trkpt>
      <trkpt lat="36.7417930" lon="-3.7838400">
        <ele>30.0</ele>
        <time>2022-01-08T14:30:12Z</time>
      </trkpt>
      <trkpt lat="36.7417810" lon="-3.7838030">
        <ele>30.0</ele>
        <time>2022-01-08T14:30:13Z</time>
      </trkpt>
      <trkpt lat="36.7417710" lon="-3.7837840">
        <ele>30.0</ele>
        <time>2022-01-08T14:30:14Z</time>
      </trkpt>
      <trkpt lat="36.7417550" lon="-3.7837660">
        <ele>31.0</ele>
        <time>2022-01-08T14:30:15Z</time>
      </trkpt>
      <trkpt lat="36.7417410" lon="-3.7837460">
        <ele>31.0</ele>
        <time>2022-01-08T14:30:16Z</time>
      </trkpt>
      <trkpt lat="36.7417290" lon="-3.7837280">
        <ele>31.0</ele>
        <time>2022-01-08T14:30:17Z</time>
      </trkpt>
      <trkpt lat="36.7417290" lon="-3.7837280">
        <ele>31.0</ele>
        <time>2022-01-08T14:30:18Z</time>
      </trkpt>
      <trkpt lat="36.7417060" lon="-3.7837030">
        <ele>31.0</ele>
        <time>2022-01-08T14:30:19Z</time>
      </trkpt>
      <trkpt lat="36.7416880" lon="-3.7836880">
        <ele>31.0</ele>
        <time>2022-01-08T14:30:20Z</time>
      </trkpt>
      <trkpt lat="36.7416710" lon="-3.7836790">
        <ele>31.0</ele>
        <time>2022-01-08T14:30:21Z</time>
      </trkpt>
      <trkpt lat="36.7416710" lon="-3.7836790">
        <ele>31.0</ele>
        <time>2022-01-08T14:30:22Z</time>
      </trkpt>
      <trkpt lat="36.7416400" lon="-3.7836690">
        <ele>31.0</ele>
        <time>2022-01-08T14:30:23Z</time>
      </trkpt>
      <trkpt lat="36.7416230" lon="-3.7836630">
        <ele>31.0</ele>
        <time>2022-01-08T14:30:24Z</time>
      </trkpt>
      <trkpt lat="36.7416050" lon="-3.7836540">
        <ele>31.0</ele>
        <time>2022-01-08T14:30:25Z</time>
      </trkpt>
      <trkpt lat="36.7415880" lon="-3.7836440">
        <ele>31.0</ele>
        <time>2022-01-08T14:30:26Z</time>
      </trkpt>
      <trkpt lat="36.7415880" lon="-3.7836440">
        <ele>31.0</ele>
        <time>2022-01-08T14:30:27Z</time>
      </trkpt>
      <trkpt lat="36.7415690" lon="-3.7836260">
        <ele>31.0</ele>
        <time>2022-01-08T14:30:28Z</time>
      </trkpt>
      <trkpt lat="36.7415690" lon="-3.7836260">
        <ele>31.0</ele>
        <time>2022-01-08T14:30:29Z</time>
      </trkpt>
      <trkpt lat="36.7415690" lon="-3.7836260">
        <ele>31.0</ele>
        <time>2022-01-08T14:30:30Z</time>
      </trkpt>
      <trkpt lat="36.7415550" lon="-3.7836030">
        <ele>31.0</ele>
        <time>2022-01-08T14:30:31Z</time>
      </trkpt>
      <trkpt lat="36.7415550" lon="-3.7836030">
        <ele>31.0</ele>
        <time>2022-01-08T14:30:32Z</time>
      </trkpt>
      <trkpt lat="36.7415270" lon="-3.7836000">
        <ele>31.0</ele>
        <time>2022-01-08T14:30:33Z</time>
      </trkpt>
      <trkpt lat="36.7415270" lon="-3.7836000">
        <ele>31.0</ele>
        <time>2022-01-08T14:30:34Z</time>
      </trkpt>
      <trkpt lat="36.7414970" lon="-3.7836060">
        <ele>31.0</ele>
        <time>2022-01-08T14:30:35Z</time>
      </trkpt>
      <trkpt lat="36.7414970" lon="-3.7836060">
        <ele>31.0</ele>
        <time>2022-01-08T14:30:36Z</time>
      </trkpt>
      <trkpt lat="36.7414780" lon="-3.7835960">
        <ele>31.0</ele>
        <time>2022-01-08T14:30:37Z</time>
      </trkpt>
      <trkpt lat="36.7414780" lon="-3.7835960">
        <ele>31.0</ele>
        <time>2022-01-08T14:30:38Z</time>
      </trkpt>
      <trkpt lat="36.7414500" lon="-3.7835960">
        <ele>32.0</ele>
        <time>2022-01-08T14:30:39Z</time>
      </trkpt>
      <trkpt lat="36.7414500" lon="-3.7835960">
        <ele>32.0</ele>
        <time>2022-01-08T14:30:40Z</time>
      </trkpt>
      <trkpt lat="36.7414220" lon="-3.7836010">
        <ele>32.0</ele>
        <time>2022-01-08T14:30:41Z</time>
      </trkpt>
      <trkpt lat="36.7414220" lon="-3.7836010">
        <ele>32.0</ele>
        <time>2022-01-08T14:30:42Z</time>
      </trkpt>
      <trkpt lat="36.7413890" lon="-3.7836030">
        <ele>32.0</ele>
        <time>2022-01-08T14:30:43Z</time>
      </trkpt>
      <trkpt lat="36.7413890" lon="-3.7836030">
        <ele>32.0</ele>
        <time>2022-01-08T14:30:44Z</time>
      </trkpt>
      <trkpt lat="36.7413440" lon="-3.7836060">
        <ele>32.0</ele>
        <time>2022-01-08T14:30:45Z</time>
      </trkpt>
      <trkpt lat="36.7413260" lon="-3.7836090">
        <ele>32.0</ele>
        <time>2022-01-08T14:30:46Z</time>
      </trkpt>
      <trkpt lat="36.7413260" lon="-3.7836090">
        <ele>32.0</ele>
        <time>2022-01-08T14:30:47Z</time>
      </trkpt>
      <trkpt lat="36.7413000" lon="-3.7836000">
        <ele>32.0</ele>
        <time>2022-01-08T14:30:48Z</time>
      </trkpt>
      <trkpt lat="36.7413000" lon="-3.7836000">
        <ele>32.0</ele>
        <time>2022-01-08T14:30:49Z</time>
      </trkpt>
      <trkpt lat="36.7412880" lon="-3.7835780">
        <ele>32.0</ele>
        <time>2022-01-08T14:30:50Z</time>
      </trkpt>
      <trkpt lat="36.7412880" lon="-3.7835780">
        <ele>32.0</ele>
        <time>2022-01-08T14:30:51Z</time>
      </trkpt>
      <trkpt lat="36.7412740" lon="-3.7835490">
        <ele>32.0</ele>
        <time>2022-01-08T14:30:52Z</time>
      </trkpt>
      <trkpt lat="36.7412590" lon="-3.7835340">
        <ele>33.0</ele>
        <time>2022-01-08T14:30:53Z</time>
      </trkpt>
      <trkpt lat="36.7412590" lon="-3.7835340">
        <ele>33.0</ele>
        <time>2022-01-08T14:30:54Z</time>
      </trkpt>
      <trkpt lat="36.7412410" lon="-3.7835060">
        <ele>33.0</ele>
        <time>2022-01-08T14:30:55Z</time>
      </trkpt>
      <trkpt lat="36.7412410" lon="-3.7835060">
        <ele>33.0</ele>
        <time>2022-01-08T14:30:56Z</time>
      </trkpt>
      <trkpt lat="36.7412140" lon="-3.7834810">
        <ele>33.0</ele>
        <time>2022-01-08T14:30:57Z</time>
      </trkpt>
      <trkpt lat="36.7411960" lon="-3.7834650">
        <ele>33.0</ele>
        <time>2022-01-08T14:30:58Z</time>
      </trkpt>
      <trkpt lat="36.7411800" lon="-3.7834510">
        <ele>33.0</ele>
        <time>2022-01-08T14:30:59Z</time>
      </trkpt>
      <trkpt lat="36.7411610" lon="-3.7834400">
        <ele>33.0</ele>
        <time>2022-01-08T14:31:00Z</time>
      </trkpt>
      <trkpt lat="36.7411610" lon="-3.7834400">
        <ele>33.0</ele>
        <time>2022-01-08T14:31:01Z</time>
      </trkpt>
      <trkpt lat="36.7411410" lon="-3.7834060">
        <ele>33.0</ele>
        <time>2022-01-08T14:31:02Z</time>
      </trkpt>
      <trkpt lat="36.7411410" lon="-3.7834060">
        <ele>34.0</ele>
        <time>2022-01-08T14:31:03Z</time>
      </trkpt>
      <trkpt lat="36.7411260" lon="-3.7833540">
        <ele>34.0</ele>
        <time>2022-01-08T14:31:04Z</time>
      </trkpt>
      <trkpt lat="36.7411260" lon="-3.7833300">
        <ele>34.0</ele>
        <time>2022-01-08T14:31:05Z</time>
      </trkpt>
      <trkpt lat="36.7411230" lon="-3.7833050">
        <ele>34.0</ele>
        <time>2022-01-08T14:31:06Z</time>
      </trkpt>
      <trkpt lat="36.7411220" lon="-3.7832810">
        <ele>33.0</ele>
        <time>2022-01-08T14:31:07Z</time>
      </trkpt>
      <trkpt lat="36.7411230" lon="-3.7832540">
        <ele>34.0</ele>
        <time>2022-01-08T14:31:08Z</time>
      </trkpt>
      <trkpt lat="36.7411240" lon="-3.7832270">
        <ele>34.0</ele>
        <time>2022-01-08T14:31:09Z</time>
      </trkpt>
      <trkpt lat="36.7411210" lon="-3.7832020">
        <ele>34.0</ele>
        <time>2022-01-08T14:31:10Z</time>
      </trkpt>
      <trkpt lat="36.7411210" lon="-3.7832020">
        <ele>33.0</ele>
        <time>2022-01-08T14:31:11Z</time>
      </trkpt>
      <trkpt lat="36.7411320" lon="-3.7831660">
        <ele>33.0</ele>
        <time>2022-01-08T14:31:12Z</time>
      </trkpt>
      <trkpt lat="36.7411460" lon="-3.7831480">
        <ele>33.0</ele>
        <time>2022-01-08T14:31:13Z</time>
      </trkpt>
      <trkpt lat="36.7411580" lon="-3.7831290">
        <ele>33.0</ele>
        <time>2022-01-08T14:31:14Z</time>
      </trkpt>
      <trkpt lat="36.7411620" lon="-3.7831060">
        <ele>33.0</ele>
        <time>2022-01-08T14:31:15Z</time>
      </trkpt>
      <trkpt lat="36.7411620" lon="-3.7830800">
        <ele>33.0</ele>
        <time>2022-01-08T14:31:16Z</time>
      </trkpt>
      <trkpt lat="36.7411580" lon="-3.7830550">
        <ele>33.0</ele>
        <time>2022-01-08T14:31:17Z</time>
      </trkpt>
      <trkpt lat="36.7411530" lon="-3.7830340">
        <ele>33.0</ele>
        <time>2022-01-08T14:31:18Z</time>
      </trkpt>
      <trkpt lat="36.7411460" lon="-3.7830070">
        <ele>33.0</ele>
        <time>2022-01-08T14:31:19Z</time>
      </trkpt>
      <trkpt lat="36.7411360" lon="-3.7829800">
        <ele>33.0</ele>
        <time>2022-01-08T14:31:20Z</time>
      </trkpt>
      <trkpt lat="36.7411270" lon="-3.7829600">
        <ele>33.0</ele>
        <time>2022-01-08T14:31:21Z</time>
      </trkpt>
      <trkpt lat="36.7411270" lon="-3.7829370">
        <ele>33.0</ele>
        <time>2022-01-08T14:31:22Z</time>
      </trkpt>
      <trkpt lat="36.7411240" lon="-3.7829110">
        <ele>33.0</ele>
        <time>2022-01-08T14:31:23Z</time>
      </trkpt>
      <trkpt lat="36.7411240" lon="-3.7829110">
        <ele>33.0</ele>
        <time>2022-01-08T14:31:24Z</time>
      </trkpt>
      <trkpt lat="36.7411080" lon="-3.7828720">
        <ele>33.0</ele>
        <time>2022-01-08T14:31:25Z</time>
      </trkpt>
      <trkpt lat="36.7410900" lon="-3.7828520">
        <ele>32.0</ele>
        <time>2022-01-08T14:31:26Z</time>
      </trkpt>
      <trkpt lat="36.7410810" lon="-3.7828290">
        <ele>33.0</ele>
        <time>2022-01-08T14:31:27Z</time>
      </trkpt>
      <trkpt lat="36.7410770" lon="-3.7828060">
        <ele>33.0</ele>
        <time>2022-01-08T14:31:28Z</time>
      </trkpt>
      <trkpt lat="36.7410770" lon="-3.7828060">
        <ele>33.0</ele>
        <time>2022-01-08T14:31:29Z</time>
      </trkpt>
      <trkpt lat="36.7410760" lon="-3.7827640">
        <ele>33.0</ele>
        <time>2022-01-08T14:31:30Z</time>
      </trkpt>
      <trkpt lat="36.7410670" lon="-3.7827420">
        <ele>33.0</ele>
        <time>2022-01-08T14:31:31Z</time>
      </trkpt>
      <trkpt lat="36.7410520" lon="-3.7827270">
        <ele>33.0</ele>
        <time>2022-01-08T14:31:32Z</time>
      </trkpt>
      <trkpt lat="36.7410520" lon="-3.7827270">
        <ele>33.0</ele>
        <time>2022-01-08T14:31:33Z</time>
      </trkpt>
      <trkpt lat="36.7410330" lon="-3.7827010">
        <ele>33.0</ele>
        <time>2022-01-08T14:31:34Z</time>
      </trkpt>
      <trkpt lat="36.7410330" lon="-3.7827010">
        <ele>32.0</ele>
        <time>2022-01-08T14:31:35Z</time>
      </trkpt>
      <trkpt lat="36.7410290" lon="-3.7826620">
        <ele>32.0</ele>
        <time>2022-01-08T14:31:36Z</time>
      </trkpt>
      <trkpt lat="36.7410290" lon="-3.7826390">
        <ele>32.0</ele>
        <time>2022-01-08T14:31:37Z</time>
      </trkpt>
      <trkpt lat="36.7410240" lon="-3.7826160">
        <ele>32.0</ele>
        <time>2022-01-08T14:31:38Z</time>
      </trkpt>
      <trkpt lat="36.7410240" lon="-3.7826160">
        <ele>32.0</ele>
        <time>2022-01-08T14:31:39Z</time>
      </trkpt>
      <trkpt lat="36.7410170" lon="-3.7825800">
        <ele>32.0</ele>
        <time>2022-01-08T14:31:40Z</time>
      </trkpt>
      <trkpt lat="36.7410230" lon="-3.7825540">
        <ele>32.0</ele>
        <time>2022-01-08T14:31:41Z</time>
      </trkpt>
      <trkpt lat="36.7410380" lon="-3.7825320">
        <ele>32.0</ele>
        <time>2022-01-08T14:31:42Z</time>
      </trkpt>
      <trkpt lat="36.7410380" lon="-3.7825320">
        <ele>32.0</ele>
        <time>2022-01-08T14:31:43Z</time>
      </trkpt>
      <trkpt lat="36.7410540" lon="-3.7825160">
        <ele>33.0</ele>
        <time>2022-01-08T14:31:44Z</time>
      </trkpt>
      <trkpt lat="36.7410660" lon="-3.7824920">
        <ele>33.0</ele>
        <time>2022-01-08T14:31:45Z</time>
      </trkpt>
      <trkpt lat="36.7410660" lon="-3.7824920">
        <ele>33.0</ele>
        <time>2022-01-08T14:31:46Z</time>
      </trkpt>
      <trkpt lat="36.7410780" lon="-3.7824700">
        <ele>33.0</ele>
        <time>2022-01-08T14:31:47Z</time>
      </trkpt>
      <trkpt lat="36.7410780" lon="-3.7824700">
        <ele>33.0</ele>
        <time>2022-01-08T14:31:48Z</time>
      </trkpt>
      <trkpt lat="36.7410850" lon="-3.7824360">
        <ele>33.0</ele>
        <time>2022-01-08T14:31:49Z</time>
      </trkpt>
      <trkpt lat="36.7410850" lon="-3.7824360">
        <ele>33.0</ele>
        <time>2022-01-08T14:31:50Z</time>
      </trkpt>
      <trkpt lat="36.7410820" lon="-3.7824020">
        <ele>33.0</ele>
        <time>2022-01-08T14:31:51Z</time>
      </trkpt>
      <trkpt lat="36.7410820" lon="-3.7824020">
        <ele>33.0</ele>
        <time>2022-01-08T14:31:52Z</time>
      </trkpt>
      <trkpt lat="36.7410710" lon="-3.7823690">
        <ele>33.0</ele>
        <time>2022-01-08T14:31:53Z</time>
      </trkpt>
      <trkpt lat="36.7410710" lon="-3.7823690">
        <ele>33.0</ele>
        <time>2022-01-08T14:31:54Z</time>
      </trkpt>
      <trkpt lat="36.7410570" lon="-3.7823270">
        <ele>33.0</ele>
        <time>2022-01-08T14:31:55Z</time>
      </trkpt>
      <trkpt lat="36.7410520" lon="-3.7823010">
        <ele>33.0</ele>
        <time>2022-01-08T14:31:56Z</time>
      </trkpt>
      <trkpt lat="36.7410460" lon="-3.7822740">
        <ele>33.0</ele>
        <time>2022-01-08T14:31:57Z</time>
      </trkpt>
      <trkpt lat="36.7410360" lon="-3.7822510">
        <ele>34.0</ele>
        <time>2022-01-08T14:31:58Z</time>
      </trkpt>
      <trkpt lat="36.7410250" lon="-3.7822310">
        <ele>34.0</ele>
        <time>2022-01-08T14:31:59Z</time>
      </trkpt>
      <trkpt lat="36.7410170" lon="-3.7822100">
        <ele>34.0</ele>
        <time>2022-01-08T14:32:00Z</time>
      </trkpt>
      <trkpt lat="36.7410070" lon="-3.7821890">
        <ele>34.0</ele>
        <time>2022-01-08T14:32:01Z</time>
      </trkpt>
      <trkpt lat="36.7409980" lon="-3.7821680">
        <ele>34.0</ele>
        <time>2022-01-08T14:32:02Z</time>
      </trkpt>
      <trkpt lat="36.7409980" lon="-3.7821680">
        <ele>34.0</ele>
        <time>2022-01-08T14:32:03Z</time>
      </trkpt>
      <trkpt lat="36.7409780" lon="-3.7821350">
        <ele>34.0</ele>
        <time>2022-01-08T14:32:04Z</time>
      </trkpt>
      <trkpt lat="36.7409640" lon="-3.7821160">
        <ele>35.0</ele>
        <time>2022-01-08T14:32:05Z</time>
      </trkpt>
      <trkpt lat="36.7409530" lon="-3.7820960">
        <ele>35.0</ele>
        <time>2022-01-08T14:32:06Z</time>
      </trkpt>
      <trkpt lat="36.7409500" lon="-3.7820730">
        <ele>34.0</ele>
        <time>2022-01-08T14:32:07Z</time>
      </trkpt>
      <trkpt lat="36.7409430" lon="-3.7820480">
        <ele>34.0</ele>
        <time>2022-01-08T14:32:08Z</time>
      </trkpt>
      <trkpt lat="36.7409350" lon="-3.7820220">
        <ele>34.0</ele>
        <time>2022-01-08T14:32:09Z</time>
      </trkpt>
      <trkpt lat="36.7409260" lon="-3.7819930">
        <ele>34.0</ele>
        <time>2022-01-08T14:32:10Z</time>
      </trkpt>
      <trkpt lat="36.7409210" lon="-3.7819670">
        <ele>34.0</ele>
        <time>2022-01-08T14:32:11Z</time>
      </trkpt>
      <trkpt lat="36.7409140" lon="-3.7819440">
        <ele>34.0</ele>
        <time>2022-01-08T14:32:12Z</time>
      </trkpt>
      <trkpt lat="36.7409140" lon="-3.7819440">
        <ele>34.0</ele>
        <time>2022-01-08T14:32:13Z</time>
      </trkpt>
      <trkpt lat="36.7409060" lon="-3.7819050">
        <ele>34.0</ele>
        <time>2022-01-08T14:32:14Z</time>
      </trkpt>
      <trkpt lat="36.7409030" lon="-3.7818780">
        <ele>34.0</ele>
        <time>2022-01-08T14:32:15Z</time>
      </trkpt>
      <trkpt lat="36.7408970" lon="-3.7818480">
        <ele>34.0</ele>
        <time>2022-01-08T14:32:16Z</time>
      </trkpt>
      <trkpt lat="36.7408940" lon="-3.7818220">
        <ele>34.0</ele>
        <time>2022-01-08T14:32:17Z</time>
      </trkpt>
      <trkpt lat="36.7408920" lon="-3.7817970">
        <ele>35.0</ele>
        <time>2022-01-08T14:32:18Z</time>
      </trkpt>
      <trkpt lat="36.7408920" lon="-3.7817970">
        <ele>35.0</ele>
        <time>2022-01-08T14:32:19Z</time>
      </trkpt>
      <trkpt lat="36.7408880" lon="-3.7817420">
        <ele>35.0</ele>
        <time>2022-01-08T14:32:20Z</time>
      </trkpt>
      <trkpt lat="36.7408870" lon="-3.7817140">
        <ele>35.0</ele>
        <time>2022-01-08T14:32:21Z</time>
      </trkpt>
      <trkpt lat="36.7408810" lon="-3.7816860">
        <ele>36.0</ele>
        <time>2022-01-08T14:32:22Z</time>
      </trkpt>
      <trkpt lat="36.7408730" lon="-3.7816610">
        <ele>36.0</ele>
        <time>2022-01-08T14:32:23Z</time>
      </trkpt>
      <trkpt lat="36.7408570" lon="-3.7816420">
        <ele>36.0</ele>
        <time>2022-01-08T14:32:24Z</time>
      </trkpt>
      <trkpt lat="36.7408570" lon="-3.7816420">
        <ele>36.0</ele>
        <time>2022-01-08T14:32:25Z</time>
      </trkpt>
      <trkpt lat="36.7408340" lon="-3.7816180">
        <ele>36.0</ele>
        <time>2022-01-08T14:32:26Z</time>
      </trkpt>
      <trkpt lat="36.7408340" lon="-3.7816180">
        <ele>36.0</ele>
        <time>2022-01-08T14:32:27Z</time>
      </trkpt>
      <trkpt lat="36.7408220" lon="-3.7815760">
        <ele>36.0</ele>
        <time>2022-01-08T14:32:28Z</time>
      </trkpt>
      <trkpt lat="36.7408080" lon="-3.7815570">
        <ele>35.0</ele>
        <time>2022-01-08T14:32:29Z</time>
      </trkpt>
      <trkpt lat="36.7407960" lon="-3.7815390">
        <ele>35.0</ele>
        <time>2022-01-08T14:32:30Z</time>
      </trkpt>
      <trkpt lat="36.7407850" lon="-3.7815180">
        <ele>36.0</ele>
        <time>2022-01-08T14:32:31Z</time>
      </trkpt>
      <trkpt lat="36.7407700" lon="-3.7814960">
        <ele>36.0</ele>
        <time>2022-01-08T14:32:32Z</time>
      </trkpt>
      <trkpt lat="36.7407510" lon="-3.7814760">
        <ele>36.0</ele>
        <time>2022-01-08T14:32:33Z</time>
      </trkpt>
      <trkpt lat="36.7407330" lon="-3.7814560">
        <ele>36.0</ele>
        <time>2022-01-08T14:32:34Z</time>
      </trkpt>
      <trkpt lat="36.7407190" lon="-3.7814340">
        <ele>36.0</ele>
        <time>2022-01-08T14:32:35Z</time>
      </trkpt>
      <trkpt lat="36.7407100" lon="-3.7814140">
        <ele>36.0</ele>
        <time>2022-01-08T14:32:36Z</time>
      </trkpt>
      <trkpt lat="36.7406990" lon="-3.7813950">
        <ele>36.0</ele>
        <time>2022-01-08T14:32:37Z</time>
      </trkpt>
      <trkpt lat="36.7406990" lon="-3.7813950">
        <ele>36.0</ele>
        <time>2022-01-08T14:32:38Z</time>
      </trkpt>
      <trkpt lat="36.7406850" lon="-3.7813770">
        <ele>36.0</ele>
        <time>2022-01-08T14:32:39Z</time>
      </trkpt>
      <trkpt lat="36.7406620" lon="-3.7813490">
        <ele>36.0</ele>
        <time>2022-01-08T14:32:40Z</time>
      </trkpt>
      <trkpt lat="36.7406620" lon="-3.7813490">
        <ele>37.0</ele>
        <time>2022-01-08T14:32:41Z</time>
      </trkpt>
      <trkpt lat="36.7406470" lon="-3.7813210">
        <ele>37.0</ele>
        <time>2022-01-08T14:32:42Z</time>
      </trkpt>
      <trkpt lat="36.7406470" lon="-3.7813210">
        <ele>37.0</ele>
        <time>2022-01-08T14:32:43Z</time>
      </trkpt>
      <trkpt lat="36.7406360" lon="-3.7812860">
        <ele>37.0</ele>
        <time>2022-01-08T14:32:44Z</time>
      </trkpt>
      <trkpt lat="36.7406360" lon="-3.7812860">
        <ele>37.0</ele>
        <time>2022-01-08T14:32:45Z</time>
      </trkpt>
      <trkpt lat="36.7406260" lon="-3.7812560">
        <ele>37.0</ele>
        <time>2022-01-08T14:32:46Z</time>
      </trkpt>
      <trkpt lat="36.7406260" lon="-3.7812560">
        <ele>37.0</ele>
        <time>2022-01-08T14:32:47Z</time>
      </trkpt>
      <trkpt lat="36.7406030" lon="-3.7812350">
        <ele>37.0</ele>
        <time>2022-01-08T14:32:48Z</time>
      </trkpt>
      <trkpt lat="36.7406030" lon="-3.7812350">
        <ele>37.0</ele>
        <time>2022-01-08T14:32:49Z</time>
      </trkpt>
      <trkpt lat="36.7405840" lon="-3.7812060">
        <ele>37.0</ele>
        <time>2022-01-08T14:32:50Z</time>
      </trkpt>
      <trkpt lat="36.7405840" lon="-3.7812060">
        <ele>37.0</ele>
        <time>2022-01-08T14:32:51Z</time>
      </trkpt>
      <trkpt lat="36.7405670" lon="-3.7811750">
        <ele>37.0</ele>
        <time>2022-01-08T14:32:52Z</time>
      </trkpt>
      <trkpt lat="36.7405670" lon="-3.7811750">
        <ele>37.0</ele>
        <time>2022-01-08T14:32:53Z</time>
      </trkpt>
      <trkpt lat="36.7405480" lon="-3.7811410">
        <ele>38.0</ele>
        <time>2022-01-08T14:32:54Z</time>
      </trkpt>
      <trkpt lat="36.7405480" lon="-3.7811410">
        <ele>38.0</ele>
        <time>2022-01-08T14:32:55Z</time>
      </trkpt>
      <trkpt lat="36.7405310" lon="-3.7811100">
        <ele>37.0</ele>
        <time>2022-01-08T14:32:56Z</time>
      </trkpt>
      <trkpt lat="36.7405310" lon="-3.7811100">
        <ele>37.0</ele>
        <time>2022-01-08T14:32:57Z</time>
      </trkpt>
      <trkpt lat="36.7405180" lon="-3.7810750">
        <ele>37.0</ele>
        <time>2022-01-08T14:32:58Z</time>
      </trkpt>
      <trkpt lat="36.7405180" lon="-3.7810750">
        <ele>37.0</ele>
        <time>2022-01-08T14:32:59Z</time>
      </trkpt>
      <trkpt lat="36.7404950" lon="-3.7810460">
        <ele>36.0</ele>
        <time>2022-01-08T14:33:00Z</time>
      </trkpt>
      <trkpt lat="36.7404950" lon="-3.7810460">
        <ele>36.0</ele>
        <time>2022-01-08T14:33:01Z</time>
      </trkpt>
      <trkpt lat="36.7404730" lon="-3.7810220">
        <ele>36.0</ele>
        <time>2022-01-08T14:33:02Z</time>
      </trkpt>
      <trkpt lat="36.7404730" lon="-3.7810220">
        <ele>36.0</ele>
        <time>2022-01-08T14:33:03Z</time>
      </trkpt>
      <trkpt lat="36.7404570" lon="-3.7809980">
        <ele>36.0</ele>
        <time>2022-01-08T14:33:04Z</time>
      </trkpt>
      <trkpt lat="36.7404570" lon="-3.7809980">
        <ele>36.0</ele>
        <time>2022-01-08T14:33:05Z</time>
      </trkpt>
      <trkpt lat="36.7404400" lon="-3.7809690">
        <ele>36.0</ele>
        <time>2022-01-08T14:33:06Z</time>
      </trkpt>
      <trkpt lat="36.7404400" lon="-3.7809690">
        <ele>37.0</ele>
        <time>2022-01-08T14:33:07Z</time>
      </trkpt>
      <trkpt lat="36.7404310" lon="-3.7809390">
        <ele>37.0</ele>
        <time>2022-01-08T14:33:08Z</time>
      </trkpt>
      <trkpt lat="36.7404310" lon="-3.7809390">
        <ele>37.0</ele>
        <time>2022-01-08T14:33:09Z</time>
      </trkpt>
      <trkpt lat="36.7404420" lon="-3.7809040">
        <ele>37.0</ele>
        <time>2022-01-08T14:33:10Z</time>
      </trkpt>
      <trkpt lat="36.7404420" lon="-3.7809040">
        <ele>37.0</ele>
        <time>2022-01-08T14:33:11Z</time>
      </trkpt>
      <trkpt lat="36.7404480" lon="-3.7808780">
        <ele>37.0</ele>
        <time>2022-01-08T14:33:12Z</time>
      </trkpt>
      <trkpt lat="36.7404480" lon="-3.7808780">
        <ele>37.0</ele>
        <time>2022-01-08T14:33:13Z</time>
      </trkpt>
      <trkpt lat="36.7404430" lon="-3.7808450">
        <ele>38.0</ele>
        <time>2022-01-08T14:33:14Z</time>
      </trkpt>
      <trkpt lat="36.7404430" lon="-3.7808450">
        <ele>38.0</ele>
        <time>2022-01-08T14:33:15Z</time>
      </trkpt>
      <trkpt lat="36.7404380" lon="-3.7808060">
        <ele>38.0</ele>
        <time>2022-01-08T14:33:16Z</time>
      </trkpt>
      <trkpt lat="36.7404380" lon="-3.7808060">
        <ele>38.0</ele>
        <time>2022-01-08T14:33:17Z</time>
      </trkpt>
      <trkpt lat="36.7404420" lon="-3.7807790">
        <ele>38.0</ele>
        <time>2022-01-08T14:33:18Z</time>
      </trkpt>
      <trkpt lat="36.7404420" lon="-3.7807790">
        <ele>39.0</ele>
        <time>2022-01-08T14:33:19Z</time>
      </trkpt>
      <trkpt lat="36.7404420" lon="-3.7807790">
        <ele>39.0</ele>
        <time>2022-01-08T14:33:20Z</time>
      </trkpt>
      <trkpt lat="36.7404410" lon="-3.7807520">
        <ele>39.0</ele>
        <time>2022-01-08T14:33:21Z</time>
      </trkpt>
      <trkpt lat="36.7404410" lon="-3.7807520">
        <ele>40.0</ele>
        <time>2022-01-08T14:33:22Z</time>
      </trkpt>
      <trkpt lat="36.7404410" lon="-3.7807520">
        <ele>40.0</ele>
        <time>2022-01-08T14:33:23Z</time>
      </trkpt>
      <trkpt lat="36.7404350" lon="-3.7807160">
        <ele>40.0</ele>
        <time>2022-01-08T14:33:24Z</time>
      </trkpt>
      <trkpt lat="36.7404350" lon="-3.7807160">
        <ele>41.0</ele>
        <time>2022-01-08T14:33:25Z</time>
      </trkpt>
      <trkpt lat="36.7404190" lon="-3.7806890">
        <ele>41.0</ele>
        <time>2022-01-08T14:33:26Z</time>
      </trkpt>
      <trkpt lat="36.7404190" lon="-3.7806890">
        <ele>41.0</ele>
        <time>2022-01-08T14:33:27Z</time>
      </trkpt>
      <trkpt lat="36.7404100" lon="-3.7806570">
        <ele>41.0</ele>
        <time>2022-01-08T14:33:28Z</time>
      </trkpt>
      <trkpt lat="36.7404100" lon="-3.7806570">
        <ele>41.0</ele>
        <time>2022-01-08T14:33:29Z</time>
      </trkpt>
      <trkpt lat="36.7403940" lon="-3.7806310">
        <ele>42.0</ele>
        <time>2022-01-08T14:33:30Z</time>
      </trkpt>
      <trkpt lat="36.7403940" lon="-3.7806310">
        <ele>42.0</ele>
        <time>2022-01-08T14:33:31Z</time>
      </trkpt>
      <trkpt lat="36.7403710" lon="-3.7806050">
        <ele>42.0</ele>
        <time>2022-01-08T14:33:32Z</time>
      </trkpt>
      <trkpt lat="36.7403710" lon="-3.7806050">
        <ele>42.0</ele>
        <time>2022-01-08T14:33:33Z</time>
      </trkpt>
      <trkpt lat="36.7403600" lon="-3.7805770">
        <ele>42.0</ele>
        <time>2022-01-08T14:33:34Z</time>
      </trkpt>
      <trkpt lat="36.7403600" lon="-3.7805770">
        <ele>42.0</ele>
        <time>2022-01-08T14:33:35Z</time>
      </trkpt>
      <trkpt lat="36.7403470" lon="-3.7805500">
        <ele>42.0</ele>
        <time>2022-01-08T14:33:36Z</time>
      </trkpt>
      <trkpt lat="36.7403470" lon="-3.7805500">
        <ele>42.0</ele>
        <time>2022-01-08T14:33:37Z</time>
      </trkpt>
      <trkpt lat="36.7403380" lon="-3.7805220">
        <ele>42.0</ele>
        <time>2022-01-08T14:33:38Z</time>
      </trkpt>
      <trkpt lat="36.7403280" lon="-3.7804960">
        <ele>42.0</ele>
        <time>2022-01-08T14:33:39Z</time>
      </trkpt>
      <trkpt lat="36.7403100" lon="-3.7804680">
        <ele>42.0</ele>
        <time>2022-01-08T14:33:40Z</time>
      </trkpt>
      <trkpt lat="36.7402930" lon="-3.7804480">
        <ele>43.0</ele>
        <time>2022-01-08T14:33:41Z</time>
      </trkpt>
      <trkpt lat="36.7402850" lon="-3.7804270">
        <ele>43.0</ele>
        <time>2022-01-08T14:33:42Z</time>
      </trkpt>
      <trkpt lat="36.7402850" lon="-3.7804270">
        <ele>43.0</ele>
        <time>2022-01-08T14:33:43Z</time>
      </trkpt>
      <trkpt lat="36.7402760" lon="-3.7804040">
        <ele>43.0</ele>
        <time>2022-01-08T14:33:44Z</time>
      </trkpt>
      <trkpt lat="36.7402760" lon="-3.7804040">
        <ele>43.0</ele>
        <time>2022-01-08T14:33:45Z</time>
      </trkpt>
      <trkpt lat="36.7402780" lon="-3.7803800">
        <ele>43.0</ele>
        <time>2022-01-08T14:33:46Z</time>
      </trkpt>
      <trkpt lat="36.7402780" lon="-3.7803800">
        <ele>43.0</ele>
        <time>2022-01-08T14:33:47Z</time>
      </trkpt>
      <trkpt lat="36.7402780" lon="-3.7803800">
        <ele>44.0</ele>
        <time>2022-01-08T14:33:48Z</time>
      </trkpt>
      <trkpt lat="36.7402820" lon="-3.7803540">
        <ele>44.0</ele>
        <time>2022-01-08T14:33:49Z</time>
      </trkpt>
      <trkpt lat="36.7402820" lon="-3.7803540">
        <ele>44.0</ele>
        <time>2022-01-08T14:33:50Z</time>
      </trkpt>
      <trkpt lat="36.7402820" lon="-3.7803540">
        <ele>45.0</ele>
        <time>2022-01-08T14:33:51Z</time>
      </trkpt>
      <trkpt lat="36.7402640" lon="-3.7803260">
        <ele>45.0</ele>
        <time>2022-01-08T14:33:52Z</time>
      </trkpt>
      <trkpt lat="36.7402640" lon="-3.7803260">
        <ele>45.0</ele>
        <time>2022-01-08T14:33:53Z</time>
      </trkpt>
      <trkpt lat="36.7402640" lon="-3.7803260">
        <ele>46.0</ele>
        <time>2022-01-08T14:33:54Z</time>
      </trkpt>
      <trkpt lat="36.7402510" lon="-3.7803020">
        <ele>47.0</ele>
        <time>2022-01-08T14:33:55Z</time>
      </trkpt>
      <trkpt lat="36.7402480" lon="-3.7802760">
        <ele>47.0</ele>
        <time>2022-01-08T14:33:56Z</time>
      </trkpt>
      <trkpt lat="36.7402480" lon="-3.7802760">
        <ele>47.0</ele>
        <time>2022-01-08T14:33:57Z</time>
      </trkpt>
      <trkpt lat="36.7402500" lon="-3.7802490">
        <ele>47.0</ele>
        <time>2022-01-08T14:33:58Z</time>
      </trkpt>
      <trkpt lat="36.7402500" lon="-3.7802490">
        <ele>48.0</ele>
        <time>2022-01-08T14:33:59Z</time>
      </trkpt>
      <trkpt lat="36.7402500" lon="-3.7802490">
        <ele>49.0</ele>
        <time>2022-01-08T14:34:00Z</time>
      </trkpt>
      <trkpt lat="36.7402500" lon="-3.7802490">
        <ele>49.0</ele>
        <time>2022-01-08T14:34:01Z</time>
      </trkpt>
      <trkpt lat="36.7402280" lon="-3.7802360">
        <ele>49.0</ele>
        <time>2022-01-08T14:34:02Z</time>
      </trkpt>
      <trkpt lat="36.7402280" lon="-3.7802360">
        <ele>49.0</ele>
        <time>2022-01-08T14:34:03Z</time>
      </trkpt>
      <trkpt lat="36.7402280" lon="-3.7802360">
        <ele>49.0</ele>
        <time>2022-01-08T14:34:04Z</time>
      </trkpt>
      <trkpt lat="36.7402280" lon="-3.7802360">
        <ele>50.0</ele>
        <time>2022-01-08T14:34:05Z</time>
      </trkpt>
      <trkpt lat="36.7402070" lon="-3.7802300">
        <ele>50.0</ele>
        <time>2022-01-08T14:34:06Z</time>
      </trkpt>
      <trkpt lat="36.7402070" lon="-3.7802300">
        <ele>50.0</ele>
        <time>2022-01-08T14:34:07Z</time>
      </trkpt>
      <trkpt lat="36.7401860" lon="-3.7802320">
        <ele>50.0</ele>
        <time>2022-01-08T14:34:08Z</time>
      </trkpt>
      <trkpt lat="36.7401860" lon="-3.7802320">
        <ele>51.0</ele>
        <time>2022-01-08T14:34:09Z</time>
      </trkpt>
      <trkpt lat="36.7401680" lon="-3.7802320">
        <ele>51.0</ele>
        <time>2022-01-08T14:34:10Z</time>
      </trkpt>
      <trkpt lat="36.7401680" lon="-3.7802320">
        <ele>51.0</ele>
        <time>2022-01-08T14:34:11Z</time>
      </trkpt>
      <trkpt lat="36.7401680" lon="-3.7802320">
        <ele>51.0</ele>
        <time>2022-01-08T14:34:12Z</time>
      </trkpt>
      <trkpt lat="36.7401410" lon="-3.7802140">
        <ele>51.0</ele>
        <time>2022-01-08T14:34:13Z</time>
      </trkpt>
      <trkpt lat="36.7401410" lon="-3.7802140">
        <ele>52.0</ele>
        <time>2022-01-08T14:34:14Z</time>
      </trkpt>
      <trkpt lat="36.7401410" lon="-3.7802140">
        <ele>52.0</ele>
        <time>2022-01-08T14:34:15Z</time>
      </trkpt>
      <trkpt lat="36.7401160" lon="-3.7802080">
        <ele>53.0</ele>
        <time>2022-01-08T14:34:16Z</time>
      </trkpt>
      <trkpt lat="36.7401160" lon="-3.7802080">
        <ele>53.0</ele>
        <time>2022-01-08T14:34:17Z</time>
      </trkpt>
      <trkpt lat="36.7401160" lon="-3.7802080">
        <ele>53.0</ele>
        <time>2022-01-08T14:34:18Z</time>
      </trkpt>
      <trkpt lat="36.7400890" lon="-3.7801980">
        <ele>53.0</ele>
        <time>2022-01-08T14:34:19Z</time>
      </trkpt>
      <trkpt lat="36.7400890" lon="-3.7801980">
        <ele>54.0</ele>
        <time>2022-01-08T14:34:20Z</time>
      </trkpt>
      <trkpt lat="36.7400890" lon="-3.7801980">
        <ele>54.0</ele>
        <time>2022-01-08T14:34:21Z</time>
      </trkpt>
      <trkpt lat="36.7400770" lon="-3.7801740">
        <ele>55.0</ele>
        <time>2022-01-08T14:34:22Z</time>
      </trkpt>
      <trkpt lat="36.7400770" lon="-3.7801740">
        <ele>55.0</ele>
        <time>2022-01-08T14:34:23Z</time>
      </trkpt>
      <trkpt lat="36.7400670" lon="-3.7801540">
        <ele>55.0</ele>
        <time>2022-01-08T14:34:24Z</time>
      </trkpt>
      <trkpt lat="36.7400670" lon="-3.7801540">
        <ele>55.0</ele>
        <time>2022-01-08T14:34:25Z</time>
      </trkpt>
      <trkpt lat="36.7400630" lon="-3.7801280">
        <ele>55.0</ele>
        <time>2022-01-08T14:34:26Z</time>
      </trkpt>
      <trkpt lat="36.7400630" lon="-3.7801280">
        <ele>55.0</ele>
        <time>2022-01-08T14:34:27Z</time>
      </trkpt>
      <trkpt lat="36.7400770" lon="-3.7801080">
        <ele>56.0</ele>
        <time>2022-01-08T14:34:28Z</time>
      </trkpt>
      <trkpt lat="36.7400770" lon="-3.7801080">
        <ele>56.0</ele>
        <time>2022-01-08T14:34:29Z</time>
      </trkpt>
      <trkpt lat="36.7400840" lon="-3.7800830">
        <ele>56.0</ele>
        <time>2022-01-08T14:34:30Z</time>
      </trkpt>
      <trkpt lat="36.7400840" lon="-3.7800830">
        <ele>56.0</ele>
        <time>2022-01-08T14:34:31Z</time>
      </trkpt>
      <trkpt lat="36.7400840" lon="-3.7800830">
        <ele>56.0</ele>
        <time>2022-01-08T14:34:32Z</time>
      </trkpt>
      <trkpt lat="36.7400890" lon="-3.7800580">
        <ele>57.0</ele>
        <time>2022-01-08T14:34:33Z</time>
      </trkpt>
      <trkpt lat="36.7400980" lon="-3.7800340">
        <ele>57.0</ele>
        <time>2022-01-08T14:34:34Z</time>
      </trkpt>
      <trkpt lat="36.7400980" lon="-3.7800340">
        <ele>57.0</ele>
        <time>2022-01-08T14:34:35Z</time>
      </trkpt>
      <trkpt lat="36.7401140" lon="-3.7800210">
        <ele>58.0</ele>
        <time>2022-01-08T14:34:36Z</time>
      </trkpt>
      <trkpt lat="36.7401140" lon="-3.7800210">
        <ele>58.0</ele>
        <time>2022-01-08T14:34:37Z</time>
      </trkpt>
      <trkpt lat="36.7401140" lon="-3.7800210">
        <ele>58.0</ele>
        <time>2022-01-08T14:34:38Z</time>
      </trkpt>
      <trkpt lat="36.7401190" lon="-3.7799970">
        <ele>58.0</ele>
        <time>2022-01-08T14:34:39Z</time>
      </trkpt>
      <trkpt lat="36.7401190" lon="-3.7799970">
        <ele>59.0</ele>
        <time>2022-01-08T14:34:40Z</time>
      </trkpt>
      <trkpt lat="36.7401190" lon="-3.7799970">
        <ele>59.0</ele>
        <time>2022-01-08T14:34:41Z</time>
      </trkpt>
      <trkpt lat="36.7401190" lon="-3.7799970">
        <ele>59.0</ele>
        <time>2022-01-08T14:34:42Z</time>
      </trkpt>
      <trkpt lat="36.7401200" lon="-3.7799730">
        <ele>60.0</ele>
        <time>2022-01-08T14:34:43Z</time>
      </trkpt>
      <trkpt lat="36.7401200" lon="-3.7799730">
        <ele>60.0</ele>
        <time>2022-01-08T14:34:44Z</time>
      </trkpt>
      <trkpt lat="36.7401200" lon="-3.7799730">
        <ele>60.0</ele>
        <time>2022-01-08T14:34:45Z</time>
      </trkpt>
      <trkpt lat="36.7401050" lon="-3.7799490">
        <ele>60.0</ele>
        <time>2022-01-08T14:34:46Z</time>
      </trkpt>
      <trkpt lat="36.7401050" lon="-3.7799490">
        <ele>60.0</ele>
        <time>2022-01-08T14:34:47Z</time>
      </trkpt>
      <trkpt lat="36.7400850" lon="-3.7799440">
        <ele>61.0</ele>
        <time>2022-01-08T14:34:48Z</time>
      </trkpt>
      <trkpt lat="36.7400850" lon="-3.7799440">
        <ele>61.0</ele>
        <time>2022-01-08T14:34:49Z</time>
      </trkpt>
      <trkpt lat="36.7400640" lon="-3.7799450">
        <ele>61.0</ele>
        <time>2022-01-08T14:34:50Z</time>
      </trkpt>
      <trkpt lat="36.7400640" lon="-3.7799450">
        <ele>61.0</ele>
        <time>2022-01-08T14:34:51Z</time>
      </trkpt>
      <trkpt lat="36.7400430" lon="-3.7799440">
        <ele>61.0</ele>
        <time>2022-01-08T14:34:52Z</time>
      </trkpt>
      <trkpt lat="36.7400430" lon="-3.7799440">
        <ele>61.0</ele>
        <time>2022-01-08T14:34:53Z</time>
      </trkpt>
      <trkpt lat="36.7400430" lon="-3.7799440">
        <ele>61.0</ele>
        <time>2022-01-08T14:34:54Z</time>
      </trkpt>
      <trkpt lat="36.7400260" lon="-3.7799200">
        <ele>61.0</ele>
        <time>2022-01-08T14:34:55Z</time>
      </trkpt>
      <trkpt lat="36.7400260" lon="-3.7799200">
        <ele>62.0</ele>
        <time>2022-01-08T14:34:56Z</time>
      </trkpt>
      <trkpt lat="36.7400070" lon="-3.7799050">
        <ele>62.0</ele>
        <time>2022-01-08T14:34:57Z</time>
      </trkpt>
      <trkpt lat="36.7400070" lon="-3.7799050">
        <ele>62.0</ele>
        <time>2022-01-08T14:34:58Z</time>
      </trkpt>
      <trkpt lat="36.7399870" lon="-3.7799010">
        <ele>63.0</ele>
        <time>2022-01-08T14:34:59Z</time>
      </trkpt>
      <trkpt lat="36.7399870" lon="-3.7799010">
        <ele>63.0</ele>
        <time>2022-01-08T14:35:00Z</time>
      </trkpt>
      <trkpt lat="36.7399870" lon="-3.7799010">
        <ele>63.0</ele>
        <time>2022-01-08T14:35:01Z</time>
      </trkpt>
      <trkpt lat="36.7399870" lon="-3.7799010">
        <ele>63.0</ele>
        <time>2022-01-08T14:35:02Z</time>
      </trkpt>
      <trkpt lat="36.7399620" lon="-3.7799050">
        <ele>65.0</ele>
        <time>2022-01-08T14:35:03Z</time>
      </trkpt>
      <trkpt lat="36.7399620" lon="-3.7799050">
        <ele>65.0</ele>
        <time>2022-01-08T14:35:04Z</time>
      </trkpt>
      <trkpt lat="36.7399620" lon="-3.7799050">
        <ele>65.0</ele>
        <time>2022-01-08T14:35:05Z</time>
      </trkpt>
      <trkpt lat="36.7399450" lon="-3.7798940">
        <ele>66.0</ele>
        <time>2022-01-08T14:35:06Z</time>
      </trkpt>
      <trkpt lat="36.7399450" lon="-3.7798940">
        <ele>66.0</ele>
        <time>2022-01-08T14:35:07Z</time>
      </trkpt>
      <trkpt lat="36.7399330" lon="-3.7798770">
        <ele>66.0</ele>
        <time>2022-01-08T14:35:08Z</time>
      </trkpt>
      <trkpt lat="36.7399330" lon="-3.7798770">
        <ele>66.0</ele>
        <time>2022-01-08T14:35:09Z</time>
      </trkpt>
      <trkpt lat="36.7399330" lon="-3.7798770">
        <ele>67.0</ele>
        <time>2022-01-08T14:35:10Z</time>
      </trkpt>
      <trkpt lat="36.7399270" lon="-3.7798500">
        <ele>67.0</ele>
        <time>2022-01-08T14:35:11Z</time>
      </trkpt>
      <trkpt lat="36.7399270" lon="-3.7798500">
        <ele>67.0</ele>
        <time>2022-01-08T14:35:12Z</time>
      </trkpt>
      <trkpt lat="36.7399270" lon="-3.7798500">
        <ele>67.0</ele>
        <time>2022-01-08T14:35:13Z</time>
      </trkpt>
      <trkpt lat="36.7399270" lon="-3.7798500">
        <ele>67.0</ele>
        <time>2022-01-08T14:35:14Z</time>
      </trkpt>
      <trkpt lat="36.7399210" lon="-3.7798280">
        <ele>67.0</ele>
        <time>2022-01-08T14:35:15Z</time>
      </trkpt>
      <trkpt lat="36.7399210" lon="-3.7798280">
        <ele>67.0</ele>
        <time>2022-01-08T14:35:16Z</time>
      </trkpt>
      <trkpt lat="36.7399210" lon="-3.7798280">
        <ele>67.0</ele>
        <time>2022-01-08T14:35:17Z</time>
      </trkpt>
      <trkpt lat="36.7399210" lon="-3.7798280">
        <ele>67.0</ele>
        <time>2022-01-08T14:35:18Z</time>
      </trkpt>
      <trkpt lat="36.7399310" lon="-3.7798030">
        <ele>67.0</ele>
        <time>2022-01-08T14:35:19Z</time>
      </trkpt>
      <trkpt lat="36.7399310" lon="-3.7798030">
        <ele>68.0</ele>
        <time>2022-01-08T14:35:20Z</time>
      </trkpt>
      <trkpt lat="36.7399310" lon="-3.7798030">
        <ele>68.0</ele>
        <time>2022-01-08T14:35:21Z</time>
      </trkpt>
      <trkpt lat="36.7399420" lon="-3.7797850">
        <ele>68.0</ele>
        <time>2022-01-08T14:35:22Z</time>
      </trkpt>
      <trkpt lat="36.7399420" lon="-3.7797850">
        <ele>68.0</ele>
        <time>2022-01-08T14:35:23Z</time>
      </trkpt>
      <trkpt lat="36.7399420" lon="-3.7797850">
        <ele>69.0</ele>
        <time>2022-01-08T14:35:24Z</time>
      </trkpt>
      <trkpt lat="36.7399550" lon="-3.7797670">
        <ele>69.0</ele>
        <time>2022-01-08T14:35:25Z</time>
      </trkpt>
      <trkpt lat="36.7399550" lon="-3.7797670">
        <ele>70.0</ele>
        <time>2022-01-08T14:35:26Z</time>
      </trkpt>
      <trkpt lat="36.7399550" lon="-3.7797670">
        <ele>70.0</ele>
        <time>2022-01-08T14:35:27Z</time>
      </trkpt>
      <trkpt lat="36.7399610" lon="-3.7797390">
        <ele>70.0</ele>
        <time>2022-01-08T14:35:28Z</time>
      </trkpt>
      <trkpt lat="36.7399610" lon="-3.7797390">
        <ele>71.0</ele>
        <time>2022-01-08T14:35:29Z</time>
      </trkpt>
      <trkpt lat="36.7399610" lon="-3.7797390">
        <ele>71.0</ele>
        <time>2022-01-08T14:35:30Z</time>
      </trkpt>
      <trkpt lat="36.7399640" lon="-3.7797110">
        <ele>71.0</ele>
        <time>2022-01-08T14:35:31Z</time>
      </trkpt>
      <trkpt lat="36.7399640" lon="-3.7797110">
        <ele>71.0</ele>
        <time>2022-01-08T14:35:32Z</time>
      </trkpt>
      <trkpt lat="36.7399640" lon="-3.7797110">
        <ele>71.0</ele>
        <time>2022-01-08T14:35:33Z</time>
      </trkpt>
      <trkpt lat="36.7399640" lon="-3.7797110">
        <ele>71.0</ele>
        <time>2022-01-08T14:35:34Z</time>
      </trkpt>
      <trkpt lat="36.7399560" lon="-3.7796870">
        <ele>71.0</ele>
        <time>2022-01-08T14:35:35Z</time>
      </trkpt>
      <trkpt lat="36.7399560" lon="-3.7796870">
        <ele>71.0</ele>
        <time>2022-01-08T14:35:36Z</time>
      </trkpt>
      <trkpt lat="36.7399560" lon="-3.7796870">
        <ele>71.0</ele>
        <time>2022-01-08T14:35:37Z</time>
      </trkpt>
      <trkpt lat="36.7399620" lon="-3.7796590">
        <ele>72.0</ele>
        <time>2022-01-08T14:35:38Z</time>
      </trkpt>
      <trkpt lat="36.7399620" lon="-3.7796590">
        <ele>72.0</ele>
        <time>2022-01-08T14:35:39Z</time>
      </trkpt>
      <trkpt lat="36.7399720" lon="-3.7796380">
        <ele>72.0</ele>
        <time>2022-01-08T14:35:40Z</time>
      </trkpt>
      <trkpt lat="36.7399720" lon="-3.7796380">
        <ele>72.0</ele>
        <time>2022-01-08T14:35:41Z</time>
      </trkpt>
      <trkpt lat="36.7399880" lon="-3.7796170">
        <ele>73.0</ele>
        <time>2022-01-08T14:35:42Z</time>
      </trkpt>
      <trkpt lat="36.7399880" lon="-3.7796170">
        <ele>73.0</ele>
        <time>2022-01-08T14:35:43Z</time>
      </trkpt>
      <trkpt lat="36.7399880" lon="-3.7796170">
        <ele>73.0</ele>
        <time>2022-01-08T14:35:44Z</time>
      </trkpt>
      <trkpt lat="36.7399930" lon="-3.7795870">
        <ele>73.0</ele>
        <time>2022-01-08T14:35:45Z</time>
      </trkpt>
      <trkpt lat="36.7399930" lon="-3.7795870">
        <ele>73.0</ele>
        <time>2022-01-08T14:35:46Z</time>
      </trkpt>
      <trkpt lat="36.7399930" lon="-3.7795870">
        <ele>73.0</ele>
        <time>2022-01-08T14:35:47Z</time>
      </trkpt>
      <trkpt lat="36.7399930" lon="-3.7795870">
        <ele>73.0</ele>
        <time>2022-01-08T14:35:48Z</time>
      </trkpt>
      <trkpt lat="36.7400080" lon="-3.7795620">
        <ele>73.0</ele>
        <time>2022-01-08T14:35:49Z</time>
      </trkpt>
      <trkpt lat="36.7400080" lon="-3.7795620">
        <ele>73.0</ele>
        <time>2022-01-08T14:35:50Z</time>
      </trkpt>
      <trkpt lat="36.7400030" lon="-3.7795320">
        <ele>75.0</ele>
        <time>2022-01-08T14:35:51Z</time>
      </trkpt>
      <trkpt lat="36.7400030" lon="-3.7795320">
        <ele>75.0</ele>
        <time>2022-01-08T14:35:52Z</time>
      </trkpt>
      <trkpt lat="36.7400030" lon="-3.7795320">
        <ele>75.0</ele>
        <time>2022-01-08T14:35:53Z</time>
      </trkpt>
      <trkpt lat="36.7399930" lon="-3.7795010">
        <ele>75.0</ele>
        <time>2022-01-08T14:35:54Z</time>
      </trkpt>
      <trkpt lat="36.7399930" lon="-3.7795010">
        <ele>75.0</ele>
        <time>2022-01-08T14:35:55Z</time>
      </trkpt>
      <trkpt lat="36.7399930" lon="-3.7795010">
        <ele>75.0</ele>
        <time>2022-01-08T14:35:56Z</time>
      </trkpt>
      <trkpt lat="36.7399800" lon="-3.7794770">
        <ele>75.0</ele>
        <time>2022-01-08T14:35:57Z</time>
      </trkpt>
      <trkpt lat="36.7399800" lon="-3.7794770">
        <ele>76.0</ele>
        <time>2022-01-08T14:35:58Z</time>
      </trkpt>
      <trkpt lat="36.7399720" lon="-3.7794570">
        <ele>76.0</ele>
        <time>2022-01-08T14:35:59Z</time>
      </trkpt>
      <trkpt lat="36.7399720" lon="-3.7794570">
        <ele>76.0</ele>
        <time>2022-01-08T14:36:00Z</time>
      </trkpt>
      <trkpt lat="36.7399670" lon="-3.7794320">
        <ele>76.0</ele>
        <time>2022-01-08T14:36:01Z</time>
      </trkpt>
      <trkpt lat="36.7399670" lon="-3.7794320">
        <ele>76.0</ele>
        <time>2022-01-08T14:36:02Z</time>
      </trkpt>
      <trkpt lat="36.7399550" lon="-3.7794040">
        <ele>76.0</ele>
        <time>2022-01-08T14:36:03Z</time>
      </trkpt>
      <trkpt lat="36.7399550" lon="-3.7794040">
        <ele>76.0</ele>
        <time>2022-01-08T14:36:04Z</time>
      </trkpt>
      <trkpt lat="36.7399400" lon="-3.7793880">
        <ele>76.0</ele>
        <time>2022-01-08T14:36:05Z</time>
      </trkpt>
      <trkpt lat="36.7399400" lon="-3.7793880">
        <ele>76.0</ele>
        <time>2022-01-08T14:36:06Z</time>
      </trkpt>
      <trkpt lat="36.7399280" lon="-3.7793690">
        <ele>76.0</ele>
        <time>2022-01-08T14:36:07Z</time>
      </trkpt>
      <trkpt lat="36.7399280" lon="-3.7793690">
        <ele>76.0</ele>
        <time>2022-01-08T14:36:08Z</time>
      </trkpt>
      <trkpt lat="36.7399120" lon="-3.7793460">
        <ele>76.0</ele>
        <time>2022-01-08T14:36:09Z</time>
      </trkpt>
      <trkpt lat="36.7399120" lon="-3.7793460">
        <ele>76.0</ele>
        <time>2022-01-08T14:36:10Z</time>
      </trkpt>
      <trkpt lat="36.7398920" lon="-3.7793300">
        <ele>75.0</ele>
        <time>2022-01-08T14:36:11Z</time>
      </trkpt>
      <trkpt lat="36.7398920" lon="-3.7793300">
        <ele>75.0</ele>
        <time>2022-01-08T14:36:12Z</time>
      </trkpt>
      <trkpt lat="36.7398800" lon="-3.7793100">
        <ele>75.0</ele>
        <time>2022-01-08T14:36:13Z</time>
      </trkpt>
      <trkpt lat="36.7398800" lon="-3.7793100">
        <ele>75.0</ele>
        <time>2022-01-08T14:36:14Z</time>
      </trkpt>
      <trkpt lat="36.7398800" lon="-3.7793100">
        <ele>75.0</ele>
        <time>2022-01-08T14:36:15Z</time>
      </trkpt>
      <trkpt lat="36.7398700" lon="-3.7792810">
        <ele>75.0</ele>
        <time>2022-01-08T14:36:16Z</time>
      </trkpt>
      <trkpt lat="36.7398700" lon="-3.7792810">
        <ele>74.0</ele>
        <time>2022-01-08T14:36:17Z</time>
      </trkpt>
      <trkpt lat="36.7398580" lon="-3.7792510">
        <ele>74.0</ele>
        <time>2022-01-08T14:36:18Z</time>
      </trkpt>
      <trkpt lat="36.7398580" lon="-3.7792510">
        <ele>74.0</ele>
        <time>2022-01-08T14:36:19Z</time>
      </trkpt>
      <trkpt lat="36.7398580" lon="-3.7792510">
        <ele>74.0</ele>
        <time>2022-01-08T14:36:20Z</time>
      </trkpt>
      <trkpt lat="36.7398400" lon="-3.7792290">
        <ele>74.0</ele>
        <time>2022-01-08T14:36:21Z</time>
      </trkpt>
      <trkpt lat="36.7398320" lon="-3.7791970">
        <ele>74.0</ele>
        <time>2022-01-08T14:36:22Z</time>
      </trkpt>
      <trkpt lat="36.7398320" lon="-3.7791970">
        <ele>74.0</ele>
        <time>2022-01-08T14:36:23Z</time>
      </trkpt>
      <trkpt lat="36.7398220" lon="-3.7791730">
        <ele>74.0</ele>
        <time>2022-01-08T14:36:24Z</time>
      </trkpt>
      <trkpt lat="36.7398220" lon="-3.7791730">
        <ele>74.0</ele>
        <time>2022-01-08T14:36:25Z</time>
      </trkpt>
      <trkpt lat="36.7398040" lon="-3.7791480">
        <ele>74.0</ele>
        <time>2022-01-08T14:36:26Z</time>
      </trkpt>
      <trkpt lat="36.7398040" lon="-3.7791480">
        <ele>74.0</ele>
        <time>2022-01-08T14:36:27Z</time>
      </trkpt>
      <trkpt lat="36.7397920" lon="-3.7791180">
        <ele>74.0</ele>
        <time>2022-01-08T14:36:28Z</time>
      </trkpt>
      <trkpt lat="36.7397800" lon="-3.7791020">
        <ele>74.0</ele>
        <time>2022-01-08T14:36:29Z</time>
      </trkpt>
      <trkpt lat="36.7397800" lon="-3.7791020">
        <ele>74.0</ele>
        <time>2022-01-08T14:36:30Z</time>
      </trkpt>
      <trkpt lat="36.7397670" lon="-3.7790650">
        <ele>74.0</ele>
        <time>2022-01-08T14:36:31Z</time>
      </trkpt>
      <trkpt lat="36.7397670" lon="-3.7790650">
        <ele>73.0</ele>
        <time>2022-01-08T14:36:32Z</time>
      </trkpt>
      <trkpt lat="36.7397590" lon="-3.7790320">
        <ele>73.0</ele>
        <time>2022-01-08T14:36:33Z</time>
      </trkpt>
      <trkpt lat="36.7397590" lon="-3.7790320">
        <ele>73.0</ele>
        <time>2022-01-08T14:36:34Z</time>
      </trkpt>
      <trkpt lat="36.7397430" lon="-3.7790060">
        <ele>73.0</ele>
        <time>2022-01-08T14:36:35Z</time>
      </trkpt>
      <trkpt lat="36.7397430" lon="-3.7790060">
        <ele>73.0</ele>
        <time>2022-01-08T14:36:36Z</time>
      </trkpt>
      <trkpt lat="36.7397130" lon="-3.7789990">
        <ele>73.0</ele>
        <time>2022-01-08T14:36:37Z</time>
      </trkpt>
      <trkpt lat="36.7396920" lon="-3.7789900">
        <ele>73.0</ele>
        <time>2022-01-08T14:36:38Z</time>
      </trkpt>
      <trkpt lat="36.7396710" lon="-3.7789770">
        <ele>73.0</ele>
        <time>2022-01-08T14:36:39Z</time>
      </trkpt>
      <trkpt lat="36.7396710" lon="-3.7789770">
        <ele>73.0</ele>
        <time>2022-01-08T14:36:40Z</time>
      </trkpt>
      <trkpt lat="36.7396410" lon="-3.7789560">
        <ele>73.0</ele>
        <time>2022-01-08T14:36:41Z</time>
      </trkpt>
      <trkpt lat="36.7396250" lon="-3.7789420">
        <ele>73.0</ele>
        <time>2022-01-08T14:36:42Z</time>
      </trkpt>
      <trkpt lat="36.7396250" lon="-3.7789420">
        <ele>73.0</ele>
        <time>2022-01-08T14:36:43Z</time>
      </trkpt>
      <trkpt lat="36.7395950" lon="-3.7789200">
        <ele>73.0</ele>
        <time>2022-01-08T14:36:44Z</time>
      </trkpt>
      <trkpt lat="36.7395950" lon="-3.7789200">
        <ele>73.0</ele>
        <time>2022-01-08T14:36:45Z</time>
      </trkpt>
      <trkpt lat="36.7395670" lon="-3.7788950">
        <ele>74.0</ele>
        <time>2022-01-08T14:36:46Z</time>
      </trkpt>
      <trkpt lat="36.7395520" lon="-3.7788760">
        <ele>74.0</ele>
        <time>2022-01-08T14:36:47Z</time>
      </trkpt>
      <trkpt lat="36.7395380" lon="-3.7788600">
        <ele>74.0</ele>
        <time>2022-01-08T14:36:48Z</time>
      </trkpt>
      <trkpt lat="36.7395260" lon="-3.7788430">
        <ele>74.0</ele>
        <time>2022-01-08T14:36:49Z</time>
      </trkpt>
      <trkpt lat="36.7395260" lon="-3.7788430">
        <ele>74.0</ele>
        <time>2022-01-08T14:36:50Z</time>
      </trkpt>
      <trkpt lat="36.7395180" lon="-3.7788070">
        <ele>74.0</ele>
        <time>2022-01-08T14:36:51Z</time>
      </trkpt>
      <trkpt lat="36.7395180" lon="-3.7788070">
        <ele>74.0</ele>
        <time>2022-01-08T14:36:52Z</time>
      </trkpt>
      <trkpt lat="36.7395390" lon="-3.7787710">
        <ele>74.0</ele>
        <time>2022-01-08T14:36:53Z</time>
      </trkpt>
      <trkpt lat="36.7395510" lon="-3.7787520">
        <ele>74.0</ele>
        <time>2022-01-08T14:36:54Z</time>
      </trkpt>
      <trkpt lat="36.7395630" lon="-3.7787310">
        <ele>74.0</ele>
        <time>2022-01-08T14:36:55Z</time>
      </trkpt>
      <trkpt lat="36.7395630" lon="-3.7787310">
        <ele>74.0</ele>
        <time>2022-01-08T14:36:56Z</time>
      </trkpt>
      <trkpt lat="36.7395860" lon="-3.7786930">
        <ele>74.0</ele>
        <time>2022-01-08T14:36:57Z</time>
      </trkpt>
      <trkpt lat="36.7395990" lon="-3.7786710">
        <ele>73.0</ele>
        <time>2022-01-08T14:36:58Z</time>
      </trkpt>
      <trkpt lat="36.7396120" lon="-3.7786520">
        <ele>73.0</ele>
        <time>2022-01-08T14:36:59Z</time>
      </trkpt>
      <trkpt lat="36.7396260" lon="-3.7786350">
        <ele>72.0</ele>
        <time>2022-01-08T14:37:00Z</time>
      </trkpt>
      <trkpt lat="36.7396260" lon="-3.7786350">
        <ele>72.0</ele>
        <time>2022-01-08T14:37:01Z</time>
      </trkpt>
      <trkpt lat="36.7396490" lon="-3.7786130">
        <ele>72.0</ele>
        <time>2022-01-08T14:37:02Z</time>
      </trkpt>
      <trkpt lat="36.7396490" lon="-3.7786130">
        <ele>72.0</ele>
        <time>2022-01-08T14:37:03Z</time>
      </trkpt>
      <trkpt lat="36.7396770" lon="-3.7785800">
        <ele>71.0</ele>
        <time>2022-01-08T14:37:04Z</time>
      </trkpt>
      <trkpt lat="36.7396770" lon="-3.7785800">
        <ele>71.0</ele>
        <time>2022-01-08T14:37:05Z</time>
      </trkpt>
      <trkpt lat="36.7397100" lon="-3.7785400">
        <ele>71.0</ele>
        <time>2022-01-08T14:37:06Z</time>
      </trkpt>
      <trkpt lat="36.7397100" lon="-3.7785400">
        <ele>70.0</ele>
        <time>2022-01-08T14:37:07Z</time>
      </trkpt>
      <trkpt lat="36.7397280" lon="-3.7784980">
        <ele>69.0</ele>
        <time>2022-01-08T14:37:08Z</time>
      </trkpt>
      <trkpt lat="36.7397360" lon="-3.7784730">
        <ele>69.0</ele>
        <time>2022-01-08T14:37:09Z</time>
      </trkpt>
      <trkpt lat="36.7397480" lon="-3.7784550">
        <ele>68.0</ele>
        <time>2022-01-08T14:37:10Z</time>
      </trkpt>
      <trkpt lat="36.7397480" lon="-3.7784550">
        <ele>67.0</ele>
        <time>2022-01-08T14:37:11Z</time>
      </trkpt>
      <trkpt lat="36.7397690" lon="-3.7784300">
        <ele>67.0</ele>
        <time>2022-01-08T14:37:12Z</time>
      </trkpt>
      <trkpt lat="36.7397690" lon="-3.7784300">
        <ele>66.0</ele>
        <time>2022-01-08T14:37:13Z</time>
      </trkpt>
      <trkpt lat="36.7397860" lon="-3.7783990">
        <ele>66.0</ele>
        <time>2022-01-08T14:37:14Z</time>
      </trkpt>
      <trkpt lat="36.7397860" lon="-3.7783990">
        <ele>66.0</ele>
        <time>2022-01-08T14:37:15Z</time>
      </trkpt>
      <trkpt lat="36.7397970" lon="-3.7783640">
        <ele>65.0</ele>
        <time>2022-01-08T14:37:16Z</time>
      </trkpt>
      <trkpt lat="36.7397970" lon="-3.7783640">
        <ele>64.0</ele>
        <time>2022-01-08T14:37:17Z</time>
      </trkpt>
      <trkpt lat="36.7398070" lon="-3.7783270">
        <ele>64.0</ele>
        <time>2022-01-08T14:37:18Z</time>
      </trkpt>
      <trkpt lat="36.7398070" lon="-3.7783270">
        <ele>64.0</ele>
        <time>2022-01-08T14:37:19Z</time>
      </trkpt>
      <trkpt lat="36.7398050" lon="-3.7782800">
        <ele>63.0</ele>
        <time>2022-01-08T14:37:20Z</time>
      </trkpt>
      <trkpt lat="36.7398040" lon="-3.7782540">
        <ele>62.0</ele>
        <time>2022-01-08T14:37:21Z</time>
      </trkpt>
      <trkpt lat="36.7398010" lon="-3.7782300">
        <ele>62.0</ele>
        <time>2022-01-08T14:37:22Z</time>
      </trkpt>
      <trkpt lat="36.7398010" lon="-3.7782300">
        <ele>62.0</ele>
        <time>2022-01-08T14:37:23Z</time>
      </trkpt>
      <trkpt lat="36.7398130" lon="-3.7781940">
        <ele>61.0</ele>
        <time>2022-01-08T14:37:24Z</time>
      </trkpt>
      <trkpt lat="36.7398130" lon="-3.7781940">
        <ele>61.0</ele>
        <time>2022-01-08T14:37:25Z</time>
      </trkpt>
      <trkpt lat="36.7398270" lon="-3.7781600">
        <ele>60.0</ele>
        <time>2022-01-08T14:37:26Z</time>
      </trkpt>
      <trkpt lat="36.7398270" lon="-3.7781600">
        <ele>60.0</ele>
        <time>2022-01-08T14:37:27Z</time>
      </trkpt>
      <trkpt lat="36.7398430" lon="-3.7781180">
        <ele>58.0</ele>
        <time>2022-01-08T14:37:28Z</time>
      </trkpt>
      <trkpt lat="36.7398430" lon="-3.7781180">
        <ele>58.0</ele>
        <time>2022-01-08T14:37:29Z</time>
      </trkpt>
      <trkpt lat="36.7398450" lon="-3.7780780">
        <ele>58.0</ele>
        <time>2022-01-08T14:37:30Z</time>
      </trkpt>
      <trkpt lat="36.7398450" lon="-3.7780780">
        <ele>58.0</ele>
        <time>2022-01-08T14:37:31Z</time>
      </trkpt>
      <trkpt lat="36.7398640" lon="-3.7780370">
        <ele>58.0</ele>
        <time>2022-01-08T14:37:32Z</time>
      </trkpt>
      <trkpt lat="36.7398640" lon="-3.7780370">
        <ele>58.0</ele>
        <time>2022-01-08T14:37:33Z</time>
      </trkpt>
      <trkpt lat="36.7398730" lon="-3.7779960">
        <ele>57.0</ele>
        <time>2022-01-08T14:37:34Z</time>
      </trkpt>
      <trkpt lat="36.7398730" lon="-3.7779960">
        <ele>57.0</ele>
        <time>2022-01-08T14:37:35Z</time>
      </trkpt>
      <trkpt lat="36.7399000" lon="-3.7779660">
        <ele>57.0</ele>
        <time>2022-01-08T14:37:36Z</time>
      </trkpt>
      <trkpt lat="36.7399170" lon="-3.7779500">
        <ele>56.0</ele>
        <time>2022-01-08T14:37:37Z</time>
      </trkpt>
      <trkpt lat="36.7399170" lon="-3.7779500">
        <ele>56.0</ele>
        <time>2022-01-08T14:37:38Z</time>
      </trkpt>
      <trkpt lat="36.7399350" lon="-3.7779190">
        <ele>56.0</ele>
        <time>2022-01-08T14:37:39Z</time>
      </trkpt>
      <trkpt lat="36.7399350" lon="-3.7779190">
        <ele>55.0</ele>
        <time>2022-01-08T14:37:40Z</time>
      </trkpt>
      <trkpt lat="36.7399440" lon="-3.7778890">
        <ele>54.0</ele>
        <time>2022-01-08T14:37:41Z</time>
      </trkpt>
      <trkpt lat="36.7399440" lon="-3.7778890">
        <ele>54.0</ele>
        <time>2022-01-08T14:37:42Z</time>
      </trkpt>
      <trkpt lat="36.7399590" lon="-3.7778640">
        <ele>54.0</ele>
        <time>2022-01-08T14:37:43Z</time>
      </trkpt>
      <trkpt lat="36.7399590" lon="-3.7778640">
        <ele>54.0</ele>
        <time>2022-01-08T14:37:44Z</time>
      </trkpt>
      <trkpt lat="36.7399820" lon="-3.7778410">
        <ele>53.0</ele>
        <time>2022-01-08T14:37:45Z</time>
      </trkpt>
      <trkpt lat="36.7399910" lon="-3.7778200">
        <ele>52.0</ele>
        <time>2022-01-08T14:37:46Z</time>
      </trkpt>
      <trkpt lat="36.7399910" lon="-3.7778200">
        <ele>52.0</ele>
        <time>2022-01-08T14:37:47Z</time>
      </trkpt>
      <trkpt lat="36.7400070" lon="-3.7777950">
        <ele>52.0</ele>
        <time>2022-01-08T14:37:48Z</time>
      </trkpt>
      <trkpt lat="36.7400070" lon="-3.7777950">
        <ele>52.0</ele>
        <time>2022-01-08T14:37:49Z</time>
      </trkpt>
      <trkpt lat="36.7400260" lon="-3.7777610">
        <ele>51.0</ele>
        <time>2022-01-08T14:37:50Z</time>
      </trkpt>
      <trkpt lat="36.7400350" lon="-3.7777370">
        <ele>51.0</ele>
        <time>2022-01-08T14:37:51Z</time>
      </trkpt>
      <trkpt lat="36.7400460" lon="-3.7777120">
        <ele>50.0</ele>
        <time>2022-01-08T14:37:52Z</time>
      </trkpt>
      <trkpt lat="36.7400580" lon="-3.7776880">
        <ele>50.0</ele>
        <time>2022-01-08T14:37:53Z</time>
      </trkpt>
      <trkpt lat="36.7400700" lon="-3.7776650">
        <ele>49.0</ele>
        <time>2022-01-08T14:37:54Z</time>
      </trkpt>
      <trkpt lat="36.7400810" lon="-3.7776440">
        <ele>49.0</ele>
        <time>2022-01-08T14:37:55Z</time>
      </trkpt>
      <trkpt lat="36.7400810" lon="-3.7776440">
        <ele>49.0</ele>
        <time>2022-01-08T14:37:56Z</time>
      </trkpt>
      <trkpt lat="36.7400970" lon="-3.7776070">
        <ele>49.0</ele>
        <time>2022-01-08T14:37:57Z</time>
      </trkpt>
      <trkpt lat="36.7400970" lon="-3.7776070">
        <ele>48.0</ele>
        <time>2022-01-08T14:37:58Z</time>
      </trkpt>
      <trkpt lat="36.7401070" lon="-3.7775760">
        <ele>48.0</ele>
        <time>2022-01-08T14:37:59Z</time>
      </trkpt>
      <trkpt lat="36.7401070" lon="-3.7775760">
        <ele>48.0</ele>
        <time>2022-01-08T14:38:00Z</time>
      </trkpt>
      <trkpt lat="36.7401170" lon="-3.7775480">
        <ele>48.0</ele>
        <time>2022-01-08T14:38:01Z</time>
      </trkpt>
      <trkpt lat="36.7401170" lon="-3.7775480">
        <ele>48.0</ele>
        <time>2022-01-08T14:38:02Z</time>
      </trkpt>
      <trkpt lat="36.7401320" lon="-3.7775270">
        <ele>48.0</ele>
        <time>2022-01-08T14:38:03Z</time>
      </trkpt>
      <trkpt lat="36.7401320" lon="-3.7775270">
        <ele>48.0</ele>
        <time>2022-01-08T14:38:04Z</time>
      </trkpt>
      <trkpt lat="36.7401300" lon="-3.7774930">
        <ele>45.0</ele>
        <time>2022-01-08T14:38:05Z</time>
      </trkpt>
      <trkpt lat="36.7401300" lon="-3.7774930">
        <ele>45.0</ele>
        <time>2022-01-08T14:38:06Z</time>
      </trkpt>
      <trkpt lat="36.7401300" lon="-3.7774650">
        <ele>45.0</ele>
        <time>2022-01-08T14:38:07Z</time>
      </trkpt>
      <trkpt lat="36.7401300" lon="-3.7774650">
        <ele>45.0</ele>
        <time>2022-01-08T14:38:08Z</time>
      </trkpt>
      <trkpt lat="36.7401410" lon="-3.7774380">
        <ele>45.0</ele>
        <time>2022-01-08T14:38:09Z</time>
      </trkpt>
      <trkpt lat="36.7401410" lon="-3.7774380">
        <ele>45.0</ele>
        <time>2022-01-08T14:38:10Z</time>
      </trkpt>
      <trkpt lat="36.7401410" lon="-3.7774380">
        <ele>45.0</ele>
        <time>2022-01-08T14:38:11Z</time>
      </trkpt>
      <trkpt lat="36.7401440" lon="-3.7774100">
        <ele>44.0</ele>
        <time>2022-01-08T14:38:12Z</time>
      </trkpt>
      <trkpt lat="36.7401440" lon="-3.7774100">
        <ele>44.0</ele>
        <time>2022-01-08T14:38:13Z</time>
      </trkpt>
      <trkpt lat="36.7401440" lon="-3.7774100">
        <ele>44.0</ele>
        <time>2022-01-08T14:38:14Z</time>
      </trkpt>
      <trkpt lat="36.7401440" lon="-3.7774100">
        <ele>43.0</ele>
        <time>2022-01-08T14:38:15Z</time>
      </trkpt>
      <trkpt lat="36.7401550" lon="-3.7773880">
        <ele>43.0</ele>
        <time>2022-01-08T14:38:16Z</time>
      </trkpt>
      <trkpt lat="36.7401550" lon="-3.7773880">
        <ele>42.0</ele>
        <time>2022-01-08T14:38:17Z</time>
      </trkpt>
      <trkpt lat="36.7401550" lon="-3.7773610">
        <ele>42.0</ele>
        <time>2022-01-08T14:38:18Z</time>
      </trkpt>
      <trkpt lat="36.7401550" lon="-3.7773610">
        <ele>42.0</ele>
        <time>2022-01-08T14:38:19Z</time>
      </trkpt>
      <trkpt lat="36.7401550" lon="-3.7773610">
        <ele>41.0</ele>
        <time>2022-01-08T14:38:20Z</time>
      </trkpt>
      <trkpt lat="36.7401390" lon="-3.7773450">
        <ele>41.0</ele>
        <time>2022-01-08T14:38:21Z</time>
      </trkpt>
      <trkpt lat="36.7401390" lon="-3.7773450">
        <ele>41.0</ele>
        <time>2022-01-08T14:38:22Z</time>
      </trkpt>
      <trkpt lat="36.7401450" lon="-3.7773180">
        <ele>40.0</ele>
        <time>2022-01-08T14:38:23Z</time>
      </trkpt>
      <trkpt lat="36.7401450" lon="-3.7773180">
        <ele>39.0</ele>
        <time>2022-01-08T14:38:24Z</time>
      </trkpt>
      <trkpt lat="36.7401480" lon="-3.7772870">
        <ele>39.0</ele>
        <time>2022-01-08T14:38:25Z</time>
      </trkpt>
      <trkpt lat="36.7401480" lon="-3.7772870">
        <ele>39.0</ele>
        <time>2022-01-08T14:38:26Z</time>
      </trkpt>
      <trkpt lat="36.7401480" lon="-3.7772870">
        <ele>39.0</ele>
        <time>2022-01-08T14:38:27Z</time>
      </trkpt>
      <trkpt lat="36.7401340" lon="-3.7772620">
        <ele>38.0</ele>
        <time>2022-01-08T14:38:28Z</time>
      </trkpt>
      <trkpt lat="36.7401340" lon="-3.7772620">
        <ele>38.0</ele>
        <time>2022-01-08T14:38:29Z</time>
      </trkpt>
      <trkpt lat="36.7401060" lon="-3.7772510">
        <ele>38.0</ele>
        <time>2022-01-08T14:38:30Z</time>
      </trkpt>
      <trkpt lat="36.7401060" lon="-3.7772510">
        <ele>38.0</ele>
        <time>2022-01-08T14:38:31Z</time>
      </trkpt>
      <trkpt lat="36.7401060" lon="-3.7772510">
        <ele>37.0</ele>
        <time>2022-01-08T14:38:32Z</time>
      </trkpt>
      <trkpt lat="36.7401100" lon="-3.7772160">
        <ele>36.0</ele>
        <time>2022-01-08T14:38:33Z</time>
      </trkpt>
      <trkpt lat="36.7401240" lon="-3.7772020">
        <ele>36.0</ele>
        <time>2022-01-08T14:38:34Z</time>
      </trkpt>
      <trkpt lat="36.7401410" lon="-3.7771910">
        <ele>36.0</ele>
        <time>2022-01-08T14:38:35Z</time>
      </trkpt>
      <trkpt lat="36.7401410" lon="-3.7771910">
        <ele>36.0</ele>
        <time>2022-01-08T14:38:36Z</time>
      </trkpt>
      <trkpt lat="36.7401710" lon="-3.7771810">
        <ele>35.0</ele>
        <time>2022-01-08T14:38:37Z</time>
      </trkpt>
      <trkpt lat="36.7401900" lon="-3.7771840">
        <ele>35.0</ele>
        <time>2022-01-08T14:38:38Z</time>
      </trkpt>
      <trkpt lat="36.7401900" lon="-3.7771840">
        <ele>34.0</ele>
        <time>2022-01-08T14:38:39Z</time>
      </trkpt>
      <trkpt lat="36.7402320" lon="-3.7771820">
        <ele>34.0</ele>
        <time>2022-01-08T14:38:40Z</time>
      </trkpt>
      <trkpt lat="36.7402320" lon="-3.7771820">
        <ele>34.0</ele>
        <time>2022-01-08T14:38:41Z</time>
      </trkpt>
      <trkpt lat="36.7402650" lon="-3.7771820">
        <ele>33.0</ele>
        <time>2022-01-08T14:38:42Z</time>
      </trkpt>
      <trkpt lat="36.7402830" lon="-3.7771870">
        <ele>32.0</ele>
        <time>2022-01-08T14:38:43Z</time>
      </trkpt>
      <trkpt lat="36.7403010" lon="-3.7771890">
        <ele>32.0</ele>
        <time>2022-01-08T14:38:44Z</time>
      </trkpt>
      <trkpt lat="36.7403010" lon="-3.7771890">
        <ele>32.0</ele>
        <time>2022-01-08T14:38:45Z</time>
      </trkpt>
      <trkpt lat="36.7403350" lon="-3.7771840">
        <ele>32.0</ele>
        <time>2022-01-08T14:38:46Z</time>
      </trkpt>
      <trkpt lat="36.7403530" lon="-3.7771820">
        <ele>32.0</ele>
        <time>2022-01-08T14:38:47Z</time>
      </trkpt>
      <trkpt lat="36.7403530" lon="-3.7771820">
        <ele>32.0</ele>
        <time>2022-01-08T14:38:48Z</time>
      </trkpt>
      <trkpt lat="36.7403840" lon="-3.7771930">
        <ele>31.0</ele>
        <time>2022-01-08T14:38:49Z</time>
      </trkpt>
      <trkpt lat="36.7404020" lon="-3.7772030">
        <ele>30.0</ele>
        <time>2022-01-08T14:38:50Z</time>
      </trkpt>
      <trkpt lat="36.7404210" lon="-3.7772130">
        <ele>30.0</ele>
        <time>2022-01-08T14:38:51Z</time>
      </trkpt>
      <trkpt lat="36.7404370" lon="-3.7772260">
        <ele>29.0</ele>
        <time>2022-01-08T14:38:52Z</time>
      </trkpt>
      <trkpt lat="36.7404550" lon="-3.7772430">
        <ele>29.0</ele>
        <time>2022-01-08T14:38:53Z</time>
      </trkpt>
      <trkpt lat="36.7404710" lon="-3.7772590">
        <ele>28.0</ele>
        <time>2022-01-08T14:38:54Z</time>
      </trkpt>
      <trkpt lat="36.7404890" lon="-3.7772790">
        <ele>28.0</ele>
        <time>2022-01-08T14:38:55Z</time>
      </trkpt>
      <trkpt lat="36.7405050" lon="-3.7772960">
        <ele>28.0</ele>
        <time>2022-01-08T14:38:56Z</time>
      </trkpt>
      <trkpt lat="36.7405200" lon="-3.7773140">
        <ele>28.0</ele>
        <time>2022-01-08T14:38:57Z</time>
      </trkpt>
      <trkpt lat="36.7405200" lon="-3.7773140">
        <ele>28.0</ele>
        <time>2022-01-08T14:38:58Z</time>
      </trkpt>
      <trkpt lat="36.7405440" lon="-3.7773380">
        <ele>27.0</ele>
        <time>2022-01-08T14:38:59Z</time>
      </trkpt>
      <trkpt lat="36.7405440" lon="-3.7773380">
        <ele>27.0</ele>
        <time>2022-01-08T14:39:00Z</time>
      </trkpt>
      <trkpt lat="36.7405650" lon="-3.7773470">
        <ele>25.0</ele>
        <time>2022-01-08T14:39:01Z</time>
      </trkpt>
      <trkpt lat="36.7405650" lon="-3.7773470">
        <ele>24.0</ele>
        <time>2022-01-08T14:39:02Z</time>
      </trkpt>
      <trkpt lat="36.7405860" lon="-3.7773590">
        <ele>24.0</ele>
        <time>2022-01-08T14:39:03Z</time>
      </trkpt>
      <trkpt lat="36.7405860" lon="-3.7773590">
        <ele>24.0</ele>
        <time>2022-01-08T14:39:04Z</time>
      </trkpt>
      <trkpt lat="36.7406040" lon="-3.7773620">
        <ele>24.0</ele>
        <time>2022-01-08T14:39:05Z</time>
      </trkpt>
      <trkpt lat="36.7406040" lon="-3.7773620">
        <ele>24.0</ele>
        <time>2022-01-08T14:39:06Z</time>
      </trkpt>
      <trkpt lat="36.7406130" lon="-3.7773650">
        <ele>24.0</ele>
        <time>2022-01-08T14:39:07Z</time>
      </trkpt>
      <trkpt lat="36.7406220" lon="-3.7773690">
        <ele>23.0</ele>
        <time>2022-01-08T14:39:08Z</time>
      </trkpt>
      <trkpt lat="36.7406310" lon="-3.7773730">
        <ele>23.0</ele>
        <time>2022-01-08T14:39:09Z</time>
      </trkpt>
      <trkpt lat="36.7406390" lon="-3.7773770">
        <ele>23.0</ele>
        <time>2022-01-08T14:39:10Z</time>
      </trkpt>
      <trkpt lat="36.7406480" lon="-3.7773810">
        <ele>22.0</ele>
        <time>2022-01-08T14:39:11Z</time>
      </trkpt>
      <trkpt lat="36.7406570" lon="-3.7773840">
        <ele>22.0</ele>
        <time>2022-01-08T14:39:12Z</time>
      </trkpt>
      <trkpt lat="36.7406650" lon="-3.7773880">
        <ele>22.0</ele>
        <time>2022-01-08T14:39:13Z</time>
      </trkpt>
      <trkpt lat="36.7406740" lon="-3.7773920">
        <ele>22.0</ele>
        <time>2022-01-08T14:39:14Z</time>
      </trkpt>
      <trkpt lat="36.7406830" lon="-3.7773960">
        <ele>21.0</ele>
        <time>2022-01-08T14:39:15Z</time>
      </trkpt>
      <trkpt lat="36.7406910" lon="-3.7774000">
        <ele>20.0</ele>
        <time>2022-01-08T14:39:16Z</time>
      </trkpt>
      <trkpt lat="36.7406960" lon="-3.7774040">
        <ele>20.0</ele>
        <time>2022-01-08T14:39:17Z</time>
      </trkpt>
      <trkpt lat="36.7407010" lon="-3.7774080">
        <ele>20.0</ele>
        <time>2022-01-08T14:39:18Z</time>
      </trkpt>
      <trkpt lat="36.7407050" lon="-3.7774120">
        <ele>20.0</ele>
        <time>2022-01-08T14:39:19Z</time>
      </trkpt>
      <trkpt lat="36.7407100" lon="-3.7774160">
        <ele>20.0</ele>
        <time>2022-01-08T14:39:20Z</time>
      </trkpt>
      <trkpt lat="36.7407150" lon="-3.7774200">
        <ele>20.0</ele>
        <time>2022-01-08T14:39:21Z</time>
      </trkpt>
      <trkpt lat="36.7407190" lon="-3.7774240">
        <ele>20.0</ele>
        <time>2022-01-08T14:39:22Z</time>
      </trkpt>
      <trkpt lat="36.7407240" lon="-3.7774280">
        <ele>19.0</ele>
        <time>2022-01-08T14:39:23Z</time>
      </trkpt>
      <trkpt lat="36.7407290" lon="-3.7774330">
        <ele>19.0</ele>
        <time>2022-01-08T14:39:24Z</time>
      </trkpt>
      <trkpt lat="36.7407590" lon="-3.7774430">
        <ele>19.0</ele>
        <time>2022-01-08T14:39:25Z</time>
      </trkpt>
      <trkpt lat="36.7407880" lon="-3.7774530">
        <ele>19.0</ele>
        <time>2022-01-08T14:39:26Z</time>
      </trkpt>
      <trkpt lat="36.7408180" lon="-3.7774630">
        <ele>19.0</ele>
        <time>2022-01-08T14:39:27Z</time>
      </trkpt>
      <trkpt lat="36.7408480" lon="-3.7774730">
        <ele>19.0</ele>
        <time>2022-01-08T14:39:28Z</time>
      </trkpt>
      <trkpt lat="36.7408480" lon="-3.7774730">
        <ele>18.0</ele>
        <time>2022-01-08T14:39:29Z</time>
      </trkpt>
      <trkpt lat="36.7408650" lon="-3.7774690">
        <ele>18.0</ele>
        <time>2022-01-08T14:39:30Z</time>
      </trkpt>
      <trkpt lat="36.7408810" lon="-3.7774650">
        <ele>17.0</ele>
        <time>2022-01-08T14:39:31Z</time>
      </trkpt>
      <trkpt lat="36.7408970" lon="-3.7774620">
        <ele>17.0</ele>
        <time>2022-01-08T14:39:32Z</time>
      </trkpt>
      <trkpt lat="36.7409140" lon="-3.7774620">
        <ele>16.0</ele>
        <time>2022-01-08T14:39:33Z</time>
      </trkpt>
      <trkpt lat="36.7409310" lon="-3.7774630">
        <ele>15.0</ele>
        <time>2022-01-08T14:39:34Z</time>
      </trkpt>
      <trkpt lat="36.7409480" lon="-3.7774630">
        <ele>15.0</ele>
        <time>2022-01-08T14:39:35Z</time>
      </trkpt>
      <trkpt lat="36.7409650" lon="-3.7774640">
        <ele>15.0</ele>
        <time>2022-01-08T14:39:36Z</time>
      </trkpt>
      <trkpt lat="36.7409820" lon="-3.7774640">
        <ele>15.0</ele>
        <time>2022-01-08T14:39:37Z</time>
      </trkpt>
      <trkpt lat="36.7410000" lon="-3.7774650">
        <ele>15.0</ele>
        <time>2022-01-08T14:39:38Z</time>
      </trkpt>
      <trkpt lat="36.7410150" lon="-3.7774590">
        <ele>14.0</ele>
        <time>2022-01-08T14:39:39Z</time>
      </trkpt>
      <trkpt lat="36.7410310" lon="-3.7774540">
        <ele>13.0</ele>
        <time>2022-01-08T14:39:40Z</time>
      </trkpt>
      <trkpt lat="36.7410460" lon="-3.7774490">
        <ele>13.0</ele>
        <time>2022-01-08T14:39:41Z</time>
      </trkpt>
      <trkpt lat="36.7410620" lon="-3.7774440">
        <ele>12.0</ele>
        <time>2022-01-08T14:39:42Z</time>
      </trkpt>
      <trkpt lat="36.7410770" lon="-3.7774390">
        <ele>12.0</ele>
        <time>2022-01-08T14:39:43Z</time>
      </trkpt>
      <trkpt lat="36.7410930" lon="-3.7774340">
        <ele>12.0</ele>
        <time>2022-01-08T14:39:44Z</time>
      </trkpt>
      <trkpt lat="36.7410990" lon="-3.7774280">
        <ele>11.0</ele>
        <time>2022-01-08T14:39:45Z</time>
      </trkpt>
      <trkpt lat="36.7411050" lon="-3.7774230">
        <ele>11.0</ele>
        <time>2022-01-08T14:39:46Z</time>
      </trkpt>
      <trkpt lat="36.7411120" lon="-3.7774170">
        <ele>11.0</ele>
        <time>2022-01-08T14:39:47Z</time>
      </trkpt>
      <trkpt lat="36.7411180" lon="-3.7774120">
        <ele>11.0</ele>
        <time>2022-01-08T14:39:48Z</time>
      </trkpt>
      <trkpt lat="36.7411240" lon="-3.7774070">
        <ele>10.0</ele>
        <time>2022-01-08T14:39:49Z</time>
      </trkpt>
      <trkpt lat="36.7411310" lon="-3.7774010">
        <ele>10.0</ele>
        <time>2022-01-08T14:39:50Z</time>
      </trkpt>
      <trkpt lat="36.7411370" lon="-3.7773960">
        <ele>9.0</ele>
        <time>2022-01-08T14:39:51Z</time>
      </trkpt>
      <trkpt lat="36.7411440" lon="-3.7773910">
        <ele>9.0</ele>
        <time>2022-01-08T14:39:52Z</time>
      </trkpt>
      <trkpt lat="36.7411500" lon="-3.7773850">
        <ele>9.0</ele>
        <time>2022-01-08T14:39:53Z</time>
      </trkpt>
      <trkpt lat="36.7411560" lon="-3.7773800">
        <ele>8.0</ele>
        <time>2022-01-08T14:39:54Z</time>
      </trkpt>
      <trkpt lat="36.7411630" lon="-3.7773740">
        <ele>7.0</ele>
        <time>2022-01-08T14:39:55Z</time>
      </trkpt>
      <trkpt lat="36.7411690" lon="-3.7773690">
        <ele>7.0</ele>
        <time>2022-01-08T14:39:56Z</time>
      </trkpt>
      <trkpt lat="36.7411760" lon="-3.7773640">
        <ele>7.0</ele>
        <time>2022-01-08T14:39:57Z</time>
      </trkpt>
      <trkpt lat="36.7411790" lon="-3.7773490">
        <ele>7.0</ele>
        <time>2022-01-08T14:39:58Z</time>
      </trkpt>
      <trkpt lat="36.7411830" lon="-3.7773340">
        <ele>7.0</ele>
        <time>2022-01-08T14:39:59Z</time>
      </trkpt>
      <trkpt lat="36.7411870" lon="-3.7773200">
        <ele>7.0</ele>
        <time>2022-01-08T14:40:00Z</time>
      </trkpt>
      <trkpt lat="36.7411900" lon="-3.7773050">
        <ele>7.0</ele>
        <time>2022-01-08T14:40:01Z</time>
      </trkpt>
      <trkpt lat="36.7411940" lon="-3.7772910">
        <ele>7.0</ele>
        <time>2022-01-08T14:40:02Z</time>
      </trkpt>
      <trkpt lat="36.7411980" lon="-3.7772760">
        <ele>7.0</ele>
        <time>2022-01-08T14:40:03Z</time>
      </trkpt>
      <trkpt lat="36.7412020" lon="-3.7772620">
        <ele>7.0</ele>
        <time>2022-01-08T14:40:04Z</time>
      </trkpt>
      <trkpt lat="36.7412050" lon="-3.7772470">
        <ele>7.0</ele>
        <time>2022-01-08T14:40:05Z</time>
      </trkpt>
      <trkpt lat="36.7411980" lon="-3.7772340">
        <ele>7.0</ele>
        <time>2022-01-08T14:40:06Z</time>
      </trkpt>
      <trkpt lat="36.7411910" lon="-3.7772200">
        <ele>7.0</ele>
        <time>2022-01-08T14:40:07Z</time>
      </trkpt>
      <trkpt lat="36.7411840" lon="-3.7772060">
        <ele>7.0</ele>
        <time>2022-01-08T14:40:08Z</time>
      </trkpt>
      <trkpt lat="36.7411770" lon="-3.7771930">
        <ele>7.0</ele>
        <time>2022-01-08T14:40:09Z</time>
      </trkpt>
      <trkpt lat="36.7411700" lon="-3.7771790">
        <ele>7.0</ele>
        <time>2022-01-08T14:40:10Z</time>
      </trkpt>
      <trkpt lat="36.7411630" lon="-3.7771660">
        <ele>7.0</ele>
        <time>2022-01-08T14:40:11Z</time>
      </trkpt>
      <trkpt lat="36.7411560" lon="-3.7771520">
        <ele>7.0</ele>
        <time>2022-01-08T14:40:12Z</time>
      </trkpt>
      <trkpt lat="36.7411500" lon="-3.7771410">
        <ele>7.0</ele>
        <time>2022-01-08T14:40:13Z</time>
      </trkpt>
      <trkpt lat="36.7411440" lon="-3.7771310">
        <ele>7.0</ele>
        <time>2022-01-08T14:40:14Z</time>
      </trkpt>
      <trkpt lat="36.7411380" lon="-3.7771200">
        <ele>7.0</ele>
        <time>2022-01-08T14:40:15Z</time>
      </trkpt>
      <trkpt lat="36.7411320" lon="-3.7771090">
        <ele>7.0</ele>
        <time>2022-01-08T14:40:16Z</time>
      </trkpt>
      <trkpt lat="36.7411260" lon="-3.7770990">
        <ele>7.0</ele>
        <time>2022-01-08T14:40:17Z</time>
      </trkpt>
      <trkpt lat="36.7411200" lon="-3.7770880">
        <ele>7.0</ele>
        <time>2022-01-08T14:40:18Z</time>
      </trkpt>
      <trkpt lat="36.7411140" lon="-3.7770770">
        <ele>7.0</ele>
        <time>2022-01-08T14:40:19Z</time>
      </trkpt>
      <trkpt lat="36.7411080" lon="-3.7770670">
        <ele>7.0</ele>
        <time>2022-01-08T14:40:20Z</time>
      </trkpt>
      <trkpt lat="36.7411020" lon="-3.7770560">
        <ele>7.0</ele>
        <time>2022-01-08T14:40:21Z</time>
      </trkpt>
      <trkpt lat="36.7410910" lon="-3.7770490">
        <ele>7.0</ele>
        <time>2022-01-08T14:40:22Z</time>
      </trkpt>
      <trkpt lat="36.7410790" lon="-3.7770420">
        <ele>7.0</ele>
        <time>2022-01-08T14:40:23Z</time>
      </trkpt>
      <trkpt lat="36.7410670" lon="-3.7770340">
        <ele>8.0</ele>
        <time>2022-01-08T14:40:24Z</time>
      </trkpt>
      <trkpt lat="36.7410550" lon="-3.7770270">
        <ele>8.0</ele>
        <time>2022-01-08T14:40:25Z</time>
      </trkpt>
      <trkpt lat="36.7410430" lon="-3.7770200">
        <ele>8.0</ele>
        <time>2022-01-08T14:40:26Z</time>
      </trkpt>
      <trkpt lat="36.7410310" lon="-3.7770120">
        <ele>8.0</ele>
        <time>2022-01-08T14:40:27Z</time>
      </trkpt>
      <trkpt lat="36.7410190" lon="-3.7770050">
        <ele>8.0</ele>
        <time>2022-01-08T14:40:28Z</time>
      </trkpt>
      <trkpt lat="36.7410110" lon="-3.7769990">
        <ele>8.0</ele>
        <time>2022-01-08T14:40:29Z</time>
      </trkpt>
      <trkpt lat="36.7410020" lon="-3.7769920">
        <ele>8.0</ele>
        <time>2022-01-08T14:40:30Z</time>
      </trkpt>
      <trkpt lat="36.7409930" lon="-3.7769860">
        <ele>8.0</ele>
        <time>2022-01-08T14:40:31Z</time>
      </trkpt>
      <trkpt lat="36.7409850" lon="-3.7769790">
        <ele>8.0</ele>
        <time>2022-01-08T14:40:32Z</time>
      </trkpt>
      <trkpt lat="36.7409760" lon="-3.7769730">
        <ele>8.0</ele>
        <time>2022-01-08T14:40:33Z</time>
      </trkpt>
      <trkpt lat="36.7409670" lon="-3.7769660">
        <ele>8.0</ele>
        <time>2022-01-08T14:40:34Z</time>
      </trkpt>
      <trkpt lat="36.7409490" lon="-3.7769550">
        <ele>8.0</ele>
        <time>2022-01-08T14:40:35Z</time>
      </trkpt>
      <trkpt lat="36.7409490" lon="-3.7769550">
        <ele>8.0</ele>
        <time>2022-01-08T14:40:36Z</time>
      </trkpt>
      <trkpt lat="36.7409290" lon="-3.7769420">
        <ele>8.0</ele>
        <time>2022-01-08T14:40:37Z</time>
      </trkpt>
      <trkpt lat="36.7409290" lon="-3.7769420">
        <ele>8.0</ele>
        <time>2022-01-08T14:40:38Z</time>
      </trkpt>
      <trkpt lat="36.7409140" lon="-3.7769260">
        <ele>8.0</ele>
        <time>2022-01-08T14:40:39Z</time>
      </trkpt>
      <trkpt lat="36.7408990" lon="-3.7769100">
        <ele>8.0</ele>
        <time>2022-01-08T14:40:40Z</time>
      </trkpt>
      <trkpt lat="36.7408830" lon="-3.7768940">
        <ele>8.0</ele>
        <time>2022-01-08T14:40:41Z</time>
      </trkpt>
      <trkpt lat="36.7408680" lon="-3.7768780">
        <ele>8.0</ele>
        <time>2022-01-08T14:40:42Z</time>
      </trkpt>
      <trkpt lat="36.7408530" lon="-3.7768620">
        <ele>8.0</ele>
        <time>2022-01-08T14:40:43Z</time>
      </trkpt>
      <trkpt lat="36.7408370" lon="-3.7768460">
        <ele>8.0</ele>
        <time>2022-01-08T14:40:44Z</time>
      </trkpt>
      <trkpt lat="36.7408370" lon="-3.7768460">
        <ele>8.0</ele>
        <time>2022-01-08T14:40:45Z</time>
      </trkpt>
      <trkpt lat="36.7408250" lon="-3.7768220">
        <ele>8.0</ele>
        <time>2022-01-08T14:40:46Z</time>
      </trkpt>
      <trkpt lat="36.7408250" lon="-3.7768220">
        <ele>8.0</ele>
        <time>2022-01-08T14:40:47Z</time>
      </trkpt>
      <trkpt lat="36.7408250" lon="-3.7768220">
        <ele>8.0</ele>
        <time>2022-01-08T14:40:48Z</time>
      </trkpt>
      <trkpt lat="36.7408180" lon="-3.7767940">
        <ele>8.0</ele>
        <time>2022-01-08T14:40:49Z</time>
      </trkpt>
      <trkpt lat="36.7408180" lon="-3.7767940">
        <ele>8.0</ele>
        <time>2022-01-08T14:40:50Z</time>
      </trkpt>
      <trkpt lat="36.7408180" lon="-3.7767940">
        <ele>8.0</ele>
        <time>2022-01-08T14:40:51Z</time>
      </trkpt>
      <trkpt lat="36.7408080" lon="-3.7767590">
        <ele>9.0</ele>
        <time>2022-01-08T14:40:52Z</time>
      </trkpt>
      <trkpt lat="36.7408080" lon="-3.7767590">
        <ele>10.0</ele>
        <time>2022-01-08T14:40:53Z</time>
      </trkpt>
      <trkpt lat="36.7407980" lon="-3.7767060">
        <ele>10.0</ele>
        <time>2022-01-08T14:40:54Z</time>
      </trkpt>
      <trkpt lat="36.7407940" lon="-3.7766810">
        <ele>8.0</ele>
        <time>2022-01-08T14:40:55Z</time>
      </trkpt>
      <trkpt lat="36.7407890" lon="-3.7766560">
        <ele>8.0</ele>
        <time>2022-01-08T14:40:56Z</time>
      </trkpt>
      <trkpt lat="36.7407870" lon="-3.7766270">
        <ele>8.0</ele>
        <time>2022-01-08T14:40:57Z</time>
      </trkpt>
      <trkpt lat="36.7407850" lon="-3.7765960">
        <ele>8.0</ele>
        <time>2022-01-08T14:40:58Z</time>
      </trkpt>
      <trkpt lat="36.7407770" lon="-3.7765680">
        <ele>9.0</ele>
        <time>2022-01-08T14:40:59Z</time>
      </trkpt>
      <trkpt lat="36.7407770" lon="-3.7765680">
        <ele>9.0</ele>
        <time>2022-01-08T14:41:00Z</time>
      </trkpt>
      <trkpt lat="36.7407690" lon="-3.7765310">
        <ele>9.0</ele>
        <time>2022-01-08T14:41:01Z</time>
      </trkpt>
      <trkpt lat="36.7407600" lon="-3.7764940">
        <ele>9.0</ele>
        <time>2022-01-08T14:41:02Z</time>
      </trkpt>
      <trkpt lat="36.7407510" lon="-3.7764560">
        <ele>9.0</ele>
        <time>2022-01-08T14:41:03Z</time>
      </trkpt>
      <trkpt lat="36.7407430" lon="-3.7764190">
        <ele>9.0</ele>
        <time>2022-01-08T14:41:04Z</time>
      </trkpt>
      <trkpt lat="36.7407410" lon="-3.7763950">
        <ele>9.0</ele>
        <time>2022-01-08T14:41:05Z</time>
      </trkpt>
      <trkpt lat="36.7407330" lon="-3.7763690">
        <ele>9.0</ele>
        <time>2022-01-08T14:41:06Z</time>
      </trkpt>
      <trkpt lat="36.7407190" lon="-3.7763460">
        <ele>9.0</ele>
        <time>2022-01-08T14:41:07Z</time>
      </trkpt>
      <trkpt lat="36.7407190" lon="-3.7763460">
        <ele>9.0</ele>
        <time>2022-01-08T14:41:08Z</time>
      </trkpt>
      <trkpt lat="36.7406920" lon="-3.7763150">
        <ele>9.0</ele>
        <time>2022-01-08T14:41:09Z</time>
      </trkpt>
      <trkpt lat="36.7406720" lon="-3.7763030">
        <ele>9.0</ele>
        <time>2022-01-08T14:41:10Z</time>
      </trkpt>
      <trkpt lat="36.7406440" lon="-3.7762930">
        <ele>9.0</ele>
        <time>2022-01-08T14:41:11Z</time>
      </trkpt>
      <trkpt lat="36.7406160" lon="-3.7762850">
        <ele>9.0</ele>
        <time>2022-01-08T14:41:12Z</time>
      </trkpt>
      <trkpt lat="36.7405890" lon="-3.7762770">
        <ele>10.0</ele>
        <time>2022-01-08T14:41:13Z</time>
      </trkpt>
      <trkpt lat="36.7405630" lon="-3.7762660">
        <ele>10.0</ele>
        <time>2022-01-08T14:41:14Z</time>
      </trkpt>
      <trkpt lat="36.7405350" lon="-3.7762610">
        <ele>10.0</ele>
        <time>2022-01-08T14:41:15Z</time>
      </trkpt>
      <trkpt lat="36.7405140" lon="-3.7762600">
        <ele>10.0</ele>
        <time>2022-01-08T14:41:16Z</time>
      </trkpt>
      <trkpt lat="36.7404900" lon="-3.7762650">
        <ele>10.0</ele>
        <time>2022-01-08T14:41:17Z</time>
      </trkpt>
      <trkpt lat="36.7404700" lon="-3.7762790">
        <ele>10.0</ele>
        <time>2022-01-08T14:41:18Z</time>
      </trkpt>
      <trkpt lat="36.7404460" lon="-3.7762830">
        <ele>10.0</ele>
        <time>2022-01-08T14:41:19Z</time>
      </trkpt>
      <trkpt lat="36.7404190" lon="-3.7762880">
        <ele>10.0</ele>
        <time>2022-01-08T14:41:20Z</time>
      </trkpt>
      <trkpt lat="36.7403920" lon="-3.7762850">
        <ele>10.0</ele>
        <time>2022-01-08T14:41:21Z</time>
      </trkpt>
      <trkpt lat="36.7403920" lon="-3.7762850">
        <ele>10.0</ele>
        <time>2022-01-08T14:41:22Z</time>
      </trkpt>
      <trkpt lat="36.7403550" lon="-3.7762820">
        <ele>10.0</ele>
        <time>2022-01-08T14:41:23Z</time>
      </trkpt>
      <trkpt lat="36.7403170" lon="-3.7762790">
        <ele>9.0</ele>
        <time>2022-01-08T14:41:24Z</time>
      </trkpt>
      <trkpt lat="36.7402800" lon="-3.7762770">
        <ele>9.0</ele>
        <time>2022-01-08T14:41:25Z</time>
      </trkpt>
      <trkpt lat="36.7402420" lon="-3.7762740">
        <ele>9.0</ele>
        <time>2022-01-08T14:41:26Z</time>
      </trkpt>
      <trkpt lat="36.7402140" lon="-3.7762760">
        <ele>9.0</ele>
        <time>2022-01-08T14:41:27Z</time>
      </trkpt>
      <trkpt lat="36.7401850" lon="-3.7762890">
        <ele>8.0</ele>
        <time>2022-01-08T14:41:28Z</time>
      </trkpt>
      <trkpt lat="36.7401530" lon="-3.7762970">
        <ele>8.0</ele>
        <time>2022-01-08T14:41:29Z</time>
      </trkpt>
      <trkpt lat="36.7401530" lon="-3.7762970">
        <ele>7.0</ele>
        <time>2022-01-08T14:41:30Z</time>
      </trkpt>
      <trkpt lat="36.7400850" lon="-3.7763260">
        <ele>7.0</ele>
        <time>2022-01-08T14:41:31Z</time>
      </trkpt>
      <trkpt lat="36.7400730" lon="-3.7763300">
        <ele>7.0</ele>
        <time>2022-01-08T14:41:32Z</time>
      </trkpt>
      <trkpt lat="36.7400480" lon="-3.7763350">
        <ele>6.0</ele>
        <time>2022-01-08T14:41:33Z</time>
      </trkpt>
      <trkpt lat="36.7400230" lon="-3.7763450">
        <ele>5.0</ele>
        <time>2022-01-08T14:41:34Z</time>
      </trkpt>
      <trkpt lat="36.7399990" lon="-3.7763530">
        <ele>4.0</ele>
        <time>2022-01-08T14:41:35Z</time>
      </trkpt>
      <trkpt lat="36.7399750" lon="-3.7763520">
        <ele>5.0</ele>
        <time>2022-01-08T14:41:36Z</time>
      </trkpt>
      <trkpt lat="36.7399520" lon="-3.7763530">
        <ele>5.0</ele>
        <time>2022-01-08T14:41:37Z</time>
      </trkpt>
      <trkpt lat="36.7399250" lon="-3.7763540">
        <ele>4.0</ele>
        <time>2022-01-08T14:41:38Z</time>
      </trkpt>
      <trkpt lat="36.7398990" lon="-3.7763500">
        <ele>3.0</ele>
        <time>2022-01-08T14:41:39Z</time>
      </trkpt>
      <trkpt lat="36.7398720" lon="-3.7763500">
        <ele>2.0</ele>
        <time>2022-01-08T14:41:40Z</time>
      </trkpt>
      <trkpt lat="36.7398450" lon="-3.7763520">
        <ele>2.0</ele>
        <time>2022-01-08T14:41:41Z</time>
      </trkpt>
      <trkpt lat="36.7398240" lon="-3.7763470">
        <ele>2.0</ele>
        <time>2022-01-08T14:41:42Z</time>
      </trkpt>
      <trkpt lat="36.7398000" lon="-3.7763420">
        <ele>2.0</ele>
        <time>2022-01-08T14:41:43Z</time>
      </trkpt>
      <trkpt lat="36.7397760" lon="-3.7763350">
        <ele>1.0</ele>
        <time>2022-01-08T14:41:44Z</time>
      </trkpt>
      <trkpt lat="36.7397500" lon="-3.7763350">
        <ele>1.0</ele>
        <time>2022-01-08T14:41:45Z</time>
      </trkpt>
      <trkpt lat="36.7397500" lon="-3.7763350">
        <ele>0.0</ele>
        <time>2022-01-08T14:41:46Z</time>
      </trkpt>
      <trkpt lat="36.7396950" lon="-3.7763500">
        <ele>0.0</ele>
        <time>2022-01-08T14:41:47Z</time>
      </trkpt>
      <trkpt lat="36.7396670" lon="-3.7763660">
        <ele>0.0</ele>
        <time>2022-01-08T14:41:48Z</time>
      </trkpt>
      <trkpt lat="36.7396670" lon="-3.7763660">
        <ele>-1.0</ele>
        <time>2022-01-08T14:41:49Z</time>
      </trkpt>
      <trkpt lat="36.7396080" lon="-3.7764200">
        <ele>-2.0</ele>
        <time>2022-01-08T14:41:50Z</time>
      </trkpt>
      <trkpt lat="36.7395970" lon="-3.7764310">
        <ele>-2.0</ele>
        <time>2022-01-08T14:41:51Z</time>
      </trkpt>
      <trkpt lat="36.7395770" lon="-3.7764560">
        <ele>-2.0</ele>
        <time>2022-01-08T14:41:52Z</time>
      </trkpt>
      <trkpt lat="36.7395560" lon="-3.7764760">
        <ele>-3.0</ele>
        <time>2022-01-08T14:41:53Z</time>
      </trkpt>
      <trkpt lat="36.7395360" lon="-3.7765000">
        <ele>-3.0</ele>
        <time>2022-01-08T14:41:54Z</time>
      </trkpt>
      <trkpt lat="36.7395150" lon="-3.7765280">
        <ele>-3.0</ele>
        <time>2022-01-08T14:41:55Z</time>
      </trkpt>
      <trkpt lat="36.7394960" lon="-3.7765580">
        <ele>-4.0</ele>
        <time>2022-01-08T14:41:56Z</time>
      </trkpt>
      <trkpt lat="36.7394760" lon="-3.7765880">
        <ele>-5.0</ele>
        <time>2022-01-08T14:41:57Z</time>
      </trkpt>
      <trkpt lat="36.7394560" lon="-3.7766210">
        <ele>-5.0</ele>
        <time>2022-01-08T14:41:58Z</time>
      </trkpt>
      <trkpt lat="36.7394340" lon="-3.7766520">
        <ele>-6.0</ele>
        <time>2022-01-08T14:41:59Z</time>
      </trkpt>
      <trkpt lat="36.7394160" lon="-3.7766840">
        <ele>-6.0</ele>
        <time>2022-01-08T14:42:00Z</time>
      </trkpt>
      <trkpt lat="36.7393980" lon="-3.7767210">
        <ele>-6.0</ele>
        <time>2022-01-08T14:42:01Z</time>
      </trkpt>
      <trkpt lat="36.7393780" lon="-3.7767540">
        <ele>-6.0</ele>
        <time>2022-01-08T14:42:02Z</time>
      </trkpt>
      <trkpt lat="36.7393540" lon="-3.7767830">
        <ele>-6.0</ele>
        <time>2022-01-08T14:42:03Z</time>
      </trkpt>
      <trkpt lat="36.7393310" lon="-3.7768100">
        <ele>-6.0</ele>
        <time>2022-01-08T14:42:04Z</time>
      </trkpt>
      <trkpt lat="36.7393110" lon="-3.7768360">
        <ele>-6.0</ele>
        <time>2022-01-08T14:42:05Z</time>
      </trkpt>
      <trkpt lat="36.7392930" lon="-3.7768590">
        <ele>-7.0</ele>
        <time>2022-01-08T14:42:06Z</time>
      </trkpt>
      <trkpt lat="36.7392720" lon="-3.7768800">
        <ele>-8.0</ele>
        <time>2022-01-08T14:42:07Z</time>
      </trkpt>
      <trkpt lat="36.7392720" lon="-3.7768800">
        <ele>-8.0</ele>
        <time>2022-01-08T14:42:08Z</time>
      </trkpt>
      <trkpt lat="36.7392310" lon="-3.7769260">
        <ele>-8.0</ele>
        <time>2022-01-08T14:42:09Z</time>
      </trkpt>
      <trkpt lat="36.7392110" lon="-3.7769560">
        <ele>-9.0</ele>
        <time>2022-01-08T14:42:10Z</time>
      </trkpt>
      <trkpt lat="36.7391940" lon="-3.7769890">
        <ele>-9.0</ele>
        <time>2022-01-08T14:42:11Z</time>
      </trkpt>
      <trkpt lat="36.7391750" lon="-3.7770190">
        <ele>-9.0</ele>
        <time>2022-01-08T14:42:12Z</time>
      </trkpt>
      <trkpt lat="36.7391550" lon="-3.7770480">
        <ele>-10.0</ele>
        <time>2022-01-08T14:42:13Z</time>
      </trkpt>
      <trkpt lat="36.7391380" lon="-3.7770790">
        <ele>-10.0</ele>
        <time>2022-01-08T14:42:14Z</time>
      </trkpt>
      <trkpt lat="36.7391210" lon="-3.7771090">
        <ele>-11.0</ele>
        <time>2022-01-08T14:42:15Z</time>
      </trkpt>
      <trkpt lat="36.7391030" lon="-3.7771350">
        <ele>-11.0</ele>
        <time>2022-01-08T14:42:16Z</time>
      </trkpt>
      <trkpt lat="36.7390870" lon="-3.7771620">
        <ele>-11.0</ele>
        <time>2022-01-08T14:42:17Z</time>
      </trkpt>
      <trkpt lat="36.7390690" lon="-3.7771880">
        <ele>-11.0</ele>
        <time>2022-01-08T14:42:18Z</time>
      </trkpt>
      <trkpt lat="36.7390510" lon="-3.7772160">
        <ele>-11.0</ele>
        <time>2022-01-08T14:42:19Z</time>
      </trkpt>
      <trkpt lat="36.7390340" lon="-3.7772460">
        <ele>-11.0</ele>
        <time>2022-01-08T14:42:20Z</time>
      </trkpt>
      <trkpt lat="36.7390150" lon="-3.7772710">
        <ele>-11.0</ele>
        <time>2022-01-08T14:42:21Z</time>
      </trkpt>
      <trkpt lat="36.7389940" lon="-3.7772940">
        <ele>-12.0</ele>
        <time>2022-01-08T14:42:22Z</time>
      </trkpt>
      <trkpt lat="36.7389700" lon="-3.7773180">
        <ele>-12.0</ele>
        <time>2022-01-08T14:42:23Z</time>
      </trkpt>
      <trkpt lat="36.7389460" lon="-3.7773370">
        <ele>-12.0</ele>
        <time>2022-01-08T14:42:24Z</time>
      </trkpt>
      <trkpt lat="36.7389200" lon="-3.7773500">
        <ele>-13.0</ele>
        <time>2022-01-08T14:42:25Z</time>
      </trkpt>
      <trkpt lat="36.7388940" lon="-3.7773640">
        <ele>-13.0</ele>
        <time>2022-01-08T14:42:26Z</time>
      </trkpt>
      <trkpt lat="36.7388940" lon="-3.7773640">
        <ele>-13.0</ele>
        <time>2022-01-08T14:42:27Z</time>
      </trkpt>
      <trkpt lat="36.7388280" lon="-3.7773950">
        <ele>-13.0</ele>
        <time>2022-01-08T14:42:28Z</time>
      </trkpt>
      <trkpt lat="36.7388150" lon="-3.7774020">
        <ele>-13.0</ele>
        <time>2022-01-08T14:42:29Z</time>
      </trkpt>
      <trkpt lat="36.7387890" lon="-3.7774120">
        <ele>-13.0</ele>
        <time>2022-01-08T14:42:30Z</time>
      </trkpt>
      <trkpt lat="36.7387610" lon="-3.7774220">
        <ele>-14.0</ele>
        <time>2022-01-08T14:42:31Z</time>
      </trkpt>
      <trkpt lat="36.7387310" lon="-3.7774300">
        <ele>-14.0</ele>
        <time>2022-01-08T14:42:32Z</time>
      </trkpt>
      <trkpt lat="36.7387020" lon="-3.7774360">
        <ele>-14.0</ele>
        <time>2022-01-08T14:42:33Z</time>
      </trkpt>
      <trkpt lat="36.7386720" lon="-3.7774390">
        <ele>-15.0</ele>
        <time>2022-01-08T14:42:34Z</time>
      </trkpt>
      <trkpt lat="36.7386720" lon="-3.7774390">
        <ele>-15.0</ele>
        <time>2022-01-08T14:42:35Z</time>
      </trkpt>
      <trkpt lat="36.7386000" lon="-3.7774400">
        <ele>-15.0</ele>
        <time>2022-01-08T14:42:36Z</time>
      </trkpt>
      <trkpt lat="36.7385860" lon="-3.7774390">
        <ele>-14.0</ele>
        <time>2022-01-08T14:42:37Z</time>
      </trkpt>
      <trkpt lat="36.7385590" lon="-3.7774400">
        <ele>-14.0</ele>
        <time>2022-01-08T14:42:38Z</time>
      </trkpt>
      <trkpt lat="36.7385590" lon="-3.7774400">
        <ele>-14.0</ele>
        <time>2022-01-08T14:42:39Z</time>
      </trkpt>
      <trkpt lat="36.7384870" lon="-3.7774260">
        <ele>-14.0</ele>
        <time>2022-01-08T14:42:40Z</time>
      </trkpt>
      <trkpt lat="36.7384730" lon="-3.7774220">
        <ele>-15.0</ele>
        <time>2022-01-08T14:42:41Z</time>
      </trkpt>
      <trkpt lat="36.7384460" lon="-3.7774040">
        <ele>-15.0</ele>
        <time>2022-01-08T14:42:42Z</time>
      </trkpt>
      <trkpt lat="36.7384180" lon="-3.7773920">
        <ele>-16.0</ele>
        <time>2022-01-08T14:42:43Z</time>
      </trkpt>
      <trkpt lat="36.7383910" lon="-3.7773760">
        <ele>-16.0</ele>
        <time>2022-01-08T14:42:44Z</time>
      </trkpt>
      <trkpt lat="36.7383650" lon="-3.7773590">
        <ele>-16.0</ele>
        <time>2022-01-08T14:42:45Z</time>
      </trkpt>
      <trkpt lat="36.7383650" lon="-3.7773590">
        <ele>-16.0</ele>
        <time>2022-01-08T14:42:46Z</time>
      </trkpt>
      <trkpt lat="36.7383110" lon="-3.7773390">
        <ele>-16.0</ele>
        <time>2022-01-08T14:42:47Z</time>
      </trkpt>
      <trkpt lat="36.7383010" lon="-3.7773350">
        <ele>-16.0</ele>
        <time>2022-01-08T14:42:48Z</time>
      </trkpt>
      <trkpt lat="36.7382860" lon="-3.7773200">
        <ele>-16.0</ele>
        <time>2022-01-08T14:42:49Z</time>
      </trkpt>
      <trkpt lat="36.7382760" lon="-3.7772980">
        <ele>-16.0</ele>
        <time>2022-01-08T14:42:50Z</time>
      </trkpt>
      <trkpt lat="36.7382600" lon="-3.7772720">
        <ele>-16.0</ele>
        <time>2022-01-08T14:42:51Z</time>
      </trkpt>
      <trkpt lat="36.7382440" lon="-3.7772520">
        <ele>-16.0</ele>
        <time>2022-01-08T14:42:52Z</time>
      </trkpt>
      <trkpt lat="36.7382310" lon="-3.7772370">
        <ele>-15.0</ele>
        <time>2022-01-08T14:42:53Z</time>
      </trkpt>
      <trkpt lat="36.7382310" lon="-3.7772370">
        <ele>-15.0</ele>
        <time>2022-01-08T14:42:54Z</time>
      </trkpt>
      <trkpt lat="36.7382070" lon="-3.7772090">
        <ele>-15.0</ele>
        <time>2022-01-08T14:42:55Z</time>
      </trkpt>
      <trkpt lat="36.7382070" lon="-3.7772090">
        <ele>-15.0</ele>
        <time>2022-01-08T14:42:56Z</time>
      </trkpt>
      <trkpt lat="36.7381930" lon="-3.7771830">
        <ele>-15.0</ele>
        <time>2022-01-08T14:42:57Z</time>
      </trkpt>
      <trkpt lat="36.7381930" lon="-3.7771830">
        <ele>-15.0</ele>
        <time>2022-01-08T14:42:58Z</time>
      </trkpt>
      <trkpt lat="36.7381730" lon="-3.7771690">
        <ele>-15.0</ele>
        <time>2022-01-08T14:42:59Z</time>
      </trkpt>
      <trkpt lat="36.7381730" lon="-3.7771690">
        <ele>-15.0</ele>
        <time>2022-01-08T14:43:00Z</time>
      </trkpt>
      <trkpt lat="36.7381540" lon="-3.7771540">
        <ele>-15.0</ele>
        <time>2022-01-08T14:43:01Z</time>
      </trkpt>
      <trkpt lat="36.7381540" lon="-3.7771540">
        <ele>-15.0</ele>
        <time>2022-01-08T14:43:02Z</time>
      </trkpt>
      <trkpt lat="36.7381330" lon="-3.7771340">
        <ele>-15.0</ele>
        <time>2022-01-08T14:43:03Z</time>
      </trkpt>
      <trkpt lat="36.7381330" lon="-3.7771340">
        <ele>-15.0</ele>
        <time>2022-01-08T14:43:04Z</time>
      </trkpt>
      <trkpt lat="36.7381160" lon="-3.7771140">
        <ele>-16.0</ele>
        <time>2022-01-08T14:43:05Z</time>
      </trkpt>
      <trkpt lat="36.7381160" lon="-3.7771140">
        <ele>-16.0</ele>
        <time>2022-01-08T14:43:06Z</time>
      </trkpt>
      <trkpt lat="36.7381010" lon="-3.7770950">
        <ele>-16.0</ele>
        <time>2022-01-08T14:43:07Z</time>
      </trkpt>
      <trkpt lat="36.7381010" lon="-3.7770950">
        <ele>-16.0</ele>
        <time>2022-01-08T14:43:08Z</time>
      </trkpt>
      <trkpt lat="36.7380870" lon="-3.7770710">
        <ele>-16.0</ele>
        <time>2022-01-08T14:43:09Z</time>
      </trkpt>
      <trkpt lat="36.7380870" lon="-3.7770710">
        <ele>-16.0</ele>
        <time>2022-01-08T14:43:10Z</time>
      </trkpt>
      <trkpt lat="36.7380710" lon="-3.7770430">
        <ele>-16.0</ele>
        <time>2022-01-08T14:43:11Z</time>
      </trkpt>
      <trkpt lat="36.7380710" lon="-3.7770430">
        <ele>-16.0</ele>
        <time>2022-01-08T14:43:12Z</time>
      </trkpt>
      <trkpt lat="36.7380560" lon="-3.7770170">
        <ele>-16.0</ele>
        <time>2022-01-08T14:43:13Z</time>
      </trkpt>
      <trkpt lat="36.7380560" lon="-3.7770170">
        <ele>-16.0</ele>
        <time>2022-01-08T14:43:14Z</time>
      </trkpt>
      <trkpt lat="36.7380410" lon="-3.7769910">
        <ele>-16.0</ele>
        <time>2022-01-08T14:43:15Z</time>
      </trkpt>
      <trkpt lat="36.7380410" lon="-3.7769910">
        <ele>-16.0</ele>
        <time>2022-01-08T14:43:16Z</time>
      </trkpt>
      <trkpt lat="36.7380230" lon="-3.7769610">
        <ele>-16.0</ele>
        <time>2022-01-08T14:43:17Z</time>
      </trkpt>
      <trkpt lat="36.7380230" lon="-3.7769610">
        <ele>-16.0</ele>
        <time>2022-01-08T14:43:18Z</time>
      </trkpt>
      <trkpt lat="36.7380090" lon="-3.7769320">
        <ele>-16.0</ele>
        <time>2022-01-08T14:43:19Z</time>
      </trkpt>
      <trkpt lat="36.7380090" lon="-3.7769320">
        <ele>-16.0</ele>
        <time>2022-01-08T14:43:20Z</time>
      </trkpt>
      <trkpt lat="36.7380100" lon="-3.7769010">
        <ele>-16.0</ele>
        <time>2022-01-08T14:43:21Z</time>
      </trkpt>
      <trkpt lat="36.7380100" lon="-3.7769010">
        <ele>-16.0</ele>
        <time>2022-01-08T14:43:22Z</time>
      </trkpt>
      <trkpt lat="36.7380100" lon="-3.7768820">
        <ele>-16.0</ele>
        <time>2022-01-08T14:43:23Z</time>
      </trkpt>
      <trkpt lat="36.7380090" lon="-3.7768620">
        <ele>-16.0</ele>
        <time>2022-01-08T14:43:24Z</time>
      </trkpt>
      <trkpt lat="36.7380080" lon="-3.7768430">
        <ele>-17.0</ele>
        <time>2022-01-08T14:43:25Z</time>
      </trkpt>
      <trkpt lat="36.7380070" lon="-3.7768240">
        <ele>-17.0</ele>
        <time>2022-01-08T14:43:26Z</time>
      </trkpt>
      <trkpt lat="36.7380070" lon="-3.7768240">
        <ele>-16.0</ele>
        <time>2022-01-08T14:43:27Z</time>
      </trkpt>
      <trkpt lat="36.7380000" lon="-3.7767990">
        <ele>-16.0</ele>
        <time>2022-01-08T14:43:28Z</time>
      </trkpt>
      <trkpt lat="36.7380000" lon="-3.7767990">
        <ele>-17.0</ele>
        <time>2022-01-08T14:43:29Z</time>
      </trkpt>
      <trkpt lat="36.7379980" lon="-3.7767670">
        <ele>-17.0</ele>
        <time>2022-01-08T14:43:30Z</time>
      </trkpt>
      <trkpt lat="36.7379980" lon="-3.7767670">
        <ele>-17.0</ele>
        <time>2022-01-08T14:43:31Z</time>
      </trkpt>
      <trkpt lat="36.7379890" lon="-3.7767390">
        <ele>-17.0</ele>
        <time>2022-01-08T14:43:32Z</time>
      </trkpt>
      <trkpt lat="36.7379890" lon="-3.7767390">
        <ele>-17.0</ele>
        <time>2022-01-08T14:43:33Z</time>
      </trkpt>
      <trkpt lat="36.7379810" lon="-3.7767030">
        <ele>-17.0</ele>
        <time>2022-01-08T14:43:34Z</time>
      </trkpt>
      <trkpt lat="36.7379810" lon="-3.7767030">
        <ele>-17.0</ele>
        <time>2022-01-08T14:43:35Z</time>
      </trkpt>
      <trkpt lat="36.7379760" lon="-3.7766680">
        <ele>-17.0</ele>
        <time>2022-01-08T14:43:36Z</time>
      </trkpt>
      <trkpt lat="36.7379760" lon="-3.7766680">
        <ele>-17.0</ele>
        <time>2022-01-08T14:43:37Z</time>
      </trkpt>
      <trkpt lat="36.7379570" lon="-3.7766360">
        <ele>-17.0</ele>
        <time>2022-01-08T14:43:38Z</time>
      </trkpt>
      <trkpt lat="36.7379570" lon="-3.7766360">
        <ele>-17.0</ele>
        <time>2022-01-08T14:43:39Z</time>
      </trkpt>
      <trkpt lat="36.7379410" lon="-3.7766060">
        <ele>-17.0</ele>
        <time>2022-01-08T14:43:40Z</time>
      </trkpt>
      <trkpt lat="36.7379410" lon="-3.7766060">
        <ele>-17.0</ele>
        <time>2022-01-08T14:43:41Z</time>
      </trkpt>
      <trkpt lat="36.7379280" lon="-3.7765750">
        <ele>-17.0</ele>
        <time>2022-01-08T14:43:42Z</time>
      </trkpt>
      <trkpt lat="36.7379280" lon="-3.7765750">
        <ele>-17.0</ele>
        <time>2022-01-08T14:43:43Z</time>
      </trkpt>
      <trkpt lat="36.7379220" lon="-3.7765410">
        <ele>-17.0</ele>
        <time>2022-01-08T14:43:44Z</time>
      </trkpt>
      <trkpt lat="36.7379220" lon="-3.7765410">
        <ele>-17.0</ele>
        <time>2022-01-08T14:43:45Z</time>
      </trkpt>
      <trkpt lat="36.7379100" lon="-3.7765090">
        <ele>-17.0</ele>
        <time>2022-01-08T14:43:46Z</time>
      </trkpt>
      <trkpt lat="36.7379100" lon="-3.7765090">
        <ele>-17.0</ele>
        <time>2022-01-08T14:43:47Z</time>
      </trkpt>
      <trkpt lat="36.7379070" lon="-3.7764780">
        <ele>-17.0</ele>
        <time>2022-01-08T14:43:48Z</time>
      </trkpt>
      <trkpt lat="36.7379070" lon="-3.7764500">
        <ele>-17.0</ele>
        <time>2022-01-08T14:43:49Z</time>
      </trkpt>
      <trkpt lat="36.7379080" lon="-3.7764130">
        <ele>-16.0</ele>
        <time>2022-01-08T14:43:50Z</time>
      </trkpt>
      <trkpt lat="36.7379080" lon="-3.7763750">
        <ele>-16.0</ele>
        <time>2022-01-08T14:43:51Z</time>
      </trkpt>
      <trkpt lat="36.7379030" lon="-3.7763430">
        <ele>-16.0</ele>
        <time>2022-01-08T14:43:52Z</time>
      </trkpt>
      <trkpt lat="36.7378930" lon="-3.7763130">
        <ele>-16.0</ele>
        <time>2022-01-08T14:43:53Z</time>
      </trkpt>
      <trkpt lat="36.7378810" lon="-3.7762800">
        <ele>-16.0</ele>
        <time>2022-01-08T14:43:54Z</time>
      </trkpt>
      <trkpt lat="36.7378820" lon="-3.7762500">
        <ele>-16.0</ele>
        <time>2022-01-08T14:43:55Z</time>
      </trkpt>
      <trkpt lat="36.7378850" lon="-3.7762240">
        <ele>-16.0</ele>
        <time>2022-01-08T14:43:56Z</time>
      </trkpt>
      <trkpt lat="36.7378940" lon="-3.7761940">
        <ele>-16.0</ele>
        <time>2022-01-08T14:43:57Z</time>
      </trkpt>
      <trkpt lat="36.7379070" lon="-3.7761710">
        <ele>-16.0</ele>
        <time>2022-01-08T14:43:58Z</time>
      </trkpt>
      <trkpt lat="36.7379260" lon="-3.7761530">
        <ele>-15.0</ele>
        <time>2022-01-08T14:43:59Z</time>
      </trkpt>
      <trkpt lat="36.7379480" lon="-3.7761340">
        <ele>-14.0</ele>
        <time>2022-01-08T14:44:00Z</time>
      </trkpt>
      <trkpt lat="36.7379660" lon="-3.7761120">
        <ele>-14.0</ele>
        <time>2022-01-08T14:44:01Z</time>
      </trkpt>
      <trkpt lat="36.7379660" lon="-3.7761120">
        <ele>-14.0</ele>
        <time>2022-01-08T14:44:02Z</time>
      </trkpt>
      <trkpt lat="36.7380010" lon="-3.7761100">
        <ele>-13.0</ele>
        <time>2022-01-08T14:44:03Z</time>
      </trkpt>
      <trkpt lat="36.7380010" lon="-3.7761100">
        <ele>-13.0</ele>
        <time>2022-01-08T14:44:04Z</time>
      </trkpt>
      <trkpt lat="36.7380300" lon="-3.7761020">
        <ele>-13.0</ele>
        <time>2022-01-08T14:44:05Z</time>
      </trkpt>
      <trkpt lat="36.7380300" lon="-3.7761020">
        <ele>-12.0</ele>
        <time>2022-01-08T14:44:06Z</time>
      </trkpt>
      <trkpt lat="36.7380610" lon="-3.7761080">
        <ele>-12.0</ele>
        <time>2022-01-08T14:44:07Z</time>
      </trkpt>
      <trkpt lat="36.7380790" lon="-3.7761120">
        <ele>-12.0</ele>
        <time>2022-01-08T14:44:08Z</time>
      </trkpt>
      <trkpt lat="36.7380790" lon="-3.7761120">
        <ele>-12.0</ele>
        <time>2022-01-08T14:44:09Z</time>
      </trkpt>
      <trkpt lat="36.7380960" lon="-3.7761230">
        <ele>-12.0</ele>
        <time>2022-01-08T14:44:10Z</time>
      </trkpt>
      <trkpt lat="36.7381130" lon="-3.7761330">
        <ele>-11.0</ele>
        <time>2022-01-08T14:44:11Z</time>
      </trkpt>
      <trkpt lat="36.7381290" lon="-3.7761430">
        <ele>-11.0</ele>
        <time>2022-01-08T14:44:12Z</time>
      </trkpt>
      <trkpt lat="36.7381560" lon="-3.7761580">
        <ele>-11.0</ele>
        <time>2022-01-08T14:44:13Z</time>
      </trkpt>
      <trkpt lat="36.7381560" lon="-3.7761580">
        <ele>-10.0</ele>
        <time>2022-01-08T14:44:14Z</time>
      </trkpt>
      <trkpt lat="36.7381840" lon="-3.7761750">
        <ele>-10.0</ele>
        <time>2022-01-08T14:44:15Z</time>
      </trkpt>
      <trkpt lat="36.7381840" lon="-3.7761750">
        <ele>-9.0</ele>
        <time>2022-01-08T14:44:16Z</time>
      </trkpt>
      <trkpt lat="36.7382060" lon="-3.7761980">
        <ele>-9.0</ele>
        <time>2022-01-08T14:44:17Z</time>
      </trkpt>
      <trkpt lat="36.7382060" lon="-3.7761980">
        <ele>-9.0</ele>
        <time>2022-01-08T14:44:18Z</time>
      </trkpt>
      <trkpt lat="36.7382230" lon="-3.7762220">
        <ele>-9.0</ele>
        <time>2022-01-08T14:44:19Z</time>
      </trkpt>
      <trkpt lat="36.7382230" lon="-3.7762220">
        <ele>-8.0</ele>
        <time>2022-01-08T14:44:20Z</time>
      </trkpt>
      <trkpt lat="36.7382420" lon="-3.7762400">
        <ele>-8.0</ele>
        <time>2022-01-08T14:44:21Z</time>
      </trkpt>
      <trkpt lat="36.7382420" lon="-3.7762400">
        <ele>-8.0</ele>
        <time>2022-01-08T14:44:22Z</time>
      </trkpt>
      <trkpt lat="36.7382590" lon="-3.7762560">
        <ele>-8.0</ele>
        <time>2022-01-08T14:44:23Z</time>
      </trkpt>
      <trkpt lat="36.7382590" lon="-3.7762560">
        <ele>-8.0</ele>
        <time>2022-01-08T14:44:24Z</time>
      </trkpt>
      <trkpt lat="36.7382750" lon="-3.7762730">
        <ele>-8.0</ele>
        <time>2022-01-08T14:44:25Z</time>
      </trkpt>
      <trkpt lat="36.7382750" lon="-3.7762730">
        <ele>-8.0</ele>
        <time>2022-01-08T14:44:26Z</time>
      </trkpt>
      <trkpt lat="36.7382920" lon="-3.7762870">
        <ele>-7.0</ele>
        <time>2022-01-08T14:44:27Z</time>
      </trkpt>
      <trkpt lat="36.7382920" lon="-3.7762870">
        <ele>-7.0</ele>
        <time>2022-01-08T14:44:28Z</time>
      </trkpt>
      <trkpt lat="36.7383130" lon="-3.7763040">
        <ele>-6.0</ele>
        <time>2022-01-08T14:44:29Z</time>
      </trkpt>
      <trkpt lat="36.7383130" lon="-3.7763040">
        <ele>-6.0</ele>
        <time>2022-01-08T14:44:30Z</time>
      </trkpt>
      <trkpt lat="36.7383350" lon="-3.7763160">
        <ele>-6.0</ele>
        <time>2022-01-08T14:44:31Z</time>
      </trkpt>
      <trkpt lat="36.7383350" lon="-3.7763160">
        <ele>-5.0</ele>
        <time>2022-01-08T14:44:32Z</time>
      </trkpt>
      <trkpt lat="36.7383590" lon="-3.7763310">
        <ele>-5.0</ele>
        <time>2022-01-08T14:44:33Z</time>
      </trkpt>
      <trkpt lat="36.7383590" lon="-3.7763310">
        <ele>-5.0</ele>
        <time>2022-01-08T14:44:34Z</time>
      </trkpt>
      <trkpt lat="36.7383810" lon="-3.7763470">
        <ele>-5.0</ele>
        <time>2022-01-08T14:44:35Z</time>
      </trkpt>
      <trkpt lat="36.7383810" lon="-3.7763470">
        <ele>-5.0</ele>
        <time>2022-01-08T14:44:36Z</time>
      </trkpt>
      <trkpt lat="36.7384040" lon="-3.7763630">
        <ele>-5.0</ele>
        <time>2022-01-08T14:44:37Z</time>
      </trkpt>
      <trkpt lat="36.7384040" lon="-3.7763630">
        <ele>-4.0</ele>
        <time>2022-01-08T14:44:38Z</time>
      </trkpt>
      <trkpt lat="36.7384250" lon="-3.7763790">
        <ele>-4.0</ele>
        <time>2022-01-08T14:44:39Z</time>
      </trkpt>
      <trkpt lat="36.7384250" lon="-3.7763790">
        <ele>-4.0</ele>
        <time>2022-01-08T14:44:40Z</time>
      </trkpt>
      <trkpt lat="36.7384450" lon="-3.7763940">
        <ele>-3.0</ele>
        <time>2022-01-08T14:44:41Z</time>
      </trkpt>
      <trkpt lat="36.7384450" lon="-3.7763940">
        <ele>-3.0</ele>
        <time>2022-01-08T14:44:42Z</time>
      </trkpt>
      <trkpt lat="36.7384670" lon="-3.7764050">
        <ele>-3.0</ele>
        <time>2022-01-08T14:44:43Z</time>
      </trkpt>
      <trkpt lat="36.7384670" lon="-3.7764050">
        <ele>-3.0</ele>
        <time>2022-01-08T14:44:44Z</time>
      </trkpt>
      <trkpt lat="36.7384850" lon="-3.7764220">
        <ele>-3.0</ele>
        <time>2022-01-08T14:44:45Z</time>
      </trkpt>
      <trkpt lat="36.7384850" lon="-3.7764220">
        <ele>-3.0</ele>
        <time>2022-01-08T14:44:46Z</time>
      </trkpt>
      <trkpt lat="36.7385050" lon="-3.7764300">
        <ele>-2.0</ele>
        <time>2022-01-08T14:44:47Z</time>
      </trkpt>
      <trkpt lat="36.7385050" lon="-3.7764300">
        <ele>-2.0</ele>
        <time>2022-01-08T14:44:48Z</time>
      </trkpt>
      <trkpt lat="36.7385050" lon="-3.7764300">
        <ele>-1.0</ele>
        <time>2022-01-08T14:44:49Z</time>
      </trkpt>
      <trkpt lat="36.7385320" lon="-3.7764210">
        <ele>-1.0</ele>
        <time>2022-01-08T14:44:50Z</time>
      </trkpt>
      <trkpt lat="36.7385320" lon="-3.7764210">
        <ele>-1.0</ele>
        <time>2022-01-08T14:44:51Z</time>
      </trkpt>
      <trkpt lat="36.7385510" lon="-3.7764080">
        <ele>-1.0</ele>
        <time>2022-01-08T14:44:52Z</time>
      </trkpt>
      <trkpt lat="36.7385510" lon="-3.7764080">
        <ele>0.0</ele>
        <time>2022-01-08T14:44:53Z</time>
      </trkpt>
      <trkpt lat="36.7385510" lon="-3.7764080">
        <ele>0.0</ele>
        <time>2022-01-08T14:44:54Z</time>
      </trkpt>
      <trkpt lat="36.7385510" lon="-3.7764080">
        <ele>1.0</ele>
        <time>2022-01-08T14:44:55Z</time>
      </trkpt>
      <trkpt lat="36.7385770" lon="-3.7764210">
        <ele>1.0</ele>
        <time>2022-01-08T14:44:56Z</time>
      </trkpt>
      <trkpt lat="36.7385960" lon="-3.7764200">
        <ele>1.0</ele>
        <time>2022-01-08T14:44:57Z</time>
      </trkpt>
      <trkpt lat="36.7385960" lon="-3.7764200">
        <ele>1.0</ele>
        <time>2022-01-08T14:44:58Z</time>
      </trkpt>
      <trkpt lat="36.7386160" lon="-3.7764190">
        <ele>2.0</ele>
        <time>2022-01-08T14:44:59Z</time>
      </trkpt>
      <trkpt lat="36.7386160" lon="-3.7764190">
        <ele>2.0</ele>
        <time>2022-01-08T14:45:00Z</time>
      </trkpt>
      <trkpt lat="36.7386380" lon="-3.7764160">
        <ele>2.0</ele>
        <time>2022-01-08T14:45:01Z</time>
      </trkpt>
      <trkpt lat="36.7386380" lon="-3.7764160">
        <ele>2.0</ele>
        <time>2022-01-08T14:45:02Z</time>
      </trkpt>
      <trkpt lat="36.7386590" lon="-3.7764050">
        <ele>3.0</ele>
        <time>2022-01-08T14:45:03Z</time>
      </trkpt>
      <trkpt lat="36.7386590" lon="-3.7764050">
        <ele>3.0</ele>
        <time>2022-01-08T14:45:04Z</time>
      </trkpt>
      <trkpt lat="36.7386780" lon="-3.7763970">
        <ele>3.0</ele>
        <time>2022-01-08T14:45:05Z</time>
      </trkpt>
      <trkpt lat="36.7386780" lon="-3.7763970">
        <ele>3.0</ele>
        <time>2022-01-08T14:45:06Z</time>
      </trkpt>
      <trkpt lat="36.7386910" lon="-3.7763780">
        <ele>4.0</ele>
        <time>2022-01-08T14:45:07Z</time>
      </trkpt>
      <trkpt lat="36.7386910" lon="-3.7763780">
        <ele>4.0</ele>
        <time>2022-01-08T14:45:08Z</time>
      </trkpt>
      <trkpt lat="36.7387060" lon="-3.7763640">
        <ele>4.0</ele>
        <time>2022-01-08T14:45:09Z</time>
      </trkpt>
      <trkpt lat="36.7387060" lon="-3.7763640">
        <ele>5.0</ele>
        <time>2022-01-08T14:45:10Z</time>
      </trkpt>
      <trkpt lat="36.7387170" lon="-3.7763390">
        <ele>6.0</ele>
        <time>2022-01-08T14:45:11Z</time>
      </trkpt>
      <trkpt lat="36.7387170" lon="-3.7763390">
        <ele>6.0</ele>
        <time>2022-01-08T14:45:12Z</time>
      </trkpt>
      <trkpt lat="36.7387270" lon="-3.7763130">
        <ele>6.0</ele>
        <time>2022-01-08T14:45:13Z</time>
      </trkpt>
      <trkpt lat="36.7387270" lon="-3.7763130">
        <ele>6.0</ele>
        <time>2022-01-08T14:45:14Z</time>
      </trkpt>
      <trkpt lat="36.7387250" lon="-3.7762900">
        <ele>7.0</ele>
        <time>2022-01-08T14:45:15Z</time>
      </trkpt>
      <trkpt lat="36.7387250" lon="-3.7762900">
        <ele>7.0</ele>
        <time>2022-01-08T14:45:16Z</time>
      </trkpt>
      <trkpt lat="36.7387250" lon="-3.7762900">
        <ele>7.0</ele>
        <time>2022-01-08T14:45:17Z</time>
      </trkpt>
      <trkpt lat="36.7387080" lon="-3.7762660">
        <ele>7.0</ele>
        <time>2022-01-08T14:45:18Z</time>
      </trkpt>
      <trkpt lat="36.7387080" lon="-3.7762660">
        <ele>7.0</ele>
        <time>2022-01-08T14:45:19Z</time>
      </trkpt>
      <trkpt lat="36.7386890" lon="-3.7762640">
        <ele>8.0</ele>
        <time>2022-01-08T14:45:20Z</time>
      </trkpt>
      <trkpt lat="36.7386890" lon="-3.7762640">
        <ele>8.0</ele>
        <time>2022-01-08T14:45:21Z</time>
      </trkpt>
      <trkpt lat="36.7386720" lon="-3.7762530">
        <ele>8.0</ele>
        <time>2022-01-08T14:45:22Z</time>
      </trkpt>
      <trkpt lat="36.7386720" lon="-3.7762530">
        <ele>8.0</ele>
        <time>2022-01-08T14:45:23Z</time>
      </trkpt>
      <trkpt lat="36.7386560" lon="-3.7762410">
        <ele>9.0</ele>
        <time>2022-01-08T14:45:24Z</time>
      </trkpt>
      <trkpt lat="36.7386560" lon="-3.7762410">
        <ele>10.0</ele>
        <time>2022-01-08T14:45:25Z</time>
      </trkpt>
      <trkpt lat="36.7386400" lon="-3.7762300">
        <ele>10.0</ele>
        <time>2022-01-08T14:45:26Z</time>
      </trkpt>
      <trkpt lat="36.7386400" lon="-3.7762300">
        <ele>10.0</ele>
        <time>2022-01-08T14:45:27Z</time>
      </trkpt>
      <trkpt lat="36.7386180" lon="-3.7762240">
        <ele>10.0</ele>
        <time>2022-01-08T14:45:28Z</time>
      </trkpt>
      <trkpt lat="36.7386180" lon="-3.7762240">
        <ele>11.0</ele>
        <time>2022-01-08T14:45:29Z</time>
      </trkpt>
      <trkpt lat="36.7386180" lon="-3.7762240">
        <ele>11.0</ele>
        <time>2022-01-08T14:45:30Z</time>
      </trkpt>
      <trkpt lat="36.7386180" lon="-3.7762240">
        <ele>11.0</ele>
        <time>2022-01-08T14:45:31Z</time>
      </trkpt>
      <trkpt lat="36.7386180" lon="-3.7762240">
        <ele>11.0</ele>
        <time>2022-01-08T14:45:32Z</time>
      </trkpt>
      <trkpt lat="36.7386180" lon="-3.7762240">
        <ele>12.0</ele>
        <time>2022-01-08T14:45:33Z</time>
      </trkpt>
      <trkpt lat="36.7386180" lon="-3.7762240">
        <ele>12.0</ele>
        <time>2022-01-08T14:45:34Z</time>
      </trkpt>
      <trkpt lat="36.7385970" lon="-3.7762240">
        <ele>12.0</ele>
        <time>2022-01-08T14:45:35Z</time>
      </trkpt>
      <trkpt lat="36.7385970" lon="-3.7762240">
        <ele>12.0</ele>
        <time>2022-01-08T14:45:36Z</time>
      </trkpt>
      <trkpt lat="36.7385970" lon="-3.7762240">
        <ele>13.0</ele>
        <time>2022-01-08T14:45:37Z</time>
      </trkpt>
      <trkpt lat="36.7385710" lon="-3.7762110">
        <ele>13.0</ele>
        <time>2022-01-08T14:45:38Z</time>
      </trkpt>
      <trkpt lat="36.7385710" lon="-3.7762110">
        <ele>13.0</ele>
        <time>2022-01-08T14:45:39Z</time>
      </trkpt>
      <trkpt lat="36.7385530" lon="-3.7762060">
        <ele>13.0</ele>
        <time>2022-01-08T14:45:40Z</time>
      </trkpt>
      <trkpt lat="36.7385530" lon="-3.7762060">
        <ele>13.0</ele>
        <time>2022-01-08T14:45:41Z</time>
      </trkpt>
      <trkpt lat="36.7385350" lon="-3.7762010">
        <ele>13.0</ele>
        <time>2022-01-08T14:45:42Z</time>
      </trkpt>
      <trkpt lat="36.7385350" lon="-3.7762010">
        <ele>13.0</ele>
        <time>2022-01-08T14:45:43Z</time>
      </trkpt>
      <trkpt lat="36.7385150" lon="-3.7762030">
        <ele>13.0</ele>
        <time>2022-01-08T14:45:44Z</time>
      </trkpt>
      <trkpt lat="36.7385150" lon="-3.7762030">
        <ele>13.0</ele>
        <time>2022-01-08T14:45:45Z</time>
      </trkpt>
      <trkpt lat="36.7384880" lon="-3.7762100">
        <ele>14.0</ele>
        <time>2022-01-08T14:45:46Z</time>
      </trkpt>
      <trkpt lat="36.7384880" lon="-3.7762100">
        <ele>14.0</ele>
        <time>2022-01-08T14:45:47Z</time>
      </trkpt>
      <trkpt lat="36.7384620" lon="-3.7762060">
        <ele>14.0</ele>
        <time>2022-01-08T14:45:48Z</time>
      </trkpt>
      <trkpt lat="36.7384620" lon="-3.7762060">
        <ele>14.0</ele>
        <time>2022-01-08T14:45:49Z</time>
      </trkpt>
      <trkpt lat="36.7384320" lon="-3.7762080">
        <ele>14.0</ele>
        <time>2022-01-08T14:45:50Z</time>
      </trkpt>
      <trkpt lat="36.7384320" lon="-3.7762080">
        <ele>15.0</ele>
        <time>2022-01-08T14:45:51Z</time>
      </trkpt>
      <trkpt lat="36.7384010" lon="-3.7762040">
        <ele>15.0</ele>
        <time>2022-01-08T14:45:52Z</time>
      </trkpt>
      <trkpt lat="36.7384010" lon="-3.7762040">
        <ele>15.0</ele>
        <time>2022-01-08T14:45:53Z</time>
      </trkpt>
      <trkpt lat="36.7383730" lon="-3.7761930">
        <ele>15.0</ele>
        <time>2022-01-08T14:45:54Z</time>
      </trkpt>
      <trkpt lat="36.7383730" lon="-3.7761930">
        <ele>15.0</ele>
        <time>2022-01-08T14:45:55Z</time>
      </trkpt>
      <trkpt lat="36.7383480" lon="-3.7761840">
        <ele>16.0</ele>
        <time>2022-01-08T14:45:56Z</time>
      </trkpt>
      <trkpt lat="36.7383480" lon="-3.7761840">
        <ele>16.0</ele>
        <time>2022-01-08T14:45:57Z</time>
      </trkpt>
      <trkpt lat="36.7383240" lon="-3.7761640">
        <ele>16.0</ele>
        <time>2022-01-08T14:45:58Z</time>
      </trkpt>
      <trkpt lat="36.7383240" lon="-3.7761640">
        <ele>17.0</ele>
        <time>2022-01-08T14:45:59Z</time>
      </trkpt>
      <trkpt lat="36.7383000" lon="-3.7761510">
        <ele>17.0</ele>
        <time>2022-01-08T14:46:00Z</time>
      </trkpt>
      <trkpt lat="36.7383000" lon="-3.7761510">
        <ele>17.0</ele>
        <time>2022-01-08T14:46:01Z</time>
      </trkpt>
      <trkpt lat="36.7382740" lon="-3.7761300">
        <ele>18.0</ele>
        <time>2022-01-08T14:46:02Z</time>
      </trkpt>
      <trkpt lat="36.7382740" lon="-3.7761300">
        <ele>18.0</ele>
        <time>2022-01-08T14:46:03Z</time>
      </trkpt>
      <trkpt lat="36.7382430" lon="-3.7761140">
        <ele>18.0</ele>
        <time>2022-01-08T14:46:04Z</time>
      </trkpt>
      <trkpt lat="36.7382430" lon="-3.7761140">
        <ele>18.0</ele>
        <time>2022-01-08T14:46:05Z</time>
      </trkpt>
      <trkpt lat="36.7382120" lon="-3.7760990">
        <ele>18.0</ele>
        <time>2022-01-08T14:46:06Z</time>
      </trkpt>
      <trkpt lat="36.7382120" lon="-3.7760990">
        <ele>18.0</ele>
        <time>2022-01-08T14:46:07Z</time>
      </trkpt>
      <trkpt lat="36.7381830" lon="-3.7760840">
        <ele>18.0</ele>
        <time>2022-01-08T14:46:08Z</time>
      </trkpt>
      <trkpt lat="36.7381830" lon="-3.7760840">
        <ele>18.0</ele>
        <time>2022-01-08T14:46:09Z</time>
      </trkpt>
      <trkpt lat="36.7381530" lon="-3.7760640">
        <ele>18.0</ele>
        <time>2022-01-08T14:46:10Z</time>
      </trkpt>
      <trkpt lat="36.7381530" lon="-3.7760640">
        <ele>18.0</ele>
        <time>2022-01-08T14:46:11Z</time>
      </trkpt>
      <trkpt lat="36.7381310" lon="-3.7760470">
        <ele>18.0</ele>
        <time>2022-01-08T14:46:12Z</time>
      </trkpt>
      <trkpt lat="36.7381310" lon="-3.7760470">
        <ele>18.0</ele>
        <time>2022-01-08T14:46:13Z</time>
      </trkpt>
      <trkpt lat="36.7381040" lon="-3.7760240">
        <ele>18.0</ele>
        <time>2022-01-08T14:46:14Z</time>
      </trkpt>
      <trkpt lat="36.7381040" lon="-3.7760240">
        <ele>18.0</ele>
        <time>2022-01-08T14:46:15Z</time>
      </trkpt>
      <trkpt lat="36.7380840" lon="-3.7760110">
        <ele>18.0</ele>
        <time>2022-01-08T14:46:16Z</time>
      </trkpt>
      <trkpt lat="36.7380840" lon="-3.7760110">
        <ele>18.0</ele>
        <time>2022-01-08T14:46:17Z</time>
      </trkpt>
      <trkpt lat="36.7380640" lon="-3.7759950">
        <ele>18.0</ele>
        <time>2022-01-08T14:46:18Z</time>
      </trkpt>
      <trkpt lat="36.7380640" lon="-3.7759950">
        <ele>18.0</ele>
        <time>2022-01-08T14:46:19Z</time>
      </trkpt>
      <trkpt lat="36.7380400" lon="-3.7759790">
        <ele>18.0</ele>
        <time>2022-01-08T14:46:20Z</time>
      </trkpt>
      <trkpt lat="36.7380260" lon="-3.7759650">
        <ele>18.0</ele>
        <time>2022-01-08T14:46:21Z</time>
      </trkpt>
      <trkpt lat="36.7380260" lon="-3.7759650">
        <ele>18.0</ele>
        <time>2022-01-08T14:46:22Z</time>
      </trkpt>
      <trkpt lat="36.7379980" lon="-3.7759370">
        <ele>18.0</ele>
        <time>2022-01-08T14:46:23Z</time>
      </trkpt>
      <trkpt lat="36.7379830" lon="-3.7759220">
        <ele>18.0</ele>
        <time>2022-01-08T14:46:24Z</time>
      </trkpt>
      <trkpt lat="36.7379830" lon="-3.7759220">
        <ele>18.0</ele>
        <time>2022-01-08T14:46:25Z</time>
      </trkpt>
      <trkpt lat="36.7379640" lon="-3.7759040">
        <ele>18.0</ele>
        <time>2022-01-08T14:46:26Z</time>
      </trkpt>
      <trkpt lat="36.7379640" lon="-3.7759040">
        <ele>19.0</ele>
        <time>2022-01-08T14:46:27Z</time>
      </trkpt>
      <trkpt lat="36.7379470" lon="-3.7758820">
        <ele>19.0</ele>
        <time>2022-01-08T14:46:28Z</time>
      </trkpt>
      <trkpt lat="36.7379470" lon="-3.7758820">
        <ele>19.0</ele>
        <time>2022-01-08T14:46:29Z</time>
      </trkpt>
      <trkpt lat="36.7379300" lon="-3.7758590">
        <ele>19.0</ele>
        <time>2022-01-08T14:46:30Z</time>
      </trkpt>
      <trkpt lat="36.7379300" lon="-3.7758590">
        <ele>19.0</ele>
        <time>2022-01-08T14:46:31Z</time>
      </trkpt>
      <trkpt lat="36.7379170" lon="-3.7758350">
        <ele>19.0</ele>
        <time>2022-01-08T14:46:32Z</time>
      </trkpt>
      <trkpt lat="36.7379170" lon="-3.7758350">
        <ele>19.0</ele>
        <time>2022-01-08T14:46:33Z</time>
      </trkpt>
      <trkpt lat="36.7379170" lon="-3.7758350">
        <ele>19.0</ele>
        <time>2022-01-08T14:46:34Z</time>
      </trkpt>
      <trkpt lat="36.7379080" lon="-3.7758100">
        <ele>20.0</ele>
        <time>2022-01-08T14:46:35Z</time>
      </trkpt>
      <trkpt lat="36.7378970" lon="-3.7757860">
        <ele>20.0</ele>
        <time>2022-01-08T14:46:36Z</time>
      </trkpt>
      <trkpt lat="36.7378970" lon="-3.7757860">
        <ele>21.0</ele>
        <time>2022-01-08T14:46:37Z</time>
      </trkpt>
      <trkpt lat="36.7378970" lon="-3.7757860">
        <ele>21.0</ele>
        <time>2022-01-08T14:46:38Z</time>
      </trkpt>
      <trkpt lat="36.7378970" lon="-3.7757860">
        <ele>21.0</ele>
        <time>2022-01-08T14:46:39Z</time>
      </trkpt>
      <trkpt lat="36.7378970" lon="-3.7757860">
        <ele>21.0</ele>
        <time>2022-01-08T14:46:40Z</time>
      </trkpt>
      <trkpt lat="36.7379070" lon="-3.7757620">
        <ele>21.0</ele>
        <time>2022-01-08T14:46:41Z</time>
      </trkpt>
      <trkpt lat="36.7379070" lon="-3.7757620">
        <ele>21.0</ele>
        <time>2022-01-08T14:46:42Z</time>
      </trkpt>
      <trkpt lat="36.7379070" lon="-3.7757620">
        <ele>21.0</ele>
        <time>2022-01-08T14:46:43Z</time>
      </trkpt>
      <trkpt lat="36.7379240" lon="-3.7757370">
        <ele>21.0</ele>
        <time>2022-01-08T14:46:44Z</time>
      </trkpt>
      <trkpt lat="36.7379240" lon="-3.7757370">
        <ele>22.0</ele>
        <time>2022-01-08T14:46:45Z</time>
      </trkpt>
      <trkpt lat="36.7379370" lon="-3.7757150">
        <ele>22.0</ele>
        <time>2022-01-08T14:46:46Z</time>
      </trkpt>
      <trkpt lat="36.7379370" lon="-3.7757150">
        <ele>22.0</ele>
        <time>2022-01-08T14:46:47Z</time>
      </trkpt>
      <trkpt lat="36.7379550" lon="-3.7756940">
        <ele>22.0</ele>
        <time>2022-01-08T14:46:48Z</time>
      </trkpt>
      <trkpt lat="36.7379550" lon="-3.7756940">
        <ele>22.0</ele>
        <time>2022-01-08T14:46:49Z</time>
      </trkpt>
      <trkpt lat="36.7379730" lon="-3.7756720">
        <ele>23.0</ele>
        <time>2022-01-08T14:46:50Z</time>
      </trkpt>
      <trkpt lat="36.7379730" lon="-3.7756720">
        <ele>23.0</ele>
        <time>2022-01-08T14:46:51Z</time>
      </trkpt>
      <trkpt lat="36.7379900" lon="-3.7756530">
        <ele>23.0</ele>
        <time>2022-01-08T14:46:52Z</time>
      </trkpt>
      <trkpt lat="36.7379900" lon="-3.7756530">
        <ele>23.0</ele>
        <time>2022-01-08T14:46:53Z</time>
      </trkpt>
      <trkpt lat="36.7380070" lon="-3.7756270">
        <ele>23.0</ele>
        <time>2022-01-08T14:46:54Z</time>
      </trkpt>
      <trkpt lat="36.7380070" lon="-3.7756270">
        <ele>23.0</ele>
        <time>2022-01-08T14:46:55Z</time>
      </trkpt>
      <trkpt lat="36.7380140" lon="-3.7755910">
        <ele>24.0</ele>
        <time>2022-01-08T14:46:56Z</time>
      </trkpt>
      <trkpt lat="36.7380140" lon="-3.7755910">
        <ele>24.0</ele>
        <time>2022-01-08T14:46:57Z</time>
      </trkpt>
      <trkpt lat="36.7380200" lon="-3.7755500">
        <ele>24.0</ele>
        <time>2022-01-08T14:46:58Z</time>
      </trkpt>
      <trkpt lat="36.7380200" lon="-3.7755500">
        <ele>24.0</ele>
        <time>2022-01-08T14:46:59Z</time>
      </trkpt>
      <trkpt lat="36.7380240" lon="-3.7755230">
        <ele>24.0</ele>
        <time>2022-01-08T14:47:00Z</time>
      </trkpt>
      <trkpt lat="36.7380240" lon="-3.7755230">
        <ele>24.0</ele>
        <time>2022-01-08T14:47:01Z</time>
      </trkpt>
      <trkpt lat="36.7380260" lon="-3.7754950">
        <ele>24.0</ele>
        <time>2022-01-08T14:47:02Z</time>
      </trkpt>
      <trkpt lat="36.7380260" lon="-3.7754950">
        <ele>24.0</ele>
        <time>2022-01-08T14:47:03Z</time>
      </trkpt>
      <trkpt lat="36.7380280" lon="-3.7754610">
        <ele>24.0</ele>
        <time>2022-01-08T14:47:04Z</time>
      </trkpt>
      <trkpt lat="36.7380280" lon="-3.7754610">
        <ele>24.0</ele>
        <time>2022-01-08T14:47:05Z</time>
      </trkpt>
      <trkpt lat="36.7380330" lon="-3.7754280">
        <ele>25.0</ele>
        <time>2022-01-08T14:47:06Z</time>
      </trkpt>
      <trkpt lat="36.7380330" lon="-3.7754280">
        <ele>25.0</ele>
        <time>2022-01-08T14:47:07Z</time>
      </trkpt>
      <trkpt lat="36.7380370" lon="-3.7753980">
        <ele>25.0</ele>
        <time>2022-01-08T14:47:08Z</time>
      </trkpt>
      <trkpt lat="36.7380370" lon="-3.7753980">
        <ele>26.0</ele>
        <time>2022-01-08T14:47:09Z</time>
      </trkpt>
      <trkpt lat="36.7380460" lon="-3.7753680">
        <ele>26.0</ele>
        <time>2022-01-08T14:47:10Z</time>
      </trkpt>
      <trkpt lat="36.7380460" lon="-3.7753680">
        <ele>26.0</ele>
        <time>2022-01-08T14:47:11Z</time>
      </trkpt>
      <trkpt lat="36.7380570" lon="-3.7753310">
        <ele>26.0</ele>
        <time>2022-01-08T14:47:12Z</time>
      </trkpt>
      <trkpt lat="36.7380570" lon="-3.7753310">
        <ele>27.0</ele>
        <time>2022-01-08T14:47:13Z</time>
      </trkpt>
      <trkpt lat="36.7380650" lon="-3.7753020">
        <ele>27.0</ele>
        <time>2022-01-08T14:47:14Z</time>
      </trkpt>
      <trkpt lat="36.7380650" lon="-3.7753020">
        <ele>27.0</ele>
        <time>2022-01-08T14:47:15Z</time>
      </trkpt>
      <trkpt lat="36.7380800" lon="-3.7752810">
        <ele>28.0</ele>
        <time>2022-01-08T14:47:16Z</time>
      </trkpt>
      <trkpt lat="36.7380800" lon="-3.7752810">
        <ele>28.0</ele>
        <time>2022-01-08T14:47:17Z</time>
      </trkpt>
      <trkpt lat="36.7380930" lon="-3.7752530">
        <ele>29.0</ele>
        <time>2022-01-08T14:47:18Z</time>
      </trkpt>
      <trkpt lat="36.7380930" lon="-3.7752530">
        <ele>29.0</ele>
        <time>2022-01-08T14:47:19Z</time>
      </trkpt>
      <trkpt lat="36.7381030" lon="-3.7752270">
        <ele>29.0</ele>
        <time>2022-01-08T14:47:20Z</time>
      </trkpt>
      <trkpt lat="36.7381030" lon="-3.7752270">
        <ele>30.0</ele>
        <time>2022-01-08T14:47:21Z</time>
      </trkpt>
      <trkpt lat="36.7381150" lon="-3.7752070">
        <ele>30.0</ele>
        <time>2022-01-08T14:47:22Z</time>
      </trkpt>
      <trkpt lat="36.7381150" lon="-3.7752070">
        <ele>31.0</ele>
        <time>2022-01-08T14:47:23Z</time>
      </trkpt>
      <trkpt lat="36.7381280" lon="-3.7751860">
        <ele>31.0</ele>
        <time>2022-01-08T14:47:24Z</time>
      </trkpt>
      <trkpt lat="36.7381280" lon="-3.7751860">
        <ele>31.0</ele>
        <time>2022-01-08T14:47:25Z</time>
      </trkpt>
      <trkpt lat="36.7381350" lon="-3.7751660">
        <ele>31.0</ele>
        <time>2022-01-08T14:47:26Z</time>
      </trkpt>
      <trkpt lat="36.7381350" lon="-3.7751660">
        <ele>31.0</ele>
        <time>2022-01-08T14:47:27Z</time>
      </trkpt>
      <trkpt lat="36.7381350" lon="-3.7751660">
        <ele>31.0</ele>
        <time>2022-01-08T14:47:28Z</time>
      </trkpt>
      <trkpt lat="36.7381570" lon="-3.7751370">
        <ele>32.0</ele>
        <time>2022-01-08T14:47:29Z</time>
      </trkpt>
      <trkpt lat="36.7381570" lon="-3.7751370">
        <ele>32.0</ele>
        <time>2022-01-08T14:47:30Z</time>
      </trkpt>
      <trkpt lat="36.7381730" lon="-3.7751160">
        <ele>33.0</ele>
        <time>2022-01-08T14:47:31Z</time>
      </trkpt>
      <trkpt lat="36.7381730" lon="-3.7751160">
        <ele>33.0</ele>
        <time>2022-01-08T14:47:32Z</time>
      </trkpt>
      <trkpt lat="36.7381800" lon="-3.7750920">
        <ele>33.0</ele>
        <time>2022-01-08T14:47:33Z</time>
      </trkpt>
      <trkpt lat="36.7381800" lon="-3.7750920">
        <ele>34.0</ele>
        <time>2022-01-08T14:47:34Z</time>
      </trkpt>
      <trkpt lat="36.7381900" lon="-3.7750660">
        <ele>34.0</ele>
        <time>2022-01-08T14:47:35Z</time>
      </trkpt>
      <trkpt lat="36.7381900" lon="-3.7750660">
        <ele>34.0</ele>
        <time>2022-01-08T14:47:36Z</time>
      </trkpt>
      <trkpt lat="36.7381920" lon="-3.7750420">
        <ele>34.0</ele>
        <time>2022-01-08T14:47:37Z</time>
      </trkpt>
      <trkpt lat="36.7381920" lon="-3.7750420">
        <ele>34.0</ele>
        <time>2022-01-08T14:47:38Z</time>
      </trkpt>
      <trkpt lat="36.7381960" lon="-3.7750170">
        <ele>34.0</ele>
        <time>2022-01-08T14:47:39Z</time>
      </trkpt>
      <trkpt lat="36.7381960" lon="-3.7750170">
        <ele>34.0</ele>
        <time>2022-01-08T14:47:40Z</time>
      </trkpt>
      <trkpt lat="36.7381960" lon="-3.7750170">
        <ele>34.0</ele>
        <time>2022-01-08T14:47:41Z</time>
      </trkpt>
      <trkpt lat="36.7382070" lon="-3.7749970">
        <ele>34.0</ele>
        <time>2022-01-08T14:47:42Z</time>
      </trkpt>
      <trkpt lat="36.7382070" lon="-3.7749970">
        <ele>34.0</ele>
        <time>2022-01-08T14:47:43Z</time>
      </trkpt>
      <trkpt lat="36.7382200" lon="-3.7749770">
        <ele>34.0</ele>
        <time>2022-01-08T14:47:44Z</time>
      </trkpt>
      <trkpt lat="36.7382200" lon="-3.7749770">
        <ele>34.0</ele>
        <time>2022-01-08T14:47:45Z</time>
      </trkpt>
      <trkpt lat="36.7382290" lon="-3.7749510">
        <ele>35.0</ele>
        <time>2022-01-08T14:47:46Z</time>
      </trkpt>
      <trkpt lat="36.7382290" lon="-3.7749510">
        <ele>35.0</ele>
        <time>2022-01-08T14:47:47Z</time>
      </trkpt>
      <trkpt lat="36.7382390" lon="-3.7749280">
        <ele>36.0</ele>
        <time>2022-01-08T14:47:48Z</time>
      </trkpt>
      <trkpt lat="36.7382390" lon="-3.7749280">
        <ele>36.0</ele>
        <time>2022-01-08T14:47:49Z</time>
      </trkpt>
      <trkpt lat="36.7382570" lon="-3.7749110">
        <ele>37.0</ele>
        <time>2022-01-08T14:47:50Z</time>
      </trkpt>
      <trkpt lat="36.7382570" lon="-3.7749110">
        <ele>37.0</ele>
        <time>2022-01-08T14:47:51Z</time>
      </trkpt>
      <trkpt lat="36.7382570" lon="-3.7749110">
        <ele>37.0</ele>
        <time>2022-01-08T14:47:52Z</time>
      </trkpt>
      <trkpt lat="36.7382740" lon="-3.7748860">
        <ele>37.0</ele>
        <time>2022-01-08T14:47:53Z</time>
      </trkpt>
      <trkpt lat="36.7382740" lon="-3.7748860">
        <ele>38.0</ele>
        <time>2022-01-08T14:47:54Z</time>
      </trkpt>
      <trkpt lat="36.7382860" lon="-3.7748670">
        <ele>38.0</ele>
        <time>2022-01-08T14:47:55Z</time>
      </trkpt>
      <trkpt lat="36.7382860" lon="-3.7748670">
        <ele>38.0</ele>
        <time>2022-01-08T14:47:56Z</time>
      </trkpt>
      <trkpt lat="36.7382990" lon="-3.7748430">
        <ele>38.0</ele>
        <time>2022-01-08T14:47:57Z</time>
      </trkpt>
      <trkpt lat="36.7382990" lon="-3.7748430">
        <ele>39.0</ele>
        <time>2022-01-08T14:47:58Z</time>
      </trkpt>
      <trkpt lat="36.7383080" lon="-3.7748190">
        <ele>39.0</ele>
        <time>2022-01-08T14:47:59Z</time>
      </trkpt>
      <trkpt lat="36.7383080" lon="-3.7748190">
        <ele>39.0</ele>
        <time>2022-01-08T14:48:00Z</time>
      </trkpt>
      <trkpt lat="36.7383140" lon="-3.7748070">
        <ele>40.0</ele>
        <time>2022-01-08T14:48:01Z</time>
      </trkpt>
      <trkpt lat="36.7383210" lon="-3.7747960">
        <ele>40.0</ele>
        <time>2022-01-08T14:48:02Z</time>
      </trkpt>
      <trkpt lat="36.7383270" lon="-3.7747850">
        <ele>40.0</ele>
        <time>2022-01-08T14:48:03Z</time>
      </trkpt>
      <trkpt lat="36.7383330" lon="-3.7747730">
        <ele>40.0</ele>
        <time>2022-01-08T14:48:04Z</time>
      </trkpt>
      <trkpt lat="36.7383390" lon="-3.7747620">
        <ele>41.0</ele>
        <time>2022-01-08T14:48:05Z</time>
      </trkpt>
      <trkpt lat="36.7383450" lon="-3.7747510">
        <ele>41.0</ele>
        <time>2022-01-08T14:48:06Z</time>
      </trkpt>
      <trkpt lat="36.7383510" lon="-3.7747390">
        <ele>41.0</ele>
        <time>2022-01-08T14:48:07Z</time>
      </trkpt>
      <trkpt lat="36.7383570" lon="-3.7747310">
        <ele>42.0</ele>
        <time>2022-01-08T14:48:08Z</time>
      </trkpt>
      <trkpt lat="36.7383640" lon="-3.7747220">
        <ele>42.0</ele>
        <time>2022-01-08T14:48:09Z</time>
      </trkpt>
      <trkpt lat="36.7383700" lon="-3.7747130">
        <ele>42.0</ele>
        <time>2022-01-08T14:48:10Z</time>
      </trkpt>
      <trkpt lat="36.7383760" lon="-3.7747040">
        <ele>42.0</ele>
        <time>2022-01-08T14:48:11Z</time>
      </trkpt>
      <trkpt lat="36.7383820" lon="-3.7746950">
        <ele>42.0</ele>
        <time>2022-01-08T14:48:12Z</time>
      </trkpt>
      <trkpt lat="36.7383880" lon="-3.7746860">
        <ele>42.0</ele>
        <time>2022-01-08T14:48:13Z</time>
      </trkpt>
      <trkpt lat="36.7383940" lon="-3.7746770">
        <ele>43.0</ele>
        <time>2022-01-08T14:48:14Z</time>
      </trkpt>
      <trkpt lat="36.7384000" lon="-3.7746680">
        <ele>43.0</ele>
        <time>2022-01-08T14:48:15Z</time>
      </trkpt>
      <trkpt lat="36.7384120" lon="-3.7746490">
        <ele>43.0</ele>
        <time>2022-01-08T14:48:16Z</time>
      </trkpt>
      <trkpt lat="36.7384120" lon="-3.7746490">
        <ele>44.0</ele>
        <time>2022-01-08T14:48:17Z</time>
      </trkpt>
      <trkpt lat="36.7384200" lon="-3.7746400">
        <ele>44.0</ele>
        <time>2022-01-08T14:48:18Z</time>
      </trkpt>
      <trkpt lat="36.7384270" lon="-3.7746310">
        <ele>44.0</ele>
        <time>2022-01-08T14:48:19Z</time>
      </trkpt>
      <trkpt lat="36.7384340" lon="-3.7746220">
        <ele>44.0</ele>
        <time>2022-01-08T14:48:20Z</time>
      </trkpt>
      <trkpt lat="36.7384420" lon="-3.7746120">
        <ele>44.0</ele>
        <time>2022-01-08T14:48:21Z</time>
      </trkpt>
      <trkpt lat="36.7384490" lon="-3.7746030">
        <ele>44.0</ele>
        <time>2022-01-08T14:48:22Z</time>
      </trkpt>
      <trkpt lat="36.7384560" lon="-3.7745940">
        <ele>45.0</ele>
        <time>2022-01-08T14:48:23Z</time>
      </trkpt>
      <trkpt lat="36.7384640" lon="-3.7745850">
        <ele>45.0</ele>
        <time>2022-01-08T14:48:24Z</time>
      </trkpt>
      <trkpt lat="36.7384710" lon="-3.7745760">
        <ele>46.0</ele>
        <time>2022-01-08T14:48:25Z</time>
      </trkpt>
      <trkpt lat="36.7384780" lon="-3.7745670">
        <ele>46.0</ele>
        <time>2022-01-08T14:48:26Z</time>
      </trkpt>
      <trkpt lat="36.7384830" lon="-3.7745540">
        <ele>46.0</ele>
        <time>2022-01-08T14:48:27Z</time>
      </trkpt>
      <trkpt lat="36.7384880" lon="-3.7745400">
        <ele>46.0</ele>
        <time>2022-01-08T14:48:28Z</time>
      </trkpt>
      <trkpt lat="36.7384930" lon="-3.7745260">
        <ele>46.0</ele>
        <time>2022-01-08T14:48:29Z</time>
      </trkpt>
      <trkpt lat="36.7384980" lon="-3.7745120">
        <ele>46.0</ele>
        <time>2022-01-08T14:48:30Z</time>
      </trkpt>
      <trkpt lat="36.7385030" lon="-3.7744980">
        <ele>46.0</ele>
        <time>2022-01-08T14:48:31Z</time>
      </trkpt>
      <trkpt lat="36.7385080" lon="-3.7744840">
        <ele>47.0</ele>
        <time>2022-01-08T14:48:32Z</time>
      </trkpt>
      <trkpt lat="36.7385120" lon="-3.7744700">
        <ele>47.0</ele>
        <time>2022-01-08T14:48:33Z</time>
      </trkpt>
      <trkpt lat="36.7385170" lon="-3.7744560">
        <ele>48.0</ele>
        <time>2022-01-08T14:48:34Z</time>
      </trkpt>
      <trkpt lat="36.7385150" lon="-3.7744490">
        <ele>48.0</ele>
        <time>2022-01-08T14:48:35Z</time>
      </trkpt>
      <trkpt lat="36.7385120" lon="-3.7744410">
        <ele>48.0</ele>
        <time>2022-01-08T14:48:36Z</time>
      </trkpt>
      <trkpt lat="36.7385100" lon="-3.7744340">
        <ele>48.0</ele>
        <time>2022-01-08T14:48:37Z</time>
      </trkpt>
      <trkpt lat="36.7385080" lon="-3.7744260">
        <ele>49.0</ele>
        <time>2022-01-08T14:48:38Z</time>
      </trkpt>
      <trkpt lat="36.7385050" lon="-3.7744180">
        <ele>49.0</ele>
        <time>2022-01-08T14:48:39Z</time>
      </trkpt>
      <trkpt lat="36.7385030" lon="-3.7744110">
        <ele>50.0</ele>
        <time>2022-01-08T14:48:40Z</time>
      </trkpt>
      <trkpt lat="36.7385010" lon="-3.7744030">
        <ele>50.0</ele>
        <time>2022-01-08T14:48:41Z</time>
      </trkpt>
      <trkpt lat="36.7384980" lon="-3.7743960">
        <ele>51.0</ele>
        <time>2022-01-08T14:48:42Z</time>
      </trkpt>
      <trkpt lat="36.7384960" lon="-3.7743880">
        <ele>51.0</ele>
        <time>2022-01-08T14:48:43Z</time>
      </trkpt>
      <trkpt lat="36.7384930" lon="-3.7743800">
        <ele>51.0</ele>
        <time>2022-01-08T14:48:44Z</time>
      </trkpt>
      <trkpt lat="36.7384840" lon="-3.7743850">
        <ele>51.0</ele>
        <time>2022-01-08T14:48:45Z</time>
      </trkpt>
      <trkpt lat="36.7384740" lon="-3.7743890">
        <ele>51.0</ele>
        <time>2022-01-08T14:48:46Z</time>
      </trkpt>
      <trkpt lat="36.7384640" lon="-3.7743940">
        <ele>51.0</ele>
        <time>2022-01-08T14:48:47Z</time>
      </trkpt>
      <trkpt lat="36.7384550" lon="-3.7743980">
        <ele>51.0</ele>
        <time>2022-01-08T14:48:48Z</time>
      </trkpt>
      <trkpt lat="36.7384450" lon="-3.7744030">
        <ele>51.0</ele>
        <time>2022-01-08T14:48:49Z</time>
      </trkpt>
      <trkpt lat="36.7384210" lon="-3.7744330">
        <ele>52.0</ele>
        <time>2022-01-08T14:48:50Z</time>
      </trkpt>
      <trkpt lat="36.7384210" lon="-3.7744330">
        <ele>52.0</ele>
        <time>2022-01-08T14:48:51Z</time>
      </trkpt>
      <trkpt lat="36.7384050" lon="-3.7744490">
        <ele>52.0</ele>
        <time>2022-01-08T14:48:52Z</time>
      </trkpt>
      <trkpt lat="36.7384050" lon="-3.7744490">
        <ele>52.0</ele>
        <time>2022-01-08T14:48:53Z</time>
      </trkpt>
      <trkpt lat="36.7383820" lon="-3.7744600">
        <ele>53.0</ele>
        <time>2022-01-08T14:48:54Z</time>
      </trkpt>
      <trkpt lat="36.7383820" lon="-3.7744600">
        <ele>53.0</ele>
        <time>2022-01-08T14:48:55Z</time>
      </trkpt>
      <trkpt lat="36.7383670" lon="-3.7744760">
        <ele>53.0</ele>
        <time>2022-01-08T14:48:56Z</time>
      </trkpt>
      <trkpt lat="36.7383670" lon="-3.7744760">
        <ele>54.0</ele>
        <time>2022-01-08T14:48:57Z</time>
      </trkpt>
      <trkpt lat="36.7383420" lon="-3.7744820">
        <ele>54.0</ele>
        <time>2022-01-08T14:48:58Z</time>
      </trkpt>
      <trkpt lat="36.7383420" lon="-3.7744820">
        <ele>54.0</ele>
        <time>2022-01-08T14:48:59Z</time>
      </trkpt>
      <trkpt lat="36.7383150" lon="-3.7744820">
        <ele>55.0</ele>
        <time>2022-01-08T14:49:00Z</time>
      </trkpt>
      <trkpt lat="36.7383150" lon="-3.7744820">
        <ele>55.0</ele>
        <time>2022-01-08T14:49:01Z</time>
      </trkpt>
      <trkpt lat="36.7382950" lon="-3.7744860">
        <ele>55.0</ele>
        <time>2022-01-08T14:49:02Z</time>
      </trkpt>
      <trkpt lat="36.7382950" lon="-3.7744860">
        <ele>55.0</ele>
        <time>2022-01-08T14:49:03Z</time>
      </trkpt>
      <trkpt lat="36.7382740" lon="-3.7744990">
        <ele>56.0</ele>
        <time>2022-01-08T14:49:04Z</time>
      </trkpt>
      <trkpt lat="36.7382740" lon="-3.7744990">
        <ele>56.0</ele>
        <time>2022-01-08T14:49:05Z</time>
      </trkpt>
      <trkpt lat="36.7382530" lon="-3.7745080">
        <ele>56.0</ele>
        <time>2022-01-08T14:49:06Z</time>
      </trkpt>
      <trkpt lat="36.7382530" lon="-3.7745080">
        <ele>56.0</ele>
        <time>2022-01-08T14:49:07Z</time>
      </trkpt>
      <trkpt lat="36.7382320" lon="-3.7745130">
        <ele>56.0</ele>
        <time>2022-01-08T14:49:08Z</time>
      </trkpt>
      <trkpt lat="36.7382320" lon="-3.7745130">
        <ele>57.0</ele>
        <time>2022-01-08T14:49:09Z</time>
      </trkpt>
      <trkpt lat="36.7382100" lon="-3.7745120">
        <ele>57.0</ele>
        <time>2022-01-08T14:49:10Z</time>
      </trkpt>
      <trkpt lat="36.7382100" lon="-3.7745120">
        <ele>58.0</ele>
        <time>2022-01-08T14:49:11Z</time>
      </trkpt>
      <trkpt lat="36.7381850" lon="-3.7745110">
        <ele>58.0</ele>
        <time>2022-01-08T14:49:12Z</time>
      </trkpt>
      <trkpt lat="36.7381850" lon="-3.7745110">
        <ele>58.0</ele>
        <time>2022-01-08T14:49:13Z</time>
      </trkpt>
      <trkpt lat="36.7381620" lon="-3.7745010">
        <ele>58.0</ele>
        <time>2022-01-08T14:49:14Z</time>
      </trkpt>
      <trkpt lat="36.7381620" lon="-3.7745010">
        <ele>59.0</ele>
        <time>2022-01-08T14:49:15Z</time>
      </trkpt>
      <trkpt lat="36.7381450" lon="-3.7744840">
        <ele>59.0</ele>
        <time>2022-01-08T14:49:16Z</time>
      </trkpt>
      <trkpt lat="36.7381450" lon="-3.7744840">
        <ele>59.0</ele>
        <time>2022-01-08T14:49:17Z</time>
      </trkpt>
      <trkpt lat="36.7381290" lon="-3.7744600">
        <ele>59.0</ele>
        <time>2022-01-08T14:49:18Z</time>
      </trkpt>
      <trkpt lat="36.7381290" lon="-3.7744600">
        <ele>60.0</ele>
        <time>2022-01-08T14:49:19Z</time>
      </trkpt>
      <trkpt lat="36.7381180" lon="-3.7744320">
        <ele>60.0</ele>
        <time>2022-01-08T14:49:20Z</time>
      </trkpt>
      <trkpt lat="36.7381180" lon="-3.7744320">
        <ele>60.0</ele>
        <time>2022-01-08T14:49:21Z</time>
      </trkpt>
      <trkpt lat="36.7381080" lon="-3.7744030">
        <ele>61.0</ele>
        <time>2022-01-08T14:49:22Z</time>
      </trkpt>
      <trkpt lat="36.7381080" lon="-3.7744030">
        <ele>61.0</ele>
        <time>2022-01-08T14:49:23Z</time>
      </trkpt>
      <trkpt lat="36.7381050" lon="-3.7743690">
        <ele>61.0</ele>
        <time>2022-01-08T14:49:24Z</time>
      </trkpt>
      <trkpt lat="36.7381050" lon="-3.7743690">
        <ele>61.0</ele>
        <time>2022-01-08T14:49:25Z</time>
      </trkpt>
      <trkpt lat="36.7381000" lon="-3.7743410">
        <ele>62.0</ele>
        <time>2022-01-08T14:49:26Z</time>
      </trkpt>
      <trkpt lat="36.7381000" lon="-3.7743410">
        <ele>62.0</ele>
        <time>2022-01-08T14:49:27Z</time>
      </trkpt>
      <trkpt lat="36.7381000" lon="-3.7743150">
        <ele>63.0</ele>
        <time>2022-01-08T14:49:28Z</time>
      </trkpt>
      <trkpt lat="36.7381000" lon="-3.7743150">
        <ele>63.0</ele>
        <time>2022-01-08T14:49:29Z</time>
      </trkpt>
      <trkpt lat="36.7380970" lon="-3.7742980">
        <ele>64.0</ele>
        <time>2022-01-08T14:49:30Z</time>
      </trkpt>
      <trkpt lat="36.7380940" lon="-3.7742800">
        <ele>64.0</ele>
        <time>2022-01-08T14:49:31Z</time>
      </trkpt>
      <trkpt lat="36.7380910" lon="-3.7742630">
        <ele>64.0</ele>
        <time>2022-01-08T14:49:32Z</time>
      </trkpt>
      <trkpt lat="36.7380880" lon="-3.7742460">
        <ele>64.0</ele>
        <time>2022-01-08T14:49:33Z</time>
      </trkpt>
      <trkpt lat="36.7380850" lon="-3.7742290">
        <ele>64.0</ele>
        <time>2022-01-08T14:49:34Z</time>
      </trkpt>
      <trkpt lat="36.7380820" lon="-3.7742110">
        <ele>64.0</ele>
        <time>2022-01-08T14:49:35Z</time>
      </trkpt>
      <trkpt lat="36.7380790" lon="-3.7741940">
        <ele>64.0</ele>
        <time>2022-01-08T14:49:36Z</time>
      </trkpt>
      <trkpt lat="36.7380780" lon="-3.7741780">
        <ele>64.0</ele>
        <time>2022-01-08T14:49:37Z</time>
      </trkpt>
      <trkpt lat="36.7380770" lon="-3.7741620">
        <ele>65.0</ele>
        <time>2022-01-08T14:49:38Z</time>
      </trkpt>
      <trkpt lat="36.7380750" lon="-3.7741460">
        <ele>65.0</ele>
        <time>2022-01-08T14:49:39Z</time>
      </trkpt>
      <trkpt lat="36.7380740" lon="-3.7741290">
        <ele>65.0</ele>
        <time>2022-01-08T14:49:40Z</time>
      </trkpt>
      <trkpt lat="36.7380730" lon="-3.7741130">
        <ele>66.0</ele>
        <time>2022-01-08T14:49:41Z</time>
      </trkpt>
      <trkpt lat="36.7380710" lon="-3.7740970">
        <ele>66.0</ele>
        <time>2022-01-08T14:49:42Z</time>
      </trkpt>
      <trkpt lat="36.7380700" lon="-3.7740810">
        <ele>66.0</ele>
        <time>2022-01-08T14:49:43Z</time>
      </trkpt>
      <trkpt lat="36.7380680" lon="-3.7740650">
        <ele>66.0</ele>
        <time>2022-01-08T14:49:44Z</time>
      </trkpt>
      <trkpt lat="36.7380730" lon="-3.7740460">
        <ele>67.0</ele>
        <time>2022-01-08T14:49:45Z</time>
      </trkpt>
      <trkpt lat="36.7380770" lon="-3.7740280">
        <ele>67.0</ele>
        <time>2022-01-08T14:49:46Z</time>
      </trkpt>
      <trkpt lat="36.7380810" lon="-3.7740090">
        <ele>67.0</ele>
        <time>2022-01-08T14:49:47Z</time>
      </trkpt>
      <trkpt lat="36.7380860" lon="-3.7739910">
        <ele>67.0</ele>
        <time>2022-01-08T14:49:48Z</time>
      </trkpt>
      <trkpt lat="36.7380900" lon="-3.7739720">
        <ele>68.0</ele>
        <time>2022-01-08T14:49:49Z</time>
      </trkpt>
      <trkpt lat="36.7380940" lon="-3.7739540">
        <ele>68.0</ele>
        <time>2022-01-08T14:49:50Z</time>
      </trkpt>
      <trkpt lat="36.7380950" lon="-3.7739380">
        <ele>68.0</ele>
        <time>2022-01-08T14:49:51Z</time>
      </trkpt>
      <trkpt lat="36.7380950" lon="-3.7739210">
        <ele>68.0</ele>
        <time>2022-01-08T14:49:52Z</time>
      </trkpt>
      <trkpt lat="36.7380950" lon="-3.7739050">
        <ele>68.0</ele>
        <time>2022-01-08T14:49:53Z</time>
      </trkpt>
      <trkpt lat="36.7380950" lon="-3.7738880">
        <ele>68.0</ele>
        <time>2022-01-08T14:49:54Z</time>
      </trkpt>
      <trkpt lat="36.7380960" lon="-3.7738720">
        <ele>68.0</ele>
        <time>2022-01-08T14:49:55Z</time>
      </trkpt>
      <trkpt lat="36.7380960" lon="-3.7738560">
        <ele>68.0</ele>
        <time>2022-01-08T14:49:56Z</time>
      </trkpt>
      <trkpt lat="36.7380960" lon="-3.7738390">
        <ele>68.0</ele>
        <time>2022-01-08T14:49:57Z</time>
      </trkpt>
      <trkpt lat="36.7380960" lon="-3.7738230">
        <ele>68.0</ele>
        <time>2022-01-08T14:49:58Z</time>
      </trkpt>
      <trkpt lat="36.7380980" lon="-3.7738060">
        <ele>69.0</ele>
        <time>2022-01-08T14:49:59Z</time>
      </trkpt>
      <trkpt lat="36.7381000" lon="-3.7737900">
        <ele>69.0</ele>
        <time>2022-01-08T14:50:00Z</time>
      </trkpt>
      <trkpt lat="36.7381020" lon="-3.7737730">
        <ele>69.0</ele>
        <time>2022-01-08T14:50:01Z</time>
      </trkpt>
      <trkpt lat="36.7381030" lon="-3.7737570">
        <ele>69.0</ele>
        <time>2022-01-08T14:50:02Z</time>
      </trkpt>
      <trkpt lat="36.7381050" lon="-3.7737400">
        <ele>69.0</ele>
        <time>2022-01-08T14:50:03Z</time>
      </trkpt>
      <trkpt lat="36.7381070" lon="-3.7737240">
        <ele>70.0</ele>
        <time>2022-01-08T14:50:04Z</time>
      </trkpt>
      <trkpt lat="36.7381080" lon="-3.7737070">
        <ele>70.0</ele>
        <time>2022-01-08T14:50:05Z</time>
      </trkpt>
      <trkpt lat="36.7381130" lon="-3.7736900">
        <ele>71.0</ele>
        <time>2022-01-08T14:50:06Z</time>
      </trkpt>
      <trkpt lat="36.7381180" lon="-3.7736720">
        <ele>71.0</ele>
        <time>2022-01-08T14:50:07Z</time>
      </trkpt>
      <trkpt lat="36.7381230" lon="-3.7736540">
        <ele>71.0</ele>
        <time>2022-01-08T14:50:08Z</time>
      </trkpt>
      <trkpt lat="36.7381280" lon="-3.7736370">
        <ele>71.0</ele>
        <time>2022-01-08T14:50:09Z</time>
      </trkpt>
      <trkpt lat="36.7381330" lon="-3.7736190">
        <ele>71.0</ele>
        <time>2022-01-08T14:50:10Z</time>
      </trkpt>
      <trkpt lat="36.7381380" lon="-3.7736020">
        <ele>71.0</ele>
        <time>2022-01-08T14:50:11Z</time>
      </trkpt>
      <trkpt lat="36.7381430" lon="-3.7735840">
        <ele>71.0</ele>
        <time>2022-01-08T14:50:12Z</time>
      </trkpt>
      <trkpt lat="36.7381490" lon="-3.7735700">
        <ele>72.0</ele>
        <time>2022-01-08T14:50:13Z</time>
      </trkpt>
      <trkpt lat="36.7381550" lon="-3.7735550">
        <ele>72.0</ele>
        <time>2022-01-08T14:50:14Z</time>
      </trkpt>
      <trkpt lat="36.7381620" lon="-3.7735400">
        <ele>72.0</ele>
        <time>2022-01-08T14:50:15Z</time>
      </trkpt>
      <trkpt lat="36.7381680" lon="-3.7735260">
        <ele>72.0</ele>
        <time>2022-01-08T14:50:16Z</time>
      </trkpt>
      <trkpt lat="36.7381750" lon="-3.7735110">
        <ele>72.0</ele>
        <time>2022-01-08T14:50:17Z</time>
      </trkpt>
      <trkpt lat="36.7381810" lon="-3.7734970">
        <ele>73.0</ele>
        <time>2022-01-08T14:50:18Z</time>
      </trkpt>
      <trkpt lat="36.7381880" lon="-3.7734820">
        <ele>74.0</ele>
        <time>2022-01-08T14:50:19Z</time>
      </trkpt>
      <trkpt lat="36.7381880" lon="-3.7734820">
        <ele>74.0</ele>
        <time>2022-01-08T14:50:20Z</time>
      </trkpt>
      <trkpt lat="36.7382010" lon="-3.7734390">
        <ele>74.0</ele>
        <time>2022-01-08T14:50:21Z</time>
      </trkpt>
      <trkpt lat="36.7382010" lon="-3.7734390">
        <ele>74.0</ele>
        <time>2022-01-08T14:50:22Z</time>
      </trkpt>
      <trkpt lat="36.7382010" lon="-3.7734390">
        <ele>75.0</ele>
        <time>2022-01-08T14:50:23Z</time>
      </trkpt>
      <trkpt lat="36.7382200" lon="-3.7734130">
        <ele>75.0</ele>
        <time>2022-01-08T14:50:24Z</time>
      </trkpt>
      <trkpt lat="36.7382200" lon="-3.7734130">
        <ele>75.0</ele>
        <time>2022-01-08T14:50:25Z</time>
      </trkpt>
      <trkpt lat="36.7382250" lon="-3.7734020">
        <ele>76.0</ele>
        <time>2022-01-08T14:50:26Z</time>
      </trkpt>
      <trkpt lat="36.7382290" lon="-3.7733900">
        <ele>76.0</ele>
        <time>2022-01-08T14:50:27Z</time>
      </trkpt>
      <trkpt lat="36.7382330" lon="-3.7733790">
        <ele>76.0</ele>
        <time>2022-01-08T14:50:28Z</time>
      </trkpt>
      <trkpt lat="36.7382370" lon="-3.7733680">
        <ele>76.0</ele>
        <time>2022-01-08T14:50:29Z</time>
      </trkpt>
      <trkpt lat="36.7382410" lon="-3.7733560">
        <ele>76.0</ele>
        <time>2022-01-08T14:50:30Z</time>
      </trkpt>
      <trkpt lat="36.7382450" lon="-3.7733450">
        <ele>76.0</ele>
        <time>2022-01-08T14:50:31Z</time>
      </trkpt>
      <trkpt lat="36.7382450" lon="-3.7733450">
        <ele>77.0</ele>
        <time>2022-01-08T14:50:32Z</time>
      </trkpt>
      <trkpt lat="36.7382690" lon="-3.7733220">
        <ele>77.0</ele>
        <time>2022-01-08T14:50:33Z</time>
      </trkpt>
      <trkpt lat="36.7382840" lon="-3.7733070">
        <ele>77.0</ele>
        <time>2022-01-08T14:50:34Z</time>
      </trkpt>
      <trkpt lat="36.7382840" lon="-3.7733070">
        <ele>77.0</ele>
        <time>2022-01-08T14:50:35Z</time>
      </trkpt>
      <trkpt lat="36.7383030" lon="-3.7732810">
        <ele>78.0</ele>
        <time>2022-01-08T14:50:36Z</time>
      </trkpt>
      <trkpt lat="36.7383030" lon="-3.7732810">
        <ele>79.0</ele>
        <time>2022-01-08T14:50:37Z</time>
      </trkpt>
      <trkpt lat="36.7383080" lon="-3.7732720">
        <ele>79.0</ele>
        <time>2022-01-08T14:50:38Z</time>
      </trkpt>
      <trkpt lat="36.7383130" lon="-3.7732620">
        <ele>79.0</ele>
        <time>2022-01-08T14:50:39Z</time>
      </trkpt>
      <trkpt lat="36.7383180" lon="-3.7732530">
        <ele>80.0</ele>
        <time>2022-01-08T14:50:40Z</time>
      </trkpt>
      <trkpt lat="36.7383230" lon="-3.7732430">
        <ele>80.0</ele>
        <time>2022-01-08T14:50:41Z</time>
      </trkpt>
      <trkpt lat="36.7383280" lon="-3.7732340">
        <ele>80.0</ele>
        <time>2022-01-08T14:50:42Z</time>
      </trkpt>
      <trkpt lat="36.7383330" lon="-3.7732250">
        <ele>80.0</ele>
        <time>2022-01-08T14:50:43Z</time>
      </trkpt>
      <trkpt lat="36.7383380" lon="-3.7732150">
        <ele>81.0</ele>
        <time>2022-01-08T14:50:44Z</time>
      </trkpt>
      <trkpt lat="36.7383460" lon="-3.7732020">
        <ele>81.0</ele>
        <time>2022-01-08T14:50:45Z</time>
      </trkpt>
      <trkpt lat="36.7383540" lon="-3.7731890">
        <ele>81.0</ele>
        <time>2022-01-08T14:50:46Z</time>
      </trkpt>
      <trkpt lat="36.7383610" lon="-3.7731760">
        <ele>81.0</ele>
        <time>2022-01-08T14:50:47Z</time>
      </trkpt>
      <trkpt lat="36.7383690" lon="-3.7731630">
        <ele>81.0</ele>
        <time>2022-01-08T14:50:48Z</time>
      </trkpt>
      <trkpt lat="36.7383760" lon="-3.7731500">
        <ele>81.0</ele>
        <time>2022-01-08T14:50:49Z</time>
      </trkpt>
      <trkpt lat="36.7383840" lon="-3.7731370">
        <ele>82.0</ele>
        <time>2022-01-08T14:50:50Z</time>
      </trkpt>
      <trkpt lat="36.7383910" lon="-3.7731240">
        <ele>83.0</ele>
        <time>2022-01-08T14:50:51Z</time>
      </trkpt>
      <trkpt lat="36.7383990" lon="-3.7731110">
        <ele>83.0</ele>
        <time>2022-01-08T14:50:52Z</time>
      </trkpt>
      <trkpt lat="36.7384000" lon="-3.7730970">
        <ele>83.0</ele>
        <time>2022-01-08T14:50:53Z</time>
      </trkpt>
      <trkpt lat="36.7384010" lon="-3.7730820">
        <ele>83.0</ele>
        <time>2022-01-08T14:50:54Z</time>
      </trkpt>
      <trkpt lat="36.7384020" lon="-3.7730680">
        <ele>84.0</ele>
        <time>2022-01-08T14:50:55Z</time>
      </trkpt>
      <trkpt lat="36.7384040" lon="-3.7730540">
        <ele>84.0</ele>
        <time>2022-01-08T14:50:56Z</time>
      </trkpt>
      <trkpt lat="36.7384050" lon="-3.7730400">
        <ele>85.0</ele>
        <time>2022-01-08T14:50:57Z</time>
      </trkpt>
      <trkpt lat="36.7384060" lon="-3.7730250">
        <ele>85.0</ele>
        <time>2022-01-08T14:50:58Z</time>
      </trkpt>
      <trkpt lat="36.7384080" lon="-3.7730110">
        <ele>85.0</ele>
        <time>2022-01-08T14:50:59Z</time>
      </trkpt>
      <trkpt lat="36.7384090" lon="-3.7729970">
        <ele>85.0</ele>
        <time>2022-01-08T14:51:00Z</time>
      </trkpt>
      <trkpt lat="36.7384100" lon="-3.7729820">
        <ele>85.0</ele>
        <time>2022-01-08T14:51:01Z</time>
      </trkpt>
      <trkpt lat="36.7384120" lon="-3.7729700">
        <ele>85.0</ele>
        <time>2022-01-08T14:51:02Z</time>
      </trkpt>
      <trkpt lat="36.7384140" lon="-3.7729570">
        <ele>85.0</ele>
        <time>2022-01-08T14:51:03Z</time>
      </trkpt>
      <trkpt lat="36.7384160" lon="-3.7729440">
        <ele>85.0</ele>
        <time>2022-01-08T14:51:04Z</time>
      </trkpt>
      <trkpt lat="36.7384170" lon="-3.7729310">
        <ele>86.0</ele>
        <time>2022-01-08T14:51:05Z</time>
      </trkpt>
      <trkpt lat="36.7384190" lon="-3.7729180">
        <ele>87.0</ele>
        <time>2022-01-08T14:51:06Z</time>
      </trkpt>
      <trkpt lat="36.7384210" lon="-3.7729060">
        <ele>87.0</ele>
        <time>2022-01-08T14:51:07Z</time>
      </trkpt>
      <trkpt lat="36.7384230" lon="-3.7728930">
        <ele>87.0</ele>
        <time>2022-01-08T14:51:08Z</time>
      </trkpt>
      <trkpt lat="36.7384250" lon="-3.7728800">
        <ele>91.0</ele>
        <time>2022-01-08T14:51:09Z</time>
      </trkpt>
      <trkpt lat="36.7384260" lon="-3.7728670">
        <ele>91.0</ele>
        <time>2022-01-08T14:51:10Z</time>
      </trkpt>
      <trkpt lat="36.7384170" lon="-3.7728550">
        <ele>91.0</ele>
        <time>2022-01-08T14:51:11Z</time>
      </trkpt>
      <trkpt lat="36.7384070" lon="-3.7728440">
        <ele>92.0</ele>
        <time>2022-01-08T14:51:12Z</time>
      </trkpt>
      <trkpt lat="36.7383970" lon="-3.7728320">
        <ele>92.0</ele>
        <time>2022-01-08T14:51:13Z</time>
      </trkpt>
      <trkpt lat="36.7383870" lon="-3.7728200">
        <ele>92.0</ele>
        <time>2022-01-08T14:51:14Z</time>
      </trkpt>
      <trkpt lat="36.7383780" lon="-3.7728080">
        <ele>92.0</ele>
        <time>2022-01-08T14:51:15Z</time>
      </trkpt>
      <trkpt lat="36.7383680" lon="-3.7727960">
        <ele>92.0</ele>
        <time>2022-01-08T14:51:16Z</time>
      </trkpt>
      <trkpt lat="36.7383580" lon="-3.7727840">
        <ele>92.0</ele>
        <time>2022-01-08T14:51:17Z</time>
      </trkpt>
      <trkpt lat="36.7383410" lon="-3.7727870">
        <ele>92.0</ele>
        <time>2022-01-08T14:51:18Z</time>
      </trkpt>
      <trkpt lat="36.7383250" lon="-3.7727900">
        <ele>92.0</ele>
        <time>2022-01-08T14:51:19Z</time>
      </trkpt>
      <trkpt lat="36.7383080" lon="-3.7727930">
        <ele>93.0</ele>
        <time>2022-01-08T14:51:20Z</time>
      </trkpt>
      <trkpt lat="36.7382910" lon="-3.7727960">
        <ele>93.0</ele>
        <time>2022-01-08T14:51:21Z</time>
      </trkpt>
      <trkpt lat="36.7382740" lon="-3.7727990">
        <ele>93.0</ele>
        <time>2022-01-08T14:51:22Z</time>
      </trkpt>
      <trkpt lat="36.7382570" lon="-3.7728020">
        <ele>94.0</ele>
        <time>2022-01-08T14:51:23Z</time>
      </trkpt>
      <trkpt lat="36.7382490" lon="-3.7728060">
        <ele>94.0</ele>
        <time>2022-01-08T14:51:24Z</time>
      </trkpt>
      <trkpt lat="36.7382410" lon="-3.7728090">
        <ele>95.0</ele>
        <time>2022-01-08T14:51:25Z</time>
      </trkpt>
      <trkpt lat="36.7382330" lon="-3.7728130">
        <ele>95.0</ele>
        <time>2022-01-08T14:51:26Z</time>
      </trkpt>
      <trkpt lat="36.7382240" lon="-3.7728170">
        <ele>96.0</ele>
        <time>2022-01-08T14:51:27Z</time>
      </trkpt>
      <trkpt lat="36.7382160" lon="-3.7728200">
        <ele>96.0</ele>
        <time>2022-01-08T14:51:28Z</time>
      </trkpt>
      <trkpt lat="36.7381900" lon="-3.7728160">
        <ele>96.0</ele>
        <time>2022-01-08T14:51:29Z</time>
      </trkpt>
      <trkpt lat="36.7381900" lon="-3.7728160">
        <ele>96.0</ele>
        <time>2022-01-08T14:51:30Z</time>
      </trkpt>
      <trkpt lat="36.7381810" lon="-3.7728090">
        <ele>96.0</ele>
        <time>2022-01-08T14:51:31Z</time>
      </trkpt>
      <trkpt lat="36.7381720" lon="-3.7728010">
        <ele>96.0</ele>
        <time>2022-01-08T14:51:32Z</time>
      </trkpt>
      <trkpt lat="36.7381630" lon="-3.7727940">
        <ele>96.0</ele>
        <time>2022-01-08T14:51:33Z</time>
      </trkpt>
      <trkpt lat="36.7381540" lon="-3.7727860">
        <ele>97.0</ele>
        <time>2022-01-08T14:51:34Z</time>
      </trkpt>
      <trkpt lat="36.7381450" lon="-3.7727790">
        <ele>98.0</ele>
        <time>2022-01-08T14:51:35Z</time>
      </trkpt>
      <trkpt lat="36.7381360" lon="-3.7727710">
        <ele>98.0</ele>
        <time>2022-01-08T14:51:36Z</time>
      </trkpt>
      <trkpt lat="36.7381270" lon="-3.7727630">
        <ele>98.0</ele>
        <time>2022-01-08T14:51:37Z</time>
      </trkpt>
      <trkpt lat="36.7381170" lon="-3.7727560">
        <ele>99.0</ele>
        <time>2022-01-08T14:51:38Z</time>
      </trkpt>
      <trkpt lat="36.7381080" lon="-3.7727480">
        <ele>99.0</ele>
        <time>2022-01-08T14:51:39Z</time>
      </trkpt>
      <trkpt lat="36.7380960" lon="-3.7727340">
        <ele>99.0</ele>
        <time>2022-01-08T14:51:40Z</time>
      </trkpt>
      <trkpt lat="36.7380850" lon="-3.7727190">
        <ele>99.0</ele>
        <time>2022-01-08T14:51:41Z</time>
      </trkpt>
      <trkpt lat="36.7380730" lon="-3.7727050">
        <ele>99.0</ele>
        <time>2022-01-08T14:51:42Z</time>
      </trkpt>
      <trkpt lat="36.7380610" lon="-3.7726900">
        <ele>99.0</ele>
        <time>2022-01-08T14:51:43Z</time>
      </trkpt>
      <trkpt lat="36.7380490" lon="-3.7726760">
        <ele>100.0</ele>
        <time>2022-01-08T14:51:44Z</time>
      </trkpt>
      <trkpt lat="36.7380370" lon="-3.7726610">
        <ele>100.0</ele>
        <time>2022-01-08T14:51:45Z</time>
      </trkpt>
      <trkpt lat="36.7380310" lon="-3.7726480">
        <ele>100.0</ele>
        <time>2022-01-08T14:51:46Z</time>
      </trkpt>
      <trkpt lat="36.7380250" lon="-3.7726350">
        <ele>100.0</ele>
        <time>2022-01-08T14:51:47Z</time>
      </trkpt>
      <trkpt lat="36.7380190" lon="-3.7726220">
        <ele>100.0</ele>
        <time>2022-01-08T14:51:48Z</time>
      </trkpt>
      <trkpt lat="36.7380130" lon="-3.7726090">
        <ele>101.0</ele>
        <time>2022-01-08T14:51:49Z</time>
      </trkpt>
      <trkpt lat="36.7380070" lon="-3.7725960">
        <ele>102.0</ele>
        <time>2022-01-08T14:51:50Z</time>
      </trkpt>
      <trkpt lat="36.7380010" lon="-3.7725830">
        <ele>103.0</ele>
        <time>2022-01-08T14:51:51Z</time>
      </trkpt>
      <trkpt lat="36.7379940" lon="-3.7725690">
        <ele>103.0</ele>
        <time>2022-01-08T14:51:52Z</time>
      </trkpt>
      <trkpt lat="36.7379880" lon="-3.7725560">
        <ele>103.0</ele>
        <time>2022-01-08T14:51:53Z</time>
      </trkpt>
      <trkpt lat="36.7379730" lon="-3.7725440">
        <ele>103.0</ele>
        <time>2022-01-08T14:51:54Z</time>
      </trkpt>
      <trkpt lat="36.7379580" lon="-3.7725320">
        <ele>103.0</ele>
        <time>2022-01-08T14:51:55Z</time>
      </trkpt>
      <trkpt lat="36.7379430" lon="-3.7725190">
        <ele>103.0</ele>
        <time>2022-01-08T14:51:56Z</time>
      </trkpt>
      <trkpt lat="36.7379280" lon="-3.7725070">
        <ele>103.0</ele>
        <time>2022-01-08T14:51:57Z</time>
      </trkpt>
      <trkpt lat="36.7379130" lon="-3.7724950">
        <ele>104.0</ele>
        <time>2022-01-08T14:51:58Z</time>
      </trkpt>
      <trkpt lat="36.7378980" lon="-3.7724820">
        <ele>104.0</ele>
        <time>2022-01-08T14:51:59Z</time>
      </trkpt>
      <trkpt lat="36.7378790" lon="-3.7724820">
        <ele>105.0</ele>
        <time>2022-01-08T14:52:00Z</time>
      </trkpt>
      <trkpt lat="36.7378610" lon="-3.7724820">
        <ele>105.0</ele>
        <time>2022-01-08T14:52:01Z</time>
      </trkpt>
      <trkpt lat="36.7378420" lon="-3.7724820">
        <ele>105.0</ele>
        <time>2022-01-08T14:52:02Z</time>
      </trkpt>
      <trkpt lat="36.7378230" lon="-3.7724820">
        <ele>105.0</ele>
        <time>2022-01-08T14:52:03Z</time>
      </trkpt>
      <trkpt lat="36.7378050" lon="-3.7724820">
        <ele>105.0</ele>
        <time>2022-01-08T14:52:04Z</time>
      </trkpt>
      <trkpt lat="36.7377940" lon="-3.7724920">
        <ele>105.0</ele>
        <time>2022-01-08T14:52:05Z</time>
      </trkpt>
      <trkpt lat="36.7377840" lon="-3.7725020">
        <ele>105.0</ele>
        <time>2022-01-08T14:52:06Z</time>
      </trkpt>
      <trkpt lat="36.7377740" lon="-3.7725110">
        <ele>105.0</ele>
        <time>2022-01-08T14:52:07Z</time>
      </trkpt>
      <trkpt lat="36.7377630" lon="-3.7725210">
        <ele>105.0</ele>
        <time>2022-01-08T14:52:08Z</time>
      </trkpt>
      <trkpt lat="36.7377530" lon="-3.7725300">
        <ele>105.0</ele>
        <time>2022-01-08T14:52:09Z</time>
      </trkpt>
      <trkpt lat="36.7377420" lon="-3.7725400">
        <ele>106.0</ele>
        <time>2022-01-08T14:52:10Z</time>
      </trkpt>
      <trkpt lat="36.7377320" lon="-3.7725500">
        <ele>106.0</ele>
        <time>2022-01-08T14:52:11Z</time>
      </trkpt>
      <trkpt lat="36.7377060" lon="-3.7725730">
        <ele>107.0</ele>
        <time>2022-01-08T14:52:12Z</time>
      </trkpt>
      <trkpt lat="36.7377060" lon="-3.7725730">
        <ele>107.0</ele>
        <time>2022-01-08T14:52:13Z</time>
      </trkpt>
      <trkpt lat="36.7376850" lon="-3.7726030">
        <ele>107.0</ele>
        <time>2022-01-08T14:52:14Z</time>
      </trkpt>
      <trkpt lat="36.7376850" lon="-3.7726030">
        <ele>108.0</ele>
        <time>2022-01-08T14:52:15Z</time>
      </trkpt>
      <trkpt lat="36.7376850" lon="-3.7726030">
        <ele>108.0</ele>
        <time>2022-01-08T14:52:16Z</time>
      </trkpt>
      <trkpt lat="36.7376690" lon="-3.7726300">
        <ele>108.0</ele>
        <time>2022-01-08T14:52:17Z</time>
      </trkpt>
      <trkpt lat="36.7376540" lon="-3.7726720">
        <ele>108.0</ele>
        <time>2022-01-08T14:52:18Z</time>
      </trkpt>
      <trkpt lat="36.7376540" lon="-3.7726720">
        <ele>109.0</ele>
        <time>2022-01-08T14:52:19Z</time>
      </trkpt>
      <trkpt lat="36.7376450" lon="-3.7727140">
        <ele>109.0</ele>
        <time>2022-01-08T14:52:20Z</time>
      </trkpt>
      <trkpt lat="36.7376450" lon="-3.7727140">
        <ele>109.0</ele>
        <time>2022-01-08T14:52:21Z</time>
      </trkpt>
      <trkpt lat="36.7376440" lon="-3.7727510">
        <ele>109.0</ele>
        <time>2022-01-08T14:52:22Z</time>
      </trkpt>
      <trkpt lat="36.7376440" lon="-3.7727510">
        <ele>109.0</ele>
        <time>2022-01-08T14:52:23Z</time>
      </trkpt>
      <trkpt lat="36.7376380" lon="-3.7727760">
        <ele>110.0</ele>
        <time>2022-01-08T14:52:24Z</time>
      </trkpt>
      <trkpt lat="36.7376380" lon="-3.7727760">
        <ele>110.0</ele>
        <time>2022-01-08T14:52:25Z</time>
      </trkpt>
      <trkpt lat="36.7376240" lon="-3.7728030">
        <ele>110.0</ele>
        <time>2022-01-08T14:52:26Z</time>
      </trkpt>
      <trkpt lat="36.7376240" lon="-3.7728030">
        <ele>110.0</ele>
        <time>2022-01-08T14:52:27Z</time>
      </trkpt>
      <trkpt lat="36.7376190" lon="-3.7728400">
        <ele>111.0</ele>
        <time>2022-01-08T14:52:28Z</time>
      </trkpt>
      <trkpt lat="36.7376190" lon="-3.7728400">
        <ele>111.0</ele>
        <time>2022-01-08T14:52:29Z</time>
      </trkpt>
      <trkpt lat="36.7376230" lon="-3.7728720">
        <ele>111.0</ele>
        <time>2022-01-08T14:52:30Z</time>
      </trkpt>
      <trkpt lat="36.7376230" lon="-3.7728720">
        <ele>111.0</ele>
        <time>2022-01-08T14:52:31Z</time>
      </trkpt>
      <trkpt lat="36.7376170" lon="-3.7729050">
        <ele>111.0</ele>
        <time>2022-01-08T14:52:32Z</time>
      </trkpt>
      <trkpt lat="36.7376170" lon="-3.7729050">
        <ele>111.0</ele>
        <time>2022-01-08T14:52:33Z</time>
      </trkpt>
      <trkpt lat="36.7376180" lon="-3.7729350">
        <ele>111.0</ele>
        <time>2022-01-08T14:52:34Z</time>
      </trkpt>
      <trkpt lat="36.7376180" lon="-3.7729350">
        <ele>111.0</ele>
        <time>2022-01-08T14:52:35Z</time>
      </trkpt>
      <trkpt lat="36.7376160" lon="-3.7729600">
        <ele>111.0</ele>
        <time>2022-01-08T14:52:36Z</time>
      </trkpt>
      <trkpt lat="36.7376160" lon="-3.7729600">
        <ele>111.0</ele>
        <time>2022-01-08T14:52:37Z</time>
      </trkpt>
      <trkpt lat="36.7376130" lon="-3.7729840">
        <ele>112.0</ele>
        <time>2022-01-08T14:52:38Z</time>
      </trkpt>
      <trkpt lat="36.7376130" lon="-3.7729840">
        <ele>112.0</ele>
        <time>2022-01-08T14:52:39Z</time>
      </trkpt>
      <trkpt lat="36.7376130" lon="-3.7730200">
        <ele>113.0</ele>
        <time>2022-01-08T14:52:40Z</time>
      </trkpt>
      <trkpt lat="36.7376130" lon="-3.7730200">
        <ele>113.0</ele>
        <time>2022-01-08T14:52:41Z</time>
      </trkpt>
      <trkpt lat="36.7376060" lon="-3.7730540">
        <ele>113.0</ele>
        <time>2022-01-08T14:52:42Z</time>
      </trkpt>
      <trkpt lat="36.7376060" lon="-3.7730540">
        <ele>113.0</ele>
        <time>2022-01-08T14:52:43Z</time>
      </trkpt>
      <trkpt lat="36.7375940" lon="-3.7730880">
        <ele>113.0</ele>
        <time>2022-01-08T14:52:44Z</time>
      </trkpt>
      <trkpt lat="36.7375940" lon="-3.7730880">
        <ele>113.0</ele>
        <time>2022-01-08T14:52:45Z</time>
      </trkpt>
      <trkpt lat="36.7375920" lon="-3.7731060">
        <ele>113.0</ele>
        <time>2022-01-08T14:52:46Z</time>
      </trkpt>
      <trkpt lat="36.7375910" lon="-3.7731240">
        <ele>114.0</ele>
        <time>2022-01-08T14:52:47Z</time>
      </trkpt>
      <trkpt lat="36.7375900" lon="-3.7731420">
        <ele>114.0</ele>
        <time>2022-01-08T14:52:48Z</time>
      </trkpt>
      <trkpt lat="36.7375920" lon="-3.7731710">
        <ele>114.0</ele>
        <time>2022-01-08T14:52:49Z</time>
      </trkpt>
      <trkpt lat="36.7375920" lon="-3.7731710">
        <ele>114.0</ele>
        <time>2022-01-08T14:52:50Z</time>
      </trkpt>
      <trkpt lat="36.7375970" lon="-3.7732000">
        <ele>115.0</ele>
        <time>2022-01-08T14:52:51Z</time>
      </trkpt>
      <trkpt lat="36.7375970" lon="-3.7732000">
        <ele>115.0</ele>
        <time>2022-01-08T14:52:52Z</time>
      </trkpt>
      <trkpt lat="36.7376050" lon="-3.7732380">
        <ele>115.0</ele>
        <time>2022-01-08T14:52:53Z</time>
      </trkpt>
      <trkpt lat="36.7376050" lon="-3.7732380">
        <ele>116.0</ele>
        <time>2022-01-08T14:52:54Z</time>
      </trkpt>
      <trkpt lat="36.7376090" lon="-3.7732730">
        <ele>116.0</ele>
        <time>2022-01-08T14:52:55Z</time>
      </trkpt>
      <trkpt lat="36.7376090" lon="-3.7732730">
        <ele>116.0</ele>
        <time>2022-01-08T14:52:56Z</time>
      </trkpt>
      <trkpt lat="36.7376190" lon="-3.7733140">
        <ele>117.0</ele>
        <time>2022-01-08T14:52:57Z</time>
      </trkpt>
      <trkpt lat="36.7376190" lon="-3.7733140">
        <ele>117.0</ele>
        <time>2022-01-08T14:52:58Z</time>
      </trkpt>
      <trkpt lat="36.7376300" lon="-3.7733510">
        <ele>117.0</ele>
        <time>2022-01-08T14:52:59Z</time>
      </trkpt>
      <trkpt lat="36.7376300" lon="-3.7733510">
        <ele>118.0</ele>
        <time>2022-01-08T14:53:00Z</time>
      </trkpt>
      <trkpt lat="36.7376260" lon="-3.7733880">
        <ele>118.0</ele>
        <time>2022-01-08T14:53:01Z</time>
      </trkpt>
      <trkpt lat="36.7376260" lon="-3.7733880">
        <ele>118.0</ele>
        <time>2022-01-08T14:53:02Z</time>
      </trkpt>
      <trkpt lat="36.7376140" lon="-3.7734170">
        <ele>118.0</ele>
        <time>2022-01-08T14:53:03Z</time>
      </trkpt>
      <trkpt lat="36.7376140" lon="-3.7734170">
        <ele>118.0</ele>
        <time>2022-01-08T14:53:04Z</time>
      </trkpt>
      <trkpt lat="36.7375990" lon="-3.7734440">
        <ele>118.0</ele>
        <time>2022-01-08T14:53:05Z</time>
      </trkpt>
      <trkpt lat="36.7375990" lon="-3.7734440">
        <ele>118.0</ele>
        <time>2022-01-08T14:53:06Z</time>
      </trkpt>
      <trkpt lat="36.7375760" lon="-3.7734600">
        <ele>119.0</ele>
        <time>2022-01-08T14:53:07Z</time>
      </trkpt>
      <trkpt lat="36.7375760" lon="-3.7734600">
        <ele>119.0</ele>
        <time>2022-01-08T14:53:08Z</time>
      </trkpt>
      <trkpt lat="36.7375580" lon="-3.7734660">
        <ele>119.0</ele>
        <time>2022-01-08T14:53:09Z</time>
      </trkpt>
      <trkpt lat="36.7375580" lon="-3.7734660">
        <ele>119.0</ele>
        <time>2022-01-08T14:53:10Z</time>
      </trkpt>
      <trkpt lat="36.7375420" lon="-3.7734530">
        <ele>119.0</ele>
        <time>2022-01-08T14:53:11Z</time>
      </trkpt>
      <trkpt lat="36.7375420" lon="-3.7734530">
        <ele>120.0</ele>
        <time>2022-01-08T14:53:12Z</time>
      </trkpt>
      <trkpt lat="36.7375420" lon="-3.7734530">
        <ele>121.0</ele>
        <time>2022-01-08T14:53:13Z</time>
      </trkpt>
      <trkpt lat="36.7375190" lon="-3.7734410">
        <ele>121.0</ele>
        <time>2022-01-08T14:53:14Z</time>
      </trkpt>
      <trkpt lat="36.7375190" lon="-3.7734410">
        <ele>121.0</ele>
        <time>2022-01-08T14:53:15Z</time>
      </trkpt>
      <trkpt lat="36.7375060" lon="-3.7734240">
        <ele>122.0</ele>
        <time>2022-01-08T14:53:16Z</time>
      </trkpt>
      <trkpt lat="36.7375060" lon="-3.7734240">
        <ele>122.0</ele>
        <time>2022-01-08T14:53:17Z</time>
      </trkpt>
      <trkpt lat="36.7375060" lon="-3.7734240">
        <ele>122.0</ele>
        <time>2022-01-08T14:53:18Z</time>
      </trkpt>
      <trkpt lat="36.7375070" lon="-3.7733870">
        <ele>122.0</ele>
        <time>2022-01-08T14:53:19Z</time>
      </trkpt>
      <trkpt lat="36.7375070" lon="-3.7733870">
        <ele>123.0</ele>
        <time>2022-01-08T14:53:20Z</time>
      </trkpt>
      <trkpt lat="36.7375000" lon="-3.7733540">
        <ele>123.0</ele>
        <time>2022-01-08T14:53:21Z</time>
      </trkpt>
      <trkpt lat="36.7375000" lon="-3.7733540">
        <ele>123.0</ele>
        <time>2022-01-08T14:53:22Z</time>
      </trkpt>
      <trkpt lat="36.7374940" lon="-3.7733280">
        <ele>124.0</ele>
        <time>2022-01-08T14:53:23Z</time>
      </trkpt>
      <trkpt lat="36.7374940" lon="-3.7733280">
        <ele>124.0</ele>
        <time>2022-01-08T14:53:24Z</time>
      </trkpt>
      <trkpt lat="36.7374850" lon="-3.7733010">
        <ele>124.0</ele>
        <time>2022-01-08T14:53:25Z</time>
      </trkpt>
      <trkpt lat="36.7374850" lon="-3.7733010">
        <ele>124.0</ele>
        <time>2022-01-08T14:53:26Z</time>
      </trkpt>
      <trkpt lat="36.7374790" lon="-3.7732680">
        <ele>124.0</ele>
        <time>2022-01-08T14:53:27Z</time>
      </trkpt>
      <trkpt lat="36.7374790" lon="-3.7732680">
        <ele>124.0</ele>
        <time>2022-01-08T14:53:28Z</time>
      </trkpt>
      <trkpt lat="36.7374770" lon="-3.7732400">
        <ele>124.0</ele>
        <time>2022-01-08T14:53:29Z</time>
      </trkpt>
      <trkpt lat="36.7374770" lon="-3.7732400">
        <ele>124.0</ele>
        <time>2022-01-08T14:53:30Z</time>
      </trkpt>
      <trkpt lat="36.7374760" lon="-3.7732170">
        <ele>124.0</ele>
        <time>2022-01-08T14:53:31Z</time>
      </trkpt>
      <trkpt lat="36.7374760" lon="-3.7732170">
        <ele>125.0</ele>
        <time>2022-01-08T14:53:32Z</time>
      </trkpt>
      <trkpt lat="36.7374690" lon="-3.7731900">
        <ele>125.0</ele>
        <time>2022-01-08T14:53:33Z</time>
      </trkpt>
      <trkpt lat="36.7374690" lon="-3.7731900">
        <ele>125.0</ele>
        <time>2022-01-08T14:53:34Z</time>
      </trkpt>
      <trkpt lat="36.7374630" lon="-3.7731660">
        <ele>125.0</ele>
        <time>2022-01-08T14:53:35Z</time>
      </trkpt>
      <trkpt lat="36.7374630" lon="-3.7731660">
        <ele>126.0</ele>
        <time>2022-01-08T14:53:36Z</time>
      </trkpt>
      <trkpt lat="36.7374530" lon="-3.7731330">
        <ele>126.0</ele>
        <time>2022-01-08T14:53:37Z</time>
      </trkpt>
      <trkpt lat="36.7374530" lon="-3.7731330">
        <ele>126.0</ele>
        <time>2022-01-08T14:53:38Z</time>
      </trkpt>
      <trkpt lat="36.7374450" lon="-3.7731020">
        <ele>126.0</ele>
        <time>2022-01-08T14:53:39Z</time>
      </trkpt>
      <trkpt lat="36.7374450" lon="-3.7731020">
        <ele>127.0</ele>
        <time>2022-01-08T14:53:40Z</time>
      </trkpt>
      <trkpt lat="36.7374390" lon="-3.7730740">
        <ele>127.0</ele>
        <time>2022-01-08T14:53:41Z</time>
      </trkpt>
      <trkpt lat="36.7374390" lon="-3.7730740">
        <ele>127.0</ele>
        <time>2022-01-08T14:53:42Z</time>
      </trkpt>
      <trkpt lat="36.7374320" lon="-3.7730450">
        <ele>128.0</ele>
        <time>2022-01-08T14:53:43Z</time>
      </trkpt>
      <trkpt lat="36.7374320" lon="-3.7730450">
        <ele>128.0</ele>
        <time>2022-01-08T14:53:44Z</time>
      </trkpt>
      <trkpt lat="36.7374260" lon="-3.7730170">
        <ele>128.0</ele>
        <time>2022-01-08T14:53:45Z</time>
      </trkpt>
      <trkpt lat="36.7374260" lon="-3.7730170">
        <ele>129.0</ele>
        <time>2022-01-08T14:53:46Z</time>
      </trkpt>
      <trkpt lat="36.7374130" lon="-3.7729850">
        <ele>129.0</ele>
        <time>2022-01-08T14:53:47Z</time>
      </trkpt>
      <trkpt lat="36.7374130" lon="-3.7729850">
        <ele>130.0</ele>
        <time>2022-01-08T14:53:48Z</time>
      </trkpt>
      <trkpt lat="36.7374050" lon="-3.7729520">
        <ele>130.0</ele>
        <time>2022-01-08T14:53:49Z</time>
      </trkpt>
      <trkpt lat="36.7374050" lon="-3.7729520">
        <ele>130.0</ele>
        <time>2022-01-08T14:53:50Z</time>
      </trkpt>
      <trkpt lat="36.7373940" lon="-3.7729160">
        <ele>130.0</ele>
        <time>2022-01-08T14:53:51Z</time>
      </trkpt>
      <trkpt lat="36.7373940" lon="-3.7729160">
        <ele>130.0</ele>
        <time>2022-01-08T14:53:52Z</time>
      </trkpt>
      <trkpt lat="36.7373800" lon="-3.7728820">
        <ele>130.0</ele>
        <time>2022-01-08T14:53:53Z</time>
      </trkpt>
      <trkpt lat="36.7373800" lon="-3.7728820">
        <ele>130.0</ele>
        <time>2022-01-08T14:53:54Z</time>
      </trkpt>
      <trkpt lat="36.7373640" lon="-3.7728470">
        <ele>130.0</ele>
        <time>2022-01-08T14:53:55Z</time>
      </trkpt>
      <trkpt lat="36.7373640" lon="-3.7728470">
        <ele>130.0</ele>
        <time>2022-01-08T14:53:56Z</time>
      </trkpt>
      <trkpt lat="36.7373650" lon="-3.7728120">
        <ele>130.0</ele>
        <time>2022-01-08T14:53:57Z</time>
      </trkpt>
      <trkpt lat="36.7373650" lon="-3.7728120">
        <ele>130.0</ele>
        <time>2022-01-08T14:53:58Z</time>
      </trkpt>
      <trkpt lat="36.7373680" lon="-3.7727700">
        <ele>131.0</ele>
        <time>2022-01-08T14:53:59Z</time>
      </trkpt>
      <trkpt lat="36.7373680" lon="-3.7727700">
        <ele>132.0</ele>
        <time>2022-01-08T14:54:00Z</time>
      </trkpt>
      <trkpt lat="36.7373560" lon="-3.7727300">
        <ele>132.0</ele>
        <time>2022-01-08T14:54:01Z</time>
      </trkpt>
      <trkpt lat="36.7373560" lon="-3.7727300">
        <ele>132.0</ele>
        <time>2022-01-08T14:54:02Z</time>
      </trkpt>
      <trkpt lat="36.7373460" lon="-3.7726950">
        <ele>132.0</ele>
        <time>2022-01-08T14:54:03Z</time>
      </trkpt>
      <trkpt lat="36.7373460" lon="-3.7726950">
        <ele>132.0</ele>
        <time>2022-01-08T14:54:04Z</time>
      </trkpt>
      <trkpt lat="36.7373380" lon="-3.7726600">
        <ele>133.0</ele>
        <time>2022-01-08T14:54:05Z</time>
      </trkpt>
      <trkpt lat="36.7373380" lon="-3.7726600">
        <ele>133.0</ele>
        <time>2022-01-08T14:54:06Z</time>
      </trkpt>
      <trkpt lat="36.7373290" lon="-3.7726250">
        <ele>133.0</ele>
        <time>2022-01-08T14:54:07Z</time>
      </trkpt>
      <trkpt lat="36.7373270" lon="-3.7726030">
        <ele>133.0</ele>
        <time>2022-01-08T14:54:08Z</time>
      </trkpt>
      <trkpt lat="36.7373270" lon="-3.7726030">
        <ele>133.0</ele>
        <time>2022-01-08T14:54:09Z</time>
      </trkpt>
      <trkpt lat="36.7373300" lon="-3.7725820">
        <ele>133.0</ele>
        <time>2022-01-08T14:54:10Z</time>
      </trkpt>
      <trkpt lat="36.7373330" lon="-3.7725610">
        <ele>134.0</ele>
        <time>2022-01-08T14:54:11Z</time>
      </trkpt>
      <trkpt lat="36.7373370" lon="-3.7725400">
        <ele>134.0</ele>
        <time>2022-01-08T14:54:12Z</time>
      </trkpt>
      <trkpt lat="36.7373400" lon="-3.7725190">
        <ele>134.0</ele>
        <time>2022-01-08T14:54:13Z</time>
      </trkpt>
      <trkpt lat="36.7373430" lon="-3.7724980">
        <ele>134.0</ele>
        <time>2022-01-08T14:54:14Z</time>
      </trkpt>
      <trkpt lat="36.7373480" lon="-3.7724780">
        <ele>134.0</ele>
        <time>2022-01-08T14:54:15Z</time>
      </trkpt>
      <trkpt lat="36.7373530" lon="-3.7724590">
        <ele>134.0</ele>
        <time>2022-01-08T14:54:16Z</time>
      </trkpt>
      <trkpt lat="36.7373580" lon="-3.7724390">
        <ele>135.0</ele>
        <time>2022-01-08T14:54:17Z</time>
      </trkpt>
      <trkpt lat="36.7373630" lon="-3.7724190">
        <ele>135.0</ele>
        <time>2022-01-08T14:54:18Z</time>
      </trkpt>
      <trkpt lat="36.7373680" lon="-3.7724000">
        <ele>135.0</ele>
        <time>2022-01-08T14:54:19Z</time>
      </trkpt>
      <trkpt lat="36.7373730" lon="-3.7723800">
        <ele>136.0</ele>
        <time>2022-01-08T14:54:20Z</time>
      </trkpt>
      <trkpt lat="36.7373720" lon="-3.7723630">
        <ele>136.0</ele>
        <time>2022-01-08T14:54:21Z</time>
      </trkpt>
      <trkpt lat="36.7373700" lon="-3.7723470">
        <ele>136.0</ele>
        <time>2022-01-08T14:54:22Z</time>
      </trkpt>
      <trkpt lat="36.7373690" lon="-3.7723300">
        <ele>136.0</ele>
        <time>2022-01-08T14:54:23Z</time>
      </trkpt>
      <trkpt lat="36.7373740" lon="-3.7722930">
        <ele>136.0</ele>
        <time>2022-01-08T14:54:24Z</time>
      </trkpt>
      <trkpt lat="36.7373740" lon="-3.7722930">
        <ele>136.0</ele>
        <time>2022-01-08T14:54:25Z</time>
      </trkpt>
      <trkpt lat="36.7373810" lon="-3.7722620">
        <ele>136.0</ele>
        <time>2022-01-08T14:54:26Z</time>
      </trkpt>
      <trkpt lat="36.7373810" lon="-3.7722620">
        <ele>137.0</ele>
        <time>2022-01-08T14:54:27Z</time>
      </trkpt>
      <trkpt lat="36.7373910" lon="-3.7722340">
        <ele>137.0</ele>
        <time>2022-01-08T14:54:28Z</time>
      </trkpt>
      <trkpt lat="36.7373910" lon="-3.7722340">
        <ele>137.0</ele>
        <time>2022-01-08T14:54:29Z</time>
      </trkpt>
      <trkpt lat="36.7374030" lon="-3.7722040">
        <ele>137.0</ele>
        <time>2022-01-08T14:54:30Z</time>
      </trkpt>
      <trkpt lat="36.7374030" lon="-3.7722040">
        <ele>137.0</ele>
        <time>2022-01-08T14:54:31Z</time>
      </trkpt>
      <trkpt lat="36.7374190" lon="-3.7721710">
        <ele>138.0</ele>
        <time>2022-01-08T14:54:32Z</time>
      </trkpt>
      <trkpt lat="36.7374190" lon="-3.7721710">
        <ele>138.0</ele>
        <time>2022-01-08T14:54:33Z</time>
      </trkpt>
      <trkpt lat="36.7374260" lon="-3.7721430">
        <ele>138.0</ele>
        <time>2022-01-08T14:54:34Z</time>
      </trkpt>
      <trkpt lat="36.7374260" lon="-3.7721430">
        <ele>139.0</ele>
        <time>2022-01-08T14:54:35Z</time>
      </trkpt>
      <trkpt lat="36.7374260" lon="-3.7721430">
        <ele>139.0</ele>
        <time>2022-01-08T14:54:36Z</time>
      </trkpt>
      <trkpt lat="36.7374420" lon="-3.7721060">
        <ele>139.0</ele>
        <time>2022-01-08T14:54:37Z</time>
      </trkpt>
      <trkpt lat="36.7374530" lon="-3.7720870">
        <ele>139.0</ele>
        <time>2022-01-08T14:54:38Z</time>
      </trkpt>
      <trkpt lat="36.7374530" lon="-3.7720870">
        <ele>139.0</ele>
        <time>2022-01-08T14:54:39Z</time>
      </trkpt>
      <trkpt lat="36.7374570" lon="-3.7720700">
        <ele>139.0</ele>
        <time>2022-01-08T14:54:40Z</time>
      </trkpt>
      <trkpt lat="36.7374600" lon="-3.7720530">
        <ele>140.0</ele>
        <time>2022-01-08T14:54:41Z</time>
      </trkpt>
      <trkpt lat="36.7374640" lon="-3.7720350">
        <ele>140.0</ele>
        <time>2022-01-08T14:54:42Z</time>
      </trkpt>
      <trkpt lat="36.7374670" lon="-3.7720180">
        <ele>140.0</ele>
        <time>2022-01-08T14:54:43Z</time>
      </trkpt>
      <trkpt lat="36.7374600" lon="-3.7719920">
        <ele>141.0</ele>
        <time>2022-01-08T14:54:44Z</time>
      </trkpt>
      <trkpt lat="36.7374600" lon="-3.7719920">
        <ele>141.0</ele>
        <time>2022-01-08T14:54:45Z</time>
      </trkpt>
      <trkpt lat="36.7374760" lon="-3.7719610">
        <ele>141.0</ele>
        <time>2022-01-08T14:54:46Z</time>
      </trkpt>
      <trkpt lat="36.7374760" lon="-3.7719610">
        <ele>141.0</ele>
        <time>2022-01-08T14:54:47Z</time>
      </trkpt>
      <trkpt lat="36.7374760" lon="-3.7719610">
        <ele>142.0</ele>
        <time>2022-01-08T14:54:48Z</time>
      </trkpt>
      <trkpt lat="36.7374880" lon="-3.7719340">
        <ele>142.0</ele>
        <time>2022-01-08T14:54:49Z</time>
      </trkpt>
      <trkpt lat="36.7374950" lon="-3.7719050">
        <ele>142.0</ele>
        <time>2022-01-08T14:54:50Z</time>
      </trkpt>
      <trkpt lat="36.7374950" lon="-3.7719050">
        <ele>142.0</ele>
        <time>2022-01-08T14:54:51Z</time>
      </trkpt>
      <trkpt lat="36.7375030" lon="-3.7718700">
        <ele>142.0</ele>
        <time>2022-01-08T14:54:52Z</time>
      </trkpt>
      <trkpt lat="36.7375030" lon="-3.7718700">
        <ele>142.0</ele>
        <time>2022-01-08T14:54:53Z</time>
      </trkpt>
      <trkpt lat="36.7375070" lon="-3.7718470">
        <ele>142.0</ele>
        <time>2022-01-08T14:54:54Z</time>
      </trkpt>
      <trkpt lat="36.7375110" lon="-3.7718250">
        <ele>142.0</ele>
        <time>2022-01-08T14:54:55Z</time>
      </trkpt>
      <trkpt lat="36.7375150" lon="-3.7718020">
        <ele>143.0</ele>
        <time>2022-01-08T14:54:56Z</time>
      </trkpt>
      <trkpt lat="36.7375210" lon="-3.7717710">
        <ele>143.0</ele>
        <time>2022-01-08T14:54:57Z</time>
      </trkpt>
      <trkpt lat="36.7375210" lon="-3.7717710">
        <ele>143.0</ele>
        <time>2022-01-08T14:54:58Z</time>
      </trkpt>
      <trkpt lat="36.7375340" lon="-3.7717430">
        <ele>143.0</ele>
        <time>2022-01-08T14:54:59Z</time>
      </trkpt>
      <trkpt lat="36.7375340" lon="-3.7717430">
        <ele>144.0</ele>
        <time>2022-01-08T14:55:00Z</time>
      </trkpt>
      <trkpt lat="36.7375420" lon="-3.7717080">
        <ele>144.0</ele>
        <time>2022-01-08T14:55:01Z</time>
      </trkpt>
      <trkpt lat="36.7375420" lon="-3.7717080">
        <ele>144.0</ele>
        <time>2022-01-08T14:55:02Z</time>
      </trkpt>
      <trkpt lat="36.7375490" lon="-3.7716660">
        <ele>144.0</ele>
        <time>2022-01-08T14:55:03Z</time>
      </trkpt>
      <trkpt lat="36.7375490" lon="-3.7716660">
        <ele>145.0</ele>
        <time>2022-01-08T14:55:04Z</time>
      </trkpt>
      <trkpt lat="36.7375560" lon="-3.7716270">
        <ele>145.0</ele>
        <time>2022-01-08T14:55:05Z</time>
      </trkpt>
      <trkpt lat="36.7375560" lon="-3.7716270">
        <ele>145.0</ele>
        <time>2022-01-08T14:55:06Z</time>
      </trkpt>
      <trkpt lat="36.7375560" lon="-3.7716270">
        <ele>145.0</ele>
        <time>2022-01-08T14:55:07Z</time>
      </trkpt>
      <trkpt lat="36.7375610" lon="-3.7715880">
        <ele>145.0</ele>
        <time>2022-01-08T14:55:08Z</time>
      </trkpt>
      <trkpt lat="36.7375610" lon="-3.7715880">
        <ele>145.0</ele>
        <time>2022-01-08T14:55:09Z</time>
      </trkpt>
      <trkpt lat="36.7375650" lon="-3.7715680">
        <ele>145.0</ele>
        <time>2022-01-08T14:55:10Z</time>
      </trkpt>
      <trkpt lat="36.7375690" lon="-3.7715470">
        <ele>146.0</ele>
        <time>2022-01-08T14:55:11Z</time>
      </trkpt>
      <trkpt lat="36.7375730" lon="-3.7715270">
        <ele>146.0</ele>
        <time>2022-01-08T14:55:12Z</time>
      </trkpt>
      <trkpt lat="36.7375760" lon="-3.7715060">
        <ele>146.0</ele>
        <time>2022-01-08T14:55:13Z</time>
      </trkpt>
      <trkpt lat="36.7375800" lon="-3.7714860">
        <ele>146.0</ele>
        <time>2022-01-08T14:55:14Z</time>
      </trkpt>
      <trkpt lat="36.7375840" lon="-3.7714650">
        <ele>147.0</ele>
        <time>2022-01-08T14:55:15Z</time>
      </trkpt>
      <trkpt lat="36.7375910" lon="-3.7714490">
        <ele>147.0</ele>
        <time>2022-01-08T14:55:16Z</time>
      </trkpt>
      <trkpt lat="36.7375980" lon="-3.7714320">
        <ele>148.0</ele>
        <time>2022-01-08T14:55:17Z</time>
      </trkpt>
      <trkpt lat="36.7376050" lon="-3.7714150">
        <ele>148.0</ele>
        <time>2022-01-08T14:55:18Z</time>
      </trkpt>
      <trkpt lat="36.7376120" lon="-3.7713990">
        <ele>148.0</ele>
        <time>2022-01-08T14:55:19Z</time>
      </trkpt>
      <trkpt lat="36.7376190" lon="-3.7713820">
        <ele>148.0</ele>
        <time>2022-01-08T14:55:20Z</time>
      </trkpt>
      <trkpt lat="36.7376270" lon="-3.7713650">
        <ele>148.0</ele>
        <time>2022-01-08T14:55:21Z</time>
      </trkpt>
      <trkpt lat="36.7376310" lon="-3.7713550">
        <ele>148.0</ele>
        <time>2022-01-08T14:55:22Z</time>
      </trkpt>
      <trkpt lat="36.7376350" lon="-3.7713440">
        <ele>148.0</ele>
        <time>2022-01-08T14:55:23Z</time>
      </trkpt>
      <trkpt lat="36.7376390" lon="-3.7713340">
        <ele>148.0</ele>
        <time>2022-01-08T14:55:24Z</time>
      </trkpt>
      <trkpt lat="36.7376430" lon="-3.7713230">
        <ele>149.0</ele>
        <time>2022-01-08T14:55:25Z</time>
      </trkpt>
      <trkpt lat="36.7376470" lon="-3.7713130">
        <ele>149.0</ele>
        <time>2022-01-08T14:55:26Z</time>
      </trkpt>
      <trkpt lat="36.7376510" lon="-3.7713020">
        <ele>150.0</ele>
        <time>2022-01-08T14:55:27Z</time>
      </trkpt>
      <trkpt lat="36.7376620" lon="-3.7712840">
        <ele>150.0</ele>
        <time>2022-01-08T14:55:28Z</time>
      </trkpt>
      <trkpt lat="36.7376740" lon="-3.7712650">
        <ele>150.0</ele>
        <time>2022-01-08T14:55:29Z</time>
      </trkpt>
      <trkpt lat="36.7376850" lon="-3.7712460">
        <ele>150.0</ele>
        <time>2022-01-08T14:55:30Z</time>
      </trkpt>
      <trkpt lat="36.7376970" lon="-3.7712270">
        <ele>150.0</ele>
        <time>2022-01-08T14:55:31Z</time>
      </trkpt>
      <trkpt lat="36.7377090" lon="-3.7712080">
        <ele>151.0</ele>
        <time>2022-01-08T14:55:32Z</time>
      </trkpt>
      <trkpt lat="36.7377160" lon="-3.7711940">
        <ele>151.0</ele>
        <time>2022-01-08T14:55:33Z</time>
      </trkpt>
      <trkpt lat="36.7377230" lon="-3.7711790">
        <ele>152.0</ele>
        <time>2022-01-08T14:55:34Z</time>
      </trkpt>
      <trkpt lat="36.7377310" lon="-3.7711640">
        <ele>152.0</ele>
        <time>2022-01-08T14:55:35Z</time>
      </trkpt>
      <trkpt lat="36.7377380" lon="-3.7711500">
        <ele>152.0</ele>
        <time>2022-01-08T14:55:36Z</time>
      </trkpt>
      <trkpt lat="36.7377460" lon="-3.7711350">
        <ele>152.0</ele>
        <time>2022-01-08T14:55:37Z</time>
      </trkpt>
      <trkpt lat="36.7377530" lon="-3.7711200">
        <ele>152.0</ele>
        <time>2022-01-08T14:55:38Z</time>
      </trkpt>
      <trkpt lat="36.7377600" lon="-3.7711050">
        <ele>153.0</ele>
        <time>2022-01-08T14:55:39Z</time>
      </trkpt>
      <trkpt lat="36.7377770" lon="-3.7710850">
        <ele>153.0</ele>
        <time>2022-01-08T14:55:40Z</time>
      </trkpt>
      <trkpt lat="36.7377890" lon="-3.7710620">
        <ele>153.0</ele>
        <time>2022-01-08T14:55:41Z</time>
      </trkpt>
      <trkpt lat="36.7377990" lon="-3.7710420">
        <ele>153.0</ele>
        <time>2022-01-08T14:55:42Z</time>
      </trkpt>
      <trkpt lat="36.7377990" lon="-3.7710420">
        <ele>153.0</ele>
        <time>2022-01-08T14:55:43Z</time>
      </trkpt>
      <trkpt lat="36.7378070" lon="-3.7710270">
        <ele>154.0</ele>
        <time>2022-01-08T14:55:44Z</time>
      </trkpt>
      <trkpt lat="36.7378150" lon="-3.7710120">
        <ele>154.0</ele>
        <time>2022-01-08T14:55:45Z</time>
      </trkpt>
      <trkpt lat="36.7378230" lon="-3.7709970">
        <ele>154.0</ele>
        <time>2022-01-08T14:55:46Z</time>
      </trkpt>
      <trkpt lat="36.7378310" lon="-3.7709820">
        <ele>154.0</ele>
        <time>2022-01-08T14:55:47Z</time>
      </trkpt>
      <trkpt lat="36.7378310" lon="-3.7709820">
        <ele>154.0</ele>
        <time>2022-01-08T14:55:48Z</time>
      </trkpt>
      <trkpt lat="36.7378510" lon="-3.7709650">
        <ele>154.0</ele>
        <time>2022-01-08T14:55:49Z</time>
      </trkpt>
      <trkpt lat="36.7378510" lon="-3.7709650">
        <ele>154.0</ele>
        <time>2022-01-08T14:55:50Z</time>
      </trkpt>
      <trkpt lat="36.7378510" lon="-3.7709650">
        <ele>155.0</ele>
        <time>2022-01-08T14:55:51Z</time>
      </trkpt>
      <trkpt lat="36.7378810" lon="-3.7709530">
        <ele>155.0</ele>
        <time>2022-01-08T14:55:52Z</time>
      </trkpt>
      <trkpt lat="36.7378810" lon="-3.7709530">
        <ele>155.0</ele>
        <time>2022-01-08T14:55:53Z</time>
      </trkpt>
      <trkpt lat="36.7379130" lon="-3.7709510">
        <ele>155.0</ele>
        <time>2022-01-08T14:55:54Z</time>
      </trkpt>
      <trkpt lat="36.7379130" lon="-3.7709510">
        <ele>155.0</ele>
        <time>2022-01-08T14:55:55Z</time>
      </trkpt>
      <trkpt lat="36.7379450" lon="-3.7709510">
        <ele>155.0</ele>
        <time>2022-01-08T14:55:56Z</time>
      </trkpt>
      <trkpt lat="36.7379450" lon="-3.7709510">
        <ele>156.0</ele>
        <time>2022-01-08T14:55:57Z</time>
      </trkpt>
      <trkpt lat="36.7379450" lon="-3.7709510">
        <ele>156.0</ele>
        <time>2022-01-08T14:55:58Z</time>
      </trkpt>
      <trkpt lat="36.7379450" lon="-3.7709510">
        <ele>156.0</ele>
        <time>2022-01-08T14:55:59Z</time>
      </trkpt>
      <trkpt lat="36.7379680" lon="-3.7709630">
        <ele>156.0</ele>
        <time>2022-01-08T14:56:00Z</time>
      </trkpt>
      <trkpt lat="36.7379680" lon="-3.7709630">
        <ele>156.0</ele>
        <time>2022-01-08T14:56:01Z</time>
      </trkpt>
      <trkpt lat="36.7380010" lon="-3.7709820">
        <ele>157.0</ele>
        <time>2022-01-08T14:56:02Z</time>
      </trkpt>
      <trkpt lat="36.7380010" lon="-3.7709820">
        <ele>157.0</ele>
        <time>2022-01-08T14:56:03Z</time>
      </trkpt>
      <trkpt lat="36.7380350" lon="-3.7710050">
        <ele>157.0</ele>
        <time>2022-01-08T14:56:04Z</time>
      </trkpt>
      <trkpt lat="36.7380500" lon="-3.7710200">
        <ele>157.0</ele>
        <time>2022-01-08T14:56:05Z</time>
      </trkpt>
      <trkpt lat="36.7380650" lon="-3.7710350">
        <ele>157.0</ele>
        <time>2022-01-08T14:56:06Z</time>
      </trkpt>
      <trkpt lat="36.7380650" lon="-3.7710350">
        <ele>157.0</ele>
        <time>2022-01-08T14:56:07Z</time>
      </trkpt>
      <trkpt lat="36.7380900" lon="-3.7710640">
        <ele>158.0</ele>
        <time>2022-01-08T14:56:08Z</time>
      </trkpt>
      <trkpt lat="36.7380900" lon="-3.7710640">
        <ele>158.0</ele>
        <time>2022-01-08T14:56:09Z</time>
      </trkpt>
      <trkpt lat="36.7381120" lon="-3.7710930">
        <ele>158.0</ele>
        <time>2022-01-08T14:56:10Z</time>
      </trkpt>
      <trkpt lat="36.7381270" lon="-3.7711070">
        <ele>158.0</ele>
        <time>2022-01-08T14:56:11Z</time>
      </trkpt>
      <trkpt lat="36.7381430" lon="-3.7711220">
        <ele>158.0</ele>
        <time>2022-01-08T14:56:12Z</time>
      </trkpt>
      <trkpt lat="36.7381430" lon="-3.7711220">
        <ele>159.0</ele>
        <time>2022-01-08T14:56:13Z</time>
      </trkpt>
      <trkpt lat="36.7381660" lon="-3.7711460">
        <ele>159.0</ele>
        <time>2022-01-08T14:56:14Z</time>
      </trkpt>
      <trkpt lat="36.7381660" lon="-3.7711460">
        <ele>159.0</ele>
        <time>2022-01-08T14:56:15Z</time>
      </trkpt>
      <trkpt lat="36.7381950" lon="-3.7711590">
        <ele>159.0</ele>
        <time>2022-01-08T14:56:16Z</time>
      </trkpt>
      <trkpt lat="36.7381950" lon="-3.7711590">
        <ele>159.0</ele>
        <time>2022-01-08T14:56:17Z</time>
      </trkpt>
      <trkpt lat="36.7382320" lon="-3.7711530">
        <ele>159.0</ele>
        <time>2022-01-08T14:56:18Z</time>
      </trkpt>
      <trkpt lat="36.7382550" lon="-3.7711500">
        <ele>159.0</ele>
        <time>2022-01-08T14:56:19Z</time>
      </trkpt>
      <trkpt lat="36.7382780" lon="-3.7711450">
        <ele>159.0</ele>
        <time>2022-01-08T14:56:20Z</time>
      </trkpt>
      <trkpt lat="36.7383020" lon="-3.7711350">
        <ele>160.0</ele>
        <time>2022-01-08T14:56:21Z</time>
      </trkpt>
      <trkpt lat="36.7383230" lon="-3.7711220">
        <ele>160.0</ele>
        <time>2022-01-08T14:56:22Z</time>
      </trkpt>
      <trkpt lat="36.7383430" lon="-3.7711070">
        <ele>160.0</ele>
        <time>2022-01-08T14:56:23Z</time>
      </trkpt>
      <trkpt lat="36.7383600" lon="-3.7710920">
        <ele>160.0</ele>
        <time>2022-01-08T14:56:24Z</time>
      </trkpt>
      <trkpt lat="36.7383780" lon="-3.7710790">
        <ele>160.0</ele>
        <time>2022-01-08T14:56:25Z</time>
      </trkpt>
      <trkpt lat="36.7383930" lon="-3.7710650">
        <ele>161.0</ele>
        <time>2022-01-08T14:56:26Z</time>
      </trkpt>
      <trkpt lat="36.7384080" lon="-3.7710510">
        <ele>161.0</ele>
        <time>2022-01-08T14:56:27Z</time>
      </trkpt>
      <trkpt lat="36.7384080" lon="-3.7710510">
        <ele>161.0</ele>
        <time>2022-01-08T14:56:28Z</time>
      </trkpt>
      <trkpt lat="36.7384320" lon="-3.7710290">
        <ele>161.0</ele>
        <time>2022-01-08T14:56:29Z</time>
      </trkpt>
      <trkpt lat="36.7384320" lon="-3.7710290">
        <ele>161.0</ele>
        <time>2022-01-08T14:56:30Z</time>
      </trkpt>
      <trkpt lat="36.7384320" lon="-3.7710290">
        <ele>161.0</ele>
        <time>2022-01-08T14:56:31Z</time>
      </trkpt>
      <trkpt lat="36.7384460" lon="-3.7710130">
        <ele>161.0</ele>
        <time>2022-01-08T14:56:32Z</time>
      </trkpt>
      <trkpt lat="36.7384460" lon="-3.7710130">
        <ele>161.0</ele>
        <time>2022-01-08T14:56:33Z</time>
      </trkpt>
      <trkpt lat="36.7384630" lon="-3.7709880">
        <ele>161.0</ele>
        <time>2022-01-08T14:56:34Z</time>
      </trkpt>
      <trkpt lat="36.7384630" lon="-3.7709880">
        <ele>161.0</ele>
        <time>2022-01-08T14:56:35Z</time>
      </trkpt>
      <trkpt lat="36.7384780" lon="-3.7709640">
        <ele>162.0</ele>
        <time>2022-01-08T14:56:36Z</time>
      </trkpt>
      <trkpt lat="36.7384780" lon="-3.7709640">
        <ele>162.0</ele>
        <time>2022-01-08T14:56:37Z</time>
      </trkpt>
      <trkpt lat="36.7384900" lon="-3.7709450">
        <ele>162.0</ele>
        <time>2022-01-08T14:56:38Z</time>
      </trkpt>
      <trkpt lat="36.7385010" lon="-3.7709260">
        <ele>162.0</ele>
        <time>2022-01-08T14:56:39Z</time>
      </trkpt>
      <trkpt lat="36.7385130" lon="-3.7709070">
        <ele>163.0</ele>
        <time>2022-01-08T14:56:40Z</time>
      </trkpt>
      <trkpt lat="36.7385240" lon="-3.7708880">
        <ele>163.0</ele>
        <time>2022-01-08T14:56:41Z</time>
      </trkpt>
      <trkpt lat="36.7385350" lon="-3.7708690">
        <ele>163.0</ele>
        <time>2022-01-08T14:56:42Z</time>
      </trkpt>
      <trkpt lat="36.7385510" lon="-3.7708530">
        <ele>163.0</ele>
        <time>2022-01-08T14:56:43Z</time>
      </trkpt>
      <trkpt lat="36.7385670" lon="-3.7708380">
        <ele>163.0</ele>
        <time>2022-01-08T14:56:44Z</time>
      </trkpt>
      <trkpt lat="36.7385830" lon="-3.7708220">
        <ele>163.0</ele>
        <time>2022-01-08T14:56:45Z</time>
      </trkpt>
      <trkpt lat="36.7385990" lon="-3.7708060">
        <ele>163.0</ele>
        <time>2022-01-08T14:56:46Z</time>
      </trkpt>
      <trkpt lat="36.7386140" lon="-3.7707900">
        <ele>163.0</ele>
        <time>2022-01-08T14:56:47Z</time>
      </trkpt>
      <trkpt lat="36.7386270" lon="-3.7707800">
        <ele>163.0</ele>
        <time>2022-01-08T14:56:48Z</time>
      </trkpt>
      <trkpt lat="36.7386400" lon="-3.7707690">
        <ele>163.0</ele>
        <time>2022-01-08T14:56:49Z</time>
      </trkpt>
      <trkpt lat="36.7386530" lon="-3.7707590">
        <ele>163.0</ele>
        <time>2022-01-08T14:56:50Z</time>
      </trkpt>
      <trkpt lat="36.7386660" lon="-3.7707480">
        <ele>163.0</ele>
        <time>2022-01-08T14:56:51Z</time>
      </trkpt>
      <trkpt lat="36.7386790" lon="-3.7707380">
        <ele>163.0</ele>
        <time>2022-01-08T14:56:52Z</time>
      </trkpt>
      <trkpt lat="36.7386910" lon="-3.7707270">
        <ele>164.0</ele>
        <time>2022-01-08T14:56:53Z</time>
      </trkpt>
      <trkpt lat="36.7387180" lon="-3.7707210">
        <ele>164.0</ele>
        <time>2022-01-08T14:56:54Z</time>
      </trkpt>
      <trkpt lat="36.7387180" lon="-3.7707210">
        <ele>164.0</ele>
        <time>2022-01-08T14:56:55Z</time>
      </trkpt>
      <trkpt lat="36.7387400" lon="-3.7707130">
        <ele>164.0</ele>
        <time>2022-01-08T14:56:56Z</time>
      </trkpt>
      <trkpt lat="36.7387400" lon="-3.7707130">
        <ele>164.0</ele>
        <time>2022-01-08T14:56:57Z</time>
      </trkpt>
      <trkpt lat="36.7387670" lon="-3.7707040">
        <ele>164.0</ele>
        <time>2022-01-08T14:56:58Z</time>
      </trkpt>
      <trkpt lat="36.7387670" lon="-3.7707040">
        <ele>164.0</ele>
        <time>2022-01-08T14:56:59Z</time>
      </trkpt>
      <trkpt lat="36.7387960" lon="-3.7707000">
        <ele>164.0</ele>
        <time>2022-01-08T14:57:00Z</time>
      </trkpt>
      <trkpt lat="36.7387960" lon="-3.7707000">
        <ele>165.0</ele>
        <time>2022-01-08T14:57:01Z</time>
      </trkpt>
      <trkpt lat="36.7388290" lon="-3.7706990">
        <ele>166.0</ele>
        <time>2022-01-08T14:57:02Z</time>
      </trkpt>
      <trkpt lat="36.7388290" lon="-3.7706990">
        <ele>166.0</ele>
        <time>2022-01-08T14:57:03Z</time>
      </trkpt>
      <trkpt lat="36.7388600" lon="-3.7706880">
        <ele>166.0</ele>
        <time>2022-01-08T14:57:04Z</time>
      </trkpt>
      <trkpt lat="36.7388600" lon="-3.7706880">
        <ele>166.0</ele>
        <time>2022-01-08T14:57:05Z</time>
      </trkpt>
      <trkpt lat="36.7388870" lon="-3.7706870">
        <ele>165.0</ele>
        <time>2022-01-08T14:57:06Z</time>
      </trkpt>
      <trkpt lat="36.7388870" lon="-3.7706870">
        <ele>166.0</ele>
        <time>2022-01-08T14:57:07Z</time>
      </trkpt>
      <trkpt lat="36.7389080" lon="-3.7706760">
        <ele>166.0</ele>
        <time>2022-01-08T14:57:08Z</time>
      </trkpt>
      <trkpt lat="36.7389080" lon="-3.7706760">
        <ele>167.0</ele>
        <time>2022-01-08T14:57:09Z</time>
      </trkpt>
      <trkpt lat="36.7389330" lon="-3.7706660">
        <ele>167.0</ele>
        <time>2022-01-08T14:57:10Z</time>
      </trkpt>
      <trkpt lat="36.7389330" lon="-3.7706660">
        <ele>167.0</ele>
        <time>2022-01-08T14:57:11Z</time>
      </trkpt>
      <trkpt lat="36.7389590" lon="-3.7706580">
        <ele>167.0</ele>
        <time>2022-01-08T14:57:12Z</time>
      </trkpt>
      <trkpt lat="36.7389590" lon="-3.7706580">
        <ele>167.0</ele>
        <time>2022-01-08T14:57:13Z</time>
      </trkpt>
      <trkpt lat="36.7389880" lon="-3.7706470">
        <ele>167.0</ele>
        <time>2022-01-08T14:57:14Z</time>
      </trkpt>
      <trkpt lat="36.7389880" lon="-3.7706470">
        <ele>167.0</ele>
        <time>2022-01-08T14:57:15Z</time>
      </trkpt>
      <trkpt lat="36.7390160" lon="-3.7706290">
        <ele>168.0</ele>
        <time>2022-01-08T14:57:16Z</time>
      </trkpt>
      <trkpt lat="36.7390160" lon="-3.7706290">
        <ele>168.0</ele>
        <time>2022-01-08T14:57:17Z</time>
      </trkpt>
      <trkpt lat="36.7390310" lon="-3.7705990">
        <ele>168.0</ele>
        <time>2022-01-08T14:57:18Z</time>
      </trkpt>
      <trkpt lat="36.7390310" lon="-3.7705990">
        <ele>168.0</ele>
        <time>2022-01-08T14:57:19Z</time>
      </trkpt>
      <trkpt lat="36.7390310" lon="-3.7705990">
        <ele>169.0</ele>
        <time>2022-01-08T14:57:20Z</time>
      </trkpt>
      <trkpt lat="36.7390290" lon="-3.7705640">
        <ele>169.0</ele>
        <time>2022-01-08T14:57:21Z</time>
      </trkpt>
      <trkpt lat="36.7390150" lon="-3.7705470">
        <ele>169.0</ele>
        <time>2022-01-08T14:57:22Z</time>
      </trkpt>
      <trkpt lat="36.7390150" lon="-3.7705470">
        <ele>170.0</ele>
        <time>2022-01-08T14:57:23Z</time>
      </trkpt>
      <trkpt lat="36.7389860" lon="-3.7705330">
        <ele>170.0</ele>
        <time>2022-01-08T14:57:24Z</time>
      </trkpt>
      <trkpt lat="36.7389860" lon="-3.7705330">
        <ele>170.0</ele>
        <time>2022-01-08T14:57:25Z</time>
      </trkpt>
      <trkpt lat="36.7389560" lon="-3.7705260">
        <ele>170.0</ele>
        <time>2022-01-08T14:57:26Z</time>
      </trkpt>
      <trkpt lat="36.7389560" lon="-3.7705260">
        <ele>170.0</ele>
        <time>2022-01-08T14:57:27Z</time>
      </trkpt>
      <trkpt lat="36.7389330" lon="-3.7705190">
        <ele>170.0</ele>
        <time>2022-01-08T14:57:28Z</time>
      </trkpt>
      <trkpt lat="36.7389160" lon="-3.7705130">
        <ele>170.0</ele>
        <time>2022-01-08T14:57:29Z</time>
      </trkpt>
      <trkpt lat="36.7388990" lon="-3.7705050">
        <ele>170.0</ele>
        <time>2022-01-08T14:57:30Z</time>
      </trkpt>
      <trkpt lat="36.7388990" lon="-3.7705050">
        <ele>171.0</ele>
        <time>2022-01-08T14:57:31Z</time>
      </trkpt>
      <trkpt lat="36.7388630" lon="-3.7705040">
        <ele>171.0</ele>
        <time>2022-01-08T14:57:32Z</time>
      </trkpt>
      <trkpt lat="36.7388400" lon="-3.7705090">
        <ele>171.0</ele>
        <time>2022-01-08T14:57:33Z</time>
      </trkpt>
      <trkpt lat="36.7388210" lon="-3.7705150">
        <ele>171.0</ele>
        <time>2022-01-08T14:57:34Z</time>
      </trkpt>
      <trkpt lat="36.7388210" lon="-3.7705150">
        <ele>171.0</ele>
        <time>2022-01-08T14:57:35Z</time>
      </trkpt>
      <trkpt lat="36.7387900" lon="-3.7705350">
        <ele>171.0</ele>
        <time>2022-01-08T14:57:36Z</time>
      </trkpt>
      <trkpt lat="36.7387720" lon="-3.7705450">
        <ele>171.0</ele>
        <time>2022-01-08T14:57:37Z</time>
      </trkpt>
      <trkpt lat="36.7387500" lon="-3.7705570">
        <ele>171.0</ele>
        <time>2022-01-08T14:57:38Z</time>
      </trkpt>
      <trkpt lat="36.7387240" lon="-3.7705740">
        <ele>171.0</ele>
        <time>2022-01-08T14:57:39Z</time>
      </trkpt>
      <trkpt lat="36.7387240" lon="-3.7705740">
        <ele>171.0</ele>
        <time>2022-01-08T14:57:40Z</time>
      </trkpt>
      <trkpt lat="36.7386800" lon="-3.7706040">
        <ele>171.0</ele>
        <time>2022-01-08T14:57:41Z</time>
      </trkpt>
      <trkpt lat="36.7386570" lon="-3.7706230">
        <ele>171.0</ele>
        <time>2022-01-08T14:57:42Z</time>
      </trkpt>
      <trkpt lat="36.7386320" lon="-3.7706460">
        <ele>171.0</ele>
        <time>2022-01-08T14:57:43Z</time>
      </trkpt>
      <trkpt lat="36.7386110" lon="-3.7706600">
        <ele>171.0</ele>
        <time>2022-01-08T14:57:44Z</time>
      </trkpt>
      <trkpt lat="36.7385830" lon="-3.7706710">
        <ele>171.0</ele>
        <time>2022-01-08T14:57:45Z</time>
      </trkpt>
      <trkpt lat="36.7385570" lon="-3.7706860">
        <ele>171.0</ele>
        <time>2022-01-08T14:57:46Z</time>
      </trkpt>
      <trkpt lat="36.7385300" lon="-3.7706970">
        <ele>171.0</ele>
        <time>2022-01-08T14:57:47Z</time>
      </trkpt>
      <trkpt lat="36.7385010" lon="-3.7707130">
        <ele>172.0</ele>
        <time>2022-01-08T14:57:48Z</time>
      </trkpt>
      <trkpt lat="36.7384720" lon="-3.7707260">
        <ele>172.0</ele>
        <time>2022-01-08T14:57:49Z</time>
      </trkpt>
      <trkpt lat="36.7384460" lon="-3.7707380">
        <ele>172.0</ele>
        <time>2022-01-08T14:57:50Z</time>
      </trkpt>
      <trkpt lat="36.7384190" lon="-3.7707490">
        <ele>172.0</ele>
        <time>2022-01-08T14:57:51Z</time>
      </trkpt>
      <trkpt lat="36.7383950" lon="-3.7707560">
        <ele>172.0</ele>
        <time>2022-01-08T14:57:52Z</time>
      </trkpt>
      <trkpt lat="36.7383720" lon="-3.7707590">
        <ele>172.0</ele>
        <time>2022-01-08T14:57:53Z</time>
      </trkpt>
      <trkpt lat="36.7383460" lon="-3.7707590">
        <ele>172.0</ele>
        <time>2022-01-08T14:57:54Z</time>
      </trkpt>
      <trkpt lat="36.7383240" lon="-3.7707540">
        <ele>172.0</ele>
        <time>2022-01-08T14:57:55Z</time>
      </trkpt>
      <trkpt lat="36.7382990" lon="-3.7707460">
        <ele>172.0</ele>
        <time>2022-01-08T14:57:56Z</time>
      </trkpt>
      <trkpt lat="36.7382730" lon="-3.7707320">
        <ele>172.0</ele>
        <time>2022-01-08T14:57:57Z</time>
      </trkpt>
      <trkpt lat="36.7382730" lon="-3.7707320">
        <ele>172.0</ele>
        <time>2022-01-08T14:57:58Z</time>
      </trkpt>
      <trkpt lat="36.7382190" lon="-3.7707060">
        <ele>172.0</ele>
        <time>2022-01-08T14:57:59Z</time>
      </trkpt>
      <trkpt lat="36.7382080" lon="-3.7707020">
        <ele>172.0</ele>
        <time>2022-01-08T14:58:00Z</time>
      </trkpt>
      <trkpt lat="36.7381860" lon="-3.7706930">
        <ele>172.0</ele>
        <time>2022-01-08T14:58:01Z</time>
      </trkpt>
      <trkpt lat="36.7381620" lon="-3.7706810">
        <ele>172.0</ele>
        <time>2022-01-08T14:58:02Z</time>
      </trkpt>
      <trkpt lat="36.7381360" lon="-3.7706660">
        <ele>172.0</ele>
        <time>2022-01-08T14:58:03Z</time>
      </trkpt>
      <trkpt lat="36.7381110" lon="-3.7706540">
        <ele>172.0</ele>
        <time>2022-01-08T14:58:04Z</time>
      </trkpt>
      <trkpt lat="36.7380860" lon="-3.7706470">
        <ele>172.0</ele>
        <time>2022-01-08T14:58:05Z</time>
      </trkpt>
      <trkpt lat="36.7380590" lon="-3.7706360">
        <ele>172.0</ele>
        <time>2022-01-08T14:58:06Z</time>
      </trkpt>
      <trkpt lat="36.7380340" lon="-3.7706290">
        <ele>172.0</ele>
        <time>2022-01-08T14:58:07Z</time>
      </trkpt>
      <trkpt lat="36.7380100" lon="-3.7706260">
        <ele>173.0</ele>
        <time>2022-01-08T14:58:08Z</time>
      </trkpt>
      <trkpt lat="36.7379850" lon="-3.7706250">
        <ele>173.0</ele>
        <time>2022-01-08T14:58:09Z</time>
      </trkpt>
      <trkpt lat="36.7379620" lon="-3.7706220">
        <ele>173.0</ele>
        <time>2022-01-08T14:58:10Z</time>
      </trkpt>
      <trkpt lat="36.7379380" lon="-3.7706190">
        <ele>172.0</ele>
        <time>2022-01-08T14:58:11Z</time>
      </trkpt>
      <trkpt lat="36.7379140" lon="-3.7706200">
        <ele>172.0</ele>
        <time>2022-01-08T14:58:12Z</time>
      </trkpt>
      <trkpt lat="36.7378830" lon="-3.7706280">
        <ele>172.0</ele>
        <time>2022-01-08T14:58:13Z</time>
      </trkpt>
      <trkpt lat="36.7378560" lon="-3.7706360">
        <ele>173.0</ele>
        <time>2022-01-08T14:58:14Z</time>
      </trkpt>
      <trkpt lat="36.7378560" lon="-3.7706360">
        <ele>173.0</ele>
        <time>2022-01-08T14:58:15Z</time>
      </trkpt>
      <trkpt lat="36.7378060" lon="-3.7706420">
        <ele>173.0</ele>
        <time>2022-01-08T14:58:16Z</time>
      </trkpt>
      <trkpt lat="36.7378060" lon="-3.7706420">
        <ele>173.0</ele>
        <time>2022-01-08T14:58:17Z</time>
      </trkpt>
      <trkpt lat="36.7377530" lon="-3.7706720">
        <ele>173.0</ele>
        <time>2022-01-08T14:58:18Z</time>
      </trkpt>
      <trkpt lat="36.7377440" lon="-3.7706800">
        <ele>173.0</ele>
        <time>2022-01-08T14:58:19Z</time>
      </trkpt>
      <trkpt lat="36.7377280" lon="-3.7706980">
        <ele>173.0</ele>
        <time>2022-01-08T14:58:20Z</time>
      </trkpt>
      <trkpt lat="36.7377280" lon="-3.7706980">
        <ele>173.0</ele>
        <time>2022-01-08T14:58:21Z</time>
      </trkpt>
      <trkpt lat="36.7377010" lon="-3.7707120">
        <ele>173.0</ele>
        <time>2022-01-08T14:58:22Z</time>
      </trkpt>
      <trkpt lat="36.7376750" lon="-3.7707260">
        <ele>173.0</ele>
        <time>2022-01-08T14:58:23Z</time>
      </trkpt>
      <trkpt lat="36.7376480" lon="-3.7707400">
        <ele>173.0</ele>
        <time>2022-01-08T14:58:24Z</time>
      </trkpt>
      <trkpt lat="36.7376210" lon="-3.7707530">
        <ele>173.0</ele>
        <time>2022-01-08T14:58:25Z</time>
      </trkpt>
      <trkpt lat="36.7375980" lon="-3.7707770">
        <ele>173.0</ele>
        <time>2022-01-08T14:58:26Z</time>
      </trkpt>
      <trkpt lat="36.7375750" lon="-3.7708000">
        <ele>173.0</ele>
        <time>2022-01-08T14:58:27Z</time>
      </trkpt>
      <trkpt lat="36.7375520" lon="-3.7708230">
        <ele>173.0</ele>
        <time>2022-01-08T14:58:28Z</time>
      </trkpt>
      <trkpt lat="36.7375290" lon="-3.7708460">
        <ele>174.0</ele>
        <time>2022-01-08T14:58:29Z</time>
      </trkpt>
      <trkpt lat="36.7375040" lon="-3.7708730">
        <ele>174.0</ele>
        <time>2022-01-08T14:58:30Z</time>
      </trkpt>
      <trkpt lat="36.7374800" lon="-3.7709000">
        <ele>174.0</ele>
        <time>2022-01-08T14:58:31Z</time>
      </trkpt>
      <trkpt lat="36.7374550" lon="-3.7709260">
        <ele>174.0</ele>
        <time>2022-01-08T14:58:32Z</time>
      </trkpt>
      <trkpt lat="36.7374300" lon="-3.7709530">
        <ele>174.0</ele>
        <time>2022-01-08T14:58:33Z</time>
      </trkpt>
      <trkpt lat="36.7374210" lon="-3.7709660">
        <ele>174.0</ele>
        <time>2022-01-08T14:58:34Z</time>
      </trkpt>
      <trkpt lat="36.7374100" lon="-3.7709830">
        <ele>174.0</ele>
        <time>2022-01-08T14:58:35Z</time>
      </trkpt>
      <trkpt lat="36.7373980" lon="-3.7710000">
        <ele>175.0</ele>
        <time>2022-01-08T14:58:36Z</time>
      </trkpt>
      <trkpt lat="36.7373870" lon="-3.7710170">
        <ele>175.0</ele>
        <time>2022-01-08T14:58:37Z</time>
      </trkpt>
      <trkpt lat="36.7373750" lon="-3.7710340">
        <ele>175.0</ele>
        <time>2022-01-08T14:58:38Z</time>
      </trkpt>
      <trkpt lat="36.7373510" lon="-3.7710750">
        <ele>175.0</ele>
        <time>2022-01-08T14:58:39Z</time>
      </trkpt>
      <trkpt lat="36.7373280" lon="-3.7711160">
        <ele>175.0</ele>
        <time>2022-01-08T14:58:40Z</time>
      </trkpt>
      <trkpt lat="36.7373040" lon="-3.7711570">
        <ele>175.0</ele>
        <time>2022-01-08T14:58:41Z</time>
      </trkpt>
      <trkpt lat="36.7372930" lon="-3.7711810">
        <ele>175.0</ele>
        <time>2022-01-08T14:58:42Z</time>
      </trkpt>
      <trkpt lat="36.7372810" lon="-3.7712050">
        <ele>175.0</ele>
        <time>2022-01-08T14:58:43Z</time>
      </trkpt>
      <trkpt lat="36.7372750" lon="-3.7712260">
        <ele>175.0</ele>
        <time>2022-01-08T14:58:44Z</time>
      </trkpt>
      <trkpt lat="36.7372620" lon="-3.7712490">
        <ele>175.0</ele>
        <time>2022-01-08T14:58:45Z</time>
      </trkpt>
      <trkpt lat="36.7372500" lon="-3.7712720">
        <ele>175.0</ele>
        <time>2022-01-08T14:58:46Z</time>
      </trkpt>
      <trkpt lat="36.7372410" lon="-3.7712940">
        <ele>175.0</ele>
        <time>2022-01-08T14:58:47Z</time>
      </trkpt>
      <trkpt lat="36.7372410" lon="-3.7712940">
        <ele>175.0</ele>
        <time>2022-01-08T14:58:48Z</time>
      </trkpt>
      <trkpt lat="36.7372270" lon="-3.7713330">
        <ele>175.0</ele>
        <time>2022-01-08T14:58:49Z</time>
      </trkpt>
      <trkpt lat="36.7372270" lon="-3.7713330">
        <ele>175.0</ele>
        <time>2022-01-08T14:58:50Z</time>
      </trkpt>
      <trkpt lat="36.7372110" lon="-3.7713720">
        <ele>175.0</ele>
        <time>2022-01-08T14:58:51Z</time>
      </trkpt>
      <trkpt lat="36.7372020" lon="-3.7713910">
        <ele>175.0</ele>
        <time>2022-01-08T14:58:52Z</time>
      </trkpt>
      <trkpt lat="36.7371880" lon="-3.7714110">
        <ele>175.0</ele>
        <time>2022-01-08T14:58:53Z</time>
      </trkpt>
      <trkpt lat="36.7371880" lon="-3.7714110">
        <ele>175.0</ele>
        <time>2022-01-08T14:58:54Z</time>
      </trkpt>
      <trkpt lat="36.7371880" lon="-3.7714110">
        <ele>175.0</ele>
        <time>2022-01-08T14:58:55Z</time>
      </trkpt>
      <trkpt lat="36.7371680" lon="-3.7714430">
        <ele>175.0</ele>
        <time>2022-01-08T14:58:56Z</time>
      </trkpt>
      <trkpt lat="36.7371680" lon="-3.7714430">
        <ele>175.0</ele>
        <time>2022-01-08T14:58:57Z</time>
      </trkpt>
      <trkpt lat="36.7371460" lon="-3.7714760">
        <ele>175.0</ele>
        <time>2022-01-08T14:58:58Z</time>
      </trkpt>
      <trkpt lat="36.7371280" lon="-3.7715090">
        <ele>175.0</ele>
        <time>2022-01-08T14:58:59Z</time>
      </trkpt>
      <trkpt lat="36.7371280" lon="-3.7715090">
        <ele>175.0</ele>
        <time>2022-01-08T14:59:00Z</time>
      </trkpt>
      <trkpt lat="36.7371140" lon="-3.7715460">
        <ele>175.0</ele>
        <time>2022-01-08T14:59:01Z</time>
      </trkpt>
      <trkpt lat="36.7371140" lon="-3.7715460">
        <ele>175.0</ele>
        <time>2022-01-08T14:59:02Z</time>
      </trkpt>
      <trkpt lat="36.7371010" lon="-3.7715790">
        <ele>175.0</ele>
        <time>2022-01-08T14:59:03Z</time>
      </trkpt>
      <trkpt lat="36.7371010" lon="-3.7715790">
        <ele>175.0</ele>
        <time>2022-01-08T14:59:04Z</time>
      </trkpt>
      <trkpt lat="36.7370880" lon="-3.7716100">
        <ele>175.0</ele>
        <time>2022-01-08T14:59:05Z</time>
      </trkpt>
      <trkpt lat="36.7370880" lon="-3.7716100">
        <ele>175.0</ele>
        <time>2022-01-08T14:59:06Z</time>
      </trkpt>
      <trkpt lat="36.7370770" lon="-3.7716440">
        <ele>175.0</ele>
        <time>2022-01-08T14:59:07Z</time>
      </trkpt>
      <trkpt lat="36.7370770" lon="-3.7716440">
        <ele>175.0</ele>
        <time>2022-01-08T14:59:08Z</time>
      </trkpt>
      <trkpt lat="36.7370570" lon="-3.7716790">
        <ele>175.0</ele>
        <time>2022-01-08T14:59:09Z</time>
      </trkpt>
      <trkpt lat="36.7370570" lon="-3.7716790">
        <ele>175.0</ele>
        <time>2022-01-08T14:59:10Z</time>
      </trkpt>
      <trkpt lat="36.7370390" lon="-3.7717100">
        <ele>175.0</ele>
        <time>2022-01-08T14:59:11Z</time>
      </trkpt>
      <trkpt lat="36.7370390" lon="-3.7717100">
        <ele>175.0</ele>
        <time>2022-01-08T14:59:12Z</time>
      </trkpt>
      <trkpt lat="36.7370180" lon="-3.7717370">
        <ele>175.0</ele>
        <time>2022-01-08T14:59:13Z</time>
      </trkpt>
      <trkpt lat="36.7370180" lon="-3.7717370">
        <ele>175.0</ele>
        <time>2022-01-08T14:59:14Z</time>
      </trkpt>
      <trkpt lat="36.7370030" lon="-3.7717670">
        <ele>175.0</ele>
        <time>2022-01-08T14:59:15Z</time>
      </trkpt>
      <trkpt lat="36.7370030" lon="-3.7717670">
        <ele>175.0</ele>
        <time>2022-01-08T14:59:16Z</time>
      </trkpt>
      <trkpt lat="36.7369680" lon="-3.7718130">
        <ele>175.0</ele>
        <time>2022-01-08T14:59:17Z</time>
      </trkpt>
      <trkpt lat="36.7369590" lon="-3.7718200">
        <ele>176.0</ele>
        <time>2022-01-08T14:59:18Z</time>
      </trkpt>
      <trkpt lat="36.7369390" lon="-3.7718280">
        <ele>177.0</ele>
        <time>2022-01-08T14:59:19Z</time>
      </trkpt>
      <trkpt lat="36.7369170" lon="-3.7718310">
        <ele>177.0</ele>
        <time>2022-01-08T14:59:20Z</time>
      </trkpt>
      <trkpt lat="36.7368930" lon="-3.7718310">
        <ele>177.0</ele>
        <time>2022-01-08T14:59:21Z</time>
      </trkpt>
      <trkpt lat="36.7368710" lon="-3.7718270">
        <ele>177.0</ele>
        <time>2022-01-08T14:59:22Z</time>
      </trkpt>
      <trkpt lat="36.7368500" lon="-3.7718210">
        <ele>177.0</ele>
        <time>2022-01-08T14:59:23Z</time>
      </trkpt>
      <trkpt lat="36.7368280" lon="-3.7718080">
        <ele>177.0</ele>
        <time>2022-01-08T14:59:24Z</time>
      </trkpt>
      <trkpt lat="36.7368280" lon="-3.7718080">
        <ele>177.0</ele>
        <time>2022-01-08T14:59:25Z</time>
      </trkpt>
      <trkpt lat="36.7367970" lon="-3.7717690">
        <ele>177.0</ele>
        <time>2022-01-08T14:59:26Z</time>
      </trkpt>
      <trkpt lat="36.7367790" lon="-3.7717390">
        <ele>177.0</ele>
        <time>2022-01-08T14:59:27Z</time>
      </trkpt>
      <trkpt lat="36.7367640" lon="-3.7717080">
        <ele>177.0</ele>
        <time>2022-01-08T14:59:28Z</time>
      </trkpt>
      <trkpt lat="36.7367520" lon="-3.7716730">
        <ele>177.0</ele>
        <time>2022-01-08T14:59:29Z</time>
      </trkpt>
      <trkpt lat="36.7367400" lon="-3.7716350">
        <ele>177.0</ele>
        <time>2022-01-08T14:59:30Z</time>
      </trkpt>
      <trkpt lat="36.7367280" lon="-3.7715960">
        <ele>177.0</ele>
        <time>2022-01-08T14:59:31Z</time>
      </trkpt>
      <trkpt lat="36.7367170" lon="-3.7715590">
        <ele>177.0</ele>
        <time>2022-01-08T14:59:32Z</time>
      </trkpt>
      <trkpt lat="36.7367080" lon="-3.7715200">
        <ele>177.0</ele>
        <time>2022-01-08T14:59:33Z</time>
      </trkpt>
      <trkpt lat="36.7366980" lon="-3.7714840">
        <ele>177.0</ele>
        <time>2022-01-08T14:59:34Z</time>
      </trkpt>
      <trkpt lat="36.7366890" lon="-3.7714490">
        <ele>177.0</ele>
        <time>2022-01-08T14:59:35Z</time>
      </trkpt>
      <trkpt lat="36.7366810" lon="-3.7714140">
        <ele>177.0</ele>
        <time>2022-01-08T14:59:36Z</time>
      </trkpt>
      <trkpt lat="36.7366730" lon="-3.7713810">
        <ele>177.0</ele>
        <time>2022-01-08T14:59:37Z</time>
      </trkpt>
      <trkpt lat="36.7366670" lon="-3.7713470">
        <ele>177.0</ele>
        <time>2022-01-08T14:59:38Z</time>
      </trkpt>
      <trkpt lat="36.7366600" lon="-3.7713110">
        <ele>178.0</ele>
        <time>2022-01-08T14:59:39Z</time>
      </trkpt>
      <trkpt lat="36.7366530" lon="-3.7712760">
        <ele>178.0</ele>
        <time>2022-01-08T14:59:40Z</time>
      </trkpt>
      <trkpt lat="36.7366440" lon="-3.7712420">
        <ele>178.0</ele>
        <time>2022-01-08T14:59:41Z</time>
      </trkpt>
      <trkpt lat="36.7366440" lon="-3.7712420">
        <ele>178.0</ele>
        <time>2022-01-08T14:59:42Z</time>
      </trkpt>
      <trkpt lat="36.7366140" lon="-3.7711850">
        <ele>178.0</ele>
        <time>2022-01-08T14:59:43Z</time>
      </trkpt>
      <trkpt lat="36.7365950" lon="-3.7711630">
        <ele>178.0</ele>
        <time>2022-01-08T14:59:44Z</time>
      </trkpt>
      <trkpt lat="36.7365710" lon="-3.7711430">
        <ele>178.0</ele>
        <time>2022-01-08T14:59:45Z</time>
      </trkpt>
      <trkpt lat="36.7365460" lon="-3.7711280">
        <ele>178.0</ele>
        <time>2022-01-08T14:59:46Z</time>
      </trkpt>
      <trkpt lat="36.7365240" lon="-3.7711090">
        <ele>178.0</ele>
        <time>2022-01-08T14:59:47Z</time>
      </trkpt>
      <trkpt lat="36.7365000" lon="-3.7710910">
        <ele>178.0</ele>
        <time>2022-01-08T14:59:48Z</time>
      </trkpt>
      <trkpt lat="36.7364750" lon="-3.7710720">
        <ele>178.0</ele>
        <time>2022-01-08T14:59:49Z</time>
      </trkpt>
      <trkpt lat="36.7364510" lon="-3.7710500">
        <ele>178.0</ele>
        <time>2022-01-08T14:59:50Z</time>
      </trkpt>
      <trkpt lat="36.7364270" lon="-3.7710310">
        <ele>178.0</ele>
        <time>2022-01-08T14:59:51Z</time>
      </trkpt>
      <trkpt lat="36.7364040" lon="-3.7710150">
        <ele>178.0</ele>
        <time>2022-01-08T14:59:52Z</time>
      </trkpt>
      <trkpt lat="36.7363830" lon="-3.7709980">
        <ele>178.0</ele>
        <time>2022-01-08T14:59:53Z</time>
      </trkpt>
      <trkpt lat="36.7363620" lon="-3.7709770">
        <ele>178.0</ele>
        <time>2022-01-08T14:59:54Z</time>
      </trkpt>
      <trkpt lat="36.7363390" lon="-3.7709570">
        <ele>178.0</ele>
        <time>2022-01-08T14:59:55Z</time>
      </trkpt>
      <trkpt lat="36.7363190" lon="-3.7709370">
        <ele>178.0</ele>
        <time>2022-01-08T14:59:56Z</time>
      </trkpt>
      <trkpt lat="36.7362980" lon="-3.7709200">
        <ele>178.0</ele>
        <time>2022-01-08T14:59:57Z</time>
      </trkpt>
      <trkpt lat="36.7362980" lon="-3.7709200">
        <ele>178.0</ele>
        <time>2022-01-08T14:59:58Z</time>
      </trkpt>
      <trkpt lat="36.7362740" lon="-3.7709030">
        <ele>178.0</ele>
        <time>2022-01-08T14:59:59Z</time>
      </trkpt>
      <trkpt lat="36.7362390" lon="-3.7708730">
        <ele>178.0</ele>
        <time>2022-01-08T15:00:00Z</time>
      </trkpt>
      <trkpt lat="36.7362270" lon="-3.7708620">
        <ele>179.0</ele>
        <time>2022-01-08T15:00:01Z</time>
      </trkpt>
      <trkpt lat="36.7361840" lon="-3.7708210">
        <ele>179.0</ele>
        <time>2022-01-08T15:00:02Z</time>
      </trkpt>
      <trkpt lat="36.7361650" lon="-3.7707990">
        <ele>179.0</ele>
        <time>2022-01-08T15:00:03Z</time>
      </trkpt>
      <trkpt lat="36.7361460" lon="-3.7707750">
        <ele>179.0</ele>
        <time>2022-01-08T15:00:04Z</time>
      </trkpt>
      <trkpt lat="36.7361280" lon="-3.7707490">
        <ele>179.0</ele>
        <time>2022-01-08T15:00:05Z</time>
      </trkpt>
      <trkpt lat="36.7361130" lon="-3.7707250">
        <ele>179.0</ele>
        <time>2022-01-08T15:00:06Z</time>
      </trkpt>
      <trkpt lat="36.7360960" lon="-3.7706990">
        <ele>179.0</ele>
        <time>2022-01-08T15:00:07Z</time>
      </trkpt>
      <trkpt lat="36.7360760" lon="-3.7706750">
        <ele>179.0</ele>
        <time>2022-01-08T15:00:08Z</time>
      </trkpt>
      <trkpt lat="36.7360590" lon="-3.7706480">
        <ele>179.0</ele>
        <time>2022-01-08T15:00:09Z</time>
      </trkpt>
      <trkpt lat="36.7360420" lon="-3.7706200">
        <ele>179.0</ele>
        <time>2022-01-08T15:00:10Z</time>
      </trkpt>
      <trkpt lat="36.7360420" lon="-3.7706200">
        <ele>179.0</ele>
        <time>2022-01-08T15:00:11Z</time>
      </trkpt>
      <trkpt lat="36.7359940" lon="-3.7705590">
        <ele>180.0</ele>
        <time>2022-01-08T15:00:12Z</time>
      </trkpt>
      <trkpt lat="36.7359850" lon="-3.7705470">
        <ele>180.0</ele>
        <time>2022-01-08T15:00:13Z</time>
      </trkpt>
      <trkpt lat="36.7359700" lon="-3.7705190">
        <ele>180.0</ele>
        <time>2022-01-08T15:00:14Z</time>
      </trkpt>
      <trkpt lat="36.7359570" lon="-3.7704910">
        <ele>180.0</ele>
        <time>2022-01-08T15:00:15Z</time>
      </trkpt>
      <trkpt lat="36.7359360" lon="-3.7704600">
        <ele>180.0</ele>
        <time>2022-01-08T15:00:16Z</time>
      </trkpt>
      <trkpt lat="36.7359160" lon="-3.7704350">
        <ele>180.0</ele>
        <time>2022-01-08T15:00:17Z</time>
      </trkpt>
      <trkpt lat="36.7359010" lon="-3.7704100">
        <ele>180.0</ele>
        <time>2022-01-08T15:00:18Z</time>
      </trkpt>
      <trkpt lat="36.7359010" lon="-3.7704100">
        <ele>181.0</ele>
        <time>2022-01-08T15:00:19Z</time>
      </trkpt>
      <trkpt lat="36.7358600" lon="-3.7703570">
        <ele>181.0</ele>
        <time>2022-01-08T15:00:20Z</time>
      </trkpt>
      <trkpt lat="36.7358440" lon="-3.7703300">
        <ele>181.0</ele>
        <time>2022-01-08T15:00:21Z</time>
      </trkpt>
      <trkpt lat="36.7358280" lon="-3.7703020">
        <ele>181.0</ele>
        <time>2022-01-08T15:00:22Z</time>
      </trkpt>
      <trkpt lat="36.7358100" lon="-3.7702790">
        <ele>181.0</ele>
        <time>2022-01-08T15:00:23Z</time>
      </trkpt>
      <trkpt lat="36.7357920" lon="-3.7702520">
        <ele>181.0</ele>
        <time>2022-01-08T15:00:24Z</time>
      </trkpt>
      <trkpt lat="36.7357750" lon="-3.7702280">
        <ele>181.0</ele>
        <time>2022-01-08T15:00:25Z</time>
      </trkpt>
      <trkpt lat="36.7357530" lon="-3.7702040">
        <ele>181.0</ele>
        <time>2022-01-08T15:00:26Z</time>
      </trkpt>
      <trkpt lat="36.7357310" lon="-3.7701780">
        <ele>181.0</ele>
        <time>2022-01-08T15:00:27Z</time>
      </trkpt>
      <trkpt lat="36.7357090" lon="-3.7701530">
        <ele>182.0</ele>
        <time>2022-01-08T15:00:28Z</time>
      </trkpt>
      <trkpt lat="36.7356890" lon="-3.7701310">
        <ele>182.0</ele>
        <time>2022-01-08T15:00:29Z</time>
      </trkpt>
      <trkpt lat="36.7356670" lon="-3.7701130">
        <ele>182.0</ele>
        <time>2022-01-08T15:00:30Z</time>
      </trkpt>
      <trkpt lat="36.7356670" lon="-3.7701130">
        <ele>182.0</ele>
        <time>2022-01-08T15:00:31Z</time>
      </trkpt>
      <trkpt lat="36.7356090" lon="-3.7700650">
        <ele>182.0</ele>
        <time>2022-01-08T15:00:32Z</time>
      </trkpt>
      <trkpt lat="36.7355750" lon="-3.7700520">
        <ele>182.0</ele>
        <time>2022-01-08T15:00:33Z</time>
      </trkpt>
      <trkpt lat="36.7355450" lon="-3.7700510">
        <ele>181.0</ele>
        <time>2022-01-08T15:00:34Z</time>
      </trkpt>
      <trkpt lat="36.7355180" lon="-3.7700520">
        <ele>181.0</ele>
        <time>2022-01-08T15:00:35Z</time>
      </trkpt>
      <trkpt lat="36.7355180" lon="-3.7700520">
        <ele>181.0</ele>
        <time>2022-01-08T15:00:36Z</time>
      </trkpt>
      <trkpt lat="36.7354630" lon="-3.7700470">
        <ele>182.0</ele>
        <time>2022-01-08T15:00:37Z</time>
      </trkpt>
      <trkpt lat="36.7354360" lon="-3.7700440">
        <ele>182.0</ele>
        <time>2022-01-08T15:00:38Z</time>
      </trkpt>
      <trkpt lat="36.7354110" lon="-3.7700460">
        <ele>182.0</ele>
        <time>2022-01-08T15:00:39Z</time>
      </trkpt>
      <trkpt lat="36.7353900" lon="-3.7700450">
        <ele>182.0</ele>
        <time>2022-01-08T15:00:40Z</time>
      </trkpt>
      <trkpt lat="36.7353690" lon="-3.7700420">
        <ele>182.0</ele>
        <time>2022-01-08T15:00:41Z</time>
      </trkpt>
      <trkpt lat="36.7353490" lon="-3.7700430">
        <ele>182.0</ele>
        <time>2022-01-08T15:00:42Z</time>
      </trkpt>
      <trkpt lat="36.7353280" lon="-3.7700450">
        <ele>182.0</ele>
        <time>2022-01-08T15:00:43Z</time>
      </trkpt>
      <trkpt lat="36.7353280" lon="-3.7700450">
        <ele>183.0</ele>
        <time>2022-01-08T15:00:44Z</time>
      </trkpt>
      <trkpt lat="36.7352930" lon="-3.7700410">
        <ele>183.0</ele>
        <time>2022-01-08T15:00:45Z</time>
      </trkpt>
      <trkpt lat="36.7352930" lon="-3.7700410">
        <ele>183.0</ele>
        <time>2022-01-08T15:00:46Z</time>
      </trkpt>
      <trkpt lat="36.7352650" lon="-3.7700220">
        <ele>183.0</ele>
        <time>2022-01-08T15:00:47Z</time>
      </trkpt>
      <trkpt lat="36.7352650" lon="-3.7700220">
        <ele>183.0</ele>
        <time>2022-01-08T15:00:48Z</time>
      </trkpt>
      <trkpt lat="36.7352380" lon="-3.7699950">
        <ele>183.0</ele>
        <time>2022-01-08T15:00:49Z</time>
      </trkpt>
      <trkpt lat="36.7352380" lon="-3.7699950">
        <ele>183.0</ele>
        <time>2022-01-08T15:00:50Z</time>
      </trkpt>
      <trkpt lat="36.7352120" lon="-3.7699720">
        <ele>183.0</ele>
        <time>2022-01-08T15:00:51Z</time>
      </trkpt>
      <trkpt lat="36.7352120" lon="-3.7699720">
        <ele>183.0</ele>
        <time>2022-01-08T15:00:52Z</time>
      </trkpt>
      <trkpt lat="36.7351970" lon="-3.7699470">
        <ele>183.0</ele>
        <time>2022-01-08T15:00:53Z</time>
      </trkpt>
      <trkpt lat="36.7351970" lon="-3.7699470">
        <ele>183.0</ele>
        <time>2022-01-08T15:00:54Z</time>
      </trkpt>
      <trkpt lat="36.7351930" lon="-3.7699220">
        <ele>183.0</ele>
        <time>2022-01-08T15:00:55Z</time>
      </trkpt>
      <trkpt lat="36.7351930" lon="-3.7699220">
        <ele>183.0</ele>
        <time>2022-01-08T15:00:56Z</time>
      </trkpt>
      <trkpt lat="36.7351900" lon="-3.7698980">
        <ele>183.0</ele>
        <time>2022-01-08T15:00:57Z</time>
      </trkpt>
      <trkpt lat="36.7351900" lon="-3.7698980">
        <ele>183.0</ele>
        <time>2022-01-08T15:00:58Z</time>
      </trkpt>
      <trkpt lat="36.7351830" lon="-3.7698740">
        <ele>183.0</ele>
        <time>2022-01-08T15:00:59Z</time>
      </trkpt>
      <trkpt lat="36.7351830" lon="-3.7698740">
        <ele>183.0</ele>
        <time>2022-01-08T15:01:00Z</time>
      </trkpt>
      <trkpt lat="36.7351830" lon="-3.7698740">
        <ele>183.0</ele>
        <time>2022-01-08T15:01:01Z</time>
      </trkpt>
      <trkpt lat="36.7351830" lon="-3.7698740">
        <ele>184.0</ele>
        <time>2022-01-08T15:01:02Z</time>
      </trkpt>
      <trkpt lat="36.7351830" lon="-3.7698740">
        <ele>184.0</ele>
        <time>2022-01-08T15:01:03Z</time>
      </trkpt>
      <trkpt lat="36.7351830" lon="-3.7698740">
        <ele>185.0</ele>
        <time>2022-01-08T15:01:04Z</time>
      </trkpt>
      <trkpt lat="36.7351830" lon="-3.7698740">
        <ele>185.0</ele>
        <time>2022-01-08T15:01:05Z</time>
      </trkpt>
      <trkpt lat="36.7351830" lon="-3.7698740">
        <ele>185.0</ele>
        <time>2022-01-08T15:01:06Z</time>
      </trkpt>
      <trkpt lat="36.7351680" lon="-3.7698470">
        <ele>185.0</ele>
        <time>2022-01-08T15:01:07Z</time>
      </trkpt>
      <trkpt lat="36.7351680" lon="-3.7698470">
        <ele>185.0</ele>
        <time>2022-01-08T15:01:08Z</time>
      </trkpt>
      <trkpt lat="36.7351650" lon="-3.7698090">
        <ele>185.0</ele>
        <time>2022-01-08T15:01:09Z</time>
      </trkpt>
      <trkpt lat="36.7351650" lon="-3.7698090">
        <ele>185.0</ele>
        <time>2022-01-08T15:01:10Z</time>
      </trkpt>
      <trkpt lat="36.7351690" lon="-3.7697760">
        <ele>184.0</ele>
        <time>2022-01-08T15:01:11Z</time>
      </trkpt>
      <trkpt lat="36.7351690" lon="-3.7697760">
        <ele>184.0</ele>
        <time>2022-01-08T15:01:12Z</time>
      </trkpt>
      <trkpt lat="36.7351730" lon="-3.7697440">
        <ele>184.0</ele>
        <time>2022-01-08T15:01:13Z</time>
      </trkpt>
      <trkpt lat="36.7351730" lon="-3.7697440">
        <ele>184.0</ele>
        <time>2022-01-08T15:01:14Z</time>
      </trkpt>
      <trkpt lat="36.7351690" lon="-3.7697110">
        <ele>185.0</ele>
        <time>2022-01-08T15:01:15Z</time>
      </trkpt>
      <trkpt lat="36.7351690" lon="-3.7697110">
        <ele>185.0</ele>
        <time>2022-01-08T15:01:16Z</time>
      </trkpt>
      <trkpt lat="36.7351600" lon="-3.7696740">
        <ele>185.0</ele>
        <time>2022-01-08T15:01:17Z</time>
      </trkpt>
      <trkpt lat="36.7351600" lon="-3.7696740">
        <ele>185.0</ele>
        <time>2022-01-08T15:01:18Z</time>
      </trkpt>
      <trkpt lat="36.7351530" lon="-3.7696400">
        <ele>185.0</ele>
        <time>2022-01-08T15:01:19Z</time>
      </trkpt>
      <trkpt lat="36.7351530" lon="-3.7696400">
        <ele>185.0</ele>
        <time>2022-01-08T15:01:20Z</time>
      </trkpt>
      <trkpt lat="36.7351360" lon="-3.7696130">
        <ele>185.0</ele>
        <time>2022-01-08T15:01:21Z</time>
      </trkpt>
      <trkpt lat="36.7351360" lon="-3.7696130">
        <ele>185.0</ele>
        <time>2022-01-08T15:01:22Z</time>
      </trkpt>
      <trkpt lat="36.7351240" lon="-3.7695830">
        <ele>185.0</ele>
        <time>2022-01-08T15:01:23Z</time>
      </trkpt>
      <trkpt lat="36.7351240" lon="-3.7695830">
        <ele>185.0</ele>
        <time>2022-01-08T15:01:24Z</time>
      </trkpt>
      <trkpt lat="36.7351150" lon="-3.7695500">
        <ele>186.0</ele>
        <time>2022-01-08T15:01:25Z</time>
      </trkpt>
      <trkpt lat="36.7351150" lon="-3.7695500">
        <ele>186.0</ele>
        <time>2022-01-08T15:01:26Z</time>
      </trkpt>
      <trkpt lat="36.7351100" lon="-3.7695150">
        <ele>186.0</ele>
        <time>2022-01-08T15:01:27Z</time>
      </trkpt>
      <trkpt lat="36.7351100" lon="-3.7695150">
        <ele>186.0</ele>
        <time>2022-01-08T15:01:28Z</time>
      </trkpt>
      <trkpt lat="36.7351010" lon="-3.7694780">
        <ele>186.0</ele>
        <time>2022-01-08T15:01:29Z</time>
      </trkpt>
      <trkpt lat="36.7351010" lon="-3.7694780">
        <ele>186.0</ele>
        <time>2022-01-08T15:01:30Z</time>
      </trkpt>
      <trkpt lat="36.7350930" lon="-3.7694430">
        <ele>186.0</ele>
        <time>2022-01-08T15:01:31Z</time>
      </trkpt>
      <trkpt lat="36.7350930" lon="-3.7694430">
        <ele>186.0</ele>
        <time>2022-01-08T15:01:32Z</time>
      </trkpt>
      <trkpt lat="36.7350850" lon="-3.7694070">
        <ele>186.0</ele>
        <time>2022-01-08T15:01:33Z</time>
      </trkpt>
      <trkpt lat="36.7350850" lon="-3.7694070">
        <ele>186.0</ele>
        <time>2022-01-08T15:01:34Z</time>
      </trkpt>
      <trkpt lat="36.7350820" lon="-3.7693680">
        <ele>186.0</ele>
        <time>2022-01-08T15:01:35Z</time>
      </trkpt>
      <trkpt lat="36.7350780" lon="-3.7693450">
        <ele>187.0</ele>
        <time>2022-01-08T15:01:36Z</time>
      </trkpt>
      <trkpt lat="36.7350670" lon="-3.7693180">
        <ele>187.0</ele>
        <time>2022-01-08T15:01:37Z</time>
      </trkpt>
      <trkpt lat="36.7350610" lon="-3.7692850">
        <ele>188.0</ele>
        <time>2022-01-08T15:01:38Z</time>
      </trkpt>
      <trkpt lat="36.7350530" lon="-3.7692490">
        <ele>188.0</ele>
        <time>2022-01-08T15:01:39Z</time>
      </trkpt>
      <trkpt lat="36.7350520" lon="-3.7692140">
        <ele>188.0</ele>
        <time>2022-01-08T15:01:40Z</time>
      </trkpt>
      <trkpt lat="36.7350500" lon="-3.7691790">
        <ele>188.0</ele>
        <time>2022-01-08T15:01:41Z</time>
      </trkpt>
      <trkpt lat="36.7350440" lon="-3.7691450">
        <ele>188.0</ele>
        <time>2022-01-08T15:01:42Z</time>
      </trkpt>
      <trkpt lat="36.7350380" lon="-3.7691150">
        <ele>189.0</ele>
        <time>2022-01-08T15:01:43Z</time>
      </trkpt>
      <trkpt lat="36.7350290" lon="-3.7690850">
        <ele>189.0</ele>
        <time>2022-01-08T15:01:44Z</time>
      </trkpt>
      <trkpt lat="36.7350240" lon="-3.7690550">
        <ele>189.0</ele>
        <time>2022-01-08T15:01:45Z</time>
      </trkpt>
      <trkpt lat="36.7350200" lon="-3.7690280">
        <ele>189.0</ele>
        <time>2022-01-08T15:01:46Z</time>
      </trkpt>
      <trkpt lat="36.7350130" lon="-3.7689980">
        <ele>189.0</ele>
        <time>2022-01-08T15:01:47Z</time>
      </trkpt>
      <trkpt lat="36.7350070" lon="-3.7689660">
        <ele>189.0</ele>
        <time>2022-01-08T15:01:48Z</time>
      </trkpt>
      <trkpt lat="36.7350010" lon="-3.7689350">
        <ele>189.0</ele>
        <time>2022-01-08T15:01:49Z</time>
      </trkpt>
      <trkpt lat="36.7349940" lon="-3.7689040">
        <ele>189.0</ele>
        <time>2022-01-08T15:01:50Z</time>
      </trkpt>
      <trkpt lat="36.7349850" lon="-3.7688730">
        <ele>189.0</ele>
        <time>2022-01-08T15:01:51Z</time>
      </trkpt>
      <trkpt lat="36.7349810" lon="-3.7688390">
        <ele>189.0</ele>
        <time>2022-01-08T15:01:52Z</time>
      </trkpt>
      <trkpt lat="36.7349700" lon="-3.7688050">
        <ele>190.0</ele>
        <time>2022-01-08T15:01:53Z</time>
      </trkpt>
      <trkpt lat="36.7349620" lon="-3.7687730">
        <ele>190.0</ele>
        <time>2022-01-08T15:01:54Z</time>
      </trkpt>
      <trkpt lat="36.7349550" lon="-3.7687410">
        <ele>190.0</ele>
        <time>2022-01-08T15:01:55Z</time>
      </trkpt>
      <trkpt lat="36.7349490" lon="-3.7687090">
        <ele>191.0</ele>
        <time>2022-01-08T15:01:56Z</time>
      </trkpt>
      <trkpt lat="36.7349390" lon="-3.7686760">
        <ele>191.0</ele>
        <time>2022-01-08T15:01:57Z</time>
      </trkpt>
      <trkpt lat="36.7349320" lon="-3.7686470">
        <ele>191.0</ele>
        <time>2022-01-08T15:01:58Z</time>
      </trkpt>
      <trkpt lat="36.7349220" lon="-3.7686190">
        <ele>191.0</ele>
        <time>2022-01-08T15:01:59Z</time>
      </trkpt>
      <trkpt lat="36.7349140" lon="-3.7685890">
        <ele>191.0</ele>
        <time>2022-01-08T15:02:00Z</time>
      </trkpt>
      <trkpt lat="36.7349140" lon="-3.7685890">
        <ele>191.0</ele>
        <time>2022-01-08T15:02:01Z</time>
      </trkpt>
      <trkpt lat="36.7348870" lon="-3.7685400">
        <ele>191.0</ele>
        <time>2022-01-08T15:02:02Z</time>
      </trkpt>
      <trkpt lat="36.7348720" lon="-3.7685160">
        <ele>191.0</ele>
        <time>2022-01-08T15:02:03Z</time>
      </trkpt>
      <trkpt lat="36.7348590" lon="-3.7684910">
        <ele>191.0</ele>
        <time>2022-01-08T15:02:04Z</time>
      </trkpt>
      <trkpt lat="36.7348470" lon="-3.7684670">
        <ele>191.0</ele>
        <time>2022-01-08T15:02:05Z</time>
      </trkpt>
      <trkpt lat="36.7348360" lon="-3.7684420">
        <ele>191.0</ele>
        <time>2022-01-08T15:02:06Z</time>
      </trkpt>
      <trkpt lat="36.7348210" lon="-3.7684160">
        <ele>191.0</ele>
        <time>2022-01-08T15:02:07Z</time>
      </trkpt>
      <trkpt lat="36.7348080" lon="-3.7683920">
        <ele>191.0</ele>
        <time>2022-01-08T15:02:08Z</time>
      </trkpt>
      <trkpt lat="36.7347930" lon="-3.7683670">
        <ele>192.0</ele>
        <time>2022-01-08T15:02:09Z</time>
      </trkpt>
      <trkpt lat="36.7347780" lon="-3.7683430">
        <ele>192.0</ele>
        <time>2022-01-08T15:02:10Z</time>
      </trkpt>
      <trkpt lat="36.7347610" lon="-3.7683170">
        <ele>192.0</ele>
        <time>2022-01-08T15:02:11Z</time>
      </trkpt>
      <trkpt lat="36.7347440" lon="-3.7682930">
        <ele>193.0</ele>
        <time>2022-01-08T15:02:12Z</time>
      </trkpt>
      <trkpt lat="36.7347270" lon="-3.7682700">
        <ele>193.0</ele>
        <time>2022-01-08T15:02:13Z</time>
      </trkpt>
      <trkpt lat="36.7347110" lon="-3.7682430">
        <ele>193.0</ele>
        <time>2022-01-08T15:02:14Z</time>
      </trkpt>
      <trkpt lat="36.7346960" lon="-3.7682200">
        <ele>193.0</ele>
        <time>2022-01-08T15:02:15Z</time>
      </trkpt>
      <trkpt lat="36.7346790" lon="-3.7681960">
        <ele>194.0</ele>
        <time>2022-01-08T15:02:16Z</time>
      </trkpt>
      <trkpt lat="36.7346670" lon="-3.7681680">
        <ele>194.0</ele>
        <time>2022-01-08T15:02:17Z</time>
      </trkpt>
      <trkpt lat="36.7346560" lon="-3.7681390">
        <ele>194.0</ele>
        <time>2022-01-08T15:02:18Z</time>
      </trkpt>
      <trkpt lat="36.7346450" lon="-3.7681100">
        <ele>194.0</ele>
        <time>2022-01-08T15:02:19Z</time>
      </trkpt>
      <trkpt lat="36.7346290" lon="-3.7680800">
        <ele>195.0</ele>
        <time>2022-01-08T15:02:20Z</time>
      </trkpt>
      <trkpt lat="36.7346140" lon="-3.7680510">
        <ele>195.0</ele>
        <time>2022-01-08T15:02:21Z</time>
      </trkpt>
      <trkpt lat="36.7345970" lon="-3.7680220">
        <ele>195.0</ele>
        <time>2022-01-08T15:02:22Z</time>
      </trkpt>
      <trkpt lat="36.7345800" lon="-3.7679940">
        <ele>195.0</ele>
        <time>2022-01-08T15:02:23Z</time>
      </trkpt>
      <trkpt lat="36.7345660" lon="-3.7679710">
        <ele>196.0</ele>
        <time>2022-01-08T15:02:24Z</time>
      </trkpt>
      <trkpt lat="36.7345530" lon="-3.7679420">
        <ele>196.0</ele>
        <time>2022-01-08T15:02:25Z</time>
      </trkpt>
      <trkpt lat="36.7345400" lon="-3.7679150">
        <ele>196.0</ele>
        <time>2022-01-08T15:02:26Z</time>
      </trkpt>
      <trkpt lat="36.7345260" lon="-3.7678910">
        <ele>196.0</ele>
        <time>2022-01-08T15:02:27Z</time>
      </trkpt>
      <trkpt lat="36.7345110" lon="-3.7678620">
        <ele>196.0</ele>
        <time>2022-01-08T15:02:28Z</time>
      </trkpt>
      <trkpt lat="36.7344960" lon="-3.7678360">
        <ele>196.0</ele>
        <time>2022-01-08T15:02:29Z</time>
      </trkpt>
      <trkpt lat="36.7344890" lon="-3.7678110">
        <ele>197.0</ele>
        <time>2022-01-08T15:02:30Z</time>
      </trkpt>
      <trkpt lat="36.7344830" lon="-3.7677850">
        <ele>197.0</ele>
        <time>2022-01-08T15:02:31Z</time>
      </trkpt>
      <trkpt lat="36.7344830" lon="-3.7677850">
        <ele>197.0</ele>
        <time>2022-01-08T15:02:32Z</time>
      </trkpt>
      <trkpt lat="36.7344730" lon="-3.7677530">
        <ele>198.0</ele>
        <time>2022-01-08T15:02:33Z</time>
      </trkpt>
      <trkpt lat="36.7344730" lon="-3.7677530">
        <ele>198.0</ele>
        <time>2022-01-08T15:02:34Z</time>
      </trkpt>
      <trkpt lat="36.7344610" lon="-3.7677250">
        <ele>198.0</ele>
        <time>2022-01-08T15:02:35Z</time>
      </trkpt>
      <trkpt lat="36.7344610" lon="-3.7677250">
        <ele>198.0</ele>
        <time>2022-01-08T15:02:36Z</time>
      </trkpt>
      <trkpt lat="36.7344580" lon="-3.7676920">
        <ele>198.0</ele>
        <time>2022-01-08T15:02:37Z</time>
      </trkpt>
      <trkpt lat="36.7344580" lon="-3.7676920">
        <ele>198.0</ele>
        <time>2022-01-08T15:02:38Z</time>
      </trkpt>
      <trkpt lat="36.7344510" lon="-3.7676660">
        <ele>198.0</ele>
        <time>2022-01-08T15:02:39Z</time>
      </trkpt>
      <trkpt lat="36.7344510" lon="-3.7676660">
        <ele>198.0</ele>
        <time>2022-01-08T15:02:40Z</time>
      </trkpt>
      <trkpt lat="36.7344480" lon="-3.7676410">
        <ele>198.0</ele>
        <time>2022-01-08T15:02:41Z</time>
      </trkpt>
      <trkpt lat="36.7344480" lon="-3.7676410">
        <ele>198.0</ele>
        <time>2022-01-08T15:02:42Z</time>
      </trkpt>
      <trkpt lat="36.7344480" lon="-3.7676410">
        <ele>198.0</ele>
        <time>2022-01-08T15:02:43Z</time>
      </trkpt>
      <trkpt lat="36.7344540" lon="-3.7676160">
        <ele>198.0</ele>
        <time>2022-01-08T15:02:44Z</time>
      </trkpt>
      <trkpt lat="36.7344540" lon="-3.7676160">
        <ele>198.0</ele>
        <time>2022-01-08T15:02:45Z</time>
      </trkpt>
      <trkpt lat="36.7344390" lon="-3.7675910">
        <ele>199.0</ele>
        <time>2022-01-08T15:02:46Z</time>
      </trkpt>
      <trkpt lat="36.7344390" lon="-3.7675910">
        <ele>199.0</ele>
        <time>2022-01-08T15:02:47Z</time>
      </trkpt>
      <trkpt lat="36.7344200" lon="-3.7675820">
        <ele>199.0</ele>
        <time>2022-01-08T15:02:48Z</time>
      </trkpt>
      <trkpt lat="36.7344200" lon="-3.7675820">
        <ele>199.0</ele>
        <time>2022-01-08T15:02:49Z</time>
      </trkpt>
      <trkpt lat="36.7344200" lon="-3.7675820">
        <ele>199.0</ele>
        <time>2022-01-08T15:02:50Z</time>
      </trkpt>
      <trkpt lat="36.7344000" lon="-3.7675650">
        <ele>199.0</ele>
        <time>2022-01-08T15:02:51Z</time>
      </trkpt>
      <trkpt lat="36.7344000" lon="-3.7675650">
        <ele>199.0</ele>
        <time>2022-01-08T15:02:52Z</time>
      </trkpt>
      <trkpt lat="36.7344010" lon="-3.7675380">
        <ele>199.0</ele>
        <time>2022-01-08T15:02:53Z</time>
      </trkpt>
      <trkpt lat="36.7344010" lon="-3.7675380">
        <ele>199.0</ele>
        <time>2022-01-08T15:02:54Z</time>
      </trkpt>
      <trkpt lat="36.7343930" lon="-3.7675100">
        <ele>199.0</ele>
        <time>2022-01-08T15:02:55Z</time>
      </trkpt>
      <trkpt lat="36.7343930" lon="-3.7675100">
        <ele>199.0</ele>
        <time>2022-01-08T15:02:56Z</time>
      </trkpt>
      <trkpt lat="36.7343720" lon="-3.7674950">
        <ele>199.0</ele>
        <time>2022-01-08T15:02:57Z</time>
      </trkpt>
      <trkpt lat="36.7343720" lon="-3.7674950">
        <ele>199.0</ele>
        <time>2022-01-08T15:02:58Z</time>
      </trkpt>
      <trkpt lat="36.7343490" lon="-3.7674840">
        <ele>199.0</ele>
        <time>2022-01-08T15:02:59Z</time>
      </trkpt>
      <trkpt lat="36.7343490" lon="-3.7674840">
        <ele>200.0</ele>
        <time>2022-01-08T15:03:00Z</time>
      </trkpt>
      <trkpt lat="36.7343310" lon="-3.7674740">
        <ele>200.0</ele>
        <time>2022-01-08T15:03:01Z</time>
      </trkpt>
      <trkpt lat="36.7343310" lon="-3.7674740">
        <ele>200.0</ele>
        <time>2022-01-08T15:03:02Z</time>
      </trkpt>
      <trkpt lat="36.7343060" lon="-3.7674580">
        <ele>200.0</ele>
        <time>2022-01-08T15:03:03Z</time>
      </trkpt>
      <trkpt lat="36.7342870" lon="-3.7674520">
        <ele>200.0</ele>
        <time>2022-01-08T15:03:04Z</time>
      </trkpt>
      <trkpt lat="36.7342870" lon="-3.7674520">
        <ele>200.0</ele>
        <time>2022-01-08T15:03:05Z</time>
      </trkpt>
      <trkpt lat="36.7342540" lon="-3.7674470">
        <ele>199.0</ele>
        <time>2022-01-08T15:03:06Z</time>
      </trkpt>
      <trkpt lat="36.7342540" lon="-3.7674470">
        <ele>200.0</ele>
        <time>2022-01-08T15:03:07Z</time>
      </trkpt>
      <trkpt lat="36.7342260" lon="-3.7674490">
        <ele>200.0</ele>
        <time>2022-01-08T15:03:08Z</time>
      </trkpt>
      <trkpt lat="36.7342260" lon="-3.7674490">
        <ele>200.0</ele>
        <time>2022-01-08T15:03:09Z</time>
      </trkpt>
      <trkpt lat="36.7342260" lon="-3.7674490">
        <ele>201.0</ele>
        <time>2022-01-08T15:03:10Z</time>
      </trkpt>
      <trkpt lat="36.7342080" lon="-3.7674590">
        <ele>201.0</ele>
        <time>2022-01-08T15:03:11Z</time>
      </trkpt>
      <trkpt lat="36.7342080" lon="-3.7674590">
        <ele>201.0</ele>
        <time>2022-01-08T15:03:12Z</time>
      </trkpt>
      <trkpt lat="36.7342080" lon="-3.7674590">
        <ele>202.0</ele>
        <time>2022-01-08T15:03:13Z</time>
      </trkpt>
      <trkpt lat="36.7342080" lon="-3.7674590">
        <ele>202.0</ele>
        <time>2022-01-08T15:03:14Z</time>
      </trkpt>
      <trkpt lat="36.7341870" lon="-3.7674710">
        <ele>202.0</ele>
        <time>2022-01-08T15:03:15Z</time>
      </trkpt>
      <trkpt lat="36.7341870" lon="-3.7674710">
        <ele>203.0</ele>
        <time>2022-01-08T15:03:16Z</time>
      </trkpt>
      <trkpt lat="36.7341710" lon="-3.7674460">
        <ele>203.0</ele>
        <time>2022-01-08T15:03:17Z</time>
      </trkpt>
      <trkpt lat="36.7341710" lon="-3.7674460">
        <ele>203.0</ele>
        <time>2022-01-08T15:03:18Z</time>
      </trkpt>
      <trkpt lat="36.7341500" lon="-3.7674240">
        <ele>204.0</ele>
        <time>2022-01-08T15:03:19Z</time>
      </trkpt>
      <trkpt lat="36.7341500" lon="-3.7674240">
        <ele>204.0</ele>
        <time>2022-01-08T15:03:20Z</time>
      </trkpt>
      <trkpt lat="36.7341500" lon="-3.7674240">
        <ele>204.0</ele>
        <time>2022-01-08T15:03:21Z</time>
      </trkpt>
      <trkpt lat="36.7341220" lon="-3.7674090">
        <ele>204.0</ele>
        <time>2022-01-08T15:03:22Z</time>
      </trkpt>
      <trkpt lat="36.7340990" lon="-3.7673970">
        <ele>204.0</ele>
        <time>2022-01-08T15:03:23Z</time>
      </trkpt>
      <trkpt lat="36.7340990" lon="-3.7673970">
        <ele>205.0</ele>
        <time>2022-01-08T15:03:24Z</time>
      </trkpt>
      <trkpt lat="36.7340800" lon="-3.7673870">
        <ele>205.0</ele>
        <time>2022-01-08T15:03:25Z</time>
      </trkpt>
      <trkpt lat="36.7340800" lon="-3.7673870">
        <ele>205.0</ele>
        <time>2022-01-08T15:03:26Z</time>
      </trkpt>
      <trkpt lat="36.7340600" lon="-3.7673680">
        <ele>205.0</ele>
        <time>2022-01-08T15:03:27Z</time>
      </trkpt>
      <trkpt lat="36.7340600" lon="-3.7673680">
        <ele>205.0</ele>
        <time>2022-01-08T15:03:28Z</time>
      </trkpt>
      <trkpt lat="36.7340390" lon="-3.7673500">
        <ele>205.0</ele>
        <time>2022-01-08T15:03:29Z</time>
      </trkpt>
      <trkpt lat="36.7340390" lon="-3.7673500">
        <ele>206.0</ele>
        <time>2022-01-08T15:03:30Z</time>
      </trkpt>
      <trkpt lat="36.7340120" lon="-3.7673320">
        <ele>206.0</ele>
        <time>2022-01-08T15:03:31Z</time>
      </trkpt>
      <trkpt lat="36.7340120" lon="-3.7673320">
        <ele>206.0</ele>
        <time>2022-01-08T15:03:32Z</time>
      </trkpt>
      <trkpt lat="36.7339830" lon="-3.7673180">
        <ele>207.0</ele>
        <time>2022-01-08T15:03:33Z</time>
      </trkpt>
      <trkpt lat="36.7339830" lon="-3.7673180">
        <ele>207.0</ele>
        <time>2022-01-08T15:03:34Z</time>
      </trkpt>
      <trkpt lat="36.7339600" lon="-3.7673060">
        <ele>207.0</ele>
        <time>2022-01-08T15:03:35Z</time>
      </trkpt>
      <trkpt lat="36.7339600" lon="-3.7673060">
        <ele>207.0</ele>
        <time>2022-01-08T15:03:36Z</time>
      </trkpt>
      <trkpt lat="36.7339400" lon="-3.7672910">
        <ele>207.0</ele>
        <time>2022-01-08T15:03:37Z</time>
      </trkpt>
      <trkpt lat="36.7339400" lon="-3.7672910">
        <ele>208.0</ele>
        <time>2022-01-08T15:03:38Z</time>
      </trkpt>
      <trkpt lat="36.7339400" lon="-3.7672910">
        <ele>209.0</ele>
        <time>2022-01-08T15:03:39Z</time>
      </trkpt>
      <trkpt lat="36.7339400" lon="-3.7672910">
        <ele>209.0</ele>
        <time>2022-01-08T15:03:40Z</time>
      </trkpt>
      <trkpt lat="36.7339150" lon="-3.7672880">
        <ele>209.0</ele>
        <time>2022-01-08T15:03:41Z</time>
      </trkpt>
      <trkpt lat="36.7339150" lon="-3.7672880">
        <ele>209.0</ele>
        <time>2022-01-08T15:03:42Z</time>
      </trkpt>
      <trkpt lat="36.7338950" lon="-3.7672850">
        <ele>210.0</ele>
        <time>2022-01-08T15:03:43Z</time>
      </trkpt>
      <trkpt lat="36.7338950" lon="-3.7672850">
        <ele>210.0</ele>
        <time>2022-01-08T15:03:44Z</time>
      </trkpt>
      <trkpt lat="36.7338950" lon="-3.7672850">
        <ele>210.0</ele>
        <time>2022-01-08T15:03:45Z</time>
      </trkpt>
      <trkpt lat="36.7338690" lon="-3.7672780">
        <ele>210.0</ele>
        <time>2022-01-08T15:03:46Z</time>
      </trkpt>
      <trkpt lat="36.7338690" lon="-3.7672780">
        <ele>211.0</ele>
        <time>2022-01-08T15:03:47Z</time>
      </trkpt>
      <trkpt lat="36.7338520" lon="-3.7672620">
        <ele>211.0</ele>
        <time>2022-01-08T15:03:48Z</time>
      </trkpt>
      <trkpt lat="36.7338520" lon="-3.7672620">
        <ele>211.0</ele>
        <time>2022-01-08T15:03:49Z</time>
      </trkpt>
      <trkpt lat="36.7338350" lon="-3.7672440">
        <ele>211.0</ele>
        <time>2022-01-08T15:03:50Z</time>
      </trkpt>
      <trkpt lat="36.7338350" lon="-3.7672440">
        <ele>211.0</ele>
        <time>2022-01-08T15:03:51Z</time>
      </trkpt>
      <trkpt lat="36.7338170" lon="-3.7672200">
        <ele>211.0</ele>
        <time>2022-01-08T15:03:52Z</time>
      </trkpt>
      <trkpt lat="36.7338170" lon="-3.7672200">
        <ele>212.0</ele>
        <time>2022-01-08T15:03:53Z</time>
      </trkpt>
      <trkpt lat="36.7338010" lon="-3.7671970">
        <ele>212.0</ele>
        <time>2022-01-08T15:03:54Z</time>
      </trkpt>
      <trkpt lat="36.7338010" lon="-3.7671970">
        <ele>212.0</ele>
        <time>2022-01-08T15:03:55Z</time>
      </trkpt>
      <trkpt lat="36.7337890" lon="-3.7671790">
        <ele>212.0</ele>
        <time>2022-01-08T15:03:56Z</time>
      </trkpt>
      <trkpt lat="36.7337890" lon="-3.7671790">
        <ele>213.0</ele>
        <time>2022-01-08T15:03:57Z</time>
      </trkpt>
      <trkpt lat="36.7337690" lon="-3.7671740">
        <ele>213.0</ele>
        <time>2022-01-08T15:03:58Z</time>
      </trkpt>
      <trkpt lat="36.7337690" lon="-3.7671740">
        <ele>213.0</ele>
        <time>2022-01-08T15:03:59Z</time>
      </trkpt>
      <trkpt lat="36.7337690" lon="-3.7671740">
        <ele>213.0</ele>
        <time>2022-01-08T15:04:00Z</time>
      </trkpt>
      <trkpt lat="36.7337480" lon="-3.7671840">
        <ele>213.0</ele>
        <time>2022-01-08T15:04:01Z</time>
      </trkpt>
      <trkpt lat="36.7337480" lon="-3.7671840">
        <ele>214.0</ele>
        <time>2022-01-08T15:04:02Z</time>
      </trkpt>
      <trkpt lat="36.7337480" lon="-3.7671840">
        <ele>214.0</ele>
        <time>2022-01-08T15:04:03Z</time>
      </trkpt>
      <trkpt lat="36.7337240" lon="-3.7671670">
        <ele>214.0</ele>
        <time>2022-01-08T15:04:04Z</time>
      </trkpt>
      <trkpt lat="36.7337240" lon="-3.7671670">
        <ele>214.0</ele>
        <time>2022-01-08T15:04:05Z</time>
      </trkpt>
      <trkpt lat="36.7337020" lon="-3.7671700">
        <ele>215.0</ele>
        <time>2022-01-08T15:04:06Z</time>
      </trkpt>
      <trkpt lat="36.7337020" lon="-3.7671700">
        <ele>215.0</ele>
        <time>2022-01-08T15:04:07Z</time>
      </trkpt>
      <trkpt lat="36.7336810" lon="-3.7671740">
        <ele>215.0</ele>
        <time>2022-01-08T15:04:08Z</time>
      </trkpt>
      <trkpt lat="36.7336810" lon="-3.7671740">
        <ele>215.0</ele>
        <time>2022-01-08T15:04:09Z</time>
      </trkpt>
      <trkpt lat="36.7336620" lon="-3.7671740">
        <ele>216.0</ele>
        <time>2022-01-08T15:04:10Z</time>
      </trkpt>
      <trkpt lat="36.7336620" lon="-3.7671740">
        <ele>216.0</ele>
        <time>2022-01-08T15:04:11Z</time>
      </trkpt>
      <trkpt lat="36.7336430" lon="-3.7671720">
        <ele>217.0</ele>
        <time>2022-01-08T15:04:12Z</time>
      </trkpt>
      <trkpt lat="36.7336430" lon="-3.7671720">
        <ele>217.0</ele>
        <time>2022-01-08T15:04:13Z</time>
      </trkpt>
      <trkpt lat="36.7336200" lon="-3.7671680">
        <ele>217.0</ele>
        <time>2022-01-08T15:04:14Z</time>
      </trkpt>
      <trkpt lat="36.7336200" lon="-3.7671680">
        <ele>217.0</ele>
        <time>2022-01-08T15:04:15Z</time>
      </trkpt>
      <trkpt lat="36.7335980" lon="-3.7671570">
        <ele>217.0</ele>
        <time>2022-01-08T15:04:16Z</time>
      </trkpt>
      <trkpt lat="36.7335980" lon="-3.7671570">
        <ele>217.0</ele>
        <time>2022-01-08T15:04:17Z</time>
      </trkpt>
      <trkpt lat="36.7335980" lon="-3.7671570">
        <ele>217.0</ele>
        <time>2022-01-08T15:04:18Z</time>
      </trkpt>
      <trkpt lat="36.7335670" lon="-3.7671620">
        <ele>218.0</ele>
        <time>2022-01-08T15:04:19Z</time>
      </trkpt>
      <trkpt lat="36.7335450" lon="-3.7671720">
        <ele>218.0</ele>
        <time>2022-01-08T15:04:20Z</time>
      </trkpt>
      <trkpt lat="36.7335450" lon="-3.7671720">
        <ele>219.0</ele>
        <time>2022-01-08T15:04:21Z</time>
      </trkpt>
      <trkpt lat="36.7335170" lon="-3.7671790">
        <ele>219.0</ele>
        <time>2022-01-08T15:04:22Z</time>
      </trkpt>
      <trkpt lat="36.7335170" lon="-3.7671790">
        <ele>219.0</ele>
        <time>2022-01-08T15:04:23Z</time>
      </trkpt>
      <trkpt lat="36.7334910" lon="-3.7671870">
        <ele>219.0</ele>
        <time>2022-01-08T15:04:24Z</time>
      </trkpt>
      <trkpt lat="36.7334910" lon="-3.7671870">
        <ele>219.0</ele>
        <time>2022-01-08T15:04:25Z</time>
      </trkpt>
      <trkpt lat="36.7334680" lon="-3.7672020">
        <ele>219.0</ele>
        <time>2022-01-08T15:04:26Z</time>
      </trkpt>
      <trkpt lat="36.7334680" lon="-3.7672020">
        <ele>219.0</ele>
        <time>2022-01-08T15:04:27Z</time>
      </trkpt>
      <trkpt lat="36.7334430" lon="-3.7672170">
        <ele>219.0</ele>
        <time>2022-01-08T15:04:28Z</time>
      </trkpt>
      <trkpt lat="36.7334430" lon="-3.7672170">
        <ele>219.0</ele>
        <time>2022-01-08T15:04:29Z</time>
      </trkpt>
      <trkpt lat="36.7334250" lon="-3.7672330">
        <ele>219.0</ele>
        <time>2022-01-08T15:04:30Z</time>
      </trkpt>
      <trkpt lat="36.7334250" lon="-3.7672330">
        <ele>219.0</ele>
        <time>2022-01-08T15:04:31Z</time>
      </trkpt>
      <trkpt lat="36.7334030" lon="-3.7672400">
        <ele>219.0</ele>
        <time>2022-01-08T15:04:32Z</time>
      </trkpt>
      <trkpt lat="36.7334030" lon="-3.7672400">
        <ele>220.0</ele>
        <time>2022-01-08T15:04:33Z</time>
      </trkpt>
      <trkpt lat="36.7333820" lon="-3.7672540">
        <ele>220.0</ele>
        <time>2022-01-08T15:04:34Z</time>
      </trkpt>
      <trkpt lat="36.7333820" lon="-3.7672540">
        <ele>220.0</ele>
        <time>2022-01-08T15:04:35Z</time>
      </trkpt>
      <trkpt lat="36.7333720" lon="-3.7672840">
        <ele>220.0</ele>
        <time>2022-01-08T15:04:36Z</time>
      </trkpt>
      <trkpt lat="36.7333720" lon="-3.7672840">
        <ele>221.0</ele>
        <time>2022-01-08T15:04:37Z</time>
      </trkpt>
      <trkpt lat="36.7333610" lon="-3.7673100">
        <ele>221.0</ele>
        <time>2022-01-08T15:04:38Z</time>
      </trkpt>
      <trkpt lat="36.7333610" lon="-3.7673100">
        <ele>221.0</ele>
        <time>2022-01-08T15:04:39Z</time>
      </trkpt>
      <trkpt lat="36.7333370" lon="-3.7673240">
        <ele>221.0</ele>
        <time>2022-01-08T15:04:40Z</time>
      </trkpt>
      <trkpt lat="36.7333370" lon="-3.7673240">
        <ele>221.0</ele>
        <time>2022-01-08T15:04:41Z</time>
      </trkpt>
      <trkpt lat="36.7333080" lon="-3.7673260">
        <ele>221.0</ele>
        <time>2022-01-08T15:04:42Z</time>
      </trkpt>
      <trkpt lat="36.7332890" lon="-3.7673300">
        <ele>221.0</ele>
        <time>2022-01-08T15:04:43Z</time>
      </trkpt>
      <trkpt lat="36.7332720" lon="-3.7673380">
        <ele>221.0</ele>
        <time>2022-01-08T15:04:44Z</time>
      </trkpt>
      <trkpt lat="36.7332540" lon="-3.7673480">
        <ele>221.0</ele>
        <time>2022-01-08T15:04:45Z</time>
      </trkpt>
      <trkpt lat="36.7332340" lon="-3.7673530">
        <ele>221.0</ele>
        <time>2022-01-08T15:04:46Z</time>
      </trkpt>
      <trkpt lat="36.7332110" lon="-3.7673550">
        <ele>221.0</ele>
        <time>2022-01-08T15:04:47Z</time>
      </trkpt>
      <trkpt lat="36.7331830" lon="-3.7673620">
        <ele>221.0</ele>
        <time>2022-01-08T15:04:48Z</time>
      </trkpt>
      <trkpt lat="36.7331570" lon="-3.7673650">
        <ele>221.0</ele>
        <time>2022-01-08T15:04:49Z</time>
      </trkpt>
      <trkpt lat="36.7331310" lon="-3.7673590">
        <ele>221.0</ele>
        <time>2022-01-08T15:04:50Z</time>
      </trkpt>
      <trkpt lat="36.7331020" lon="-3.7673520">
        <ele>221.0</ele>
        <time>2022-01-08T15:04:51Z</time>
      </trkpt>
      <trkpt lat="36.7330770" lon="-3.7673480">
        <ele>221.0</ele>
        <time>2022-01-08T15:04:52Z</time>
      </trkpt>
      <trkpt lat="36.7330770" lon="-3.7673480">
        <ele>221.0</ele>
        <time>2022-01-08T15:04:53Z</time>
      </trkpt>
      <trkpt lat="36.7330360" lon="-3.7673390">
        <ele>221.0</ele>
        <time>2022-01-08T15:04:54Z</time>
      </trkpt>
      <trkpt lat="36.7330170" lon="-3.7673360">
        <ele>221.0</ele>
        <time>2022-01-08T15:04:55Z</time>
      </trkpt>
      <trkpt lat="36.7330170" lon="-3.7673360">
        <ele>221.0</ele>
        <time>2022-01-08T15:04:56Z</time>
      </trkpt>
      <trkpt lat="36.7329850" lon="-3.7673360">
        <ele>221.0</ele>
        <time>2022-01-08T15:04:57Z</time>
      </trkpt>
      <trkpt lat="36.7329850" lon="-3.7673360">
        <ele>221.0</ele>
        <time>2022-01-08T15:04:58Z</time>
      </trkpt>
      <trkpt lat="36.7329570" lon="-3.7673360">
        <ele>220.0</ele>
        <time>2022-01-08T15:04:59Z</time>
      </trkpt>
      <trkpt lat="36.7329570" lon="-3.7673360">
        <ele>220.0</ele>
        <time>2022-01-08T15:05:00Z</time>
      </trkpt>
      <trkpt lat="36.7329310" lon="-3.7673330">
        <ele>220.0</ele>
        <time>2022-01-08T15:05:01Z</time>
      </trkpt>
      <trkpt lat="36.7329310" lon="-3.7673330">
        <ele>220.0</ele>
        <time>2022-01-08T15:05:02Z</time>
      </trkpt>
      <trkpt lat="36.7328990" lon="-3.7673350">
        <ele>220.0</ele>
        <time>2022-01-08T15:05:03Z</time>
      </trkpt>
      <trkpt lat="36.7328990" lon="-3.7673350">
        <ele>219.0</ele>
        <time>2022-01-08T15:05:04Z</time>
      </trkpt>
      <trkpt lat="36.7328700" lon="-3.7673440">
        <ele>219.0</ele>
        <time>2022-01-08T15:05:05Z</time>
      </trkpt>
      <trkpt lat="36.7328700" lon="-3.7673440">
        <ele>220.0</ele>
        <time>2022-01-08T15:05:06Z</time>
      </trkpt>
      <trkpt lat="36.7328400" lon="-3.7673570">
        <ele>220.0</ele>
        <time>2022-01-08T15:05:07Z</time>
      </trkpt>
      <trkpt lat="36.7328400" lon="-3.7673570">
        <ele>220.0</ele>
        <time>2022-01-08T15:05:08Z</time>
      </trkpt>
      <trkpt lat="36.7328140" lon="-3.7673650">
        <ele>219.0</ele>
        <time>2022-01-08T15:05:09Z</time>
      </trkpt>
      <trkpt lat="36.7328140" lon="-3.7673650">
        <ele>219.0</ele>
        <time>2022-01-08T15:05:10Z</time>
      </trkpt>
      <trkpt lat="36.7327850" lon="-3.7673740">
        <ele>219.0</ele>
        <time>2022-01-08T15:05:11Z</time>
      </trkpt>
      <trkpt lat="36.7327850" lon="-3.7673740">
        <ele>219.0</ele>
        <time>2022-01-08T15:05:12Z</time>
      </trkpt>
      <trkpt lat="36.7327540" lon="-3.7673810">
        <ele>219.0</ele>
        <time>2022-01-08T15:05:13Z</time>
      </trkpt>
      <trkpt lat="36.7327540" lon="-3.7673810">
        <ele>219.0</ele>
        <time>2022-01-08T15:05:14Z</time>
      </trkpt>
      <trkpt lat="36.7327540" lon="-3.7673810">
        <ele>219.0</ele>
        <time>2022-01-08T15:05:15Z</time>
      </trkpt>
      <trkpt lat="36.7327200" lon="-3.7673900">
        <ele>219.0</ele>
        <time>2022-01-08T15:05:16Z</time>
      </trkpt>
      <trkpt lat="36.7326890" lon="-3.7673890">
        <ele>219.0</ele>
        <time>2022-01-08T15:05:17Z</time>
      </trkpt>
      <trkpt lat="36.7326890" lon="-3.7673890">
        <ele>219.0</ele>
        <time>2022-01-08T15:05:18Z</time>
      </trkpt>
      <trkpt lat="36.7326560" lon="-3.7673780">
        <ele>218.0</ele>
        <time>2022-01-08T15:05:19Z</time>
      </trkpt>
      <trkpt lat="36.7326560" lon="-3.7673780">
        <ele>218.0</ele>
        <time>2022-01-08T15:05:20Z</time>
      </trkpt>
      <trkpt lat="36.7326240" lon="-3.7673710">
        <ele>218.0</ele>
        <time>2022-01-08T15:05:21Z</time>
      </trkpt>
      <trkpt lat="36.7326240" lon="-3.7673710">
        <ele>218.0</ele>
        <time>2022-01-08T15:05:22Z</time>
      </trkpt>
      <trkpt lat="36.7326070" lon="-3.7673640">
        <ele>218.0</ele>
        <time>2022-01-08T15:05:23Z</time>
      </trkpt>
      <trkpt lat="36.7326070" lon="-3.7673640">
        <ele>218.0</ele>
        <time>2022-01-08T15:05:24Z</time>
      </trkpt>
      <trkpt lat="36.7325850" lon="-3.7673570">
        <ele>218.0</ele>
        <time>2022-01-08T15:05:25Z</time>
      </trkpt>
      <trkpt lat="36.7325850" lon="-3.7673570">
        <ele>218.0</ele>
        <time>2022-01-08T15:05:26Z</time>
      </trkpt>
      <trkpt lat="36.7325620" lon="-3.7673480">
        <ele>218.0</ele>
        <time>2022-01-08T15:05:27Z</time>
      </trkpt>
      <trkpt lat="36.7325620" lon="-3.7673480">
        <ele>219.0</ele>
        <time>2022-01-08T15:05:28Z</time>
      </trkpt>
      <trkpt lat="36.7325420" lon="-3.7673310">
        <ele>219.0</ele>
        <time>2022-01-08T15:05:29Z</time>
      </trkpt>
      <trkpt lat="36.7325420" lon="-3.7673310">
        <ele>219.0</ele>
        <time>2022-01-08T15:05:30Z</time>
      </trkpt>
      <trkpt lat="36.7325180" lon="-3.7673220">
        <ele>219.0</ele>
        <time>2022-01-08T15:05:31Z</time>
      </trkpt>
      <trkpt lat="36.7325180" lon="-3.7673220">
        <ele>219.0</ele>
        <time>2022-01-08T15:05:32Z</time>
      </trkpt>
      <trkpt lat="36.7325180" lon="-3.7673220">
        <ele>220.0</ele>
        <time>2022-01-08T15:05:33Z</time>
      </trkpt>
      <trkpt lat="36.7325180" lon="-3.7673220">
        <ele>220.0</ele>
        <time>2022-01-08T15:05:34Z</time>
      </trkpt>
      <trkpt lat="36.7324920" lon="-3.7673240">
        <ele>220.0</ele>
        <time>2022-01-08T15:05:35Z</time>
      </trkpt>
      <trkpt lat="36.7324740" lon="-3.7673290">
        <ele>220.0</ele>
        <time>2022-01-08T15:05:36Z</time>
      </trkpt>
      <trkpt lat="36.7324740" lon="-3.7673290">
        <ele>220.0</ele>
        <time>2022-01-08T15:05:37Z</time>
      </trkpt>
      <trkpt lat="36.7324610" lon="-3.7673450">
        <ele>219.0</ele>
        <time>2022-01-08T15:05:38Z</time>
      </trkpt>
      <trkpt lat="36.7324610" lon="-3.7673450">
        <ele>219.0</ele>
        <time>2022-01-08T15:05:39Z</time>
      </trkpt>
      <trkpt lat="36.7324380" lon="-3.7673620">
        <ele>219.0</ele>
        <time>2022-01-08T15:05:40Z</time>
      </trkpt>
      <trkpt lat="36.7324380" lon="-3.7673620">
        <ele>219.0</ele>
        <time>2022-01-08T15:05:41Z</time>
      </trkpt>
      <trkpt lat="36.7324290" lon="-3.7673850">
        <ele>219.0</ele>
        <time>2022-01-08T15:05:42Z</time>
      </trkpt>
      <trkpt lat="36.7324290" lon="-3.7673850">
        <ele>219.0</ele>
        <time>2022-01-08T15:05:43Z</time>
      </trkpt>
      <trkpt lat="36.7324180" lon="-3.7674030">
        <ele>219.0</ele>
        <time>2022-01-08T15:05:44Z</time>
      </trkpt>
      <trkpt lat="36.7324180" lon="-3.7674030">
        <ele>218.0</ele>
        <time>2022-01-08T15:05:45Z</time>
      </trkpt>
      <trkpt lat="36.7324180" lon="-3.7674030">
        <ele>218.0</ele>
        <time>2022-01-08T15:05:46Z</time>
      </trkpt>
      <trkpt lat="36.7324180" lon="-3.7674030">
        <ele>218.0</ele>
        <time>2022-01-08T15:05:47Z</time>
      </trkpt>
      <trkpt lat="36.7324140" lon="-3.7674300">
        <ele>217.0</ele>
        <time>2022-01-08T15:05:48Z</time>
      </trkpt>
      <trkpt lat="36.7324140" lon="-3.7674300">
        <ele>217.0</ele>
        <time>2022-01-08T15:05:49Z</time>
      </trkpt>
      <trkpt lat="36.7324140" lon="-3.7674300">
        <ele>217.0</ele>
        <time>2022-01-08T15:05:50Z</time>
      </trkpt>
      <trkpt lat="36.7323970" lon="-3.7674460">
        <ele>216.0</ele>
        <time>2022-01-08T15:05:51Z</time>
      </trkpt>
      <trkpt lat="36.7323970" lon="-3.7674460">
        <ele>216.0</ele>
        <time>2022-01-08T15:05:52Z</time>
      </trkpt>
      <trkpt lat="36.7323970" lon="-3.7674460">
        <ele>216.0</ele>
        <time>2022-01-08T15:05:53Z</time>
      </trkpt>
      <trkpt lat="36.7323700" lon="-3.7674460">
        <ele>216.0</ele>
        <time>2022-01-08T15:05:54Z</time>
      </trkpt>
      <trkpt lat="36.7323700" lon="-3.7674460">
        <ele>216.0</ele>
        <time>2022-01-08T15:05:55Z</time>
      </trkpt>
      <trkpt lat="36.7323490" lon="-3.7674260">
        <ele>216.0</ele>
        <time>2022-01-08T15:05:56Z</time>
      </trkpt>
      <trkpt lat="36.7323490" lon="-3.7674260">
        <ele>216.0</ele>
        <time>2022-01-08T15:05:57Z</time>
      </trkpt>
      <trkpt lat="36.7323300" lon="-3.7674190">
        <ele>217.0</ele>
        <time>2022-01-08T15:05:58Z</time>
      </trkpt>
      <trkpt lat="36.7323300" lon="-3.7674190">
        <ele>217.0</ele>
        <time>2022-01-08T15:05:59Z</time>
      </trkpt>
      <trkpt lat="36.7323300" lon="-3.7674190">
        <ele>217.0</ele>
        <time>2022-01-08T15:06:00Z</time>
      </trkpt>
      <trkpt lat="36.7323080" lon="-3.7674220">
        <ele>217.0</ele>
        <time>2022-01-08T15:06:01Z</time>
      </trkpt>
      <trkpt lat="36.7323080" lon="-3.7674220">
        <ele>217.0</ele>
        <time>2022-01-08T15:06:02Z</time>
      </trkpt>
      <trkpt lat="36.7323080" lon="-3.7674220">
        <ele>217.0</ele>
        <time>2022-01-08T15:06:03Z</time>
      </trkpt>
      <trkpt lat="36.7323080" lon="-3.7674220">
        <ele>218.0</ele>
        <time>2022-01-08T15:06:04Z</time>
      </trkpt>
      <trkpt lat="36.7322970" lon="-3.7674010">
        <ele>219.0</ele>
        <time>2022-01-08T15:06:05Z</time>
      </trkpt>
      <trkpt lat="36.7322970" lon="-3.7674010">
        <ele>219.0</ele>
        <time>2022-01-08T15:06:06Z</time>
      </trkpt>
      <trkpt lat="36.7322970" lon="-3.7674010">
        <ele>218.0</ele>
        <time>2022-01-08T15:06:07Z</time>
      </trkpt>
      <trkpt lat="36.7322970" lon="-3.7674010">
        <ele>218.0</ele>
        <time>2022-01-08T15:06:08Z</time>
      </trkpt>
      <trkpt lat="36.7322970" lon="-3.7674010">
        <ele>218.0</ele>
        <time>2022-01-08T15:08:28Z</time>
      </trkpt>
      <trkpt lat="36.7321530" lon="-3.7674130">
        <ele>218.0</ele>
        <time>2022-01-08T15:08:29Z</time>
      </trkpt>
      <trkpt lat="36.7321530" lon="-3.7674130">
        <ele>218.0</ele>
        <time>2022-01-08T15:08:30Z</time>
      </trkpt>
      <trkpt lat="36.7321350" lon="-3.7674060">
        <ele>218.0</ele>
        <time>2022-01-08T15:08:31Z</time>
      </trkpt>
      <trkpt lat="36.7321130" lon="-3.7674020">
        <ele>218.0</ele>
        <time>2022-01-08T15:08:32Z</time>
      </trkpt>
      <trkpt lat="36.7321130" lon="-3.7674020">
        <ele>217.0</ele>
        <time>2022-01-08T15:08:33Z</time>
      </trkpt>
      <trkpt lat="36.7320900" lon="-3.7673920">
        <ele>217.0</ele>
        <time>2022-01-08T15:08:34Z</time>
      </trkpt>
      <trkpt lat="36.7320900" lon="-3.7673920">
        <ele>216.0</ele>
        <time>2022-01-08T15:08:35Z</time>
      </trkpt>
      <trkpt lat="36.7320680" lon="-3.7673740">
        <ele>216.0</ele>
        <time>2022-01-08T15:08:36Z</time>
      </trkpt>
      <trkpt lat="36.7320680" lon="-3.7673740">
        <ele>216.0</ele>
        <time>2022-01-08T15:08:37Z</time>
      </trkpt>
      <trkpt lat="36.7320680" lon="-3.7673740">
        <ele>216.0</ele>
        <time>2022-01-08T15:08:38Z</time>
      </trkpt>
      <trkpt lat="36.7320450" lon="-3.7673590">
        <ele>215.0</ele>
        <time>2022-01-08T15:08:39Z</time>
      </trkpt>
      <trkpt lat="36.7320450" lon="-3.7673590">
        <ele>215.0</ele>
        <time>2022-01-08T15:08:40Z</time>
      </trkpt>
      <trkpt lat="36.7320220" lon="-3.7673460">
        <ele>215.0</ele>
        <time>2022-01-08T15:08:41Z</time>
      </trkpt>
      <trkpt lat="36.7320220" lon="-3.7673460">
        <ele>214.0</ele>
        <time>2022-01-08T15:08:42Z</time>
      </trkpt>
      <trkpt lat="36.7319960" lon="-3.7673430">
        <ele>215.0</ele>
        <time>2022-01-08T15:08:43Z</time>
      </trkpt>
      <trkpt lat="36.7319960" lon="-3.7673430">
        <ele>215.0</ele>
        <time>2022-01-08T15:08:44Z</time>
      </trkpt>
      <trkpt lat="36.7319700" lon="-3.7673480">
        <ele>215.0</ele>
        <time>2022-01-08T15:08:45Z</time>
      </trkpt>
      <trkpt lat="36.7319700" lon="-3.7673480">
        <ele>214.0</ele>
        <time>2022-01-08T15:08:46Z</time>
      </trkpt>
      <trkpt lat="36.7319400" lon="-3.7673480">
        <ele>214.0</ele>
        <time>2022-01-08T15:08:47Z</time>
      </trkpt>
      <trkpt lat="36.7319400" lon="-3.7673480">
        <ele>214.0</ele>
        <time>2022-01-08T15:08:48Z</time>
      </trkpt>
      <trkpt lat="36.7319130" lon="-3.7673390">
        <ele>214.0</ele>
        <time>2022-01-08T15:08:49Z</time>
      </trkpt>
      <trkpt lat="36.7319130" lon="-3.7673390">
        <ele>214.0</ele>
        <time>2022-01-08T15:08:50Z</time>
      </trkpt>
      <trkpt lat="36.7318900" lon="-3.7673380">
        <ele>213.0</ele>
        <time>2022-01-08T15:08:51Z</time>
      </trkpt>
      <trkpt lat="36.7318900" lon="-3.7673380">
        <ele>212.0</ele>
        <time>2022-01-08T15:08:52Z</time>
      </trkpt>
      <trkpt lat="36.7318700" lon="-3.7673360">
        <ele>212.0</ele>
        <time>2022-01-08T15:08:53Z</time>
      </trkpt>
      <trkpt lat="36.7318700" lon="-3.7673360">
        <ele>212.0</ele>
        <time>2022-01-08T15:08:54Z</time>
      </trkpt>
      <trkpt lat="36.7318460" lon="-3.7673280">
        <ele>212.0</ele>
        <time>2022-01-08T15:08:55Z</time>
      </trkpt>
      <trkpt lat="36.7318460" lon="-3.7673280">
        <ele>212.0</ele>
        <time>2022-01-08T15:08:56Z</time>
      </trkpt>
      <trkpt lat="36.7318250" lon="-3.7673220">
        <ele>211.0</ele>
        <time>2022-01-08T15:08:57Z</time>
      </trkpt>
      <trkpt lat="36.7318250" lon="-3.7673220">
        <ele>211.0</ele>
        <time>2022-01-08T15:08:58Z</time>
      </trkpt>
      <trkpt lat="36.7318070" lon="-3.7673090">
        <ele>211.0</ele>
        <time>2022-01-08T15:08:59Z</time>
      </trkpt>
      <trkpt lat="36.7318070" lon="-3.7673090">
        <ele>211.0</ele>
        <time>2022-01-08T15:09:00Z</time>
      </trkpt>
      <trkpt lat="36.7317790" lon="-3.7672910">
        <ele>211.0</ele>
        <time>2022-01-08T15:09:01Z</time>
      </trkpt>
      <trkpt lat="36.7317790" lon="-3.7672910">
        <ele>211.0</ele>
        <time>2022-01-08T15:09:02Z</time>
      </trkpt>
      <trkpt lat="36.7317570" lon="-3.7672810">
        <ele>211.0</ele>
        <time>2022-01-08T15:09:03Z</time>
      </trkpt>
      <trkpt lat="36.7317570" lon="-3.7672810">
        <ele>211.0</ele>
        <time>2022-01-08T15:09:04Z</time>
      </trkpt>
      <trkpt lat="36.7317470" lon="-3.7672590">
        <ele>211.0</ele>
        <time>2022-01-08T15:09:05Z</time>
      </trkpt>
      <trkpt lat="36.7317470" lon="-3.7672590">
        <ele>211.0</ele>
        <time>2022-01-08T15:09:06Z</time>
      </trkpt>
      <trkpt lat="36.7317470" lon="-3.7672590">
        <ele>210.0</ele>
        <time>2022-01-08T15:09:07Z</time>
      </trkpt>
      <trkpt lat="36.7317300" lon="-3.7672410">
        <ele>209.0</ele>
        <time>2022-01-08T15:09:08Z</time>
      </trkpt>
      <trkpt lat="36.7317060" lon="-3.7672240">
        <ele>209.0</ele>
        <time>2022-01-08T15:09:09Z</time>
      </trkpt>
      <trkpt lat="36.7317060" lon="-3.7672240">
        <ele>208.0</ele>
        <time>2022-01-08T15:09:10Z</time>
      </trkpt>
      <trkpt lat="36.7316850" lon="-3.7672160">
        <ele>207.0</ele>
        <time>2022-01-08T15:09:11Z</time>
      </trkpt>
      <trkpt lat="36.7316850" lon="-3.7672160">
        <ele>207.0</ele>
        <time>2022-01-08T15:09:12Z</time>
      </trkpt>
      <trkpt lat="36.7316580" lon="-3.7672080">
        <ele>208.0</ele>
        <time>2022-01-08T15:09:13Z</time>
      </trkpt>
      <trkpt lat="36.7316580" lon="-3.7672080">
        <ele>208.0</ele>
        <time>2022-01-08T15:09:14Z</time>
      </trkpt>
      <trkpt lat="36.7316320" lon="-3.7671900">
        <ele>208.0</ele>
        <time>2022-01-08T15:09:15Z</time>
      </trkpt>
      <trkpt lat="36.7316320" lon="-3.7671900">
        <ele>208.0</ele>
        <time>2022-01-08T15:09:16Z</time>
      </trkpt>
      <trkpt lat="36.7316070" lon="-3.7671730">
        <ele>207.0</ele>
        <time>2022-01-08T15:09:17Z</time>
      </trkpt>
      <trkpt lat="36.7316070" lon="-3.7671730">
        <ele>206.0</ele>
        <time>2022-01-08T15:09:18Z</time>
      </trkpt>
      <trkpt lat="36.7315810" lon="-3.7671720">
        <ele>206.0</ele>
        <time>2022-01-08T15:09:19Z</time>
      </trkpt>
      <trkpt lat="36.7315810" lon="-3.7671720">
        <ele>205.0</ele>
        <time>2022-01-08T15:09:20Z</time>
      </trkpt>
      <trkpt lat="36.7315590" lon="-3.7671640">
        <ele>205.0</ele>
        <time>2022-01-08T15:09:21Z</time>
      </trkpt>
      <trkpt lat="36.7315590" lon="-3.7671640">
        <ele>205.0</ele>
        <time>2022-01-08T15:09:22Z</time>
      </trkpt>
      <trkpt lat="36.7315410" lon="-3.7671580">
        <ele>205.0</ele>
        <time>2022-01-08T15:09:23Z</time>
      </trkpt>
      <trkpt lat="36.7315410" lon="-3.7671580">
        <ele>205.0</ele>
        <time>2022-01-08T15:09:24Z</time>
      </trkpt>
      <trkpt lat="36.7315160" lon="-3.7671430">
        <ele>205.0</ele>
        <time>2022-01-08T15:09:25Z</time>
      </trkpt>
      <trkpt lat="36.7315160" lon="-3.7671430">
        <ele>205.0</ele>
        <time>2022-01-08T15:09:26Z</time>
      </trkpt>
      <trkpt lat="36.7315160" lon="-3.7671430">
        <ele>205.0</ele>
        <time>2022-01-08T15:09:27Z</time>
      </trkpt>
      <trkpt lat="36.7314940" lon="-3.7671350">
        <ele>205.0</ele>
        <time>2022-01-08T15:09:28Z</time>
      </trkpt>
      <trkpt lat="36.7314940" lon="-3.7671350">
        <ele>204.0</ele>
        <time>2022-01-08T15:09:29Z</time>
      </trkpt>
      <trkpt lat="36.7314750" lon="-3.7671380">
        <ele>203.0</ele>
        <time>2022-01-08T15:09:30Z</time>
      </trkpt>
      <trkpt lat="36.7314750" lon="-3.7671380">
        <ele>204.0</ele>
        <time>2022-01-08T15:09:31Z</time>
      </trkpt>
      <trkpt lat="36.7314570" lon="-3.7671300">
        <ele>204.0</ele>
        <time>2022-01-08T15:09:32Z</time>
      </trkpt>
      <trkpt lat="36.7314570" lon="-3.7671300">
        <ele>204.0</ele>
        <time>2022-01-08T15:09:33Z</time>
      </trkpt>
      <trkpt lat="36.7314390" lon="-3.7671180">
        <ele>204.0</ele>
        <time>2022-01-08T15:09:34Z</time>
      </trkpt>
      <trkpt lat="36.7314390" lon="-3.7671180">
        <ele>204.0</ele>
        <time>2022-01-08T15:09:35Z</time>
      </trkpt>
      <trkpt lat="36.7314220" lon="-3.7671100">
        <ele>204.0</ele>
        <time>2022-01-08T15:09:36Z</time>
      </trkpt>
      <trkpt lat="36.7314220" lon="-3.7671100">
        <ele>203.0</ele>
        <time>2022-01-08T15:09:37Z</time>
      </trkpt>
      <trkpt lat="36.7313890" lon="-3.7670940">
        <ele>204.0</ele>
        <time>2022-01-08T15:09:38Z</time>
      </trkpt>
      <trkpt lat="36.7313890" lon="-3.7670940">
        <ele>204.0</ele>
        <time>2022-01-08T15:09:39Z</time>
      </trkpt>
      <trkpt lat="36.7313630" lon="-3.7670870">
        <ele>204.0</ele>
        <time>2022-01-08T15:09:40Z</time>
      </trkpt>
      <trkpt lat="36.7313630" lon="-3.7670870">
        <ele>204.0</ele>
        <time>2022-01-08T15:09:41Z</time>
      </trkpt>
      <trkpt lat="36.7313430" lon="-3.7670840">
        <ele>204.0</ele>
        <time>2022-01-08T15:09:42Z</time>
      </trkpt>
      <trkpt lat="36.7313430" lon="-3.7670840">
        <ele>203.0</ele>
        <time>2022-01-08T15:09:43Z</time>
      </trkpt>
      <trkpt lat="36.7313150" lon="-3.7670860">
        <ele>202.0</ele>
        <time>2022-01-08T15:09:44Z</time>
      </trkpt>
      <trkpt lat="36.7313150" lon="-3.7670860">
        <ele>202.0</ele>
        <time>2022-01-08T15:09:45Z</time>
      </trkpt>
      <trkpt lat="36.7312930" lon="-3.7670860">
        <ele>202.0</ele>
        <time>2022-01-08T15:09:46Z</time>
      </trkpt>
      <trkpt lat="36.7312930" lon="-3.7670860">
        <ele>202.0</ele>
        <time>2022-01-08T15:09:47Z</time>
      </trkpt>
      <trkpt lat="36.7312930" lon="-3.7670860">
        <ele>201.0</ele>
        <time>2022-01-08T15:09:48Z</time>
      </trkpt>
      <trkpt lat="36.7312930" lon="-3.7670860">
        <ele>200.0</ele>
        <time>2022-01-08T15:09:49Z</time>
      </trkpt>
      <trkpt lat="36.7312670" lon="-3.7670710">
        <ele>200.0</ele>
        <time>2022-01-08T15:09:50Z</time>
      </trkpt>
      <trkpt lat="36.7312670" lon="-3.7670710">
        <ele>200.0</ele>
        <time>2022-01-08T15:09:51Z</time>
      </trkpt>
      <trkpt lat="36.7312450" lon="-3.7670580">
        <ele>200.0</ele>
        <time>2022-01-08T15:09:52Z</time>
      </trkpt>
      <trkpt lat="36.7312450" lon="-3.7670580">
        <ele>200.0</ele>
        <time>2022-01-08T15:09:53Z</time>
      </trkpt>
      <trkpt lat="36.7312450" lon="-3.7670580">
        <ele>200.0</ele>
        <time>2022-01-08T15:09:54Z</time>
      </trkpt>
      <trkpt lat="36.7312450" lon="-3.7670580">
        <ele>200.0</ele>
        <time>2022-01-08T15:09:55Z</time>
      </trkpt>
      <trkpt lat="36.7312450" lon="-3.7670580">
        <ele>200.0</ele>
        <time>2022-01-08T15:09:56Z</time>
      </trkpt>
      <trkpt lat="36.7312450" lon="-3.7670580">
        <ele>200.0</ele>
        <time>2022-01-08T15:09:57Z</time>
      </trkpt>
      <trkpt lat="36.7312450" lon="-3.7670580">
        <ele>200.0</ele>
        <time>2022-01-08T15:09:58Z</time>
      </trkpt>
      <trkpt lat="36.7312280" lon="-3.7670420">
        <ele>200.0</ele>
        <time>2022-01-08T15:09:59Z</time>
      </trkpt>
      <trkpt lat="36.7312280" lon="-3.7670420">
        <ele>200.0</ele>
        <time>2022-01-08T15:10:00Z</time>
      </trkpt>
      <trkpt lat="36.7312280" lon="-3.7670420">
        <ele>200.0</ele>
        <time>2022-01-08T15:10:01Z</time>
      </trkpt>
      <trkpt lat="36.7312280" lon="-3.7670420">
        <ele>200.0</ele>
        <time>2022-01-08T15:10:02Z</time>
      </trkpt>
      <trkpt lat="36.7312280" lon="-3.7670420">
        <ele>201.0</ele>
        <time>2022-01-08T15:10:03Z</time>
      </trkpt>
      <trkpt lat="36.7312280" lon="-3.7670420">
        <ele>201.0</ele>
        <time>2022-01-08T15:10:04Z</time>
      </trkpt>
      <trkpt lat="36.7312280" lon="-3.7670420">
        <ele>201.0</ele>
        <time>2022-01-08T15:10:05Z</time>
      </trkpt>
      <trkpt lat="36.7312280" lon="-3.7670420">
        <ele>201.0</ele>
        <time>2022-01-08T15:10:06Z</time>
      </trkpt>
      <trkpt lat="36.7312280" lon="-3.7670420">
        <ele>201.0</ele>
        <time>2022-01-08T15:10:07Z</time>
      </trkpt>
      <trkpt lat="36.7312280" lon="-3.7670420">
        <ele>200.0</ele>
        <time>2022-01-08T15:10:08Z</time>
      </trkpt>
      <trkpt lat="36.7312280" lon="-3.7670420">
        <ele>199.0</ele>
        <time>2022-01-08T15:10:09Z</time>
      </trkpt>
      <trkpt lat="36.7312280" lon="-3.7670420">
        <ele>200.0</ele>
        <time>2022-01-08T15:10:10Z</time>
      </trkpt>
      <trkpt lat="36.7312280" lon="-3.7670420">
        <ele>200.0</ele>
        <time>2022-01-08T15:10:11Z</time>
      </trkpt>
      <trkpt lat="36.7312280" lon="-3.7670420">
        <ele>200.0</ele>
        <time>2022-01-08T15:10:12Z</time>
      </trkpt>
      <trkpt lat="36.7312270" lon="-3.7670160">
        <ele>201.0</ele>
        <time>2022-01-08T15:10:13Z</time>
      </trkpt>
      <trkpt lat="36.7312270" lon="-3.7670160">
        <ele>201.0</ele>
        <time>2022-01-08T15:10:14Z</time>
      </trkpt>
      <trkpt lat="36.7312270" lon="-3.7670160">
        <ele>201.0</ele>
        <time>2022-01-08T15:10:15Z</time>
      </trkpt>
      <trkpt lat="36.7312360" lon="-3.7669880">
        <ele>200.0</ele>
        <time>2022-01-08T15:10:16Z</time>
      </trkpt>
      <trkpt lat="36.7312360" lon="-3.7669880">
        <ele>200.0</ele>
        <time>2022-01-08T15:10:17Z</time>
      </trkpt>
      <trkpt lat="36.7312360" lon="-3.7669880">
        <ele>199.0</ele>
        <time>2022-01-08T15:10:18Z</time>
      </trkpt>
      <trkpt lat="36.7312360" lon="-3.7669880">
        <ele>199.0</ele>
        <time>2022-01-08T15:10:19Z</time>
      </trkpt>
      <trkpt lat="36.7312180" lon="-3.7669840">
        <ele>199.0</ele>
        <time>2022-01-08T15:10:20Z</time>
      </trkpt>
      <trkpt lat="36.7312180" lon="-3.7669840">
        <ele>198.0</ele>
        <time>2022-01-08T15:10:21Z</time>
      </trkpt>
      <trkpt lat="36.7312180" lon="-3.7669840">
        <ele>197.0</ele>
        <time>2022-01-08T15:10:22Z</time>
      </trkpt>
      <trkpt lat="36.7311980" lon="-3.7669660">
        <ele>197.0</ele>
        <time>2022-01-08T15:10:23Z</time>
      </trkpt>
      <trkpt lat="36.7311980" lon="-3.7669660">
        <ele>197.0</ele>
        <time>2022-01-08T15:10:24Z</time>
      </trkpt>
      <trkpt lat="36.7311980" lon="-3.7669660">
        <ele>197.0</ele>
        <time>2022-01-08T15:10:25Z</time>
      </trkpt>
      <trkpt lat="36.7311980" lon="-3.7669660">
        <ele>197.0</ele>
        <time>2022-01-08T15:10:26Z</time>
      </trkpt>
      <trkpt lat="36.7311980" lon="-3.7669660">
        <ele>196.0</ele>
        <time>2022-01-08T15:10:27Z</time>
      </trkpt>
      <trkpt lat="36.7311980" lon="-3.7669660">
        <ele>196.0</ele>
        <time>2022-01-08T15:10:28Z</time>
      </trkpt>
      <trkpt lat="36.7312070" lon="-3.7669370">
        <ele>196.0</ele>
        <time>2022-01-08T15:10:29Z</time>
      </trkpt>
      <trkpt lat="36.7312070" lon="-3.7669370">
        <ele>197.0</ele>
        <time>2022-01-08T15:10:30Z</time>
      </trkpt>
      <trkpt lat="36.7312260" lon="-3.7669140">
        <ele>197.0</ele>
        <time>2022-01-08T15:10:31Z</time>
      </trkpt>
      <trkpt lat="36.7312260" lon="-3.7669140">
        <ele>197.0</ele>
        <time>2022-01-08T15:10:32Z</time>
      </trkpt>
      <trkpt lat="36.7312410" lon="-3.7668900">
        <ele>197.0</ele>
        <time>2022-01-08T15:10:33Z</time>
      </trkpt>
      <trkpt lat="36.7312410" lon="-3.7668900">
        <ele>197.0</ele>
        <time>2022-01-08T15:10:34Z</time>
      </trkpt>
      <trkpt lat="36.7312610" lon="-3.7668780">
        <ele>197.0</ele>
        <time>2022-01-08T15:10:35Z</time>
      </trkpt>
      <trkpt lat="36.7312610" lon="-3.7668780">
        <ele>196.0</ele>
        <time>2022-01-08T15:10:36Z</time>
      </trkpt>
      <trkpt lat="36.7312610" lon="-3.7668780">
        <ele>196.0</ele>
        <time>2022-01-08T15:10:37Z</time>
      </trkpt>
      <trkpt lat="36.7312610" lon="-3.7668780">
        <ele>196.0</ele>
        <time>2022-01-08T15:10:38Z</time>
      </trkpt>
      <trkpt lat="36.7312610" lon="-3.7668780">
        <ele>196.0</ele>
        <time>2022-01-08T15:10:39Z</time>
      </trkpt>
      <trkpt lat="36.7312610" lon="-3.7668780">
        <ele>196.0</ele>
        <time>2022-01-08T15:10:40Z</time>
      </trkpt>
      <trkpt lat="36.7312610" lon="-3.7668780">
        <ele>196.0</ele>
        <time>2022-01-08T15:10:41Z</time>
      </trkpt>
      <trkpt lat="36.7312610" lon="-3.7668780">
        <ele>196.0</ele>
        <time>2022-01-08T15:10:42Z</time>
      </trkpt>
      <trkpt lat="36.7312310" lon="-3.7668780">
        <ele>196.0</ele>
        <time>2022-01-08T15:10:43Z</time>
      </trkpt>
      <trkpt lat="36.7312030" lon="-3.7668920">
        <ele>196.0</ele>
        <time>2022-01-08T15:10:44Z</time>
      </trkpt>
      <trkpt lat="36.7312030" lon="-3.7668920">
        <ele>196.0</ele>
        <time>2022-01-08T15:10:45Z</time>
      </trkpt>
      <trkpt lat="36.7312030" lon="-3.7668920">
        <ele>195.0</ele>
        <time>2022-01-08T15:10:46Z</time>
      </trkpt>
      <trkpt lat="36.7311770" lon="-3.7668840">
        <ele>195.0</ele>
        <time>2022-01-08T15:10:47Z</time>
      </trkpt>
      <trkpt lat="36.7311770" lon="-3.7668840">
        <ele>195.0</ele>
        <time>2022-01-08T15:10:48Z</time>
      </trkpt>
      <trkpt lat="36.7311770" lon="-3.7668840">
        <ele>194.0</ele>
        <time>2022-01-08T15:10:49Z</time>
      </trkpt>
      <trkpt lat="36.7311770" lon="-3.7668840">
        <ele>194.0</ele>
        <time>2022-01-08T15:10:50Z</time>
      </trkpt>
      <trkpt lat="36.7311870" lon="-3.7668590">
        <ele>194.0</ele>
        <time>2022-01-08T15:10:51Z</time>
      </trkpt>
      <trkpt lat="36.7311870" lon="-3.7668590">
        <ele>194.0</ele>
        <time>2022-01-08T15:10:52Z</time>
      </trkpt>
      <trkpt lat="36.7311870" lon="-3.7668590">
        <ele>193.0</ele>
        <time>2022-01-08T15:10:53Z</time>
      </trkpt>
      <trkpt lat="36.7311870" lon="-3.7668590">
        <ele>193.0</ele>
        <time>2022-01-08T15:10:54Z</time>
      </trkpt>
      <trkpt lat="36.7311870" lon="-3.7668590">
        <ele>193.0</ele>
        <time>2022-01-08T15:10:55Z</time>
      </trkpt>
      <trkpt lat="36.7312070" lon="-3.7668370">
        <ele>193.0</ele>
        <time>2022-01-08T15:10:56Z</time>
      </trkpt>
      <trkpt lat="36.7312070" lon="-3.7668370">
        <ele>193.0</ele>
        <time>2022-01-08T15:10:57Z</time>
      </trkpt>
      <trkpt lat="36.7312240" lon="-3.7668160">
        <ele>192.0</ele>
        <time>2022-01-08T15:10:58Z</time>
      </trkpt>
      <trkpt lat="36.7312240" lon="-3.7668160">
        <ele>191.0</ele>
        <time>2022-01-08T15:10:59Z</time>
      </trkpt>
      <trkpt lat="36.7312440" lon="-3.7667850">
        <ele>191.0</ele>
        <time>2022-01-08T15:11:00Z</time>
      </trkpt>
      <trkpt lat="36.7312440" lon="-3.7667850">
        <ele>191.0</ele>
        <time>2022-01-08T15:11:01Z</time>
      </trkpt>
      <trkpt lat="36.7312440" lon="-3.7667850">
        <ele>190.0</ele>
        <time>2022-01-08T15:11:02Z</time>
      </trkpt>
      <trkpt lat="36.7312660" lon="-3.7667570">
        <ele>190.0</ele>
        <time>2022-01-08T15:11:03Z</time>
      </trkpt>
      <trkpt lat="36.7312890" lon="-3.7667280">
        <ele>189.0</ele>
        <time>2022-01-08T15:11:04Z</time>
      </trkpt>
      <trkpt lat="36.7312890" lon="-3.7667280">
        <ele>188.0</ele>
        <time>2022-01-08T15:11:05Z</time>
      </trkpt>
      <trkpt lat="36.7313120" lon="-3.7667110">
        <ele>188.0</ele>
        <time>2022-01-08T15:11:06Z</time>
      </trkpt>
      <trkpt lat="36.7313120" lon="-3.7667110">
        <ele>188.0</ele>
        <time>2022-01-08T15:11:07Z</time>
      </trkpt>
      <trkpt lat="36.7313120" lon="-3.7667110">
        <ele>188.0</ele>
        <time>2022-01-08T15:11:08Z</time>
      </trkpt>
      <trkpt lat="36.7313120" lon="-3.7667110">
        <ele>188.0</ele>
        <time>2022-01-08T15:11:09Z</time>
      </trkpt>
      <trkpt lat="36.7312860" lon="-3.7667090">
        <ele>188.0</ele>
        <time>2022-01-08T15:11:10Z</time>
      </trkpt>
      <trkpt lat="36.7312860" lon="-3.7667090">
        <ele>188.0</ele>
        <time>2022-01-08T15:11:11Z</time>
      </trkpt>
      <trkpt lat="36.7312860" lon="-3.7667090">
        <ele>188.0</ele>
        <time>2022-01-08T15:11:12Z</time>
      </trkpt>
      <trkpt lat="36.7312640" lon="-3.7667000">
        <ele>188.0</ele>
        <time>2022-01-08T15:11:13Z</time>
      </trkpt>
      <trkpt lat="36.7312640" lon="-3.7667000">
        <ele>188.0</ele>
        <time>2022-01-08T15:11:14Z</time>
      </trkpt>
      <trkpt lat="36.7312640" lon="-3.7667000">
        <ele>187.0</ele>
        <time>2022-01-08T15:11:15Z</time>
      </trkpt>
      <trkpt lat="36.7312640" lon="-3.7667000">
        <ele>186.0</ele>
        <time>2022-01-08T15:11:16Z</time>
      </trkpt>
      <trkpt lat="36.7312640" lon="-3.7667000">
        <ele>186.0</ele>
        <time>2022-01-08T15:11:17Z</time>
      </trkpt>
      <trkpt lat="36.7312320" lon="-3.7666970">
        <ele>186.0</ele>
        <time>2022-01-08T15:11:18Z</time>
      </trkpt>
      <trkpt lat="36.7312320" lon="-3.7666970">
        <ele>186.0</ele>
        <time>2022-01-08T15:11:19Z</time>
      </trkpt>
      <trkpt lat="36.7312320" lon="-3.7666970">
        <ele>186.0</ele>
        <time>2022-01-08T15:11:20Z</time>
      </trkpt>
      <trkpt lat="36.7312320" lon="-3.7666970">
        <ele>186.0</ele>
        <time>2022-01-08T15:11:21Z</time>
      </trkpt>
      <trkpt lat="36.7312320" lon="-3.7666970">
        <ele>186.0</ele>
        <time>2022-01-08T15:11:22Z</time>
      </trkpt>
      <trkpt lat="36.7312180" lon="-3.7666780">
        <ele>185.0</ele>
        <time>2022-01-08T15:11:23Z</time>
      </trkpt>
      <trkpt lat="36.7312180" lon="-3.7666780">
        <ele>184.0</ele>
        <time>2022-01-08T15:11:24Z</time>
      </trkpt>
      <trkpt lat="36.7311950" lon="-3.7666590">
        <ele>185.0</ele>
        <time>2022-01-08T15:11:25Z</time>
      </trkpt>
      <trkpt lat="36.7311950" lon="-3.7666590">
        <ele>185.0</ele>
        <time>2022-01-08T15:11:26Z</time>
      </trkpt>
      <trkpt lat="36.7311810" lon="-3.7666430">
        <ele>185.0</ele>
        <time>2022-01-08T15:11:27Z</time>
      </trkpt>
      <trkpt lat="36.7311810" lon="-3.7666430">
        <ele>184.0</ele>
        <time>2022-01-08T15:11:28Z</time>
      </trkpt>
      <trkpt lat="36.7311980" lon="-3.7666280">
        <ele>184.0</ele>
        <time>2022-01-08T15:11:29Z</time>
      </trkpt>
      <trkpt lat="36.7311980" lon="-3.7666280">
        <ele>184.0</ele>
        <time>2022-01-08T15:11:30Z</time>
      </trkpt>
      <trkpt lat="36.7312190" lon="-3.7666130">
        <ele>184.0</ele>
        <time>2022-01-08T15:11:31Z</time>
      </trkpt>
      <trkpt lat="36.7312190" lon="-3.7666130">
        <ele>183.0</ele>
        <time>2022-01-08T15:11:32Z</time>
      </trkpt>
      <trkpt lat="36.7312310" lon="-3.7665920">
        <ele>182.0</ele>
        <time>2022-01-08T15:11:33Z</time>
      </trkpt>
      <trkpt lat="36.7312310" lon="-3.7665920">
        <ele>182.0</ele>
        <time>2022-01-08T15:11:34Z</time>
      </trkpt>
      <trkpt lat="36.7312300" lon="-3.7665630">
        <ele>181.0</ele>
        <time>2022-01-08T15:11:35Z</time>
      </trkpt>
      <trkpt lat="36.7312300" lon="-3.7665630">
        <ele>181.0</ele>
        <time>2022-01-08T15:11:36Z</time>
      </trkpt>
      <trkpt lat="36.7311990" lon="-3.7665520">
        <ele>181.0</ele>
        <time>2022-01-08T15:11:37Z</time>
      </trkpt>
      <trkpt lat="36.7311810" lon="-3.7665520">
        <ele>180.0</ele>
        <time>2022-01-08T15:11:38Z</time>
      </trkpt>
      <trkpt lat="36.7311810" lon="-3.7665520">
        <ele>180.0</ele>
        <time>2022-01-08T15:11:39Z</time>
      </trkpt>
      <trkpt lat="36.7311570" lon="-3.7665450">
        <ele>180.0</ele>
        <time>2022-01-08T15:11:40Z</time>
      </trkpt>
      <trkpt lat="36.7311570" lon="-3.7665450">
        <ele>180.0</ele>
        <time>2022-01-08T15:11:41Z</time>
      </trkpt>
      <trkpt lat="36.7311360" lon="-3.7665360">
        <ele>179.0</ele>
        <time>2022-01-08T15:11:42Z</time>
      </trkpt>
      <trkpt lat="36.7311360" lon="-3.7665360">
        <ele>178.0</ele>
        <time>2022-01-08T15:11:43Z</time>
      </trkpt>
      <trkpt lat="36.7311360" lon="-3.7665360">
        <ele>178.0</ele>
        <time>2022-01-08T15:11:44Z</time>
      </trkpt>
      <trkpt lat="36.7311310" lon="-3.7665140">
        <ele>178.0</ele>
        <time>2022-01-08T15:11:45Z</time>
      </trkpt>
      <trkpt lat="36.7311310" lon="-3.7665140">
        <ele>177.0</ele>
        <time>2022-01-08T15:11:46Z</time>
      </trkpt>
      <trkpt lat="36.7311460" lon="-3.7664920">
        <ele>177.0</ele>
        <time>2022-01-08T15:11:47Z</time>
      </trkpt>
      <trkpt lat="36.7311460" lon="-3.7664920">
        <ele>176.0</ele>
        <time>2022-01-08T15:11:48Z</time>
      </trkpt>
      <trkpt lat="36.7311610" lon="-3.7664670">
        <ele>176.0</ele>
        <time>2022-01-08T15:11:49Z</time>
      </trkpt>
      <trkpt lat="36.7311610" lon="-3.7664670">
        <ele>176.0</ele>
        <time>2022-01-08T15:11:50Z</time>
      </trkpt>
      <trkpt lat="36.7311830" lon="-3.7664480">
        <ele>176.0</ele>
        <time>2022-01-08T15:11:51Z</time>
      </trkpt>
      <trkpt lat="36.7311830" lon="-3.7664480">
        <ele>176.0</ele>
        <time>2022-01-08T15:11:52Z</time>
      </trkpt>
      <trkpt lat="36.7311830" lon="-3.7664480">
        <ele>176.0</ele>
        <time>2022-01-08T15:11:53Z</time>
      </trkpt>
      <trkpt lat="36.7311830" lon="-3.7664480">
        <ele>176.0</ele>
        <time>2022-01-08T15:11:54Z</time>
      </trkpt>
      <trkpt lat="36.7311830" lon="-3.7664480">
        <ele>176.0</ele>
        <time>2022-01-08T15:11:55Z</time>
      </trkpt>
      <trkpt lat="36.7311830" lon="-3.7664480">
        <ele>176.0</ele>
        <time>2022-01-08T15:11:56Z</time>
      </trkpt>
      <trkpt lat="36.7311830" lon="-3.7664480">
        <ele>176.0</ele>
        <time>2022-01-08T15:11:57Z</time>
      </trkpt>
      <trkpt lat="36.7311830" lon="-3.7664480">
        <ele>176.0</ele>
        <time>2022-01-08T15:11:58Z</time>
      </trkpt>
      <trkpt lat="36.7311830" lon="-3.7664480">
        <ele>175.0</ele>
        <time>2022-01-08T15:11:59Z</time>
      </trkpt>
      <trkpt lat="36.7311830" lon="-3.7664480">
        <ele>175.0</ele>
        <time>2022-01-08T15:12:00Z</time>
      </trkpt>
      <trkpt lat="36.7311830" lon="-3.7664480">
        <ele>175.0</ele>
        <time>2022-01-08T15:12:01Z</time>
      </trkpt>
      <trkpt lat="36.7311830" lon="-3.7664480">
        <ele>175.0</ele>
        <time>2022-01-08T15:12:02Z</time>
      </trkpt>
      <trkpt lat="36.7311830" lon="-3.7664480">
        <ele>175.0</ele>
        <time>2022-01-08T15:12:03Z</time>
      </trkpt>
      <trkpt lat="36.7311830" lon="-3.7664480">
        <ele>175.0</ele>
        <time>2022-01-08T15:12:04Z</time>
      </trkpt>
      <trkpt lat="36.7311830" lon="-3.7664480">
        <ele>175.0</ele>
        <time>2022-01-08T15:12:05Z</time>
      </trkpt>
      <trkpt lat="36.7311830" lon="-3.7664480">
        <ele>175.0</ele>
        <time>2022-01-08T15:12:06Z</time>
      </trkpt>
      <trkpt lat="36.7311810" lon="-3.7664710">
        <ele>174.0</ele>
        <time>2022-01-08T15:12:07Z</time>
      </trkpt>
      <trkpt lat="36.7311810" lon="-3.7664710">
        <ele>174.0</ele>
        <time>2022-01-08T15:12:08Z</time>
      </trkpt>
      <trkpt lat="36.7311620" lon="-3.7664940">
        <ele>174.0</ele>
        <time>2022-01-08T15:12:09Z</time>
      </trkpt>
      <trkpt lat="36.7311620" lon="-3.7664940">
        <ele>175.0</ele>
        <time>2022-01-08T15:12:10Z</time>
      </trkpt>
      <trkpt lat="36.7311490" lon="-3.7665200">
        <ele>175.0</ele>
        <time>2022-01-08T15:12:11Z</time>
      </trkpt>
      <trkpt lat="36.7311490" lon="-3.7665200">
        <ele>176.0</ele>
        <time>2022-01-08T15:12:12Z</time>
      </trkpt>
      <trkpt lat="36.7311440" lon="-3.7665480">
        <ele>177.0</ele>
        <time>2022-01-08T15:12:13Z</time>
      </trkpt>
      <trkpt lat="36.7311440" lon="-3.7665480">
        <ele>178.0</ele>
        <time>2022-01-08T15:12:14Z</time>
      </trkpt>
      <trkpt lat="36.7311440" lon="-3.7665480">
        <ele>178.0</ele>
        <time>2022-01-08T15:12:15Z</time>
      </trkpt>
      <trkpt lat="36.7311590" lon="-3.7665620">
        <ele>178.0</ele>
        <time>2022-01-08T15:12:16Z</time>
      </trkpt>
      <trkpt lat="36.7311590" lon="-3.7665620">
        <ele>179.0</ele>
        <time>2022-01-08T15:12:17Z</time>
      </trkpt>
      <trkpt lat="36.7311590" lon="-3.7665620">
        <ele>179.0</ele>
        <time>2022-01-08T15:12:18Z</time>
      </trkpt>
      <trkpt lat="36.7311790" lon="-3.7665710">
        <ele>179.0</ele>
        <time>2022-01-08T15:12:19Z</time>
      </trkpt>
      <trkpt lat="36.7312040" lon="-3.7665680">
        <ele>180.0</ele>
        <time>2022-01-08T15:12:20Z</time>
      </trkpt>
      <trkpt lat="36.7312040" lon="-3.7665680">
        <ele>180.0</ele>
        <time>2022-01-08T15:12:21Z</time>
      </trkpt>
      <trkpt lat="36.7312040" lon="-3.7665680">
        <ele>180.0</ele>
        <time>2022-01-08T15:12:22Z</time>
      </trkpt>
      <trkpt lat="36.7312160" lon="-3.7665880">
        <ele>180.0</ele>
        <time>2022-01-08T15:12:23Z</time>
      </trkpt>
      <trkpt lat="36.7312160" lon="-3.7665880">
        <ele>180.0</ele>
        <time>2022-01-08T15:12:24Z</time>
      </trkpt>
      <trkpt lat="36.7312000" lon="-3.7666080">
        <ele>180.0</ele>
        <time>2022-01-08T15:12:25Z</time>
      </trkpt>
      <trkpt lat="36.7312000" lon="-3.7666080">
        <ele>180.0</ele>
        <time>2022-01-08T15:12:26Z</time>
      </trkpt>
      <trkpt lat="36.7311880" lon="-3.7666310">
        <ele>181.0</ele>
        <time>2022-01-08T15:12:27Z</time>
      </trkpt>
      <trkpt lat="36.7311880" lon="-3.7666310">
        <ele>181.0</ele>
        <time>2022-01-08T15:12:28Z</time>
      </trkpt>
      <trkpt lat="36.7311700" lon="-3.7666480">
        <ele>181.0</ele>
        <time>2022-01-08T15:12:29Z</time>
      </trkpt>
      <trkpt lat="36.7311700" lon="-3.7666480">
        <ele>182.0</ele>
        <time>2022-01-08T15:12:30Z</time>
      </trkpt>
      <trkpt lat="36.7311600" lon="-3.7666720">
        <ele>182.0</ele>
        <time>2022-01-08T15:12:31Z</time>
      </trkpt>
      <trkpt lat="36.7311600" lon="-3.7666720">
        <ele>183.0</ele>
        <time>2022-01-08T15:12:32Z</time>
      </trkpt>
      <trkpt lat="36.7311600" lon="-3.7666720">
        <ele>183.0</ele>
        <time>2022-01-08T15:12:33Z</time>
      </trkpt>
      <trkpt lat="36.7311760" lon="-3.7666870">
        <ele>184.0</ele>
        <time>2022-01-08T15:12:34Z</time>
      </trkpt>
      <trkpt lat="36.7311760" lon="-3.7666870">
        <ele>184.0</ele>
        <time>2022-01-08T15:12:35Z</time>
      </trkpt>
      <trkpt lat="36.7311760" lon="-3.7666870">
        <ele>184.0</ele>
        <time>2022-01-08T15:12:36Z</time>
      </trkpt>
      <trkpt lat="36.7311930" lon="-3.7667070">
        <ele>184.0</ele>
        <time>2022-01-08T15:12:37Z</time>
      </trkpt>
      <trkpt lat="36.7311930" lon="-3.7667070">
        <ele>184.0</ele>
        <time>2022-01-08T15:12:38Z</time>
      </trkpt>
      <trkpt lat="36.7312070" lon="-3.7667270">
        <ele>185.0</ele>
        <time>2022-01-08T15:12:39Z</time>
      </trkpt>
      <trkpt lat="36.7312070" lon="-3.7667270">
        <ele>185.0</ele>
        <time>2022-01-08T15:12:40Z</time>
      </trkpt>
      <trkpt lat="36.7312260" lon="-3.7667380">
        <ele>185.0</ele>
        <time>2022-01-08T15:12:41Z</time>
      </trkpt>
      <trkpt lat="36.7312260" lon="-3.7667380">
        <ele>186.0</ele>
        <time>2022-01-08T15:12:42Z</time>
      </trkpt>
      <trkpt lat="36.7312440" lon="-3.7667470">
        <ele>186.0</ele>
        <time>2022-01-08T15:12:43Z</time>
      </trkpt>
      <trkpt lat="36.7312440" lon="-3.7667470">
        <ele>186.0</ele>
        <time>2022-01-08T15:12:44Z</time>
      </trkpt>
      <trkpt lat="36.7312650" lon="-3.7667540">
        <ele>187.0</ele>
        <time>2022-01-08T15:12:45Z</time>
      </trkpt>
      <trkpt lat="36.7312650" lon="-3.7667540">
        <ele>187.0</ele>
        <time>2022-01-08T15:12:46Z</time>
      </trkpt>
      <trkpt lat="36.7312880" lon="-3.7667620">
        <ele>187.0</ele>
        <time>2022-01-08T15:12:47Z</time>
      </trkpt>
      <trkpt lat="36.7312880" lon="-3.7667620">
        <ele>187.0</ele>
        <time>2022-01-08T15:12:48Z</time>
      </trkpt>
      <trkpt lat="36.7312880" lon="-3.7667620">
        <ele>187.0</ele>
        <time>2022-01-08T15:12:49Z</time>
      </trkpt>
      <trkpt lat="36.7312860" lon="-3.7667930">
        <ele>188.0</ele>
        <time>2022-01-08T15:12:50Z</time>
      </trkpt>
      <trkpt lat="36.7312860" lon="-3.7667930">
        <ele>188.0</ele>
        <time>2022-01-08T15:12:51Z</time>
      </trkpt>
      <trkpt lat="36.7312700" lon="-3.7668070">
        <ele>189.0</ele>
        <time>2022-01-08T15:12:52Z</time>
      </trkpt>
      <trkpt lat="36.7312700" lon="-3.7668070">
        <ele>190.0</ele>
        <time>2022-01-08T15:12:53Z</time>
      </trkpt>
      <trkpt lat="36.7312700" lon="-3.7668070">
        <ele>190.0</ele>
        <time>2022-01-08T15:12:54Z</time>
      </trkpt>
      <trkpt lat="36.7312700" lon="-3.7668070">
        <ele>191.0</ele>
        <time>2022-01-08T15:12:55Z</time>
      </trkpt>
      <trkpt lat="36.7312480" lon="-3.7668200">
        <ele>191.0</ele>
        <time>2022-01-08T15:12:56Z</time>
      </trkpt>
      <trkpt lat="36.7312480" lon="-3.7668200">
        <ele>191.0</ele>
        <time>2022-01-08T15:12:57Z</time>
      </trkpt>
      <trkpt lat="36.7312340" lon="-3.7668470">
        <ele>192.0</ele>
        <time>2022-01-08T15:12:58Z</time>
      </trkpt>
      <trkpt lat="36.7312340" lon="-3.7668470">
        <ele>192.0</ele>
        <time>2022-01-08T15:12:59Z</time>
      </trkpt>
      <trkpt lat="36.7312260" lon="-3.7668670">
        <ele>192.0</ele>
        <time>2022-01-08T15:13:00Z</time>
      </trkpt>
      <trkpt lat="36.7312260" lon="-3.7668670">
        <ele>193.0</ele>
        <time>2022-01-08T15:13:01Z</time>
      </trkpt>
      <trkpt lat="36.7312120" lon="-3.7668850">
        <ele>193.0</ele>
        <time>2022-01-08T15:13:02Z</time>
      </trkpt>
      <trkpt lat="36.7312120" lon="-3.7668850">
        <ele>193.0</ele>
        <time>2022-01-08T15:13:03Z</time>
      </trkpt>
      <trkpt lat="36.7311970" lon="-3.7669010">
        <ele>193.0</ele>
        <time>2022-01-08T15:13:04Z</time>
      </trkpt>
      <trkpt lat="36.7311970" lon="-3.7669010">
        <ele>193.0</ele>
        <time>2022-01-08T15:13:05Z</time>
      </trkpt>
      <trkpt lat="36.7311970" lon="-3.7669010">
        <ele>193.0</ele>
        <time>2022-01-08T15:13:06Z</time>
      </trkpt>
      <trkpt lat="36.7311780" lon="-3.7669190">
        <ele>193.0</ele>
        <time>2022-01-08T15:13:07Z</time>
      </trkpt>
      <trkpt lat="36.7311780" lon="-3.7669190">
        <ele>194.0</ele>
        <time>2022-01-08T15:13:08Z</time>
      </trkpt>
      <trkpt lat="36.7311780" lon="-3.7669190">
        <ele>194.0</ele>
        <time>2022-01-08T15:13:09Z</time>
      </trkpt>
      <trkpt lat="36.7311890" lon="-3.7669380">
        <ele>194.0</ele>
        <time>2022-01-08T15:13:10Z</time>
      </trkpt>
      <trkpt lat="36.7311890" lon="-3.7669380">
        <ele>194.0</ele>
        <time>2022-01-08T15:13:11Z</time>
      </trkpt>
      <trkpt lat="36.7311890" lon="-3.7669380">
        <ele>194.0</ele>
        <time>2022-01-08T15:13:12Z</time>
      </trkpt>
      <trkpt lat="36.7311920" lon="-3.7669670">
        <ele>195.0</ele>
        <time>2022-01-08T15:13:13Z</time>
      </trkpt>
      <trkpt lat="36.7311920" lon="-3.7669670">
        <ele>195.0</ele>
        <time>2022-01-08T15:13:14Z</time>
      </trkpt>
      <trkpt lat="36.7311750" lon="-3.7669890">
        <ele>196.0</ele>
        <time>2022-01-08T15:13:15Z</time>
      </trkpt>
      <trkpt lat="36.7311750" lon="-3.7669890">
        <ele>196.0</ele>
        <time>2022-01-08T15:13:16Z</time>
      </trkpt>
      <trkpt lat="36.7311750" lon="-3.7669890">
        <ele>196.0</ele>
        <time>2022-01-08T15:13:17Z</time>
      </trkpt>
      <trkpt lat="36.7311840" lon="-3.7670180">
        <ele>197.0</ele>
        <time>2022-01-08T15:13:18Z</time>
      </trkpt>
      <trkpt lat="36.7311840" lon="-3.7670180">
        <ele>197.0</ele>
        <time>2022-01-08T15:13:19Z</time>
      </trkpt>
      <trkpt lat="36.7312030" lon="-3.7670280">
        <ele>197.0</ele>
        <time>2022-01-08T15:13:20Z</time>
      </trkpt>
      <trkpt lat="36.7312030" lon="-3.7670280">
        <ele>197.0</ele>
        <time>2022-01-08T15:13:21Z</time>
      </trkpt>
      <trkpt lat="36.7312030" lon="-3.7670280">
        <ele>197.0</ele>
        <time>2022-01-08T15:13:22Z</time>
      </trkpt>
      <trkpt lat="36.7312230" lon="-3.7670400">
        <ele>198.0</ele>
        <time>2022-01-08T15:13:23Z</time>
      </trkpt>
      <trkpt lat="36.7312230" lon="-3.7670400">
        <ele>199.0</ele>
        <time>2022-01-08T15:13:24Z</time>
      </trkpt>
      <trkpt lat="36.7312230" lon="-3.7670400">
        <ele>199.0</ele>
        <time>2022-01-08T15:13:25Z</time>
      </trkpt>
      <trkpt lat="36.7312390" lon="-3.7670550">
        <ele>199.0</ele>
        <time>2022-01-08T15:13:26Z</time>
      </trkpt>
      <trkpt lat="36.7312390" lon="-3.7670550">
        <ele>199.0</ele>
        <time>2022-01-08T15:13:27Z</time>
      </trkpt>
      <trkpt lat="36.7312390" lon="-3.7670550">
        <ele>199.0</ele>
        <time>2022-01-08T15:13:28Z</time>
      </trkpt>
      <trkpt lat="36.7312390" lon="-3.7670550">
        <ele>200.0</ele>
        <time>2022-01-08T15:13:29Z</time>
      </trkpt>
      <trkpt lat="36.7312560" lon="-3.7670760">
        <ele>200.0</ele>
        <time>2022-01-08T15:13:30Z</time>
      </trkpt>
      <trkpt lat="36.7312560" lon="-3.7670760">
        <ele>200.0</ele>
        <time>2022-01-08T15:13:31Z</time>
      </trkpt>
      <trkpt lat="36.7312560" lon="-3.7670760">
        <ele>201.0</ele>
        <time>2022-01-08T15:13:32Z</time>
      </trkpt>
      <trkpt lat="36.7312560" lon="-3.7670760">
        <ele>202.0</ele>
        <time>2022-01-08T15:13:33Z</time>
      </trkpt>
      <trkpt lat="36.7312780" lon="-3.7670900">
        <ele>202.0</ele>
        <time>2022-01-08T15:13:34Z</time>
      </trkpt>
      <trkpt lat="36.7312780" lon="-3.7670900">
        <ele>202.0</ele>
        <time>2022-01-08T15:13:35Z</time>
      </trkpt>
      <trkpt lat="36.7313030" lon="-3.7671040">
        <ele>202.0</ele>
        <time>2022-01-08T15:13:36Z</time>
      </trkpt>
      <trkpt lat="36.7313030" lon="-3.7671040">
        <ele>201.0</ele>
        <time>2022-01-08T15:13:37Z</time>
      </trkpt>
      <trkpt lat="36.7313030" lon="-3.7671040">
        <ele>201.0</ele>
        <time>2022-01-08T15:13:38Z</time>
      </trkpt>
      <trkpt lat="36.7313240" lon="-3.7671150">
        <ele>201.0</ele>
        <time>2022-01-08T15:13:39Z</time>
      </trkpt>
      <trkpt lat="36.7313240" lon="-3.7671150">
        <ele>201.0</ele>
        <time>2022-01-08T15:13:40Z</time>
      </trkpt>
      <trkpt lat="36.7313240" lon="-3.7671150">
        <ele>201.0</ele>
        <time>2022-01-08T15:13:41Z</time>
      </trkpt>
      <trkpt lat="36.7313490" lon="-3.7671140">
        <ele>202.0</ele>
        <time>2022-01-08T15:13:42Z</time>
      </trkpt>
      <trkpt lat="36.7313490" lon="-3.7671140">
        <ele>202.0</ele>
        <time>2022-01-08T15:13:43Z</time>
      </trkpt>
      <trkpt lat="36.7313670" lon="-3.7671190">
        <ele>203.0</ele>
        <time>2022-01-08T15:13:44Z</time>
      </trkpt>
      <trkpt lat="36.7313670" lon="-3.7671190">
        <ele>203.0</ele>
        <time>2022-01-08T15:13:45Z</time>
      </trkpt>
      <trkpt lat="36.7313860" lon="-3.7671260">
        <ele>203.0</ele>
        <time>2022-01-08T15:13:46Z</time>
      </trkpt>
      <trkpt lat="36.7313860" lon="-3.7671260">
        <ele>203.0</ele>
        <time>2022-01-08T15:13:47Z</time>
      </trkpt>
      <trkpt lat="36.7314070" lon="-3.7671170">
        <ele>204.0</ele>
        <time>2022-01-08T15:13:48Z</time>
      </trkpt>
      <trkpt lat="36.7314070" lon="-3.7671170">
        <ele>204.0</ele>
        <time>2022-01-08T15:13:49Z</time>
      </trkpt>
      <trkpt lat="36.7314070" lon="-3.7671170">
        <ele>204.0</ele>
        <time>2022-01-08T15:13:50Z</time>
      </trkpt>
      <trkpt lat="36.7314270" lon="-3.7671010">
        <ele>203.0</ele>
        <time>2022-01-08T15:13:51Z</time>
      </trkpt>
      <trkpt lat="36.7314270" lon="-3.7671010">
        <ele>203.0</ele>
        <time>2022-01-08T15:13:52Z</time>
      </trkpt>
      <trkpt lat="36.7314430" lon="-3.7670790">
        <ele>203.0</ele>
        <time>2022-01-08T15:13:53Z</time>
      </trkpt>
      <trkpt lat="36.7314430" lon="-3.7670790">
        <ele>203.0</ele>
        <time>2022-01-08T15:13:54Z</time>
      </trkpt>
      <trkpt lat="36.7314610" lon="-3.7670710">
        <ele>203.0</ele>
        <time>2022-01-08T15:13:55Z</time>
      </trkpt>
      <trkpt lat="36.7314610" lon="-3.7670710">
        <ele>202.0</ele>
        <time>2022-01-08T15:13:56Z</time>
      </trkpt>
      <trkpt lat="36.7314820" lon="-3.7670690">
        <ele>202.0</ele>
        <time>2022-01-08T15:13:57Z</time>
      </trkpt>
      <trkpt lat="36.7314820" lon="-3.7670690">
        <ele>202.0</ele>
        <time>2022-01-08T15:13:58Z</time>
      </trkpt>
      <trkpt lat="36.7315050" lon="-3.7670750">
        <ele>202.0</ele>
        <time>2022-01-08T15:13:59Z</time>
      </trkpt>
      <trkpt lat="36.7315050" lon="-3.7670750">
        <ele>202.0</ele>
        <time>2022-01-08T15:14:00Z</time>
      </trkpt>
      <trkpt lat="36.7315230" lon="-3.7670860">
        <ele>202.0</ele>
        <time>2022-01-08T15:14:01Z</time>
      </trkpt>
      <trkpt lat="36.7315230" lon="-3.7670860">
        <ele>202.0</ele>
        <time>2022-01-08T15:14:02Z</time>
      </trkpt>
      <trkpt lat="36.7315430" lon="-3.7671020">
        <ele>202.0</ele>
        <time>2022-01-08T15:14:03Z</time>
      </trkpt>
      <trkpt lat="36.7315430" lon="-3.7671020">
        <ele>202.0</ele>
        <time>2022-01-08T15:14:04Z</time>
      </trkpt>
      <trkpt lat="36.7315600" lon="-3.7671200">
        <ele>202.0</ele>
        <time>2022-01-08T15:14:05Z</time>
      </trkpt>
      <trkpt lat="36.7315600" lon="-3.7671200">
        <ele>203.0</ele>
        <time>2022-01-08T15:14:06Z</time>
      </trkpt>
      <trkpt lat="36.7315600" lon="-3.7671200">
        <ele>204.0</ele>
        <time>2022-01-08T15:14:07Z</time>
      </trkpt>
      <trkpt lat="36.7315840" lon="-3.7671380">
        <ele>204.0</ele>
        <time>2022-01-08T15:14:08Z</time>
      </trkpt>
      <trkpt lat="36.7315840" lon="-3.7671380">
        <ele>204.0</ele>
        <time>2022-01-08T15:14:09Z</time>
      </trkpt>
      <trkpt lat="36.7316090" lon="-3.7671470">
        <ele>204.0</ele>
        <time>2022-01-08T15:14:10Z</time>
      </trkpt>
      <trkpt lat="36.7316090" lon="-3.7671470">
        <ele>205.0</ele>
        <time>2022-01-08T15:14:11Z</time>
      </trkpt>
      <trkpt lat="36.7316350" lon="-3.7671510">
        <ele>205.0</ele>
        <time>2022-01-08T15:14:12Z</time>
      </trkpt>
      <trkpt lat="36.7316350" lon="-3.7671510">
        <ele>205.0</ele>
        <time>2022-01-08T15:14:13Z</time>
      </trkpt>
      <trkpt lat="36.7316600" lon="-3.7671530">
        <ele>205.0</ele>
        <time>2022-01-08T15:14:14Z</time>
      </trkpt>
      <trkpt lat="36.7316600" lon="-3.7671530">
        <ele>205.0</ele>
        <time>2022-01-08T15:14:15Z</time>
      </trkpt>
      <trkpt lat="36.7316860" lon="-3.7671590">
        <ele>205.0</ele>
        <time>2022-01-08T15:14:16Z</time>
      </trkpt>
      <trkpt lat="36.7316860" lon="-3.7671590">
        <ele>205.0</ele>
        <time>2022-01-08T15:14:17Z</time>
      </trkpt>
      <trkpt lat="36.7317180" lon="-3.7671630">
        <ele>205.0</ele>
        <time>2022-01-08T15:14:18Z</time>
      </trkpt>
      <trkpt lat="36.7317180" lon="-3.7671630">
        <ele>205.0</ele>
        <time>2022-01-08T15:14:19Z</time>
      </trkpt>
      <trkpt lat="36.7317450" lon="-3.7671480">
        <ele>206.0</ele>
        <time>2022-01-08T15:14:20Z</time>
      </trkpt>
      <trkpt lat="36.7317640" lon="-3.7671340">
        <ele>206.0</ele>
        <time>2022-01-08T15:14:21Z</time>
      </trkpt>
      <trkpt lat="36.7317870" lon="-3.7671260">
        <ele>206.0</ele>
        <time>2022-01-08T15:14:22Z</time>
      </trkpt>
      <trkpt lat="36.7318100" lon="-3.7671270">
        <ele>206.0</ele>
        <time>2022-01-08T15:14:23Z</time>
      </trkpt>
      <trkpt lat="36.7318310" lon="-3.7671340">
        <ele>206.0</ele>
        <time>2022-01-08T15:14:24Z</time>
      </trkpt>
      <trkpt lat="36.7318310" lon="-3.7671340">
        <ele>206.0</ele>
        <time>2022-01-08T15:14:25Z</time>
      </trkpt>
      <trkpt lat="36.7318520" lon="-3.7671450">
        <ele>206.0</ele>
        <time>2022-01-08T15:14:26Z</time>
      </trkpt>
      <trkpt lat="36.7318520" lon="-3.7671450">
        <ele>206.0</ele>
        <time>2022-01-08T15:14:27Z</time>
      </trkpt>
      <trkpt lat="36.7318660" lon="-3.7671610">
        <ele>206.0</ele>
        <time>2022-01-08T15:14:28Z</time>
      </trkpt>
      <trkpt lat="36.7318660" lon="-3.7671610">
        <ele>206.0</ele>
        <time>2022-01-08T15:14:29Z</time>
      </trkpt>
      <trkpt lat="36.7318660" lon="-3.7671610">
        <ele>207.0</ele>
        <time>2022-01-08T15:14:30Z</time>
      </trkpt>
      <trkpt lat="36.7318900" lon="-3.7671780">
        <ele>208.0</ele>
        <time>2022-01-08T15:14:31Z</time>
      </trkpt>
      <trkpt lat="36.7318900" lon="-3.7671780">
        <ele>208.0</ele>
        <time>2022-01-08T15:14:32Z</time>
      </trkpt>
      <trkpt lat="36.7318900" lon="-3.7671780">
        <ele>209.0</ele>
        <time>2022-01-08T15:14:33Z</time>
      </trkpt>
      <trkpt lat="36.7319160" lon="-3.7671910">
        <ele>210.0</ele>
        <time>2022-01-08T15:14:34Z</time>
      </trkpt>
      <trkpt lat="36.7319160" lon="-3.7671910">
        <ele>210.0</ele>
        <time>2022-01-08T15:14:35Z</time>
      </trkpt>
      <trkpt lat="36.7319410" lon="-3.7671990">
        <ele>210.0</ele>
        <time>2022-01-08T15:14:36Z</time>
      </trkpt>
      <trkpt lat="36.7319410" lon="-3.7671990">
        <ele>210.0</ele>
        <time>2022-01-08T15:14:37Z</time>
      </trkpt>
      <trkpt lat="36.7319600" lon="-3.7672130">
        <ele>210.0</ele>
        <time>2022-01-08T15:14:38Z</time>
      </trkpt>
      <trkpt lat="36.7319600" lon="-3.7672130">
        <ele>210.0</ele>
        <time>2022-01-08T15:14:39Z</time>
      </trkpt>
      <trkpt lat="36.7319760" lon="-3.7672260">
        <ele>211.0</ele>
        <time>2022-01-08T15:14:40Z</time>
      </trkpt>
      <trkpt lat="36.7319760" lon="-3.7672260">
        <ele>211.0</ele>
        <time>2022-01-08T15:14:41Z</time>
      </trkpt>
      <trkpt lat="36.7319940" lon="-3.7672330">
        <ele>212.0</ele>
        <time>2022-01-08T15:14:42Z</time>
      </trkpt>
      <trkpt lat="36.7319940" lon="-3.7672330">
        <ele>212.0</ele>
        <time>2022-01-08T15:14:43Z</time>
      </trkpt>
      <trkpt lat="36.7320070" lon="-3.7672560">
        <ele>212.0</ele>
        <time>2022-01-08T15:14:44Z</time>
      </trkpt>
      <trkpt lat="36.7320070" lon="-3.7672560">
        <ele>212.0</ele>
        <time>2022-01-08T15:14:45Z</time>
      </trkpt>
      <trkpt lat="36.7320250" lon="-3.7672690">
        <ele>212.0</ele>
        <time>2022-01-08T15:14:46Z</time>
      </trkpt>
      <trkpt lat="36.7320250" lon="-3.7672690">
        <ele>213.0</ele>
        <time>2022-01-08T15:14:47Z</time>
      </trkpt>
      <trkpt lat="36.7320250" lon="-3.7672690">
        <ele>213.0</ele>
        <time>2022-01-08T15:14:48Z</time>
      </trkpt>
      <trkpt lat="36.7320510" lon="-3.7672840">
        <ele>213.0</ele>
        <time>2022-01-08T15:14:49Z</time>
      </trkpt>
      <trkpt lat="36.7320510" lon="-3.7672840">
        <ele>214.0</ele>
        <time>2022-01-08T15:14:50Z</time>
      </trkpt>
      <trkpt lat="36.7320690" lon="-3.7672980">
        <ele>214.0</ele>
        <time>2022-01-08T15:14:51Z</time>
      </trkpt>
      <trkpt lat="36.7320690" lon="-3.7672980">
        <ele>214.0</ele>
        <time>2022-01-08T15:14:52Z</time>
      </trkpt>
      <trkpt lat="36.7320900" lon="-3.7673020">
        <ele>215.0</ele>
        <time>2022-01-08T15:14:53Z</time>
      </trkpt>
      <trkpt lat="36.7320900" lon="-3.7673020">
        <ele>215.0</ele>
        <time>2022-01-08T15:14:54Z</time>
      </trkpt>
      <trkpt lat="36.7320900" lon="-3.7673020">
        <ele>215.0</ele>
        <time>2022-01-08T15:14:55Z</time>
      </trkpt>
      <trkpt lat="36.7321150" lon="-3.7672900">
        <ele>216.0</ele>
        <time>2022-01-08T15:14:56Z</time>
      </trkpt>
      <trkpt lat="36.7321370" lon="-3.7672980">
        <ele>216.0</ele>
        <time>2022-01-08T15:14:57Z</time>
      </trkpt>
      <trkpt lat="36.7321370" lon="-3.7672980">
        <ele>217.0</ele>
        <time>2022-01-08T15:14:58Z</time>
      </trkpt>
      <trkpt lat="36.7321710" lon="-3.7672950">
        <ele>217.0</ele>
        <time>2022-01-08T15:14:59Z</time>
      </trkpt>
      <trkpt lat="36.7321910" lon="-3.7672900">
        <ele>217.0</ele>
        <time>2022-01-08T15:15:00Z</time>
      </trkpt>
      <trkpt lat="36.7321910" lon="-3.7672900">
        <ele>217.0</ele>
        <time>2022-01-08T15:15:01Z</time>
      </trkpt>
      <trkpt lat="36.7322240" lon="-3.7672930">
        <ele>217.0</ele>
        <time>2022-01-08T15:15:02Z</time>
      </trkpt>
      <trkpt lat="36.7322240" lon="-3.7672930">
        <ele>217.0</ele>
        <time>2022-01-08T15:15:03Z</time>
      </trkpt>
      <trkpt lat="36.7322470" lon="-3.7672940">
        <ele>218.0</ele>
        <time>2022-01-08T15:15:04Z</time>
      </trkpt>
      <trkpt lat="36.7322470" lon="-3.7672940">
        <ele>218.0</ele>
        <time>2022-01-08T15:15:05Z</time>
      </trkpt>
      <trkpt lat="36.7322730" lon="-3.7672980">
        <ele>218.0</ele>
        <time>2022-01-08T15:15:06Z</time>
      </trkpt>
      <trkpt lat="36.7322730" lon="-3.7672980">
        <ele>218.0</ele>
        <time>2022-01-08T15:15:07Z</time>
      </trkpt>
      <trkpt lat="36.7322880" lon="-3.7673120">
        <ele>218.0</ele>
        <time>2022-01-08T15:15:08Z</time>
      </trkpt>
      <trkpt lat="36.7322880" lon="-3.7673120">
        <ele>218.0</ele>
        <time>2022-01-08T15:15:09Z</time>
      </trkpt>
      <trkpt lat="36.7322880" lon="-3.7673120">
        <ele>218.0</ele>
        <time>2022-01-08T15:15:10Z</time>
      </trkpt>
      <trkpt lat="36.7323120" lon="-3.7673140">
        <ele>218.0</ele>
        <time>2022-01-08T15:15:11Z</time>
      </trkpt>
      <trkpt lat="36.7323120" lon="-3.7673140">
        <ele>218.0</ele>
        <time>2022-01-08T15:15:12Z</time>
      </trkpt>
      <trkpt lat="36.7323340" lon="-3.7673150">
        <ele>218.0</ele>
        <time>2022-01-08T15:15:13Z</time>
      </trkpt>
      <trkpt lat="36.7323340" lon="-3.7673150">
        <ele>218.0</ele>
        <time>2022-01-08T15:15:14Z</time>
      </trkpt>
      <trkpt lat="36.7323550" lon="-3.7673170">
        <ele>219.0</ele>
        <time>2022-01-08T15:15:15Z</time>
      </trkpt>
      <trkpt lat="36.7323550" lon="-3.7673170">
        <ele>219.0</ele>
        <time>2022-01-08T15:15:16Z</time>
      </trkpt>
      <trkpt lat="36.7323740" lon="-3.7673090">
        <ele>219.0</ele>
        <time>2022-01-08T15:15:17Z</time>
      </trkpt>
      <trkpt lat="36.7323740" lon="-3.7673090">
        <ele>220.0</ele>
        <time>2022-01-08T15:15:18Z</time>
      </trkpt>
      <trkpt lat="36.7323910" lon="-3.7672980">
        <ele>220.0</ele>
        <time>2022-01-08T15:15:19Z</time>
      </trkpt>
      <trkpt lat="36.7323910" lon="-3.7672980">
        <ele>220.0</ele>
        <time>2022-01-08T15:15:20Z</time>
      </trkpt>
      <trkpt lat="36.7323910" lon="-3.7672980">
        <ele>221.0</ele>
        <time>2022-01-08T15:15:21Z</time>
      </trkpt>
      <trkpt lat="36.7324150" lon="-3.7673040">
        <ele>221.0</ele>
        <time>2022-01-08T15:15:22Z</time>
      </trkpt>
      <trkpt lat="36.7324150" lon="-3.7673040">
        <ele>222.0</ele>
        <time>2022-01-08T15:15:23Z</time>
      </trkpt>
      <trkpt lat="36.7324150" lon="-3.7673040">
        <ele>222.0</ele>
        <time>2022-01-08T15:15:24Z</time>
      </trkpt>
      <trkpt lat="36.7324430" lon="-3.7673170">
        <ele>223.0</ele>
        <time>2022-01-08T15:15:25Z</time>
      </trkpt>
      <trkpt lat="36.7324430" lon="-3.7673170">
        <ele>223.0</ele>
        <time>2022-01-08T15:15:26Z</time>
      </trkpt>
      <trkpt lat="36.7324430" lon="-3.7673170">
        <ele>223.0</ele>
        <time>2022-01-08T15:15:27Z</time>
      </trkpt>
      <trkpt lat="36.7324640" lon="-3.7673090">
        <ele>223.0</ele>
        <time>2022-01-08T15:15:28Z</time>
      </trkpt>
      <trkpt lat="36.7324640" lon="-3.7673090">
        <ele>223.0</ele>
        <time>2022-01-08T15:15:29Z</time>
      </trkpt>
      <trkpt lat="36.7324930" lon="-3.7673120">
        <ele>223.0</ele>
        <time>2022-01-08T15:15:30Z</time>
      </trkpt>
      <trkpt lat="36.7324930" lon="-3.7673120">
        <ele>223.0</ele>
        <time>2022-01-08T15:15:31Z</time>
      </trkpt>
      <trkpt lat="36.7325200" lon="-3.7673140">
        <ele>224.0</ele>
        <time>2022-01-08T15:15:32Z</time>
      </trkpt>
      <trkpt lat="36.7325200" lon="-3.7673140">
        <ele>224.0</ele>
        <time>2022-01-08T15:15:33Z</time>
      </trkpt>
      <trkpt lat="36.7325460" lon="-3.7673110">
        <ele>224.0</ele>
        <time>2022-01-08T15:15:34Z</time>
      </trkpt>
      <trkpt lat="36.7325460" lon="-3.7673110">
        <ele>224.0</ele>
        <time>2022-01-08T15:15:35Z</time>
      </trkpt>
      <trkpt lat="36.7325660" lon="-3.7673050">
        <ele>224.0</ele>
        <time>2022-01-08T15:15:36Z</time>
      </trkpt>
      <trkpt lat="36.7325660" lon="-3.7673050">
        <ele>224.0</ele>
        <time>2022-01-08T15:15:37Z</time>
      </trkpt>
      <trkpt lat="36.7325660" lon="-3.7673050">
        <ele>225.0</ele>
        <time>2022-01-08T15:15:38Z</time>
      </trkpt>
      <trkpt lat="36.7325880" lon="-3.7672920">
        <ele>225.0</ele>
        <time>2022-01-08T15:15:39Z</time>
      </trkpt>
      <trkpt lat="36.7325880" lon="-3.7672920">
        <ele>226.0</ele>
        <time>2022-01-08T15:15:40Z</time>
      </trkpt>
      <trkpt lat="36.7326070" lon="-3.7672900">
        <ele>226.0</ele>
        <time>2022-01-08T15:15:41Z</time>
      </trkpt>
      <trkpt lat="36.7326070" lon="-3.7672900">
        <ele>226.0</ele>
        <time>2022-01-08T15:15:42Z</time>
      </trkpt>
      <trkpt lat="36.7326070" lon="-3.7672900">
        <ele>226.0</ele>
        <time>2022-01-08T15:15:43Z</time>
      </trkpt>
      <trkpt lat="36.7326320" lon="-3.7672860">
        <ele>227.0</ele>
        <time>2022-01-08T15:15:44Z</time>
      </trkpt>
      <trkpt lat="36.7326320" lon="-3.7672860">
        <ele>227.0</ele>
        <time>2022-01-08T15:15:45Z</time>
      </trkpt>
      <trkpt lat="36.7326520" lon="-3.7672780">
        <ele>227.0</ele>
        <time>2022-01-08T15:15:46Z</time>
      </trkpt>
      <trkpt lat="36.7326520" lon="-3.7672780">
        <ele>227.0</ele>
        <time>2022-01-08T15:15:47Z</time>
      </trkpt>
      <trkpt lat="36.7326710" lon="-3.7672730">
        <ele>227.0</ele>
        <time>2022-01-08T15:15:48Z</time>
      </trkpt>
      <trkpt lat="36.7326710" lon="-3.7672730">
        <ele>227.0</ele>
        <time>2022-01-08T15:15:49Z</time>
      </trkpt>
      <trkpt lat="36.7327030" lon="-3.7672620">
        <ele>227.0</ele>
        <time>2022-01-08T15:15:50Z</time>
      </trkpt>
      <trkpt lat="36.7327030" lon="-3.7672620">
        <ele>227.0</ele>
        <time>2022-01-08T15:15:51Z</time>
      </trkpt>
      <trkpt lat="36.7327280" lon="-3.7672420">
        <ele>227.0</ele>
        <time>2022-01-08T15:15:52Z</time>
      </trkpt>
      <trkpt lat="36.7327280" lon="-3.7672420">
        <ele>227.0</ele>
        <time>2022-01-08T15:15:53Z</time>
      </trkpt>
      <trkpt lat="36.7327490" lon="-3.7672400">
        <ele>227.0</ele>
        <time>2022-01-08T15:15:54Z</time>
      </trkpt>
      <trkpt lat="36.7327490" lon="-3.7672400">
        <ele>227.0</ele>
        <time>2022-01-08T15:15:55Z</time>
      </trkpt>
      <trkpt lat="36.7327490" lon="-3.7672400">
        <ele>228.0</ele>
        <time>2022-01-08T15:15:56Z</time>
      </trkpt>
      <trkpt lat="36.7327490" lon="-3.7672400">
        <ele>228.0</ele>
        <time>2022-01-08T15:15:57Z</time>
      </trkpt>
      <trkpt lat="36.7327700" lon="-3.7672400">
        <ele>228.0</ele>
        <time>2022-01-08T15:15:58Z</time>
      </trkpt>
      <trkpt lat="36.7327700" lon="-3.7672400">
        <ele>228.0</ele>
        <time>2022-01-08T15:15:59Z</time>
      </trkpt>
      <trkpt lat="36.7327890" lon="-3.7672400">
        <ele>228.0</ele>
        <time>2022-01-08T15:16:00Z</time>
      </trkpt>
      <trkpt lat="36.7327890" lon="-3.7672400">
        <ele>229.0</ele>
        <time>2022-01-08T15:16:01Z</time>
      </trkpt>
      <trkpt lat="36.7328140" lon="-3.7672400">
        <ele>229.0</ele>
        <time>2022-01-08T15:16:02Z</time>
      </trkpt>
      <trkpt lat="36.7328140" lon="-3.7672400">
        <ele>229.0</ele>
        <time>2022-01-08T15:16:03Z</time>
      </trkpt>
      <trkpt lat="36.7328350" lon="-3.7672450">
        <ele>229.0</ele>
        <time>2022-01-08T15:16:04Z</time>
      </trkpt>
      <trkpt lat="36.7328350" lon="-3.7672450">
        <ele>230.0</ele>
        <time>2022-01-08T15:16:05Z</time>
      </trkpt>
      <trkpt lat="36.7328570" lon="-3.7672330">
        <ele>230.0</ele>
        <time>2022-01-08T15:16:06Z</time>
      </trkpt>
      <trkpt lat="36.7328570" lon="-3.7672330">
        <ele>230.0</ele>
        <time>2022-01-08T15:16:07Z</time>
      </trkpt>
      <trkpt lat="36.7328870" lon="-3.7672360">
        <ele>230.0</ele>
        <time>2022-01-08T15:16:08Z</time>
      </trkpt>
      <trkpt lat="36.7328870" lon="-3.7672360">
        <ele>230.0</ele>
        <time>2022-01-08T15:16:09Z</time>
      </trkpt>
      <trkpt lat="36.7329200" lon="-3.7672440">
        <ele>230.0</ele>
        <time>2022-01-08T15:16:10Z</time>
      </trkpt>
      <trkpt lat="36.7329200" lon="-3.7672440">
        <ele>230.0</ele>
        <time>2022-01-08T15:16:11Z</time>
      </trkpt>
      <trkpt lat="36.7329440" lon="-3.7672430">
        <ele>230.0</ele>
        <time>2022-01-08T15:16:12Z</time>
      </trkpt>
      <trkpt lat="36.7329440" lon="-3.7672430">
        <ele>230.0</ele>
        <time>2022-01-08T15:16:13Z</time>
      </trkpt>
      <trkpt lat="36.7329650" lon="-3.7672370">
        <ele>230.0</ele>
        <time>2022-01-08T15:16:14Z</time>
      </trkpt>
      <trkpt lat="36.7329650" lon="-3.7672370">
        <ele>230.0</ele>
        <time>2022-01-08T15:16:15Z</time>
      </trkpt>
      <trkpt lat="36.7329870" lon="-3.7672160">
        <ele>230.0</ele>
        <time>2022-01-08T15:16:16Z</time>
      </trkpt>
      <trkpt lat="36.7329870" lon="-3.7672160">
        <ele>230.0</ele>
        <time>2022-01-08T15:16:17Z</time>
      </trkpt>
      <trkpt lat="36.7330120" lon="-3.7671970">
        <ele>230.0</ele>
        <time>2022-01-08T15:16:18Z</time>
      </trkpt>
      <trkpt lat="36.7330120" lon="-3.7671970">
        <ele>230.0</ele>
        <time>2022-01-08T15:16:19Z</time>
      </trkpt>
      <trkpt lat="36.7330320" lon="-3.7672010">
        <ele>230.0</ele>
        <time>2022-01-08T15:16:20Z</time>
      </trkpt>
      <trkpt lat="36.7330320" lon="-3.7672010">
        <ele>230.0</ele>
        <time>2022-01-08T15:16:21Z</time>
      </trkpt>
      <trkpt lat="36.7330550" lon="-3.7672020">
        <ele>230.0</ele>
        <time>2022-01-08T15:16:22Z</time>
      </trkpt>
      <trkpt lat="36.7330550" lon="-3.7672020">
        <ele>230.0</ele>
        <time>2022-01-08T15:16:23Z</time>
      </trkpt>
      <trkpt lat="36.7330760" lon="-3.7672220">
        <ele>230.0</ele>
        <time>2022-01-08T15:16:24Z</time>
      </trkpt>
      <trkpt lat="36.7330920" lon="-3.7672340">
        <ele>230.0</ele>
        <time>2022-01-08T15:16:25Z</time>
      </trkpt>
      <trkpt lat="36.7330920" lon="-3.7672340">
        <ele>230.0</ele>
        <time>2022-01-08T15:16:26Z</time>
      </trkpt>
      <trkpt lat="36.7331220" lon="-3.7672420">
        <ele>230.0</ele>
        <time>2022-01-08T15:16:27Z</time>
      </trkpt>
      <trkpt lat="36.7331220" lon="-3.7672420">
        <ele>230.0</ele>
        <time>2022-01-08T15:16:28Z</time>
      </trkpt>
      <trkpt lat="36.7331500" lon="-3.7672330">
        <ele>230.0</ele>
        <time>2022-01-08T15:16:29Z</time>
      </trkpt>
      <trkpt lat="36.7331500" lon="-3.7672330">
        <ele>230.0</ele>
        <time>2022-01-08T15:16:30Z</time>
      </trkpt>
      <trkpt lat="36.7331760" lon="-3.7672350">
        <ele>230.0</ele>
        <time>2022-01-08T15:16:31Z</time>
      </trkpt>
      <trkpt lat="36.7331760" lon="-3.7672350">
        <ele>230.0</ele>
        <time>2022-01-08T15:16:32Z</time>
      </trkpt>
      <trkpt lat="36.7332140" lon="-3.7672360">
        <ele>230.0</ele>
        <time>2022-01-08T15:16:33Z</time>
      </trkpt>
      <trkpt lat="36.7332340" lon="-3.7672360">
        <ele>230.0</ele>
        <time>2022-01-08T15:16:34Z</time>
      </trkpt>
      <trkpt lat="36.7332530" lon="-3.7672290">
        <ele>230.0</ele>
        <time>2022-01-08T15:16:35Z</time>
      </trkpt>
      <trkpt lat="36.7332720" lon="-3.7672250">
        <ele>231.0</ele>
        <time>2022-01-08T15:16:36Z</time>
      </trkpt>
      <trkpt lat="36.7332920" lon="-3.7672210">
        <ele>231.0</ele>
        <time>2022-01-08T15:16:37Z</time>
      </trkpt>
      <trkpt lat="36.7333140" lon="-3.7672170">
        <ele>231.0</ele>
        <time>2022-01-08T15:16:38Z</time>
      </trkpt>
      <trkpt lat="36.7333350" lon="-3.7672170">
        <ele>230.0</ele>
        <time>2022-01-08T15:16:39Z</time>
      </trkpt>
      <trkpt lat="36.7333540" lon="-3.7672180">
        <ele>230.0</ele>
        <time>2022-01-08T15:16:40Z</time>
      </trkpt>
      <trkpt lat="36.7333540" lon="-3.7672180">
        <ele>230.0</ele>
        <time>2022-01-08T15:16:41Z</time>
      </trkpt>
      <trkpt lat="36.7333780" lon="-3.7672320">
        <ele>230.0</ele>
        <time>2022-01-08T15:16:42Z</time>
      </trkpt>
      <trkpt lat="36.7333780" lon="-3.7672320">
        <ele>230.0</ele>
        <time>2022-01-08T15:16:43Z</time>
      </trkpt>
      <trkpt lat="36.7334030" lon="-3.7672470">
        <ele>230.0</ele>
        <time>2022-01-08T15:16:44Z</time>
      </trkpt>
      <trkpt lat="36.7334030" lon="-3.7672470">
        <ele>230.0</ele>
        <time>2022-01-08T15:16:45Z</time>
      </trkpt>
      <trkpt lat="36.7334280" lon="-3.7672280">
        <ele>230.0</ele>
        <time>2022-01-08T15:16:46Z</time>
      </trkpt>
      <trkpt lat="36.7334420" lon="-3.7672140">
        <ele>230.0</ele>
        <time>2022-01-08T15:16:47Z</time>
      </trkpt>
      <trkpt lat="36.7334420" lon="-3.7672140">
        <ele>230.0</ele>
        <time>2022-01-08T15:16:48Z</time>
      </trkpt>
      <trkpt lat="36.7334760" lon="-3.7671920">
        <ele>230.0</ele>
        <time>2022-01-08T15:16:49Z</time>
      </trkpt>
      <trkpt lat="36.7334960" lon="-3.7671800">
        <ele>229.0</ele>
        <time>2022-01-08T15:16:50Z</time>
      </trkpt>
      <trkpt lat="36.7335190" lon="-3.7671680">
        <ele>229.0</ele>
        <time>2022-01-08T15:16:51Z</time>
      </trkpt>
      <trkpt lat="36.7335400" lon="-3.7671590">
        <ele>229.0</ele>
        <time>2022-01-08T15:16:52Z</time>
      </trkpt>
      <trkpt lat="36.7335580" lon="-3.7671540">
        <ele>229.0</ele>
        <time>2022-01-08T15:16:53Z</time>
      </trkpt>
      <trkpt lat="36.7335790" lon="-3.7671450">
        <ele>229.0</ele>
        <time>2022-01-08T15:16:54Z</time>
      </trkpt>
      <trkpt lat="36.7336000" lon="-3.7671430">
        <ele>228.0</ele>
        <time>2022-01-08T15:16:55Z</time>
      </trkpt>
      <trkpt lat="36.7336000" lon="-3.7671430">
        <ele>228.0</ele>
        <time>2022-01-08T15:16:56Z</time>
      </trkpt>
      <trkpt lat="36.7336250" lon="-3.7671510">
        <ele>228.0</ele>
        <time>2022-01-08T15:16:57Z</time>
      </trkpt>
      <trkpt lat="36.7336250" lon="-3.7671510">
        <ele>228.0</ele>
        <time>2022-01-08T15:16:58Z</time>
      </trkpt>
      <trkpt lat="36.7336490" lon="-3.7671420">
        <ele>228.0</ele>
        <time>2022-01-08T15:16:59Z</time>
      </trkpt>
      <trkpt lat="36.7336680" lon="-3.7671380">
        <ele>228.0</ele>
        <time>2022-01-08T15:17:00Z</time>
      </trkpt>
      <trkpt lat="36.7336680" lon="-3.7671380">
        <ele>228.0</ele>
        <time>2022-01-08T15:17:01Z</time>
      </trkpt>
      <trkpt lat="36.7337030" lon="-3.7671340">
        <ele>227.0</ele>
        <time>2022-01-08T15:17:02Z</time>
      </trkpt>
      <trkpt lat="36.7337230" lon="-3.7671370">
        <ele>226.0</ele>
        <time>2022-01-08T15:17:03Z</time>
      </trkpt>
      <trkpt lat="36.7337410" lon="-3.7671450">
        <ele>226.0</ele>
        <time>2022-01-08T15:17:04Z</time>
      </trkpt>
      <trkpt lat="36.7337570" lon="-3.7671570">
        <ele>225.0</ele>
        <time>2022-01-08T15:17:05Z</time>
      </trkpt>
      <trkpt lat="36.7337770" lon="-3.7671660">
        <ele>224.0</ele>
        <time>2022-01-08T15:17:06Z</time>
      </trkpt>
      <trkpt lat="36.7337950" lon="-3.7671730">
        <ele>224.0</ele>
        <time>2022-01-08T15:17:07Z</time>
      </trkpt>
      <trkpt lat="36.7338110" lon="-3.7671860">
        <ele>224.0</ele>
        <time>2022-01-08T15:17:08Z</time>
      </trkpt>
      <trkpt lat="36.7338280" lon="-3.7672000">
        <ele>224.0</ele>
        <time>2022-01-08T15:17:09Z</time>
      </trkpt>
      <trkpt lat="36.7338280" lon="-3.7672000">
        <ele>224.0</ele>
        <time>2022-01-08T15:17:10Z</time>
      </trkpt>
      <trkpt lat="36.7338550" lon="-3.7672280">
        <ele>224.0</ele>
        <time>2022-01-08T15:17:11Z</time>
      </trkpt>
      <trkpt lat="36.7338550" lon="-3.7672280">
        <ele>224.0</ele>
        <time>2022-01-08T15:17:12Z</time>
      </trkpt>
      <trkpt lat="36.7338770" lon="-3.7672550">
        <ele>223.0</ele>
        <time>2022-01-08T15:17:13Z</time>
      </trkpt>
      <trkpt lat="36.7338770" lon="-3.7672550">
        <ele>222.0</ele>
        <time>2022-01-08T15:17:14Z</time>
      </trkpt>
      <trkpt lat="36.7338980" lon="-3.7672670">
        <ele>222.0</ele>
        <time>2022-01-08T15:17:15Z</time>
      </trkpt>
      <trkpt lat="36.7338980" lon="-3.7672670">
        <ele>222.0</ele>
        <time>2022-01-08T15:17:16Z</time>
      </trkpt>
      <trkpt lat="36.7339280" lon="-3.7672710">
        <ele>221.0</ele>
        <time>2022-01-08T15:17:17Z</time>
      </trkpt>
      <trkpt lat="36.7339470" lon="-3.7672650">
        <ele>220.0</ele>
        <time>2022-01-08T15:17:18Z</time>
      </trkpt>
      <trkpt lat="36.7339470" lon="-3.7672650">
        <ele>220.0</ele>
        <time>2022-01-08T15:17:19Z</time>
      </trkpt>
      <trkpt lat="36.7339750" lon="-3.7672750">
        <ele>219.0</ele>
        <time>2022-01-08T15:17:20Z</time>
      </trkpt>
      <trkpt lat="36.7339750" lon="-3.7672750">
        <ele>219.0</ele>
        <time>2022-01-08T15:17:21Z</time>
      </trkpt>
      <trkpt lat="36.7340020" lon="-3.7672980">
        <ele>218.0</ele>
        <time>2022-01-08T15:17:22Z</time>
      </trkpt>
      <trkpt lat="36.7340020" lon="-3.7672980">
        <ele>218.0</ele>
        <time>2022-01-08T15:17:23Z</time>
      </trkpt>
      <trkpt lat="36.7340210" lon="-3.7673240">
        <ele>218.0</ele>
        <time>2022-01-08T15:17:24Z</time>
      </trkpt>
      <trkpt lat="36.7340210" lon="-3.7673240">
        <ele>217.0</ele>
        <time>2022-01-08T15:17:25Z</time>
      </trkpt>
      <trkpt lat="36.7340360" lon="-3.7673400">
        <ele>217.0</ele>
        <time>2022-01-08T15:17:26Z</time>
      </trkpt>
      <trkpt lat="36.7340580" lon="-3.7673660">
        <ele>217.0</ele>
        <time>2022-01-08T15:17:27Z</time>
      </trkpt>
      <trkpt lat="36.7340580" lon="-3.7673660">
        <ele>217.0</ele>
        <time>2022-01-08T15:17:28Z</time>
      </trkpt>
      <trkpt lat="36.7340740" lon="-3.7673900">
        <ele>217.0</ele>
        <time>2022-01-08T15:17:29Z</time>
      </trkpt>
      <trkpt lat="36.7340740" lon="-3.7673900">
        <ele>217.0</ele>
        <time>2022-01-08T15:17:30Z</time>
      </trkpt>
      <trkpt lat="36.7340970" lon="-3.7674160">
        <ele>216.0</ele>
        <time>2022-01-08T15:17:31Z</time>
      </trkpt>
      <trkpt lat="36.7340970" lon="-3.7674160">
        <ele>216.0</ele>
        <time>2022-01-08T15:17:32Z</time>
      </trkpt>
      <trkpt lat="36.7341130" lon="-3.7674420">
        <ele>216.0</ele>
        <time>2022-01-08T15:17:33Z</time>
      </trkpt>
      <trkpt lat="36.7341130" lon="-3.7674420">
        <ele>215.0</ele>
        <time>2022-01-08T15:17:34Z</time>
      </trkpt>
      <trkpt lat="36.7341310" lon="-3.7674600">
        <ele>215.0</ele>
        <time>2022-01-08T15:17:35Z</time>
      </trkpt>
      <trkpt lat="36.7341310" lon="-3.7674600">
        <ele>215.0</ele>
        <time>2022-01-08T15:17:36Z</time>
      </trkpt>
      <trkpt lat="36.7341570" lon="-3.7674680">
        <ele>214.0</ele>
        <time>2022-01-08T15:17:37Z</time>
      </trkpt>
      <trkpt lat="36.7341570" lon="-3.7674680">
        <ele>214.0</ele>
        <time>2022-01-08T15:17:38Z</time>
      </trkpt>
      <trkpt lat="36.7341750" lon="-3.7674430">
        <ele>214.0</ele>
        <time>2022-01-08T15:17:39Z</time>
      </trkpt>
      <trkpt lat="36.7341750" lon="-3.7674430">
        <ele>213.0</ele>
        <time>2022-01-08T15:17:40Z</time>
      </trkpt>
      <trkpt lat="36.7341960" lon="-3.7674460">
        <ele>213.0</ele>
        <time>2022-01-08T15:17:41Z</time>
      </trkpt>
      <trkpt lat="36.7342150" lon="-3.7674400">
        <ele>213.0</ele>
        <time>2022-01-08T15:17:42Z</time>
      </trkpt>
      <trkpt lat="36.7342150" lon="-3.7674400">
        <ele>212.0</ele>
        <time>2022-01-08T15:17:43Z</time>
      </trkpt>
      <trkpt lat="36.7342440" lon="-3.7674360">
        <ele>211.0</ele>
        <time>2022-01-08T15:17:44Z</time>
      </trkpt>
      <trkpt lat="36.7342440" lon="-3.7674360">
        <ele>211.0</ele>
        <time>2022-01-08T15:17:45Z</time>
      </trkpt>
      <trkpt lat="36.7342790" lon="-3.7674470">
        <ele>210.0</ele>
        <time>2022-01-08T15:17:46Z</time>
      </trkpt>
      <trkpt lat="36.7342790" lon="-3.7674470">
        <ele>210.0</ele>
        <time>2022-01-08T15:17:47Z</time>
      </trkpt>
      <trkpt lat="36.7342990" lon="-3.7674580">
        <ele>209.0</ele>
        <time>2022-01-08T15:17:48Z</time>
      </trkpt>
      <trkpt lat="36.7342990" lon="-3.7674580">
        <ele>209.0</ele>
        <time>2022-01-08T15:17:49Z</time>
      </trkpt>
      <trkpt lat="36.7343280" lon="-3.7674720">
        <ele>210.0</ele>
        <time>2022-01-08T15:17:50Z</time>
      </trkpt>
      <trkpt lat="36.7343510" lon="-3.7674800">
        <ele>210.0</ele>
        <time>2022-01-08T15:17:51Z</time>
      </trkpt>
      <trkpt lat="36.7343700" lon="-3.7674930">
        <ele>210.0</ele>
        <time>2022-01-08T15:17:52Z</time>
      </trkpt>
      <trkpt lat="36.7343920" lon="-3.7675090">
        <ele>210.0</ele>
        <time>2022-01-08T15:17:53Z</time>
      </trkpt>
      <trkpt lat="36.7344080" lon="-3.7675300">
        <ele>210.0</ele>
        <time>2022-01-08T15:17:54Z</time>
      </trkpt>
      <trkpt lat="36.7344170" lon="-3.7675590">
        <ele>210.0</ele>
        <time>2022-01-08T15:17:55Z</time>
      </trkpt>
      <trkpt lat="36.7344190" lon="-3.7675950">
        <ele>210.0</ele>
        <time>2022-01-08T15:17:56Z</time>
      </trkpt>
      <trkpt lat="36.7344230" lon="-3.7676390">
        <ele>210.0</ele>
        <time>2022-01-08T15:17:57Z</time>
      </trkpt>
      <trkpt lat="36.7344270" lon="-3.7676840">
        <ele>210.0</ele>
        <time>2022-01-08T15:17:58Z</time>
      </trkpt>
      <trkpt lat="36.7344270" lon="-3.7676840">
        <ele>210.0</ele>
        <time>2022-01-08T15:17:59Z</time>
      </trkpt>
      <trkpt lat="36.7344350" lon="-3.7677600">
        <ele>210.0</ele>
        <time>2022-01-08T15:18:00Z</time>
      </trkpt>
      <trkpt lat="36.7344400" lon="-3.7677940">
        <ele>210.0</ele>
        <time>2022-01-08T15:18:01Z</time>
      </trkpt>
      <trkpt lat="36.7344470" lon="-3.7678260">
        <ele>209.0</ele>
        <time>2022-01-08T15:18:02Z</time>
      </trkpt>
      <trkpt lat="36.7344560" lon="-3.7678610">
        <ele>209.0</ele>
        <time>2022-01-08T15:18:03Z</time>
      </trkpt>
      <trkpt lat="36.7344720" lon="-3.7678940">
        <ele>209.0</ele>
        <time>2022-01-08T15:18:04Z</time>
      </trkpt>
      <trkpt lat="36.7344890" lon="-3.7679260">
        <ele>209.0</ele>
        <time>2022-01-08T15:18:05Z</time>
      </trkpt>
      <trkpt lat="36.7345040" lon="-3.7679610">
        <ele>209.0</ele>
        <time>2022-01-08T15:18:06Z</time>
      </trkpt>
      <trkpt lat="36.7345180" lon="-3.7679980">
        <ele>209.0</ele>
        <time>2022-01-08T15:18:07Z</time>
      </trkpt>
      <trkpt lat="36.7345320" lon="-3.7680330">
        <ele>209.0</ele>
        <time>2022-01-08T15:18:08Z</time>
      </trkpt>
      <trkpt lat="36.7345470" lon="-3.7680620">
        <ele>209.0</ele>
        <time>2022-01-08T15:18:09Z</time>
      </trkpt>
      <trkpt lat="36.7345660" lon="-3.7680940">
        <ele>209.0</ele>
        <time>2022-01-08T15:18:10Z</time>
      </trkpt>
      <trkpt lat="36.7345840" lon="-3.7681270">
        <ele>208.0</ele>
        <time>2022-01-08T15:18:11Z</time>
      </trkpt>
      <trkpt lat="36.7346020" lon="-3.7681560">
        <ele>207.0</ele>
        <time>2022-01-08T15:18:12Z</time>
      </trkpt>
      <trkpt lat="36.7346220" lon="-3.7681880">
        <ele>208.0</ele>
        <time>2022-01-08T15:18:13Z</time>
      </trkpt>
      <trkpt lat="36.7346400" lon="-3.7682200">
        <ele>208.0</ele>
        <time>2022-01-08T15:18:14Z</time>
      </trkpt>
      <trkpt lat="36.7346570" lon="-3.7682500">
        <ele>208.0</ele>
        <time>2022-01-08T15:18:15Z</time>
      </trkpt>
      <trkpt lat="36.7346760" lon="-3.7682810">
        <ele>207.0</ele>
        <time>2022-01-08T15:18:16Z</time>
      </trkpt>
      <trkpt lat="36.7346930" lon="-3.7683110">
        <ele>206.0</ele>
        <time>2022-01-08T15:18:17Z</time>
      </trkpt>
      <trkpt lat="36.7347080" lon="-3.7683380">
        <ele>205.0</ele>
        <time>2022-01-08T15:18:18Z</time>
      </trkpt>
      <trkpt lat="36.7347230" lon="-3.7683660">
        <ele>204.0</ele>
        <time>2022-01-08T15:18:19Z</time>
      </trkpt>
      <trkpt lat="36.7347410" lon="-3.7683960">
        <ele>204.0</ele>
        <time>2022-01-08T15:18:20Z</time>
      </trkpt>
      <trkpt lat="36.7347570" lon="-3.7684260">
        <ele>204.0</ele>
        <time>2022-01-08T15:18:21Z</time>
      </trkpt>
      <trkpt lat="36.7347720" lon="-3.7684550">
        <ele>204.0</ele>
        <time>2022-01-08T15:18:22Z</time>
      </trkpt>
      <trkpt lat="36.7347890" lon="-3.7684830">
        <ele>204.0</ele>
        <time>2022-01-08T15:18:23Z</time>
      </trkpt>
      <trkpt lat="36.7348080" lon="-3.7685070">
        <ele>204.0</ele>
        <time>2022-01-08T15:18:24Z</time>
      </trkpt>
      <trkpt lat="36.7348220" lon="-3.7685390">
        <ele>204.0</ele>
        <time>2022-01-08T15:18:25Z</time>
      </trkpt>
      <trkpt lat="36.7348400" lon="-3.7685710">
        <ele>204.0</ele>
        <time>2022-01-08T15:18:26Z</time>
      </trkpt>
      <trkpt lat="36.7348570" lon="-3.7686030">
        <ele>203.0</ele>
        <time>2022-01-08T15:18:27Z</time>
      </trkpt>
      <trkpt lat="36.7348730" lon="-3.7686350">
        <ele>203.0</ele>
        <time>2022-01-08T15:18:28Z</time>
      </trkpt>
      <trkpt lat="36.7348890" lon="-3.7686660">
        <ele>203.0</ele>
        <time>2022-01-08T15:18:29Z</time>
      </trkpt>
      <trkpt lat="36.7348890" lon="-3.7686660">
        <ele>203.0</ele>
        <time>2022-01-08T15:18:30Z</time>
      </trkpt>
      <trkpt lat="36.7349190" lon="-3.7687520">
        <ele>202.0</ele>
        <time>2022-01-08T15:18:31Z</time>
      </trkpt>
      <trkpt lat="36.7349240" lon="-3.7687700">
        <ele>202.0</ele>
        <time>2022-01-08T15:18:32Z</time>
      </trkpt>
      <trkpt lat="36.7349330" lon="-3.7688020">
        <ele>201.0</ele>
        <time>2022-01-08T15:18:33Z</time>
      </trkpt>
      <trkpt lat="36.7349380" lon="-3.7688390">
        <ele>201.0</ele>
        <time>2022-01-08T15:18:34Z</time>
      </trkpt>
      <trkpt lat="36.7349440" lon="-3.7688750">
        <ele>201.0</ele>
        <time>2022-01-08T15:18:35Z</time>
      </trkpt>
      <trkpt lat="36.7349490" lon="-3.7689130">
        <ele>201.0</ele>
        <time>2022-01-08T15:18:36Z</time>
      </trkpt>
      <trkpt lat="36.7349490" lon="-3.7689130">
        <ele>201.0</ele>
        <time>2022-01-08T15:18:37Z</time>
      </trkpt>
      <trkpt lat="36.7349600" lon="-3.7690010">
        <ele>201.0</ele>
        <time>2022-01-08T15:18:38Z</time>
      </trkpt>
      <trkpt lat="36.7349630" lon="-3.7690180">
        <ele>201.0</ele>
        <time>2022-01-08T15:18:39Z</time>
      </trkpt>
      <trkpt lat="36.7349680" lon="-3.7690530">
        <ele>201.0</ele>
        <time>2022-01-08T15:18:40Z</time>
      </trkpt>
      <trkpt lat="36.7349740" lon="-3.7690840">
        <ele>200.0</ele>
        <time>2022-01-08T15:18:41Z</time>
      </trkpt>
      <trkpt lat="36.7349780" lon="-3.7691210">
        <ele>200.0</ele>
        <time>2022-01-08T15:18:42Z</time>
      </trkpt>
      <trkpt lat="36.7349830" lon="-3.7691590">
        <ele>200.0</ele>
        <time>2022-01-08T15:18:43Z</time>
      </trkpt>
      <trkpt lat="36.7349900" lon="-3.7691950">
        <ele>200.0</ele>
        <time>2022-01-08T15:18:44Z</time>
      </trkpt>
      <trkpt lat="36.7349970" lon="-3.7692300">
        <ele>200.0</ele>
        <time>2022-01-08T15:18:45Z</time>
      </trkpt>
      <trkpt lat="36.7350050" lon="-3.7692660">
        <ele>199.0</ele>
        <time>2022-01-08T15:18:46Z</time>
      </trkpt>
      <trkpt lat="36.7350050" lon="-3.7692660">
        <ele>199.0</ele>
        <time>2022-01-08T15:18:47Z</time>
      </trkpt>
      <trkpt lat="36.7350220" lon="-3.7693340">
        <ele>199.0</ele>
        <time>2022-01-08T15:18:48Z</time>
      </trkpt>
      <trkpt lat="36.7350290" lon="-3.7693670">
        <ele>199.0</ele>
        <time>2022-01-08T15:18:49Z</time>
      </trkpt>
      <trkpt lat="36.7350360" lon="-3.7694060">
        <ele>198.0</ele>
        <time>2022-01-08T15:18:50Z</time>
      </trkpt>
      <trkpt lat="36.7350450" lon="-3.7694390">
        <ele>198.0</ele>
        <time>2022-01-08T15:18:51Z</time>
      </trkpt>
      <trkpt lat="36.7350580" lon="-3.7694680">
        <ele>199.0</ele>
        <time>2022-01-08T15:18:52Z</time>
      </trkpt>
      <trkpt lat="36.7350670" lon="-3.7695020">
        <ele>199.0</ele>
        <time>2022-01-08T15:18:53Z</time>
      </trkpt>
      <trkpt lat="36.7350720" lon="-3.7695360">
        <ele>198.0</ele>
        <time>2022-01-08T15:18:54Z</time>
      </trkpt>
      <trkpt lat="36.7350730" lon="-3.7695760">
        <ele>198.0</ele>
        <time>2022-01-08T15:18:55Z</time>
      </trkpt>
      <trkpt lat="36.7350720" lon="-3.7696160">
        <ele>198.0</ele>
        <time>2022-01-08T15:18:56Z</time>
      </trkpt>
      <trkpt lat="36.7350720" lon="-3.7696520">
        <ele>198.0</ele>
        <time>2022-01-08T15:18:57Z</time>
      </trkpt>
      <trkpt lat="36.7350750" lon="-3.7696870">
        <ele>198.0</ele>
        <time>2022-01-08T15:18:58Z</time>
      </trkpt>
      <trkpt lat="36.7350800" lon="-3.7697230">
        <ele>198.0</ele>
        <time>2022-01-08T15:18:59Z</time>
      </trkpt>
      <trkpt lat="36.7350870" lon="-3.7697560">
        <ele>198.0</ele>
        <time>2022-01-08T15:19:00Z</time>
      </trkpt>
      <trkpt lat="36.7350960" lon="-3.7697940">
        <ele>198.0</ele>
        <time>2022-01-08T15:19:01Z</time>
      </trkpt>
      <trkpt lat="36.7351070" lon="-3.7698300">
        <ele>198.0</ele>
        <time>2022-01-08T15:19:02Z</time>
      </trkpt>
      <trkpt lat="36.7351180" lon="-3.7698660">
        <ele>198.0</ele>
        <time>2022-01-08T15:19:03Z</time>
      </trkpt>
      <trkpt lat="36.7351300" lon="-3.7699030">
        <ele>198.0</ele>
        <time>2022-01-08T15:19:04Z</time>
      </trkpt>
      <trkpt lat="36.7351440" lon="-3.7699370">
        <ele>198.0</ele>
        <time>2022-01-08T15:19:05Z</time>
      </trkpt>
      <trkpt lat="36.7351570" lon="-3.7699670">
        <ele>198.0</ele>
        <time>2022-01-08T15:19:06Z</time>
      </trkpt>
      <trkpt lat="36.7351760" lon="-3.7699950">
        <ele>198.0</ele>
        <time>2022-01-08T15:19:07Z</time>
      </trkpt>
      <trkpt lat="36.7351980" lon="-3.7700200">
        <ele>197.0</ele>
        <time>2022-01-08T15:19:08Z</time>
      </trkpt>
      <trkpt lat="36.7352180" lon="-3.7700460">
        <ele>197.0</ele>
        <time>2022-01-08T15:19:09Z</time>
      </trkpt>
      <trkpt lat="36.7352400" lon="-3.7700710">
        <ele>197.0</ele>
        <time>2022-01-08T15:19:10Z</time>
      </trkpt>
      <trkpt lat="36.7352620" lon="-3.7700970">
        <ele>197.0</ele>
        <time>2022-01-08T15:19:11Z</time>
      </trkpt>
      <trkpt lat="36.7352880" lon="-3.7701180">
        <ele>196.0</ele>
        <time>2022-01-08T15:19:12Z</time>
      </trkpt>
      <trkpt lat="36.7353170" lon="-3.7701300">
        <ele>196.0</ele>
        <time>2022-01-08T15:19:13Z</time>
      </trkpt>
      <trkpt lat="36.7353470" lon="-3.7701390">
        <ele>196.0</ele>
        <time>2022-01-08T15:19:14Z</time>
      </trkpt>
      <trkpt lat="36.7353780" lon="-3.7701490">
        <ele>196.0</ele>
        <time>2022-01-08T15:19:15Z</time>
      </trkpt>
      <trkpt lat="36.7354110" lon="-3.7701530">
        <ele>196.0</ele>
        <time>2022-01-08T15:19:16Z</time>
      </trkpt>
      <trkpt lat="36.7354440" lon="-3.7701530">
        <ele>196.0</ele>
        <time>2022-01-08T15:19:17Z</time>
      </trkpt>
      <trkpt lat="36.7354770" lon="-3.7701520">
        <ele>196.0</ele>
        <time>2022-01-08T15:19:18Z</time>
      </trkpt>
      <trkpt lat="36.7355100" lon="-3.7701500">
        <ele>195.0</ele>
        <time>2022-01-08T15:19:19Z</time>
      </trkpt>
      <trkpt lat="36.7355420" lon="-3.7701500">
        <ele>195.0</ele>
        <time>2022-01-08T15:19:20Z</time>
      </trkpt>
      <trkpt lat="36.7355710" lon="-3.7701570">
        <ele>195.0</ele>
        <time>2022-01-08T15:19:21Z</time>
      </trkpt>
      <trkpt lat="36.7356000" lon="-3.7701730">
        <ele>195.0</ele>
        <time>2022-01-08T15:19:22Z</time>
      </trkpt>
      <trkpt lat="36.7356240" lon="-3.7701950">
        <ele>195.0</ele>
        <time>2022-01-08T15:19:23Z</time>
      </trkpt>
      <trkpt lat="36.7356480" lon="-3.7702200">
        <ele>195.0</ele>
        <time>2022-01-08T15:19:24Z</time>
      </trkpt>
      <trkpt lat="36.7356720" lon="-3.7702420">
        <ele>195.0</ele>
        <time>2022-01-08T15:19:25Z</time>
      </trkpt>
      <trkpt lat="36.7356970" lon="-3.7702630">
        <ele>195.0</ele>
        <time>2022-01-08T15:19:26Z</time>
      </trkpt>
      <trkpt lat="36.7357210" lon="-3.7702900">
        <ele>195.0</ele>
        <time>2022-01-08T15:19:27Z</time>
      </trkpt>
      <trkpt lat="36.7357440" lon="-3.7703120">
        <ele>195.0</ele>
        <time>2022-01-08T15:19:28Z</time>
      </trkpt>
      <trkpt lat="36.7357640" lon="-3.7703350">
        <ele>194.0</ele>
        <time>2022-01-08T15:19:29Z</time>
      </trkpt>
      <trkpt lat="36.7357840" lon="-3.7703660">
        <ele>194.0</ele>
        <time>2022-01-08T15:19:30Z</time>
      </trkpt>
      <trkpt lat="36.7358040" lon="-3.7704000">
        <ele>195.0</ele>
        <time>2022-01-08T15:19:31Z</time>
      </trkpt>
      <trkpt lat="36.7358230" lon="-3.7704340">
        <ele>195.0</ele>
        <time>2022-01-08T15:19:32Z</time>
      </trkpt>
      <trkpt lat="36.7358460" lon="-3.7704660">
        <ele>195.0</ele>
        <time>2022-01-08T15:19:33Z</time>
      </trkpt>
      <trkpt lat="36.7358690" lon="-3.7704990">
        <ele>195.0</ele>
        <time>2022-01-08T15:19:34Z</time>
      </trkpt>
      <trkpt lat="36.7358920" lon="-3.7705290">
        <ele>194.0</ele>
        <time>2022-01-08T15:19:35Z</time>
      </trkpt>
      <trkpt lat="36.7359150" lon="-3.7705550">
        <ele>194.0</ele>
        <time>2022-01-08T15:19:36Z</time>
      </trkpt>
      <trkpt lat="36.7359360" lon="-3.7705860">
        <ele>194.0</ele>
        <time>2022-01-08T15:19:37Z</time>
      </trkpt>
      <trkpt lat="36.7359580" lon="-3.7706180">
        <ele>194.0</ele>
        <time>2022-01-08T15:19:38Z</time>
      </trkpt>
      <trkpt lat="36.7359790" lon="-3.7706510">
        <ele>193.0</ele>
        <time>2022-01-08T15:19:39Z</time>
      </trkpt>
      <trkpt lat="36.7360020" lon="-3.7706820">
        <ele>194.0</ele>
        <time>2022-01-08T15:19:40Z</time>
      </trkpt>
      <trkpt lat="36.7360260" lon="-3.7707140">
        <ele>194.0</ele>
        <time>2022-01-08T15:19:41Z</time>
      </trkpt>
      <trkpt lat="36.7360470" lon="-3.7707430">
        <ele>194.0</ele>
        <time>2022-01-08T15:19:42Z</time>
      </trkpt>
      <trkpt lat="36.7360670" lon="-3.7707730">
        <ele>194.0</ele>
        <time>2022-01-08T15:19:43Z</time>
      </trkpt>
      <trkpt lat="36.7360880" lon="-3.7708040">
        <ele>194.0</ele>
        <time>2022-01-08T15:19:44Z</time>
      </trkpt>
      <trkpt lat="36.7361100" lon="-3.7708400">
        <ele>194.0</ele>
        <time>2022-01-08T15:19:45Z</time>
      </trkpt>
      <trkpt lat="36.7361360" lon="-3.7708720">
        <ele>194.0</ele>
        <time>2022-01-08T15:19:46Z</time>
      </trkpt>
      <trkpt lat="36.7361620" lon="-3.7709010">
        <ele>194.0</ele>
        <time>2022-01-08T15:19:47Z</time>
      </trkpt>
      <trkpt lat="36.7361880" lon="-3.7709300">
        <ele>194.0</ele>
        <time>2022-01-08T15:19:48Z</time>
      </trkpt>
      <trkpt lat="36.7362110" lon="-3.7709550">
        <ele>194.0</ele>
        <time>2022-01-08T15:19:49Z</time>
      </trkpt>
      <trkpt lat="36.7362310" lon="-3.7709840">
        <ele>193.0</ele>
        <time>2022-01-08T15:19:50Z</time>
      </trkpt>
      <trkpt lat="36.7362310" lon="-3.7709840">
        <ele>193.0</ele>
        <time>2022-01-08T15:19:51Z</time>
      </trkpt>
      <trkpt lat="36.7362890" lon="-3.7710420">
        <ele>193.0</ele>
        <time>2022-01-08T15:19:52Z</time>
      </trkpt>
      <trkpt lat="36.7362890" lon="-3.7710420">
        <ele>193.0</ele>
        <time>2022-01-08T15:19:53Z</time>
      </trkpt>
      <trkpt lat="36.7363620" lon="-3.7710970">
        <ele>192.0</ele>
        <time>2022-01-08T15:19:54Z</time>
      </trkpt>
      <trkpt lat="36.7363770" lon="-3.7711070">
        <ele>192.0</ele>
        <time>2022-01-08T15:19:55Z</time>
      </trkpt>
      <trkpt lat="36.7364050" lon="-3.7711220">
        <ele>192.0</ele>
        <time>2022-01-08T15:19:56Z</time>
      </trkpt>
      <trkpt lat="36.7364290" lon="-3.7711380">
        <ele>191.0</ele>
        <time>2022-01-08T15:19:57Z</time>
      </trkpt>
      <trkpt lat="36.7364290" lon="-3.7711380">
        <ele>190.0</ele>
        <time>2022-01-08T15:19:58Z</time>
      </trkpt>
      <trkpt lat="36.7364520" lon="-3.7711510">
        <ele>190.0</ele>
        <time>2022-01-08T15:19:59Z</time>
      </trkpt>
      <trkpt lat="36.7364760" lon="-3.7711630">
        <ele>190.0</ele>
        <time>2022-01-08T15:20:00Z</time>
      </trkpt>
      <trkpt lat="36.7365000" lon="-3.7711760">
        <ele>191.0</ele>
        <time>2022-01-08T15:20:01Z</time>
      </trkpt>
      <trkpt lat="36.7365240" lon="-3.7711890">
        <ele>191.0</ele>
        <time>2022-01-08T15:20:02Z</time>
      </trkpt>
      <trkpt lat="36.7365500" lon="-3.7712130">
        <ele>191.0</ele>
        <time>2022-01-08T15:20:03Z</time>
      </trkpt>
      <trkpt lat="36.7365760" lon="-3.7712360">
        <ele>191.0</ele>
        <time>2022-01-08T15:20:04Z</time>
      </trkpt>
      <trkpt lat="36.7366030" lon="-3.7712600">
        <ele>191.0</ele>
        <time>2022-01-08T15:20:05Z</time>
      </trkpt>
      <trkpt lat="36.7366290" lon="-3.7712840">
        <ele>191.0</ele>
        <time>2022-01-08T15:20:06Z</time>
      </trkpt>
      <trkpt lat="36.7366390" lon="-3.7713010">
        <ele>191.0</ele>
        <time>2022-01-08T15:20:07Z</time>
      </trkpt>
      <trkpt lat="36.7366490" lon="-3.7713330">
        <ele>191.0</ele>
        <time>2022-01-08T15:20:08Z</time>
      </trkpt>
      <trkpt lat="36.7366580" lon="-3.7713640">
        <ele>191.0</ele>
        <time>2022-01-08T15:20:09Z</time>
      </trkpt>
      <trkpt lat="36.7366680" lon="-3.7713960">
        <ele>191.0</ele>
        <time>2022-01-08T15:20:10Z</time>
      </trkpt>
      <trkpt lat="36.7366780" lon="-3.7714270">
        <ele>191.0</ele>
        <time>2022-01-08T15:20:11Z</time>
      </trkpt>
      <trkpt lat="36.7366830" lon="-3.7714660">
        <ele>191.0</ele>
        <time>2022-01-08T15:20:12Z</time>
      </trkpt>
      <trkpt lat="36.7366880" lon="-3.7715060">
        <ele>191.0</ele>
        <time>2022-01-08T15:20:13Z</time>
      </trkpt>
      <trkpt lat="36.7366930" lon="-3.7715450">
        <ele>191.0</ele>
        <time>2022-01-08T15:20:14Z</time>
      </trkpt>
      <trkpt lat="36.7366990" lon="-3.7715860">
        <ele>191.0</ele>
        <time>2022-01-08T15:20:15Z</time>
      </trkpt>
      <trkpt lat="36.7367060" lon="-3.7716260">
        <ele>191.0</ele>
        <time>2022-01-08T15:20:16Z</time>
      </trkpt>
      <trkpt lat="36.7367130" lon="-3.7716670">
        <ele>192.0</ele>
        <time>2022-01-08T15:20:17Z</time>
      </trkpt>
      <trkpt lat="36.7367450" lon="-3.7717440">
        <ele>192.0</ele>
        <time>2022-01-08T15:20:18Z</time>
      </trkpt>
      <trkpt lat="36.7367530" lon="-3.7717580">
        <ele>192.0</ele>
        <time>2022-01-08T15:20:19Z</time>
      </trkpt>
      <trkpt lat="36.7367710" lon="-3.7717900">
        <ele>192.0</ele>
        <time>2022-01-08T15:20:20Z</time>
      </trkpt>
      <trkpt lat="36.7367710" lon="-3.7717900">
        <ele>191.0</ele>
        <time>2022-01-08T15:20:21Z</time>
      </trkpt>
      <trkpt lat="36.7367950" lon="-3.7718150">
        <ele>191.0</ele>
        <time>2022-01-08T15:20:22Z</time>
      </trkpt>
      <trkpt lat="36.7368190" lon="-3.7718400">
        <ele>191.0</ele>
        <time>2022-01-08T15:20:23Z</time>
      </trkpt>
      <trkpt lat="36.7368430" lon="-3.7718650">
        <ele>190.0</ele>
        <time>2022-01-08T15:20:24Z</time>
      </trkpt>
      <trkpt lat="36.7368700" lon="-3.7718580">
        <ele>190.0</ele>
        <time>2022-01-08T15:20:25Z</time>
      </trkpt>
      <trkpt lat="36.7368980" lon="-3.7718510">
        <ele>190.0</ele>
        <time>2022-01-08T15:20:26Z</time>
      </trkpt>
      <trkpt lat="36.7369250" lon="-3.7718430">
        <ele>190.0</ele>
        <time>2022-01-08T15:20:27Z</time>
      </trkpt>
      <trkpt lat="36.7369530" lon="-3.7718360">
        <ele>190.0</ele>
        <time>2022-01-08T15:20:28Z</time>
      </trkpt>
      <trkpt lat="36.7369790" lon="-3.7718060">
        <ele>190.0</ele>
        <time>2022-01-08T15:20:29Z</time>
      </trkpt>
      <trkpt lat="36.7370060" lon="-3.7717760">
        <ele>190.0</ele>
        <time>2022-01-08T15:20:30Z</time>
      </trkpt>
      <trkpt lat="36.7370330" lon="-3.7717460">
        <ele>190.0</ele>
        <time>2022-01-08T15:20:31Z</time>
      </trkpt>
      <trkpt lat="36.7370490" lon="-3.7717190">
        <ele>190.0</ele>
        <time>2022-01-08T15:20:32Z</time>
      </trkpt>
      <trkpt lat="36.7370660" lon="-3.7716920">
        <ele>190.0</ele>
        <time>2022-01-08T15:20:33Z</time>
      </trkpt>
      <trkpt lat="36.7370820" lon="-3.7716640">
        <ele>190.0</ele>
        <time>2022-01-08T15:20:34Z</time>
      </trkpt>
      <trkpt lat="36.7370990" lon="-3.7716370">
        <ele>189.0</ele>
        <time>2022-01-08T15:20:35Z</time>
      </trkpt>
      <trkpt lat="36.7371210" lon="-3.7716010">
        <ele>189.0</ele>
        <time>2022-01-08T15:20:36Z</time>
      </trkpt>
      <trkpt lat="36.7371430" lon="-3.7715660">
        <ele>189.0</ele>
        <time>2022-01-08T15:20:37Z</time>
      </trkpt>
      <trkpt lat="36.7371660" lon="-3.7715300">
        <ele>189.0</ele>
        <time>2022-01-08T15:20:38Z</time>
      </trkpt>
      <trkpt lat="36.7371850" lon="-3.7714870">
        <ele>189.0</ele>
        <time>2022-01-08T15:20:39Z</time>
      </trkpt>
      <trkpt lat="36.7372040" lon="-3.7714450">
        <ele>189.0</ele>
        <time>2022-01-08T15:20:40Z</time>
      </trkpt>
      <trkpt lat="36.7372240" lon="-3.7714020">
        <ele>188.0</ele>
        <time>2022-01-08T15:20:41Z</time>
      </trkpt>
      <trkpt lat="36.7372380" lon="-3.7713660">
        <ele>188.0</ele>
        <time>2022-01-08T15:20:42Z</time>
      </trkpt>
      <trkpt lat="36.7372530" lon="-3.7713290">
        <ele>188.0</ele>
        <time>2022-01-08T15:20:43Z</time>
      </trkpt>
      <trkpt lat="36.7372680" lon="-3.7712930">
        <ele>188.0</ele>
        <time>2022-01-08T15:20:44Z</time>
      </trkpt>
      <trkpt lat="36.7372800" lon="-3.7712600">
        <ele>187.0</ele>
        <time>2022-01-08T15:20:45Z</time>
      </trkpt>
      <trkpt lat="36.7372920" lon="-3.7712270">
        <ele>188.0</ele>
        <time>2022-01-08T15:20:46Z</time>
      </trkpt>
      <trkpt lat="36.7373040" lon="-3.7711930">
        <ele>188.0</ele>
        <time>2022-01-08T15:20:47Z</time>
      </trkpt>
      <trkpt lat="36.7373160" lon="-3.7711600">
        <ele>188.0</ele>
        <time>2022-01-08T15:20:48Z</time>
      </trkpt>
      <trkpt lat="36.7373330" lon="-3.7711280">
        <ele>188.0</ele>
        <time>2022-01-08T15:20:49Z</time>
      </trkpt>
      <trkpt lat="36.7373510" lon="-3.7710960">
        <ele>188.0</ele>
        <time>2022-01-08T15:20:50Z</time>
      </trkpt>
      <trkpt lat="36.7373690" lon="-3.7710640">
        <ele>188.0</ele>
        <time>2022-01-08T15:20:51Z</time>
      </trkpt>
      <trkpt lat="36.7373870" lon="-3.7710340">
        <ele>188.0</ele>
        <time>2022-01-08T15:20:52Z</time>
      </trkpt>
      <trkpt lat="36.7374050" lon="-3.7710030">
        <ele>188.0</ele>
        <time>2022-01-08T15:20:53Z</time>
      </trkpt>
      <trkpt lat="36.7374240" lon="-3.7709730">
        <ele>187.0</ele>
        <time>2022-01-08T15:20:54Z</time>
      </trkpt>
      <trkpt lat="36.7374440" lon="-3.7709430">
        <ele>187.0</ele>
        <time>2022-01-08T15:20:55Z</time>
      </trkpt>
      <trkpt lat="36.7374650" lon="-3.7709130">
        <ele>187.0</ele>
        <time>2022-01-08T15:20:56Z</time>
      </trkpt>
      <trkpt lat="36.7374860" lon="-3.7708830">
        <ele>187.0</ele>
        <time>2022-01-08T15:20:57Z</time>
      </trkpt>
      <trkpt lat="36.7375090" lon="-3.7708550">
        <ele>187.0</ele>
        <time>2022-01-08T15:20:58Z</time>
      </trkpt>
      <trkpt lat="36.7375320" lon="-3.7708270">
        <ele>187.0</ele>
        <time>2022-01-08T15:20:59Z</time>
      </trkpt>
      <trkpt lat="36.7375550" lon="-3.7707990">
        <ele>186.0</ele>
        <time>2022-01-08T15:21:00Z</time>
      </trkpt>
      <trkpt lat="36.7375820" lon="-3.7707830">
        <ele>186.0</ele>
        <time>2022-01-08T15:21:01Z</time>
      </trkpt>
      <trkpt lat="36.7376090" lon="-3.7707680">
        <ele>186.0</ele>
        <time>2022-01-08T15:21:02Z</time>
      </trkpt>
      <trkpt lat="36.7376350" lon="-3.7707520">
        <ele>186.0</ele>
        <time>2022-01-08T15:21:03Z</time>
      </trkpt>
      <trkpt lat="36.7376620" lon="-3.7707370">
        <ele>186.0</ele>
        <time>2022-01-08T15:21:04Z</time>
      </trkpt>
      <trkpt lat="36.7376980" lon="-3.7707270">
        <ele>186.0</ele>
        <time>2022-01-08T15:21:05Z</time>
      </trkpt>
      <trkpt lat="36.7377340" lon="-3.7707180">
        <ele>186.0</ele>
        <time>2022-01-08T15:21:06Z</time>
      </trkpt>
      <trkpt lat="36.7377690" lon="-3.7707090">
        <ele>186.0</ele>
        <time>2022-01-08T15:21:07Z</time>
      </trkpt>
      <trkpt lat="36.7377990" lon="-3.7707120">
        <ele>186.0</ele>
        <time>2022-01-08T15:21:08Z</time>
      </trkpt>
      <trkpt lat="36.7378300" lon="-3.7707140">
        <ele>186.0</ele>
        <time>2022-01-08T15:21:09Z</time>
      </trkpt>
      <trkpt lat="36.7378600" lon="-3.7707170">
        <ele>186.0</ele>
        <time>2022-01-08T15:21:10Z</time>
      </trkpt>
      <trkpt lat="36.7378900" lon="-3.7707200">
        <ele>186.0</ele>
        <time>2022-01-08T15:21:11Z</time>
      </trkpt>
      <trkpt lat="36.7379240" lon="-3.7707240">
        <ele>186.0</ele>
        <time>2022-01-08T15:21:12Z</time>
      </trkpt>
      <trkpt lat="36.7379580" lon="-3.7707290">
        <ele>186.0</ele>
        <time>2022-01-08T15:21:13Z</time>
      </trkpt>
      <trkpt lat="36.7379920" lon="-3.7707330">
        <ele>185.0</ele>
        <time>2022-01-08T15:21:14Z</time>
      </trkpt>
      <trkpt lat="36.7380210" lon="-3.7707440">
        <ele>185.0</ele>
        <time>2022-01-08T15:21:15Z</time>
      </trkpt>
      <trkpt lat="36.7380510" lon="-3.7707550">
        <ele>185.0</ele>
        <time>2022-01-08T15:21:16Z</time>
      </trkpt>
      <trkpt lat="36.7380800" lon="-3.7707660">
        <ele>185.0</ele>
        <time>2022-01-08T15:21:17Z</time>
      </trkpt>
      <trkpt lat="36.7381070" lon="-3.7707840">
        <ele>185.0</ele>
        <time>2022-01-08T15:21:18Z</time>
      </trkpt>
      <trkpt lat="36.7381330" lon="-3.7708030">
        <ele>185.0</ele>
        <time>2022-01-08T15:21:19Z</time>
      </trkpt>
      <trkpt lat="36.7381590" lon="-3.7708220">
        <ele>185.0</ele>
        <time>2022-01-08T15:21:20Z</time>
      </trkpt>
      <trkpt lat="36.7381900" lon="-3.7708330">
        <ele>185.0</ele>
        <time>2022-01-08T15:21:21Z</time>
      </trkpt>
      <trkpt lat="36.7382210" lon="-3.7708440">
        <ele>185.0</ele>
        <time>2022-01-08T15:21:22Z</time>
      </trkpt>
      <trkpt lat="36.7382510" lon="-3.7708550">
        <ele>185.0</ele>
        <time>2022-01-08T15:21:23Z</time>
      </trkpt>
      <trkpt lat="36.7382790" lon="-3.7708540">
        <ele>185.0</ele>
        <time>2022-01-08T15:21:24Z</time>
      </trkpt>
      <trkpt lat="36.7383080" lon="-3.7708540">
        <ele>185.0</ele>
        <time>2022-01-08T15:21:25Z</time>
      </trkpt>
      <trkpt lat="36.7383360" lon="-3.7708530">
        <ele>185.0</ele>
        <time>2022-01-08T15:21:26Z</time>
      </trkpt>
      <trkpt lat="36.7383640" lon="-3.7708530">
        <ele>185.0</ele>
        <time>2022-01-08T15:21:27Z</time>
      </trkpt>
      <trkpt lat="36.7383950" lon="-3.7708370">
        <ele>185.0</ele>
        <time>2022-01-08T15:21:28Z</time>
      </trkpt>
      <trkpt lat="36.7384260" lon="-3.7708210">
        <ele>185.0</ele>
        <time>2022-01-08T15:21:29Z</time>
      </trkpt>
      <trkpt lat="36.7384570" lon="-3.7708060">
        <ele>185.0</ele>
        <time>2022-01-08T15:21:30Z</time>
      </trkpt>
      <trkpt lat="36.7384870" lon="-3.7707850">
        <ele>184.0</ele>
        <time>2022-01-08T15:21:31Z</time>
      </trkpt>
      <trkpt lat="36.7385170" lon="-3.7707640">
        <ele>184.0</ele>
        <time>2022-01-08T15:21:32Z</time>
      </trkpt>
      <trkpt lat="36.7385470" lon="-3.7707430">
        <ele>184.0</ele>
        <time>2022-01-08T15:21:33Z</time>
      </trkpt>
      <trkpt lat="36.7385750" lon="-3.7707180">
        <ele>184.0</ele>
        <time>2022-01-08T15:21:34Z</time>
      </trkpt>
      <trkpt lat="36.7386030" lon="-3.7706940">
        <ele>184.0</ele>
        <time>2022-01-08T15:21:35Z</time>
      </trkpt>
      <trkpt lat="36.7386310" lon="-3.7706700">
        <ele>184.0</ele>
        <time>2022-01-08T15:21:36Z</time>
      </trkpt>
      <trkpt lat="36.7386540" lon="-3.7706540">
        <ele>183.0</ele>
        <time>2022-01-08T15:21:37Z</time>
      </trkpt>
      <trkpt lat="36.7386770" lon="-3.7706380">
        <ele>183.0</ele>
        <time>2022-01-08T15:21:38Z</time>
      </trkpt>
      <trkpt lat="36.7387000" lon="-3.7706230">
        <ele>183.0</ele>
        <time>2022-01-08T15:21:39Z</time>
      </trkpt>
      <trkpt lat="36.7387230" lon="-3.7706070">
        <ele>182.0</ele>
        <time>2022-01-08T15:21:40Z</time>
      </trkpt>
      <trkpt lat="36.7387570" lon="-3.7706000">
        <ele>183.0</ele>
        <time>2022-01-08T15:21:41Z</time>
      </trkpt>
      <trkpt lat="36.7387910" lon="-3.7705930">
        <ele>183.0</ele>
        <time>2022-01-08T15:21:42Z</time>
      </trkpt>
      <trkpt lat="36.7388250" lon="-3.7705870">
        <ele>183.0</ele>
        <time>2022-01-08T15:21:43Z</time>
      </trkpt>
      <trkpt lat="36.7388580" lon="-3.7705900">
        <ele>183.0</ele>
        <time>2022-01-08T15:21:44Z</time>
      </trkpt>
      <trkpt lat="36.7388910" lon="-3.7705930">
        <ele>183.0</ele>
        <time>2022-01-08T15:21:45Z</time>
      </trkpt>
      <trkpt lat="36.7389240" lon="-3.7705960">
        <ele>183.0</ele>
        <time>2022-01-08T15:21:46Z</time>
      </trkpt>
      <trkpt lat="36.7389550" lon="-3.7705970">
        <ele>183.0</ele>
        <time>2022-01-08T15:21:47Z</time>
      </trkpt>
      <trkpt lat="36.7389850" lon="-3.7705990">
        <ele>183.0</ele>
        <time>2022-01-08T15:21:48Z</time>
      </trkpt>
      <trkpt lat="36.7390150" lon="-3.7706010">
        <ele>183.0</ele>
        <time>2022-01-08T15:21:49Z</time>
      </trkpt>
      <trkpt lat="36.7390040" lon="-3.7706170">
        <ele>183.0</ele>
        <time>2022-01-08T15:21:50Z</time>
      </trkpt>
      <trkpt lat="36.7389930" lon="-3.7706330">
        <ele>183.0</ele>
        <time>2022-01-08T15:21:51Z</time>
      </trkpt>
      <trkpt lat="36.7389820" lon="-3.7706490">
        <ele>183.0</ele>
        <time>2022-01-08T15:21:52Z</time>
      </trkpt>
      <trkpt lat="36.7389710" lon="-3.7706650">
        <ele>182.0</ele>
        <time>2022-01-08T15:21:53Z</time>
      </trkpt>
      <trkpt lat="36.7389590" lon="-3.7706810">
        <ele>182.0</ele>
        <time>2022-01-08T15:21:54Z</time>
      </trkpt>
      <trkpt lat="36.7389480" lon="-3.7706970">
        <ele>182.0</ele>
        <time>2022-01-08T15:21:55Z</time>
      </trkpt>
      <trkpt lat="36.7389130" lon="-3.7707030">
        <ele>181.0</ele>
        <time>2022-01-08T15:21:56Z</time>
      </trkpt>
      <trkpt lat="36.7388780" lon="-3.7707090">
        <ele>181.0</ele>
        <time>2022-01-08T15:21:57Z</time>
      </trkpt>
      <trkpt lat="36.7388430" lon="-3.7707150">
        <ele>181.0</ele>
        <time>2022-01-08T15:21:58Z</time>
      </trkpt>
      <trkpt lat="36.7388110" lon="-3.7707210">
        <ele>180.0</ele>
        <time>2022-01-08T15:21:59Z</time>
      </trkpt>
      <trkpt lat="36.7387780" lon="-3.7707270">
        <ele>179.0</ele>
        <time>2022-01-08T15:22:00Z</time>
      </trkpt>
      <trkpt lat="36.7387450" lon="-3.7707330">
        <ele>179.0</ele>
        <time>2022-01-08T15:22:01Z</time>
      </trkpt>
      <trkpt lat="36.7387140" lon="-3.7707490">
        <ele>179.0</ele>
        <time>2022-01-08T15:22:02Z</time>
      </trkpt>
      <trkpt lat="36.7386830" lon="-3.7707650">
        <ele>179.0</ele>
        <time>2022-01-08T15:22:03Z</time>
      </trkpt>
      <trkpt lat="36.7386520" lon="-3.7707810">
        <ele>178.0</ele>
        <time>2022-01-08T15:22:04Z</time>
      </trkpt>
      <trkpt lat="36.7386330" lon="-3.7707990">
        <ele>177.0</ele>
        <time>2022-01-08T15:22:05Z</time>
      </trkpt>
      <trkpt lat="36.7386130" lon="-3.7708170">
        <ele>177.0</ele>
        <time>2022-01-08T15:22:06Z</time>
      </trkpt>
      <trkpt lat="36.7385930" lon="-3.7708340">
        <ele>177.0</ele>
        <time>2022-01-08T15:22:07Z</time>
      </trkpt>
      <trkpt lat="36.7385730" lon="-3.7708520">
        <ele>177.0</ele>
        <time>2022-01-08T15:22:08Z</time>
      </trkpt>
      <trkpt lat="36.7384920" lon="-3.7709350">
        <ele>176.0</ele>
        <time>2022-01-08T15:22:09Z</time>
      </trkpt>
      <trkpt lat="36.7384920" lon="-3.7709350">
        <ele>175.0</ele>
        <time>2022-01-08T15:22:10Z</time>
      </trkpt>
      <trkpt lat="36.7384710" lon="-3.7709610">
        <ele>176.0</ele>
        <time>2022-01-08T15:22:11Z</time>
      </trkpt>
      <trkpt lat="36.7384490" lon="-3.7709880">
        <ele>176.0</ele>
        <time>2022-01-08T15:22:12Z</time>
      </trkpt>
      <trkpt lat="36.7384270" lon="-3.7710140">
        <ele>176.0</ele>
        <time>2022-01-08T15:22:13Z</time>
      </trkpt>
      <trkpt lat="36.7383960" lon="-3.7710410">
        <ele>175.0</ele>
        <time>2022-01-08T15:22:14Z</time>
      </trkpt>
      <trkpt lat="36.7383650" lon="-3.7710680">
        <ele>175.0</ele>
        <time>2022-01-08T15:22:15Z</time>
      </trkpt>
      <trkpt lat="36.7383330" lon="-3.7710950">
        <ele>175.0</ele>
        <time>2022-01-08T15:22:16Z</time>
      </trkpt>
      <trkpt lat="36.7383040" lon="-3.7711260">
        <ele>174.0</ele>
        <time>2022-01-08T15:22:17Z</time>
      </trkpt>
      <trkpt lat="36.7382740" lon="-3.7711570">
        <ele>174.0</ele>
        <time>2022-01-08T15:22:18Z</time>
      </trkpt>
      <trkpt lat="36.7382440" lon="-3.7711880">
        <ele>174.0</ele>
        <time>2022-01-08T15:22:19Z</time>
      </trkpt>
      <trkpt lat="36.7382100" lon="-3.7711970">
        <ele>174.0</ele>
        <time>2022-01-08T15:22:20Z</time>
      </trkpt>
      <trkpt lat="36.7381760" lon="-3.7712050">
        <ele>174.0</ele>
        <time>2022-01-08T15:22:21Z</time>
      </trkpt>
      <trkpt lat="36.7381420" lon="-3.7712140">
        <ele>174.0</ele>
        <time>2022-01-08T15:22:22Z</time>
      </trkpt>
      <trkpt lat="36.7381300" lon="-3.7712060">
        <ele>173.0</ele>
        <time>2022-01-08T15:22:23Z</time>
      </trkpt>
      <trkpt lat="36.7381180" lon="-3.7711980">
        <ele>173.0</ele>
        <time>2022-01-08T15:22:24Z</time>
      </trkpt>
      <trkpt lat="36.7381060" lon="-3.7711890">
        <ele>172.0</ele>
        <time>2022-01-08T15:22:25Z</time>
      </trkpt>
      <trkpt lat="36.7380940" lon="-3.7711810">
        <ele>172.0</ele>
        <time>2022-01-08T15:22:26Z</time>
      </trkpt>
      <trkpt lat="36.7380230" lon="-3.7711210">
        <ele>172.0</ele>
        <time>2022-01-08T15:22:27Z</time>
      </trkpt>
      <trkpt lat="36.7380000" lon="-3.7710940">
        <ele>171.0</ele>
        <time>2022-01-08T15:22:28Z</time>
      </trkpt>
      <trkpt lat="36.7379770" lon="-3.7710670">
        <ele>170.0</ele>
        <time>2022-01-08T15:22:29Z</time>
      </trkpt>
      <trkpt lat="36.7379440" lon="-3.7710530">
        <ele>170.0</ele>
        <time>2022-01-08T15:22:30Z</time>
      </trkpt>
      <trkpt lat="36.7379100" lon="-3.7710400">
        <ele>170.0</ele>
        <time>2022-01-08T15:22:31Z</time>
      </trkpt>
      <trkpt lat="36.7378760" lon="-3.7710260">
        <ele>170.0</ele>
        <time>2022-01-08T15:22:32Z</time>
      </trkpt>
      <trkpt lat="36.7378440" lon="-3.7710380">
        <ele>170.0</ele>
        <time>2022-01-08T15:22:33Z</time>
      </trkpt>
      <trkpt lat="36.7378120" lon="-3.7710500">
        <ele>170.0</ele>
        <time>2022-01-08T15:22:34Z</time>
      </trkpt>
      <trkpt lat="36.7377800" lon="-3.7710620">
        <ele>169.0</ele>
        <time>2022-01-08T15:22:35Z</time>
      </trkpt>
      <trkpt lat="36.7377520" lon="-3.7710910">
        <ele>169.0</ele>
        <time>2022-01-08T15:22:36Z</time>
      </trkpt>
      <trkpt lat="36.7377240" lon="-3.7711190">
        <ele>169.0</ele>
        <time>2022-01-08T15:22:37Z</time>
      </trkpt>
      <trkpt lat="36.7376950" lon="-3.7711480">
        <ele>168.0</ele>
        <time>2022-01-08T15:22:38Z</time>
      </trkpt>
      <trkpt lat="36.7376750" lon="-3.7711840">
        <ele>168.0</ele>
        <time>2022-01-08T15:22:39Z</time>
      </trkpt>
      <trkpt lat="36.7376550" lon="-3.7712200">
        <ele>167.0</ele>
        <time>2022-01-08T15:22:40Z</time>
      </trkpt>
      <trkpt lat="36.7376350" lon="-3.7712560">
        <ele>166.0</ele>
        <time>2022-01-08T15:22:41Z</time>
      </trkpt>
      <trkpt lat="36.7376200" lon="-3.7712960">
        <ele>166.0</ele>
        <time>2022-01-08T15:22:42Z</time>
      </trkpt>
      <trkpt lat="36.7376050" lon="-3.7713370">
        <ele>166.0</ele>
        <time>2022-01-08T15:22:43Z</time>
      </trkpt>
      <trkpt lat="36.7375900" lon="-3.7713770">
        <ele>165.0</ele>
        <time>2022-01-08T15:22:44Z</time>
      </trkpt>
      <trkpt lat="36.7375790" lon="-3.7714120">
        <ele>164.0</ele>
        <time>2022-01-08T15:22:45Z</time>
      </trkpt>
      <trkpt lat="36.7375670" lon="-3.7714470">
        <ele>164.0</ele>
        <time>2022-01-08T15:22:46Z</time>
      </trkpt>
      <trkpt lat="36.7375550" lon="-3.7714820">
        <ele>162.0</ele>
        <time>2022-01-08T15:22:47Z</time>
      </trkpt>
      <trkpt lat="36.7375430" lon="-3.7715170">
        <ele>162.0</ele>
        <time>2022-01-08T15:22:48Z</time>
      </trkpt>
      <trkpt lat="36.7375300" lon="-3.7715540">
        <ele>162.0</ele>
        <time>2022-01-08T15:22:49Z</time>
      </trkpt>
      <trkpt lat="36.7375160" lon="-3.7715910">
        <ele>162.0</ele>
        <time>2022-01-08T15:22:50Z</time>
      </trkpt>
      <trkpt lat="36.7375020" lon="-3.7716280">
        <ele>162.0</ele>
        <time>2022-01-08T15:22:51Z</time>
      </trkpt>
      <trkpt lat="36.7374960" lon="-3.7716690">
        <ele>161.0</ele>
        <time>2022-01-08T15:22:52Z</time>
      </trkpt>
      <trkpt lat="36.7374900" lon="-3.7717110">
        <ele>161.0</ele>
        <time>2022-01-08T15:22:53Z</time>
      </trkpt>
      <trkpt lat="36.7374830" lon="-3.7717520">
        <ele>161.0</ele>
        <time>2022-01-08T15:22:54Z</time>
      </trkpt>
      <trkpt lat="36.7374760" lon="-3.7717950">
        <ele>160.0</ele>
        <time>2022-01-08T15:22:55Z</time>
      </trkpt>
      <trkpt lat="36.7374690" lon="-3.7718390">
        <ele>160.0</ele>
        <time>2022-01-08T15:22:56Z</time>
      </trkpt>
      <trkpt lat="36.7374610" lon="-3.7718820">
        <ele>159.0</ele>
        <time>2022-01-08T15:22:57Z</time>
      </trkpt>
      <trkpt lat="36.7374530" lon="-3.7719190">
        <ele>158.0</ele>
        <time>2022-01-08T15:22:58Z</time>
      </trkpt>
      <trkpt lat="36.7374450" lon="-3.7719550">
        <ele>158.0</ele>
        <time>2022-01-08T15:22:59Z</time>
      </trkpt>
      <trkpt lat="36.7374370" lon="-3.7719920">
        <ele>156.0</ele>
        <time>2022-01-08T15:23:00Z</time>
      </trkpt>
      <trkpt lat="36.7374280" lon="-3.7720280">
        <ele>156.0</ele>
        <time>2022-01-08T15:23:01Z</time>
      </trkpt>
      <trkpt lat="36.7374190" lon="-3.7720640">
        <ele>156.0</ele>
        <time>2022-01-08T15:23:02Z</time>
      </trkpt>
      <trkpt lat="36.7374100" lon="-3.7721000">
        <ele>156.0</ele>
        <time>2022-01-08T15:23:03Z</time>
      </trkpt>
      <trkpt lat="36.7374010" lon="-3.7721360">
        <ele>156.0</ele>
        <time>2022-01-08T15:23:04Z</time>
      </trkpt>
      <trkpt lat="36.7373840" lon="-3.7721690">
        <ele>156.0</ele>
        <time>2022-01-08T15:23:05Z</time>
      </trkpt>
      <trkpt lat="36.7373660" lon="-3.7722030">
        <ele>153.0</ele>
        <time>2022-01-08T15:23:06Z</time>
      </trkpt>
      <trkpt lat="36.7373490" lon="-3.7722370">
        <ele>152.0</ele>
        <time>2022-01-08T15:23:07Z</time>
      </trkpt>
      <trkpt lat="36.7373360" lon="-3.7722690">
        <ele>152.0</ele>
        <time>2022-01-08T15:23:08Z</time>
      </trkpt>
      <trkpt lat="36.7373230" lon="-3.7723020">
        <ele>152.0</ele>
        <time>2022-01-08T15:23:09Z</time>
      </trkpt>
      <trkpt lat="36.7373100" lon="-3.7723350">
        <ele>152.0</ele>
        <time>2022-01-08T15:23:10Z</time>
      </trkpt>
      <trkpt lat="36.7372970" lon="-3.7723680">
        <ele>151.0</ele>
        <time>2022-01-08T15:23:11Z</time>
      </trkpt>
      <trkpt lat="36.7372900" lon="-3.7724000">
        <ele>150.0</ele>
        <time>2022-01-08T15:23:12Z</time>
      </trkpt>
      <trkpt lat="36.7372820" lon="-3.7724320">
        <ele>149.0</ele>
        <time>2022-01-08T15:23:13Z</time>
      </trkpt>
      <trkpt lat="36.7372750" lon="-3.7724640">
        <ele>149.0</ele>
        <time>2022-01-08T15:23:14Z</time>
      </trkpt>
      <trkpt lat="36.7372680" lon="-3.7724970">
        <ele>149.0</ele>
        <time>2022-01-08T15:23:15Z</time>
      </trkpt>
      <trkpt lat="36.7372720" lon="-3.7725340">
        <ele>148.0</ele>
        <time>2022-01-08T15:23:16Z</time>
      </trkpt>
      <trkpt lat="36.7372760" lon="-3.7725710">
        <ele>148.0</ele>
        <time>2022-01-08T15:23:17Z</time>
      </trkpt>
      <trkpt lat="36.7372800" lon="-3.7726090">
        <ele>148.0</ele>
        <time>2022-01-08T15:23:18Z</time>
      </trkpt>
      <trkpt lat="36.7372890" lon="-3.7726440">
        <ele>147.0</ele>
        <time>2022-01-08T15:23:19Z</time>
      </trkpt>
      <trkpt lat="36.7372970" lon="-3.7726790">
        <ele>147.0</ele>
        <time>2022-01-08T15:23:20Z</time>
      </trkpt>
      <trkpt lat="36.7373060" lon="-3.7727140">
        <ele>146.0</ele>
        <time>2022-01-08T15:23:21Z</time>
      </trkpt>
      <trkpt lat="36.7373150" lon="-3.7727490">
        <ele>145.0</ele>
        <time>2022-01-08T15:23:22Z</time>
      </trkpt>
      <trkpt lat="36.7373260" lon="-3.7727880">
        <ele>144.0</ele>
        <time>2022-01-08T15:23:23Z</time>
      </trkpt>
      <trkpt lat="36.7373380" lon="-3.7728270">
        <ele>144.0</ele>
        <time>2022-01-08T15:23:24Z</time>
      </trkpt>
      <trkpt lat="36.7373490" lon="-3.7728660">
        <ele>143.0</ele>
        <time>2022-01-08T15:23:25Z</time>
      </trkpt>
      <trkpt lat="36.7373450" lon="-3.7729160">
        <ele>143.0</ele>
        <time>2022-01-08T15:23:26Z</time>
      </trkpt>
      <trkpt lat="36.7373400" lon="-3.7729670">
        <ele>143.0</ele>
        <time>2022-01-08T15:23:27Z</time>
      </trkpt>
      <trkpt lat="36.7373360" lon="-3.7730180">
        <ele>143.0</ele>
        <time>2022-01-08T15:23:28Z</time>
      </trkpt>
      <trkpt lat="36.7373400" lon="-3.7730560">
        <ele>143.0</ele>
        <time>2022-01-08T15:23:29Z</time>
      </trkpt>
      <trkpt lat="36.7373430" lon="-3.7730940">
        <ele>141.0</ele>
        <time>2022-01-08T15:23:30Z</time>
      </trkpt>
      <trkpt lat="36.7373470" lon="-3.7731320">
        <ele>140.0</ele>
        <time>2022-01-08T15:23:31Z</time>
      </trkpt>
      <trkpt lat="36.7373520" lon="-3.7731720">
        <ele>139.0</ele>
        <time>2022-01-08T15:23:32Z</time>
      </trkpt>
      <trkpt lat="36.7373580" lon="-3.7732120">
        <ele>139.0</ele>
        <time>2022-01-08T15:23:33Z</time>
      </trkpt>
      <trkpt lat="36.7373630" lon="-3.7732530">
        <ele>139.0</ele>
        <time>2022-01-08T15:23:34Z</time>
      </trkpt>
      <trkpt lat="36.7373670" lon="-3.7732870">
        <ele>138.0</ele>
        <time>2022-01-08T15:23:35Z</time>
      </trkpt>
      <trkpt lat="36.7373700" lon="-3.7733220">
        <ele>138.0</ele>
        <time>2022-01-08T15:23:36Z</time>
      </trkpt>
      <trkpt lat="36.7373740" lon="-3.7733560">
        <ele>137.0</ele>
        <time>2022-01-08T15:23:37Z</time>
      </trkpt>
      <trkpt lat="36.7373780" lon="-3.7733910">
        <ele>137.0</ele>
        <time>2022-01-08T15:23:38Z</time>
      </trkpt>
      <trkpt lat="36.7373850" lon="-3.7734190">
        <ele>137.0</ele>
        <time>2022-01-08T15:23:39Z</time>
      </trkpt>
      <trkpt lat="36.7373920" lon="-3.7734480">
        <ele>136.0</ele>
        <time>2022-01-08T15:23:40Z</time>
      </trkpt>
      <trkpt lat="36.7374000" lon="-3.7734760">
        <ele>136.0</ele>
        <time>2022-01-08T15:23:41Z</time>
      </trkpt>
      <trkpt lat="36.7374070" lon="-3.7735050">
        <ele>135.0</ele>
        <time>2022-01-08T15:23:42Z</time>
      </trkpt>
      <trkpt lat="36.7374260" lon="-3.7735340">
        <ele>135.0</ele>
        <time>2022-01-08T15:23:43Z</time>
      </trkpt>
      <trkpt lat="36.7374460" lon="-3.7735630">
        <ele>132.0</ele>
        <time>2022-01-08T15:23:44Z</time>
      </trkpt>
      <trkpt lat="36.7374650" lon="-3.7735920">
        <ele>131.0</ele>
        <time>2022-01-08T15:23:45Z</time>
      </trkpt>
      <trkpt lat="36.7374970" lon="-3.7735790">
        <ele>131.0</ele>
        <time>2022-01-08T15:23:46Z</time>
      </trkpt>
      <trkpt lat="36.7375280" lon="-3.7735660">
        <ele>131.0</ele>
        <time>2022-01-08T15:23:47Z</time>
      </trkpt>
      <trkpt lat="36.7375600" lon="-3.7735540">
        <ele>131.0</ele>
        <time>2022-01-08T15:23:48Z</time>
      </trkpt>
      <trkpt lat="36.7375600" lon="-3.7735540">
        <ele>131.0</ele>
        <time>2022-01-08T15:23:49Z</time>
      </trkpt>
      <trkpt lat="36.7375590" lon="-3.7735160">
        <ele>131.0</ele>
        <time>2022-01-08T15:23:50Z</time>
      </trkpt>
      <trkpt lat="36.7375590" lon="-3.7734780">
        <ele>131.0</ele>
        <time>2022-01-08T15:23:51Z</time>
      </trkpt>
      <trkpt lat="36.7375580" lon="-3.7734400">
        <ele>130.0</ele>
        <time>2022-01-08T15:23:52Z</time>
      </trkpt>
      <trkpt lat="36.7375540" lon="-3.7733980">
        <ele>130.0</ele>
        <time>2022-01-08T15:23:53Z</time>
      </trkpt>
      <trkpt lat="36.7375500" lon="-3.7733570">
        <ele>130.0</ele>
        <time>2022-01-08T15:23:54Z</time>
      </trkpt>
      <trkpt lat="36.7375460" lon="-3.7733160">
        <ele>127.0</ele>
        <time>2022-01-08T15:23:55Z</time>
      </trkpt>
      <trkpt lat="36.7375500" lon="-3.7732770">
        <ele>126.0</ele>
        <time>2022-01-08T15:23:56Z</time>
      </trkpt>
      <trkpt lat="36.7375550" lon="-3.7732390">
        <ele>126.0</ele>
        <time>2022-01-08T15:23:57Z</time>
      </trkpt>
      <trkpt lat="36.7375600" lon="-3.7732010">
        <ele>126.0</ele>
        <time>2022-01-08T15:23:58Z</time>
      </trkpt>
      <trkpt lat="36.7375640" lon="-3.7731630">
        <ele>126.0</ele>
        <time>2022-01-08T15:23:59Z</time>
      </trkpt>
      <trkpt lat="36.7375710" lon="-3.7731220">
        <ele>125.0</ele>
        <time>2022-01-08T15:24:00Z</time>
      </trkpt>
      <trkpt lat="36.7375780" lon="-3.7730810">
        <ele>125.0</ele>
        <time>2022-01-08T15:24:01Z</time>
      </trkpt>
      <trkpt lat="36.7375850" lon="-3.7730400">
        <ele>125.0</ele>
        <time>2022-01-08T15:24:02Z</time>
      </trkpt>
      <trkpt lat="36.7375970" lon="-3.7730010">
        <ele>124.0</ele>
        <time>2022-01-08T15:24:03Z</time>
      </trkpt>
      <trkpt lat="36.7376080" lon="-3.7729620">
        <ele>123.0</ele>
        <time>2022-01-08T15:24:04Z</time>
      </trkpt>
      <trkpt lat="36.7376200" lon="-3.7729240">
        <ele>123.0</ele>
        <time>2022-01-08T15:24:05Z</time>
      </trkpt>
      <trkpt lat="36.7376310" lon="-3.7728870">
        <ele>122.0</ele>
        <time>2022-01-08T15:24:06Z</time>
      </trkpt>
      <trkpt lat="36.7376430" lon="-3.7728500">
        <ele>122.0</ele>
        <time>2022-01-08T15:24:07Z</time>
      </trkpt>
      <trkpt lat="36.7376540" lon="-3.7728130">
        <ele>122.0</ele>
        <time>2022-01-08T15:24:08Z</time>
      </trkpt>
      <trkpt lat="36.7376630" lon="-3.7727840">
        <ele>121.0</ele>
        <time>2022-01-08T15:24:09Z</time>
      </trkpt>
      <trkpt lat="36.7376710" lon="-3.7727560">
        <ele>121.0</ele>
        <time>2022-01-08T15:24:10Z</time>
      </trkpt>
      <trkpt lat="36.7376800" lon="-3.7727280">
        <ele>121.0</ele>
        <time>2022-01-08T15:24:11Z</time>
      </trkpt>
      <trkpt lat="36.7376880" lon="-3.7727000">
        <ele>120.0</ele>
        <time>2022-01-08T15:24:12Z</time>
      </trkpt>
      <trkpt lat="36.7377100" lon="-3.7726820">
        <ele>119.0</ele>
        <time>2022-01-08T15:24:13Z</time>
      </trkpt>
      <trkpt lat="36.7377310" lon="-3.7726640">
        <ele>119.0</ele>
        <time>2022-01-08T15:24:14Z</time>
      </trkpt>
      <trkpt lat="36.7377530" lon="-3.7726460">
        <ele>119.0</ele>
        <time>2022-01-08T15:24:15Z</time>
      </trkpt>
      <trkpt lat="36.7377740" lon="-3.7726290">
        <ele>118.0</ele>
        <time>2022-01-08T15:24:16Z</time>
      </trkpt>
      <trkpt lat="36.7377840" lon="-3.7726360">
        <ele>118.0</ele>
        <time>2022-01-08T15:24:17Z</time>
      </trkpt>
      <trkpt lat="36.7377940" lon="-3.7726430">
        <ele>118.0</ele>
        <time>2022-01-08T15:24:18Z</time>
      </trkpt>
      <trkpt lat="36.7378040" lon="-3.7726500">
        <ele>118.0</ele>
        <time>2022-01-08T15:24:19Z</time>
      </trkpt>
      <trkpt lat="36.7378140" lon="-3.7726580">
        <ele>118.0</ele>
        <time>2022-01-08T15:24:20Z</time>
      </trkpt>
      <trkpt lat="36.7378240" lon="-3.7726650">
        <ele>118.0</ele>
        <time>2022-01-08T15:24:21Z</time>
      </trkpt>
      <trkpt lat="36.7378340" lon="-3.7726720">
        <ele>116.0</ele>
        <time>2022-01-08T15:24:22Z</time>
      </trkpt>
      <trkpt lat="36.7378440" lon="-3.7726790">
        <ele>115.0</ele>
        <time>2022-01-08T15:24:23Z</time>
      </trkpt>
      <trkpt lat="36.7378540" lon="-3.7726870">
        <ele>115.0</ele>
        <time>2022-01-08T15:24:24Z</time>
      </trkpt>
      <trkpt lat="36.7378660" lon="-3.7727030">
        <ele>116.0</ele>
        <time>2022-01-08T15:24:25Z</time>
      </trkpt>
      <trkpt lat="36.7378780" lon="-3.7727200">
        <ele>116.0</ele>
        <time>2022-01-08T15:24:26Z</time>
      </trkpt>
      <trkpt lat="36.7378900" lon="-3.7727370">
        <ele>115.0</ele>
        <time>2022-01-08T15:24:27Z</time>
      </trkpt>
      <trkpt lat="36.7379020" lon="-3.7727540">
        <ele>114.0</ele>
        <time>2022-01-08T15:24:28Z</time>
      </trkpt>
      <trkpt lat="36.7379140" lon="-3.7727710">
        <ele>114.0</ele>
        <time>2022-01-08T15:24:29Z</time>
      </trkpt>
      <trkpt lat="36.7379090" lon="-3.7727760">
        <ele>114.0</ele>
        <time>2022-01-08T15:24:30Z</time>
      </trkpt>
      <trkpt lat="36.7379040" lon="-3.7727820">
        <ele>113.0</ele>
        <time>2022-01-08T15:24:31Z</time>
      </trkpt>
      <trkpt lat="36.7378980" lon="-3.7727870">
        <ele>113.0</ele>
        <time>2022-01-08T15:24:32Z</time>
      </trkpt>
      <trkpt lat="36.7378930" lon="-3.7727930">
        <ele>113.0</ele>
        <time>2022-01-08T15:24:33Z</time>
      </trkpt>
      <trkpt lat="36.7378880" lon="-3.7727980">
        <ele>113.0</ele>
        <time>2022-01-08T15:24:34Z</time>
      </trkpt>
      <trkpt lat="36.7378820" lon="-3.7728040">
        <ele>113.0</ele>
        <time>2022-01-08T15:24:35Z</time>
      </trkpt>
      <trkpt lat="36.7378770" lon="-3.7728090">
        <ele>113.0</ele>
        <time>2022-01-08T15:24:36Z</time>
      </trkpt>
      <trkpt lat="36.7378720" lon="-3.7728150">
        <ele>112.0</ele>
        <time>2022-01-08T15:24:37Z</time>
      </trkpt>
      <trkpt lat="36.7378660" lon="-3.7728200">
        <ele>112.0</ele>
        <time>2022-01-08T15:24:38Z</time>
      </trkpt>
      <trkpt lat="36.7378610" lon="-3.7728260">
        <ele>111.0</ele>
        <time>2022-01-08T15:24:39Z</time>
      </trkpt>
      <trkpt lat="36.7378640" lon="-3.7728250">
        <ele>111.0</ele>
        <time>2022-01-08T15:24:40Z</time>
      </trkpt>
      <trkpt lat="36.7378670" lon="-3.7728240">
        <ele>111.0</ele>
        <time>2022-01-08T15:24:41Z</time>
      </trkpt>
      <trkpt lat="36.7378700" lon="-3.7728240">
        <ele>111.0</ele>
        <time>2022-01-08T15:24:42Z</time>
      </trkpt>
      <trkpt lat="36.7378730" lon="-3.7728230">
        <ele>110.0</ele>
        <time>2022-01-08T15:24:43Z</time>
      </trkpt>
      <trkpt lat="36.7378750" lon="-3.7728230">
        <ele>110.0</ele>
        <time>2022-01-08T15:24:44Z</time>
      </trkpt>
      <trkpt lat="36.7378780" lon="-3.7728220">
        <ele>110.0</ele>
        <time>2022-01-08T15:24:45Z</time>
      </trkpt>
      <trkpt lat="36.7378810" lon="-3.7728210">
        <ele>110.0</ele>
        <time>2022-01-08T15:24:46Z</time>
      </trkpt>
      <trkpt lat="36.7378840" lon="-3.7728210">
        <ele>110.0</ele>
        <time>2022-01-08T15:24:47Z</time>
      </trkpt>
      <trkpt lat="36.7378870" lon="-3.7728200">
        <ele>110.0</ele>
        <time>2022-01-08T15:24:48Z</time>
      </trkpt>
      <trkpt lat="36.7378900" lon="-3.7728200">
        <ele>110.0</ele>
        <time>2022-01-08T15:24:49Z</time>
      </trkpt>
      <trkpt lat="36.7378930" lon="-3.7728190">
        <ele>110.0</ele>
        <time>2022-01-08T15:24:50Z</time>
      </trkpt>
      <trkpt lat="36.7378960" lon="-3.7728180">
        <ele>110.0</ele>
        <time>2022-01-08T15:24:51Z</time>
      </trkpt>
      <trkpt lat="36.7378980" lon="-3.7728180">
        <ele>110.0</ele>
        <time>2022-01-08T15:24:52Z</time>
      </trkpt>
      <trkpt lat="36.7379010" lon="-3.7728170">
        <ele>110.0</ele>
        <time>2022-01-08T15:24:53Z</time>
      </trkpt>
      <trkpt lat="36.7379040" lon="-3.7728170">
        <ele>110.0</ele>
        <time>2022-01-08T15:24:54Z</time>
      </trkpt>
      <trkpt lat="36.7379070" lon="-3.7728160">
        <ele>110.0</ele>
        <time>2022-01-08T15:24:55Z</time>
      </trkpt>
      <trkpt lat="36.7379100" lon="-3.7728160">
        <ele>110.0</ele>
        <time>2022-01-08T15:24:56Z</time>
      </trkpt>
      <trkpt lat="36.7379130" lon="-3.7728150">
        <ele>110.0</ele>
        <time>2022-01-08T15:24:57Z</time>
      </trkpt>
      <trkpt lat="36.7379160" lon="-3.7728140">
        <ele>110.0</ele>
        <time>2022-01-08T15:24:58Z</time>
      </trkpt>
      <trkpt lat="36.7379190" lon="-3.7728140">
        <ele>110.0</ele>
        <time>2022-01-08T15:24:59Z</time>
      </trkpt>
      <trkpt lat="36.7379210" lon="-3.7728130">
        <ele>111.0</ele>
        <time>2022-01-08T15:25:00Z</time>
      </trkpt>
      <trkpt lat="36.7379240" lon="-3.7728130">
        <ele>112.0</ele>
        <time>2022-01-08T15:25:01Z</time>
      </trkpt>
      <trkpt lat="36.7379270" lon="-3.7728120">
        <ele>112.0</ele>
        <time>2022-01-08T15:25:02Z</time>
      </trkpt>
      <trkpt lat="36.7379300" lon="-3.7728110">
        <ele>112.0</ele>
        <time>2022-01-08T15:25:03Z</time>
      </trkpt>
      <trkpt lat="36.7379330" lon="-3.7728110">
        <ele>112.0</ele>
        <time>2022-01-08T15:25:04Z</time>
      </trkpt>
      <trkpt lat="36.7379360" lon="-3.7728100">
        <ele>113.0</ele>
        <time>2022-01-08T15:25:05Z</time>
      </trkpt>
      <trkpt lat="36.7379390" lon="-3.7728100">
        <ele>113.0</ele>
        <time>2022-01-08T15:25:06Z</time>
      </trkpt>
      <trkpt lat="36.7379420" lon="-3.7728090">
        <ele>113.0</ele>
        <time>2022-01-08T15:25:07Z</time>
      </trkpt>
      <trkpt lat="36.7379440" lon="-3.7728080">
        <ele>113.0</ele>
        <time>2022-01-08T15:25:08Z</time>
      </trkpt>
      <trkpt lat="36.7379470" lon="-3.7728080">
        <ele>113.0</ele>
        <time>2022-01-08T15:25:09Z</time>
      </trkpt>
      <trkpt lat="36.7379500" lon="-3.7728070">
        <ele>113.0</ele>
        <time>2022-01-08T15:25:10Z</time>
      </trkpt>
      <trkpt lat="36.7379530" lon="-3.7728070">
        <ele>113.0</ele>
        <time>2022-01-08T15:25:11Z</time>
      </trkpt>
      <trkpt lat="36.7379530" lon="-3.7728070">
        <ele>113.0</ele>
        <time>2022-01-08T15:25:12Z</time>
      </trkpt>
      <trkpt lat="36.7379720" lon="-3.7728440">
        <ele>113.0</ele>
        <time>2022-01-08T15:25:13Z</time>
      </trkpt>
      <trkpt lat="36.7379720" lon="-3.7728440">
        <ele>113.0</ele>
        <time>2022-01-08T15:25:14Z</time>
      </trkpt>
      <trkpt lat="36.7379860" lon="-3.7728590">
        <ele>112.0</ele>
        <time>2022-01-08T15:25:15Z</time>
      </trkpt>
      <trkpt lat="36.7380000" lon="-3.7728750">
        <ele>112.0</ele>
        <time>2022-01-08T15:25:16Z</time>
      </trkpt>
      <trkpt lat="36.7380140" lon="-3.7728900">
        <ele>111.0</ele>
        <time>2022-01-08T15:25:17Z</time>
      </trkpt>
      <trkpt lat="36.7380270" lon="-3.7729060">
        <ele>111.0</ele>
        <time>2022-01-08T15:25:18Z</time>
      </trkpt>
      <trkpt lat="36.7380410" lon="-3.7729220">
        <ele>111.0</ele>
        <time>2022-01-08T15:25:19Z</time>
      </trkpt>
      <trkpt lat="36.7380610" lon="-3.7729300">
        <ele>111.0</ele>
        <time>2022-01-08T15:25:20Z</time>
      </trkpt>
      <trkpt lat="36.7380810" lon="-3.7729390">
        <ele>110.0</ele>
        <time>2022-01-08T15:25:21Z</time>
      </trkpt>
      <trkpt lat="36.7381010" lon="-3.7729470">
        <ele>109.0</ele>
        <time>2022-01-08T15:25:22Z</time>
      </trkpt>
      <trkpt lat="36.7381210" lon="-3.7729560">
        <ele>109.0</ele>
        <time>2022-01-08T15:25:23Z</time>
      </trkpt>
      <trkpt lat="36.7381410" lon="-3.7729650">
        <ele>108.0</ele>
        <time>2022-01-08T15:25:24Z</time>
      </trkpt>
      <trkpt lat="36.7381650" lon="-3.7729550">
        <ele>108.0</ele>
        <time>2022-01-08T15:25:25Z</time>
      </trkpt>
      <trkpt lat="36.7381890" lon="-3.7729460">
        <ele>107.0</ele>
        <time>2022-01-08T15:25:26Z</time>
      </trkpt>
      <trkpt lat="36.7382130" lon="-3.7729360">
        <ele>103.0</ele>
        <time>2022-01-08T15:25:27Z</time>
      </trkpt>
      <trkpt lat="36.7382370" lon="-3.7729270">
        <ele>103.0</ele>
        <time>2022-01-08T15:25:28Z</time>
      </trkpt>
      <trkpt lat="36.7382590" lon="-3.7729410">
        <ele>103.0</ele>
        <time>2022-01-08T15:25:29Z</time>
      </trkpt>
      <trkpt lat="36.7382820" lon="-3.7729560">
        <ele>102.0</ele>
        <time>2022-01-08T15:25:30Z</time>
      </trkpt>
      <trkpt lat="36.7383040" lon="-3.7729700">
        <ele>102.0</ele>
        <time>2022-01-08T15:25:31Z</time>
      </trkpt>
      <trkpt lat="36.7383260" lon="-3.7729850">
        <ele>101.0</ele>
        <time>2022-01-08T15:25:32Z</time>
      </trkpt>
      <trkpt lat="36.7383290" lon="-3.7730200">
        <ele>100.0</ele>
        <time>2022-01-08T15:25:33Z</time>
      </trkpt>
      <trkpt lat="36.7383320" lon="-3.7730560">
        <ele>100.0</ele>
        <time>2022-01-08T15:25:34Z</time>
      </trkpt>
      <trkpt lat="36.7383350" lon="-3.7730910">
        <ele>99.0</ele>
        <time>2022-01-08T15:25:35Z</time>
      </trkpt>
      <trkpt lat="36.7383380" lon="-3.7731270">
        <ele>99.0</ele>
        <time>2022-01-08T15:25:36Z</time>
      </trkpt>
      <trkpt lat="36.7383300" lon="-3.7731560">
        <ele>98.0</ele>
        <time>2022-01-08T15:25:37Z</time>
      </trkpt>
      <trkpt lat="36.7383210" lon="-3.7731850">
        <ele>98.0</ele>
        <time>2022-01-08T15:25:38Z</time>
      </trkpt>
      <trkpt lat="36.7383130" lon="-3.7732140">
        <ele>98.0</ele>
        <time>2022-01-08T15:25:39Z</time>
      </trkpt>
      <trkpt lat="36.7383040" lon="-3.7732440">
        <ele>97.0</ele>
        <time>2022-01-08T15:25:40Z</time>
      </trkpt>
      <trkpt lat="36.7382880" lon="-3.7732690">
        <ele>97.0</ele>
        <time>2022-01-08T15:25:41Z</time>
      </trkpt>
      <trkpt lat="36.7382710" lon="-3.7732950">
        <ele>95.0</ele>
        <time>2022-01-08T15:25:42Z</time>
      </trkpt>
      <trkpt lat="36.7382550" lon="-3.7733200">
        <ele>95.0</ele>
        <time>2022-01-08T15:25:43Z</time>
      </trkpt>
      <trkpt lat="36.7382380" lon="-3.7733460">
        <ele>94.0</ele>
        <time>2022-01-08T15:25:44Z</time>
      </trkpt>
      <trkpt lat="36.7382220" lon="-3.7733720">
        <ele>94.0</ele>
        <time>2022-01-08T15:25:45Z</time>
      </trkpt>
      <trkpt lat="36.7382050" lon="-3.7733980">
        <ele>93.0</ele>
        <time>2022-01-08T15:25:46Z</time>
      </trkpt>
      <trkpt lat="36.7381890" lon="-3.7734240">
        <ele>92.0</ele>
        <time>2022-01-08T15:25:47Z</time>
      </trkpt>
      <trkpt lat="36.7381720" lon="-3.7734510">
        <ele>92.0</ele>
        <time>2022-01-08T15:25:48Z</time>
      </trkpt>
      <trkpt lat="36.7381580" lon="-3.7734760">
        <ele>91.0</ele>
        <time>2022-01-08T15:25:49Z</time>
      </trkpt>
      <trkpt lat="36.7381440" lon="-3.7735010">
        <ele>91.0</ele>
        <time>2022-01-08T15:25:50Z</time>
      </trkpt>
      <trkpt lat="36.7381290" lon="-3.7735260">
        <ele>91.0</ele>
        <time>2022-01-08T15:25:51Z</time>
      </trkpt>
      <trkpt lat="36.7381150" lon="-3.7735510">
        <ele>90.0</ele>
        <time>2022-01-08T15:25:52Z</time>
      </trkpt>
      <trkpt lat="36.7381060" lon="-3.7735780">
        <ele>89.0</ele>
        <time>2022-01-08T15:25:53Z</time>
      </trkpt>
      <trkpt lat="36.7380960" lon="-3.7736060">
        <ele>88.0</ele>
        <time>2022-01-08T15:25:54Z</time>
      </trkpt>
      <trkpt lat="36.7380870" lon="-3.7736330">
        <ele>87.0</ele>
        <time>2022-01-08T15:25:55Z</time>
      </trkpt>
      <trkpt lat="36.7380770" lon="-3.7736610">
        <ele>86.0</ele>
        <time>2022-01-08T15:25:56Z</time>
      </trkpt>
      <trkpt lat="36.7380690" lon="-3.7736950">
        <ele>86.0</ele>
        <time>2022-01-08T15:25:57Z</time>
      </trkpt>
      <trkpt lat="36.7380610" lon="-3.7737300">
        <ele>86.0</ele>
        <time>2022-01-08T15:25:58Z</time>
      </trkpt>
      <trkpt lat="36.7380540" lon="-3.7737650">
        <ele>85.0</ele>
        <time>2022-01-08T15:25:59Z</time>
      </trkpt>
      <trkpt lat="36.7380460" lon="-3.7738000">
        <ele>85.0</ele>
        <time>2022-01-08T15:26:00Z</time>
      </trkpt>
      <trkpt lat="36.7380350" lon="-3.7738450">
        <ele>83.0</ele>
        <time>2022-01-08T15:26:01Z</time>
      </trkpt>
      <trkpt lat="36.7380230" lon="-3.7738910">
        <ele>82.0</ele>
        <time>2022-01-08T15:26:02Z</time>
      </trkpt>
      <trkpt lat="36.7380120" lon="-3.7739360">
        <ele>82.0</ele>
        <time>2022-01-08T15:26:03Z</time>
      </trkpt>
      <trkpt lat="36.7380020" lon="-3.7739790">
        <ele>82.0</ele>
        <time>2022-01-08T15:26:04Z</time>
      </trkpt>
      <trkpt lat="36.7379910" lon="-3.7740220">
        <ele>82.0</ele>
        <time>2022-01-08T15:26:05Z</time>
      </trkpt>
      <trkpt lat="36.7379810" lon="-3.7740650">
        <ele>81.0</ele>
        <time>2022-01-08T15:26:06Z</time>
      </trkpt>
      <trkpt lat="36.7379880" lon="-3.7741050">
        <ele>80.0</ele>
        <time>2022-01-08T15:26:07Z</time>
      </trkpt>
      <trkpt lat="36.7379940" lon="-3.7741450">
        <ele>80.0</ele>
        <time>2022-01-08T15:26:08Z</time>
      </trkpt>
      <trkpt lat="36.7380010" lon="-3.7741850">
        <ele>80.0</ele>
        <time>2022-01-08T15:26:09Z</time>
      </trkpt>
      <trkpt lat="36.7380040" lon="-3.7742150">
        <ele>80.0</ele>
        <time>2022-01-08T15:26:10Z</time>
      </trkpt>
      <trkpt lat="36.7380080" lon="-3.7742460">
        <ele>79.0</ele>
        <time>2022-01-08T15:26:11Z</time>
      </trkpt>
      <trkpt lat="36.7380110" lon="-3.7742760">
        <ele>79.0</ele>
        <time>2022-01-08T15:26:12Z</time>
      </trkpt>
      <trkpt lat="36.7380150" lon="-3.7743070">
        <ele>78.0</ele>
        <time>2022-01-08T15:26:13Z</time>
      </trkpt>
      <trkpt lat="36.7380130" lon="-3.7743460">
        <ele>78.0</ele>
        <time>2022-01-08T15:26:14Z</time>
      </trkpt>
      <trkpt lat="36.7380120" lon="-3.7743860">
        <ele>78.0</ele>
        <time>2022-01-08T15:26:15Z</time>
      </trkpt>
      <trkpt lat="36.7380100" lon="-3.7744250">
        <ele>77.0</ele>
        <time>2022-01-08T15:26:16Z</time>
      </trkpt>
      <trkpt lat="36.7380050" lon="-3.7744610">
        <ele>77.0</ele>
        <time>2022-01-08T15:26:17Z</time>
      </trkpt>
      <trkpt lat="36.7379990" lon="-3.7744960">
        <ele>76.0</ele>
        <time>2022-01-08T15:26:18Z</time>
      </trkpt>
      <trkpt lat="36.7379940" lon="-3.7745320">
        <ele>76.0</ele>
        <time>2022-01-08T15:26:19Z</time>
      </trkpt>
      <trkpt lat="36.7379890" lon="-3.7745670">
        <ele>74.0</ele>
        <time>2022-01-08T15:26:20Z</time>
      </trkpt>
      <trkpt lat="36.7380010" lon="-3.7746020">
        <ele>73.0</ele>
        <time>2022-01-08T15:26:21Z</time>
      </trkpt>
      <trkpt lat="36.7380130" lon="-3.7746370">
        <ele>73.0</ele>
        <time>2022-01-08T15:26:22Z</time>
      </trkpt>
      <trkpt lat="36.7380250" lon="-3.7746710">
        <ele>73.0</ele>
        <time>2022-01-08T15:26:23Z</time>
      </trkpt>
      <trkpt lat="36.7380500" lon="-3.7746710">
        <ele>72.0</ele>
        <time>2022-01-08T15:26:24Z</time>
      </trkpt>
      <trkpt lat="36.7380740" lon="-3.7746710">
        <ele>72.0</ele>
        <time>2022-01-08T15:26:25Z</time>
      </trkpt>
      <trkpt lat="36.7380990" lon="-3.7746710">
        <ele>72.0</ele>
        <time>2022-01-08T15:26:26Z</time>
      </trkpt>
      <trkpt lat="36.7381240" lon="-3.7746700">
        <ele>71.0</ele>
        <time>2022-01-08T15:26:27Z</time>
      </trkpt>
      <trkpt lat="36.7381500" lon="-3.7746610">
        <ele>70.0</ele>
        <time>2022-01-08T15:26:28Z</time>
      </trkpt>
      <trkpt lat="36.7381750" lon="-3.7746520">
        <ele>69.0</ele>
        <time>2022-01-08T15:26:29Z</time>
      </trkpt>
      <trkpt lat="36.7382010" lon="-3.7746430">
        <ele>69.0</ele>
        <time>2022-01-08T15:26:30Z</time>
      </trkpt>
      <trkpt lat="36.7382270" lon="-3.7746340">
        <ele>68.0</ele>
        <time>2022-01-08T15:26:31Z</time>
      </trkpt>
      <trkpt lat="36.7382550" lon="-3.7746200">
        <ele>67.0</ele>
        <time>2022-01-08T15:26:32Z</time>
      </trkpt>
      <trkpt lat="36.7382820" lon="-3.7746070">
        <ele>66.0</ele>
        <time>2022-01-08T15:26:33Z</time>
      </trkpt>
      <trkpt lat="36.7383100" lon="-3.7745940">
        <ele>66.0</ele>
        <time>2022-01-08T15:26:34Z</time>
      </trkpt>
      <trkpt lat="36.7383380" lon="-3.7745800">
        <ele>66.0</ele>
        <time>2022-01-08T15:26:35Z</time>
      </trkpt>
      <trkpt lat="36.7383540" lon="-3.7745740">
        <ele>65.0</ele>
        <time>2022-01-08T15:26:36Z</time>
      </trkpt>
      <trkpt lat="36.7383710" lon="-3.7745680">
        <ele>65.0</ele>
        <time>2022-01-08T15:26:37Z</time>
      </trkpt>
      <trkpt lat="36.7383870" lon="-3.7745620">
        <ele>65.0</ele>
        <time>2022-01-08T15:26:38Z</time>
      </trkpt>
      <trkpt lat="36.7384040" lon="-3.7745560">
        <ele>63.0</ele>
        <time>2022-01-08T15:26:39Z</time>
      </trkpt>
      <trkpt lat="36.7384200" lon="-3.7745500">
        <ele>61.0</ele>
        <time>2022-01-08T15:26:40Z</time>
      </trkpt>
      <trkpt lat="36.7384370" lon="-3.7745430">
        <ele>61.0</ele>
        <time>2022-01-08T15:26:41Z</time>
      </trkpt>
      <trkpt lat="36.7384460" lon="-3.7745680">
        <ele>61.0</ele>
        <time>2022-01-08T15:26:42Z</time>
      </trkpt>
      <trkpt lat="36.7384550" lon="-3.7745920">
        <ele>61.0</ele>
        <time>2022-01-08T15:26:43Z</time>
      </trkpt>
      <trkpt lat="36.7384640" lon="-3.7746160">
        <ele>61.0</ele>
        <time>2022-01-08T15:26:44Z</time>
      </trkpt>
      <trkpt lat="36.7384730" lon="-3.7746400">
        <ele>61.0</ele>
        <time>2022-01-08T15:26:45Z</time>
      </trkpt>
      <trkpt lat="36.7384630" lon="-3.7746650">
        <ele>59.0</ele>
        <time>2022-01-08T15:26:46Z</time>
      </trkpt>
      <trkpt lat="36.7384400" lon="-3.7747150">
        <ele>59.0</ele>
        <time>2022-01-08T15:26:47Z</time>
      </trkpt>
      <trkpt lat="36.7384400" lon="-3.7747150">
        <ele>58.0</ele>
        <time>2022-01-08T15:26:48Z</time>
      </trkpt>
      <trkpt lat="36.7384210" lon="-3.7747320">
        <ele>58.0</ele>
        <time>2022-01-08T15:26:49Z</time>
      </trkpt>
      <trkpt lat="36.7384020" lon="-3.7747490">
        <ele>58.0</ele>
        <time>2022-01-08T15:26:50Z</time>
      </trkpt>
      <trkpt lat="36.7383840" lon="-3.7747660">
        <ele>58.0</ele>
        <time>2022-01-08T15:26:51Z</time>
      </trkpt>
      <trkpt lat="36.7383650" lon="-3.7747820">
        <ele>57.0</ele>
        <time>2022-01-08T15:26:52Z</time>
      </trkpt>
      <trkpt lat="36.7383480" lon="-3.7747990">
        <ele>57.0</ele>
        <time>2022-01-08T15:26:53Z</time>
      </trkpt>
      <trkpt lat="36.7383310" lon="-3.7748160">
        <ele>57.0</ele>
        <time>2022-01-08T15:26:54Z</time>
      </trkpt>
      <trkpt lat="36.7383150" lon="-3.7748330">
        <ele>56.0</ele>
        <time>2022-01-08T15:26:55Z</time>
      </trkpt>
      <trkpt lat="36.7382980" lon="-3.7748500">
        <ele>55.0</ele>
        <time>2022-01-08T15:26:56Z</time>
      </trkpt>
      <trkpt lat="36.7382810" lon="-3.7748670">
        <ele>55.0</ele>
        <time>2022-01-08T15:26:57Z</time>
      </trkpt>
      <trkpt lat="36.7382620" lon="-3.7748910">
        <ele>53.0</ele>
        <time>2022-01-08T15:26:58Z</time>
      </trkpt>
      <trkpt lat="36.7382430" lon="-3.7749150">
        <ele>52.0</ele>
        <time>2022-01-08T15:26:59Z</time>
      </trkpt>
      <trkpt lat="36.7382250" lon="-3.7749380">
        <ele>52.0</ele>
        <time>2022-01-08T15:27:00Z</time>
      </trkpt>
      <trkpt lat="36.7382060" lon="-3.7749620">
        <ele>52.0</ele>
        <time>2022-01-08T15:27:01Z</time>
      </trkpt>
      <trkpt lat="36.7381870" lon="-3.7749850">
        <ele>52.0</ele>
        <time>2022-01-08T15:27:02Z</time>
      </trkpt>
      <trkpt lat="36.7381680" lon="-3.7750080">
        <ele>52.0</ele>
        <time>2022-01-08T15:27:03Z</time>
      </trkpt>
      <trkpt lat="36.7381490" lon="-3.7750310">
        <ele>51.0</ele>
        <time>2022-01-08T15:27:04Z</time>
      </trkpt>
      <trkpt lat="36.7381300" lon="-3.7750540">
        <ele>50.0</ele>
        <time>2022-01-08T15:27:05Z</time>
      </trkpt>
      <trkpt lat="36.7381100" lon="-3.7750730">
        <ele>49.0</ele>
        <time>2022-01-08T15:27:06Z</time>
      </trkpt>
      <trkpt lat="36.7380900" lon="-3.7750920">
        <ele>49.0</ele>
        <time>2022-01-08T15:27:07Z</time>
      </trkpt>
      <trkpt lat="36.7380700" lon="-3.7751110">
        <ele>48.0</ele>
        <time>2022-01-08T15:27:08Z</time>
      </trkpt>
      <trkpt lat="36.7380500" lon="-3.7751310">
        <ele>48.0</ele>
        <time>2022-01-08T15:27:09Z</time>
      </trkpt>
      <trkpt lat="36.7380340" lon="-3.7751600">
        <ele>47.0</ele>
        <time>2022-01-08T15:27:10Z</time>
      </trkpt>
      <trkpt lat="36.7380190" lon="-3.7751900">
        <ele>47.0</ele>
        <time>2022-01-08T15:27:11Z</time>
      </trkpt>
      <trkpt lat="36.7380040" lon="-3.7752200">
        <ele>46.0</ele>
        <time>2022-01-08T15:27:12Z</time>
      </trkpt>
      <trkpt lat="36.7379890" lon="-3.7752500">
        <ele>45.0</ele>
        <time>2022-01-08T15:27:13Z</time>
      </trkpt>
      <trkpt lat="36.7379800" lon="-3.7752700">
        <ele>44.0</ele>
        <time>2022-01-08T15:27:14Z</time>
      </trkpt>
      <trkpt lat="36.7379700" lon="-3.7752900">
        <ele>44.0</ele>
        <time>2022-01-08T15:27:15Z</time>
      </trkpt>
      <trkpt lat="36.7379610" lon="-3.7753110">
        <ele>44.0</ele>
        <time>2022-01-08T15:27:16Z</time>
      </trkpt>
      <trkpt lat="36.7379520" lon="-3.7753310">
        <ele>44.0</ele>
        <time>2022-01-08T15:27:17Z</time>
      </trkpt>
      <trkpt lat="36.7379430" lon="-3.7753520">
        <ele>43.0</ele>
        <time>2022-01-08T15:27:18Z</time>
      </trkpt>
      <trkpt lat="36.7379200" lon="-3.7753870">
        <ele>42.0</ele>
        <time>2022-01-08T15:27:19Z</time>
      </trkpt>
      <trkpt lat="36.7379110" lon="-3.7754100">
        <ele>41.0</ele>
        <time>2022-01-08T15:27:20Z</time>
      </trkpt>
      <trkpt lat="36.7379110" lon="-3.7754100">
        <ele>40.0</ele>
        <time>2022-01-08T15:27:21Z</time>
      </trkpt>
      <trkpt lat="36.7379000" lon="-3.7754460">
        <ele>40.0</ele>
        <time>2022-01-08T15:27:22Z</time>
      </trkpt>
      <trkpt lat="36.7378890" lon="-3.7754820">
        <ele>39.0</ele>
        <time>2022-01-08T15:27:23Z</time>
      </trkpt>
      <trkpt lat="36.7378780" lon="-3.7755180">
        <ele>39.0</ele>
        <time>2022-01-08T15:27:24Z</time>
      </trkpt>
      <trkpt lat="36.7378800" lon="-3.7755500">
        <ele>38.0</ele>
        <time>2022-01-08T15:27:25Z</time>
      </trkpt>
      <trkpt lat="36.7378800" lon="-3.7755500">
        <ele>37.0</ele>
        <time>2022-01-08T15:27:26Z</time>
      </trkpt>
      <trkpt lat="36.7378890" lon="-3.7756150">
        <ele>37.0</ele>
        <time>2022-01-08T15:27:27Z</time>
      </trkpt>
      <trkpt lat="36.7378900" lon="-3.7756460">
        <ele>37.0</ele>
        <time>2022-01-08T15:27:28Z</time>
      </trkpt>
      <trkpt lat="36.7378900" lon="-3.7756770">
        <ele>37.0</ele>
        <time>2022-01-08T15:27:29Z</time>
      </trkpt>
      <trkpt lat="36.7378860" lon="-3.7757100">
        <ele>36.0</ele>
        <time>2022-01-08T15:27:30Z</time>
      </trkpt>
      <trkpt lat="36.7378860" lon="-3.7757390">
        <ele>36.0</ele>
        <time>2022-01-08T15:27:31Z</time>
      </trkpt>
      <trkpt lat="36.7378790" lon="-3.7757650">
        <ele>36.0</ele>
        <time>2022-01-08T15:27:32Z</time>
      </trkpt>
      <trkpt lat="36.7378790" lon="-3.7757650">
        <ele>35.0</ele>
        <time>2022-01-08T15:27:33Z</time>
      </trkpt>
      <trkpt lat="36.7378420" lon="-3.7758140">
        <ele>35.0</ele>
        <time>2022-01-08T15:27:34Z</time>
      </trkpt>
      <trkpt lat="36.7378340" lon="-3.7758250">
        <ele>35.0</ele>
        <time>2022-01-08T15:27:35Z</time>
      </trkpt>
      <trkpt lat="36.7378200" lon="-3.7758440">
        <ele>34.0</ele>
        <time>2022-01-08T15:27:36Z</time>
      </trkpt>
      <trkpt lat="36.7378040" lon="-3.7758700">
        <ele>33.0</ele>
        <time>2022-01-08T15:27:37Z</time>
      </trkpt>
      <trkpt lat="36.7377930" lon="-3.7759030">
        <ele>33.0</ele>
        <time>2022-01-08T15:27:38Z</time>
      </trkpt>
      <trkpt lat="36.7377910" lon="-3.7759370">
        <ele>33.0</ele>
        <time>2022-01-08T15:27:39Z</time>
      </trkpt>
      <trkpt lat="36.7377980" lon="-3.7759720">
        <ele>33.0</ele>
        <time>2022-01-08T15:27:40Z</time>
      </trkpt>
      <trkpt lat="36.7378170" lon="-3.7760070">
        <ele>33.0</ele>
        <time>2022-01-08T15:27:41Z</time>
      </trkpt>
      <trkpt lat="36.7378390" lon="-3.7760380">
        <ele>32.0</ele>
        <time>2022-01-08T15:27:42Z</time>
      </trkpt>
      <trkpt lat="36.7378640" lon="-3.7760650">
        <ele>31.0</ele>
        <time>2022-01-08T15:27:43Z</time>
      </trkpt>
      <trkpt lat="36.7378920" lon="-3.7760910">
        <ele>31.0</ele>
        <time>2022-01-08T15:27:44Z</time>
      </trkpt>
      <trkpt lat="36.7378920" lon="-3.7760910">
        <ele>31.0</ele>
        <time>2022-01-08T15:27:45Z</time>
      </trkpt>
      <trkpt lat="36.7379430" lon="-3.7761380">
        <ele>30.0</ele>
        <time>2022-01-08T15:27:46Z</time>
      </trkpt>
      <trkpt lat="36.7379710" lon="-3.7761570">
        <ele>30.0</ele>
        <time>2022-01-08T15:27:47Z</time>
      </trkpt>
      <trkpt lat="36.7380010" lon="-3.7761780">
        <ele>30.0</ele>
        <time>2022-01-08T15:27:48Z</time>
      </trkpt>
      <trkpt lat="36.7380270" lon="-3.7761980">
        <ele>30.0</ele>
        <time>2022-01-08T15:27:49Z</time>
      </trkpt>
      <trkpt lat="36.7380540" lon="-3.7762140">
        <ele>30.0</ele>
        <time>2022-01-08T15:27:50Z</time>
      </trkpt>
      <trkpt lat="36.7380810" lon="-3.7762340">
        <ele>30.0</ele>
        <time>2022-01-08T15:27:51Z</time>
      </trkpt>
      <trkpt lat="36.7381070" lon="-3.7762510">
        <ele>29.0</ele>
        <time>2022-01-08T15:27:52Z</time>
      </trkpt>
      <trkpt lat="36.7381350" lon="-3.7762660">
        <ele>29.0</ele>
        <time>2022-01-08T15:27:53Z</time>
      </trkpt>
      <trkpt lat="36.7381620" lon="-3.7762850">
        <ele>29.0</ele>
        <time>2022-01-08T15:27:54Z</time>
      </trkpt>
      <trkpt lat="36.7381880" lon="-3.7763020">
        <ele>29.0</ele>
        <time>2022-01-08T15:27:55Z</time>
      </trkpt>
      <trkpt lat="36.7382130" lon="-3.7763170">
        <ele>29.0</ele>
        <time>2022-01-08T15:27:56Z</time>
      </trkpt>
      <trkpt lat="36.7382390" lon="-3.7763340">
        <ele>29.0</ele>
        <time>2022-01-08T15:27:57Z</time>
      </trkpt>
      <trkpt lat="36.7382630" lon="-3.7763460">
        <ele>29.0</ele>
        <time>2022-01-08T15:27:58Z</time>
      </trkpt>
      <trkpt lat="36.7382880" lon="-3.7763580">
        <ele>29.0</ele>
        <time>2022-01-08T15:27:59Z</time>
      </trkpt>
      <trkpt lat="36.7383160" lon="-3.7763660">
        <ele>28.0</ele>
        <time>2022-01-08T15:28:00Z</time>
      </trkpt>
      <trkpt lat="36.7383440" lon="-3.7763740">
        <ele>28.0</ele>
        <time>2022-01-08T15:28:01Z</time>
      </trkpt>
      <trkpt lat="36.7383700" lon="-3.7763780">
        <ele>28.0</ele>
        <time>2022-01-08T15:28:02Z</time>
      </trkpt>
      <trkpt lat="36.7383960" lon="-3.7763800">
        <ele>28.0</ele>
        <time>2022-01-08T15:28:03Z</time>
      </trkpt>
      <trkpt lat="36.7384190" lon="-3.7763750">
        <ele>28.0</ele>
        <time>2022-01-08T15:28:04Z</time>
      </trkpt>
      <trkpt lat="36.7384420" lon="-3.7763730">
        <ele>27.0</ele>
        <time>2022-01-08T15:28:05Z</time>
      </trkpt>
      <trkpt lat="36.7384660" lon="-3.7763720">
        <ele>27.0</ele>
        <time>2022-01-08T15:28:06Z</time>
      </trkpt>
      <trkpt lat="36.7384880" lon="-3.7763750">
        <ele>27.0</ele>
        <time>2022-01-08T15:28:07Z</time>
      </trkpt>
      <trkpt lat="36.7385110" lon="-3.7763800">
        <ele>26.0</ele>
        <time>2022-01-08T15:28:08Z</time>
      </trkpt>
      <trkpt lat="36.7385350" lon="-3.7763850">
        <ele>25.0</ele>
        <time>2022-01-08T15:28:09Z</time>
      </trkpt>
      <trkpt lat="36.7385580" lon="-3.7763860">
        <ele>24.0</ele>
        <time>2022-01-08T15:28:10Z</time>
      </trkpt>
      <trkpt lat="36.7385580" lon="-3.7763860">
        <ele>24.0</ele>
        <time>2022-01-08T15:28:11Z</time>
      </trkpt>
      <trkpt lat="36.7386080" lon="-3.7763980">
        <ele>23.0</ele>
        <time>2022-01-08T15:28:12Z</time>
      </trkpt>
      <trkpt lat="36.7386310" lon="-3.7764080">
        <ele>23.0</ele>
        <time>2022-01-08T15:28:13Z</time>
      </trkpt>
      <trkpt lat="36.7386520" lon="-3.7764230">
        <ele>22.0</ele>
        <time>2022-01-08T15:28:14Z</time>
      </trkpt>
      <trkpt lat="36.7386680" lon="-3.7764400">
        <ele>21.0</ele>
        <time>2022-01-08T15:28:15Z</time>
      </trkpt>
      <trkpt lat="36.7386790" lon="-3.7764620">
        <ele>20.0</ele>
        <time>2022-01-08T15:28:16Z</time>
      </trkpt>
      <trkpt lat="36.7386820" lon="-3.7764870">
        <ele>20.0</ele>
        <time>2022-01-08T15:28:17Z</time>
      </trkpt>
      <trkpt lat="36.7386750" lon="-3.7765110">
        <ele>19.0</ele>
        <time>2022-01-08T15:28:18Z</time>
      </trkpt>
      <trkpt lat="36.7386590" lon="-3.7765270">
        <ele>19.0</ele>
        <time>2022-01-08T15:28:19Z</time>
      </trkpt>
      <trkpt lat="36.7386590" lon="-3.7765270">
        <ele>18.0</ele>
        <time>2022-01-08T15:28:20Z</time>
      </trkpt>
      <trkpt lat="36.7385960" lon="-3.7765400">
        <ele>18.0</ele>
        <time>2022-01-08T15:28:21Z</time>
      </trkpt>
      <trkpt lat="36.7385830" lon="-3.7765420">
        <ele>17.0</ele>
        <time>2022-01-08T15:28:22Z</time>
      </trkpt>
      <trkpt lat="36.7385830" lon="-3.7765420">
        <ele>16.0</ele>
        <time>2022-01-08T15:28:23Z</time>
      </trkpt>
      <trkpt lat="36.7385280" lon="-3.7765440">
        <ele>16.0</ele>
        <time>2022-01-08T15:28:24Z</time>
      </trkpt>
      <trkpt lat="36.7385000" lon="-3.7765450">
        <ele>16.0</ele>
        <time>2022-01-08T15:28:25Z</time>
      </trkpt>
      <trkpt lat="36.7384720" lon="-3.7765470">
        <ele>15.0</ele>
        <time>2022-01-08T15:28:26Z</time>
      </trkpt>
      <trkpt lat="36.7384440" lon="-3.7765490">
        <ele>14.0</ele>
        <time>2022-01-08T15:28:27Z</time>
      </trkpt>
      <trkpt lat="36.7384170" lon="-3.7765470">
        <ele>14.0</ele>
        <time>2022-01-08T15:28:28Z</time>
      </trkpt>
      <trkpt lat="36.7383900" lon="-3.7765370">
        <ele>14.0</ele>
        <time>2022-01-08T15:28:29Z</time>
      </trkpt>
      <trkpt lat="36.7383900" lon="-3.7765370">
        <ele>13.0</ele>
        <time>2022-01-08T15:28:30Z</time>
      </trkpt>
      <trkpt lat="36.7383410" lon="-3.7765180">
        <ele>12.0</ele>
        <time>2022-01-08T15:28:31Z</time>
      </trkpt>
      <trkpt lat="36.7383200" lon="-3.7765040">
        <ele>12.0</ele>
        <time>2022-01-08T15:28:32Z</time>
      </trkpt>
      <trkpt lat="36.7382980" lon="-3.7764830">
        <ele>10.0</ele>
        <time>2022-01-08T15:28:33Z</time>
      </trkpt>
      <trkpt lat="36.7382770" lon="-3.7764620">
        <ele>8.0</ele>
        <time>2022-01-08T15:28:34Z</time>
      </trkpt>
      <trkpt lat="36.7382520" lon="-3.7764470">
        <ele>8.0</ele>
        <time>2022-01-08T15:28:35Z</time>
      </trkpt>
      <trkpt lat="36.7382230" lon="-3.7764350">
        <ele>8.0</ele>
        <time>2022-01-08T15:28:36Z</time>
      </trkpt>
      <trkpt lat="36.7381960" lon="-3.7764240">
        <ele>7.0</ele>
        <time>2022-01-08T15:28:37Z</time>
      </trkpt>
      <trkpt lat="36.7381670" lon="-3.7764180">
        <ele>7.0</ele>
        <time>2022-01-08T15:28:38Z</time>
      </trkpt>
      <trkpt lat="36.7381330" lon="-3.7764190">
        <ele>7.0</ele>
        <time>2022-01-08T15:28:39Z</time>
      </trkpt>
      <trkpt lat="36.7381330" lon="-3.7764190">
        <ele>6.0</ele>
        <time>2022-01-08T15:28:40Z</time>
      </trkpt>
      <trkpt lat="36.7380680" lon="-3.7764240">
        <ele>5.0</ele>
        <time>2022-01-08T15:28:41Z</time>
      </trkpt>
      <trkpt lat="36.7380370" lon="-3.7764190">
        <ele>5.0</ele>
        <time>2022-01-08T15:28:42Z</time>
      </trkpt>
      <trkpt lat="36.7380370" lon="-3.7764190">
        <ele>5.0</ele>
        <time>2022-01-08T15:28:43Z</time>
      </trkpt>
      <trkpt lat="36.7380070" lon="-3.7764150">
        <ele>4.0</ele>
        <time>2022-01-08T15:28:44Z</time>
      </trkpt>
      <trkpt lat="36.7379760" lon="-3.7764110">
        <ele>3.0</ele>
        <time>2022-01-08T15:28:45Z</time>
      </trkpt>
      <trkpt lat="36.7379460" lon="-3.7764070">
        <ele>2.0</ele>
        <time>2022-01-08T15:28:46Z</time>
      </trkpt>
      <trkpt lat="36.7379130" lon="-3.7764030">
        <ele>1.0</ele>
        <time>2022-01-08T15:28:47Z</time>
      </trkpt>
      <trkpt lat="36.7378800" lon="-3.7763990">
        <ele>1.0</ele>
        <time>2022-01-08T15:28:48Z</time>
      </trkpt>
      <trkpt lat="36.7378470" lon="-3.7763950">
        <ele>1.0</ele>
        <time>2022-01-08T15:28:49Z</time>
      </trkpt>
      <trkpt lat="36.7378160" lon="-3.7764120">
        <ele>0.0</ele>
        <time>2022-01-08T15:28:50Z</time>
      </trkpt>
      <trkpt lat="36.7377860" lon="-3.7764290">
        <ele>0.0</ele>
        <time>2022-01-08T15:28:51Z</time>
      </trkpt>
      <trkpt lat="36.7377550" lon="-3.7764450">
        <ele>-1.0</ele>
        <time>2022-01-08T15:28:52Z</time>
      </trkpt>
      <trkpt lat="36.7377590" lon="-3.7764520">
        <ele>-2.0</ele>
        <time>2022-01-08T15:28:53Z</time>
      </trkpt>
      <trkpt lat="36.7377630" lon="-3.7764590">
        <ele>-2.0</ele>
        <time>2022-01-08T15:28:54Z</time>
      </trkpt>
      <trkpt lat="36.7377670" lon="-3.7764660">
        <ele>-2.0</ele>
        <time>2022-01-08T15:28:55Z</time>
      </trkpt>
      <trkpt lat="36.7377710" lon="-3.7764740">
        <ele>-2.0</ele>
        <time>2022-01-08T15:28:56Z</time>
      </trkpt>
      <trkpt lat="36.7377740" lon="-3.7764810">
        <ele>-3.0</ele>
        <time>2022-01-08T15:28:57Z</time>
      </trkpt>
      <trkpt lat="36.7377780" lon="-3.7764880">
        <ele>-3.0</ele>
        <time>2022-01-08T15:28:58Z</time>
      </trkpt>
      <trkpt lat="36.7377820" lon="-3.7764950">
        <ele>-3.0</ele>
        <time>2022-01-08T15:28:59Z</time>
      </trkpt>
      <trkpt lat="36.7377860" lon="-3.7765020">
        <ele>-3.0</ele>
        <time>2022-01-08T15:29:00Z</time>
      </trkpt>
      <trkpt lat="36.7377900" lon="-3.7765090">
        <ele>-3.0</ele>
        <time>2022-01-08T15:29:01Z</time>
      </trkpt>
      <trkpt lat="36.7377940" lon="-3.7765160">
        <ele>-3.0</ele>
        <time>2022-01-08T15:29:02Z</time>
      </trkpt>
      <trkpt lat="36.7377980" lon="-3.7765230">
        <ele>-3.0</ele>
        <time>2022-01-08T15:29:03Z</time>
      </trkpt>
      <trkpt lat="36.7378020" lon="-3.7765300">
        <ele>-3.0</ele>
        <time>2022-01-08T15:29:04Z</time>
      </trkpt>
      <trkpt lat="36.7378060" lon="-3.7765370">
        <ele>-3.0</ele>
        <time>2022-01-08T15:29:05Z</time>
      </trkpt>
      <trkpt lat="36.7378100" lon="-3.7765440">
        <ele>-3.0</ele>
        <time>2022-01-08T15:29:06Z</time>
      </trkpt>
      <trkpt lat="36.7378360" lon="-3.7765610">
        <ele>-3.0</ele>
        <time>2022-01-08T15:29:07Z</time>
      </trkpt>
      <trkpt lat="36.7378360" lon="-3.7765610">
        <ele>-3.0</ele>
        <time>2022-01-08T15:29:08Z</time>
      </trkpt>
      <trkpt lat="36.7378530" lon="-3.7765680">
        <ele>-3.0</ele>
        <time>2022-01-08T15:29:09Z</time>
      </trkpt>
      <trkpt lat="36.7378530" lon="-3.7765680">
        <ele>-3.0</ele>
        <time>2022-01-08T15:29:10Z</time>
      </trkpt>
      <trkpt lat="36.7378810" lon="-3.7765700">
        <ele>-3.0</ele>
        <time>2022-01-08T15:29:11Z</time>
      </trkpt>
      <trkpt lat="36.7378810" lon="-3.7765700">
        <ele>-4.0</ele>
        <time>2022-01-08T15:29:12Z</time>
      </trkpt>
      <trkpt lat="36.7379000" lon="-3.7765910">
        <ele>-4.0</ele>
        <time>2022-01-08T15:29:13Z</time>
      </trkpt>
      <trkpt lat="36.7379000" lon="-3.7765910">
        <ele>-4.0</ele>
        <time>2022-01-08T15:29:14Z</time>
      </trkpt>
      <trkpt lat="36.7379160" lon="-3.7766220">
        <ele>-4.0</ele>
        <time>2022-01-08T15:29:15Z</time>
      </trkpt>
      <trkpt lat="36.7379160" lon="-3.7766220">
        <ele>-4.0</ele>
        <time>2022-01-08T15:29:16Z</time>
      </trkpt>
      <trkpt lat="36.7379290" lon="-3.7766470">
        <ele>-4.0</ele>
        <time>2022-01-08T15:29:17Z</time>
      </trkpt>
      <trkpt lat="36.7379290" lon="-3.7766470">
        <ele>-4.0</ele>
        <time>2022-01-08T15:29:18Z</time>
      </trkpt>
      <trkpt lat="36.7379400" lon="-3.7766690">
        <ele>-4.0</ele>
        <time>2022-01-08T15:29:19Z</time>
      </trkpt>
      <trkpt lat="36.7379400" lon="-3.7766690">
        <ele>-4.0</ele>
        <time>2022-01-08T15:29:20Z</time>
      </trkpt>
      <trkpt lat="36.7379520" lon="-3.7766940">
        <ele>-4.0</ele>
        <time>2022-01-08T15:29:21Z</time>
      </trkpt>
      <trkpt lat="36.7379520" lon="-3.7766940">
        <ele>-4.0</ele>
        <time>2022-01-08T15:29:22Z</time>
      </trkpt>
      <trkpt lat="36.7379700" lon="-3.7767160">
        <ele>-4.0</ele>
        <time>2022-01-08T15:29:23Z</time>
      </trkpt>
      <trkpt lat="36.7379700" lon="-3.7767160">
        <ele>-3.0</ele>
        <time>2022-01-08T15:29:24Z</time>
      </trkpt>
      <trkpt lat="36.7379860" lon="-3.7767310">
        <ele>-3.0</ele>
        <time>2022-01-08T15:29:25Z</time>
      </trkpt>
      <trkpt lat="36.7379860" lon="-3.7767310">
        <ele>-3.0</ele>
        <time>2022-01-08T15:29:26Z</time>
      </trkpt>
      <trkpt lat="36.7379860" lon="-3.7767310">
        <ele>-3.0</ele>
        <time>2022-01-08T15:29:27Z</time>
      </trkpt>
      <trkpt lat="36.7380020" lon="-3.7767490">
        <ele>-3.0</ele>
        <time>2022-01-08T15:29:28Z</time>
      </trkpt>
      <trkpt lat="36.7380140" lon="-3.7767770">
        <ele>-3.0</ele>
        <time>2022-01-08T15:29:29Z</time>
      </trkpt>
      <trkpt lat="36.7380140" lon="-3.7767770">
        <ele>-3.0</ele>
        <time>2022-01-08T15:29:30Z</time>
      </trkpt>
      <trkpt lat="36.7380330" lon="-3.7768000">
        <ele>-4.0</ele>
        <time>2022-01-08T15:29:31Z</time>
      </trkpt>
      <trkpt lat="36.7380330" lon="-3.7768000">
        <ele>-4.0</ele>
        <time>2022-01-08T15:29:32Z</time>
      </trkpt>
      <trkpt lat="36.7380530" lon="-3.7768260">
        <ele>-4.0</ele>
        <time>2022-01-08T15:29:33Z</time>
      </trkpt>
      <trkpt lat="36.7380530" lon="-3.7768260">
        <ele>-4.0</ele>
        <time>2022-01-08T15:29:34Z</time>
      </trkpt>
      <trkpt lat="36.7380800" lon="-3.7768440">
        <ele>-4.0</ele>
        <time>2022-01-08T15:29:35Z</time>
      </trkpt>
      <trkpt lat="36.7380800" lon="-3.7768440">
        <ele>-4.0</ele>
        <time>2022-01-08T15:29:36Z</time>
      </trkpt>
      <trkpt lat="36.7381050" lon="-3.7768540">
        <ele>-3.0</ele>
        <time>2022-01-08T15:29:37Z</time>
      </trkpt>
      <trkpt lat="36.7381050" lon="-3.7768540">
        <ele>-3.0</ele>
        <time>2022-01-08T15:29:38Z</time>
      </trkpt>
      <trkpt lat="36.7381350" lon="-3.7768640">
        <ele>-3.0</ele>
        <time>2022-01-08T15:29:39Z</time>
      </trkpt>
      <trkpt lat="36.7381350" lon="-3.7768640">
        <ele>-3.0</ele>
        <time>2022-01-08T15:29:40Z</time>
      </trkpt>
      <trkpt lat="36.7381630" lon="-3.7768790">
        <ele>-3.0</ele>
        <time>2022-01-08T15:29:41Z</time>
      </trkpt>
      <trkpt lat="36.7381630" lon="-3.7768790">
        <ele>-3.0</ele>
        <time>2022-01-08T15:29:42Z</time>
      </trkpt>
      <trkpt lat="36.7381940" lon="-3.7768930">
        <ele>-3.0</ele>
        <time>2022-01-08T15:29:43Z</time>
      </trkpt>
      <trkpt lat="36.7381940" lon="-3.7768930">
        <ele>-3.0</ele>
        <time>2022-01-08T15:29:44Z</time>
      </trkpt>
      <trkpt lat="36.7382290" lon="-3.7769030">
        <ele>-3.0</ele>
        <time>2022-01-08T15:29:45Z</time>
      </trkpt>
      <trkpt lat="36.7382640" lon="-3.7769120">
        <ele>-3.0</ele>
        <time>2022-01-08T15:29:46Z</time>
      </trkpt>
      <trkpt lat="36.7382990" lon="-3.7769220">
        <ele>-3.0</ele>
        <time>2022-01-08T15:29:47Z</time>
      </trkpt>
      <trkpt lat="36.7383340" lon="-3.7769320">
        <ele>-3.0</ele>
        <time>2022-01-08T15:29:48Z</time>
      </trkpt>
      <trkpt lat="36.7383710" lon="-3.7769400">
        <ele>-3.0</ele>
        <time>2022-01-08T15:29:49Z</time>
      </trkpt>
      <trkpt lat="36.7383710" lon="-3.7769400">
        <ele>-3.0</ele>
        <time>2022-01-08T15:29:50Z</time>
      </trkpt>
      <trkpt lat="36.7383970" lon="-3.7769590">
        <ele>-3.0</ele>
        <time>2022-01-08T15:29:51Z</time>
      </trkpt>
      <trkpt lat="36.7384230" lon="-3.7769770">
        <ele>-3.0</ele>
        <time>2022-01-08T15:29:52Z</time>
      </trkpt>
      <trkpt lat="36.7384500" lon="-3.7769960">
        <ele>-3.0</ele>
        <time>2022-01-08T15:29:53Z</time>
      </trkpt>
      <trkpt lat="36.7384650" lon="-3.7770260">
        <ele>-3.0</ele>
        <time>2022-01-08T15:29:54Z</time>
      </trkpt>
      <trkpt lat="36.7384800" lon="-3.7770570">
        <ele>-3.0</ele>
        <time>2022-01-08T15:29:55Z</time>
      </trkpt>
      <trkpt lat="36.7384950" lon="-3.7770870">
        <ele>-3.0</ele>
        <time>2022-01-08T15:29:56Z</time>
      </trkpt>
      <trkpt lat="36.7385100" lon="-3.7771170">
        <ele>-3.0</ele>
        <time>2022-01-08T15:29:57Z</time>
      </trkpt>
      <trkpt lat="36.7385420" lon="-3.7771350">
        <ele>-2.0</ele>
        <time>2022-01-08T15:29:58Z</time>
      </trkpt>
      <trkpt lat="36.7385750" lon="-3.7771540">
        <ele>-1.0</ele>
        <time>2022-01-08T15:29:59Z</time>
      </trkpt>
      <trkpt lat="36.7386070" lon="-3.7771720">
        <ele>-1.0</ele>
        <time>2022-01-08T15:30:00Z</time>
      </trkpt>
      <trkpt lat="36.7386390" lon="-3.7771900">
        <ele>-1.0</ele>
        <time>2022-01-08T15:30:01Z</time>
      </trkpt>
      <trkpt lat="36.7386670" lon="-3.7771980">
        <ele>-1.0</ele>
        <time>2022-01-08T15:30:02Z</time>
      </trkpt>
      <trkpt lat="36.7386950" lon="-3.7772080">
        <ele>-1.0</ele>
        <time>2022-01-08T15:30:03Z</time>
      </trkpt>
      <trkpt lat="36.7387310" lon="-3.7772050">
        <ele>-1.0</ele>
        <time>2022-01-08T15:30:04Z</time>
      </trkpt>
      <trkpt lat="36.7387310" lon="-3.7772050">
        <ele>-1.0</ele>
        <time>2022-01-08T15:30:05Z</time>
      </trkpt>
      <trkpt lat="36.7388190" lon="-3.7771750">
        <ele>0.0</ele>
        <time>2022-01-08T15:30:06Z</time>
      </trkpt>
      <trkpt lat="36.7388340" lon="-3.7771660">
        <ele>0.0</ele>
        <time>2022-01-08T15:30:07Z</time>
      </trkpt>
      <trkpt lat="36.7388630" lon="-3.7771520">
        <ele>0.0</ele>
        <time>2022-01-08T15:30:08Z</time>
      </trkpt>
      <trkpt lat="36.7388890" lon="-3.7771400">
        <ele>1.0</ele>
        <time>2022-01-08T15:30:09Z</time>
      </trkpt>
      <trkpt lat="36.7388890" lon="-3.7771400">
        <ele>1.0</ele>
        <time>2022-01-08T15:30:10Z</time>
      </trkpt>
      <trkpt lat="36.7389200" lon="-3.7771220">
        <ele>1.0</ele>
        <time>2022-01-08T15:30:11Z</time>
      </trkpt>
      <trkpt lat="36.7389520" lon="-3.7771040">
        <ele>1.0</ele>
        <time>2022-01-08T15:30:12Z</time>
      </trkpt>
      <trkpt lat="36.7389830" lon="-3.7770860">
        <ele>1.0</ele>
        <time>2022-01-08T15:30:13Z</time>
      </trkpt>
      <trkpt lat="36.7390040" lon="-3.7770660">
        <ele>1.0</ele>
        <time>2022-01-08T15:30:14Z</time>
      </trkpt>
      <trkpt lat="36.7390240" lon="-3.7770450">
        <ele>1.0</ele>
        <time>2022-01-08T15:30:15Z</time>
      </trkpt>
      <trkpt lat="36.7390450" lon="-3.7770250">
        <ele>1.0</ele>
        <time>2022-01-08T15:30:16Z</time>
      </trkpt>
      <trkpt lat="36.7390660" lon="-3.7770040">
        <ele>1.0</ele>
        <time>2022-01-08T15:30:17Z</time>
      </trkpt>
      <trkpt lat="36.7390830" lon="-3.7769850">
        <ele>1.0</ele>
        <time>2022-01-08T15:30:18Z</time>
      </trkpt>
      <trkpt lat="36.7390990" lon="-3.7769650">
        <ele>1.0</ele>
        <time>2022-01-08T15:30:19Z</time>
      </trkpt>
      <trkpt lat="36.7391160" lon="-3.7769450">
        <ele>1.0</ele>
        <time>2022-01-08T15:30:20Z</time>
      </trkpt>
      <trkpt lat="36.7391330" lon="-3.7769250">
        <ele>1.0</ele>
        <time>2022-01-08T15:30:21Z</time>
      </trkpt>
      <trkpt lat="36.7391490" lon="-3.7769090">
        <ele>2.0</ele>
        <time>2022-01-08T15:30:22Z</time>
      </trkpt>
      <trkpt lat="36.7391650" lon="-3.7768930">
        <ele>2.0</ele>
        <time>2022-01-08T15:30:23Z</time>
      </trkpt>
      <trkpt lat="36.7391810" lon="-3.7768770">
        <ele>2.0</ele>
        <time>2022-01-08T15:30:24Z</time>
      </trkpt>
      <trkpt lat="36.7391970" lon="-3.7768610">
        <ele>3.0</ele>
        <time>2022-01-08T15:30:25Z</time>
      </trkpt>
      <trkpt lat="36.7392130" lon="-3.7768440">
        <ele>3.0</ele>
        <time>2022-01-08T15:30:26Z</time>
      </trkpt>
      <trkpt lat="36.7392360" lon="-3.7768320">
        <ele>3.0</ele>
        <time>2022-01-08T15:30:27Z</time>
      </trkpt>
      <trkpt lat="36.7392580" lon="-3.7768200">
        <ele>2.0</ele>
        <time>2022-01-08T15:30:28Z</time>
      </trkpt>
      <trkpt lat="36.7392810" lon="-3.7768080">
        <ele>3.0</ele>
        <time>2022-01-08T15:30:29Z</time>
      </trkpt>
      <trkpt lat="36.7393040" lon="-3.7767950">
        <ele>4.0</ele>
        <time>2022-01-08T15:30:30Z</time>
      </trkpt>
      <trkpt lat="36.7393200" lon="-3.7767990">
        <ele>4.0</ele>
        <time>2022-01-08T15:30:31Z</time>
      </trkpt>
      <trkpt lat="36.7393350" lon="-3.7768020">
        <ele>4.0</ele>
        <time>2022-01-08T15:30:32Z</time>
      </trkpt>
      <trkpt lat="36.7393500" lon="-3.7768050">
        <ele>4.0</ele>
        <time>2022-01-08T15:30:33Z</time>
      </trkpt>
      <trkpt lat="36.7393660" lon="-3.7768080">
        <ele>4.0</ele>
        <time>2022-01-08T15:30:34Z</time>
      </trkpt>
      <trkpt lat="36.7393810" lon="-3.7768110">
        <ele>4.0</ele>
        <time>2022-01-08T15:30:35Z</time>
      </trkpt>
      <trkpt lat="36.7393970" lon="-3.7768140">
        <ele>4.0</ele>
        <time>2022-01-08T15:30:36Z</time>
      </trkpt>
      <trkpt lat="36.7394130" lon="-3.7768040">
        <ele>4.0</ele>
        <time>2022-01-08T15:30:37Z</time>
      </trkpt>
      <trkpt lat="36.7394300" lon="-3.7767940">
        <ele>4.0</ele>
        <time>2022-01-08T15:30:38Z</time>
      </trkpt>
      <trkpt lat="36.7394460" lon="-3.7767830">
        <ele>4.0</ele>
        <time>2022-01-08T15:30:39Z</time>
      </trkpt>
      <trkpt lat="36.7394630" lon="-3.7767730">
        <ele>5.0</ele>
        <time>2022-01-08T15:30:40Z</time>
      </trkpt>
      <trkpt lat="36.7394790" lon="-3.7767620">
        <ele>5.0</ele>
        <time>2022-01-08T15:30:41Z</time>
      </trkpt>
      <trkpt lat="36.7394880" lon="-3.7767480">
        <ele>5.0</ele>
        <time>2022-01-08T15:30:42Z</time>
      </trkpt>
      <trkpt lat="36.7394980" lon="-3.7767340">
        <ele>5.0</ele>
        <time>2022-01-08T15:30:43Z</time>
      </trkpt>
      <trkpt lat="36.7395070" lon="-3.7767200">
        <ele>5.0</ele>
        <time>2022-01-08T15:30:44Z</time>
      </trkpt>
      <trkpt lat="36.7395160" lon="-3.7767050">
        <ele>5.0</ele>
        <time>2022-01-08T15:30:45Z</time>
      </trkpt>
      <trkpt lat="36.7395380" lon="-3.7766750">
        <ele>5.0</ele>
        <time>2022-01-08T15:30:46Z</time>
      </trkpt>
      <trkpt lat="36.7395380" lon="-3.7766750">
        <ele>5.0</ele>
        <time>2022-01-08T15:30:47Z</time>
      </trkpt>
      <trkpt lat="36.7395530" lon="-3.7766430">
        <ele>5.0</ele>
        <time>2022-01-08T15:30:48Z</time>
      </trkpt>
      <trkpt lat="36.7395530" lon="-3.7766430">
        <ele>5.0</ele>
        <time>2022-01-08T15:30:49Z</time>
      </trkpt>
      <trkpt lat="36.7395620" lon="-3.7766180">
        <ele>5.0</ele>
        <time>2022-01-08T15:30:50Z</time>
      </trkpt>
      <trkpt lat="36.7395620" lon="-3.7766180">
        <ele>6.0</ele>
        <time>2022-01-08T15:30:51Z</time>
      </trkpt>
      <trkpt lat="36.7395620" lon="-3.7766180">
        <ele>6.0</ele>
        <time>2022-01-08T15:30:52Z</time>
      </trkpt>
      <trkpt lat="36.7395790" lon="-3.7765890">
        <ele>6.0</ele>
        <time>2022-01-08T15:30:53Z</time>
      </trkpt>
      <trkpt lat="36.7395790" lon="-3.7765890">
        <ele>7.0</ele>
        <time>2022-01-08T15:30:54Z</time>
      </trkpt>
      <trkpt lat="36.7395950" lon="-3.7765550">
        <ele>7.0</ele>
        <time>2022-01-08T15:30:55Z</time>
      </trkpt>
      <trkpt lat="36.7396020" lon="-3.7765340">
        <ele>7.0</ele>
        <time>2022-01-08T15:30:56Z</time>
      </trkpt>
      <trkpt lat="36.7396020" lon="-3.7765340">
        <ele>7.0</ele>
        <time>2022-01-08T15:30:57Z</time>
      </trkpt>
      <trkpt lat="36.7396170" lon="-3.7765040">
        <ele>7.0</ele>
        <time>2022-01-08T15:30:58Z</time>
      </trkpt>
      <trkpt lat="36.7396170" lon="-3.7765040">
        <ele>7.0</ele>
        <time>2022-01-08T15:30:59Z</time>
      </trkpt>
      <trkpt lat="36.7396310" lon="-3.7764920">
        <ele>8.0</ele>
        <time>2022-01-08T15:31:00Z</time>
      </trkpt>
      <trkpt lat="36.7396440" lon="-3.7764790">
        <ele>8.0</ele>
        <time>2022-01-08T15:31:01Z</time>
      </trkpt>
      <trkpt lat="36.7396570" lon="-3.7764670">
        <ele>8.0</ele>
        <time>2022-01-08T15:31:02Z</time>
      </trkpt>
      <trkpt lat="36.7396700" lon="-3.7764540">
        <ele>9.0</ele>
        <time>2022-01-08T15:31:03Z</time>
      </trkpt>
      <trkpt lat="36.7396830" lon="-3.7764420">
        <ele>9.0</ele>
        <time>2022-01-08T15:31:04Z</time>
      </trkpt>
      <trkpt lat="36.7396970" lon="-3.7764290">
        <ele>9.0</ele>
        <time>2022-01-08T15:31:05Z</time>
      </trkpt>
      <trkpt lat="36.7397110" lon="-3.7764210">
        <ele>8.0</ele>
        <time>2022-01-08T15:31:06Z</time>
      </trkpt>
      <trkpt lat="36.7397260" lon="-3.7764140">
        <ele>9.0</ele>
        <time>2022-01-08T15:31:07Z</time>
      </trkpt>
      <trkpt lat="36.7397410" lon="-3.7764060">
        <ele>10.0</ele>
        <time>2022-01-08T15:31:08Z</time>
      </trkpt>
      <trkpt lat="36.7397550" lon="-3.7763980">
        <ele>10.0</ele>
        <time>2022-01-08T15:31:09Z</time>
      </trkpt>
      <trkpt lat="36.7397700" lon="-3.7763910">
        <ele>10.0</ele>
        <time>2022-01-08T15:31:10Z</time>
      </trkpt>
      <trkpt lat="36.7397850" lon="-3.7763830">
        <ele>10.0</ele>
        <time>2022-01-08T15:31:11Z</time>
      </trkpt>
      <trkpt lat="36.7397990" lon="-3.7763750">
        <ele>10.0</ele>
        <time>2022-01-08T15:31:12Z</time>
      </trkpt>
      <trkpt lat="36.7397990" lon="-3.7763750">
        <ele>10.0</ele>
        <time>2022-01-08T15:31:13Z</time>
      </trkpt>
      <trkpt lat="36.7398280" lon="-3.7763750">
        <ele>11.0</ele>
        <time>2022-01-08T15:31:14Z</time>
      </trkpt>
      <trkpt lat="36.7398280" lon="-3.7763750">
        <ele>11.0</ele>
        <time>2022-01-08T15:31:15Z</time>
      </trkpt>
      <trkpt lat="36.7398280" lon="-3.7763750">
        <ele>11.0</ele>
        <time>2022-01-08T15:31:16Z</time>
      </trkpt>
      <trkpt lat="36.7398520" lon="-3.7763700">
        <ele>12.0</ele>
        <time>2022-01-08T15:31:17Z</time>
      </trkpt>
      <trkpt lat="36.7398520" lon="-3.7763700">
        <ele>12.0</ele>
        <time>2022-01-08T15:31:18Z</time>
      </trkpt>
      <trkpt lat="36.7398700" lon="-3.7763750">
        <ele>12.0</ele>
        <time>2022-01-08T15:31:19Z</time>
      </trkpt>
      <trkpt lat="36.7398700" lon="-3.7763750">
        <ele>12.0</ele>
        <time>2022-01-08T15:31:20Z</time>
      </trkpt>
      <trkpt lat="36.7398870" lon="-3.7763800">
        <ele>13.0</ele>
        <time>2022-01-08T15:31:21Z</time>
      </trkpt>
      <trkpt lat="36.7399040" lon="-3.7763850">
        <ele>13.0</ele>
        <time>2022-01-08T15:31:22Z</time>
      </trkpt>
      <trkpt lat="36.7399200" lon="-3.7763890">
        <ele>13.0</ele>
        <time>2022-01-08T15:31:23Z</time>
      </trkpt>
      <trkpt lat="36.7399370" lon="-3.7763940">
        <ele>14.0</ele>
        <time>2022-01-08T15:31:24Z</time>
      </trkpt>
      <trkpt lat="36.7399540" lon="-3.7763990">
        <ele>14.0</ele>
        <time>2022-01-08T15:31:25Z</time>
      </trkpt>
      <trkpt lat="36.7399710" lon="-3.7764030">
        <ele>14.0</ele>
        <time>2022-01-08T15:31:26Z</time>
      </trkpt>
      <trkpt lat="36.7399850" lon="-3.7764010">
        <ele>14.0</ele>
        <time>2022-01-08T15:31:27Z</time>
      </trkpt>
      <trkpt lat="36.7399990" lon="-3.7764000">
        <ele>14.0</ele>
        <time>2022-01-08T15:31:28Z</time>
      </trkpt>
      <trkpt lat="36.7400130" lon="-3.7763980">
        <ele>15.0</ele>
        <time>2022-01-08T15:31:29Z</time>
      </trkpt>
      <trkpt lat="36.7400280" lon="-3.7763960">
        <ele>15.0</ele>
        <time>2022-01-08T15:31:30Z</time>
      </trkpt>
      <trkpt lat="36.7400420" lon="-3.7763950">
        <ele>16.0</ele>
        <time>2022-01-08T15:31:31Z</time>
      </trkpt>
      <trkpt lat="36.7400560" lon="-3.7763930">
        <ele>16.0</ele>
        <time>2022-01-08T15:31:32Z</time>
      </trkpt>
      <trkpt lat="36.7400710" lon="-3.7763910">
        <ele>16.0</ele>
        <time>2022-01-08T15:31:33Z</time>
      </trkpt>
      <trkpt lat="36.7400830" lon="-3.7763850">
        <ele>16.0</ele>
        <time>2022-01-08T15:31:34Z</time>
      </trkpt>
      <trkpt lat="36.7400950" lon="-3.7763790">
        <ele>16.0</ele>
        <time>2022-01-08T15:31:35Z</time>
      </trkpt>
      <trkpt lat="36.7401080" lon="-3.7763730">
        <ele>16.0</ele>
        <time>2022-01-08T15:31:36Z</time>
      </trkpt>
      <trkpt lat="36.7401200" lon="-3.7763670">
        <ele>17.0</ele>
        <time>2022-01-08T15:31:37Z</time>
      </trkpt>
      <trkpt lat="36.7401330" lon="-3.7763600">
        <ele>18.0</ele>
        <time>2022-01-08T15:31:38Z</time>
      </trkpt>
      <trkpt lat="36.7401450" lon="-3.7763540">
        <ele>18.0</ele>
        <time>2022-01-08T15:31:39Z</time>
      </trkpt>
      <trkpt lat="36.7401580" lon="-3.7763480">
        <ele>18.0</ele>
        <time>2022-01-08T15:31:40Z</time>
      </trkpt>
      <trkpt lat="36.7401710" lon="-3.7763410">
        <ele>18.0</ele>
        <time>2022-01-08T15:31:41Z</time>
      </trkpt>
      <trkpt lat="36.7401840" lon="-3.7763340">
        <ele>18.0</ele>
        <time>2022-01-08T15:31:42Z</time>
      </trkpt>
      <trkpt lat="36.7401980" lon="-3.7763280">
        <ele>18.0</ele>
        <time>2022-01-08T15:31:43Z</time>
      </trkpt>
      <trkpt lat="36.7402110" lon="-3.7763210">
        <ele>18.0</ele>
        <time>2022-01-08T15:31:44Z</time>
      </trkpt>
      <trkpt lat="36.7402250" lon="-3.7763140">
        <ele>18.0</ele>
        <time>2022-01-08T15:31:45Z</time>
      </trkpt>
      <trkpt lat="36.7402380" lon="-3.7763070">
        <ele>18.0</ele>
        <time>2022-01-08T15:31:46Z</time>
      </trkpt>
      <trkpt lat="36.7402520" lon="-3.7763000">
        <ele>18.0</ele>
        <time>2022-01-08T15:31:47Z</time>
      </trkpt>
      <trkpt lat="36.7402640" lon="-3.7762980">
        <ele>19.0</ele>
        <time>2022-01-08T15:31:48Z</time>
      </trkpt>
      <trkpt lat="36.7402760" lon="-3.7762970">
        <ele>19.0</ele>
        <time>2022-01-08T15:31:49Z</time>
      </trkpt>
      <trkpt lat="36.7402880" lon="-3.7762950">
        <ele>19.0</ele>
        <time>2022-01-08T15:31:50Z</time>
      </trkpt>
      <trkpt lat="36.7403000" lon="-3.7762930">
        <ele>19.0</ele>
        <time>2022-01-08T15:31:51Z</time>
      </trkpt>
      <trkpt lat="36.7403120" lon="-3.7762910">
        <ele>19.0</ele>
        <time>2022-01-08T15:31:52Z</time>
      </trkpt>
      <trkpt lat="36.7403240" lon="-3.7762900">
        <ele>19.0</ele>
        <time>2022-01-08T15:31:53Z</time>
      </trkpt>
      <trkpt lat="36.7403360" lon="-3.7762880">
        <ele>20.0</ele>
        <time>2022-01-08T15:31:54Z</time>
      </trkpt>
      <trkpt lat="36.7403480" lon="-3.7762860">
        <ele>20.0</ele>
        <time>2022-01-08T15:31:55Z</time>
      </trkpt>
      <trkpt lat="36.7403700" lon="-3.7762920">
        <ele>20.0</ele>
        <time>2022-01-08T15:31:56Z</time>
      </trkpt>
      <trkpt lat="36.7403910" lon="-3.7762990">
        <ele>21.0</ele>
        <time>2022-01-08T15:31:57Z</time>
      </trkpt>
      <trkpt lat="36.7404120" lon="-3.7763050">
        <ele>21.0</ele>
        <time>2022-01-08T15:31:58Z</time>
      </trkpt>
      <trkpt lat="36.7404330" lon="-3.7763110">
        <ele>21.0</ele>
        <time>2022-01-08T15:31:59Z</time>
      </trkpt>
      <trkpt lat="36.7404540" lon="-3.7763180">
        <ele>21.0</ele>
        <time>2022-01-08T15:32:00Z</time>
      </trkpt>
      <trkpt lat="36.7404690" lon="-3.7763130">
        <ele>21.0</ele>
        <time>2022-01-08T15:32:01Z</time>
      </trkpt>
      <trkpt lat="36.7404850" lon="-3.7763080">
        <ele>21.0</ele>
        <time>2022-01-08T15:32:02Z</time>
      </trkpt>
      <trkpt lat="36.7405000" lon="-3.7763030">
        <ele>22.0</ele>
        <time>2022-01-08T15:32:03Z</time>
      </trkpt>
      <trkpt lat="36.7405150" lon="-3.7762980">
        <ele>22.0</ele>
        <time>2022-01-08T15:32:04Z</time>
      </trkpt>
      <trkpt lat="36.7405300" lon="-3.7762940">
        <ele>22.0</ele>
        <time>2022-01-08T15:32:05Z</time>
      </trkpt>
      <trkpt lat="36.7405450" lon="-3.7762890">
        <ele>22.0</ele>
        <time>2022-01-08T15:32:06Z</time>
      </trkpt>
      <trkpt lat="36.7405590" lon="-3.7762860">
        <ele>22.0</ele>
        <time>2022-01-08T15:32:07Z</time>
      </trkpt>
      <trkpt lat="36.7405730" lon="-3.7762830">
        <ele>22.0</ele>
        <time>2022-01-08T15:32:08Z</time>
      </trkpt>
      <trkpt lat="36.7405870" lon="-3.7762800">
        <ele>22.0</ele>
        <time>2022-01-08T15:32:09Z</time>
      </trkpt>
      <trkpt lat="36.7406010" lon="-3.7762770">
        <ele>22.0</ele>
        <time>2022-01-08T15:32:10Z</time>
      </trkpt>
      <trkpt lat="36.7406150" lon="-3.7762740">
        <ele>22.0</ele>
        <time>2022-01-08T15:32:11Z</time>
      </trkpt>
      <trkpt lat="36.7406290" lon="-3.7762710">
        <ele>22.0</ele>
        <time>2022-01-08T15:32:12Z</time>
      </trkpt>
      <trkpt lat="36.7406430" lon="-3.7762680">
        <ele>22.0</ele>
        <time>2022-01-08T15:32:13Z</time>
      </trkpt>
      <trkpt lat="36.7406540" lon="-3.7762840">
        <ele>22.0</ele>
        <time>2022-01-08T15:32:14Z</time>
      </trkpt>
      <trkpt lat="36.7406640" lon="-3.7763000">
        <ele>22.0</ele>
        <time>2022-01-08T15:32:15Z</time>
      </trkpt>
      <trkpt lat="36.7406750" lon="-3.7763160">
        <ele>22.0</ele>
        <time>2022-01-08T15:32:16Z</time>
      </trkpt>
      <trkpt lat="36.7406850" lon="-3.7763320">
        <ele>22.0</ele>
        <time>2022-01-08T15:32:17Z</time>
      </trkpt>
      <trkpt lat="36.7406960" lon="-3.7763490">
        <ele>22.0</ele>
        <time>2022-01-08T15:32:18Z</time>
      </trkpt>
      <trkpt lat="36.7407070" lon="-3.7763650">
        <ele>22.0</ele>
        <time>2022-01-08T15:32:19Z</time>
      </trkpt>
      <trkpt lat="36.7407170" lon="-3.7763810">
        <ele>22.0</ele>
        <time>2022-01-08T15:32:20Z</time>
      </trkpt>
      <trkpt lat="36.7407200" lon="-3.7764090">
        <ele>22.0</ele>
        <time>2022-01-08T15:32:21Z</time>
      </trkpt>
      <trkpt lat="36.7407240" lon="-3.7764360">
        <ele>22.0</ele>
        <time>2022-01-08T15:32:22Z</time>
      </trkpt>
      <trkpt lat="36.7407270" lon="-3.7764640">
        <ele>22.0</ele>
        <time>2022-01-08T15:32:23Z</time>
      </trkpt>
      <trkpt lat="36.7407300" lon="-3.7764920">
        <ele>22.0</ele>
        <time>2022-01-08T15:32:24Z</time>
      </trkpt>
      <trkpt lat="36.7407330" lon="-3.7765130">
        <ele>22.0</ele>
        <time>2022-01-08T15:32:25Z</time>
      </trkpt>
      <trkpt lat="36.7407370" lon="-3.7765330">
        <ele>22.0</ele>
        <time>2022-01-08T15:32:26Z</time>
      </trkpt>
      <trkpt lat="36.7407400" lon="-3.7765540">
        <ele>22.0</ele>
        <time>2022-01-08T15:32:27Z</time>
      </trkpt>
      <trkpt lat="36.7407430" lon="-3.7765750">
        <ele>22.0</ele>
        <time>2022-01-08T15:32:28Z</time>
      </trkpt>
      <trkpt lat="36.7407460" lon="-3.7765960">
        <ele>22.0</ele>
        <time>2022-01-08T15:32:29Z</time>
      </trkpt>
      <trkpt lat="36.7407490" lon="-3.7766170">
        <ele>22.0</ele>
        <time>2022-01-08T15:32:30Z</time>
      </trkpt>
      <trkpt lat="36.7407540" lon="-3.7766430">
        <ele>22.0</ele>
        <time>2022-01-08T15:32:31Z</time>
      </trkpt>
      <trkpt lat="36.7407590" lon="-3.7766680">
        <ele>22.0</ele>
        <time>2022-01-08T15:32:32Z</time>
      </trkpt>
      <trkpt lat="36.7407640" lon="-3.7766940">
        <ele>22.0</ele>
        <time>2022-01-08T15:32:33Z</time>
      </trkpt>
      <trkpt lat="36.7407680" lon="-3.7767200">
        <ele>22.0</ele>
        <time>2022-01-08T15:32:34Z</time>
      </trkpt>
      <trkpt lat="36.7407730" lon="-3.7767460">
        <ele>22.0</ele>
        <time>2022-01-08T15:32:35Z</time>
      </trkpt>
      <trkpt lat="36.7407790" lon="-3.7767630">
        <ele>22.0</ele>
        <time>2022-01-08T15:32:36Z</time>
      </trkpt>
      <trkpt lat="36.7407840" lon="-3.7767810">
        <ele>22.0</ele>
        <time>2022-01-08T15:32:37Z</time>
      </trkpt>
      <trkpt lat="36.7407890" lon="-3.7767980">
        <ele>22.0</ele>
        <time>2022-01-08T15:32:38Z</time>
      </trkpt>
      <trkpt lat="36.7407950" lon="-3.7768150">
        <ele>22.0</ele>
        <time>2022-01-08T15:32:39Z</time>
      </trkpt>
      <trkpt lat="36.7408440" lon="-3.7769130">
        <ele>22.0</ele>
        <time>2022-01-08T15:32:40Z</time>
      </trkpt>
      <trkpt lat="36.7408720" lon="-3.7769420">
        <ele>22.0</ele>
        <time>2022-01-08T15:32:41Z</time>
      </trkpt>
      <trkpt lat="36.7409000" lon="-3.7769710">
        <ele>22.0</ele>
        <time>2022-01-08T15:32:42Z</time>
      </trkpt>
      <trkpt lat="36.7409260" lon="-3.7769880">
        <ele>22.0</ele>
        <time>2022-01-08T15:32:43Z</time>
      </trkpt>
      <trkpt lat="36.7409520" lon="-3.7770040">
        <ele>22.0</ele>
        <time>2022-01-08T15:32:44Z</time>
      </trkpt>
      <trkpt lat="36.7409780" lon="-3.7770210">
        <ele>22.0</ele>
        <time>2022-01-08T15:32:45Z</time>
      </trkpt>
      <trkpt lat="36.7410040" lon="-3.7770380">
        <ele>22.0</ele>
        <time>2022-01-08T15:32:46Z</time>
      </trkpt>
      <trkpt lat="36.7410340" lon="-3.7770470">
        <ele>22.0</ele>
        <time>2022-01-08T15:32:47Z</time>
      </trkpt>
      <trkpt lat="36.7410640" lon="-3.7770570">
        <ele>22.0</ele>
        <time>2022-01-08T15:32:48Z</time>
      </trkpt>
      <trkpt lat="36.7410930" lon="-3.7770660">
        <ele>22.0</ele>
        <time>2022-01-08T15:32:49Z</time>
      </trkpt>
      <trkpt lat="36.7411230" lon="-3.7770760">
        <ele>21.0</ele>
        <time>2022-01-08T15:32:50Z</time>
      </trkpt>
      <trkpt lat="36.7411480" lon="-3.7771020">
        <ele>21.0</ele>
        <time>2022-01-08T15:32:51Z</time>
      </trkpt>
      <trkpt lat="36.7411730" lon="-3.7771280">
        <ele>21.0</ele>
        <time>2022-01-08T15:32:52Z</time>
      </trkpt>
      <trkpt lat="36.7411980" lon="-3.7771540">
        <ele>21.0</ele>
        <time>2022-01-08T15:32:53Z</time>
      </trkpt>
      <trkpt lat="36.7412120" lon="-3.7771700">
        <ele>21.0</ele>
        <time>2022-01-08T15:32:54Z</time>
      </trkpt>
      <trkpt lat="36.7412270" lon="-3.7771870">
        <ele>21.0</ele>
        <time>2022-01-08T15:32:55Z</time>
      </trkpt>
      <trkpt lat="36.7412410" lon="-3.7772040">
        <ele>21.0</ele>
        <time>2022-01-08T15:32:56Z</time>
      </trkpt>
      <trkpt lat="36.7412550" lon="-3.7772200">
        <ele>21.0</ele>
        <time>2022-01-08T15:32:57Z</time>
      </trkpt>
      <trkpt lat="36.7412690" lon="-3.7772370">
        <ele>21.0</ele>
        <time>2022-01-08T15:32:58Z</time>
      </trkpt>
      <trkpt lat="36.7412760" lon="-3.7772540">
        <ele>20.0</ele>
        <time>2022-01-08T15:32:59Z</time>
      </trkpt>
      <trkpt lat="36.7412830" lon="-3.7772700">
        <ele>19.0</ele>
        <time>2022-01-08T15:33:00Z</time>
      </trkpt>
      <trkpt lat="36.7412910" lon="-3.7772870">
        <ele>19.0</ele>
        <time>2022-01-08T15:33:01Z</time>
      </trkpt>
      <trkpt lat="36.7412980" lon="-3.7773040">
        <ele>19.0</ele>
        <time>2022-01-08T15:33:02Z</time>
      </trkpt>
      <trkpt lat="36.7413050" lon="-3.7773210">
        <ele>19.0</ele>
        <time>2022-01-08T15:33:03Z</time>
      </trkpt>
      <trkpt lat="36.7413120" lon="-3.7773380">
        <ele>19.0</ele>
        <time>2022-01-08T15:33:04Z</time>
      </trkpt>
      <trkpt lat="36.7413210" lon="-3.7773490">
        <ele>19.0</ele>
        <time>2022-01-08T15:33:05Z</time>
      </trkpt>
      <trkpt lat="36.7413300" lon="-3.7773610">
        <ele>19.0</ele>
        <time>2022-01-08T15:33:06Z</time>
      </trkpt>
      <trkpt lat="36.7413400" lon="-3.7773720">
        <ele>19.0</ele>
        <time>2022-01-08T15:33:07Z</time>
      </trkpt>
      <trkpt lat="36.7413490" lon="-3.7773840">
        <ele>19.0</ele>
        <time>2022-01-08T15:33:08Z</time>
      </trkpt>
      <trkpt lat="36.7413580" lon="-3.7773950">
        <ele>19.0</ele>
        <time>2022-01-08T15:33:09Z</time>
      </trkpt>
      <trkpt lat="36.7413680" lon="-3.7774070">
        <ele>19.0</ele>
        <time>2022-01-08T15:33:10Z</time>
      </trkpt>
      <trkpt lat="36.7413770" lon="-3.7774190">
        <ele>19.0</ele>
        <time>2022-01-08T15:33:11Z</time>
      </trkpt>
      <trkpt lat="36.7413930" lon="-3.7774220">
        <ele>19.0</ele>
        <time>2022-01-08T15:33:12Z</time>
      </trkpt>
      <trkpt lat="36.7414090" lon="-3.7774260">
        <ele>19.0</ele>
        <time>2022-01-08T15:33:13Z</time>
      </trkpt>
      <trkpt lat="36.7414250" lon="-3.7774290">
        <ele>19.0</ele>
        <time>2022-01-08T15:33:14Z</time>
      </trkpt>
      <trkpt lat="36.7414410" lon="-3.7774330">
        <ele>19.0</ele>
        <time>2022-01-08T15:33:15Z</time>
      </trkpt>
      <trkpt lat="36.7414570" lon="-3.7774360">
        <ele>19.0</ele>
        <time>2022-01-08T15:33:16Z</time>
      </trkpt>
      <trkpt lat="36.7414730" lon="-3.7774400">
        <ele>19.0</ele>
        <time>2022-01-08T15:33:17Z</time>
      </trkpt>
      <trkpt lat="36.7414890" lon="-3.7774380">
        <ele>19.0</ele>
        <time>2022-01-08T15:33:18Z</time>
      </trkpt>
      <trkpt lat="36.7415060" lon="-3.7774360">
        <ele>20.0</ele>
        <time>2022-01-08T15:33:19Z</time>
      </trkpt>
      <trkpt lat="36.7415220" lon="-3.7774340">
        <ele>20.0</ele>
        <time>2022-01-08T15:33:20Z</time>
      </trkpt>
      <trkpt lat="36.7415390" lon="-3.7774320">
        <ele>20.0</ele>
        <time>2022-01-08T15:33:21Z</time>
      </trkpt>
      <trkpt lat="36.7415550" lon="-3.7774300">
        <ele>20.0</ele>
        <time>2022-01-08T15:33:22Z</time>
      </trkpt>
      <trkpt lat="36.7415720" lon="-3.7774280">
        <ele>20.0</ele>
        <time>2022-01-08T15:33:23Z</time>
      </trkpt>
      <trkpt lat="36.7415910" lon="-3.7774250">
        <ele>20.0</ele>
        <time>2022-01-08T15:33:24Z</time>
      </trkpt>
      <trkpt lat="36.7416100" lon="-3.7774220">
        <ele>20.0</ele>
        <time>2022-01-08T15:33:25Z</time>
      </trkpt>
      <trkpt lat="36.7416290" lon="-3.7774200">
        <ele>20.0</ele>
        <time>2022-01-08T15:33:26Z</time>
      </trkpt>
      <trkpt lat="36.7416490" lon="-3.7774170">
        <ele>20.0</ele>
        <time>2022-01-08T15:33:27Z</time>
      </trkpt>
      <trkpt lat="36.7416680" lon="-3.7774150">
        <ele>20.0</ele>
        <time>2022-01-08T15:33:28Z</time>
      </trkpt>
      <trkpt lat="36.7416880" lon="-3.7774050">
        <ele>20.0</ele>
        <time>2022-01-08T15:33:29Z</time>
      </trkpt>
      <trkpt lat="36.7417090" lon="-3.7773950">
        <ele>20.0</ele>
        <time>2022-01-08T15:33:30Z</time>
      </trkpt>
      <trkpt lat="36.7417290" lon="-3.7773860">
        <ele>20.0</ele>
        <time>2022-01-08T15:33:31Z</time>
      </trkpt>
      <trkpt lat="36.7417490" lon="-3.7773760">
        <ele>20.0</ele>
        <time>2022-01-08T15:33:32Z</time>
      </trkpt>
      <trkpt lat="36.7417700" lon="-3.7773670">
        <ele>20.0</ele>
        <time>2022-01-08T15:33:33Z</time>
      </trkpt>
      <trkpt lat="36.7417830" lon="-3.7773600">
        <ele>20.0</ele>
        <time>2022-01-08T15:33:34Z</time>
      </trkpt>
      <trkpt lat="36.7417960" lon="-3.7773530">
        <ele>20.0</ele>
        <time>2022-01-08T15:33:35Z</time>
      </trkpt>
      <trkpt lat="36.7418080" lon="-3.7773470">
        <ele>20.0</ele>
        <time>2022-01-08T15:33:36Z</time>
      </trkpt>
      <trkpt lat="36.7418210" lon="-3.7773400">
        <ele>20.0</ele>
        <time>2022-01-08T15:33:37Z</time>
      </trkpt>
      <trkpt lat="36.7418340" lon="-3.7773340">
        <ele>20.0</ele>
        <time>2022-01-08T15:33:38Z</time>
      </trkpt>
      <trkpt lat="36.7418470" lon="-3.7773270">
        <ele>20.0</ele>
        <time>2022-01-08T15:33:39Z</time>
      </trkpt>
      <trkpt lat="36.7418600" lon="-3.7773210">
        <ele>20.0</ele>
        <time>2022-01-08T15:33:40Z</time>
      </trkpt>
      <trkpt lat="36.7418700" lon="-3.7773120">
        <ele>20.0</ele>
        <time>2022-01-08T15:33:41Z</time>
      </trkpt>
      <trkpt lat="36.7418810" lon="-3.7773040">
        <ele>20.0</ele>
        <time>2022-01-08T15:33:42Z</time>
      </trkpt>
      <trkpt lat="36.7418910" lon="-3.7772960">
        <ele>21.0</ele>
        <time>2022-01-08T15:33:43Z</time>
      </trkpt>
      <trkpt lat="36.7419020" lon="-3.7772880">
        <ele>21.0</ele>
        <time>2022-01-08T15:33:44Z</time>
      </trkpt>
      <trkpt lat="36.7419120" lon="-3.7772800">
        <ele>21.0</ele>
        <time>2022-01-08T15:33:45Z</time>
      </trkpt>
      <trkpt lat="36.7419230" lon="-3.7772720">
        <ele>21.0</ele>
        <time>2022-01-08T15:33:46Z</time>
      </trkpt>
      <trkpt lat="36.7419330" lon="-3.7772640">
        <ele>21.0</ele>
        <time>2022-01-08T15:33:47Z</time>
      </trkpt>
      <trkpt lat="36.7419440" lon="-3.7772560">
        <ele>21.0</ele>
        <time>2022-01-08T15:33:48Z</time>
      </trkpt>
      <trkpt lat="36.7419620" lon="-3.7772490">
        <ele>21.0</ele>
        <time>2022-01-08T15:33:49Z</time>
      </trkpt>
      <trkpt lat="36.7419810" lon="-3.7772430">
        <ele>22.0</ele>
        <time>2022-01-08T15:33:50Z</time>
      </trkpt>
      <trkpt lat="36.7420000" lon="-3.7772360">
        <ele>22.0</ele>
        <time>2022-01-08T15:33:51Z</time>
      </trkpt>
      <trkpt lat="36.7420180" lon="-3.7772300">
        <ele>22.0</ele>
        <time>2022-01-08T15:33:52Z</time>
      </trkpt>
      <trkpt lat="36.7420370" lon="-3.7772240">
        <ele>22.0</ele>
        <time>2022-01-08T15:33:53Z</time>
      </trkpt>
      <trkpt lat="36.7420530" lon="-3.7772240">
        <ele>22.0</ele>
        <time>2022-01-08T15:33:54Z</time>
      </trkpt>
      <trkpt lat="36.7420680" lon="-3.7772250">
        <ele>22.0</ele>
        <time>2022-01-08T15:33:55Z</time>
      </trkpt>
      <trkpt lat="36.7420840" lon="-3.7772260">
        <ele>22.0</ele>
        <time>2022-01-08T15:33:56Z</time>
      </trkpt>
      <trkpt lat="36.7421000" lon="-3.7772270">
        <ele>22.0</ele>
        <time>2022-01-08T15:33:57Z</time>
      </trkpt>
      <trkpt lat="36.7421160" lon="-3.7772270">
        <ele>22.0</ele>
        <time>2022-01-08T15:33:58Z</time>
      </trkpt>
      <trkpt lat="36.7421310" lon="-3.7772280">
        <ele>22.0</ele>
        <time>2022-01-08T15:33:59Z</time>
      </trkpt>
      <trkpt lat="36.7421430" lon="-3.7772360">
        <ele>22.0</ele>
        <time>2022-01-08T15:34:00Z</time>
      </trkpt>
      <trkpt lat="36.7421550" lon="-3.7772440">
        <ele>22.0</ele>
        <time>2022-01-08T15:34:01Z</time>
      </trkpt>
      <trkpt lat="36.7421660" lon="-3.7772520">
        <ele>22.0</ele>
        <time>2022-01-08T15:34:02Z</time>
      </trkpt>
      <trkpt lat="36.7421780" lon="-3.7772590">
        <ele>22.0</ele>
        <time>2022-01-08T15:34:03Z</time>
      </trkpt>
      <trkpt lat="36.7421900" lon="-3.7772670">
        <ele>22.0</ele>
        <time>2022-01-08T15:34:04Z</time>
      </trkpt>
      <trkpt lat="36.7422010" lon="-3.7772750">
        <ele>22.0</ele>
        <time>2022-01-08T15:34:05Z</time>
      </trkpt>
      <trkpt lat="36.7422130" lon="-3.7772830">
        <ele>22.0</ele>
        <time>2022-01-08T15:34:06Z</time>
      </trkpt>
      <trkpt lat="36.7422260" lon="-3.7772840">
        <ele>22.0</ele>
        <time>2022-01-08T15:34:07Z</time>
      </trkpt>
      <trkpt lat="36.7422400" lon="-3.7772860">
        <ele>23.0</ele>
        <time>2022-01-08T15:34:08Z</time>
      </trkpt>
      <trkpt lat="36.7422530" lon="-3.7772870">
        <ele>23.0</ele>
        <time>2022-01-08T15:34:09Z</time>
      </trkpt>
      <trkpt lat="36.7422660" lon="-3.7772890">
        <ele>22.0</ele>
        <time>2022-01-08T15:34:10Z</time>
      </trkpt>
      <trkpt lat="36.7422800" lon="-3.7772900">
        <ele>22.0</ele>
        <time>2022-01-08T15:34:11Z</time>
      </trkpt>
      <trkpt lat="36.7422930" lon="-3.7772920">
        <ele>22.0</ele>
        <time>2022-01-08T15:34:12Z</time>
      </trkpt>
      <trkpt lat="36.7423060" lon="-3.7772930">
        <ele>23.0</ele>
        <time>2022-01-08T15:34:13Z</time>
      </trkpt>
      <trkpt lat="36.7423260" lon="-3.7772900">
        <ele>23.0</ele>
        <time>2022-01-08T15:34:14Z</time>
      </trkpt>
      <trkpt lat="36.7423450" lon="-3.7772870">
        <ele>23.0</ele>
        <time>2022-01-08T15:34:15Z</time>
      </trkpt>
      <trkpt lat="36.7423640" lon="-3.7772850">
        <ele>23.0</ele>
        <time>2022-01-08T15:34:16Z</time>
      </trkpt>
      <trkpt lat="36.7423840" lon="-3.7772820">
        <ele>23.0</ele>
        <time>2022-01-08T15:34:17Z</time>
      </trkpt>
      <trkpt lat="36.7424030" lon="-3.7772790">
        <ele>23.0</ele>
        <time>2022-01-08T15:34:18Z</time>
      </trkpt>
      <trkpt lat="36.7424230" lon="-3.7772730">
        <ele>23.0</ele>
        <time>2022-01-08T15:34:19Z</time>
      </trkpt>
      <trkpt lat="36.7424420" lon="-3.7772680">
        <ele>23.0</ele>
        <time>2022-01-08T15:34:20Z</time>
      </trkpt>
      <trkpt lat="36.7424610" lon="-3.7772620">
        <ele>23.0</ele>
        <time>2022-01-08T15:34:21Z</time>
      </trkpt>
      <trkpt lat="36.7424810" lon="-3.7772570">
        <ele>23.0</ele>
        <time>2022-01-08T15:34:22Z</time>
      </trkpt>
      <trkpt lat="36.7425000" lon="-3.7772510">
        <ele>24.0</ele>
        <time>2022-01-08T15:34:23Z</time>
      </trkpt>
      <trkpt lat="36.7425230" lon="-3.7772520">
        <ele>24.0</ele>
        <time>2022-01-08T15:34:24Z</time>
      </trkpt>
      <trkpt lat="36.7425470" lon="-3.7772530">
        <ele>24.0</ele>
        <time>2022-01-08T15:34:25Z</time>
      </trkpt>
      <trkpt lat="36.7425700" lon="-3.7772540">
        <ele>24.0</ele>
        <time>2022-01-08T15:34:26Z</time>
      </trkpt>
      <trkpt lat="36.7425930" lon="-3.7772550">
        <ele>24.0</ele>
        <time>2022-01-08T15:34:27Z</time>
      </trkpt>
      <trkpt lat="36.7426160" lon="-3.7772610">
        <ele>24.0</ele>
        <time>2022-01-08T15:34:28Z</time>
      </trkpt>
      <trkpt lat="36.7426390" lon="-3.7772680">
        <ele>24.0</ele>
        <time>2022-01-08T15:34:29Z</time>
      </trkpt>
      <trkpt lat="36.7426610" lon="-3.7772750">
        <ele>24.0</ele>
        <time>2022-01-08T15:34:30Z</time>
      </trkpt>
      <trkpt lat="36.7426840" lon="-3.7772810">
        <ele>24.0</ele>
        <time>2022-01-08T15:34:31Z</time>
      </trkpt>
      <trkpt lat="36.7427100" lon="-3.7772840">
        <ele>24.0</ele>
        <time>2022-01-08T15:34:32Z</time>
      </trkpt>
      <trkpt lat="36.7427350" lon="-3.7772880">
        <ele>24.0</ele>
        <time>2022-01-08T15:34:33Z</time>
      </trkpt>
      <trkpt lat="36.7427610" lon="-3.7772910">
        <ele>25.0</ele>
        <time>2022-01-08T15:34:34Z</time>
      </trkpt>
      <trkpt lat="36.7427860" lon="-3.7772940">
        <ele>25.0</ele>
        <time>2022-01-08T15:34:35Z</time>
      </trkpt>
      <trkpt lat="36.7428100" lon="-3.7772980">
        <ele>25.0</ele>
        <time>2022-01-08T15:34:36Z</time>
      </trkpt>
      <trkpt lat="36.7428340" lon="-3.7773010">
        <ele>25.0</ele>
        <time>2022-01-08T15:34:37Z</time>
      </trkpt>
      <trkpt lat="36.7428580" lon="-3.7773050">
        <ele>25.0</ele>
        <time>2022-01-08T15:34:38Z</time>
      </trkpt>
      <trkpt lat="36.7428820" lon="-3.7773080">
        <ele>26.0</ele>
        <time>2022-01-08T15:34:39Z</time>
      </trkpt>
      <trkpt lat="36.7429050" lon="-3.7773100">
        <ele>26.0</ele>
        <time>2022-01-08T15:34:40Z</time>
      </trkpt>
      <trkpt lat="36.7429290" lon="-3.7773120">
        <ele>26.0</ele>
        <time>2022-01-08T15:34:41Z</time>
      </trkpt>
      <trkpt lat="36.7429520" lon="-3.7773140">
        <ele>26.0</ele>
        <time>2022-01-08T15:34:42Z</time>
      </trkpt>
      <trkpt lat="36.7429750" lon="-3.7773160">
        <ele>26.0</ele>
        <time>2022-01-08T15:34:43Z</time>
      </trkpt>
      <trkpt lat="36.7429930" lon="-3.7773250">
        <ele>26.0</ele>
        <time>2022-01-08T15:34:44Z</time>
      </trkpt>
      <trkpt lat="36.7430120" lon="-3.7773340">
        <ele>26.0</ele>
        <time>2022-01-08T15:34:45Z</time>
      </trkpt>
      <trkpt lat="36.7430300" lon="-3.7773420">
        <ele>26.0</ele>
        <time>2022-01-08T15:34:46Z</time>
      </trkpt>
      <trkpt lat="36.7430480" lon="-3.7773510">
        <ele>26.0</ele>
        <time>2022-01-08T15:34:47Z</time>
      </trkpt>
      <trkpt lat="36.7430660" lon="-3.7773600">
        <ele>27.0</ele>
        <time>2022-01-08T15:34:48Z</time>
      </trkpt>
      <trkpt lat="36.7430890" lon="-3.7773700">
        <ele>27.0</ele>
        <time>2022-01-08T15:34:49Z</time>
      </trkpt>
      <trkpt lat="36.7431110" lon="-3.7773800">
        <ele>27.0</ele>
        <time>2022-01-08T15:34:50Z</time>
      </trkpt>
      <trkpt lat="36.7431340" lon="-3.7773910">
        <ele>27.0</ele>
        <time>2022-01-08T15:34:51Z</time>
      </trkpt>
      <trkpt lat="36.7431560" lon="-3.7774010">
        <ele>27.0</ele>
        <time>2022-01-08T15:34:52Z</time>
      </trkpt>
      <trkpt lat="36.7431770" lon="-3.7774090">
        <ele>27.0</ele>
        <time>2022-01-08T15:34:53Z</time>
      </trkpt>
      <trkpt lat="36.7431980" lon="-3.7774170">
        <ele>27.0</ele>
        <time>2022-01-08T15:34:54Z</time>
      </trkpt>
      <trkpt lat="36.7432190" lon="-3.7774250">
        <ele>27.0</ele>
        <time>2022-01-08T15:34:55Z</time>
      </trkpt>
      <trkpt lat="36.7432400" lon="-3.7774330">
        <ele>27.0</ele>
        <time>2022-01-08T15:34:56Z</time>
      </trkpt>
      <trkpt lat="36.7432610" lon="-3.7774410">
        <ele>27.0</ele>
        <time>2022-01-08T15:34:57Z</time>
      </trkpt>
      <trkpt lat="36.7432860" lon="-3.7774370">
        <ele>27.0</ele>
        <time>2022-01-08T15:34:58Z</time>
      </trkpt>
      <trkpt lat="36.7433110" lon="-3.7774330">
        <ele>27.0</ele>
        <time>2022-01-08T15:34:59Z</time>
      </trkpt>
      <trkpt lat="36.7433360" lon="-3.7774290">
        <ele>27.0</ele>
        <time>2022-01-08T15:35:00Z</time>
      </trkpt>
      <trkpt lat="36.7433610" lon="-3.7774260">
        <ele>27.0</ele>
        <time>2022-01-08T15:35:01Z</time>
      </trkpt>
      <trkpt lat="36.7433780" lon="-3.7774230">
        <ele>27.0</ele>
        <time>2022-01-08T15:35:02Z</time>
      </trkpt>
      <trkpt lat="36.7433950" lon="-3.7774210">
        <ele>27.0</ele>
        <time>2022-01-08T15:35:03Z</time>
      </trkpt>
      <trkpt lat="36.7434110" lon="-3.7774190">
        <ele>27.0</ele>
        <time>2022-01-08T15:35:04Z</time>
      </trkpt>
      <trkpt lat="36.7434280" lon="-3.7774160">
        <ele>28.0</ele>
        <time>2022-01-08T15:35:05Z</time>
      </trkpt>
      <trkpt lat="36.7434450" lon="-3.7774140">
        <ele>28.0</ele>
        <time>2022-01-08T15:35:06Z</time>
      </trkpt>
      <trkpt lat="36.7434610" lon="-3.7774120">
        <ele>28.0</ele>
        <time>2022-01-08T15:35:07Z</time>
      </trkpt>
      <trkpt lat="36.7434750" lon="-3.7774140">
        <ele>28.0</ele>
        <time>2022-01-08T15:35:08Z</time>
      </trkpt>
      <trkpt lat="36.7434890" lon="-3.7774160">
        <ele>28.0</ele>
        <time>2022-01-08T15:35:09Z</time>
      </trkpt>
      <trkpt lat="36.7435030" lon="-3.7774180">
        <ele>28.0</ele>
        <time>2022-01-08T15:35:10Z</time>
      </trkpt>
      <trkpt lat="36.7435170" lon="-3.7774210">
        <ele>28.0</ele>
        <time>2022-01-08T15:35:11Z</time>
      </trkpt>
      <trkpt lat="36.7435310" lon="-3.7774230">
        <ele>28.0</ele>
        <time>2022-01-08T15:35:12Z</time>
      </trkpt>
      <trkpt lat="36.7435450" lon="-3.7774250">
        <ele>28.0</ele>
        <time>2022-01-08T15:35:13Z</time>
      </trkpt>
      <trkpt lat="36.7435580" lon="-3.7774270">
        <ele>29.0</ele>
        <time>2022-01-08T15:35:14Z</time>
      </trkpt>
      <trkpt lat="36.7435710" lon="-3.7774400">
        <ele>29.0</ele>
        <time>2022-01-08T15:35:15Z</time>
      </trkpt>
      <trkpt lat="36.7435830" lon="-3.7774530">
        <ele>29.0</ele>
        <time>2022-01-08T15:35:16Z</time>
      </trkpt>
      <trkpt lat="36.7435960" lon="-3.7774660">
        <ele>29.0</ele>
        <time>2022-01-08T15:35:17Z</time>
      </trkpt>
      <trkpt lat="36.7436080" lon="-3.7774790">
        <ele>30.0</ele>
        <time>2022-01-08T15:35:18Z</time>
      </trkpt>
      <trkpt lat="36.7436210" lon="-3.7774920">
        <ele>30.0</ele>
        <time>2022-01-08T15:35:19Z</time>
      </trkpt>
      <trkpt lat="36.7436330" lon="-3.7775040">
        <ele>31.0</ele>
        <time>2022-01-08T15:35:20Z</time>
      </trkpt>
      <trkpt lat="36.7436400" lon="-3.7775210">
        <ele>31.0</ele>
        <time>2022-01-08T15:35:21Z</time>
      </trkpt>
      <trkpt lat="36.7436470" lon="-3.7775370">
        <ele>31.0</ele>
        <time>2022-01-08T15:35:22Z</time>
      </trkpt>
      <trkpt lat="36.7436540" lon="-3.7775530">
        <ele>30.0</ele>
        <time>2022-01-08T15:35:23Z</time>
      </trkpt>
      <trkpt lat="36.7436610" lon="-3.7775700">
        <ele>31.0</ele>
        <time>2022-01-08T15:35:24Z</time>
      </trkpt>
      <trkpt lat="36.7436680" lon="-3.7775860">
        <ele>31.0</ele>
        <time>2022-01-08T15:35:25Z</time>
      </trkpt>
      <trkpt lat="36.7436750" lon="-3.7776020">
        <ele>31.0</ele>
        <time>2022-01-08T15:35:26Z</time>
      </trkpt>
      <trkpt lat="36.7436810" lon="-3.7776180">
        <ele>31.0</ele>
        <time>2022-01-08T15:35:27Z</time>
      </trkpt>
      <trkpt lat="36.7436920" lon="-3.7776330">
        <ele>31.0</ele>
        <time>2022-01-08T15:35:28Z</time>
      </trkpt>
      <trkpt lat="36.7437020" lon="-3.7776470">
        <ele>31.0</ele>
        <time>2022-01-08T15:35:29Z</time>
      </trkpt>
      <trkpt lat="36.7437120" lon="-3.7776610">
        <ele>31.0</ele>
        <time>2022-01-08T15:35:30Z</time>
      </trkpt>
      <trkpt lat="36.7437230" lon="-3.7776760">
        <ele>31.0</ele>
        <time>2022-01-08T15:35:31Z</time>
      </trkpt>
      <trkpt lat="36.7437330" lon="-3.7776900">
        <ele>31.0</ele>
        <time>2022-01-08T15:35:32Z</time>
      </trkpt>
      <trkpt lat="36.7437430" lon="-3.7777040">
        <ele>31.0</ele>
        <time>2022-01-08T15:35:33Z</time>
      </trkpt>
      <trkpt lat="36.7437540" lon="-3.7777110">
        <ele>31.0</ele>
        <time>2022-01-08T15:35:34Z</time>
      </trkpt>
      <trkpt lat="36.7437650" lon="-3.7777170">
        <ele>31.0</ele>
        <time>2022-01-08T15:35:35Z</time>
      </trkpt>
      <trkpt lat="36.7437750" lon="-3.7777230">
        <ele>31.0</ele>
        <time>2022-01-08T15:35:36Z</time>
      </trkpt>
      <trkpt lat="36.7437860" lon="-3.7777300">
        <ele>31.0</ele>
        <time>2022-01-08T15:35:37Z</time>
      </trkpt>
      <trkpt lat="36.7437970" lon="-3.7777360">
        <ele>31.0</ele>
        <time>2022-01-08T15:35:38Z</time>
      </trkpt>
      <trkpt lat="36.7438070" lon="-3.7777420">
        <ele>31.0</ele>
        <time>2022-01-08T15:35:39Z</time>
      </trkpt>
      <trkpt lat="36.7438180" lon="-3.7777480">
        <ele>31.0</ele>
        <time>2022-01-08T15:35:40Z</time>
      </trkpt>
      <trkpt lat="36.7438280" lon="-3.7777550">
        <ele>31.0</ele>
        <time>2022-01-08T15:35:41Z</time>
      </trkpt>
      <trkpt lat="36.7438450" lon="-3.7777620">
        <ele>31.0</ele>
        <time>2022-01-08T15:35:42Z</time>
      </trkpt>
      <trkpt lat="36.7438610" lon="-3.7777690">
        <ele>32.0</ele>
        <time>2022-01-08T15:35:43Z</time>
      </trkpt>
      <trkpt lat="36.7438770" lon="-3.7777760">
        <ele>32.0</ele>
        <time>2022-01-08T15:35:44Z</time>
      </trkpt>
      <trkpt lat="36.7438930" lon="-3.7777830">
        <ele>32.0</ele>
        <time>2022-01-08T15:35:45Z</time>
      </trkpt>
      <trkpt lat="36.7439090" lon="-3.7777900">
        <ele>32.0</ele>
        <time>2022-01-08T15:35:46Z</time>
      </trkpt>
      <trkpt lat="36.7439250" lon="-3.7777970">
        <ele>32.0</ele>
        <time>2022-01-08T15:35:47Z</time>
      </trkpt>
      <trkpt lat="36.7439390" lon="-3.7778030">
        <ele>32.0</ele>
        <time>2022-01-08T15:35:48Z</time>
      </trkpt>
      <trkpt lat="36.7439520" lon="-3.7778100">
        <ele>32.0</ele>
        <time>2022-01-08T15:35:49Z</time>
      </trkpt>
      <trkpt lat="36.7439650" lon="-3.7778170">
        <ele>32.0</ele>
        <time>2022-01-08T15:35:50Z</time>
      </trkpt>
      <trkpt lat="36.7439780" lon="-3.7778240">
        <ele>32.0</ele>
        <time>2022-01-08T15:35:51Z</time>
      </trkpt>
      <trkpt lat="36.7439910" lon="-3.7778310">
        <ele>32.0</ele>
        <time>2022-01-08T15:35:52Z</time>
      </trkpt>
      <trkpt lat="36.7440040" lon="-3.7778380">
        <ele>32.0</ele>
        <time>2022-01-08T15:35:53Z</time>
      </trkpt>
      <trkpt lat="36.7440170" lon="-3.7778440">
        <ele>33.0</ele>
        <time>2022-01-08T15:35:54Z</time>
      </trkpt>
      <trkpt lat="36.7440350" lon="-3.7778380">
        <ele>33.0</ele>
        <time>2022-01-08T15:35:55Z</time>
      </trkpt>
      <trkpt lat="36.7440530" lon="-3.7778320">
        <ele>33.0</ele>
        <time>2022-01-08T15:35:56Z</time>
      </trkpt>
      <trkpt lat="36.7440710" lon="-3.7778250">
        <ele>33.0</ele>
        <time>2022-01-08T15:35:57Z</time>
      </trkpt>
      <trkpt lat="36.7440890" lon="-3.7778190">
        <ele>33.0</ele>
        <time>2022-01-08T15:35:58Z</time>
      </trkpt>
      <trkpt lat="36.7441070" lon="-3.7778120">
        <ele>33.0</ele>
        <time>2022-01-08T15:35:59Z</time>
      </trkpt>
      <trkpt lat="36.7441220" lon="-3.7778090">
        <ele>33.0</ele>
        <time>2022-01-08T15:36:00Z</time>
      </trkpt>
      <trkpt lat="36.7441370" lon="-3.7778060">
        <ele>33.0</ele>
        <time>2022-01-08T15:36:01Z</time>
      </trkpt>
      <trkpt lat="36.7441520" lon="-3.7778020">
        <ele>33.0</ele>
        <time>2022-01-08T15:36:02Z</time>
      </trkpt>
      <trkpt lat="36.7441670" lon="-3.7777990">
        <ele>33.0</ele>
        <time>2022-01-08T15:36:03Z</time>
      </trkpt>
      <trkpt lat="36.7441820" lon="-3.7777960">
        <ele>33.0</ele>
        <time>2022-01-08T15:36:04Z</time>
      </trkpt>
      <trkpt lat="36.7441970" lon="-3.7777920">
        <ele>33.0</ele>
        <time>2022-01-08T15:36:05Z</time>
      </trkpt>
      <trkpt lat="36.7442060" lon="-3.7777860">
        <ele>33.0</ele>
        <time>2022-01-08T15:36:06Z</time>
      </trkpt>
      <trkpt lat="36.7442150" lon="-3.7777790">
        <ele>33.0</ele>
        <time>2022-01-08T15:36:07Z</time>
      </trkpt>
      <trkpt lat="36.7442230" lon="-3.7777720">
        <ele>33.0</ele>
        <time>2022-01-08T15:36:08Z</time>
      </trkpt>
      <trkpt lat="36.7442320" lon="-3.7777660">
        <ele>33.0</ele>
        <time>2022-01-08T15:36:09Z</time>
      </trkpt>
      <trkpt lat="36.7442410" lon="-3.7777590">
        <ele>33.0</ele>
        <time>2022-01-08T15:36:10Z</time>
      </trkpt>
      <trkpt lat="36.7442500" lon="-3.7777520">
        <ele>34.0</ele>
        <time>2022-01-08T15:36:11Z</time>
      </trkpt>
      <trkpt lat="36.7442580" lon="-3.7777460">
        <ele>34.0</ele>
        <time>2022-01-08T15:36:12Z</time>
      </trkpt>
      <trkpt lat="36.7442670" lon="-3.7777390">
        <ele>34.0</ele>
        <time>2022-01-08T15:36:13Z</time>
      </trkpt>
      <trkpt lat="36.7442760" lon="-3.7777320">
        <ele>34.0</ele>
        <time>2022-01-08T15:36:14Z</time>
      </trkpt>
      <trkpt lat="36.7442910" lon="-3.7777220">
        <ele>35.0</ele>
        <time>2022-01-08T15:36:15Z</time>
      </trkpt>
      <trkpt lat="36.7443070" lon="-3.7777110">
        <ele>35.0</ele>
        <time>2022-01-08T15:36:16Z</time>
      </trkpt>
      <trkpt lat="36.7443230" lon="-3.7777010">
        <ele>35.0</ele>
        <time>2022-01-08T15:36:17Z</time>
      </trkpt>
      <trkpt lat="36.7443380" lon="-3.7776900">
        <ele>35.0</ele>
        <time>2022-01-08T15:36:18Z</time>
      </trkpt>
      <trkpt lat="36.7443540" lon="-3.7776800">
        <ele>35.0</ele>
        <time>2022-01-08T15:36:19Z</time>
      </trkpt>
      <trkpt lat="36.7443690" lon="-3.7776690">
        <ele>35.0</ele>
        <time>2022-01-08T15:36:20Z</time>
      </trkpt>
      <trkpt lat="36.7443870" lon="-3.7776560">
        <ele>35.0</ele>
        <time>2022-01-08T15:36:21Z</time>
      </trkpt>
      <trkpt lat="36.7444060" lon="-3.7776430">
        <ele>35.0</ele>
        <time>2022-01-08T15:36:22Z</time>
      </trkpt>
      <trkpt lat="36.7444240" lon="-3.7776300">
        <ele>35.0</ele>
        <time>2022-01-08T15:36:23Z</time>
      </trkpt>
      <trkpt lat="36.7444430" lon="-3.7776170">
        <ele>35.0</ele>
        <time>2022-01-08T15:36:24Z</time>
      </trkpt>
      <trkpt lat="36.7444610" lon="-3.7776040">
        <ele>35.0</ele>
        <time>2022-01-08T15:36:25Z</time>
      </trkpt>
      <trkpt lat="36.7444740" lon="-3.7775820">
        <ele>35.0</ele>
        <time>2022-01-08T15:36:26Z</time>
      </trkpt>
      <trkpt lat="36.7444880" lon="-3.7775590">
        <ele>35.0</ele>
        <time>2022-01-08T15:36:27Z</time>
      </trkpt>
      <trkpt lat="36.7445020" lon="-3.7775360">
        <ele>35.0</ele>
        <time>2022-01-08T15:36:28Z</time>
      </trkpt>
      <trkpt lat="36.7445150" lon="-3.7775130">
        <ele>35.0</ele>
        <time>2022-01-08T15:36:29Z</time>
      </trkpt>
      <trkpt lat="36.7445370" lon="-3.7774990">
        <ele>35.0</ele>
        <time>2022-01-08T15:36:30Z</time>
      </trkpt>
      <trkpt lat="36.7445370" lon="-3.7774990">
        <ele>35.0</ele>
        <time>2022-01-08T15:36:31Z</time>
      </trkpt>
      <trkpt lat="36.7445680" lon="-3.7774880">
        <ele>35.0</ele>
        <time>2022-01-08T15:36:32Z</time>
      </trkpt>
      <trkpt lat="36.7445680" lon="-3.7774880">
        <ele>35.0</ele>
        <time>2022-01-08T15:36:33Z</time>
      </trkpt>
      <trkpt lat="36.7445880" lon="-3.7774770">
        <ele>35.0</ele>
        <time>2022-01-08T15:36:34Z</time>
      </trkpt>
      <trkpt lat="36.7446090" lon="-3.7774660">
        <ele>35.0</ele>
        <time>2022-01-08T15:36:35Z</time>
      </trkpt>
      <trkpt lat="36.7446290" lon="-3.7774550">
        <ele>35.0</ele>
        <time>2022-01-08T15:36:36Z</time>
      </trkpt>
      <trkpt lat="36.7446290" lon="-3.7774550">
        <ele>35.0</ele>
        <time>2022-01-08T15:36:37Z</time>
      </trkpt>
      <trkpt lat="36.7446580" lon="-3.7774310">
        <ele>36.0</ele>
        <time>2022-01-08T15:36:38Z</time>
      </trkpt>
      <trkpt lat="36.7446760" lon="-3.7774200">
        <ele>36.0</ele>
        <time>2022-01-08T15:36:39Z</time>
      </trkpt>
      <trkpt lat="36.7446760" lon="-3.7774200">
        <ele>36.0</ele>
        <time>2022-01-08T15:36:40Z</time>
      </trkpt>
      <trkpt lat="36.7446890" lon="-3.7774120">
        <ele>36.0</ele>
        <time>2022-01-08T15:36:41Z</time>
      </trkpt>
      <trkpt lat="36.7447030" lon="-3.7774030">
        <ele>36.0</ele>
        <time>2022-01-08T15:36:42Z</time>
      </trkpt>
      <trkpt lat="36.7447160" lon="-3.7773940">
        <ele>36.0</ele>
        <time>2022-01-08T15:36:43Z</time>
      </trkpt>
      <trkpt lat="36.7447300" lon="-3.7773850">
        <ele>36.0</ele>
        <time>2022-01-08T15:36:44Z</time>
      </trkpt>
      <trkpt lat="36.7447430" lon="-3.7773760">
        <ele>36.0</ele>
        <time>2022-01-08T15:36:45Z</time>
      </trkpt>
      <trkpt lat="36.7447570" lon="-3.7773630">
        <ele>36.0</ele>
        <time>2022-01-08T15:36:46Z</time>
      </trkpt>
      <trkpt lat="36.7447700" lon="-3.7773510">
        <ele>36.0</ele>
        <time>2022-01-08T15:36:47Z</time>
      </trkpt>
      <trkpt lat="36.7447840" lon="-3.7773380">
        <ele>36.0</ele>
        <time>2022-01-08T15:36:48Z</time>
      </trkpt>
      <trkpt lat="36.7447980" lon="-3.7773250">
        <ele>36.0</ele>
        <time>2022-01-08T15:36:49Z</time>
      </trkpt>
      <trkpt lat="36.7448110" lon="-3.7773120">
        <ele>36.0</ele>
        <time>2022-01-08T15:36:50Z</time>
      </trkpt>
      <trkpt lat="36.7448250" lon="-3.7772990">
        <ele>36.0</ele>
        <time>2022-01-08T15:36:51Z</time>
      </trkpt>
      <trkpt lat="36.7448480" lon="-3.7772830">
        <ele>36.0</ele>
        <time>2022-01-08T15:36:52Z</time>
      </trkpt>
      <trkpt lat="36.7448720" lon="-3.7772670">
        <ele>36.0</ele>
        <time>2022-01-08T15:36:53Z</time>
      </trkpt>
      <trkpt lat="36.7448950" lon="-3.7772510">
        <ele>36.0</ele>
        <time>2022-01-08T15:36:54Z</time>
      </trkpt>
      <trkpt lat="36.7449190" lon="-3.7772340">
        <ele>36.0</ele>
        <time>2022-01-08T15:36:55Z</time>
      </trkpt>
      <trkpt lat="36.7449460" lon="-3.7772260">
        <ele>36.0</ele>
        <time>2022-01-08T15:36:56Z</time>
      </trkpt>
      <trkpt lat="36.7449740" lon="-3.7772170">
        <ele>37.0</ele>
        <time>2022-01-08T15:36:57Z</time>
      </trkpt>
      <trkpt lat="36.7450010" lon="-3.7772090">
        <ele>37.0</ele>
        <time>2022-01-08T15:36:58Z</time>
      </trkpt>
      <trkpt lat="36.7450290" lon="-3.7772000">
        <ele>38.0</ele>
        <time>2022-01-08T15:36:59Z</time>
      </trkpt>
      <trkpt lat="36.7450530" lon="-3.7772060">
        <ele>38.0</ele>
        <time>2022-01-08T15:37:00Z</time>
      </trkpt>
      <trkpt lat="36.7450770" lon="-3.7772120">
        <ele>38.0</ele>
        <time>2022-01-08T15:37:01Z</time>
      </trkpt>
      <trkpt lat="36.7451010" lon="-3.7772180">
        <ele>38.0</ele>
        <time>2022-01-08T15:37:02Z</time>
      </trkpt>
      <trkpt lat="36.7451250" lon="-3.7772240">
        <ele>38.0</ele>
        <time>2022-01-08T15:37:03Z</time>
      </trkpt>
      <trkpt lat="36.7451490" lon="-3.7772310">
        <ele>38.0</ele>
        <time>2022-01-08T15:37:04Z</time>
      </trkpt>
      <trkpt lat="36.7451730" lon="-3.7772390">
        <ele>38.0</ele>
        <time>2022-01-08T15:37:05Z</time>
      </trkpt>
      <trkpt lat="36.7451980" lon="-3.7772460">
        <ele>38.0</ele>
        <time>2022-01-08T15:37:06Z</time>
      </trkpt>
      <trkpt lat="36.7452220" lon="-3.7772530">
        <ele>38.0</ele>
        <time>2022-01-08T15:37:07Z</time>
      </trkpt>
      <trkpt lat="36.7452300" lon="-3.7772690">
        <ele>39.0</ele>
        <time>2022-01-08T15:37:08Z</time>
      </trkpt>
      <trkpt lat="36.7452380" lon="-3.7772840">
        <ele>39.0</ele>
        <time>2022-01-08T15:37:09Z</time>
      </trkpt>
      <trkpt lat="36.7452470" lon="-3.7773000">
        <ele>39.0</ele>
        <time>2022-01-08T15:37:10Z</time>
      </trkpt>
      <trkpt lat="36.7452550" lon="-3.7773150">
        <ele>39.0</ele>
        <time>2022-01-08T15:37:11Z</time>
      </trkpt>
      <trkpt lat="36.7452630" lon="-3.7773310">
        <ele>39.0</ele>
        <time>2022-01-08T15:37:12Z</time>
      </trkpt>
      <trkpt lat="36.7452720" lon="-3.7773470">
        <ele>38.0</ele>
        <time>2022-01-08T15:37:13Z</time>
      </trkpt>
      <trkpt lat="36.7452800" lon="-3.7773620">
        <ele>39.0</ele>
        <time>2022-01-08T15:37:14Z</time>
      </trkpt>
      <trkpt lat="36.7452830" lon="-3.7773810">
        <ele>39.0</ele>
        <time>2022-01-08T15:37:15Z</time>
      </trkpt>
      <trkpt lat="36.7452860" lon="-3.7774000">
        <ele>38.0</ele>
        <time>2022-01-08T15:37:16Z</time>
      </trkpt>
      <trkpt lat="36.7452890" lon="-3.7774200">
        <ele>38.0</ele>
        <time>2022-01-08T15:37:17Z</time>
      </trkpt>
      <trkpt lat="36.7452930" lon="-3.7774390">
        <ele>38.0</ele>
        <time>2022-01-08T15:37:18Z</time>
      </trkpt>
      <trkpt lat="36.7452960" lon="-3.7774580">
        <ele>39.0</ele>
        <time>2022-01-08T15:37:19Z</time>
      </trkpt>
      <trkpt lat="36.7452990" lon="-3.7774770">
        <ele>39.0</ele>
        <time>2022-01-08T15:37:20Z</time>
      </trkpt>
      <trkpt lat="36.7452980" lon="-3.7774970">
        <ele>39.0</ele>
        <time>2022-01-08T15:37:21Z</time>
      </trkpt>
      <trkpt lat="36.7452980" lon="-3.7775170">
        <ele>39.0</ele>
        <time>2022-01-08T15:37:22Z</time>
      </trkpt>
      <trkpt lat="36.7452970" lon="-3.7775370">
        <ele>40.0</ele>
        <time>2022-01-08T15:37:23Z</time>
      </trkpt>
      <trkpt lat="36.7452970" lon="-3.7775560">
        <ele>40.0</ele>
        <time>2022-01-08T15:37:24Z</time>
      </trkpt>
      <trkpt lat="36.7452960" lon="-3.7775760">
        <ele>40.0</ele>
        <time>2022-01-08T15:37:25Z</time>
      </trkpt>
      <trkpt lat="36.7452960" lon="-3.7775960">
        <ele>40.0</ele>
        <time>2022-01-08T15:37:26Z</time>
      </trkpt>
      <trkpt lat="36.7452990" lon="-3.7776180">
        <ele>40.0</ele>
        <time>2022-01-08T15:37:27Z</time>
      </trkpt>
      <trkpt lat="36.7453020" lon="-3.7776400">
        <ele>40.0</ele>
        <time>2022-01-08T15:37:28Z</time>
      </trkpt>
      <trkpt lat="36.7453060" lon="-3.7776620">
        <ele>40.0</ele>
        <time>2022-01-08T15:37:29Z</time>
      </trkpt>
      <trkpt lat="36.7453090" lon="-3.7776840">
        <ele>39.0</ele>
        <time>2022-01-08T15:37:30Z</time>
      </trkpt>
      <trkpt lat="36.7453120" lon="-3.7777060">
        <ele>39.0</ele>
        <time>2022-01-08T15:37:31Z</time>
      </trkpt>
      <trkpt lat="36.7453170" lon="-3.7777280">
        <ele>39.0</ele>
        <time>2022-01-08T15:37:32Z</time>
      </trkpt>
      <trkpt lat="36.7453220" lon="-3.7777500">
        <ele>39.0</ele>
        <time>2022-01-08T15:37:33Z</time>
      </trkpt>
      <trkpt lat="36.7453270" lon="-3.7777720">
        <ele>40.0</ele>
        <time>2022-01-08T15:37:34Z</time>
      </trkpt>
      <trkpt lat="36.7453320" lon="-3.7777930">
        <ele>40.0</ele>
        <time>2022-01-08T15:37:35Z</time>
      </trkpt>
      <trkpt lat="36.7453370" lon="-3.7778150">
        <ele>40.0</ele>
        <time>2022-01-08T15:37:36Z</time>
      </trkpt>
      <trkpt lat="36.7453400" lon="-3.7778310">
        <ele>40.0</ele>
        <time>2022-01-08T15:37:37Z</time>
      </trkpt>
      <trkpt lat="36.7453420" lon="-3.7778460">
        <ele>40.0</ele>
        <time>2022-01-08T15:37:38Z</time>
      </trkpt>
      <trkpt lat="36.7453450" lon="-3.7778620">
        <ele>40.0</ele>
        <time>2022-01-08T15:37:39Z</time>
      </trkpt>
      <trkpt lat="36.7453480" lon="-3.7778780">
        <ele>40.0</ele>
        <time>2022-01-08T15:37:40Z</time>
      </trkpt>
      <trkpt lat="36.7453510" lon="-3.7778930">
        <ele>40.0</ele>
        <time>2022-01-08T15:37:41Z</time>
      </trkpt>
      <trkpt lat="36.7453530" lon="-3.7779090">
        <ele>40.0</ele>
        <time>2022-01-08T15:37:42Z</time>
      </trkpt>
      <trkpt lat="36.7453560" lon="-3.7779240">
        <ele>40.0</ele>
        <time>2022-01-08T15:37:43Z</time>
      </trkpt>
      <trkpt lat="36.7453590" lon="-3.7779400">
        <ele>40.0</ele>
        <time>2022-01-08T15:37:44Z</time>
      </trkpt>
      <trkpt lat="36.7453640" lon="-3.7779620">
        <ele>40.0</ele>
        <time>2022-01-08T15:37:45Z</time>
      </trkpt>
      <trkpt lat="36.7453690" lon="-3.7779840">
        <ele>40.0</ele>
        <time>2022-01-08T15:37:46Z</time>
      </trkpt>
      <trkpt lat="36.7453740" lon="-3.7780060">
        <ele>40.0</ele>
        <time>2022-01-08T15:37:47Z</time>
      </trkpt>
      <trkpt lat="36.7453800" lon="-3.7780280">
        <ele>40.0</ele>
        <time>2022-01-08T15:37:48Z</time>
      </trkpt>
      <trkpt lat="36.7453850" lon="-3.7780500">
        <ele>41.0</ele>
        <time>2022-01-08T15:37:49Z</time>
      </trkpt>
      <trkpt lat="36.7453900" lon="-3.7780720">
        <ele>41.0</ele>
        <time>2022-01-08T15:37:50Z</time>
      </trkpt>
      <trkpt lat="36.7453940" lon="-3.7780970">
        <ele>41.0</ele>
        <time>2022-01-08T15:37:51Z</time>
      </trkpt>
      <trkpt lat="36.7453980" lon="-3.7781210">
        <ele>41.0</ele>
        <time>2022-01-08T15:37:52Z</time>
      </trkpt>
      <trkpt lat="36.7454020" lon="-3.7781450">
        <ele>41.0</ele>
        <time>2022-01-08T15:37:53Z</time>
      </trkpt>
      <trkpt lat="36.7454070" lon="-3.7781700">
        <ele>40.0</ele>
        <time>2022-01-08T15:37:54Z</time>
      </trkpt>
      <trkpt lat="36.7454110" lon="-3.7781940">
        <ele>40.0</ele>
        <time>2022-01-08T15:37:55Z</time>
      </trkpt>
      <trkpt lat="36.7454150" lon="-3.7782090">
        <ele>40.0</ele>
        <time>2022-01-08T15:37:56Z</time>
      </trkpt>
      <trkpt lat="36.7454200" lon="-3.7782240">
        <ele>40.0</ele>
        <time>2022-01-08T15:37:57Z</time>
      </trkpt>
      <trkpt lat="36.7454240" lon="-3.7782390">
        <ele>40.0</ele>
        <time>2022-01-08T15:37:58Z</time>
      </trkpt>
      <trkpt lat="36.7454290" lon="-3.7782540">
        <ele>41.0</ele>
        <time>2022-01-08T15:37:59Z</time>
      </trkpt>
      <trkpt lat="36.7454340" lon="-3.7782700">
        <ele>41.0</ele>
        <time>2022-01-08T15:38:00Z</time>
      </trkpt>
      <trkpt lat="36.7454380" lon="-3.7782850">
        <ele>41.0</ele>
        <time>2022-01-08T15:38:01Z</time>
      </trkpt>
      <trkpt lat="36.7454430" lon="-3.7783000">
        <ele>41.0</ele>
        <time>2022-01-08T15:38:02Z</time>
      </trkpt>
      <trkpt lat="36.7454460" lon="-3.7783220">
        <ele>41.0</ele>
        <time>2022-01-08T15:38:03Z</time>
      </trkpt>
      <trkpt lat="36.7454490" lon="-3.7783450">
        <ele>42.0</ele>
        <time>2022-01-08T15:38:04Z</time>
      </trkpt>
      <trkpt lat="36.7454520" lon="-3.7783680">
        <ele>42.0</ele>
        <time>2022-01-08T15:38:05Z</time>
      </trkpt>
      <trkpt lat="36.7454550" lon="-3.7783910">
        <ele>42.0</ele>
        <time>2022-01-08T15:38:06Z</time>
      </trkpt>
      <trkpt lat="36.7454580" lon="-3.7784140">
        <ele>42.0</ele>
        <time>2022-01-08T15:38:07Z</time>
      </trkpt>
      <trkpt lat="36.7454600" lon="-3.7784360">
        <ele>42.0</ele>
        <time>2022-01-08T15:38:08Z</time>
      </trkpt>
      <trkpt lat="36.7454630" lon="-3.7784580">
        <ele>42.0</ele>
        <time>2022-01-08T15:38:09Z</time>
      </trkpt>
      <trkpt lat="36.7454650" lon="-3.7784800">
        <ele>43.0</ele>
        <time>2022-01-08T15:38:10Z</time>
      </trkpt>
      <trkpt lat="36.7454680" lon="-3.7785020">
        <ele>43.0</ele>
        <time>2022-01-08T15:38:11Z</time>
      </trkpt>
      <trkpt lat="36.7454700" lon="-3.7785240">
        <ele>43.0</ele>
        <time>2022-01-08T15:38:12Z</time>
      </trkpt>
      <trkpt lat="36.7454730" lon="-3.7785460">
        <ele>43.0</ele>
        <time>2022-01-08T15:38:13Z</time>
      </trkpt>
      <trkpt lat="36.7454830" lon="-3.7785740">
        <ele>43.0</ele>
        <time>2022-01-08T15:38:14Z</time>
      </trkpt>
      <trkpt lat="36.7454940" lon="-3.7786020">
        <ele>43.0</ele>
        <time>2022-01-08T15:38:15Z</time>
      </trkpt>
      <trkpt lat="36.7455050" lon="-3.7786300">
        <ele>43.0</ele>
        <time>2022-01-08T15:38:16Z</time>
      </trkpt>
      <trkpt lat="36.7455160" lon="-3.7786590">
        <ele>43.0</ele>
        <time>2022-01-08T15:38:17Z</time>
      </trkpt>
      <trkpt lat="36.7455280" lon="-3.7786840">
        <ele>43.0</ele>
        <time>2022-01-08T15:38:18Z</time>
      </trkpt>
      <trkpt lat="36.7455400" lon="-3.7787100">
        <ele>44.0</ele>
        <time>2022-01-08T15:38:19Z</time>
      </trkpt>
      <trkpt lat="36.7455520" lon="-3.7787360">
        <ele>44.0</ele>
        <time>2022-01-08T15:38:20Z</time>
      </trkpt>
      <trkpt lat="36.7455650" lon="-3.7787620">
        <ele>44.0</ele>
        <time>2022-01-08T15:38:21Z</time>
      </trkpt>
      <trkpt lat="36.7455760" lon="-3.7787890">
        <ele>44.0</ele>
        <time>2022-01-08T15:38:22Z</time>
      </trkpt>
      <trkpt lat="36.7455870" lon="-3.7788160">
        <ele>44.0</ele>
        <time>2022-01-08T15:38:23Z</time>
      </trkpt>
      <trkpt lat="36.7455980" lon="-3.7788430">
        <ele>44.0</ele>
        <time>2022-01-08T15:38:24Z</time>
      </trkpt>
      <trkpt lat="36.7456100" lon="-3.7788710">
        <ele>44.0</ele>
        <time>2022-01-08T15:38:25Z</time>
      </trkpt>
      <trkpt lat="36.7456200" lon="-3.7788920">
        <ele>44.0</ele>
        <time>2022-01-08T15:38:26Z</time>
      </trkpt>
      <trkpt lat="36.7456310" lon="-3.7789140">
        <ele>44.0</ele>
        <time>2022-01-08T15:38:27Z</time>
      </trkpt>
      <trkpt lat="36.7456420" lon="-3.7789360">
        <ele>44.0</ele>
        <time>2022-01-08T15:38:28Z</time>
      </trkpt>
      <trkpt lat="36.7456530" lon="-3.7789570">
        <ele>44.0</ele>
        <time>2022-01-08T15:38:29Z</time>
      </trkpt>
      <trkpt lat="36.7456640" lon="-3.7789790">
        <ele>44.0</ele>
        <time>2022-01-08T15:38:30Z</time>
      </trkpt>
      <trkpt lat="36.7456710" lon="-3.7790020">
        <ele>44.0</ele>
        <time>2022-01-08T15:38:31Z</time>
      </trkpt>
      <trkpt lat="36.7456780" lon="-3.7790260">
        <ele>44.0</ele>
        <time>2022-01-08T15:38:32Z</time>
      </trkpt>
      <trkpt lat="36.7456860" lon="-3.7790490">
        <ele>44.0</ele>
        <time>2022-01-08T15:38:33Z</time>
      </trkpt>
      <trkpt lat="36.7456930" lon="-3.7790720">
        <ele>44.0</ele>
        <time>2022-01-08T15:38:34Z</time>
      </trkpt>
      <trkpt lat="36.7457010" lon="-3.7790960">
        <ele>44.0</ele>
        <time>2022-01-08T15:38:35Z</time>
      </trkpt>
      <trkpt lat="36.7457050" lon="-3.7791120">
        <ele>44.0</ele>
        <time>2022-01-08T15:38:36Z</time>
      </trkpt>
      <trkpt lat="36.7457100" lon="-3.7791280">
        <ele>44.0</ele>
        <time>2022-01-08T15:38:37Z</time>
      </trkpt>
      <trkpt lat="36.7457140" lon="-3.7791440">
        <ele>44.0</ele>
        <time>2022-01-08T15:38:38Z</time>
      </trkpt>
      <trkpt lat="36.7457190" lon="-3.7791600">
        <ele>44.0</ele>
        <time>2022-01-08T15:38:39Z</time>
      </trkpt>
      <trkpt lat="36.7457230" lon="-3.7791760">
        <ele>44.0</ele>
        <time>2022-01-08T15:38:40Z</time>
      </trkpt>
      <trkpt lat="36.7457280" lon="-3.7791930">
        <ele>44.0</ele>
        <time>2022-01-08T15:38:41Z</time>
      </trkpt>
      <trkpt lat="36.7457330" lon="-3.7792090">
        <ele>44.0</ele>
        <time>2022-01-08T15:38:42Z</time>
      </trkpt>
      <trkpt lat="36.7457400" lon="-3.7792200">
        <ele>44.0</ele>
        <time>2022-01-08T15:38:43Z</time>
      </trkpt>
      <trkpt lat="36.7457480" lon="-3.7792300">
        <ele>44.0</ele>
        <time>2022-01-08T15:38:44Z</time>
      </trkpt>
      <trkpt lat="36.7457550" lon="-3.7792410">
        <ele>44.0</ele>
        <time>2022-01-08T15:38:45Z</time>
      </trkpt>
      <trkpt lat="36.7457630" lon="-3.7792520">
        <ele>45.0</ele>
        <time>2022-01-08T15:38:46Z</time>
      </trkpt>
      <trkpt lat="36.7457700" lon="-3.7792630">
        <ele>45.0</ele>
        <time>2022-01-08T15:38:47Z</time>
      </trkpt>
      <trkpt lat="36.7457780" lon="-3.7792740">
        <ele>46.0</ele>
        <time>2022-01-08T15:38:48Z</time>
      </trkpt>
      <trkpt lat="36.7457850" lon="-3.7792850">
        <ele>46.0</ele>
        <time>2022-01-08T15:38:49Z</time>
      </trkpt>
      <trkpt lat="36.7457930" lon="-3.7792960">
        <ele>47.0</ele>
        <time>2022-01-08T15:38:50Z</time>
      </trkpt>
      <trkpt lat="36.7457980" lon="-3.7793100">
        <ele>47.0</ele>
        <time>2022-01-08T15:38:51Z</time>
      </trkpt>
      <trkpt lat="36.7458030" lon="-3.7793240">
        <ele>47.0</ele>
        <time>2022-01-08T15:38:52Z</time>
      </trkpt>
      <trkpt lat="36.7458080" lon="-3.7793380">
        <ele>47.0</ele>
        <time>2022-01-08T15:38:53Z</time>
      </trkpt>
      <trkpt lat="36.7458130" lon="-3.7793520">
        <ele>47.0</ele>
        <time>2022-01-08T15:38:54Z</time>
      </trkpt>
      <trkpt lat="36.7458180" lon="-3.7793660">
        <ele>47.0</ele>
        <time>2022-01-08T15:38:55Z</time>
      </trkpt>
      <trkpt lat="36.7458230" lon="-3.7793800">
        <ele>47.0</ele>
        <time>2022-01-08T15:38:56Z</time>
      </trkpt>
      <trkpt lat="36.7458280" lon="-3.7793950">
        <ele>47.0</ele>
        <time>2022-01-08T15:38:57Z</time>
      </trkpt>
      <trkpt lat="36.7458330" lon="-3.7794090">
        <ele>48.0</ele>
        <time>2022-01-08T15:38:58Z</time>
      </trkpt>
      <trkpt lat="36.7458510" lon="-3.7794170">
        <ele>48.0</ele>
        <time>2022-01-08T15:38:59Z</time>
      </trkpt>
      <trkpt lat="36.7458690" lon="-3.7794260">
        <ele>48.0</ele>
        <time>2022-01-08T15:39:00Z</time>
      </trkpt>
      <trkpt lat="36.7458880" lon="-3.7794340">
        <ele>48.0</ele>
        <time>2022-01-08T15:39:01Z</time>
      </trkpt>
      <trkpt lat="36.7459060" lon="-3.7794420">
        <ele>48.0</ele>
        <time>2022-01-08T15:39:02Z</time>
      </trkpt>
      <trkpt lat="36.7459240" lon="-3.7794510">
        <ele>48.0</ele>
        <time>2022-01-08T15:39:03Z</time>
      </trkpt>
      <trkpt lat="36.7459430" lon="-3.7794520">
        <ele>48.0</ele>
        <time>2022-01-08T15:39:04Z</time>
      </trkpt>
      <trkpt lat="36.7459610" lon="-3.7794530">
        <ele>48.0</ele>
        <time>2022-01-08T15:39:05Z</time>
      </trkpt>
      <trkpt lat="36.7459800" lon="-3.7794540">
        <ele>48.0</ele>
        <time>2022-01-08T15:39:06Z</time>
      </trkpt>
      <trkpt lat="36.7459980" lon="-3.7794550">
        <ele>48.0</ele>
        <time>2022-01-08T15:39:07Z</time>
      </trkpt>
      <trkpt lat="36.7460160" lon="-3.7794560">
        <ele>48.0</ele>
        <time>2022-01-08T15:39:08Z</time>
      </trkpt>
      <trkpt lat="36.7460310" lon="-3.7794590">
        <ele>48.0</ele>
        <time>2022-01-08T15:39:09Z</time>
      </trkpt>
      <trkpt lat="36.7460450" lon="-3.7794620">
        <ele>48.0</ele>
        <time>2022-01-08T15:39:10Z</time>
      </trkpt>
      <trkpt lat="36.7460590" lon="-3.7794660">
        <ele>48.0</ele>
        <time>2022-01-08T15:39:11Z</time>
      </trkpt>
      <trkpt lat="36.7460740" lon="-3.7794690">
        <ele>48.0</ele>
        <time>2022-01-08T15:39:12Z</time>
      </trkpt>
      <trkpt lat="36.7460880" lon="-3.7794720">
        <ele>48.0</ele>
        <time>2022-01-08T15:39:13Z</time>
      </trkpt>
      <trkpt lat="36.7461020" lon="-3.7794760">
        <ele>48.0</ele>
        <time>2022-01-08T15:39:14Z</time>
      </trkpt>
      <trkpt lat="36.7461120" lon="-3.7794800">
        <ele>48.0</ele>
        <time>2022-01-08T15:39:15Z</time>
      </trkpt>
      <trkpt lat="36.7461210" lon="-3.7794850">
        <ele>49.0</ele>
        <time>2022-01-08T15:39:16Z</time>
      </trkpt>
      <trkpt lat="36.7461310" lon="-3.7794890">
        <ele>50.0</ele>
        <time>2022-01-08T15:39:17Z</time>
      </trkpt>
      <trkpt lat="36.7461400" lon="-3.7794940">
        <ele>50.0</ele>
        <time>2022-01-08T15:39:18Z</time>
      </trkpt>
      <trkpt lat="36.7461490" lon="-3.7794980">
        <ele>51.0</ele>
        <time>2022-01-08T15:39:19Z</time>
      </trkpt>
      <trkpt lat="36.7461590" lon="-3.7795020">
        <ele>52.0</ele>
        <time>2022-01-08T15:39:20Z</time>
      </trkpt>
      <trkpt lat="36.7461680" lon="-3.7795070">
        <ele>52.0</ele>
        <time>2022-01-08T15:39:21Z</time>
      </trkpt>
      <trkpt lat="36.7461890" lon="-3.7795090">
        <ele>52.0</ele>
        <time>2022-01-08T15:39:22Z</time>
      </trkpt>
      <trkpt lat="36.7461890" lon="-3.7795090">
        <ele>52.0</ele>
        <time>2022-01-08T15:39:23Z</time>
      </trkpt>
      <trkpt lat="36.7461980" lon="-3.7795210">
        <ele>52.0</ele>
        <time>2022-01-08T15:39:24Z</time>
      </trkpt>
      <trkpt lat="36.7462060" lon="-3.7795330">
        <ele>52.0</ele>
        <time>2022-01-08T15:39:25Z</time>
      </trkpt>
      <trkpt lat="36.7462150" lon="-3.7795450">
        <ele>52.0</ele>
        <time>2022-01-08T15:39:26Z</time>
      </trkpt>
      <trkpt lat="36.7462230" lon="-3.7795570">
        <ele>53.0</ele>
        <time>2022-01-08T15:39:27Z</time>
      </trkpt>
      <trkpt lat="36.7462310" lon="-3.7795690">
        <ele>53.0</ele>
        <time>2022-01-08T15:39:28Z</time>
      </trkpt>
      <trkpt lat="36.7462400" lon="-3.7795820">
        <ele>53.0</ele>
        <time>2022-01-08T15:39:29Z</time>
      </trkpt>
      <trkpt lat="36.7462480" lon="-3.7795940">
        <ele>53.0</ele>
        <time>2022-01-08T15:39:30Z</time>
      </trkpt>
      <trkpt lat="36.7462530" lon="-3.7796080">
        <ele>54.0</ele>
        <time>2022-01-08T15:39:31Z</time>
      </trkpt>
      <trkpt lat="36.7462590" lon="-3.7796210">
        <ele>54.0</ele>
        <time>2022-01-08T15:39:32Z</time>
      </trkpt>
      <trkpt lat="36.7462640" lon="-3.7796350">
        <ele>54.0</ele>
        <time>2022-01-08T15:39:33Z</time>
      </trkpt>
      <trkpt lat="36.7462690" lon="-3.7796490">
        <ele>55.0</ele>
        <time>2022-01-08T15:39:34Z</time>
      </trkpt>
      <trkpt lat="36.7462740" lon="-3.7796630">
        <ele>55.0</ele>
        <time>2022-01-08T15:39:35Z</time>
      </trkpt>
      <trkpt lat="36.7462790" lon="-3.7796770">
        <ele>56.0</ele>
        <time>2022-01-08T15:39:36Z</time>
      </trkpt>
      <trkpt lat="36.7462910" lon="-3.7796840">
        <ele>56.0</ele>
        <time>2022-01-08T15:39:37Z</time>
      </trkpt>
      <trkpt lat="36.7463020" lon="-3.7796920">
        <ele>56.0</ele>
        <time>2022-01-08T15:39:38Z</time>
      </trkpt>
      <trkpt lat="36.7463130" lon="-3.7796990">
        <ele>57.0</ele>
        <time>2022-01-08T15:39:39Z</time>
      </trkpt>
      <trkpt lat="36.7463250" lon="-3.7797060">
        <ele>57.0</ele>
        <time>2022-01-08T15:39:40Z</time>
      </trkpt>
      <trkpt lat="36.7463360" lon="-3.7797140">
        <ele>57.0</ele>
        <time>2022-01-08T15:39:41Z</time>
      </trkpt>
      <trkpt lat="36.7463480" lon="-3.7797210">
        <ele>57.0</ele>
        <time>2022-01-08T15:39:42Z</time>
      </trkpt>
      <trkpt lat="36.7463590" lon="-3.7797280">
        <ele>57.0</ele>
        <time>2022-01-08T15:39:43Z</time>
      </trkpt>
      <trkpt lat="36.7463700" lon="-3.7797360">
        <ele>57.0</ele>
        <time>2022-01-08T15:39:44Z</time>
      </trkpt>
      <trkpt lat="36.7464010" lon="-3.7797340">
        <ele>57.0</ele>
        <time>2022-01-08T15:39:45Z</time>
      </trkpt>
      <trkpt lat="36.7464010" lon="-3.7797340">
        <ele>57.0</ele>
        <time>2022-01-08T15:39:46Z</time>
      </trkpt>
      <trkpt lat="36.7464150" lon="-3.7797360">
        <ele>57.0</ele>
        <time>2022-01-08T15:39:47Z</time>
      </trkpt>
      <trkpt lat="36.7464280" lon="-3.7797380">
        <ele>57.0</ele>
        <time>2022-01-08T15:39:48Z</time>
      </trkpt>
      <trkpt lat="36.7464410" lon="-3.7797410">
        <ele>58.0</ele>
        <time>2022-01-08T15:39:49Z</time>
      </trkpt>
      <trkpt lat="36.7464540" lon="-3.7797430">
        <ele>58.0</ele>
        <time>2022-01-08T15:39:50Z</time>
      </trkpt>
      <trkpt lat="36.7464680" lon="-3.7797450">
        <ele>58.0</ele>
        <time>2022-01-08T15:39:51Z</time>
      </trkpt>
      <trkpt lat="36.7464810" lon="-3.7797480">
        <ele>59.0</ele>
        <time>2022-01-08T15:39:52Z</time>
      </trkpt>
      <trkpt lat="36.7464940" lon="-3.7797500">
        <ele>59.0</ele>
        <time>2022-01-08T15:39:53Z</time>
      </trkpt>
      <trkpt lat="36.7465060" lon="-3.7797450">
        <ele>59.0</ele>
        <time>2022-01-08T15:39:54Z</time>
      </trkpt>
      <trkpt lat="36.7465190" lon="-3.7797400">
        <ele>60.0</ele>
        <time>2022-01-08T15:39:55Z</time>
      </trkpt>
      <trkpt lat="36.7465310" lon="-3.7797350">
        <ele>60.0</ele>
        <time>2022-01-08T15:39:56Z</time>
      </trkpt>
      <trkpt lat="36.7465430" lon="-3.7797300">
        <ele>61.0</ele>
        <time>2022-01-08T15:39:57Z</time>
      </trkpt>
      <trkpt lat="36.7465550" lon="-3.7797240">
        <ele>61.0</ele>
        <time>2022-01-08T15:39:58Z</time>
      </trkpt>
      <trkpt lat="36.7465670" lon="-3.7797190">
        <ele>61.0</ele>
        <time>2022-01-08T15:39:59Z</time>
      </trkpt>
      <trkpt lat="36.7465790" lon="-3.7797140">
        <ele>61.0</ele>
        <time>2022-01-08T15:40:00Z</time>
      </trkpt>
      <trkpt lat="36.7465900" lon="-3.7797130">
        <ele>61.0</ele>
        <time>2022-01-08T15:40:01Z</time>
      </trkpt>
      <trkpt lat="36.7466000" lon="-3.7797110">
        <ele>61.0</ele>
        <time>2022-01-08T15:40:02Z</time>
      </trkpt>
      <trkpt lat="36.7466110" lon="-3.7797090">
        <ele>61.0</ele>
        <time>2022-01-08T15:40:03Z</time>
      </trkpt>
      <trkpt lat="36.7466220" lon="-3.7797070">
        <ele>62.0</ele>
        <time>2022-01-08T15:40:04Z</time>
      </trkpt>
      <trkpt lat="36.7466320" lon="-3.7797050">
        <ele>62.0</ele>
        <time>2022-01-08T15:40:05Z</time>
      </trkpt>
      <trkpt lat="36.7466510" lon="-3.7796970">
        <ele>62.0</ele>
        <time>2022-01-08T15:40:06Z</time>
      </trkpt>
      <trkpt lat="36.7466510" lon="-3.7796970">
        <ele>62.0</ele>
        <time>2022-01-08T15:40:07Z</time>
      </trkpt>
      <trkpt lat="36.7466630" lon="-3.7796970">
        <ele>63.0</ele>
        <time>2022-01-08T15:40:08Z</time>
      </trkpt>
      <trkpt lat="36.7466740" lon="-3.7796970">
        <ele>64.0</ele>
        <time>2022-01-08T15:40:09Z</time>
      </trkpt>
      <trkpt lat="36.7466860" lon="-3.7796970">
        <ele>65.0</ele>
        <time>2022-01-08T15:40:10Z</time>
      </trkpt>
      <trkpt lat="36.7466970" lon="-3.7796970">
        <ele>65.0</ele>
        <time>2022-01-08T15:40:11Z</time>
      </trkpt>
      <trkpt lat="36.7467090" lon="-3.7796970">
        <ele>65.0</ele>
        <time>2022-01-08T15:40:12Z</time>
      </trkpt>
      <trkpt lat="36.7467210" lon="-3.7796970">
        <ele>65.0</ele>
        <time>2022-01-08T15:40:13Z</time>
      </trkpt>
      <trkpt lat="36.7467320" lon="-3.7796970">
        <ele>65.0</ele>
        <time>2022-01-08T15:40:14Z</time>
      </trkpt>
      <trkpt lat="36.7467440" lon="-3.7796970">
        <ele>65.0</ele>
        <time>2022-01-08T15:40:15Z</time>
      </trkpt>
      <trkpt lat="36.7467550" lon="-3.7796970">
        <ele>65.0</ele>
        <time>2022-01-08T15:40:16Z</time>
      </trkpt>
      <trkpt lat="36.7467690" lon="-3.7797010">
        <ele>65.0</ele>
        <time>2022-01-08T15:40:17Z</time>
      </trkpt>
      <trkpt lat="36.7467820" lon="-3.7797040">
        <ele>66.0</ele>
        <time>2022-01-08T15:40:18Z</time>
      </trkpt>
      <trkpt lat="36.7467950" lon="-3.7797080">
        <ele>66.0</ele>
        <time>2022-01-08T15:40:19Z</time>
      </trkpt>
      <trkpt lat="36.7468090" lon="-3.7797110">
        <ele>67.0</ele>
        <time>2022-01-08T15:40:20Z</time>
      </trkpt>
      <trkpt lat="36.7468220" lon="-3.7797140">
        <ele>67.0</ele>
        <time>2022-01-08T15:40:21Z</time>
      </trkpt>
      <trkpt lat="36.7468360" lon="-3.7797180">
        <ele>67.0</ele>
        <time>2022-01-08T15:40:22Z</time>
      </trkpt>
      <trkpt lat="36.7468490" lon="-3.7797210">
        <ele>67.0</ele>
        <time>2022-01-08T15:40:23Z</time>
      </trkpt>
      <trkpt lat="36.7468670" lon="-3.7797260">
        <ele>67.0</ele>
        <time>2022-01-08T15:40:24Z</time>
      </trkpt>
      <trkpt lat="36.7468860" lon="-3.7797300">
        <ele>67.0</ele>
        <time>2022-01-08T15:40:25Z</time>
      </trkpt>
      <trkpt lat="36.7469040" lon="-3.7797340">
        <ele>67.0</ele>
        <time>2022-01-08T15:40:26Z</time>
      </trkpt>
      <trkpt lat="36.7469220" lon="-3.7797390">
        <ele>67.0</ele>
        <time>2022-01-08T15:40:27Z</time>
      </trkpt>
      <trkpt lat="36.7469400" lon="-3.7797430">
        <ele>67.0</ele>
        <time>2022-01-08T15:40:28Z</time>
      </trkpt>
      <trkpt lat="36.7469580" lon="-3.7797470">
        <ele>66.0</ele>
        <time>2022-01-08T15:40:29Z</time>
      </trkpt>
      <trkpt lat="36.7469800" lon="-3.7797590">
        <ele>66.0</ele>
        <time>2022-01-08T15:40:30Z</time>
      </trkpt>
      <trkpt lat="36.7470010" lon="-3.7797710">
        <ele>66.0</ele>
        <time>2022-01-08T15:40:31Z</time>
      </trkpt>
      <trkpt lat="36.7470230" lon="-3.7797830">
        <ele>66.0</ele>
        <time>2022-01-08T15:40:32Z</time>
      </trkpt>
      <trkpt lat="36.7470440" lon="-3.7797950">
        <ele>66.0</ele>
        <time>2022-01-08T15:40:33Z</time>
      </trkpt>
      <trkpt lat="36.7470570" lon="-3.7798060">
        <ele>66.0</ele>
        <time>2022-01-08T15:40:34Z</time>
      </trkpt>
      <trkpt lat="36.7470710" lon="-3.7798160">
        <ele>66.0</ele>
        <time>2022-01-08T15:40:35Z</time>
      </trkpt>
      <trkpt lat="36.7470840" lon="-3.7798270">
        <ele>66.0</ele>
        <time>2022-01-08T15:40:36Z</time>
      </trkpt>
      <trkpt lat="36.7470970" lon="-3.7798370">
        <ele>67.0</ele>
        <time>2022-01-08T15:40:37Z</time>
      </trkpt>
      <trkpt lat="36.7471160" lon="-3.7798500">
        <ele>67.0</ele>
        <time>2022-01-08T15:40:38Z</time>
      </trkpt>
      <trkpt lat="36.7471160" lon="-3.7798500">
        <ele>67.0</ele>
        <time>2022-01-08T15:40:39Z</time>
      </trkpt>
      <trkpt lat="36.7471350" lon="-3.7798690">
        <ele>67.0</ele>
        <time>2022-01-08T15:40:40Z</time>
      </trkpt>
      <trkpt lat="36.7471350" lon="-3.7798690">
        <ele>67.0</ele>
        <time>2022-01-08T15:40:41Z</time>
      </trkpt>
      <trkpt lat="36.7471540" lon="-3.7798850">
        <ele>67.0</ele>
        <time>2022-01-08T15:40:42Z</time>
      </trkpt>
      <trkpt lat="36.7471540" lon="-3.7798850">
        <ele>68.0</ele>
        <time>2022-01-08T15:40:43Z</time>
      </trkpt>
      <trkpt lat="36.7471670" lon="-3.7799080">
        <ele>68.0</ele>
        <time>2022-01-08T15:40:44Z</time>
      </trkpt>
      <trkpt lat="36.7471670" lon="-3.7799080">
        <ele>68.0</ele>
        <time>2022-01-08T15:40:45Z</time>
      </trkpt>
      <trkpt lat="36.7471710" lon="-3.7799340">
        <ele>69.0</ele>
        <time>2022-01-08T15:40:46Z</time>
      </trkpt>
      <trkpt lat="36.7471710" lon="-3.7799340">
        <ele>69.0</ele>
        <time>2022-01-08T15:40:47Z</time>
      </trkpt>
      <trkpt lat="36.7471820" lon="-3.7799420">
        <ele>69.0</ele>
        <time>2022-01-08T15:40:48Z</time>
      </trkpt>
      <trkpt lat="36.7471920" lon="-3.7799500">
        <ele>69.0</ele>
        <time>2022-01-08T15:40:49Z</time>
      </trkpt>
      <trkpt lat="36.7472030" lon="-3.7799580">
        <ele>69.0</ele>
        <time>2022-01-08T15:40:50Z</time>
      </trkpt>
      <trkpt lat="36.7472130" lon="-3.7799650">
        <ele>69.0</ele>
        <time>2022-01-08T15:40:51Z</time>
      </trkpt>
      <trkpt lat="36.7472180" lon="-3.7799880">
        <ele>69.0</ele>
        <time>2022-01-08T15:40:52Z</time>
      </trkpt>
      <trkpt lat="36.7472180" lon="-3.7799880">
        <ele>69.0</ele>
        <time>2022-01-08T15:40:53Z</time>
      </trkpt>
      <trkpt lat="36.7472220" lon="-3.7800120">
        <ele>69.0</ele>
        <time>2022-01-08T15:40:54Z</time>
      </trkpt>
      <trkpt lat="36.7472220" lon="-3.7800120">
        <ele>69.0</ele>
        <time>2022-01-08T15:40:55Z</time>
      </trkpt>
      <trkpt lat="36.7472220" lon="-3.7800120">
        <ele>69.0</ele>
        <time>2022-01-08T15:40:56Z</time>
      </trkpt>
      <trkpt lat="36.7472200" lon="-3.7800340">
        <ele>69.0</ele>
        <time>2022-01-08T15:40:57Z</time>
      </trkpt>
      <trkpt lat="36.7472200" lon="-3.7800340">
        <ele>70.0</ele>
        <time>2022-01-08T15:40:58Z</time>
      </trkpt>
      <trkpt lat="36.7472180" lon="-3.7800300">
        <ele>70.0</ele>
        <time>2022-01-08T15:40:59Z</time>
      </trkpt>
      <trkpt lat="36.7472160" lon="-3.7800250">
        <ele>71.0</ele>
        <time>2022-01-08T15:41:00Z</time>
      </trkpt>
      <trkpt lat="36.7472140" lon="-3.7800200">
        <ele>71.0</ele>
        <time>2022-01-08T15:41:01Z</time>
      </trkpt>
      <trkpt lat="36.7472120" lon="-3.7800160">
        <ele>71.0</ele>
        <time>2022-01-08T15:41:02Z</time>
      </trkpt>
      <trkpt lat="36.7472090" lon="-3.7800110">
        <ele>71.0</ele>
        <time>2022-01-08T15:41:03Z</time>
      </trkpt>
      <trkpt lat="36.7472070" lon="-3.7800070">
        <ele>71.0</ele>
        <time>2022-01-08T15:41:04Z</time>
      </trkpt>
      <trkpt lat="36.7472050" lon="-3.7800020">
        <ele>71.0</ele>
        <time>2022-01-08T15:41:05Z</time>
      </trkpt>
      <trkpt lat="36.7472030" lon="-3.7799970">
        <ele>71.0</ele>
        <time>2022-01-08T15:41:06Z</time>
      </trkpt>
      <trkpt lat="36.7472010" lon="-3.7799930">
        <ele>71.0</ele>
        <time>2022-01-08T15:41:07Z</time>
      </trkpt>
      <trkpt lat="36.7471980" lon="-3.7799880">
        <ele>71.0</ele>
        <time>2022-01-08T15:41:08Z</time>
      </trkpt>
      <trkpt lat="36.7471960" lon="-3.7799840">
        <ele>71.0</ele>
        <time>2022-01-08T15:41:09Z</time>
      </trkpt>
      <trkpt lat="36.7472010" lon="-3.7799870">
        <ele>71.0</ele>
        <time>2022-01-08T15:41:10Z</time>
      </trkpt>
      <trkpt lat="36.7472060" lon="-3.7799900">
        <ele>71.0</ele>
        <time>2022-01-08T15:41:11Z</time>
      </trkpt>
      <trkpt lat="36.7472110" lon="-3.7799930">
        <ele>71.0</ele>
        <time>2022-01-08T15:41:12Z</time>
      </trkpt>
      <trkpt lat="36.7472160" lon="-3.7799960">
        <ele>71.0</ele>
        <time>2022-01-08T15:41:13Z</time>
      </trkpt>
      <trkpt lat="36.7472210" lon="-3.7799990">
        <ele>71.0</ele>
        <time>2022-01-08T15:41:14Z</time>
      </trkpt>
      <trkpt lat="36.7472250" lon="-3.7800020">
        <ele>71.0</ele>
        <time>2022-01-08T15:41:15Z</time>
      </trkpt>
      <trkpt lat="36.7472300" lon="-3.7800050">
        <ele>71.0</ele>
        <time>2022-01-08T15:41:16Z</time>
      </trkpt>
      <trkpt lat="36.7472470" lon="-3.7799930">
        <ele>71.0</ele>
        <time>2022-01-08T15:41:17Z</time>
      </trkpt>
      <trkpt lat="36.7472470" lon="-3.7799930">
        <ele>71.0</ele>
        <time>2022-01-08T15:41:18Z</time>
      </trkpt>
      <trkpt lat="36.7472660" lon="-3.7799870">
        <ele>71.0</ele>
        <time>2022-01-08T15:41:19Z</time>
      </trkpt>
      <trkpt lat="36.7472660" lon="-3.7799870">
        <ele>71.0</ele>
        <time>2022-01-08T15:41:20Z</time>
      </trkpt>
      <trkpt lat="36.7472940" lon="-3.7799650">
        <ele>71.0</ele>
        <time>2022-01-08T15:41:21Z</time>
      </trkpt>
      <trkpt lat="36.7472940" lon="-3.7799650">
        <ele>71.0</ele>
        <time>2022-01-08T15:41:22Z</time>
      </trkpt>
      <trkpt lat="36.7473230" lon="-3.7799470">
        <ele>72.0</ele>
        <time>2022-01-08T15:41:23Z</time>
      </trkpt>
      <trkpt lat="36.7473550" lon="-3.7799450">
        <ele>72.0</ele>
        <time>2022-01-08T15:41:24Z</time>
      </trkpt>
      <trkpt lat="36.7473830" lon="-3.7799440">
        <ele>72.0</ele>
        <time>2022-01-08T15:41:25Z</time>
      </trkpt>
      <trkpt lat="36.7474020" lon="-3.7799470">
        <ele>72.0</ele>
        <time>2022-01-08T15:41:26Z</time>
      </trkpt>
      <trkpt lat="36.7474020" lon="-3.7799470">
        <ele>72.0</ele>
        <time>2022-01-08T15:41:27Z</time>
      </trkpt>
      <trkpt lat="36.7474330" lon="-3.7799550">
        <ele>72.0</ele>
        <time>2022-01-08T15:41:28Z</time>
      </trkpt>
      <trkpt lat="36.7474330" lon="-3.7799550">
        <ele>72.0</ele>
        <time>2022-01-08T15:41:29Z</time>
      </trkpt>
      <trkpt lat="36.7474590" lon="-3.7799570">
        <ele>72.0</ele>
        <time>2022-01-08T15:41:30Z</time>
      </trkpt>
      <trkpt lat="36.7474590" lon="-3.7799570">
        <ele>72.0</ele>
        <time>2022-01-08T15:41:31Z</time>
      </trkpt>
      <trkpt lat="36.7474800" lon="-3.7799800">
        <ele>72.0</ele>
        <time>2022-01-08T15:41:32Z</time>
      </trkpt>
      <trkpt lat="36.7474800" lon="-3.7799800">
        <ele>72.0</ele>
        <time>2022-01-08T15:41:33Z</time>
      </trkpt>
      <trkpt lat="36.7475000" lon="-3.7800180">
        <ele>73.0</ele>
        <time>2022-01-08T15:41:34Z</time>
      </trkpt>
      <trkpt lat="36.7475160" lon="-3.7800380">
        <ele>73.0</ele>
        <time>2022-01-08T15:41:35Z</time>
      </trkpt>
      <trkpt lat="36.7475320" lon="-3.7800520">
        <ele>73.0</ele>
        <time>2022-01-08T15:41:36Z</time>
      </trkpt>
      <trkpt lat="36.7475320" lon="-3.7800520">
        <ele>73.0</ele>
        <time>2022-01-08T15:41:37Z</time>
      </trkpt>
      <trkpt lat="36.7475590" lon="-3.7800630">
        <ele>74.0</ele>
        <time>2022-01-08T15:41:38Z</time>
      </trkpt>
      <trkpt lat="36.7475590" lon="-3.7800630">
        <ele>74.0</ele>
        <time>2022-01-08T15:41:39Z</time>
      </trkpt>
      <trkpt lat="36.7475920" lon="-3.7800700">
        <ele>74.0</ele>
        <time>2022-01-08T15:41:40Z</time>
      </trkpt>
      <trkpt lat="36.7476110" lon="-3.7800770">
        <ele>74.0</ele>
        <time>2022-01-08T15:41:41Z</time>
      </trkpt>
      <trkpt lat="36.7476110" lon="-3.7800770">
        <ele>74.0</ele>
        <time>2022-01-08T15:41:42Z</time>
      </trkpt>
      <trkpt lat="36.7476340" lon="-3.7800860">
        <ele>73.0</ele>
        <time>2022-01-08T15:41:43Z</time>
      </trkpt>
      <trkpt lat="36.7476340" lon="-3.7800860">
        <ele>73.0</ele>
        <time>2022-01-08T15:41:44Z</time>
      </trkpt>
      <trkpt lat="36.7476340" lon="-3.7800860">
        <ele>73.0</ele>
        <time>2022-01-08T15:41:45Z</time>
      </trkpt>
      <trkpt lat="36.7476550" lon="-3.7800990">
        <ele>73.0</ele>
        <time>2022-01-08T15:41:46Z</time>
      </trkpt>
      <trkpt lat="36.7476550" lon="-3.7800990">
        <ele>74.0</ele>
        <time>2022-01-08T15:41:47Z</time>
      </trkpt>
      <trkpt lat="36.7476550" lon="-3.7800990">
        <ele>74.0</ele>
        <time>2022-01-08T15:41:48Z</time>
      </trkpt>
      <trkpt lat="36.7476800" lon="-3.7801010">
        <ele>74.0</ele>
        <time>2022-01-08T15:41:49Z</time>
      </trkpt>
      <trkpt lat="36.7476990" lon="-3.7801000">
        <ele>74.0</ele>
        <time>2022-01-08T15:41:50Z</time>
      </trkpt>
      <trkpt lat="36.7476990" lon="-3.7801000">
        <ele>75.0</ele>
        <time>2022-01-08T15:41:51Z</time>
      </trkpt>
      <trkpt lat="36.7477320" lon="-3.7800960">
        <ele>75.0</ele>
        <time>2022-01-08T15:41:52Z</time>
      </trkpt>
      <trkpt lat="36.7477320" lon="-3.7800960">
        <ele>75.0</ele>
        <time>2022-01-08T15:41:53Z</time>
      </trkpt>
      <trkpt lat="36.7477470" lon="-3.7800960">
        <ele>75.0</ele>
        <time>2022-01-08T15:41:54Z</time>
      </trkpt>
      <trkpt lat="36.7477610" lon="-3.7800960">
        <ele>75.0</ele>
        <time>2022-01-08T15:41:55Z</time>
      </trkpt>
      <trkpt lat="36.7477750" lon="-3.7800960">
        <ele>76.0</ele>
        <time>2022-01-08T15:41:56Z</time>
      </trkpt>
      <trkpt lat="36.7477890" lon="-3.7800960">
        <ele>76.0</ele>
        <time>2022-01-08T15:41:57Z</time>
      </trkpt>
      <trkpt lat="36.7478210" lon="-3.7800900">
        <ele>76.0</ele>
        <time>2022-01-08T15:41:58Z</time>
      </trkpt>
      <trkpt lat="36.7478210" lon="-3.7800900">
        <ele>77.0</ele>
        <time>2022-01-08T15:41:59Z</time>
      </trkpt>
      <trkpt lat="36.7478520" lon="-3.7800870">
        <ele>77.0</ele>
        <time>2022-01-08T15:42:00Z</time>
      </trkpt>
      <trkpt lat="36.7478520" lon="-3.7800870">
        <ele>77.0</ele>
        <time>2022-01-08T15:42:01Z</time>
      </trkpt>
      <trkpt lat="36.7478650" lon="-3.7800860">
        <ele>78.0</ele>
        <time>2022-01-08T15:42:02Z</time>
      </trkpt>
      <trkpt lat="36.7478780" lon="-3.7800850">
        <ele>78.0</ele>
        <time>2022-01-08T15:42:03Z</time>
      </trkpt>
      <trkpt lat="36.7478910" lon="-3.7800840">
        <ele>78.0</ele>
        <time>2022-01-08T15:42:04Z</time>
      </trkpt>
      <trkpt lat="36.7479050" lon="-3.7800830">
        <ele>78.0</ele>
        <time>2022-01-08T15:42:05Z</time>
      </trkpt>
      <trkpt lat="36.7479180" lon="-3.7800810">
        <ele>79.0</ele>
        <time>2022-01-08T15:42:06Z</time>
      </trkpt>
      <trkpt lat="36.7479310" lon="-3.7800800">
        <ele>79.0</ele>
        <time>2022-01-08T15:42:07Z</time>
      </trkpt>
      <trkpt lat="36.7479440" lon="-3.7800790">
        <ele>80.0</ele>
        <time>2022-01-08T15:42:08Z</time>
      </trkpt>
      <trkpt lat="36.7479660" lon="-3.7800750">
        <ele>80.0</ele>
        <time>2022-01-08T15:42:09Z</time>
      </trkpt>
      <trkpt lat="36.7479660" lon="-3.7800750">
        <ele>81.0</ele>
        <time>2022-01-08T15:42:10Z</time>
      </trkpt>
      <trkpt lat="36.7479660" lon="-3.7800750">
        <ele>81.0</ele>
        <time>2022-01-08T15:42:11Z</time>
      </trkpt>
      <trkpt lat="36.7479920" lon="-3.7800720">
        <ele>81.0</ele>
        <time>2022-01-08T15:42:12Z</time>
      </trkpt>
      <trkpt lat="36.7479920" lon="-3.7800720">
        <ele>81.0</ele>
        <time>2022-01-08T15:42:13Z</time>
      </trkpt>
      <trkpt lat="36.7480150" lon="-3.7800680">
        <ele>82.0</ele>
        <time>2022-01-08T15:42:14Z</time>
      </trkpt>
      <trkpt lat="36.7480150" lon="-3.7800680">
        <ele>82.0</ele>
        <time>2022-01-08T15:42:15Z</time>
      </trkpt>
      <trkpt lat="36.7480410" lon="-3.7800690">
        <ele>82.0</ele>
        <time>2022-01-08T15:42:16Z</time>
      </trkpt>
      <trkpt lat="36.7480410" lon="-3.7800690">
        <ele>82.0</ele>
        <time>2022-01-08T15:42:17Z</time>
      </trkpt>
      <trkpt lat="36.7480640" lon="-3.7800610">
        <ele>82.0</ele>
        <time>2022-01-08T15:42:18Z</time>
      </trkpt>
      <trkpt lat="36.7480640" lon="-3.7800610">
        <ele>82.0</ele>
        <time>2022-01-08T15:42:19Z</time>
      </trkpt>
      <trkpt lat="36.7480850" lon="-3.7800560">
        <ele>82.0</ele>
        <time>2022-01-08T15:42:20Z</time>
      </trkpt>
      <trkpt lat="36.7480850" lon="-3.7800560">
        <ele>82.0</ele>
        <time>2022-01-08T15:42:21Z</time>
      </trkpt>
      <trkpt lat="36.7480940" lon="-3.7800650">
        <ele>82.0</ele>
        <time>2022-01-08T15:42:22Z</time>
      </trkpt>
      <trkpt lat="36.7481030" lon="-3.7800750">
        <ele>83.0</ele>
        <time>2022-01-08T15:42:23Z</time>
      </trkpt>
      <trkpt lat="36.7481120" lon="-3.7800840">
        <ele>83.0</ele>
        <time>2022-01-08T15:42:24Z</time>
      </trkpt>
      <trkpt lat="36.7481210" lon="-3.7800940">
        <ele>83.0</ele>
        <time>2022-01-08T15:42:25Z</time>
      </trkpt>
      <trkpt lat="36.7481300" lon="-3.7801030">
        <ele>84.0</ele>
        <time>2022-01-08T15:42:26Z</time>
      </trkpt>
      <trkpt lat="36.7481390" lon="-3.7801120">
        <ele>84.0</ele>
        <time>2022-01-08T15:42:27Z</time>
      </trkpt>
      <trkpt lat="36.7481480" lon="-3.7801220">
        <ele>84.0</ele>
        <time>2022-01-08T15:42:28Z</time>
      </trkpt>
      <trkpt lat="36.7481570" lon="-3.7801310">
        <ele>84.0</ele>
        <time>2022-01-08T15:42:29Z</time>
      </trkpt>
      <trkpt lat="36.7481710" lon="-3.7801250">
        <ele>85.0</ele>
        <time>2022-01-08T15:42:30Z</time>
      </trkpt>
      <trkpt lat="36.7481850" lon="-3.7801190">
        <ele>85.0</ele>
        <time>2022-01-08T15:42:31Z</time>
      </trkpt>
      <trkpt lat="36.7481990" lon="-3.7801140">
        <ele>86.0</ele>
        <time>2022-01-08T15:42:32Z</time>
      </trkpt>
      <trkpt lat="36.7482120" lon="-3.7801080">
        <ele>86.0</ele>
        <time>2022-01-08T15:42:33Z</time>
      </trkpt>
      <trkpt lat="36.7482260" lon="-3.7801020">
        <ele>86.0</ele>
        <time>2022-01-08T15:42:34Z</time>
      </trkpt>
      <trkpt lat="36.7482400" lon="-3.7800960">
        <ele>86.0</ele>
        <time>2022-01-08T15:42:35Z</time>
      </trkpt>
      <trkpt lat="36.7482540" lon="-3.7800900">
        <ele>86.0</ele>
        <time>2022-01-08T15:42:36Z</time>
      </trkpt>
      <trkpt lat="36.7482680" lon="-3.7800880">
        <ele>86.0</ele>
        <time>2022-01-08T15:42:37Z</time>
      </trkpt>
      <trkpt lat="36.7482820" lon="-3.7800860">
        <ele>86.0</ele>
        <time>2022-01-08T15:42:38Z</time>
      </trkpt>
      <trkpt lat="36.7482960" lon="-3.7800840">
        <ele>86.0</ele>
        <time>2022-01-08T15:42:39Z</time>
      </trkpt>
      <trkpt lat="36.7483110" lon="-3.7800820">
        <ele>86.0</ele>
        <time>2022-01-08T15:42:40Z</time>
      </trkpt>
      <trkpt lat="36.7483380" lon="-3.7800780">
        <ele>86.0</ele>
        <time>2022-01-08T15:42:41Z</time>
      </trkpt>
      <trkpt lat="36.7483380" lon="-3.7800780">
        <ele>86.0</ele>
        <time>2022-01-08T15:42:42Z</time>
      </trkpt>
      <trkpt lat="36.7483490" lon="-3.7800810">
        <ele>86.0</ele>
        <time>2022-01-08T15:42:43Z</time>
      </trkpt>
      <trkpt lat="36.7483600" lon="-3.7800830">
        <ele>86.0</ele>
        <time>2022-01-08T15:42:44Z</time>
      </trkpt>
      <trkpt lat="36.7483720" lon="-3.7800860">
        <ele>86.0</ele>
        <time>2022-01-08T15:42:45Z</time>
      </trkpt>
      <trkpt lat="36.7483830" lon="-3.7800880">
        <ele>86.0</ele>
        <time>2022-01-08T15:42:46Z</time>
      </trkpt>
      <trkpt lat="36.7483940" lon="-3.7800910">
        <ele>86.0</ele>
        <time>2022-01-08T15:42:47Z</time>
      </trkpt>
      <trkpt lat="36.7484050" lon="-3.7800930">
        <ele>86.0</ele>
        <time>2022-01-08T15:42:48Z</time>
      </trkpt>
      <trkpt lat="36.7484360" lon="-3.7800970">
        <ele>86.0</ele>
        <time>2022-01-08T15:42:49Z</time>
      </trkpt>
      <trkpt lat="36.7484360" lon="-3.7800970">
        <ele>87.0</ele>
        <time>2022-01-08T15:42:50Z</time>
      </trkpt>
      <trkpt lat="36.7484570" lon="-3.7801070">
        <ele>87.0</ele>
        <time>2022-01-08T15:42:51Z</time>
      </trkpt>
      <trkpt lat="36.7484790" lon="-3.7801160">
        <ele>87.0</ele>
        <time>2022-01-08T15:42:52Z</time>
      </trkpt>
      <trkpt lat="36.7485010" lon="-3.7801260">
        <ele>87.0</ele>
        <time>2022-01-08T15:42:53Z</time>
      </trkpt>
      <trkpt lat="36.7485200" lon="-3.7801370">
        <ele>87.0</ele>
        <time>2022-01-08T15:42:54Z</time>
      </trkpt>
      <trkpt lat="36.7485390" lon="-3.7801480">
        <ele>87.0</ele>
        <time>2022-01-08T15:42:55Z</time>
      </trkpt>
      <trkpt lat="36.7485580" lon="-3.7801580">
        <ele>88.0</ele>
        <time>2022-01-08T15:42:56Z</time>
      </trkpt>
      <trkpt lat="36.7485770" lon="-3.7801690">
        <ele>89.0</ele>
        <time>2022-01-08T15:42:57Z</time>
      </trkpt>
      <trkpt lat="36.7485960" lon="-3.7801800">
        <ele>89.0</ele>
        <time>2022-01-08T15:42:58Z</time>
      </trkpt>
      <trkpt lat="36.7486190" lon="-3.7801870">
        <ele>89.0</ele>
        <time>2022-01-08T15:42:59Z</time>
      </trkpt>
      <trkpt lat="36.7486420" lon="-3.7801930">
        <ele>89.0</ele>
        <time>2022-01-08T15:43:00Z</time>
      </trkpt>
      <trkpt lat="36.7486650" lon="-3.7802000">
        <ele>89.0</ele>
        <time>2022-01-08T15:43:01Z</time>
      </trkpt>
      <trkpt lat="36.7486880" lon="-3.7802060">
        <ele>89.0</ele>
        <time>2022-01-08T15:43:02Z</time>
      </trkpt>
      <trkpt lat="36.7487120" lon="-3.7802140">
        <ele>89.0</ele>
        <time>2022-01-08T15:43:03Z</time>
      </trkpt>
      <trkpt lat="36.7487350" lon="-3.7802210">
        <ele>89.0</ele>
        <time>2022-01-08T15:43:04Z</time>
      </trkpt>
      <trkpt lat="36.7487590" lon="-3.7802290">
        <ele>89.0</ele>
        <time>2022-01-08T15:43:05Z</time>
      </trkpt>
      <trkpt lat="36.7487820" lon="-3.7802370">
        <ele>89.0</ele>
        <time>2022-01-08T15:43:06Z</time>
      </trkpt>
      <trkpt lat="36.7487990" lon="-3.7802600">
        <ele>89.0</ele>
        <time>2022-01-08T15:43:07Z</time>
      </trkpt>
      <trkpt lat="36.7488150" lon="-3.7802830">
        <ele>89.0</ele>
        <time>2022-01-08T15:43:08Z</time>
      </trkpt>
      <trkpt lat="36.7488320" lon="-3.7803050">
        <ele>90.0</ele>
        <time>2022-01-08T15:43:09Z</time>
      </trkpt>
      <trkpt lat="36.7488480" lon="-3.7803280">
        <ele>90.0</ele>
        <time>2022-01-08T15:43:10Z</time>
      </trkpt>
      <trkpt lat="36.7488660" lon="-3.7803690">
        <ele>90.0</ele>
        <time>2022-01-08T15:43:11Z</time>
      </trkpt>
      <trkpt lat="36.7488810" lon="-3.7803880">
        <ele>90.0</ele>
        <time>2022-01-08T15:43:12Z</time>
      </trkpt>
      <trkpt lat="36.7488960" lon="-3.7804040">
        <ele>90.0</ele>
        <time>2022-01-08T15:43:13Z</time>
      </trkpt>
      <trkpt lat="36.7488960" lon="-3.7804040">
        <ele>90.0</ele>
        <time>2022-01-08T15:43:14Z</time>
      </trkpt>
      <trkpt lat="36.7489130" lon="-3.7804310">
        <ele>91.0</ele>
        <time>2022-01-08T15:43:15Z</time>
      </trkpt>
      <trkpt lat="36.7489310" lon="-3.7804580">
        <ele>91.0</ele>
        <time>2022-01-08T15:43:16Z</time>
      </trkpt>
      <trkpt lat="36.7489480" lon="-3.7804840">
        <ele>91.0</ele>
        <time>2022-01-08T15:43:17Z</time>
      </trkpt>
      <trkpt lat="36.7489650" lon="-3.7805110">
        <ele>91.0</ele>
        <time>2022-01-08T15:43:18Z</time>
      </trkpt>
      <trkpt lat="36.7489790" lon="-3.7805330">
        <ele>91.0</ele>
        <time>2022-01-08T15:43:19Z</time>
      </trkpt>
      <trkpt lat="36.7489920" lon="-3.7805550">
        <ele>91.0</ele>
        <time>2022-01-08T15:43:20Z</time>
      </trkpt>
      <trkpt lat="36.7490010" lon="-3.7805760">
        <ele>91.0</ele>
        <time>2022-01-08T15:43:21Z</time>
      </trkpt>
      <trkpt lat="36.7490110" lon="-3.7806000">
        <ele>91.0</ele>
        <time>2022-01-08T15:43:22Z</time>
      </trkpt>
      <trkpt lat="36.7490110" lon="-3.7806000">
        <ele>92.0</ele>
        <time>2022-01-08T15:43:23Z</time>
      </trkpt>
      <trkpt lat="36.7490340" lon="-3.7806350">
        <ele>93.0</ele>
        <time>2022-01-08T15:43:24Z</time>
      </trkpt>
      <trkpt lat="36.7490430" lon="-3.7806630">
        <ele>93.0</ele>
        <time>2022-01-08T15:43:25Z</time>
      </trkpt>
      <trkpt lat="36.7490580" lon="-3.7806890">
        <ele>93.0</ele>
        <time>2022-01-08T15:43:26Z</time>
      </trkpt>
      <trkpt lat="36.7490720" lon="-3.7807050">
        <ele>92.0</ele>
        <time>2022-01-08T15:43:27Z</time>
      </trkpt>
      <trkpt lat="36.7490840" lon="-3.7807260">
        <ele>93.0</ele>
        <time>2022-01-08T15:43:28Z</time>
      </trkpt>
      <trkpt lat="36.7490950" lon="-3.7807480">
        <ele>94.0</ele>
        <time>2022-01-08T15:43:29Z</time>
      </trkpt>
      <trkpt lat="36.7491080" lon="-3.7807680">
        <ele>94.0</ele>
        <time>2022-01-08T15:43:30Z</time>
      </trkpt>
      <trkpt lat="36.7491190" lon="-3.7807890">
        <ele>94.0</ele>
        <time>2022-01-08T15:43:31Z</time>
      </trkpt>
      <trkpt lat="36.7491330" lon="-3.7808080">
        <ele>94.0</ele>
        <time>2022-01-08T15:43:32Z</time>
      </trkpt>
      <trkpt lat="36.7491500" lon="-3.7808280">
        <ele>94.0</ele>
        <time>2022-01-08T15:43:33Z</time>
      </trkpt>
      <trkpt lat="36.7491670" lon="-3.7808480">
        <ele>94.0</ele>
        <time>2022-01-08T15:43:34Z</time>
      </trkpt>
      <trkpt lat="36.7491860" lon="-3.7808670">
        <ele>95.0</ele>
        <time>2022-01-08T15:43:35Z</time>
      </trkpt>
      <trkpt lat="36.7492070" lon="-3.7808800">
        <ele>95.0</ele>
        <time>2022-01-08T15:43:36Z</time>
      </trkpt>
      <trkpt lat="36.7492300" lon="-3.7808870">
        <ele>95.0</ele>
        <time>2022-01-08T15:43:37Z</time>
      </trkpt>
      <trkpt lat="36.7492510" lon="-3.7808950">
        <ele>95.0</ele>
        <time>2022-01-08T15:43:38Z</time>
      </trkpt>
      <trkpt lat="36.7492750" lon="-3.7809050">
        <ele>95.0</ele>
        <time>2022-01-08T15:43:39Z</time>
      </trkpt>
      <trkpt lat="36.7493000" lon="-3.7809140">
        <ele>95.0</ele>
        <time>2022-01-08T15:43:40Z</time>
      </trkpt>
      <trkpt lat="36.7493270" lon="-3.7809220">
        <ele>95.0</ele>
        <time>2022-01-08T15:43:41Z</time>
      </trkpt>
      <trkpt lat="36.7493270" lon="-3.7809220">
        <ele>95.0</ele>
        <time>2022-01-08T15:43:42Z</time>
      </trkpt>
      <trkpt lat="36.7493850" lon="-3.7809650">
        <ele>95.0</ele>
        <time>2022-01-08T15:43:43Z</time>
      </trkpt>
      <trkpt lat="36.7493960" lon="-3.7809760">
        <ele>95.0</ele>
        <time>2022-01-08T15:43:44Z</time>
      </trkpt>
      <trkpt lat="36.7494200" lon="-3.7809960">
        <ele>95.0</ele>
        <time>2022-01-08T15:43:45Z</time>
      </trkpt>
      <trkpt lat="36.7494510" lon="-3.7810090">
        <ele>95.0</ele>
        <time>2022-01-08T15:43:46Z</time>
      </trkpt>
      <trkpt lat="36.7494790" lon="-3.7810250">
        <ele>95.0</ele>
        <time>2022-01-08T15:43:47Z</time>
      </trkpt>
      <trkpt lat="36.7495040" lon="-3.7810470">
        <ele>94.0</ele>
        <time>2022-01-08T15:43:48Z</time>
      </trkpt>
      <trkpt lat="36.7495290" lon="-3.7810670">
        <ele>94.0</ele>
        <time>2022-01-08T15:43:49Z</time>
      </trkpt>
      <trkpt lat="36.7495290" lon="-3.7810670">
        <ele>94.0</ele>
        <time>2022-01-08T15:43:50Z</time>
      </trkpt>
      <trkpt lat="36.7495600" lon="-3.7811150">
        <ele>94.0</ele>
        <time>2022-01-08T15:43:51Z</time>
      </trkpt>
      <trkpt lat="36.7495650" lon="-3.7811470">
        <ele>94.0</ele>
        <time>2022-01-08T15:43:52Z</time>
      </trkpt>
      <trkpt lat="36.7495660" lon="-3.7811770">
        <ele>94.0</ele>
        <time>2022-01-08T15:43:53Z</time>
      </trkpt>
      <trkpt lat="36.7495610" lon="-3.7812080">
        <ele>95.0</ele>
        <time>2022-01-08T15:43:54Z</time>
      </trkpt>
      <trkpt lat="36.7495550" lon="-3.7812340">
        <ele>95.0</ele>
        <time>2022-01-08T15:43:55Z</time>
      </trkpt>
      <trkpt lat="36.7495490" lon="-3.7812640">
        <ele>95.0</ele>
        <time>2022-01-08T15:43:56Z</time>
      </trkpt>
      <trkpt lat="36.7495390" lon="-3.7812920">
        <ele>95.0</ele>
        <time>2022-01-08T15:43:57Z</time>
      </trkpt>
      <trkpt lat="36.7495280" lon="-3.7813210">
        <ele>95.0</ele>
        <time>2022-01-08T15:43:58Z</time>
      </trkpt>
      <trkpt lat="36.7495180" lon="-3.7813480">
        <ele>96.0</ele>
        <time>2022-01-08T15:43:59Z</time>
      </trkpt>
      <trkpt lat="36.7495060" lon="-3.7813720">
        <ele>96.0</ele>
        <time>2022-01-08T15:44:00Z</time>
      </trkpt>
      <trkpt lat="36.7494960" lon="-3.7813990">
        <ele>96.0</ele>
        <time>2022-01-08T15:44:01Z</time>
      </trkpt>
      <trkpt lat="36.7494860" lon="-3.7814240">
        <ele>96.0</ele>
        <time>2022-01-08T15:44:02Z</time>
      </trkpt>
      <trkpt lat="36.7494740" lon="-3.7814440">
        <ele>96.0</ele>
        <time>2022-01-08T15:44:03Z</time>
      </trkpt>
      <trkpt lat="36.7494610" lon="-3.7814650">
        <ele>97.0</ele>
        <time>2022-01-08T15:44:04Z</time>
      </trkpt>
      <trkpt lat="36.7494490" lon="-3.7814840">
        <ele>97.0</ele>
        <time>2022-01-08T15:44:05Z</time>
      </trkpt>
      <trkpt lat="36.7494490" lon="-3.7814840">
        <ele>97.0</ele>
        <time>2022-01-08T15:44:06Z</time>
      </trkpt>
      <trkpt lat="36.7494290" lon="-3.7815100">
        <ele>97.0</ele>
        <time>2022-01-08T15:44:07Z</time>
      </trkpt>
      <trkpt lat="36.7494290" lon="-3.7815100">
        <ele>97.0</ele>
        <time>2022-01-08T15:44:08Z</time>
      </trkpt>
      <trkpt lat="36.7494070" lon="-3.7815300">
        <ele>97.0</ele>
        <time>2022-01-08T15:44:09Z</time>
      </trkpt>
      <trkpt lat="36.7494070" lon="-3.7815300">
        <ele>97.0</ele>
        <time>2022-01-08T15:44:10Z</time>
      </trkpt>
      <trkpt lat="36.7493820" lon="-3.7815430">
        <ele>98.0</ele>
        <time>2022-01-08T15:44:11Z</time>
      </trkpt>
      <trkpt lat="36.7493820" lon="-3.7815430">
        <ele>98.0</ele>
        <time>2022-01-08T15:44:12Z</time>
      </trkpt>
      <trkpt lat="36.7493590" lon="-3.7815560">
        <ele>98.0</ele>
        <time>2022-01-08T15:44:13Z</time>
      </trkpt>
      <trkpt lat="36.7493590" lon="-3.7815560">
        <ele>98.0</ele>
        <time>2022-01-08T15:44:14Z</time>
      </trkpt>
      <trkpt lat="36.7493340" lon="-3.7815680">
        <ele>98.0</ele>
        <time>2022-01-08T15:44:15Z</time>
      </trkpt>
      <trkpt lat="36.7493340" lon="-3.7815680">
        <ele>99.0</ele>
        <time>2022-01-08T15:44:16Z</time>
      </trkpt>
      <trkpt lat="36.7493070" lon="-3.7815820">
        <ele>99.0</ele>
        <time>2022-01-08T15:44:17Z</time>
      </trkpt>
      <trkpt lat="36.7493070" lon="-3.7815820">
        <ele>99.0</ele>
        <time>2022-01-08T15:44:18Z</time>
      </trkpt>
      <trkpt lat="36.7492830" lon="-3.7815960">
        <ele>99.0</ele>
        <time>2022-01-08T15:44:19Z</time>
      </trkpt>
      <trkpt lat="36.7492830" lon="-3.7815960">
        <ele>99.0</ele>
        <time>2022-01-08T15:44:20Z</time>
      </trkpt>
      <trkpt lat="36.7492600" lon="-3.7816060">
        <ele>99.0</ele>
        <time>2022-01-08T15:44:21Z</time>
      </trkpt>
      <trkpt lat="36.7492600" lon="-3.7816060">
        <ele>99.0</ele>
        <time>2022-01-08T15:44:22Z</time>
      </trkpt>
      <trkpt lat="36.7492360" lon="-3.7816260">
        <ele>100.0</ele>
        <time>2022-01-08T15:44:23Z</time>
      </trkpt>
      <trkpt lat="36.7492360" lon="-3.7816260">
        <ele>101.0</ele>
        <time>2022-01-08T15:44:24Z</time>
      </trkpt>
      <trkpt lat="36.7492100" lon="-3.7816460">
        <ele>102.0</ele>
        <time>2022-01-08T15:44:25Z</time>
      </trkpt>
      <trkpt lat="36.7492100" lon="-3.7816460">
        <ele>102.0</ele>
        <time>2022-01-08T15:44:26Z</time>
      </trkpt>
      <trkpt lat="36.7491860" lon="-3.7816590">
        <ele>102.0</ele>
        <time>2022-01-08T15:44:27Z</time>
      </trkpt>
      <trkpt lat="36.7491860" lon="-3.7816590">
        <ele>102.0</ele>
        <time>2022-01-08T15:44:28Z</time>
      </trkpt>
      <trkpt lat="36.7491630" lon="-3.7816750">
        <ele>102.0</ele>
        <time>2022-01-08T15:44:29Z</time>
      </trkpt>
      <trkpt lat="36.7491630" lon="-3.7816750">
        <ele>102.0</ele>
        <time>2022-01-08T15:44:30Z</time>
      </trkpt>
      <trkpt lat="36.7491390" lon="-3.7816870">
        <ele>103.0</ele>
        <time>2022-01-08T15:44:31Z</time>
      </trkpt>
      <trkpt lat="36.7491390" lon="-3.7816870">
        <ele>103.0</ele>
        <time>2022-01-08T15:44:32Z</time>
      </trkpt>
      <trkpt lat="36.7491230" lon="-3.7817060">
        <ele>103.0</ele>
        <time>2022-01-08T15:44:33Z</time>
      </trkpt>
      <trkpt lat="36.7491230" lon="-3.7817060">
        <ele>103.0</ele>
        <time>2022-01-08T15:44:34Z</time>
      </trkpt>
      <trkpt lat="36.7491120" lon="-3.7817190">
        <ele>103.0</ele>
        <time>2022-01-08T15:44:35Z</time>
      </trkpt>
      <trkpt lat="36.7491010" lon="-3.7817320">
        <ele>107.0</ele>
        <time>2022-01-08T15:44:36Z</time>
      </trkpt>
      <trkpt lat="36.7490900" lon="-3.7817450">
        <ele>107.0</ele>
        <time>2022-01-08T15:44:37Z</time>
      </trkpt>
      <trkpt lat="36.7490640" lon="-3.7817730">
        <ele>107.0</ele>
        <time>2022-01-08T15:44:38Z</time>
      </trkpt>
      <trkpt lat="36.7490640" lon="-3.7817730">
        <ele>107.0</ele>
        <time>2022-01-08T15:44:39Z</time>
      </trkpt>
      <trkpt lat="36.7490400" lon="-3.7817860">
        <ele>107.0</ele>
        <time>2022-01-08T15:44:40Z</time>
      </trkpt>
      <trkpt lat="36.7490400" lon="-3.7817860">
        <ele>107.0</ele>
        <time>2022-01-08T15:44:41Z</time>
      </trkpt>
      <trkpt lat="36.7490070" lon="-3.7817940">
        <ele>108.0</ele>
        <time>2022-01-08T15:44:42Z</time>
      </trkpt>
      <trkpt lat="36.7490070" lon="-3.7817940">
        <ele>108.0</ele>
        <time>2022-01-08T15:44:43Z</time>
      </trkpt>
      <trkpt lat="36.7489580" lon="-3.7817930">
        <ele>108.0</ele>
        <time>2022-01-08T15:44:44Z</time>
      </trkpt>
      <trkpt lat="36.7489470" lon="-3.7817910">
        <ele>108.0</ele>
        <time>2022-01-08T15:44:45Z</time>
      </trkpt>
      <trkpt lat="36.7489260" lon="-3.7817850">
        <ele>108.0</ele>
        <time>2022-01-08T15:44:46Z</time>
      </trkpt>
      <trkpt lat="36.7489080" lon="-3.7817770">
        <ele>108.0</ele>
        <time>2022-01-08T15:44:47Z</time>
      </trkpt>
      <trkpt lat="36.7488880" lon="-3.7817680">
        <ele>109.0</ele>
        <time>2022-01-08T15:44:48Z</time>
      </trkpt>
      <trkpt lat="36.7488690" lon="-3.7817590">
        <ele>109.0</ele>
        <time>2022-01-08T15:44:49Z</time>
      </trkpt>
      <trkpt lat="36.7488500" lon="-3.7817480">
        <ele>109.0</ele>
        <time>2022-01-08T15:44:50Z</time>
      </trkpt>
      <trkpt lat="36.7488300" lon="-3.7817380">
        <ele>110.0</ele>
        <time>2022-01-08T15:44:51Z</time>
      </trkpt>
      <trkpt lat="36.7488300" lon="-3.7817380">
        <ele>110.0</ele>
        <time>2022-01-08T15:44:52Z</time>
      </trkpt>
      <trkpt lat="36.7487910" lon="-3.7817290">
        <ele>110.0</ele>
        <time>2022-01-08T15:44:53Z</time>
      </trkpt>
      <trkpt lat="36.7487910" lon="-3.7817290">
        <ele>110.0</ele>
        <time>2022-01-08T15:44:54Z</time>
      </trkpt>
      <trkpt lat="36.7487760" lon="-3.7817250">
        <ele>110.0</ele>
        <time>2022-01-08T15:44:55Z</time>
      </trkpt>
      <trkpt lat="36.7487610" lon="-3.7817210">
        <ele>111.0</ele>
        <time>2022-01-08T15:44:56Z</time>
      </trkpt>
      <trkpt lat="36.7487460" lon="-3.7817170">
        <ele>111.0</ele>
        <time>2022-01-08T15:44:57Z</time>
      </trkpt>
      <trkpt lat="36.7487310" lon="-3.7817130">
        <ele>111.0</ele>
        <time>2022-01-08T15:44:58Z</time>
      </trkpt>
      <trkpt lat="36.7487160" lon="-3.7817090">
        <ele>111.0</ele>
        <time>2022-01-08T15:44:59Z</time>
      </trkpt>
      <trkpt lat="36.7487010" lon="-3.7817040">
        <ele>111.0</ele>
        <time>2022-01-08T15:45:00Z</time>
      </trkpt>
      <trkpt lat="36.7486780" lon="-3.7817120">
        <ele>111.0</ele>
        <time>2022-01-08T15:45:01Z</time>
      </trkpt>
      <trkpt lat="36.7486560" lon="-3.7817200">
        <ele>112.0</ele>
        <time>2022-01-08T15:45:02Z</time>
      </trkpt>
      <trkpt lat="36.7486340" lon="-3.7817280">
        <ele>113.0</ele>
        <time>2022-01-08T15:45:03Z</time>
      </trkpt>
      <trkpt lat="36.7486110" lon="-3.7817360">
        <ele>113.0</ele>
        <time>2022-01-08T15:45:04Z</time>
      </trkpt>
      <trkpt lat="36.7486180" lon="-3.7817610">
        <ele>113.0</ele>
        <time>2022-01-08T15:45:05Z</time>
      </trkpt>
      <trkpt lat="36.7486240" lon="-3.7817850">
        <ele>113.0</ele>
        <time>2022-01-08T15:45:06Z</time>
      </trkpt>
      <trkpt lat="36.7486310" lon="-3.7818090">
        <ele>113.0</ele>
        <time>2022-01-08T15:45:07Z</time>
      </trkpt>
      <trkpt lat="36.7486370" lon="-3.7818340">
        <ele>113.0</ele>
        <time>2022-01-08T15:45:08Z</time>
      </trkpt>
      <trkpt lat="36.7486440" lon="-3.7818580">
        <ele>114.0</ele>
        <time>2022-01-08T15:45:09Z</time>
      </trkpt>
      <trkpt lat="36.7486740" lon="-3.7818700">
        <ele>114.0</ele>
        <time>2022-01-08T15:45:10Z</time>
      </trkpt>
      <trkpt lat="36.7487050" lon="-3.7818820">
        <ele>114.0</ele>
        <time>2022-01-08T15:45:11Z</time>
      </trkpt>
      <trkpt lat="36.7487350" lon="-3.7818930">
        <ele>114.0</ele>
        <time>2022-01-08T15:45:12Z</time>
      </trkpt>
      <trkpt lat="36.7487350" lon="-3.7818930">
        <ele>114.0</ele>
        <time>2022-01-08T15:45:13Z</time>
      </trkpt>
      <trkpt lat="36.7487570" lon="-3.7819110">
        <ele>115.0</ele>
        <time>2022-01-08T15:45:14Z</time>
      </trkpt>
      <trkpt lat="36.7487800" lon="-3.7819290">
        <ele>115.0</ele>
        <time>2022-01-08T15:45:15Z</time>
      </trkpt>
      <trkpt lat="36.7488020" lon="-3.7819460">
        <ele>115.0</ele>
        <time>2022-01-08T15:45:16Z</time>
      </trkpt>
      <trkpt lat="36.7488240" lon="-3.7819640">
        <ele>116.0</ele>
        <time>2022-01-08T15:45:17Z</time>
      </trkpt>
      <trkpt lat="36.7488460" lon="-3.7819820">
        <ele>116.0</ele>
        <time>2022-01-08T15:45:18Z</time>
      </trkpt>
      <trkpt lat="36.7488630" lon="-3.7820010">
        <ele>116.0</ele>
        <time>2022-01-08T15:45:19Z</time>
      </trkpt>
      <trkpt lat="36.7488630" lon="-3.7820010">
        <ele>116.0</ele>
        <time>2022-01-08T15:45:20Z</time>
      </trkpt>
      <trkpt lat="36.7488790" lon="-3.7820210">
        <ele>117.0</ele>
        <time>2022-01-08T15:45:21Z</time>
      </trkpt>
      <trkpt lat="36.7488960" lon="-3.7820410">
        <ele>117.0</ele>
        <time>2022-01-08T15:45:22Z</time>
      </trkpt>
      <trkpt lat="36.7489120" lon="-3.7820610">
        <ele>117.0</ele>
        <time>2022-01-08T15:45:23Z</time>
      </trkpt>
      <trkpt lat="36.7489280" lon="-3.7820810">
        <ele>117.0</ele>
        <time>2022-01-08T15:45:24Z</time>
      </trkpt>
      <trkpt lat="36.7489460" lon="-3.7820960">
        <ele>117.0</ele>
        <time>2022-01-08T15:45:25Z</time>
      </trkpt>
      <trkpt lat="36.7489640" lon="-3.7821100">
        <ele>118.0</ele>
        <time>2022-01-08T15:45:26Z</time>
      </trkpt>
      <trkpt lat="36.7489820" lon="-3.7821240">
        <ele>118.0</ele>
        <time>2022-01-08T15:45:27Z</time>
      </trkpt>
      <trkpt lat="36.7489800" lon="-3.7821490">
        <ele>119.0</ele>
        <time>2022-01-08T15:45:28Z</time>
      </trkpt>
      <trkpt lat="36.7489790" lon="-3.7821730">
        <ele>119.0</ele>
        <time>2022-01-08T15:45:29Z</time>
      </trkpt>
      <trkpt lat="36.7489770" lon="-3.7821970">
        <ele>119.0</ele>
        <time>2022-01-08T15:45:30Z</time>
      </trkpt>
      <trkpt lat="36.7489760" lon="-3.7822220">
        <ele>119.0</ele>
        <time>2022-01-08T15:45:31Z</time>
      </trkpt>
      <trkpt lat="36.7489740" lon="-3.7822460">
        <ele>119.0</ele>
        <time>2022-01-08T15:45:32Z</time>
      </trkpt>
      <trkpt lat="36.7489570" lon="-3.7822600">
        <ele>119.0</ele>
        <time>2022-01-08T15:45:33Z</time>
      </trkpt>
      <trkpt lat="36.7489360" lon="-3.7822680">
        <ele>119.0</ele>
        <time>2022-01-08T15:45:34Z</time>
      </trkpt>
      <trkpt lat="36.7489160" lon="-3.7822730">
        <ele>120.0</ele>
        <time>2022-01-08T15:45:35Z</time>
      </trkpt>
      <trkpt lat="36.7489160" lon="-3.7822730">
        <ele>120.0</ele>
        <time>2022-01-08T15:45:36Z</time>
      </trkpt>
      <trkpt lat="36.7488630" lon="-3.7822780">
        <ele>121.0</ele>
        <time>2022-01-08T15:45:37Z</time>
      </trkpt>
      <trkpt lat="36.7488540" lon="-3.7822770">
        <ele>121.0</ele>
        <time>2022-01-08T15:45:38Z</time>
      </trkpt>
      <trkpt lat="36.7488540" lon="-3.7822770">
        <ele>121.0</ele>
        <time>2022-01-08T15:45:39Z</time>
      </trkpt>
      <trkpt lat="36.7487990" lon="-3.7822710">
        <ele>121.0</ele>
        <time>2022-01-08T15:45:40Z</time>
      </trkpt>
      <trkpt lat="36.7487880" lon="-3.7822720">
        <ele>122.0</ele>
        <time>2022-01-08T15:45:41Z</time>
      </trkpt>
      <trkpt lat="36.7487880" lon="-3.7822720">
        <ele>122.0</ele>
        <time>2022-01-08T15:45:42Z</time>
      </trkpt>
      <trkpt lat="36.7487630" lon="-3.7822630">
        <ele>123.0</ele>
        <time>2022-01-08T15:45:43Z</time>
      </trkpt>
      <trkpt lat="36.7487390" lon="-3.7822530">
        <ele>123.0</ele>
        <time>2022-01-08T15:45:44Z</time>
      </trkpt>
      <trkpt lat="36.7487140" lon="-3.7822430">
        <ele>124.0</ele>
        <time>2022-01-08T15:45:45Z</time>
      </trkpt>
      <trkpt lat="36.7486900" lon="-3.7822340">
        <ele>124.0</ele>
        <time>2022-01-08T15:45:46Z</time>
      </trkpt>
      <trkpt lat="36.7486650" lon="-3.7822240">
        <ele>124.0</ele>
        <time>2022-01-08T15:45:47Z</time>
      </trkpt>
      <trkpt lat="36.7486490" lon="-3.7822170">
        <ele>125.0</ele>
        <time>2022-01-08T15:45:48Z</time>
      </trkpt>
      <trkpt lat="36.7486270" lon="-3.7822130">
        <ele>125.0</ele>
        <time>2022-01-08T15:45:49Z</time>
      </trkpt>
      <trkpt lat="36.7486070" lon="-3.7822080">
        <ele>125.0</ele>
        <time>2022-01-08T15:45:50Z</time>
      </trkpt>
      <trkpt lat="36.7485880" lon="-3.7822060">
        <ele>125.0</ele>
        <time>2022-01-08T15:45:51Z</time>
      </trkpt>
      <trkpt lat="36.7485680" lon="-3.7822070">
        <ele>125.0</ele>
        <time>2022-01-08T15:45:52Z</time>
      </trkpt>
      <trkpt lat="36.7485460" lon="-3.7822080">
        <ele>125.0</ele>
        <time>2022-01-08T15:45:53Z</time>
      </trkpt>
      <trkpt lat="36.7485230" lon="-3.7822100">
        <ele>125.0</ele>
        <time>2022-01-08T15:45:54Z</time>
      </trkpt>
      <trkpt lat="36.7485010" lon="-3.7822150">
        <ele>126.0</ele>
        <time>2022-01-08T15:45:55Z</time>
      </trkpt>
      <trkpt lat="36.7484770" lon="-3.7822200">
        <ele>126.0</ele>
        <time>2022-01-08T15:45:56Z</time>
      </trkpt>
      <trkpt lat="36.7484540" lon="-3.7822280">
        <ele>126.0</ele>
        <time>2022-01-08T15:45:57Z</time>
      </trkpt>
      <trkpt lat="36.7484330" lon="-3.7822430">
        <ele>126.0</ele>
        <time>2022-01-08T15:45:58Z</time>
      </trkpt>
      <trkpt lat="36.7484110" lon="-3.7822570">
        <ele>125.0</ele>
        <time>2022-01-08T15:45:59Z</time>
      </trkpt>
      <trkpt lat="36.7484110" lon="-3.7822570">
        <ele>125.0</ele>
        <time>2022-01-08T15:46:00Z</time>
      </trkpt>
      <trkpt lat="36.7483770" lon="-3.7822980">
        <ele>125.0</ele>
        <time>2022-01-08T15:46:01Z</time>
      </trkpt>
      <trkpt lat="36.7483680" lon="-3.7823260">
        <ele>125.0</ele>
        <time>2022-01-08T15:46:02Z</time>
      </trkpt>
      <trkpt lat="36.7483670" lon="-3.7823580">
        <ele>125.0</ele>
        <time>2022-01-08T15:46:03Z</time>
      </trkpt>
      <trkpt lat="36.7483760" lon="-3.7823870">
        <ele>125.0</ele>
        <time>2022-01-08T15:46:04Z</time>
      </trkpt>
      <trkpt lat="36.7483910" lon="-3.7824110">
        <ele>125.0</ele>
        <time>2022-01-08T15:46:05Z</time>
      </trkpt>
      <trkpt lat="36.7484080" lon="-3.7824300">
        <ele>126.0</ele>
        <time>2022-01-08T15:46:06Z</time>
      </trkpt>
      <trkpt lat="36.7484240" lon="-3.7824470">
        <ele>126.0</ele>
        <time>2022-01-08T15:46:07Z</time>
      </trkpt>
      <trkpt lat="36.7484460" lon="-3.7824590">
        <ele>126.0</ele>
        <time>2022-01-08T15:46:08Z</time>
      </trkpt>
      <trkpt lat="36.7484700" lon="-3.7824700">
        <ele>126.0</ele>
        <time>2022-01-08T15:46:09Z</time>
      </trkpt>
      <trkpt lat="36.7484700" lon="-3.7824700">
        <ele>126.0</ele>
        <time>2022-01-08T15:46:10Z</time>
      </trkpt>
      <trkpt lat="36.7485010" lon="-3.7824950">
        <ele>127.0</ele>
        <time>2022-01-08T15:46:11Z</time>
      </trkpt>
      <trkpt lat="36.7485010" lon="-3.7824950">
        <ele>127.0</ele>
        <time>2022-01-08T15:46:12Z</time>
      </trkpt>
      <trkpt lat="36.7485310" lon="-3.7825010">
        <ele>127.0</ele>
        <time>2022-01-08T15:46:13Z</time>
      </trkpt>
      <trkpt lat="36.7485310" lon="-3.7825010">
        <ele>127.0</ele>
        <time>2022-01-08T15:46:14Z</time>
      </trkpt>
      <trkpt lat="36.7485600" lon="-3.7825030">
        <ele>127.0</ele>
        <time>2022-01-08T15:46:15Z</time>
      </trkpt>
      <trkpt lat="36.7485600" lon="-3.7825030">
        <ele>127.0</ele>
        <time>2022-01-08T15:46:16Z</time>
      </trkpt>
      <trkpt lat="36.7485950" lon="-3.7825110">
        <ele>128.0</ele>
        <time>2022-01-08T15:46:17Z</time>
      </trkpt>
      <trkpt lat="36.7485950" lon="-3.7825110">
        <ele>128.0</ele>
        <time>2022-01-08T15:46:18Z</time>
      </trkpt>
      <trkpt lat="36.7486260" lon="-3.7825240">
        <ele>129.0</ele>
        <time>2022-01-08T15:46:19Z</time>
      </trkpt>
      <trkpt lat="36.7486260" lon="-3.7825240">
        <ele>129.0</ele>
        <time>2022-01-08T15:46:20Z</time>
      </trkpt>
      <trkpt lat="36.7486540" lon="-3.7825340">
        <ele>129.0</ele>
        <time>2022-01-08T15:46:21Z</time>
      </trkpt>
      <trkpt lat="36.7486540" lon="-3.7825340">
        <ele>129.0</ele>
        <time>2022-01-08T15:46:22Z</time>
      </trkpt>
      <trkpt lat="36.7486790" lon="-3.7825420">
        <ele>129.0</ele>
        <time>2022-01-08T15:46:23Z</time>
      </trkpt>
      <trkpt lat="36.7486790" lon="-3.7825420">
        <ele>129.0</ele>
        <time>2022-01-08T15:46:24Z</time>
      </trkpt>
      <trkpt lat="36.7487040" lon="-3.7825460">
        <ele>129.0</ele>
        <time>2022-01-08T15:46:25Z</time>
      </trkpt>
      <trkpt lat="36.7487040" lon="-3.7825460">
        <ele>129.0</ele>
        <time>2022-01-08T15:46:26Z</time>
      </trkpt>
      <trkpt lat="36.7487350" lon="-3.7825510">
        <ele>130.0</ele>
        <time>2022-01-08T15:46:27Z</time>
      </trkpt>
      <trkpt lat="36.7487350" lon="-3.7825510">
        <ele>130.0</ele>
        <time>2022-01-08T15:46:28Z</time>
      </trkpt>
      <trkpt lat="36.7487640" lon="-3.7825590">
        <ele>130.0</ele>
        <time>2022-01-08T15:46:29Z</time>
      </trkpt>
      <trkpt lat="36.7487640" lon="-3.7825590">
        <ele>130.0</ele>
        <time>2022-01-08T15:46:30Z</time>
      </trkpt>
      <trkpt lat="36.7487900" lon="-3.7825700">
        <ele>130.0</ele>
        <time>2022-01-08T15:46:31Z</time>
      </trkpt>
      <trkpt lat="36.7487900" lon="-3.7825700">
        <ele>130.0</ele>
        <time>2022-01-08T15:46:32Z</time>
      </trkpt>
      <trkpt lat="36.7487900" lon="-3.7825700">
        <ele>130.0</ele>
        <time>2022-01-08T15:46:33Z</time>
      </trkpt>
      <trkpt lat="36.7488130" lon="-3.7825790">
        <ele>130.0</ele>
        <time>2022-01-08T15:46:34Z</time>
      </trkpt>
      <trkpt lat="36.7488410" lon="-3.7825870">
        <ele>130.0</ele>
        <time>2022-01-08T15:46:35Z</time>
      </trkpt>
      <trkpt lat="36.7488410" lon="-3.7825870">
        <ele>130.0</ele>
        <time>2022-01-08T15:46:36Z</time>
      </trkpt>
      <trkpt lat="36.7488650" lon="-3.7825960">
        <ele>130.0</ele>
        <time>2022-01-08T15:46:37Z</time>
      </trkpt>
      <trkpt lat="36.7488650" lon="-3.7825960">
        <ele>130.0</ele>
        <time>2022-01-08T15:46:38Z</time>
      </trkpt>
      <trkpt lat="36.7488730" lon="-3.7826220">
        <ele>130.0</ele>
        <time>2022-01-08T15:46:39Z</time>
      </trkpt>
      <trkpt lat="36.7488730" lon="-3.7826220">
        <ele>130.0</ele>
        <time>2022-01-08T15:46:40Z</time>
      </trkpt>
      <trkpt lat="36.7488730" lon="-3.7826220">
        <ele>130.0</ele>
        <time>2022-01-08T15:46:41Z</time>
      </trkpt>
      <trkpt lat="36.7488660" lon="-3.7826620">
        <ele>131.0</ele>
        <time>2022-01-08T15:46:42Z</time>
      </trkpt>
      <trkpt lat="36.7488660" lon="-3.7826620">
        <ele>131.0</ele>
        <time>2022-01-08T15:46:43Z</time>
      </trkpt>
      <trkpt lat="36.7488660" lon="-3.7826850">
        <ele>131.0</ele>
        <time>2022-01-08T15:46:44Z</time>
      </trkpt>
      <trkpt lat="36.7488660" lon="-3.7826850">
        <ele>131.0</ele>
        <time>2022-01-08T15:46:45Z</time>
      </trkpt>
      <trkpt lat="36.7488660" lon="-3.7826850">
        <ele>131.0</ele>
        <time>2022-01-08T15:46:46Z</time>
      </trkpt>
      <trkpt lat="36.7488840" lon="-3.7826980">
        <ele>132.0</ele>
        <time>2022-01-08T15:46:47Z</time>
      </trkpt>
      <trkpt lat="36.7488840" lon="-3.7826980">
        <ele>132.0</ele>
        <time>2022-01-08T15:46:48Z</time>
      </trkpt>
      <trkpt lat="36.7488840" lon="-3.7826980">
        <ele>133.0</ele>
        <time>2022-01-08T15:46:49Z</time>
      </trkpt>
      <trkpt lat="36.7489030" lon="-3.7827080">
        <ele>134.0</ele>
        <time>2022-01-08T15:46:50Z</time>
      </trkpt>
      <trkpt lat="36.7489030" lon="-3.7827080">
        <ele>134.0</ele>
        <time>2022-01-08T15:46:51Z</time>
      </trkpt>
      <trkpt lat="36.7489030" lon="-3.7827080">
        <ele>134.0</ele>
        <time>2022-01-08T15:46:52Z</time>
      </trkpt>
      <trkpt lat="36.7489220" lon="-3.7827180">
        <ele>134.0</ele>
        <time>2022-01-08T15:46:53Z</time>
      </trkpt>
      <trkpt lat="36.7489220" lon="-3.7827180">
        <ele>134.0</ele>
        <time>2022-01-08T15:46:54Z</time>
      </trkpt>
      <trkpt lat="36.7489410" lon="-3.7827340">
        <ele>135.0</ele>
        <time>2022-01-08T15:46:55Z</time>
      </trkpt>
      <trkpt lat="36.7489410" lon="-3.7827340">
        <ele>135.0</ele>
        <time>2022-01-08T15:46:56Z</time>
      </trkpt>
      <trkpt lat="36.7489600" lon="-3.7827310">
        <ele>136.0</ele>
        <time>2022-01-08T15:46:57Z</time>
      </trkpt>
      <trkpt lat="36.7489600" lon="-3.7827310">
        <ele>136.0</ele>
        <time>2022-01-08T15:46:58Z</time>
      </trkpt>
      <trkpt lat="36.7489800" lon="-3.7827370">
        <ele>136.0</ele>
        <time>2022-01-08T15:46:59Z</time>
      </trkpt>
      <trkpt lat="36.7489800" lon="-3.7827370">
        <ele>137.0</ele>
        <time>2022-01-08T15:47:00Z</time>
      </trkpt>
      <trkpt lat="36.7489990" lon="-3.7827360">
        <ele>137.0</ele>
        <time>2022-01-08T15:47:01Z</time>
      </trkpt>
      <trkpt lat="36.7489990" lon="-3.7827360">
        <ele>137.0</ele>
        <time>2022-01-08T15:47:02Z</time>
      </trkpt>
      <trkpt lat="36.7490200" lon="-3.7827330">
        <ele>137.0</ele>
        <time>2022-01-08T15:47:03Z</time>
      </trkpt>
      <trkpt lat="36.7490200" lon="-3.7827330">
        <ele>137.0</ele>
        <time>2022-01-08T15:47:04Z</time>
      </trkpt>
      <trkpt lat="36.7490490" lon="-3.7827310">
        <ele>137.0</ele>
        <time>2022-01-08T15:47:05Z</time>
      </trkpt>
      <trkpt lat="36.7490490" lon="-3.7827310">
        <ele>137.0</ele>
        <time>2022-01-08T15:47:06Z</time>
      </trkpt>
      <trkpt lat="36.7490720" lon="-3.7827210">
        <ele>137.0</ele>
        <time>2022-01-08T15:47:07Z</time>
      </trkpt>
      <trkpt lat="36.7490720" lon="-3.7827210">
        <ele>137.0</ele>
        <time>2022-01-08T15:47:08Z</time>
      </trkpt>
      <trkpt lat="36.7490720" lon="-3.7827210">
        <ele>138.0</ele>
        <time>2022-01-08T15:47:09Z</time>
      </trkpt>
      <trkpt lat="36.7490960" lon="-3.7827230">
        <ele>138.0</ele>
        <time>2022-01-08T15:47:10Z</time>
      </trkpt>
      <trkpt lat="36.7490960" lon="-3.7827230">
        <ele>138.0</ele>
        <time>2022-01-08T15:47:11Z</time>
      </trkpt>
      <trkpt lat="36.7490960" lon="-3.7827230">
        <ele>138.0</ele>
        <time>2022-01-08T15:47:12Z</time>
      </trkpt>
      <trkpt lat="36.7491210" lon="-3.7827280">
        <ele>138.0</ele>
        <time>2022-01-08T15:47:13Z</time>
      </trkpt>
      <trkpt lat="36.7491210" lon="-3.7827280">
        <ele>138.0</ele>
        <time>2022-01-08T15:47:14Z</time>
      </trkpt>
      <trkpt lat="36.7491210" lon="-3.7827280">
        <ele>139.0</ele>
        <time>2022-01-08T15:47:15Z</time>
      </trkpt>
      <trkpt lat="36.7491400" lon="-3.7827450">
        <ele>139.0</ele>
        <time>2022-01-08T15:47:16Z</time>
      </trkpt>
      <trkpt lat="36.7491400" lon="-3.7827450">
        <ele>139.0</ele>
        <time>2022-01-08T15:47:17Z</time>
      </trkpt>
      <trkpt lat="36.7491400" lon="-3.7827450">
        <ele>139.0</ele>
        <time>2022-01-08T15:47:18Z</time>
      </trkpt>
      <trkpt lat="36.7491590" lon="-3.7827550">
        <ele>140.0</ele>
        <time>2022-01-08T15:47:19Z</time>
      </trkpt>
      <trkpt lat="36.7491590" lon="-3.7827550">
        <ele>140.0</ele>
        <time>2022-01-08T15:47:20Z</time>
      </trkpt>
      <trkpt lat="36.7491590" lon="-3.7827550">
        <ele>141.0</ele>
        <time>2022-01-08T15:47:21Z</time>
      </trkpt>
      <trkpt lat="36.7491590" lon="-3.7827550">
        <ele>141.0</ele>
        <time>2022-01-08T15:47:22Z</time>
      </trkpt>
      <trkpt lat="36.7491590" lon="-3.7827550">
        <ele>142.0</ele>
        <time>2022-01-08T15:47:23Z</time>
      </trkpt>
      <trkpt lat="36.7491770" lon="-3.7827680">
        <ele>142.0</ele>
        <time>2022-01-08T15:47:24Z</time>
      </trkpt>
      <trkpt lat="36.7491770" lon="-3.7827680">
        <ele>143.0</ele>
        <time>2022-01-08T15:47:25Z</time>
      </trkpt>
      <trkpt lat="36.7491770" lon="-3.7827680">
        <ele>143.0</ele>
        <time>2022-01-08T15:47:26Z</time>
      </trkpt>
      <trkpt lat="36.7491770" lon="-3.7827680">
        <ele>143.0</ele>
        <time>2022-01-08T15:47:27Z</time>
      </trkpt>
      <trkpt lat="36.7491890" lon="-3.7827890">
        <ele>143.0</ele>
        <time>2022-01-08T15:47:28Z</time>
      </trkpt>
      <trkpt lat="36.7491890" lon="-3.7827890">
        <ele>143.0</ele>
        <time>2022-01-08T15:47:29Z</time>
      </trkpt>
      <trkpt lat="36.7491890" lon="-3.7827890">
        <ele>143.0</ele>
        <time>2022-01-08T15:47:30Z</time>
      </trkpt>
      <trkpt lat="36.7491890" lon="-3.7827890">
        <ele>144.0</ele>
        <time>2022-01-08T15:47:31Z</time>
      </trkpt>
      <trkpt lat="36.7492070" lon="-3.7828160">
        <ele>144.0</ele>
        <time>2022-01-08T15:47:32Z</time>
      </trkpt>
      <trkpt lat="36.7492070" lon="-3.7828160">
        <ele>145.0</ele>
        <time>2022-01-08T15:47:33Z</time>
      </trkpt>
      <trkpt lat="36.7492070" lon="-3.7828160">
        <ele>145.0</ele>
        <time>2022-01-08T15:47:34Z</time>
      </trkpt>
      <trkpt lat="36.7492070" lon="-3.7828160">
        <ele>145.0</ele>
        <time>2022-01-08T15:47:35Z</time>
      </trkpt>
      <trkpt lat="36.7492070" lon="-3.7828160">
        <ele>145.0</ele>
        <time>2022-01-08T15:47:36Z</time>
      </trkpt>
      <trkpt lat="36.7491960" lon="-3.7828370">
        <ele>146.0</ele>
        <time>2022-01-08T15:47:37Z</time>
      </trkpt>
      <trkpt lat="36.7491960" lon="-3.7828370">
        <ele>147.0</ele>
        <time>2022-01-08T15:47:38Z</time>
      </trkpt>
      <trkpt lat="36.7491700" lon="-3.7828530">
        <ele>147.0</ele>
        <time>2022-01-08T15:47:39Z</time>
      </trkpt>
      <trkpt lat="36.7491700" lon="-3.7828530">
        <ele>147.0</ele>
        <time>2022-01-08T15:47:40Z</time>
      </trkpt>
      <trkpt lat="36.7491570" lon="-3.7828720">
        <ele>147.0</ele>
        <time>2022-01-08T15:47:41Z</time>
      </trkpt>
      <trkpt lat="36.7491570" lon="-3.7828720">
        <ele>147.0</ele>
        <time>2022-01-08T15:47:42Z</time>
      </trkpt>
      <trkpt lat="36.7491570" lon="-3.7828720">
        <ele>147.0</ele>
        <time>2022-01-08T15:47:43Z</time>
      </trkpt>
      <trkpt lat="36.7491570" lon="-3.7828720">
        <ele>147.0</ele>
        <time>2022-01-08T15:47:44Z</time>
      </trkpt>
      <trkpt lat="36.7491360" lon="-3.7829120">
        <ele>147.0</ele>
        <time>2022-01-08T15:47:45Z</time>
      </trkpt>
      <trkpt lat="36.7491260" lon="-3.7829310">
        <ele>147.0</ele>
        <time>2022-01-08T15:47:46Z</time>
      </trkpt>
      <trkpt lat="36.7491260" lon="-3.7829310">
        <ele>147.0</ele>
        <time>2022-01-08T15:47:47Z</time>
      </trkpt>
      <trkpt lat="36.7491150" lon="-3.7829570">
        <ele>147.0</ele>
        <time>2022-01-08T15:47:48Z</time>
      </trkpt>
      <trkpt lat="36.7491150" lon="-3.7829570">
        <ele>147.0</ele>
        <time>2022-01-08T15:47:49Z</time>
      </trkpt>
      <trkpt lat="36.7491000" lon="-3.7829820">
        <ele>148.0</ele>
        <time>2022-01-08T15:47:50Z</time>
      </trkpt>
      <trkpt lat="36.7491000" lon="-3.7829820">
        <ele>148.0</ele>
        <time>2022-01-08T15:47:51Z</time>
      </trkpt>
      <trkpt lat="36.7490770" lon="-3.7829860">
        <ele>148.0</ele>
        <time>2022-01-08T15:47:52Z</time>
      </trkpt>
      <trkpt lat="36.7490770" lon="-3.7829860">
        <ele>148.0</ele>
        <time>2022-01-08T15:47:53Z</time>
      </trkpt>
      <trkpt lat="36.7490530" lon="-3.7829920">
        <ele>148.0</ele>
        <time>2022-01-08T15:47:54Z</time>
      </trkpt>
      <trkpt lat="36.7490530" lon="-3.7829920">
        <ele>149.0</ele>
        <time>2022-01-08T15:47:55Z</time>
      </trkpt>
      <trkpt lat="36.7490280" lon="-3.7830010">
        <ele>149.0</ele>
        <time>2022-01-08T15:47:56Z</time>
      </trkpt>
      <trkpt lat="36.7490280" lon="-3.7830010">
        <ele>149.0</ele>
        <time>2022-01-08T15:47:57Z</time>
      </trkpt>
      <trkpt lat="36.7490070" lon="-3.7830070">
        <ele>149.0</ele>
        <time>2022-01-08T15:47:58Z</time>
      </trkpt>
      <trkpt lat="36.7490070" lon="-3.7830070">
        <ele>149.0</ele>
        <time>2022-01-08T15:47:59Z</time>
      </trkpt>
      <trkpt lat="36.7490070" lon="-3.7830070">
        <ele>149.0</ele>
        <time>2022-01-08T15:48:00Z</time>
      </trkpt>
      <trkpt lat="36.7489900" lon="-3.7830130">
        <ele>149.0</ele>
        <time>2022-01-08T15:48:01Z</time>
      </trkpt>
      <trkpt lat="36.7489900" lon="-3.7830130">
        <ele>149.0</ele>
        <time>2022-01-08T15:48:02Z</time>
      </trkpt>
      <trkpt lat="36.7489900" lon="-3.7830130">
        <ele>149.0</ele>
        <time>2022-01-08T15:48:03Z</time>
      </trkpt>
      <trkpt lat="36.7489900" lon="-3.7830130">
        <ele>149.0</ele>
        <time>2022-01-08T15:48:04Z</time>
      </trkpt>
      <trkpt lat="36.7489740" lon="-3.7829980">
        <ele>149.0</ele>
        <time>2022-01-08T15:48:05Z</time>
      </trkpt>
      <trkpt lat="36.7489740" lon="-3.7829980">
        <ele>149.0</ele>
        <time>2022-01-08T15:48:06Z</time>
      </trkpt>
      <trkpt lat="36.7489550" lon="-3.7830070">
        <ele>149.0</ele>
        <time>2022-01-08T15:48:07Z</time>
      </trkpt>
      <trkpt lat="36.7489550" lon="-3.7830070">
        <ele>150.0</ele>
        <time>2022-01-08T15:48:08Z</time>
      </trkpt>
      <trkpt lat="36.7489320" lon="-3.7830190">
        <ele>150.0</ele>
        <time>2022-01-08T15:48:09Z</time>
      </trkpt>
      <trkpt lat="36.7489320" lon="-3.7830190">
        <ele>150.0</ele>
        <time>2022-01-08T15:48:10Z</time>
      </trkpt>
      <trkpt lat="36.7489080" lon="-3.7830330">
        <ele>151.0</ele>
        <time>2022-01-08T15:48:11Z</time>
      </trkpt>
      <trkpt lat="36.7489080" lon="-3.7830330">
        <ele>151.0</ele>
        <time>2022-01-08T15:48:12Z</time>
      </trkpt>
      <trkpt lat="36.7488750" lon="-3.7830560">
        <ele>151.0</ele>
        <time>2022-01-08T15:48:13Z</time>
      </trkpt>
      <trkpt lat="36.7488750" lon="-3.7830560">
        <ele>151.0</ele>
        <time>2022-01-08T15:48:14Z</time>
      </trkpt>
      <trkpt lat="36.7488430" lon="-3.7830840">
        <ele>151.0</ele>
        <time>2022-01-08T15:48:15Z</time>
      </trkpt>
      <trkpt lat="36.7488430" lon="-3.7830840">
        <ele>151.0</ele>
        <time>2022-01-08T15:48:16Z</time>
      </trkpt>
      <trkpt lat="36.7488430" lon="-3.7830840">
        <ele>151.0</ele>
        <time>2022-01-08T15:48:17Z</time>
      </trkpt>
      <trkpt lat="36.7488160" lon="-3.7831040">
        <ele>152.0</ele>
        <time>2022-01-08T15:48:18Z</time>
      </trkpt>
      <trkpt lat="36.7487880" lon="-3.7831230">
        <ele>152.0</ele>
        <time>2022-01-08T15:48:19Z</time>
      </trkpt>
      <trkpt lat="36.7487880" lon="-3.7831230">
        <ele>152.0</ele>
        <time>2022-01-08T15:48:20Z</time>
      </trkpt>
      <trkpt lat="36.7487600" lon="-3.7831410">
        <ele>152.0</ele>
        <time>2022-01-08T15:48:21Z</time>
      </trkpt>
      <trkpt lat="36.7487420" lon="-3.7831480">
        <ele>153.0</ele>
        <time>2022-01-08T15:48:22Z</time>
      </trkpt>
      <trkpt lat="36.7487420" lon="-3.7831480">
        <ele>153.0</ele>
        <time>2022-01-08T15:48:23Z</time>
      </trkpt>
      <trkpt lat="36.7487080" lon="-3.7831630">
        <ele>153.0</ele>
        <time>2022-01-08T15:48:24Z</time>
      </trkpt>
      <trkpt lat="36.7487080" lon="-3.7831630">
        <ele>153.0</ele>
        <time>2022-01-08T15:48:25Z</time>
      </trkpt>
      <trkpt lat="36.7486810" lon="-3.7831840">
        <ele>153.0</ele>
        <time>2022-01-08T15:48:26Z</time>
      </trkpt>
      <trkpt lat="36.7486810" lon="-3.7831840">
        <ele>154.0</ele>
        <time>2022-01-08T15:48:27Z</time>
      </trkpt>
      <trkpt lat="36.7486550" lon="-3.7832020">
        <ele>154.0</ele>
        <time>2022-01-08T15:48:28Z</time>
      </trkpt>
      <trkpt lat="36.7486550" lon="-3.7832020">
        <ele>154.0</ele>
        <time>2022-01-08T15:48:29Z</time>
      </trkpt>
      <trkpt lat="36.7486270" lon="-3.7832280">
        <ele>154.0</ele>
        <time>2022-01-08T15:48:30Z</time>
      </trkpt>
      <trkpt lat="36.7486130" lon="-3.7832430">
        <ele>155.0</ele>
        <time>2022-01-08T15:48:31Z</time>
      </trkpt>
      <trkpt lat="36.7486130" lon="-3.7832430">
        <ele>155.0</ele>
        <time>2022-01-08T15:48:32Z</time>
      </trkpt>
      <trkpt lat="36.7485890" lon="-3.7832730">
        <ele>155.0</ele>
        <time>2022-01-08T15:48:33Z</time>
      </trkpt>
      <trkpt lat="36.7485760" lon="-3.7832880">
        <ele>155.0</ele>
        <time>2022-01-08T15:48:34Z</time>
      </trkpt>
      <trkpt lat="36.7485760" lon="-3.7832880">
        <ele>155.0</ele>
        <time>2022-01-08T15:48:35Z</time>
      </trkpt>
      <trkpt lat="36.7485760" lon="-3.7832880">
        <ele>155.0</ele>
        <time>2022-01-08T15:48:36Z</time>
      </trkpt>
      <trkpt lat="36.7485570" lon="-3.7833160">
        <ele>155.0</ele>
        <time>2022-01-08T15:48:37Z</time>
      </trkpt>
      <trkpt lat="36.7485440" lon="-3.7833380">
        <ele>155.0</ele>
        <time>2022-01-08T15:48:38Z</time>
      </trkpt>
      <trkpt lat="36.7485440" lon="-3.7833380">
        <ele>155.0</ele>
        <time>2022-01-08T15:48:39Z</time>
      </trkpt>
      <trkpt lat="36.7485270" lon="-3.7833640">
        <ele>154.0</ele>
        <time>2022-01-08T15:48:40Z</time>
      </trkpt>
      <trkpt lat="36.7485270" lon="-3.7833640">
        <ele>154.0</ele>
        <time>2022-01-08T15:48:41Z</time>
      </trkpt>
      <trkpt lat="36.7485110" lon="-3.7833950">
        <ele>154.0</ele>
        <time>2022-01-08T15:48:42Z</time>
      </trkpt>
      <trkpt lat="36.7485110" lon="-3.7833950">
        <ele>154.0</ele>
        <time>2022-01-08T15:48:43Z</time>
      </trkpt>
      <trkpt lat="36.7484920" lon="-3.7834280">
        <ele>154.0</ele>
        <time>2022-01-08T15:48:44Z</time>
      </trkpt>
      <trkpt lat="36.7484760" lon="-3.7834410">
        <ele>153.0</ele>
        <time>2022-01-08T15:48:45Z</time>
      </trkpt>
      <trkpt lat="36.7484760" lon="-3.7834410">
        <ele>153.0</ele>
        <time>2022-01-08T15:48:46Z</time>
      </trkpt>
      <trkpt lat="36.7484350" lon="-3.7834820">
        <ele>153.0</ele>
        <time>2022-01-08T15:48:47Z</time>
      </trkpt>
      <trkpt lat="36.7484210" lon="-3.7835060">
        <ele>153.0</ele>
        <time>2022-01-08T15:48:48Z</time>
      </trkpt>
      <trkpt lat="36.7484040" lon="-3.7835310">
        <ele>152.0</ele>
        <time>2022-01-08T15:48:49Z</time>
      </trkpt>
      <trkpt lat="36.7483870" lon="-3.7835510">
        <ele>151.0</ele>
        <time>2022-01-08T15:48:50Z</time>
      </trkpt>
      <trkpt lat="36.7483870" lon="-3.7835510">
        <ele>151.0</ele>
        <time>2022-01-08T15:48:51Z</time>
      </trkpt>
      <trkpt lat="36.7483520" lon="-3.7835880">
        <ele>150.0</ele>
        <time>2022-01-08T15:48:52Z</time>
      </trkpt>
      <trkpt lat="36.7483300" lon="-3.7836140">
        <ele>150.0</ele>
        <time>2022-01-08T15:48:53Z</time>
      </trkpt>
      <trkpt lat="36.7483120" lon="-3.7836370">
        <ele>150.0</ele>
        <time>2022-01-08T15:48:54Z</time>
      </trkpt>
      <trkpt lat="36.7482910" lon="-3.7836580">
        <ele>149.0</ele>
        <time>2022-01-08T15:48:55Z</time>
      </trkpt>
      <trkpt lat="36.7482670" lon="-3.7836820">
        <ele>148.0</ele>
        <time>2022-01-08T15:48:56Z</time>
      </trkpt>
      <trkpt lat="36.7482470" lon="-3.7837030">
        <ele>148.0</ele>
        <time>2022-01-08T15:48:57Z</time>
      </trkpt>
      <trkpt lat="36.7482300" lon="-3.7837210">
        <ele>148.0</ele>
        <time>2022-01-08T15:48:58Z</time>
      </trkpt>
      <trkpt lat="36.7482040" lon="-3.7837400">
        <ele>147.0</ele>
        <time>2022-01-08T15:48:59Z</time>
      </trkpt>
      <trkpt lat="36.7481720" lon="-3.7837590">
        <ele>146.0</ele>
        <time>2022-01-08T15:49:00Z</time>
      </trkpt>
      <trkpt lat="36.7481400" lon="-3.7837800">
        <ele>146.0</ele>
        <time>2022-01-08T15:49:01Z</time>
      </trkpt>
      <trkpt lat="36.7481080" lon="-3.7838000">
        <ele>145.0</ele>
        <time>2022-01-08T15:49:02Z</time>
      </trkpt>
      <trkpt lat="36.7481080" lon="-3.7838000">
        <ele>145.0</ele>
        <time>2022-01-08T15:49:03Z</time>
      </trkpt>
      <trkpt lat="36.7480790" lon="-3.7838170">
        <ele>145.0</ele>
        <time>2022-01-08T15:49:04Z</time>
      </trkpt>
      <trkpt lat="36.7480470" lon="-3.7838400">
        <ele>145.0</ele>
        <time>2022-01-08T15:49:05Z</time>
      </trkpt>
      <trkpt lat="36.7480150" lon="-3.7838640">
        <ele>144.0</ele>
        <time>2022-01-08T15:49:06Z</time>
      </trkpt>
      <trkpt lat="36.7479830" lon="-3.7838870">
        <ele>144.0</ele>
        <time>2022-01-08T15:49:07Z</time>
      </trkpt>
      <trkpt lat="36.7479680" lon="-3.7839050">
        <ele>143.0</ele>
        <time>2022-01-08T15:49:08Z</time>
      </trkpt>
      <trkpt lat="36.7479590" lon="-3.7839320">
        <ele>142.0</ele>
        <time>2022-01-08T15:49:09Z</time>
      </trkpt>
      <trkpt lat="36.7479590" lon="-3.7839320">
        <ele>141.0</ele>
        <time>2022-01-08T15:49:10Z</time>
      </trkpt>
      <trkpt lat="36.7479250" lon="-3.7839870">
        <ele>141.0</ele>
        <time>2022-01-08T15:49:11Z</time>
      </trkpt>
      <trkpt lat="36.7479100" lon="-3.7840180">
        <ele>141.0</ele>
        <time>2022-01-08T15:49:12Z</time>
      </trkpt>
      <trkpt lat="36.7479100" lon="-3.7840180">
        <ele>140.0</ele>
        <time>2022-01-08T15:49:13Z</time>
      </trkpt>
      <trkpt lat="36.7478820" lon="-3.7841180">
        <ele>139.0</ele>
        <time>2022-01-08T15:49:14Z</time>
      </trkpt>
      <trkpt lat="36.7478810" lon="-3.7841430">
        <ele>139.0</ele>
        <time>2022-01-08T15:49:15Z</time>
      </trkpt>
      <trkpt lat="36.7478810" lon="-3.7841430">
        <ele>140.0</ele>
        <time>2022-01-08T15:49:16Z</time>
      </trkpt>
      <trkpt lat="36.7479100" lon="-3.7842270">
        <ele>139.0</ele>
        <time>2022-01-08T15:49:17Z</time>
      </trkpt>
      <trkpt lat="36.7479100" lon="-3.7842270">
        <ele>138.0</ele>
        <time>2022-01-08T15:49:18Z</time>
      </trkpt>
      <trkpt lat="36.7479200" lon="-3.7842550">
        <ele>138.0</ele>
        <time>2022-01-08T15:49:19Z</time>
      </trkpt>
      <trkpt lat="36.7479290" lon="-3.7842820">
        <ele>137.0</ele>
        <time>2022-01-08T15:49:20Z</time>
      </trkpt>
      <trkpt lat="36.7479390" lon="-3.7843100">
        <ele>136.0</ele>
        <time>2022-01-08T15:49:21Z</time>
      </trkpt>
      <trkpt lat="36.7479650" lon="-3.7843510">
        <ele>136.0</ele>
        <time>2022-01-08T15:49:22Z</time>
      </trkpt>
      <trkpt lat="36.7479850" lon="-3.7843760">
        <ele>135.0</ele>
        <time>2022-01-08T15:49:23Z</time>
      </trkpt>
      <trkpt lat="36.7479850" lon="-3.7843760">
        <ele>134.0</ele>
        <time>2022-01-08T15:49:24Z</time>
      </trkpt>
      <trkpt lat="36.7480370" lon="-3.7844340">
        <ele>134.0</ele>
        <time>2022-01-08T15:49:25Z</time>
      </trkpt>
      <trkpt lat="36.7480370" lon="-3.7844340">
        <ele>134.0</ele>
        <time>2022-01-08T15:49:26Z</time>
      </trkpt>
      <trkpt lat="36.7480700" lon="-3.7844570">
        <ele>132.0</ele>
        <time>2022-01-08T15:49:27Z</time>
      </trkpt>
      <trkpt lat="36.7481040" lon="-3.7844790">
        <ele>131.0</ele>
        <time>2022-01-08T15:49:28Z</time>
      </trkpt>
      <trkpt lat="36.7481370" lon="-3.7845020">
        <ele>131.0</ele>
        <time>2022-01-08T15:49:29Z</time>
      </trkpt>
      <trkpt lat="36.7481370" lon="-3.7845020">
        <ele>131.0</ele>
        <time>2022-01-08T15:49:30Z</time>
      </trkpt>
      <trkpt lat="36.7481660" lon="-3.7845310">
        <ele>130.0</ele>
        <time>2022-01-08T15:49:31Z</time>
      </trkpt>
      <trkpt lat="36.7481950" lon="-3.7845600">
        <ele>129.0</ele>
        <time>2022-01-08T15:49:32Z</time>
      </trkpt>
      <trkpt lat="36.7482240" lon="-3.7845890">
        <ele>128.0</ele>
        <time>2022-01-08T15:49:33Z</time>
      </trkpt>
      <trkpt lat="36.7482240" lon="-3.7845890">
        <ele>128.0</ele>
        <time>2022-01-08T15:49:34Z</time>
      </trkpt>
      <trkpt lat="36.7482580" lon="-3.7846080">
        <ele>127.0</ele>
        <time>2022-01-08T15:49:35Z</time>
      </trkpt>
      <trkpt lat="36.7482920" lon="-3.7846260">
        <ele>127.0</ele>
        <time>2022-01-08T15:49:36Z</time>
      </trkpt>
      <trkpt lat="36.7483260" lon="-3.7846450">
        <ele>127.0</ele>
        <time>2022-01-08T15:49:37Z</time>
      </trkpt>
      <trkpt lat="36.7483610" lon="-3.7846640">
        <ele>126.0</ele>
        <time>2022-01-08T15:49:38Z</time>
      </trkpt>
      <trkpt lat="36.7483930" lon="-3.7846710">
        <ele>126.0</ele>
        <time>2022-01-08T15:49:39Z</time>
      </trkpt>
      <trkpt lat="36.7483930" lon="-3.7846710">
        <ele>126.0</ele>
        <time>2022-01-08T15:49:40Z</time>
      </trkpt>
      <trkpt lat="36.7484180" lon="-3.7846840">
        <ele>125.0</ele>
        <time>2022-01-08T15:49:41Z</time>
      </trkpt>
      <trkpt lat="36.7484430" lon="-3.7846970">
        <ele>124.0</ele>
        <time>2022-01-08T15:49:42Z</time>
      </trkpt>
      <trkpt lat="36.7484680" lon="-3.7847090">
        <ele>122.0</ele>
        <time>2022-01-08T15:49:43Z</time>
      </trkpt>
      <trkpt lat="36.7484930" lon="-3.7847220">
        <ele>122.0</ele>
        <time>2022-01-08T15:49:44Z</time>
      </trkpt>
      <trkpt lat="36.7485160" lon="-3.7847390">
        <ele>122.0</ele>
        <time>2022-01-08T15:49:45Z</time>
      </trkpt>
      <trkpt lat="36.7485380" lon="-3.7847570">
        <ele>122.0</ele>
        <time>2022-01-08T15:49:46Z</time>
      </trkpt>
      <trkpt lat="36.7485610" lon="-3.7847740">
        <ele>119.0</ele>
        <time>2022-01-08T15:49:47Z</time>
      </trkpt>
      <trkpt lat="36.7485830" lon="-3.7847910">
        <ele>118.0</ele>
        <time>2022-01-08T15:49:48Z</time>
      </trkpt>
      <trkpt lat="36.7485850" lon="-3.7848220">
        <ele>117.0</ele>
        <time>2022-01-08T15:49:49Z</time>
      </trkpt>
      <trkpt lat="36.7485870" lon="-3.7848530">
        <ele>117.0</ele>
        <time>2022-01-08T15:49:50Z</time>
      </trkpt>
      <trkpt lat="36.7485890" lon="-3.7848840">
        <ele>116.0</ele>
        <time>2022-01-08T15:49:51Z</time>
      </trkpt>
      <trkpt lat="36.7485910" lon="-3.7849150">
        <ele>116.0</ele>
        <time>2022-01-08T15:49:52Z</time>
      </trkpt>
      <trkpt lat="36.7485710" lon="-3.7848950">
        <ele>116.0</ele>
        <time>2022-01-08T15:49:53Z</time>
      </trkpt>
      <trkpt lat="36.7485510" lon="-3.7848750">
        <ele>116.0</ele>
        <time>2022-01-08T15:49:54Z</time>
      </trkpt>
      <trkpt lat="36.7485300" lon="-3.7848550">
        <ele>116.0</ele>
        <time>2022-01-08T15:49:55Z</time>
      </trkpt>
      <trkpt lat="36.7485100" lon="-3.7848350">
        <ele>116.0</ele>
        <time>2022-01-08T15:49:56Z</time>
      </trkpt>
      <trkpt lat="36.7484910" lon="-3.7848320">
        <ele>116.0</ele>
        <time>2022-01-08T15:49:57Z</time>
      </trkpt>
      <trkpt lat="36.7484710" lon="-3.7848280">
        <ele>116.0</ele>
        <time>2022-01-08T15:49:58Z</time>
      </trkpt>
      <trkpt lat="36.7484520" lon="-3.7848250">
        <ele>116.0</ele>
        <time>2022-01-08T15:49:59Z</time>
      </trkpt>
      <trkpt lat="36.7484330" lon="-3.7848210">
        <ele>116.0</ele>
        <time>2022-01-08T15:50:00Z</time>
      </trkpt>
      <trkpt lat="36.7484130" lon="-3.7848180">
        <ele>117.0</ele>
        <time>2022-01-08T15:50:01Z</time>
      </trkpt>
      <trkpt lat="36.7484060" lon="-3.7848500">
        <ele>117.0</ele>
        <time>2022-01-08T15:50:02Z</time>
      </trkpt>
      <trkpt lat="36.7483990" lon="-3.7848830">
        <ele>117.0</ele>
        <time>2022-01-08T15:50:03Z</time>
      </trkpt>
      <trkpt lat="36.7483920" lon="-3.7849160">
        <ele>117.0</ele>
        <time>2022-01-08T15:50:04Z</time>
      </trkpt>
      <trkpt lat="36.7483850" lon="-3.7849490">
        <ele>116.0</ele>
        <time>2022-01-08T15:50:05Z</time>
      </trkpt>
      <trkpt lat="36.7483840" lon="-3.7849890">
        <ele>116.0</ele>
        <time>2022-01-08T15:50:06Z</time>
      </trkpt>
      <trkpt lat="36.7483820" lon="-3.7850290">
        <ele>116.0</ele>
        <time>2022-01-08T15:50:07Z</time>
      </trkpt>
      <trkpt lat="36.7483800" lon="-3.7850690">
        <ele>116.0</ele>
        <time>2022-01-08T15:50:08Z</time>
      </trkpt>
      <trkpt lat="36.7483800" lon="-3.7851080">
        <ele>116.0</ele>
        <time>2022-01-08T15:50:09Z</time>
      </trkpt>
      <trkpt lat="36.7483800" lon="-3.7851470">
        <ele>115.0</ele>
        <time>2022-01-08T15:50:10Z</time>
      </trkpt>
      <trkpt lat="36.7483790" lon="-3.7851870">
        <ele>115.0</ele>
        <time>2022-01-08T15:50:11Z</time>
      </trkpt>
      <trkpt lat="36.7483750" lon="-3.7852260">
        <ele>114.0</ele>
        <time>2022-01-08T15:50:12Z</time>
      </trkpt>
      <trkpt lat="36.7483710" lon="-3.7852650">
        <ele>113.0</ele>
        <time>2022-01-08T15:50:13Z</time>
      </trkpt>
      <trkpt lat="36.7483670" lon="-3.7853040">
        <ele>113.0</ele>
        <time>2022-01-08T15:50:14Z</time>
      </trkpt>
      <trkpt lat="36.7483550" lon="-3.7853380">
        <ele>113.0</ele>
        <time>2022-01-08T15:50:15Z</time>
      </trkpt>
      <trkpt lat="36.7483430" lon="-3.7853730">
        <ele>112.0</ele>
        <time>2022-01-08T15:50:16Z</time>
      </trkpt>
      <trkpt lat="36.7483310" lon="-3.7854070">
        <ele>111.0</ele>
        <time>2022-01-08T15:50:17Z</time>
      </trkpt>
      <trkpt lat="36.7483190" lon="-3.7854420">
        <ele>111.0</ele>
        <time>2022-01-08T15:50:18Z</time>
      </trkpt>
      <trkpt lat="36.7483030" lon="-3.7854760">
        <ele>111.0</ele>
        <time>2022-01-08T15:50:19Z</time>
      </trkpt>
      <trkpt lat="36.7482860" lon="-3.7855100">
        <ele>111.0</ele>
        <time>2022-01-08T15:50:20Z</time>
      </trkpt>
      <trkpt lat="36.7482690" lon="-3.7855450">
        <ele>110.0</ele>
        <time>2022-01-08T15:50:21Z</time>
      </trkpt>
      <trkpt lat="36.7482490" lon="-3.7855860">
        <ele>110.0</ele>
        <time>2022-01-08T15:50:22Z</time>
      </trkpt>
      <trkpt lat="36.7482280" lon="-3.7856270">
        <ele>110.0</ele>
        <time>2022-01-08T15:50:23Z</time>
      </trkpt>
      <trkpt lat="36.7482070" lon="-3.7856680">
        <ele>108.0</ele>
        <time>2022-01-08T15:50:24Z</time>
      </trkpt>
      <trkpt lat="36.7481850" lon="-3.7857060">
        <ele>108.0</ele>
        <time>2022-01-08T15:50:25Z</time>
      </trkpt>
      <trkpt lat="36.7481630" lon="-3.7857450">
        <ele>108.0</ele>
        <time>2022-01-08T15:50:26Z</time>
      </trkpt>
      <trkpt lat="36.7481400" lon="-3.7857840">
        <ele>108.0</ele>
        <time>2022-01-08T15:50:27Z</time>
      </trkpt>
      <trkpt lat="36.7481290" lon="-3.7858270">
        <ele>104.0</ele>
        <time>2022-01-08T15:50:28Z</time>
      </trkpt>
      <trkpt lat="36.7481170" lon="-3.7858710">
        <ele>104.0</ele>
        <time>2022-01-08T15:50:29Z</time>
      </trkpt>
      <trkpt lat="36.7481050" lon="-3.7859150">
        <ele>103.0</ele>
        <time>2022-01-08T15:50:30Z</time>
      </trkpt>
      <trkpt lat="36.7480850" lon="-3.7859480">
        <ele>102.0</ele>
        <time>2022-01-08T15:50:31Z</time>
      </trkpt>
      <trkpt lat="36.7480650" lon="-3.7859810">
        <ele>102.0</ele>
        <time>2022-01-08T15:50:32Z</time>
      </trkpt>
      <trkpt lat="36.7480440" lon="-3.7860150">
        <ele>102.0</ele>
        <time>2022-01-08T15:50:33Z</time>
      </trkpt>
      <trkpt lat="36.7480230" lon="-3.7860460">
        <ele>102.0</ele>
        <time>2022-01-08T15:50:34Z</time>
      </trkpt>
      <trkpt lat="36.7480020" lon="-3.7860780">
        <ele>101.0</ele>
        <time>2022-01-08T15:50:35Z</time>
      </trkpt>
      <trkpt lat="36.7479810" lon="-3.7861100">
        <ele>100.0</ele>
        <time>2022-01-08T15:50:36Z</time>
      </trkpt>
      <trkpt lat="36.7479590" lon="-3.7861430">
        <ele>100.0</ele>
        <time>2022-01-08T15:50:37Z</time>
      </trkpt>
      <trkpt lat="36.7479360" lon="-3.7861760">
        <ele>100.0</ele>
        <time>2022-01-08T15:50:38Z</time>
      </trkpt>
      <trkpt lat="36.7479130" lon="-3.7862100">
        <ele>99.0</ele>
        <time>2022-01-08T15:50:39Z</time>
      </trkpt>
      <trkpt lat="36.7478850" lon="-3.7862340">
        <ele>99.0</ele>
        <time>2022-01-08T15:50:40Z</time>
      </trkpt>
      <trkpt lat="36.7478560" lon="-3.7862590">
        <ele>98.0</ele>
        <time>2022-01-08T15:50:41Z</time>
      </trkpt>
      <trkpt lat="36.7478270" lon="-3.7862840">
        <ele>98.0</ele>
        <time>2022-01-08T15:50:42Z</time>
      </trkpt>
      <trkpt lat="36.7477980" lon="-3.7862930">
        <ele>97.0</ele>
        <time>2022-01-08T15:50:43Z</time>
      </trkpt>
      <trkpt lat="36.7477680" lon="-3.7863030">
        <ele>97.0</ele>
        <time>2022-01-08T15:50:44Z</time>
      </trkpt>
      <trkpt lat="36.7477380" lon="-3.7863130">
        <ele>97.0</ele>
        <time>2022-01-08T15:50:45Z</time>
      </trkpt>
      <trkpt lat="36.7476440" lon="-3.7863300">
        <ele>96.0</ele>
        <time>2022-01-08T15:50:46Z</time>
      </trkpt>
      <trkpt lat="36.7476240" lon="-3.7863320">
        <ele>96.0</ele>
        <time>2022-01-08T15:50:47Z</time>
      </trkpt>
      <trkpt lat="36.7475880" lon="-3.7863360">
        <ele>94.0</ele>
        <time>2022-01-08T15:50:48Z</time>
      </trkpt>
      <trkpt lat="36.7475500" lon="-3.7863460">
        <ele>93.0</ele>
        <time>2022-01-08T15:50:49Z</time>
      </trkpt>
      <trkpt lat="36.7475160" lon="-3.7863530">
        <ele>93.0</ele>
        <time>2022-01-08T15:50:50Z</time>
      </trkpt>
      <trkpt lat="36.7474780" lon="-3.7863650">
        <ele>93.0</ele>
        <time>2022-01-08T15:50:51Z</time>
      </trkpt>
      <trkpt lat="36.7474780" lon="-3.7863650">
        <ele>93.0</ele>
        <time>2022-01-08T15:50:52Z</time>
      </trkpt>
      <trkpt lat="36.7474390" lon="-3.7863740">
        <ele>93.0</ele>
        <time>2022-01-08T15:50:53Z</time>
      </trkpt>
      <trkpt lat="36.7473990" lon="-3.7863840">
        <ele>93.0</ele>
        <time>2022-01-08T15:50:54Z</time>
      </trkpt>
      <trkpt lat="36.7473590" lon="-3.7863940">
        <ele>93.0</ele>
        <time>2022-01-08T15:50:55Z</time>
      </trkpt>
      <trkpt lat="36.7473280" lon="-3.7864090">
        <ele>92.0</ele>
        <time>2022-01-08T15:50:56Z</time>
      </trkpt>
      <trkpt lat="36.7472970" lon="-3.7864240">
        <ele>91.0</ele>
        <time>2022-01-08T15:50:57Z</time>
      </trkpt>
      <trkpt lat="36.7472660" lon="-3.7864390">
        <ele>91.0</ele>
        <time>2022-01-08T15:50:58Z</time>
      </trkpt>
      <trkpt lat="36.7472410" lon="-3.7864620">
        <ele>90.0</ele>
        <time>2022-01-08T15:50:59Z</time>
      </trkpt>
      <trkpt lat="36.7472150" lon="-3.7864850">
        <ele>90.0</ele>
        <time>2022-01-08T15:51:00Z</time>
      </trkpt>
      <trkpt lat="36.7471900" lon="-3.7865080">
        <ele>90.0</ele>
        <time>2022-01-08T15:51:01Z</time>
      </trkpt>
      <trkpt lat="36.7471880" lon="-3.7865430">
        <ele>89.0</ele>
        <time>2022-01-08T15:51:02Z</time>
      </trkpt>
      <trkpt lat="36.7471860" lon="-3.7865790">
        <ele>88.0</ele>
        <time>2022-01-08T15:51:03Z</time>
      </trkpt>
      <trkpt lat="36.7471840" lon="-3.7866150">
        <ele>88.0</ele>
        <time>2022-01-08T15:51:04Z</time>
      </trkpt>
      <trkpt lat="36.7471820" lon="-3.7866510">
        <ele>87.0</ele>
        <time>2022-01-08T15:51:05Z</time>
      </trkpt>
      <trkpt lat="36.7471970" lon="-3.7866860">
        <ele>87.0</ele>
        <time>2022-01-08T15:51:06Z</time>
      </trkpt>
      <trkpt lat="36.7472120" lon="-3.7867210">
        <ele>86.0</ele>
        <time>2022-01-08T15:51:07Z</time>
      </trkpt>
      <trkpt lat="36.7472270" lon="-3.7867560">
        <ele>86.0</ele>
        <time>2022-01-08T15:51:08Z</time>
      </trkpt>
      <trkpt lat="36.7472400" lon="-3.7867920">
        <ele>86.0</ele>
        <time>2022-01-08T15:51:09Z</time>
      </trkpt>
      <trkpt lat="36.7472530" lon="-3.7868280">
        <ele>86.0</ele>
        <time>2022-01-08T15:51:10Z</time>
      </trkpt>
      <trkpt lat="36.7472660" lon="-3.7868640">
        <ele>85.0</ele>
        <time>2022-01-08T15:51:11Z</time>
      </trkpt>
      <trkpt lat="36.7472710" lon="-3.7869070">
        <ele>85.0</ele>
        <time>2022-01-08T15:51:12Z</time>
      </trkpt>
      <trkpt lat="36.7472760" lon="-3.7869500">
        <ele>84.0</ele>
        <time>2022-01-08T15:51:13Z</time>
      </trkpt>
      <trkpt lat="36.7472820" lon="-3.7869930">
        <ele>83.0</ele>
        <time>2022-01-08T15:51:14Z</time>
      </trkpt>
      <trkpt lat="36.7472840" lon="-3.7870300">
        <ele>82.0</ele>
        <time>2022-01-08T15:51:15Z</time>
      </trkpt>
      <trkpt lat="36.7472860" lon="-3.7870680">
        <ele>82.0</ele>
        <time>2022-01-08T15:51:16Z</time>
      </trkpt>
      <trkpt lat="36.7472880" lon="-3.7871060">
        <ele>81.0</ele>
        <time>2022-01-08T15:51:17Z</time>
      </trkpt>
      <trkpt lat="36.7472720" lon="-3.7871280">
        <ele>81.0</ele>
        <time>2022-01-08T15:51:18Z</time>
      </trkpt>
      <trkpt lat="36.7472550" lon="-3.7871510">
        <ele>81.0</ele>
        <time>2022-01-08T15:51:19Z</time>
      </trkpt>
      <trkpt lat="36.7472390" lon="-3.7871730">
        <ele>81.0</ele>
        <time>2022-01-08T15:51:20Z</time>
      </trkpt>
      <trkpt lat="36.7472230" lon="-3.7871960">
        <ele>80.0</ele>
        <time>2022-01-08T15:51:21Z</time>
      </trkpt>
      <trkpt lat="36.7471910" lon="-3.7871940">
        <ele>80.0</ele>
        <time>2022-01-08T15:51:22Z</time>
      </trkpt>
      <trkpt lat="36.7471600" lon="-3.7871920">
        <ele>80.0</ele>
        <time>2022-01-08T15:51:23Z</time>
      </trkpt>
      <trkpt lat="36.7471290" lon="-3.7871900">
        <ele>80.0</ele>
        <time>2022-01-08T15:51:24Z</time>
      </trkpt>
      <trkpt lat="36.7470950" lon="-3.7871880">
        <ele>79.0</ele>
        <time>2022-01-08T15:51:25Z</time>
      </trkpt>
      <trkpt lat="36.7470610" lon="-3.7871870">
        <ele>78.0</ele>
        <time>2022-01-08T15:51:26Z</time>
      </trkpt>
      <trkpt lat="36.7470280" lon="-3.7871860">
        <ele>78.0</ele>
        <time>2022-01-08T15:51:27Z</time>
      </trkpt>
      <trkpt lat="36.7469950" lon="-3.7871880">
        <ele>77.0</ele>
        <time>2022-01-08T15:51:28Z</time>
      </trkpt>
      <trkpt lat="36.7469630" lon="-3.7871900">
        <ele>77.0</ele>
        <time>2022-01-08T15:51:29Z</time>
      </trkpt>
      <trkpt lat="36.7469310" lon="-3.7871930">
        <ele>76.0</ele>
        <time>2022-01-08T15:51:30Z</time>
      </trkpt>
      <trkpt lat="36.7468980" lon="-3.7871990">
        <ele>75.0</ele>
        <time>2022-01-08T15:51:31Z</time>
      </trkpt>
      <trkpt lat="36.7468650" lon="-3.7872050">
        <ele>75.0</ele>
        <time>2022-01-08T15:51:32Z</time>
      </trkpt>
      <trkpt lat="36.7468330" lon="-3.7872110">
        <ele>74.0</ele>
        <time>2022-01-08T15:51:33Z</time>
      </trkpt>
      <trkpt lat="36.7468010" lon="-3.7872140">
        <ele>73.0</ele>
        <time>2022-01-08T15:51:34Z</time>
      </trkpt>
      <trkpt lat="36.7467690" lon="-3.7872180">
        <ele>73.0</ele>
        <time>2022-01-08T15:51:35Z</time>
      </trkpt>
      <trkpt lat="36.7467380" lon="-3.7872220">
        <ele>72.0</ele>
        <time>2022-01-08T15:51:36Z</time>
      </trkpt>
      <trkpt lat="36.7467170" lon="-3.7872390">
        <ele>72.0</ele>
        <time>2022-01-08T15:51:37Z</time>
      </trkpt>
      <trkpt lat="36.7466960" lon="-3.7872560">
        <ele>72.0</ele>
        <time>2022-01-08T15:51:38Z</time>
      </trkpt>
      <trkpt lat="36.7466750" lon="-3.7872730">
        <ele>72.0</ele>
        <time>2022-01-08T15:51:39Z</time>
      </trkpt>
      <trkpt lat="36.7466540" lon="-3.7872910">
        <ele>70.0</ele>
        <time>2022-01-08T15:51:40Z</time>
      </trkpt>
      <trkpt lat="36.7466430" lon="-3.7873250">
        <ele>69.0</ele>
        <time>2022-01-08T15:51:41Z</time>
      </trkpt>
      <trkpt lat="36.7466320" lon="-3.7873600">
        <ele>69.0</ele>
        <time>2022-01-08T15:51:42Z</time>
      </trkpt>
      <trkpt lat="36.7466210" lon="-3.7873940">
        <ele>69.0</ele>
        <time>2022-01-08T15:51:43Z</time>
      </trkpt>
      <trkpt lat="36.7466100" lon="-3.7874290">
        <ele>69.0</ele>
        <time>2022-01-08T15:51:44Z</time>
      </trkpt>
      <trkpt lat="36.7465950" lon="-3.7874590">
        <ele>69.0</ele>
        <time>2022-01-08T15:51:45Z</time>
      </trkpt>
      <trkpt lat="36.7465800" lon="-3.7874900">
        <ele>68.0</ele>
        <time>2022-01-08T15:51:46Z</time>
      </trkpt>
      <trkpt lat="36.7465650" lon="-3.7875210">
        <ele>68.0</ele>
        <time>2022-01-08T15:51:47Z</time>
      </trkpt>
      <trkpt lat="36.7465500" lon="-3.7875520">
        <ele>68.0</ele>
        <time>2022-01-08T15:51:48Z</time>
      </trkpt>
      <trkpt lat="36.7465360" lon="-3.7875770">
        <ele>67.0</ele>
        <time>2022-01-08T15:51:49Z</time>
      </trkpt>
      <trkpt lat="36.7465230" lon="-3.7876020">
        <ele>67.0</ele>
        <time>2022-01-08T15:51:50Z</time>
      </trkpt>
      <trkpt lat="36.7465090" lon="-3.7876270">
        <ele>67.0</ele>
        <time>2022-01-08T15:51:51Z</time>
      </trkpt>
      <trkpt lat="36.7464960" lon="-3.7876520">
        <ele>66.0</ele>
        <time>2022-01-08T15:51:52Z</time>
      </trkpt>
      <trkpt lat="36.7464830" lon="-3.7876750">
        <ele>66.0</ele>
        <time>2022-01-08T15:51:53Z</time>
      </trkpt>
      <trkpt lat="36.7464700" lon="-3.7876990">
        <ele>65.0</ele>
        <time>2022-01-08T15:51:54Z</time>
      </trkpt>
      <trkpt lat="36.7464570" lon="-3.7877230">
        <ele>64.0</ele>
        <time>2022-01-08T15:51:55Z</time>
      </trkpt>
      <trkpt lat="36.7464440" lon="-3.7877470">
        <ele>64.0</ele>
        <time>2022-01-08T15:51:56Z</time>
      </trkpt>
      <trkpt lat="36.7464270" lon="-3.7877630">
        <ele>63.0</ele>
        <time>2022-01-08T15:51:57Z</time>
      </trkpt>
      <trkpt lat="36.7464090" lon="-3.7877800">
        <ele>63.0</ele>
        <time>2022-01-08T15:51:58Z</time>
      </trkpt>
      <trkpt lat="36.7463920" lon="-3.7877970">
        <ele>63.0</ele>
        <time>2022-01-08T15:51:59Z</time>
      </trkpt>
      <trkpt lat="36.7463750" lon="-3.7878140">
        <ele>62.0</ele>
        <time>2022-01-08T15:52:00Z</time>
      </trkpt>
      <trkpt lat="36.7463580" lon="-3.7878300">
        <ele>62.0</ele>
        <time>2022-01-08T15:52:01Z</time>
      </trkpt>
      <trkpt lat="36.7463330" lon="-3.7878430">
        <ele>62.0</ele>
        <time>2022-01-08T15:52:02Z</time>
      </trkpt>
      <trkpt lat="36.7463070" lon="-3.7878550">
        <ele>61.0</ele>
        <time>2022-01-08T15:52:03Z</time>
      </trkpt>
      <trkpt lat="36.7462820" lon="-3.7878680">
        <ele>61.0</ele>
        <time>2022-01-08T15:52:04Z</time>
      </trkpt>
      <trkpt lat="36.7462570" lon="-3.7878800">
        <ele>61.0</ele>
        <time>2022-01-08T15:52:05Z</time>
      </trkpt>
      <trkpt lat="36.7462310" lon="-3.7878760">
        <ele>59.0</ele>
        <time>2022-01-08T15:52:06Z</time>
      </trkpt>
      <trkpt lat="36.7462040" lon="-3.7878720">
        <ele>59.0</ele>
        <time>2022-01-08T15:52:07Z</time>
      </trkpt>
      <trkpt lat="36.7461780" lon="-3.7878680">
        <ele>59.0</ele>
        <time>2022-01-08T15:52:08Z</time>
      </trkpt>
      <trkpt lat="36.7461520" lon="-3.7878630">
        <ele>58.0</ele>
        <time>2022-01-08T15:52:09Z</time>
      </trkpt>
      <trkpt lat="36.7461330" lon="-3.7878720">
        <ele>58.0</ele>
        <time>2022-01-08T15:52:10Z</time>
      </trkpt>
      <trkpt lat="36.7461150" lon="-3.7878810">
        <ele>58.0</ele>
        <time>2022-01-08T15:52:11Z</time>
      </trkpt>
      <trkpt lat="36.7460960" lon="-3.7878890">
        <ele>57.0</ele>
        <time>2022-01-08T15:52:12Z</time>
      </trkpt>
      <trkpt lat="36.7460750" lon="-3.7879000">
        <ele>56.0</ele>
        <time>2022-01-08T15:52:13Z</time>
      </trkpt>
      <trkpt lat="36.7460540" lon="-3.7879110">
        <ele>56.0</ele>
        <time>2022-01-08T15:52:14Z</time>
      </trkpt>
      <trkpt lat="36.7460330" lon="-3.7879220">
        <ele>56.0</ele>
        <time>2022-01-08T15:52:15Z</time>
      </trkpt>
      <trkpt lat="36.7460120" lon="-3.7879330">
        <ele>55.0</ele>
        <time>2022-01-08T15:52:16Z</time>
      </trkpt>
      <trkpt lat="36.7459910" lon="-3.7879430">
        <ele>55.0</ele>
        <time>2022-01-08T15:52:17Z</time>
      </trkpt>
      <trkpt lat="36.7459560" lon="-3.7879550">
        <ele>54.0</ele>
        <time>2022-01-08T15:52:18Z</time>
      </trkpt>
      <trkpt lat="36.7459200" lon="-3.7879670">
        <ele>52.0</ele>
        <time>2022-01-08T15:52:19Z</time>
      </trkpt>
      <trkpt lat="36.7458850" lon="-3.7879780">
        <ele>52.0</ele>
        <time>2022-01-08T15:52:20Z</time>
      </trkpt>
      <trkpt lat="36.7458560" lon="-3.7879680">
        <ele>52.0</ele>
        <time>2022-01-08T15:52:21Z</time>
      </trkpt>
      <trkpt lat="36.7458270" lon="-3.7879580">
        <ele>52.0</ele>
        <time>2022-01-08T15:52:22Z</time>
      </trkpt>
      <trkpt lat="36.7457980" lon="-3.7879470">
        <ele>52.0</ele>
        <time>2022-01-08T15:52:23Z</time>
      </trkpt>
      <trkpt lat="36.7457440" lon="-3.7878950">
        <ele>51.0</ele>
        <time>2022-01-08T15:52:24Z</time>
      </trkpt>
      <trkpt lat="36.7457290" lon="-3.7878760">
        <ele>51.0</ele>
        <time>2022-01-08T15:52:25Z</time>
      </trkpt>
      <trkpt lat="36.7457150" lon="-3.7878570">
        <ele>51.0</ele>
        <time>2022-01-08T15:52:26Z</time>
      </trkpt>
      <trkpt lat="36.7456940" lon="-3.7878290">
        <ele>51.0</ele>
        <time>2022-01-08T15:52:27Z</time>
      </trkpt>
      <trkpt lat="36.7456770" lon="-3.7878000">
        <ele>50.0</ele>
        <time>2022-01-08T15:52:28Z</time>
      </trkpt>
      <trkpt lat="36.7456610" lon="-3.7877690">
        <ele>49.0</ele>
        <time>2022-01-08T15:52:29Z</time>
      </trkpt>
      <trkpt lat="36.7456440" lon="-3.7877380">
        <ele>48.0</ele>
        <time>2022-01-08T15:52:30Z</time>
      </trkpt>
      <trkpt lat="36.7456260" lon="-3.7877080">
        <ele>48.0</ele>
        <time>2022-01-08T15:52:31Z</time>
      </trkpt>
      <trkpt lat="36.7456060" lon="-3.7876790">
        <ele>48.0</ele>
        <time>2022-01-08T15:52:32Z</time>
      </trkpt>
      <trkpt lat="36.7455880" lon="-3.7876520">
        <ele>47.0</ele>
        <time>2022-01-08T15:52:33Z</time>
      </trkpt>
      <trkpt lat="36.7455880" lon="-3.7876520">
        <ele>47.0</ele>
        <time>2022-01-08T15:52:34Z</time>
      </trkpt>
      <trkpt lat="36.7455420" lon="-3.7876160">
        <ele>46.0</ele>
        <time>2022-01-08T15:52:35Z</time>
      </trkpt>
      <trkpt lat="36.7455420" lon="-3.7876160">
        <ele>46.0</ele>
        <time>2022-01-08T15:52:36Z</time>
      </trkpt>
      <trkpt lat="36.7455170" lon="-3.7876220">
        <ele>45.0</ele>
        <time>2022-01-08T15:52:37Z</time>
      </trkpt>
      <trkpt lat="36.7454910" lon="-3.7876270">
        <ele>44.0</ele>
        <time>2022-01-08T15:52:38Z</time>
      </trkpt>
      <trkpt lat="36.7454660" lon="-3.7876320">
        <ele>43.0</ele>
        <time>2022-01-08T15:52:39Z</time>
      </trkpt>
      <trkpt lat="36.7454410" lon="-3.7876370">
        <ele>43.0</ele>
        <time>2022-01-08T15:52:40Z</time>
      </trkpt>
      <trkpt lat="36.7454160" lon="-3.7876590">
        <ele>43.0</ele>
        <time>2022-01-08T15:52:41Z</time>
      </trkpt>
      <trkpt lat="36.7453900" lon="-3.7876810">
        <ele>42.0</ele>
        <time>2022-01-08T15:52:42Z</time>
      </trkpt>
      <trkpt lat="36.7453650" lon="-3.7877030">
        <ele>42.0</ele>
        <time>2022-01-08T15:52:43Z</time>
      </trkpt>
      <trkpt lat="36.7453580" lon="-3.7877400">
        <ele>42.0</ele>
        <time>2022-01-08T15:52:44Z</time>
      </trkpt>
      <trkpt lat="36.7453510" lon="-3.7877770">
        <ele>42.0</ele>
        <time>2022-01-08T15:52:45Z</time>
      </trkpt>
      <trkpt lat="36.7453440" lon="-3.7878130">
        <ele>41.0</ele>
        <time>2022-01-08T15:52:46Z</time>
      </trkpt>
      <trkpt lat="36.7453600" lon="-3.7878460">
        <ele>41.0</ele>
        <time>2022-01-08T15:52:47Z</time>
      </trkpt>
      <trkpt lat="36.7453750" lon="-3.7878790">
        <ele>40.0</ele>
        <time>2022-01-08T15:52:48Z</time>
      </trkpt>
      <trkpt lat="36.7453910" lon="-3.7879120">
        <ele>40.0</ele>
        <time>2022-01-08T15:52:49Z</time>
      </trkpt>
      <trkpt lat="36.7454060" lon="-3.7879440">
        <ele>39.0</ele>
        <time>2022-01-08T15:52:50Z</time>
      </trkpt>
      <trkpt lat="36.7454240" lon="-3.7879790">
        <ele>38.0</ele>
        <time>2022-01-08T15:52:51Z</time>
      </trkpt>
      <trkpt lat="36.7454410" lon="-3.7880140">
        <ele>38.0</ele>
        <time>2022-01-08T15:52:52Z</time>
      </trkpt>
      <trkpt lat="36.7454590" lon="-3.7880480">
        <ele>38.0</ele>
        <time>2022-01-08T15:52:53Z</time>
      </trkpt>
      <trkpt lat="36.7454630" lon="-3.7880880">
        <ele>37.0</ele>
        <time>2022-01-08T15:52:54Z</time>
      </trkpt>
      <trkpt lat="36.7454680" lon="-3.7881280">
        <ele>37.0</ele>
        <time>2022-01-08T15:52:55Z</time>
      </trkpt>
      <trkpt lat="36.7454720" lon="-3.7881680">
        <ele>35.0</ele>
        <time>2022-01-08T15:52:56Z</time>
      </trkpt>
      <trkpt lat="36.7454720" lon="-3.7881970">
        <ele>35.0</ele>
        <time>2022-01-08T15:52:57Z</time>
      </trkpt>
      <trkpt lat="36.7454730" lon="-3.7882260">
        <ele>35.0</ele>
        <time>2022-01-08T15:52:58Z</time>
      </trkpt>
      <trkpt lat="36.7454730" lon="-3.7882550">
        <ele>35.0</ele>
        <time>2022-01-08T15:52:59Z</time>
      </trkpt>
      <trkpt lat="36.7454730" lon="-3.7882840">
        <ele>34.0</ele>
        <time>2022-01-08T15:53:00Z</time>
      </trkpt>
      <trkpt lat="36.7454850" lon="-3.7883550">
        <ele>34.0</ele>
        <time>2022-01-08T15:53:01Z</time>
      </trkpt>
      <trkpt lat="36.7454860" lon="-3.7883710">
        <ele>34.0</ele>
        <time>2022-01-08T15:53:02Z</time>
      </trkpt>
      <trkpt lat="36.7454860" lon="-3.7884070">
        <ele>33.0</ele>
        <time>2022-01-08T15:53:03Z</time>
      </trkpt>
      <trkpt lat="36.7454970" lon="-3.7884390">
        <ele>33.0</ele>
        <time>2022-01-08T15:53:04Z</time>
      </trkpt>
      <trkpt lat="36.7455150" lon="-3.7884650">
        <ele>33.0</ele>
        <time>2022-01-08T15:53:05Z</time>
      </trkpt>
      <trkpt lat="36.7455380" lon="-3.7884910">
        <ele>32.0</ele>
        <time>2022-01-08T15:53:06Z</time>
      </trkpt>
      <trkpt lat="36.7455640" lon="-3.7885130">
        <ele>31.0</ele>
        <time>2022-01-08T15:53:07Z</time>
      </trkpt>
      <trkpt lat="36.7455640" lon="-3.7885130">
        <ele>31.0</ele>
        <time>2022-01-08T15:53:08Z</time>
      </trkpt>
      <trkpt lat="36.7456290" lon="-3.7885720">
        <ele>30.0</ele>
        <time>2022-01-08T15:53:09Z</time>
      </trkpt>
      <trkpt lat="36.7456420" lon="-3.7885830">
        <ele>30.0</ele>
        <time>2022-01-08T15:53:10Z</time>
      </trkpt>
      <trkpt lat="36.7456640" lon="-3.7886030">
        <ele>30.0</ele>
        <time>2022-01-08T15:53:11Z</time>
      </trkpt>
      <trkpt lat="36.7456640" lon="-3.7886030">
        <ele>29.0</ele>
        <time>2022-01-08T15:53:12Z</time>
      </trkpt>
      <trkpt lat="36.7457170" lon="-3.7886350">
        <ele>29.0</ele>
        <time>2022-01-08T15:53:13Z</time>
      </trkpt>
      <trkpt lat="36.7457430" lon="-3.7886540">
        <ele>29.0</ele>
        <time>2022-01-08T15:53:14Z</time>
      </trkpt>
      <trkpt lat="36.7457680" lon="-3.7886770">
        <ele>28.0</ele>
        <time>2022-01-08T15:53:15Z</time>
      </trkpt>
      <trkpt lat="36.7457930" lon="-3.7886940">
        <ele>27.0</ele>
        <time>2022-01-08T15:53:16Z</time>
      </trkpt>
      <trkpt lat="36.7457930" lon="-3.7886940">
        <ele>26.0</ele>
        <time>2022-01-08T15:53:17Z</time>
      </trkpt>
      <trkpt lat="36.7458400" lon="-3.7887380">
        <ele>26.0</ele>
        <time>2022-01-08T15:53:18Z</time>
      </trkpt>
      <trkpt lat="36.7458400" lon="-3.7887380">
        <ele>26.0</ele>
        <time>2022-01-08T15:53:19Z</time>
      </trkpt>
      <trkpt lat="36.7458630" lon="-3.7887590">
        <ele>25.0</ele>
        <time>2022-01-08T15:53:20Z</time>
      </trkpt>
      <trkpt lat="36.7458860" lon="-3.7887800">
        <ele>25.0</ele>
        <time>2022-01-08T15:53:21Z</time>
      </trkpt>
      <trkpt lat="36.7459090" lon="-3.7888020">
        <ele>25.0</ele>
        <time>2022-01-08T15:53:22Z</time>
      </trkpt>
      <trkpt lat="36.7459320" lon="-3.7888230">
        <ele>25.0</ele>
        <time>2022-01-08T15:53:23Z</time>
      </trkpt>
      <trkpt lat="36.7459570" lon="-3.7888470">
        <ele>24.0</ele>
        <time>2022-01-08T15:53:24Z</time>
      </trkpt>
      <trkpt lat="36.7459810" lon="-3.7888710">
        <ele>23.0</ele>
        <time>2022-01-08T15:53:25Z</time>
      </trkpt>
      <trkpt lat="36.7460050" lon="-3.7888950">
        <ele>23.0</ele>
        <time>2022-01-08T15:53:26Z</time>
      </trkpt>
      <trkpt lat="36.7460260" lon="-3.7889140">
        <ele>23.0</ele>
        <time>2022-01-08T15:53:27Z</time>
      </trkpt>
      <trkpt lat="36.7460470" lon="-3.7889340">
        <ele>22.0</ele>
        <time>2022-01-08T15:53:28Z</time>
      </trkpt>
      <trkpt lat="36.7460680" lon="-3.7889530">
        <ele>22.0</ele>
        <time>2022-01-08T15:53:29Z</time>
      </trkpt>
      <trkpt lat="36.7460890" lon="-3.7889720">
        <ele>21.0</ele>
        <time>2022-01-08T15:53:30Z</time>
      </trkpt>
      <trkpt lat="36.7460910" lon="-3.7890050">
        <ele>21.0</ele>
        <time>2022-01-08T15:53:31Z</time>
      </trkpt>
      <trkpt lat="36.7460920" lon="-3.7890380">
        <ele>20.0</ele>
        <time>2022-01-08T15:53:32Z</time>
      </trkpt>
      <trkpt lat="36.7460930" lon="-3.7890720">
        <ele>20.0</ele>
        <time>2022-01-08T15:53:33Z</time>
      </trkpt>
      <trkpt lat="36.7460940" lon="-3.7891050">
        <ele>18.0</ele>
        <time>2022-01-08T15:53:34Z</time>
      </trkpt>
      <trkpt lat="36.7460850" lon="-3.7891380">
        <ele>18.0</ele>
        <time>2022-01-08T15:53:35Z</time>
      </trkpt>
      <trkpt lat="36.7460740" lon="-3.7891710">
        <ele>18.0</ele>
        <time>2022-01-08T15:53:36Z</time>
      </trkpt>
      <trkpt lat="36.7460740" lon="-3.7891710">
        <ele>17.0</ele>
        <time>2022-01-08T15:53:37Z</time>
      </trkpt>
      <trkpt lat="36.7460710" lon="-3.7891980">
        <ele>17.0</ele>
        <time>2022-01-08T15:53:38Z</time>
      </trkpt>
      <trkpt lat="36.7460670" lon="-3.7892250">
        <ele>16.0</ele>
        <time>2022-01-08T15:53:39Z</time>
      </trkpt>
      <trkpt lat="36.7460640" lon="-3.7892510">
        <ele>16.0</ele>
        <time>2022-01-08T15:53:40Z</time>
      </trkpt>
      <trkpt lat="36.7460600" lon="-3.7892780">
        <ele>16.0</ele>
        <time>2022-01-08T15:53:41Z</time>
      </trkpt>
      <trkpt lat="36.7460560" lon="-3.7893050">
        <ele>16.0</ele>
        <time>2022-01-08T15:53:42Z</time>
      </trkpt>
      <trkpt lat="36.7460570" lon="-3.7893370">
        <ele>16.0</ele>
        <time>2022-01-08T15:53:43Z</time>
      </trkpt>
      <trkpt lat="36.7460580" lon="-3.7893690">
        <ele>15.0</ele>
        <time>2022-01-08T15:53:44Z</time>
      </trkpt>
      <trkpt lat="36.7460590" lon="-3.7894000">
        <ele>15.0</ele>
        <time>2022-01-08T15:53:45Z</time>
      </trkpt>
      <trkpt lat="36.7460590" lon="-3.7894320">
        <ele>14.0</ele>
        <time>2022-01-08T15:53:46Z</time>
      </trkpt>
      <trkpt lat="36.7460630" lon="-3.7894660">
        <ele>13.0</ele>
        <time>2022-01-08T15:53:47Z</time>
      </trkpt>
      <trkpt lat="36.7460670" lon="-3.7894990">
        <ele>13.0</ele>
        <time>2022-01-08T15:53:48Z</time>
      </trkpt>
      <trkpt lat="36.7460710" lon="-3.7895330">
        <ele>12.0</ele>
        <time>2022-01-08T15:53:49Z</time>
      </trkpt>
      <trkpt lat="36.7460740" lon="-3.7895670">
        <ele>12.0</ele>
        <time>2022-01-08T15:53:50Z</time>
      </trkpt>
      <trkpt lat="36.7460790" lon="-3.7896010">
        <ele>11.0</ele>
        <time>2022-01-08T15:53:51Z</time>
      </trkpt>
      <trkpt lat="36.7460840" lon="-3.7896350">
        <ele>11.0</ele>
        <time>2022-01-08T15:53:52Z</time>
      </trkpt>
      <trkpt lat="36.7460890" lon="-3.7896700">
        <ele>9.0</ele>
        <time>2022-01-08T15:53:53Z</time>
      </trkpt>
      <trkpt lat="36.7460940" lon="-3.7897040">
        <ele>8.0</ele>
        <time>2022-01-08T15:53:54Z</time>
      </trkpt>
      <trkpt lat="36.7460700" lon="-3.7896980">
        <ele>8.0</ele>
        <time>2022-01-08T15:53:55Z</time>
      </trkpt>
      <trkpt lat="36.7460460" lon="-3.7896920">
        <ele>8.0</ele>
        <time>2022-01-08T15:53:56Z</time>
      </trkpt>
      <trkpt lat="36.7460220" lon="-3.7896850">
        <ele>8.0</ele>
        <time>2022-01-08T15:53:57Z</time>
      </trkpt>
      <trkpt lat="36.7459980" lon="-3.7896790">
        <ele>8.0</ele>
        <time>2022-01-08T15:53:58Z</time>
      </trkpt>
      <trkpt lat="36.7459740" lon="-3.7896730">
        <ele>7.0</ele>
        <time>2022-01-08T15:53:59Z</time>
      </trkpt>
      <trkpt lat="36.7459410" lon="-3.7896730">
        <ele>5.0</ele>
        <time>2022-01-08T15:54:00Z</time>
      </trkpt>
      <trkpt lat="36.7459090" lon="-3.7896740">
        <ele>5.0</ele>
        <time>2022-01-08T15:54:01Z</time>
      </trkpt>
      <trkpt lat="36.7458770" lon="-3.7896740">
        <ele>5.0</ele>
        <time>2022-01-08T15:54:02Z</time>
      </trkpt>
      <trkpt lat="36.7458470" lon="-3.7896860">
        <ele>5.0</ele>
        <time>2022-01-08T15:54:03Z</time>
      </trkpt>
      <trkpt lat="36.7458180" lon="-3.7896990">
        <ele>4.0</ele>
        <time>2022-01-08T15:54:04Z</time>
      </trkpt>
      <trkpt lat="36.7457890" lon="-3.7897110">
        <ele>4.0</ele>
        <time>2022-01-08T15:54:05Z</time>
      </trkpt>
      <trkpt lat="36.7457660" lon="-3.7897270">
        <ele>3.0</ele>
        <time>2022-01-08T15:54:06Z</time>
      </trkpt>
      <trkpt lat="36.7457440" lon="-3.7897420">
        <ele>2.0</ele>
        <time>2022-01-08T15:54:07Z</time>
      </trkpt>
      <trkpt lat="36.7457220" lon="-3.7897580">
        <ele>1.0</ele>
        <time>2022-01-08T15:54:08Z</time>
      </trkpt>
      <trkpt lat="36.7457000" lon="-3.7897730">
        <ele>1.0</ele>
        <time>2022-01-08T15:54:09Z</time>
      </trkpt>
      <trkpt lat="36.7456430" lon="-3.7897910">
        <ele>0.0</ele>
        <time>2022-01-08T15:54:10Z</time>
      </trkpt>
      <trkpt lat="36.7456430" lon="-3.7897910">
        <ele>0.0</ele>
        <time>2022-01-08T15:54:11Z</time>
      </trkpt>
      <trkpt lat="36.7456180" lon="-3.7897940">
        <ele>-1.0</ele>
        <time>2022-01-08T15:54:12Z</time>
      </trkpt>
      <trkpt lat="36.7455930" lon="-3.7897980">
        <ele>-2.0</ele>
        <time>2022-01-08T15:54:13Z</time>
      </trkpt>
      <trkpt lat="36.7455680" lon="-3.7898010">
        <ele>-2.0</ele>
        <time>2022-01-08T15:54:14Z</time>
      </trkpt>
      <trkpt lat="36.7455430" lon="-3.7898040">
        <ele>-2.0</ele>
        <time>2022-01-08T15:54:15Z</time>
      </trkpt>
      <trkpt lat="36.7454780" lon="-3.7897900">
        <ele>-2.0</ele>
        <time>2022-01-08T15:54:16Z</time>
      </trkpt>
      <trkpt lat="36.7454640" lon="-3.7897850">
        <ele>-2.0</ele>
        <time>2022-01-08T15:54:17Z</time>
      </trkpt>
      <trkpt lat="36.7454640" lon="-3.7897850">
        <ele>-3.0</ele>
        <time>2022-01-08T15:54:18Z</time>
      </trkpt>
      <trkpt lat="36.7454370" lon="-3.7897750">
        <ele>-3.0</ele>
        <time>2022-01-08T15:54:19Z</time>
      </trkpt>
      <trkpt lat="36.7454100" lon="-3.7897650">
        <ele>-4.0</ele>
        <time>2022-01-08T15:54:20Z</time>
      </trkpt>
      <trkpt lat="36.7453830" lon="-3.7897540">
        <ele>-4.0</ele>
        <time>2022-01-08T15:54:21Z</time>
      </trkpt>
      <trkpt lat="36.7453560" lon="-3.7897440">
        <ele>-4.0</ele>
        <time>2022-01-08T15:54:22Z</time>
      </trkpt>
      <trkpt lat="36.7453300" lon="-3.7897170">
        <ele>-4.0</ele>
        <time>2022-01-08T15:54:23Z</time>
      </trkpt>
      <trkpt lat="36.7453050" lon="-3.7896910">
        <ele>-5.0</ele>
        <time>2022-01-08T15:54:24Z</time>
      </trkpt>
      <trkpt lat="36.7452800" lon="-3.7896640">
        <ele>-5.0</ele>
        <time>2022-01-08T15:54:25Z</time>
      </trkpt>
      <trkpt lat="36.7452630" lon="-3.7896330">
        <ele>-5.0</ele>
        <time>2022-01-08T15:54:26Z</time>
      </trkpt>
      <trkpt lat="36.7452460" lon="-3.7896020">
        <ele>-5.0</ele>
        <time>2022-01-08T15:54:27Z</time>
      </trkpt>
      <trkpt lat="36.7452300" lon="-3.7895710">
        <ele>-5.0</ele>
        <time>2022-01-08T15:54:28Z</time>
      </trkpt>
      <trkpt lat="36.7452150" lon="-3.7895380">
        <ele>-5.0</ele>
        <time>2022-01-08T15:54:29Z</time>
      </trkpt>
      <trkpt lat="36.7452000" lon="-3.7895050">
        <ele>-5.0</ele>
        <time>2022-01-08T15:54:30Z</time>
      </trkpt>
      <trkpt lat="36.7451850" lon="-3.7894720">
        <ele>-5.0</ele>
        <time>2022-01-08T15:54:31Z</time>
      </trkpt>
      <trkpt lat="36.7451690" lon="-3.7894450">
        <ele>-6.0</ele>
        <time>2022-01-08T15:54:32Z</time>
      </trkpt>
      <trkpt lat="36.7451540" lon="-3.7894190">
        <ele>-6.0</ele>
        <time>2022-01-08T15:54:33Z</time>
      </trkpt>
      <trkpt lat="36.7451390" lon="-3.7893920">
        <ele>-6.0</ele>
        <time>2022-01-08T15:54:34Z</time>
      </trkpt>
      <trkpt lat="36.7451240" lon="-3.7893650">
        <ele>-6.0</ele>
        <time>2022-01-08T15:54:35Z</time>
      </trkpt>
      <trkpt lat="36.7451090" lon="-3.7893410">
        <ele>-6.0</ele>
        <time>2022-01-08T15:54:36Z</time>
      </trkpt>
      <trkpt lat="36.7450940" lon="-3.7893180">
        <ele>-5.0</ele>
        <time>2022-01-08T15:54:37Z</time>
      </trkpt>
      <trkpt lat="36.7450790" lon="-3.7892940">
        <ele>-5.0</ele>
        <time>2022-01-08T15:54:38Z</time>
      </trkpt>
      <trkpt lat="36.7450650" lon="-3.7892700">
        <ele>-5.0</ele>
        <time>2022-01-08T15:54:39Z</time>
      </trkpt>
      <trkpt lat="36.7450470" lon="-3.7892440">
        <ele>-5.0</ele>
        <time>2022-01-08T15:54:40Z</time>
      </trkpt>
      <trkpt lat="36.7450290" lon="-3.7892180">
        <ele>-5.0</ele>
        <time>2022-01-08T15:54:41Z</time>
      </trkpt>
      <trkpt lat="36.7450110" lon="-3.7891920">
        <ele>-5.0</ele>
        <time>2022-01-08T15:54:42Z</time>
      </trkpt>
      <trkpt lat="36.7449940" lon="-3.7891660">
        <ele>-5.0</ele>
        <time>2022-01-08T15:54:43Z</time>
      </trkpt>
      <trkpt lat="36.7449770" lon="-3.7891450">
        <ele>-5.0</ele>
        <time>2022-01-08T15:54:44Z</time>
      </trkpt>
      <trkpt lat="36.7449610" lon="-3.7891240">
        <ele>-5.0</ele>
        <time>2022-01-08T15:54:45Z</time>
      </trkpt>
      <trkpt lat="36.7449450" lon="-3.7891030">
        <ele>-5.0</ele>
        <time>2022-01-08T15:54:46Z</time>
      </trkpt>
      <trkpt lat="36.7449290" lon="-3.7890820">
        <ele>-5.0</ele>
        <time>2022-01-08T15:54:47Z</time>
      </trkpt>
      <trkpt lat="36.7449190" lon="-3.7890860">
        <ele>-5.0</ele>
        <time>2022-01-08T15:54:48Z</time>
      </trkpt>
      <trkpt lat="36.7449100" lon="-3.7890890">
        <ele>-5.0</ele>
        <time>2022-01-08T15:54:49Z</time>
      </trkpt>
      <trkpt lat="36.7449000" lon="-3.7890930">
        <ele>-5.0</ele>
        <time>2022-01-08T15:54:50Z</time>
      </trkpt>
      <trkpt lat="36.7448910" lon="-3.7890960">
        <ele>-6.0</ele>
        <time>2022-01-08T15:54:51Z</time>
      </trkpt>
      <trkpt lat="36.7448820" lon="-3.7891000">
        <ele>-6.0</ele>
        <time>2022-01-08T15:54:52Z</time>
      </trkpt>
      <trkpt lat="36.7448610" lon="-3.7891090">
        <ele>-6.0</ele>
        <time>2022-01-08T15:54:53Z</time>
      </trkpt>
      <trkpt lat="36.7448610" lon="-3.7891090">
        <ele>-6.0</ele>
        <time>2022-01-08T15:54:54Z</time>
      </trkpt>
      <trkpt lat="36.7448450" lon="-3.7891240">
        <ele>-6.0</ele>
        <time>2022-01-08T15:54:55Z</time>
      </trkpt>
      <trkpt lat="36.7448450" lon="-3.7891240">
        <ele>-6.0</ele>
        <time>2022-01-08T15:54:56Z</time>
      </trkpt>
      <trkpt lat="36.7448270" lon="-3.7891320">
        <ele>-6.0</ele>
        <time>2022-01-08T15:54:57Z</time>
      </trkpt>
      <trkpt lat="36.7448270" lon="-3.7891320">
        <ele>-6.0</ele>
        <time>2022-01-08T15:54:58Z</time>
      </trkpt>
      <trkpt lat="36.7448270" lon="-3.7891320">
        <ele>-6.0</ele>
        <time>2022-01-08T15:54:59Z</time>
      </trkpt>
      <trkpt lat="36.7448130" lon="-3.7891580">
        <ele>-6.0</ele>
        <time>2022-01-08T15:55:00Z</time>
      </trkpt>
      <trkpt lat="36.7448130" lon="-3.7891580">
        <ele>-6.0</ele>
        <time>2022-01-08T15:55:01Z</time>
      </trkpt>
      <trkpt lat="36.7448130" lon="-3.7891580">
        <ele>-7.0</ele>
        <time>2022-01-08T15:55:02Z</time>
      </trkpt>
      <trkpt lat="36.7447970" lon="-3.7891810">
        <ele>-7.0</ele>
        <time>2022-01-08T15:55:03Z</time>
      </trkpt>
      <trkpt lat="36.7447970" lon="-3.7891810">
        <ele>-7.0</ele>
        <time>2022-01-08T15:55:04Z</time>
      </trkpt>
      <trkpt lat="36.7447970" lon="-3.7891810">
        <ele>-7.0</ele>
        <time>2022-01-08T15:55:05Z</time>
      </trkpt>
      <trkpt lat="36.7447970" lon="-3.7891810">
        <ele>-7.0</ele>
        <time>2022-01-08T15:55:06Z</time>
      </trkpt>
      <trkpt lat="36.7447810" lon="-3.7892040">
        <ele>-7.0</ele>
        <time>2022-01-08T15:55:07Z</time>
      </trkpt>
      <trkpt lat="36.7447810" lon="-3.7892040">
        <ele>-7.0</ele>
        <time>2022-01-08T15:55:08Z</time>
      </trkpt>
      <trkpt lat="36.7447810" lon="-3.7892040">
        <ele>-7.0</ele>
        <time>2022-01-08T15:55:09Z</time>
      </trkpt>
      <trkpt lat="36.7447810" lon="-3.7892040">
        <ele>-7.0</ele>
        <time>2022-01-08T15:55:10Z</time>
      </trkpt>
      <trkpt lat="36.7447810" lon="-3.7892040">
        <ele>-7.0</ele>
        <time>2022-01-08T15:55:11Z</time>
      </trkpt>
      <trkpt lat="36.7447810" lon="-3.7892040">
        <ele>-7.0</ele>
        <time>2022-01-08T15:55:12Z</time>
      </trkpt>
      <trkpt lat="36.7447810" lon="-3.7892040">
        <ele>-7.0</ele>
        <time>2022-01-08T15:55:13Z</time>
      </trkpt>
      <trkpt lat="36.7447810" lon="-3.7892040">
        <ele>-7.0</ele>
        <time>2022-01-08T15:55:14Z</time>
      </trkpt>
      <trkpt lat="36.7447810" lon="-3.7892040">
        <ele>-7.0</ele>
        <time>2022-01-08T15:55:15Z</time>
      </trkpt>
      <trkpt lat="36.7447810" lon="-3.7892040">
        <ele>-7.0</ele>
        <time>2022-01-08T15:55:16Z</time>
      </trkpt>
      <trkpt lat="36.7447810" lon="-3.7892040">
        <ele>-7.0</ele>
        <time>2022-01-08T15:55:17Z</time>
      </trkpt>
      <trkpt lat="36.7447810" lon="-3.7892040">
        <ele>-7.0</ele>
        <time>2022-01-08T15:55:18Z</time>
      </trkpt>
      <trkpt lat="36.7447810" lon="-3.7892040">
        <ele>-7.0</ele>
        <time>2022-01-08T15:55:19Z</time>
      </trkpt>
      <trkpt lat="36.7447810" lon="-3.7892040">
        <ele>-7.0</ele>
        <time>2022-01-08T15:55:20Z</time>
      </trkpt>
      <trkpt lat="36.7447810" lon="-3.7892040">
        <ele>-7.0</ele>
        <time>2022-01-08T15:55:21Z</time>
      </trkpt>
      <trkpt lat="36.7447620" lon="-3.7892180">
        <ele>-7.0</ele>
        <time>2022-01-08T15:55:22Z</time>
      </trkpt>
      <trkpt lat="36.7447620" lon="-3.7892180">
        <ele>-7.0</ele>
        <time>2022-01-08T15:55:23Z</time>
      </trkpt>
      <trkpt lat="36.7447620" lon="-3.7892180">
        <ele>-7.0</ele>
        <time>2022-01-08T15:55:24Z</time>
      </trkpt>
      <trkpt lat="36.7447250" lon="-3.7892820">
        <ele>1.0</ele>
        <time>2022-01-08T16:23:16Z</time>
      </trkpt>
      <trkpt lat="36.7447250" lon="-3.7892820">
        <ele>1.0</ele>
        <time>2022-01-08T16:23:17Z</time>
      </trkpt>
      <trkpt lat="36.7447290" lon="-3.7892750">
        <ele>1.0</ele>
        <time>2022-01-08T16:23:18Z</time>
      </trkpt>
      <trkpt lat="36.7447150" lon="-3.7892950">
        <ele>-1.0</ele>
        <time>2022-01-08T16:24:07Z</time>
      </trkpt>
      <trkpt lat="36.7447150" lon="-3.7892950">
        <ele>-1.0</ele>
        <time>2022-01-08T16:24:08Z</time>
      </trkpt>
      <trkpt lat="36.7447150" lon="-3.7892950">
        <ele>-1.0</ele>
        <time>2022-01-08T16:24:09Z</time>
      </trkpt>
      <trkpt lat="36.7447150" lon="-3.7892950">
        <ele>-1.0</ele>
        <time>2022-01-08T16:24:10Z</time>
      </trkpt>
      <trkpt lat="36.7447150" lon="-3.7892950">
        <ele>-1.0</ele>
        <time>2022-01-08T16:24:11Z</time>
      </trkpt>
      <trkpt lat="36.7447150" lon="-3.7892950">
        <ele>-1.0</ele>
        <time>2022-01-08T16:24:12Z</time>
      </trkpt>
      <trkpt lat="36.7447150" lon="-3.7892950">
        <ele>-1.0</ele>
        <time>2022-01-08T16:24:13Z</time>
      </trkpt>
      <trkpt lat="36.7447150" lon="-3.7892950">
        <ele>-1.0</ele>
        <time>2022-01-08T16:24:14Z</time>
      </trkpt>
      <trkpt lat="36.7447150" lon="-3.7892950">
        <ele>-1.0</ele>
        <time>2022-01-08T16:24:15Z</time>
      </trkpt>
      <trkpt lat="36.7447150" lon="-3.7892950">
        <ele>-1.0</ele>
        <time>2022-01-08T16:24:16Z</time>
      </trkpt>
      <trkpt lat="36.7447150" lon="-3.7892950">
        <ele>-1.0</ele>
        <time>2022-01-08T16:24:17Z</time>
      </trkpt>
      <trkpt lat="36.7447150" lon="-3.7892950">
        <ele>-1.0</ele>
        <time>2022-01-08T16:24:18Z</time>
      </trkpt>
      <trkpt lat="36.7447150" lon="-3.7892950">
        <ele>-1.0</ele>
        <time>2022-01-08T16:24:19Z</time>
      </trkpt>
      <trkpt lat="36.7447150" lon="-3.7892950">
        <ele>-1.0</ele>
        <time>2022-01-08T16:24:20Z</time>
      </trkpt>
      <trkpt lat="36.7447150" lon="-3.7892950">
        <ele>-1.0</ele>
        <time>2022-01-08T16:24:21Z</time>
      </trkpt>
      <trkpt lat="36.7447150" lon="-3.7892950">
        <ele>-1.0</ele>
        <time>2022-01-08T16:24:22Z</time>
      </trkpt>
      <trkpt lat="36.7447150" lon="-3.7892950">
        <ele>-1.0</ele>
        <time>2022-01-08T16:24:23Z</time>
      </trkpt>
      <trkpt lat="36.7447150" lon="-3.7892950">
        <ele>-1.0</ele>
        <time>2022-01-08T16:24:24Z</time>
      </trkpt>
      <trkpt lat="36.7447150" lon="-3.7892950">
        <ele>-1.0</ele>
        <time>2022-01-08T16:24:25Z</time>
      </trkpt>
      <trkpt lat="36.7447150" lon="-3.7892950">
        <ele>-1.0</ele>
        <time>2022-01-08T16:24:26Z</time>
      </trkpt>
      <trkpt lat="36.7447150" lon="-3.7892950">
        <ele>-1.0</ele>
        <time>2022-01-08T16:24:27Z</time>
      </trkpt>
      <trkpt lat="36.7447150" lon="-3.7892950">
        <ele>-1.0</ele>
        <time>2022-01-08T16:24:28Z</time>
      </trkpt>
      <trkpt lat="36.7447150" lon="-3.7892950">
        <ele>-1.0</ele>
        <time>2022-01-08T16:24:29Z</time>
      </trkpt>
      <trkpt lat="36.7447150" lon="-3.7892950">
        <ele>-1.0</ele>
        <time>2022-01-08T16:24:30Z</time>
      </trkpt>
      <trkpt lat="36.7447150" lon="-3.7892950">
        <ele>-1.0</ele>
        <time>2022-01-08T16:24:31Z</time>
      </trkpt>
      <trkpt lat="36.7447150" lon="-3.7892950">
        <ele>-1.0</ele>
        <time>2022-01-08T16:24:32Z</time>
      </trkpt>
      <trkpt lat="36.7447150" lon="-3.7892950">
        <ele>-1.0</ele>
        <time>2022-01-08T16:24:33Z</time>
      </trkpt>
      <trkpt lat="36.7447150" lon="-3.7892950">
        <ele>-1.0</ele>
        <time>2022-01-08T16:24:34Z</time>
      </trkpt>
      <trkpt lat="36.7447150" lon="-3.7892950">
        <ele>-1.0</ele>
        <time>2022-01-08T16:24:35Z</time>
      </trkpt>
      <trkpt lat="36.7447150" lon="-3.7892950">
        <ele>-1.0</ele>
        <time>2022-01-08T16:24:36Z</time>
      </trkpt>
      <trkpt lat="36.7447150" lon="-3.7892950">
        <ele>-1.0</ele>
        <time>2022-01-08T16:24:37Z</time>
      </trkpt>
      <trkpt lat="36.7447150" lon="-3.7892950">
        <ele>-1.0</ele>
        <time>2022-01-08T16:24:38Z</time>
      </trkpt>
      <trkpt lat="36.7447150" lon="-3.7892950">
        <ele>-1.0</ele>
        <time>2022-01-08T16:24:39Z</time>
      </trkpt>
      <trkpt lat="36.7447150" lon="-3.7892950">
        <ele>-1.0</ele>
        <time>2022-01-08T16:24:40Z</time>
      </trkpt>
      <trkpt lat="36.7447150" lon="-3.7892950">
        <ele>-1.0</ele>
        <time>2022-01-08T16:24:41Z</time>
      </trkpt>
      <trkpt lat="36.7447150" lon="-3.7892950">
        <ele>-1.0</ele>
        <time>2022-01-08T16:24:42Z</time>
      </trkpt>
      <trkpt lat="36.7447150" lon="-3.7892950">
        <ele>-1.0</ele>
        <time>2022-01-08T16:24:43Z</time>
      </trkpt>
      <trkpt lat="36.7447150" lon="-3.7892950">
        <ele>-1.0</ele>
        <time>2022-01-08T16:24:44Z</time>
      </trkpt>
      <trkpt lat="36.7447210" lon="-3.7892810">
        <ele>-1.0</ele>
        <time>2022-01-08T16:24:45Z</time>
      </trkpt>
      <trkpt lat="36.7447220" lon="-3.7892780">
        <ele>-1.0</ele>
        <time>2022-01-08T16:24:46Z</time>
      </trkpt>
      <trkpt lat="36.7447230" lon="-3.7892760">
        <ele>-1.0</ele>
        <time>2022-01-08T16:24:47Z</time>
      </trkpt>
      <trkpt lat="36.7447240" lon="-3.7892730">
        <ele>-1.0</ele>
        <time>2022-01-08T16:24:48Z</time>
      </trkpt>
      <trkpt lat="36.7447250" lon="-3.7892710">
        <ele>-1.0</ele>
        <time>2022-01-08T16:24:49Z</time>
      </trkpt>
      <trkpt lat="36.7447260" lon="-3.7892680">
        <ele>-1.0</ele>
        <time>2022-01-08T16:24:50Z</time>
      </trkpt>
      <trkpt lat="36.7447270" lon="-3.7892650">
        <ele>-1.0</ele>
        <time>2022-01-08T16:24:51Z</time>
      </trkpt>
      <trkpt lat="36.7447280" lon="-3.7892630">
        <ele>-1.0</ele>
        <time>2022-01-08T16:24:52Z</time>
      </trkpt>
      <trkpt lat="36.7447290" lon="-3.7892600">
        <ele>-1.0</ele>
        <time>2022-01-08T16:24:53Z</time>
      </trkpt>
      <trkpt lat="36.7447300" lon="-3.7892580">
        <ele>-1.0</ele>
        <time>2022-01-08T16:24:54Z</time>
      </trkpt>
      <trkpt lat="36.7447310" lon="-3.7892550">
        <ele>-1.0</ele>
        <time>2022-01-08T16:24:55Z</time>
      </trkpt>
      <trkpt lat="36.7447290" lon="-3.7892850">
        <ele>-1.0</ele>
        <time>2022-01-08T16:24:56Z</time>
      </trkpt>
      <trkpt lat="36.7447300" lon="-3.7892860">
        <ele>-1.0</ele>
        <time>2022-01-08T16:24:57Z</time>
      </trkpt>
      <trkpt lat="36.7447310" lon="-3.7892880">
        <ele>-1.0</ele>
        <time>2022-01-08T16:24:58Z</time>
      </trkpt>
      <trkpt lat="36.7447320" lon="-3.7892900">
        <ele>-1.0</ele>
        <time>2022-01-08T16:24:59Z</time>
      </trkpt>
      <trkpt lat="36.7447340" lon="-3.7892910">
        <ele>-1.0</ele>
        <time>2022-01-08T16:25:00Z</time>
      </trkpt>
      <trkpt lat="36.7447350" lon="-3.7892930">
        <ele>-1.0</ele>
        <time>2022-01-08T16:25:01Z</time>
      </trkpt>
      <trkpt lat="36.7447360" lon="-3.7892950">
        <ele>-1.0</ele>
        <time>2022-01-08T16:25:02Z</time>
      </trkpt>
      <trkpt lat="36.7447380" lon="-3.7892960">
        <ele>-1.0</ele>
        <time>2022-01-08T16:25:03Z</time>
      </trkpt>
      <trkpt lat="36.7447390" lon="-3.7892980">
        <ele>-1.0</ele>
        <time>2022-01-08T16:25:04Z</time>
      </trkpt>
      <trkpt lat="36.7447400" lon="-3.7893000">
        <ele>-1.0</ele>
        <time>2022-01-08T16:25:05Z</time>
      </trkpt>
      <trkpt lat="36.7447400" lon="-3.7893000">
        <ele>-1.0</ele>
        <time>2022-01-08T16:25:06Z</time>
      </trkpt>
      <trkpt lat="36.7447400" lon="-3.7893000">
        <ele>-1.0</ele>
        <time>2022-01-08T16:25:07Z</time>
      </trkpt>
      <trkpt lat="36.7447400" lon="-3.7893000">
        <ele>-1.0</ele>
        <time>2022-01-08T16:25:08Z</time>
      </trkpt>
      <trkpt lat="36.7447400" lon="-3.7893000">
        <ele>-1.0</ele>
        <time>2022-01-08T16:25:09Z</time>
      </trkpt>
      <trkpt lat="36.7447400" lon="-3.7893000">
        <ele>-1.0</ele>
        <time>2022-01-08T16:25:10Z</time>
      </trkpt>
      <trkpt lat="36.7447400" lon="-3.7893000">
        <ele>-1.0</ele>
        <time>2022-01-08T16:25:11Z</time>
      </trkpt>
      <trkpt lat="36.7447400" lon="-3.7893000">
        <ele>-1.0</ele>
        <time>2022-01-08T16:25:12Z</time>
      </trkpt>
      <trkpt lat="36.7447400" lon="-3.7893000">
        <ele>-1.0</ele>
        <time>2022-01-08T16:25:13Z</time>
      </trkpt>
      <trkpt lat="36.7447400" lon="-3.7893000">
        <ele>-1.0</ele>
        <time>2022-01-08T16:25:14Z</time>
      </trkpt>
      <trkpt lat="36.7447400" lon="-3.7893000">
        <ele>-1.0</ele>
        <time>2022-01-08T16:25:15Z</time>
      </trkpt>
      <trkpt lat="36.7447400" lon="-3.7893000">
        <ele>-1.0</ele>
        <time>2022-01-08T16:25:16Z</time>
      </trkpt>
      <trkpt lat="36.7447400" lon="-3.7893000">
        <ele>-1.0</ele>
        <time>2022-01-08T16:25:17Z</time>
      </trkpt>
      <trkpt lat="36.7447400" lon="-3.7893000">
        <ele>-1.0</ele>
        <time>2022-01-08T16:25:18Z</time>
      </trkpt>
      <trkpt lat="36.7447400" lon="-3.7893000">
        <ele>-1.0</ele>
        <time>2022-01-08T16:25:19Z</time>
      </trkpt>
      <trkpt lat="36.7447400" lon="-3.7893000">
        <ele>-1.0</ele>
        <time>2022-01-08T16:25:20Z</time>
      </trkpt>
      <trkpt lat="36.7447400" lon="-3.7893000">
        <ele>-1.0</ele>
        <time>2022-01-08T16:25:21Z</time>
      </trkpt>
      <trkpt lat="36.7447400" lon="-3.7893000">
        <ele>-1.0</ele>
        <time>2022-01-08T16:25:22Z</time>
      </trkpt>
      <trkpt lat="36.7447400" lon="-3.7893000">
        <ele>-1.0</ele>
        <time>2022-01-08T16:25:23Z</time>
      </trkpt>
      <trkpt lat="36.7447400" lon="-3.7893000">
        <ele>-1.0</ele>
        <time>2022-01-08T16:25:24Z</time>
      </trkpt>
      <trkpt lat="36.7447400" lon="-3.7893000">
        <ele>-1.0</ele>
        <time>2022-01-08T16:25:25Z</time>
      </trkpt>
      <trkpt lat="36.7447400" lon="-3.7893000">
        <ele>-1.0</ele>
        <time>2022-01-08T16:25:26Z</time>
      </trkpt>
      <trkpt lat="36.7447400" lon="-3.7893000">
        <ele>-1.0</ele>
        <time>2022-01-08T16:25:27Z</time>
      </trkpt>
      <trkpt lat="36.7447400" lon="-3.7893000">
        <ele>-1.0</ele>
        <time>2022-01-08T16:25:28Z</time>
      </trkpt>
      <trkpt lat="36.7447400" lon="-3.7893000">
        <ele>-1.0</ele>
        <time>2022-01-08T16:25:29Z</time>
      </trkpt>
      <trkpt lat="36.7447400" lon="-3.7893000">
        <ele>-1.0</ele>
        <time>2022-01-08T16:25:30Z</time>
      </trkpt>
      <trkpt lat="36.7447400" lon="-3.7893000">
        <ele>-1.0</ele>
        <time>2022-01-08T16:25:31Z</time>
      </trkpt>
      <trkpt lat="36.7447400" lon="-3.7893000">
        <ele>-1.0</ele>
        <time>2022-01-08T16:25:32Z</time>
      </trkpt>
      <trkpt lat="36.7447400" lon="-3.7893000">
        <ele>-1.0</ele>
        <time>2022-01-08T16:25:33Z</time>
      </trkpt>
      <trkpt lat="36.7447400" lon="-3.7893000">
        <ele>-1.0</ele>
        <time>2022-01-08T16:25:34Z</time>
      </trkpt>
      <trkpt lat="36.7447400" lon="-3.7893000">
        <ele>-1.0</ele>
        <time>2022-01-08T16:25:35Z</time>
      </trkpt>
      <trkpt lat="36.7447400" lon="-3.7893000">
        <ele>-1.0</ele>
        <time>2022-01-08T16:25:36Z</time>
      </trkpt>
      <trkpt lat="36.7447400" lon="-3.7893000">
        <ele>-1.0</ele>
        <time>2022-01-08T16:25:37Z</time>
      </trkpt>
      <trkpt lat="36.7447400" lon="-3.7893000">
        <ele>-1.0</ele>
        <time>2022-01-08T16:25:38Z</time>
      </trkpt>
      <trkpt lat="36.7447400" lon="-3.7893000">
        <ele>-1.0</ele>
        <time>2022-01-08T16:25:39Z</time>
      </trkpt>
      <trkpt lat="36.7447400" lon="-3.7893000">
        <ele>-1.0</ele>
        <time>2022-01-08T16:25:40Z</time>
      </trkpt>
      <trkpt lat="36.7447400" lon="-3.7893000">
        <ele>-1.0</ele>
        <time>2022-01-08T16:25:41Z</time>
      </trkpt>
      <trkpt lat="36.7447400" lon="-3.7893000">
        <ele>-1.0</ele>
        <time>2022-01-08T16:25:42Z</time>
      </trkpt>
      <trkpt lat="36.7447400" lon="-3.7893000">
        <ele>-1.0</ele>
        <time>2022-01-08T16:25:43Z</time>
      </trkpt>
      <trkpt lat="36.7447400" lon="-3.7893000">
        <ele>-1.0</ele>
        <time>2022-01-08T16:25:44Z</time>
      </trkpt>
      <trkpt lat="36.7447520" lon="-3.7892820">
        <ele>-1.0</ele>
        <time>2022-01-08T16:25:45Z</time>
      </trkpt>
      <trkpt lat="36.7447520" lon="-3.7892820">
        <ele>-1.0</ele>
        <time>2022-01-08T16:25:46Z</time>
      </trkpt>
      <trkpt lat="36.7447520" lon="-3.7892820">
        <ele>-1.0</ele>
        <time>2022-01-08T16:25:47Z</time>
      </trkpt>
      <trkpt lat="36.7447520" lon="-3.7892820">
        <ele>-1.0</ele>
        <time>2022-01-08T16:25:48Z</time>
      </trkpt>
      <trkpt lat="36.7447520" lon="-3.7892810">
        <ele>-1.0</ele>
        <time>2022-01-08T16:25:49Z</time>
      </trkpt>
      <trkpt lat="36.7447520" lon="-3.7892810">
        <ele>-1.0</ele>
        <time>2022-01-08T16:25:50Z</time>
      </trkpt>
      <trkpt lat="36.7447520" lon="-3.7892810">
        <ele>-1.0</ele>
        <time>2022-01-08T16:25:51Z</time>
      </trkpt>
      <trkpt lat="36.7447520" lon="-3.7892810">
        <ele>-1.0</ele>
        <time>2022-01-08T16:25:52Z</time>
      </trkpt>
      <trkpt lat="36.7447510" lon="-3.7892810">
        <ele>-1.0</ele>
        <time>2022-01-08T16:25:53Z</time>
      </trkpt>
      <trkpt lat="36.7447510" lon="-3.7892810">
        <ele>-1.0</ele>
        <time>2022-01-08T16:25:54Z</time>
      </trkpt>
      <trkpt lat="36.7447510" lon="-3.7892810">
        <ele>-1.0</ele>
        <time>2022-01-08T16:25:55Z</time>
      </trkpt>
      <trkpt lat="36.7447480" lon="-3.7892730">
        <ele>-1.0</ele>
        <time>2022-01-08T16:25:56Z</time>
      </trkpt>
      <trkpt lat="36.7447450" lon="-3.7892660">
        <ele>-1.0</ele>
        <time>2022-01-08T16:25:57Z</time>
      </trkpt>
      <trkpt lat="36.7447410" lon="-3.7892580">
        <ele>-1.0</ele>
        <time>2022-01-08T16:25:58Z</time>
      </trkpt>
      <trkpt lat="36.7447380" lon="-3.7892510">
        <ele>-1.0</ele>
        <time>2022-01-08T16:25:59Z</time>
      </trkpt>
      <trkpt lat="36.7447350" lon="-3.7892430">
        <ele>-1.0</ele>
        <time>2022-01-08T16:26:00Z</time>
      </trkpt>
      <trkpt lat="36.7447320" lon="-3.7892360">
        <ele>-1.0</ele>
        <time>2022-01-08T16:26:01Z</time>
      </trkpt>
      <trkpt lat="36.7447280" lon="-3.7892280">
        <ele>-1.0</ele>
        <time>2022-01-08T16:26:02Z</time>
      </trkpt>
      <trkpt lat="36.7447250" lon="-3.7892200">
        <ele>-1.0</ele>
        <time>2022-01-08T16:26:03Z</time>
      </trkpt>
      <trkpt lat="36.7447220" lon="-3.7892130">
        <ele>-1.0</ele>
        <time>2022-01-08T16:26:04Z</time>
      </trkpt>
      <trkpt lat="36.7447180" lon="-3.7892050">
        <ele>-1.0</ele>
        <time>2022-01-08T16:26:05Z</time>
      </trkpt>
      <trkpt lat="36.7447190" lon="-3.7892130">
        <ele>-1.0</ele>
        <time>2022-01-08T16:26:06Z</time>
      </trkpt>
      <trkpt lat="36.7447190" lon="-3.7892210">
        <ele>-1.0</ele>
        <time>2022-01-08T16:26:07Z</time>
      </trkpt>
      <trkpt lat="36.7447190" lon="-3.7892290">
        <ele>-1.0</ele>
        <time>2022-01-08T16:26:08Z</time>
      </trkpt>
      <trkpt lat="36.7447190" lon="-3.7892370">
        <ele>-1.0</ele>
        <time>2022-01-08T16:26:09Z</time>
      </trkpt>
      <trkpt lat="36.7447190" lon="-3.7892440">
        <ele>-1.0</ele>
        <time>2022-01-08T16:26:10Z</time>
      </trkpt>
      <trkpt lat="36.7447190" lon="-3.7892520">
        <ele>-1.0</ele>
        <time>2022-01-08T16:26:11Z</time>
      </trkpt>
      <trkpt lat="36.7447190" lon="-3.7892600">
        <ele>-1.0</ele>
        <time>2022-01-08T16:26:12Z</time>
      </trkpt>
      <trkpt lat="36.7447190" lon="-3.7892680">
        <ele>-1.0</ele>
        <time>2022-01-08T16:26:13Z</time>
      </trkpt>
      <trkpt lat="36.7447190" lon="-3.7892760">
        <ele>-1.0</ele>
        <time>2022-01-08T16:26:14Z</time>
      </trkpt>
      <trkpt lat="36.7447190" lon="-3.7892830">
        <ele>-1.0</ele>
        <time>2022-01-08T16:26:15Z</time>
      </trkpt>
      <trkpt lat="36.7447190" lon="-3.7892830">
        <ele>-1.0</ele>
        <time>2022-01-08T16:26:16Z</time>
      </trkpt>
      <trkpt lat="36.7447190" lon="-3.7892830">
        <ele>-1.0</ele>
        <time>2022-01-08T16:26:17Z</time>
      </trkpt>
      <trkpt lat="36.7447190" lon="-3.7892830">
        <ele>-1.0</ele>
        <time>2022-01-08T16:26:18Z</time>
      </trkpt>
      <trkpt lat="36.7447190" lon="-3.7892830">
        <ele>-1.0</ele>
        <time>2022-01-08T16:26:19Z</time>
      </trkpt>
      <trkpt lat="36.7447190" lon="-3.7892830">
        <ele>-1.0</ele>
        <time>2022-01-08T16:26:20Z</time>
      </trkpt>
      <trkpt lat="36.7447190" lon="-3.7892830">
        <ele>-1.0</ele>
        <time>2022-01-08T16:26:21Z</time>
      </trkpt>
      <trkpt lat="36.7447190" lon="-3.7892830">
        <ele>-1.0</ele>
        <time>2022-01-08T16:26:22Z</time>
      </trkpt>
      <trkpt lat="36.7447190" lon="-3.7892830">
        <ele>-1.0</ele>
        <time>2022-01-08T16:26:23Z</time>
      </trkpt>
      <trkpt lat="36.7447190" lon="-3.7892830">
        <ele>-1.0</ele>
        <time>2022-01-08T16:26:24Z</time>
      </trkpt>
      <trkpt lat="36.7447190" lon="-3.7892830">
        <ele>-1.0</ele>
        <time>2022-01-08T16:26:25Z</time>
      </trkpt>
      <trkpt lat="36.7447190" lon="-3.7892830">
        <ele>-1.0</ele>
        <time>2022-01-08T16:26:26Z</time>
      </trkpt>
      <trkpt lat="36.7447190" lon="-3.7892830">
        <ele>-1.0</ele>
        <time>2022-01-08T16:26:27Z</time>
      </trkpt>
      <trkpt lat="36.7447190" lon="-3.7892830">
        <ele>-1.0</ele>
        <time>2022-01-08T16:26:28Z</time>
      </trkpt>
      <trkpt lat="36.7447190" lon="-3.7892830">
        <ele>-1.0</ele>
        <time>2022-01-08T16:26:29Z</time>
      </trkpt>
      <trkpt lat="36.7447190" lon="-3.7892830">
        <ele>-1.0</ele>
        <time>2022-01-08T16:26:30Z</time>
      </trkpt>
      <trkpt lat="36.7447190" lon="-3.7892830">
        <ele>-1.0</ele>
        <time>2022-01-08T16:26:31Z</time>
      </trkpt>
      <trkpt lat="36.7447190" lon="-3.7892830">
        <ele>-1.0</ele>
        <time>2022-01-08T16:26:32Z</time>
      </trkpt>
      <trkpt lat="36.7447190" lon="-3.7892830">
        <ele>-1.0</ele>
        <time>2022-01-08T16:26:33Z</time>
      </trkpt>
      <trkpt lat="36.7447190" lon="-3.7892830">
        <ele>-1.0</ele>
        <time>2022-01-08T16:26:34Z</time>
      </trkpt>
      <trkpt lat="36.7447190" lon="-3.7892830">
        <ele>-1.0</ele>
        <time>2022-01-08T16:26:35Z</time>
      </trkpt>
      <trkpt lat="36.7447190" lon="-3.7892830">
        <ele>-1.0</ele>
        <time>2022-01-08T16:26:36Z</time>
      </trkpt>
      <trkpt lat="36.7447190" lon="-3.7892830">
        <ele>-1.0</ele>
        <time>2022-01-08T16:26:37Z</time>
      </trkpt>
      <trkpt lat="36.7447190" lon="-3.7892830">
        <ele>-1.0</ele>
        <time>2022-01-08T16:26:38Z</time>
      </trkpt>
      <trkpt lat="36.7447190" lon="-3.7892830">
        <ele>-1.0</ele>
        <time>2022-01-08T16:26:39Z</time>
      </trkpt>
      <trkpt lat="36.7447190" lon="-3.7892830">
        <ele>-1.0</ele>
        <time>2022-01-08T16:26:40Z</time>
      </trkpt>
      <trkpt lat="36.7447370" lon="-3.7892660">
        <ele>-1.0</ele>
        <time>2022-01-08T16:26:41Z</time>
      </trkpt>
      <trkpt lat="36.7447370" lon="-3.7892660">
        <ele>-1.0</ele>
        <time>2022-01-08T16:26:42Z</time>
      </trkpt>
      <trkpt lat="36.7447370" lon="-3.7892660">
        <ele>-1.0</ele>
        <time>2022-01-08T16:26:43Z</time>
      </trkpt>
      <trkpt lat="36.7447370" lon="-3.7892660">
        <ele>-1.0</ele>
        <time>2022-01-08T16:26:44Z</time>
      </trkpt>
      <trkpt lat="36.7447080" lon="-3.7892620">
        <ele>-1.0</ele>
        <time>2022-01-08T16:26:45Z</time>
      </trkpt>
      <trkpt lat="36.7447100" lon="-3.7892640">
        <ele>-1.0</ele>
        <time>2022-01-08T16:26:46Z</time>
      </trkpt>
      <trkpt lat="36.7447110" lon="-3.7892650">
        <ele>-1.0</ele>
        <time>2022-01-08T16:26:47Z</time>
      </trkpt>
      <trkpt lat="36.7447130" lon="-3.7892670">
        <ele>-1.0</ele>
        <time>2022-01-08T16:26:48Z</time>
      </trkpt>
      <trkpt lat="36.7447140" lon="-3.7892680">
        <ele>-1.0</ele>
        <time>2022-01-08T16:26:49Z</time>
      </trkpt>
      <trkpt lat="36.7447160" lon="-3.7892700">
        <ele>-1.0</ele>
        <time>2022-01-08T16:26:50Z</time>
      </trkpt>
      <trkpt lat="36.7447170" lon="-3.7892710">
        <ele>-1.0</ele>
        <time>2022-01-08T16:26:51Z</time>
      </trkpt>
      <trkpt lat="36.7447190" lon="-3.7892730">
        <ele>-1.0</ele>
        <time>2022-01-08T16:26:52Z</time>
      </trkpt>
      <trkpt lat="36.7447200" lon="-3.7892740">
        <ele>-1.0</ele>
        <time>2022-01-08T16:26:53Z</time>
      </trkpt>
      <trkpt lat="36.7447220" lon="-3.7892760">
        <ele>-1.0</ele>
        <time>2022-01-08T16:26:54Z</time>
      </trkpt>
      <trkpt lat="36.7447230" lon="-3.7892770">
        <ele>-1.0</ele>
        <time>2022-01-08T16:26:55Z</time>
      </trkpt>
      <trkpt lat="36.7447230" lon="-3.7892770">
        <ele>-1.0</ele>
        <time>2022-01-08T16:26:56Z</time>
      </trkpt>
      <trkpt lat="36.7447230" lon="-3.7892770">
        <ele>-1.0</ele>
        <time>2022-01-08T16:26:57Z</time>
      </trkpt>
      <trkpt lat="36.7447230" lon="-3.7892770">
        <ele>-1.0</ele>
        <time>2022-01-08T16:26:58Z</time>
      </trkpt>
      <trkpt lat="36.7447230" lon="-3.7892770">
        <ele>-1.0</ele>
        <time>2022-01-08T16:26:59Z</time>
      </trkpt>
      <trkpt lat="36.7447230" lon="-3.7892770">
        <ele>-1.0</ele>
        <time>2022-01-08T16:27:00Z</time>
      </trkpt>
      <trkpt lat="36.7447230" lon="-3.7892770">
        <ele>-1.0</ele>
        <time>2022-01-08T16:27:01Z</time>
      </trkpt>
      <trkpt lat="36.7447230" lon="-3.7892770">
        <ele>-1.0</ele>
        <time>2022-01-08T16:27:02Z</time>
      </trkpt>
      <trkpt lat="36.7447230" lon="-3.7892770">
        <ele>-1.0</ele>
        <time>2022-01-08T16:27:03Z</time>
      </trkpt>
      <trkpt lat="36.7447230" lon="-3.7892770">
        <ele>-1.0</ele>
        <time>2022-01-08T16:27:04Z</time>
      </trkpt>
      <trkpt lat="36.7447230" lon="-3.7892770">
        <ele>-1.0</ele>
        <time>2022-01-08T16:27:05Z</time>
      </trkpt>
      <trkpt lat="36.7447230" lon="-3.7892770">
        <ele>-1.0</ele>
        <time>2022-01-08T16:27:06Z</time>
      </trkpt>
      <trkpt lat="36.7447230" lon="-3.7892770">
        <ele>-1.0</ele>
        <time>2022-01-08T16:27:07Z</time>
      </trkpt>
      <trkpt lat="36.7447230" lon="-3.7892770">
        <ele>-1.0</ele>
        <time>2022-01-08T16:27:08Z</time>
      </trkpt>
      <trkpt lat="36.7447230" lon="-3.7892770">
        <ele>-1.0</ele>
        <time>2022-01-08T16:27:09Z</time>
      </trkpt>
      <trkpt lat="36.7447230" lon="-3.7892770">
        <ele>-1.0</ele>
        <time>2022-01-08T16:27:10Z</time>
      </trkpt>
      <trkpt lat="36.7447230" lon="-3.7892770">
        <ele>-1.0</ele>
        <time>2022-01-08T16:27:11Z</time>
      </trkpt>
      <trkpt lat="36.7447230" lon="-3.7892770">
        <ele>-1.0</ele>
        <time>2022-01-08T16:27:12Z</time>
      </trkpt>
      <trkpt lat="36.7447230" lon="-3.7892770">
        <ele>-1.0</ele>
        <time>2022-01-08T16:27:13Z</time>
      </trkpt>
      <trkpt lat="36.7447230" lon="-3.7892770">
        <ele>-1.0</ele>
        <time>2022-01-08T16:27:14Z</time>
      </trkpt>
      <trkpt lat="36.7447230" lon="-3.7892770">
        <ele>-1.0</ele>
        <time>2022-01-08T16:27:15Z</time>
      </trkpt>
      <trkpt lat="36.7447230" lon="-3.7892770">
        <ele>-1.0</ele>
        <time>2022-01-08T16:27:16Z</time>
      </trkpt>
      <trkpt lat="36.7447230" lon="-3.7892770">
        <ele>-1.0</ele>
        <time>2022-01-08T16:27:17Z</time>
      </trkpt>
      <trkpt lat="36.7447430" lon="-3.7892940">
        <ele>-1.0</ele>
        <time>2022-01-08T16:27:18Z</time>
      </trkpt>
      <trkpt lat="36.7447430" lon="-3.7892940">
        <ele>-1.0</ele>
        <time>2022-01-08T16:27:19Z</time>
      </trkpt>
      <trkpt lat="36.7447430" lon="-3.7892940">
        <ele>-1.0</ele>
        <time>2022-01-08T16:27:20Z</time>
      </trkpt>
      <trkpt lat="36.7447430" lon="-3.7892940">
        <ele>-1.0</ele>
        <time>2022-01-08T16:27:21Z</time>
      </trkpt>
      <trkpt lat="36.7447430" lon="-3.7892940">
        <ele>-1.0</ele>
        <time>2022-01-08T16:27:22Z</time>
      </trkpt>
      <trkpt lat="36.7447430" lon="-3.7892940">
        <ele>-1.0</ele>
        <time>2022-01-08T16:27:23Z</time>
      </trkpt>
      <trkpt lat="36.7447430" lon="-3.7892940">
        <ele>-1.0</ele>
        <time>2022-01-08T16:27:24Z</time>
      </trkpt>
      <trkpt lat="36.7447430" lon="-3.7892940">
        <ele>-1.0</ele>
        <time>2022-01-08T16:27:25Z</time>
      </trkpt>
      <trkpt lat="36.7447430" lon="-3.7892940">
        <ele>-1.0</ele>
        <time>2022-01-08T16:27:26Z</time>
      </trkpt>
      <trkpt lat="36.7447430" lon="-3.7892940">
        <ele>-1.0</ele>
        <time>2022-01-08T16:27:27Z</time>
      </trkpt>
      <trkpt lat="36.7447430" lon="-3.7892940">
        <ele>-1.0</ele>
        <time>2022-01-08T16:27:28Z</time>
      </trkpt>
      <trkpt lat="36.7447430" lon="-3.7892940">
        <ele>-1.0</ele>
        <time>2022-01-08T16:27:29Z</time>
      </trkpt>
      <trkpt lat="36.7447430" lon="-3.7892940">
        <ele>-1.0</ele>
        <time>2022-01-08T16:27:30Z</time>
      </trkpt>
      <trkpt lat="36.7447430" lon="-3.7892940">
        <ele>-1.0</ele>
        <time>2022-01-08T16:27:31Z</time>
      </trkpt>
      <trkpt lat="36.7447430" lon="-3.7892940">
        <ele>-1.0</ele>
        <time>2022-01-08T16:27:32Z</time>
      </trkpt>
      <trkpt lat="36.7447430" lon="-3.7892940">
        <ele>-1.0</ele>
        <time>2022-01-08T16:27:33Z</time>
      </trkpt>
      <trkpt lat="36.7447430" lon="-3.7892940">
        <ele>-1.0</ele>
        <time>2022-01-08T16:27:34Z</time>
      </trkpt>
      <trkpt lat="36.7447430" lon="-3.7892940">
        <ele>-1.0</ele>
        <time>2022-01-08T16:27:35Z</time>
      </trkpt>
      <trkpt lat="36.7447430" lon="-3.7892940">
        <ele>-1.0</ele>
        <time>2022-01-08T16:27:36Z</time>
      </trkpt>
      <trkpt lat="36.7447430" lon="-3.7892940">
        <ele>-1.0</ele>
        <time>2022-01-08T16:27:37Z</time>
      </trkpt>
      <trkpt lat="36.7447430" lon="-3.7892940">
        <ele>-1.0</ele>
        <time>2022-01-08T16:27:38Z</time>
      </trkpt>
      <trkpt lat="36.7447430" lon="-3.7892940">
        <ele>-1.0</ele>
        <time>2022-01-08T16:27:39Z</time>
      </trkpt>
      <trkpt lat="36.7447430" lon="-3.7892940">
        <ele>-1.0</ele>
        <time>2022-01-08T16:27:40Z</time>
      </trkpt>
      <trkpt lat="36.7447430" lon="-3.7892940">
        <ele>-1.0</ele>
        <time>2022-01-08T16:27:41Z</time>
      </trkpt>
      <trkpt lat="36.7447430" lon="-3.7892940">
        <ele>-1.0</ele>
        <time>2022-01-08T16:27:42Z</time>
      </trkpt>
      <trkpt lat="36.7447430" lon="-3.7892940">
        <ele>-1.0</ele>
        <time>2022-01-08T16:27:43Z</time>
      </trkpt>
      <trkpt lat="36.7447430" lon="-3.7892940">
        <ele>-1.0</ele>
        <time>2022-01-08T16:27:44Z</time>
      </trkpt>
      <trkpt lat="36.7447430" lon="-3.7892940">
        <ele>-1.0</ele>
        <time>2022-01-08T16:27:45Z</time>
      </trkpt>
      <trkpt lat="36.7447430" lon="-3.7892940">
        <ele>-1.0</ele>
        <time>2022-01-08T16:27:46Z</time>
      </trkpt>
      <trkpt lat="36.7447430" lon="-3.7892940">
        <ele>-1.0</ele>
        <time>2022-01-08T16:27:47Z</time>
      </trkpt>
      <trkpt lat="36.7447430" lon="-3.7892940">
        <ele>-1.0</ele>
        <time>2022-01-08T16:27:48Z</time>
      </trkpt>
      <trkpt lat="36.7447430" lon="-3.7892940">
        <ele>-1.0</ele>
        <time>2022-01-08T16:27:49Z</time>
      </trkpt>
      <trkpt lat="36.7447430" lon="-3.7892940">
        <ele>-1.0</ele>
        <time>2022-01-08T16:27:50Z</time>
      </trkpt>
      <trkpt lat="36.7447430" lon="-3.7892940">
        <ele>-1.0</ele>
        <time>2022-01-08T16:27:51Z</time>
      </trkpt>
      <trkpt lat="36.7447430" lon="-3.7892940">
        <ele>-1.0</ele>
        <time>2022-01-08T16:27:52Z</time>
      </trkpt>
      <trkpt lat="36.7447270" lon="-3.7892840">
        <ele>-1.0</ele>
        <time>2022-01-08T16:27:53Z</time>
      </trkpt>
      <trkpt lat="36.7447270" lon="-3.7892840">
        <ele>-1.0</ele>
        <time>2022-01-08T16:27:54Z</time>
      </trkpt>
      <trkpt lat="36.7447270" lon="-3.7892840">
        <ele>-1.0</ele>
        <time>2022-01-08T16:27:55Z</time>
      </trkpt>
      <trkpt lat="36.7447270" lon="-3.7892840">
        <ele>-1.0</ele>
        <time>2022-01-08T16:27:56Z</time>
      </trkpt>
      <trkpt lat="36.7447270" lon="-3.7892840">
        <ele>-1.0</ele>
        <time>2022-01-08T16:27:57Z</time>
      </trkpt>
      <trkpt lat="36.7447270" lon="-3.7892840">
        <ele>-1.0</ele>
        <time>2022-01-08T16:27:58Z</time>
      </trkpt>
      <trkpt lat="36.7447270" lon="-3.7892840">
        <ele>-1.0</ele>
        <time>2022-01-08T16:27:59Z</time>
      </trkpt>
      <trkpt lat="36.7447270" lon="-3.7892840">
        <ele>-1.0</ele>
        <time>2022-01-08T16:28:00Z</time>
      </trkpt>
      <trkpt lat="36.7447270" lon="-3.7892840">
        <ele>-1.0</ele>
        <time>2022-01-08T16:28:01Z</time>
      </trkpt>
      <trkpt lat="36.7447270" lon="-3.7892840">
        <ele>-1.0</ele>
        <time>2022-01-08T16:28:02Z</time>
      </trkpt>
      <trkpt lat="36.7447270" lon="-3.7892840">
        <ele>-1.0</ele>
        <time>2022-01-08T16:28:03Z</time>
      </trkpt>
      <trkpt lat="36.7447270" lon="-3.7892840">
        <ele>-1.0</ele>
        <time>2022-01-08T16:28:04Z</time>
      </trkpt>
      <trkpt lat="36.7447270" lon="-3.7892840">
        <ele>-1.0</ele>
        <time>2022-01-08T16:28:05Z</time>
      </trkpt>
      <trkpt lat="36.7447270" lon="-3.7892840">
        <ele>-1.0</ele>
        <time>2022-01-08T16:28:06Z</time>
      </trkpt>
      <trkpt lat="36.7447270" lon="-3.7892840">
        <ele>-1.0</ele>
        <time>2022-01-08T16:28:07Z</time>
      </trkpt>
      <trkpt lat="36.7447270" lon="-3.7892840">
        <ele>-1.0</ele>
        <time>2022-01-08T16:28:08Z</time>
      </trkpt>
      <trkpt lat="36.7447270" lon="-3.7892840">
        <ele>-1.0</ele>
        <time>2022-01-08T16:28:09Z</time>
      </trkpt>
      <trkpt lat="36.7447270" lon="-3.7892840">
        <ele>-1.0</ele>
        <time>2022-01-08T16:28:10Z</time>
      </trkpt>
      <trkpt lat="36.7447270" lon="-3.7892840">
        <ele>-1.0</ele>
        <time>2022-01-08T16:28:11Z</time>
      </trkpt>
      <trkpt lat="36.7447270" lon="-3.7892840">
        <ele>-1.0</ele>
        <time>2022-01-08T16:28:12Z</time>
      </trkpt>
      <trkpt lat="36.7447270" lon="-3.7892840">
        <ele>-1.0</ele>
        <time>2022-01-08T16:28:13Z</time>
      </trkpt>
      <trkpt lat="36.7447270" lon="-3.7892840">
        <ele>-1.0</ele>
        <time>2022-01-08T16:28:14Z</time>
      </trkpt>
      <trkpt lat="36.7447270" lon="-3.7892840">
        <ele>-1.0</ele>
        <time>2022-01-08T16:28:15Z</time>
      </trkpt>
      <trkpt lat="36.7447270" lon="-3.7892840">
        <ele>-1.0</ele>
        <time>2022-01-08T16:28:16Z</time>
      </trkpt>
      <trkpt lat="36.7447270" lon="-3.7892840">
        <ele>-1.0</ele>
        <time>2022-01-08T16:28:17Z</time>
      </trkpt>
      <trkpt lat="36.7447270" lon="-3.7892840">
        <ele>-1.0</ele>
        <time>2022-01-08T16:28:18Z</time>
      </trkpt>
      <trkpt lat="36.7447270" lon="-3.7892840">
        <ele>-1.0</ele>
        <time>2022-01-08T16:28:19Z</time>
      </trkpt>
      <trkpt lat="36.7447270" lon="-3.7892840">
        <ele>-1.0</ele>
        <time>2022-01-08T16:28:20Z</time>
      </trkpt>
      <trkpt lat="36.7447270" lon="-3.7892840">
        <ele>-1.0</ele>
        <time>2022-01-08T16:28:21Z</time>
      </trkpt>
      <trkpt lat="36.7447270" lon="-3.7892840">
        <ele>-1.0</ele>
        <time>2022-01-08T16:28:22Z</time>
      </trkpt>
      <trkpt lat="36.7447270" lon="-3.7892840">
        <ele>-1.0</ele>
        <time>2022-01-08T16:28:23Z</time>
      </trkpt>
      <trkpt lat="36.7447270" lon="-3.7892840">
        <ele>-1.0</ele>
        <time>2022-01-08T16:28:24Z</time>
      </trkpt>
      <trkpt lat="36.7447270" lon="-3.7892840">
        <ele>-1.0</ele>
        <time>2022-01-08T16:28:25Z</time>
      </trkpt>
      <trkpt lat="36.7447270" lon="-3.7892840">
        <ele>-1.0</ele>
        <time>2022-01-08T16:28:26Z</time>
      </trkpt>
      <trkpt lat="36.7447270" lon="-3.7892840">
        <ele>-1.0</ele>
        <time>2022-01-08T16:28:27Z</time>
      </trkpt>
      <trkpt lat="36.7447270" lon="-3.7892840">
        <ele>-1.0</ele>
        <time>2022-01-08T16:28:28Z</time>
      </trkpt>
      <trkpt lat="36.7447270" lon="-3.7892840">
        <ele>-1.0</ele>
        <time>2022-01-08T16:28:29Z</time>
      </trkpt>
      <trkpt lat="36.7447270" lon="-3.7892840">
        <ele>-1.0</ele>
        <time>2022-01-08T16:28:30Z</time>
      </trkpt>
      <trkpt lat="36.7447270" lon="-3.7892840">
        <ele>-1.0</ele>
        <time>2022-01-08T16:28:31Z</time>
      </trkpt>
      <trkpt lat="36.7447270" lon="-3.7892840">
        <ele>-1.0</ele>
        <time>2022-01-08T16:28:32Z</time>
      </trkpt>
      <trkpt lat="36.7447270" lon="-3.7892840">
        <ele>-1.0</ele>
        <time>2022-01-08T16:28:33Z</time>
      </trkpt>
      <trkpt lat="36.7447270" lon="-3.7892840">
        <ele>-1.0</ele>
        <time>2022-01-08T16:28:34Z</time>
      </trkpt>
      <trkpt lat="36.7447270" lon="-3.7892840">
        <ele>-1.0</ele>
        <time>2022-01-08T16:28:35Z</time>
      </trkpt>
      <trkpt lat="36.7447270" lon="-3.7892840">
        <ele>-1.0</ele>
        <time>2022-01-08T16:28:36Z</time>
      </trkpt>
      <trkpt lat="36.7447270" lon="-3.7892840">
        <ele>-1.0</ele>
        <time>2022-01-08T16:28:37Z</time>
      </trkpt>
      <trkpt lat="36.7447270" lon="-3.7892840">
        <ele>-1.0</ele>
        <time>2022-01-08T16:28:38Z</time>
      </trkpt>
      <trkpt lat="36.7447270" lon="-3.7892840">
        <ele>-1.0</ele>
        <time>2022-01-08T16:28:39Z</time>
      </trkpt>
      <trkpt lat="36.7447270" lon="-3.7892840">
        <ele>-1.0</ele>
        <time>2022-01-08T16:28:40Z</time>
      </trkpt>
      <trkpt lat="36.7447270" lon="-3.7892840">
        <ele>-1.0</ele>
        <time>2022-01-08T16:28:41Z</time>
      </trkpt>
      <trkpt lat="36.7447270" lon="-3.7892840">
        <ele>-1.0</ele>
        <time>2022-01-08T16:28:42Z</time>
      </trkpt>
      <trkpt lat="36.7447010" lon="-3.7892820">
        <ele>-1.0</ele>
        <time>2022-01-08T16:28:43Z</time>
      </trkpt>
      <trkpt lat="36.7447010" lon="-3.7892820">
        <ele>-1.0</ele>
        <time>2022-01-08T16:28:44Z</time>
      </trkpt>
      <trkpt lat="36.7447010" lon="-3.7892820">
        <ele>-1.0</ele>
        <time>2022-01-08T16:28:45Z</time>
      </trkpt>
      <trkpt lat="36.7446870" lon="-3.7892960">
        <ele>-1.0</ele>
        <time>2022-01-08T16:28:46Z</time>
      </trkpt>
      <trkpt lat="36.7446870" lon="-3.7892960">
        <ele>-1.0</ele>
        <time>2022-01-08T16:28:47Z</time>
      </trkpt>
      <trkpt lat="36.7446870" lon="-3.7892960">
        <ele>-1.0</ele>
        <time>2022-01-08T16:28:48Z</time>
      </trkpt>
      <trkpt lat="36.7446870" lon="-3.7892960">
        <ele>-1.0</ele>
        <time>2022-01-08T16:28:49Z</time>
      </trkpt>
      <trkpt lat="36.7446870" lon="-3.7892960">
        <ele>-1.0</ele>
        <time>2022-01-08T16:28:50Z</time>
      </trkpt>
      <trkpt lat="36.7446870" lon="-3.7892960">
        <ele>-1.0</ele>
        <time>2022-01-08T16:28:51Z</time>
      </trkpt>
      <trkpt lat="36.7446870" lon="-3.7892960">
        <ele>-1.0</ele>
        <time>2022-01-08T16:28:52Z</time>
      </trkpt>
      <trkpt lat="36.7446870" lon="-3.7892960">
        <ele>-1.0</ele>
        <time>2022-01-08T16:28:53Z</time>
      </trkpt>
      <trkpt lat="36.7446870" lon="-3.7892960">
        <ele>-1.0</ele>
        <time>2022-01-08T16:28:54Z</time>
      </trkpt>
      <trkpt lat="36.7446870" lon="-3.7892960">
        <ele>-1.0</ele>
        <time>2022-01-08T16:28:55Z</time>
      </trkpt>
      <trkpt lat="36.7446910" lon="-3.7892930">
        <ele>-1.0</ele>
        <time>2022-01-08T16:28:56Z</time>
      </trkpt>
      <trkpt lat="36.7446960" lon="-3.7892900">
        <ele>-1.0</ele>
        <time>2022-01-08T16:28:57Z</time>
      </trkpt>
      <trkpt lat="36.7447000" lon="-3.7892860">
        <ele>-1.0</ele>
        <time>2022-01-08T16:28:58Z</time>
      </trkpt>
      <trkpt lat="36.7447040" lon="-3.7892830">
        <ele>-1.0</ele>
        <time>2022-01-08T16:28:59Z</time>
      </trkpt>
      <trkpt lat="36.7447080" lon="-3.7892790">
        <ele>-1.0</ele>
        <time>2022-01-08T16:29:00Z</time>
      </trkpt>
      <trkpt lat="36.7447130" lon="-3.7892760">
        <ele>-1.0</ele>
        <time>2022-01-08T16:29:01Z</time>
      </trkpt>
      <trkpt lat="36.7447170" lon="-3.7892730">
        <ele>-1.0</ele>
        <time>2022-01-08T16:29:02Z</time>
      </trkpt>
      <trkpt lat="36.7447210" lon="-3.7892690">
        <ele>-1.0</ele>
        <time>2022-01-08T16:29:03Z</time>
      </trkpt>
      <trkpt lat="36.7447260" lon="-3.7892660">
        <ele>-1.0</ele>
        <time>2022-01-08T16:29:04Z</time>
      </trkpt>
      <trkpt lat="36.7447300" lon="-3.7892630">
        <ele>-1.0</ele>
        <time>2022-01-08T16:29:05Z</time>
      </trkpt>
      <trkpt lat="36.7447310" lon="-3.7892610">
        <ele>-1.0</ele>
        <time>2022-01-08T16:29:06Z</time>
      </trkpt>
      <trkpt lat="36.7447320" lon="-3.7892590">
        <ele>-1.0</ele>
        <time>2022-01-08T16:29:07Z</time>
      </trkpt>
      <trkpt lat="36.7447330" lon="-3.7892570">
        <ele>-1.0</ele>
        <time>2022-01-08T16:29:08Z</time>
      </trkpt>
      <trkpt lat="36.7447340" lon="-3.7892550">
        <ele>-1.0</ele>
        <time>2022-01-08T16:29:09Z</time>
      </trkpt>
      <trkpt lat="36.7447350" lon="-3.7892530">
        <ele>-1.0</ele>
        <time>2022-01-08T16:29:10Z</time>
      </trkpt>
      <trkpt lat="36.7447360" lon="-3.7892510">
        <ele>-1.0</ele>
        <time>2022-01-08T16:29:11Z</time>
      </trkpt>
      <trkpt lat="36.7447370" lon="-3.7892490">
        <ele>-1.0</ele>
        <time>2022-01-08T16:29:12Z</time>
      </trkpt>
      <trkpt lat="36.7447380" lon="-3.7892470">
        <ele>-1.0</ele>
        <time>2022-01-08T16:29:13Z</time>
      </trkpt>
      <trkpt lat="36.7447390" lon="-3.7892450">
        <ele>-1.0</ele>
        <time>2022-01-08T16:29:14Z</time>
      </trkpt>
      <trkpt lat="36.7447400" lon="-3.7892430">
        <ele>-1.0</ele>
        <time>2022-01-08T16:29:15Z</time>
      </trkpt>
      <trkpt lat="36.7447410" lon="-3.7892410">
        <ele>-1.0</ele>
        <time>2022-01-08T16:29:16Z</time>
      </trkpt>
      <trkpt lat="36.7447420" lon="-3.7892390">
        <ele>-1.0</ele>
        <time>2022-01-08T16:29:17Z</time>
      </trkpt>
      <trkpt lat="36.7447440" lon="-3.7892370">
        <ele>-1.0</ele>
        <time>2022-01-08T16:29:18Z</time>
      </trkpt>
      <trkpt lat="36.7447450" lon="-3.7892350">
        <ele>-1.0</ele>
        <time>2022-01-08T16:29:19Z</time>
      </trkpt>
      <trkpt lat="36.7447460" lon="-3.7892330">
        <ele>-1.0</ele>
        <time>2022-01-08T16:29:20Z</time>
      </trkpt>
      <trkpt lat="36.7447470" lon="-3.7892310">
        <ele>-1.0</ele>
        <time>2022-01-08T16:29:21Z</time>
      </trkpt>
      <trkpt lat="36.7447480" lon="-3.7892290">
        <ele>-1.0</ele>
        <time>2022-01-08T16:29:22Z</time>
      </trkpt>
      <trkpt lat="36.7447490" lon="-3.7892270">
        <ele>-1.0</ele>
        <time>2022-01-08T16:29:23Z</time>
      </trkpt>
      <trkpt lat="36.7447500" lon="-3.7892250">
        <ele>-1.0</ele>
        <time>2022-01-08T16:29:24Z</time>
      </trkpt>
      <trkpt lat="36.7447510" lon="-3.7892230">
        <ele>-1.0</ele>
        <time>2022-01-08T16:29:25Z</time>
      </trkpt>
      <trkpt lat="36.7447360" lon="-3.7892360">
        <ele>-1.0</ele>
        <time>2022-01-08T16:29:26Z</time>
      </trkpt>
      <trkpt lat="36.7447360" lon="-3.7892360">
        <ele>-1.0</ele>
        <time>2022-01-08T16:29:27Z</time>
      </trkpt>
      <trkpt lat="36.7447410" lon="-3.7892590">
        <ele>-1.0</ele>
        <time>2022-01-08T16:29:28Z</time>
      </trkpt>
      <trkpt lat="36.7447410" lon="-3.7892590">
        <ele>-1.0</ele>
        <time>2022-01-08T16:29:29Z</time>
      </trkpt>
      <trkpt lat="36.7447410" lon="-3.7892590">
        <ele>-1.0</ele>
        <time>2022-01-08T16:29:30Z</time>
      </trkpt>
      <trkpt lat="36.7447410" lon="-3.7892590">
        <ele>-1.0</ele>
        <time>2022-01-08T16:29:31Z</time>
      </trkpt>
      <trkpt lat="36.7447410" lon="-3.7892590">
        <ele>-1.0</ele>
        <time>2022-01-08T16:29:32Z</time>
      </trkpt>
      <trkpt lat="36.7447410" lon="-3.7892590">
        <ele>-1.0</ele>
        <time>2022-01-08T16:29:33Z</time>
      </trkpt>
      <trkpt lat="36.7447410" lon="-3.7892590">
        <ele>-1.0</ele>
        <time>2022-01-08T16:29:34Z</time>
      </trkpt>
      <trkpt lat="36.7447410" lon="-3.7892590">
        <ele>-1.0</ele>
        <time>2022-01-08T16:29:35Z</time>
      </trkpt>
      <trkpt lat="36.7447410" lon="-3.7892590">
        <ele>-1.0</ele>
        <time>2022-01-08T16:29:36Z</time>
      </trkpt>
      <trkpt lat="36.7447410" lon="-3.7892590">
        <ele>-1.0</ele>
        <time>2022-01-08T16:29:37Z</time>
      </trkpt>
      <trkpt lat="36.7447410" lon="-3.7892590">
        <ele>-1.0</ele>
        <time>2022-01-08T16:29:38Z</time>
      </trkpt>
      <trkpt lat="36.7447360" lon="-3.7892840">
        <ele>-1.0</ele>
        <time>2022-01-08T16:29:39Z</time>
      </trkpt>
      <trkpt lat="36.7447360" lon="-3.7892840">
        <ele>-1.0</ele>
        <time>2022-01-08T16:29:40Z</time>
      </trkpt>
      <trkpt lat="36.7447360" lon="-3.7892840">
        <ele>-1.0</ele>
        <time>2022-01-08T16:29:41Z</time>
      </trkpt>
      <trkpt lat="36.7447360" lon="-3.7892840">
        <ele>-1.0</ele>
        <time>2022-01-08T16:29:42Z</time>
      </trkpt>
      <trkpt lat="36.7447360" lon="-3.7892840">
        <ele>-1.0</ele>
        <time>2022-01-08T16:29:43Z</time>
      </trkpt>
      <trkpt lat="36.7447360" lon="-3.7892840">
        <ele>-1.0</ele>
        <time>2022-01-08T16:29:44Z</time>
      </trkpt>
      <trkpt lat="36.7447360" lon="-3.7892840">
        <ele>-1.0</ele>
        <time>2022-01-08T16:29:45Z</time>
      </trkpt>
      <trkpt lat="36.7447360" lon="-3.7892840">
        <ele>-1.0</ele>
        <time>2022-01-08T16:29:46Z</time>
      </trkpt>
      <trkpt lat="36.7447360" lon="-3.7892840">
        <ele>-1.0</ele>
        <time>2022-01-08T16:29:47Z</time>
      </trkpt>
      <trkpt lat="36.7447360" lon="-3.7892840">
        <ele>-1.0</ele>
        <time>2022-01-08T16:29:48Z</time>
      </trkpt>
      <trkpt lat="36.7447360" lon="-3.7892840">
        <ele>-1.0</ele>
        <time>2022-01-08T16:29:49Z</time>
      </trkpt>
      <trkpt lat="36.7447360" lon="-3.7892840">
        <ele>-1.0</ele>
        <time>2022-01-08T16:29:50Z</time>
      </trkpt>
      <trkpt lat="36.7447360" lon="-3.7892840">
        <ele>-1.0</ele>
        <time>2022-01-08T16:29:51Z</time>
      </trkpt>
      <trkpt lat="36.7447360" lon="-3.7892840">
        <ele>-1.0</ele>
        <time>2022-01-08T16:29:52Z</time>
      </trkpt>
      <trkpt lat="36.7447360" lon="-3.7892840">
        <ele>-1.0</ele>
        <time>2022-01-08T16:29:53Z</time>
      </trkpt>
      <trkpt lat="36.7447360" lon="-3.7892840">
        <ele>-1.0</ele>
        <time>2022-01-08T16:29:54Z</time>
      </trkpt>
      <trkpt lat="36.7447160" lon="-3.7892940">
        <ele>-1.0</ele>
        <time>2022-01-08T16:29:55Z</time>
      </trkpt>
      <trkpt lat="36.7447160" lon="-3.7892940">
        <ele>-1.0</ele>
        <time>2022-01-08T16:29:56Z</time>
      </trkpt>
      <trkpt lat="36.7447160" lon="-3.7892940">
        <ele>-1.0</ele>
        <time>2022-01-08T16:29:57Z</time>
      </trkpt>
      <trkpt lat="36.7447160" lon="-3.7892940">
        <ele>-1.0</ele>
        <time>2022-01-08T16:29:58Z</time>
      </trkpt>
      <trkpt lat="36.7447160" lon="-3.7892940">
        <ele>-1.0</ele>
        <time>2022-01-08T16:29:59Z</time>
      </trkpt>
      <trkpt lat="36.7447160" lon="-3.7892940">
        <ele>-1.0</ele>
        <time>2022-01-08T16:30:00Z</time>
      </trkpt>
      <trkpt lat="36.7447160" lon="-3.7892940">
        <ele>-1.0</ele>
        <time>2022-01-08T16:30:01Z</time>
      </trkpt>
      <trkpt lat="36.7447160" lon="-3.7892940">
        <ele>-1.0</ele>
        <time>2022-01-08T16:30:02Z</time>
      </trkpt>
      <trkpt lat="36.7447160" lon="-3.7892940">
        <ele>-1.0</ele>
        <time>2022-01-08T16:30:03Z</time>
      </trkpt>
      <trkpt lat="36.7447160" lon="-3.7892940">
        <ele>-1.0</ele>
        <time>2022-01-08T16:30:04Z</time>
      </trkpt>
      <trkpt lat="36.7447160" lon="-3.7892940">
        <ele>-1.0</ele>
        <time>2022-01-08T16:30:05Z</time>
      </trkpt>
      <trkpt lat="36.7447160" lon="-3.7892940">
        <ele>-1.0</ele>
        <time>2022-01-08T16:30:06Z</time>
      </trkpt>
      <trkpt lat="36.7447160" lon="-3.7892940">
        <ele>-1.0</ele>
        <time>2022-01-08T16:30:07Z</time>
      </trkpt>
      <trkpt lat="36.7447340" lon="-3.7892850">
        <ele>-1.0</ele>
        <time>2022-01-08T16:30:08Z</time>
      </trkpt>
      <trkpt lat="36.7447340" lon="-3.7892850">
        <ele>-1.0</ele>
        <time>2022-01-08T16:30:09Z</time>
      </trkpt>
      <trkpt lat="36.7447340" lon="-3.7892850">
        <ele>-1.0</ele>
        <time>2022-01-08T16:30:10Z</time>
      </trkpt>
      <trkpt lat="36.7447340" lon="-3.7892850">
        <ele>-1.0</ele>
        <time>2022-01-08T16:30:11Z</time>
      </trkpt>
      <trkpt lat="36.7447340" lon="-3.7892850">
        <ele>-1.0</ele>
        <time>2022-01-08T16:30:12Z</time>
      </trkpt>
      <trkpt lat="36.7447340" lon="-3.7892850">
        <ele>-1.0</ele>
        <time>2022-01-08T16:30:13Z</time>
      </trkpt>
      <trkpt lat="36.7447340" lon="-3.7892850">
        <ele>-1.0</ele>
        <time>2022-01-08T16:30:14Z</time>
      </trkpt>
      <trkpt lat="36.7447340" lon="-3.7892850">
        <ele>-1.0</ele>
        <time>2022-01-08T16:30:15Z</time>
      </trkpt>
      <trkpt lat="36.7447340" lon="-3.7892850">
        <ele>-1.0</ele>
        <time>2022-01-08T16:30:16Z</time>
      </trkpt>
      <trkpt lat="36.7447340" lon="-3.7892850">
        <ele>-1.0</ele>
        <time>2022-01-08T16:30:17Z</time>
      </trkpt>
      <trkpt lat="36.7447340" lon="-3.7892850">
        <ele>-1.0</ele>
        <time>2022-01-08T16:30:18Z</time>
      </trkpt>
      <trkpt lat="36.7447340" lon="-3.7892850">
        <ele>-1.0</ele>
        <time>2022-01-08T16:30:19Z</time>
      </trkpt>
      <trkpt lat="36.7447340" lon="-3.7892850">
        <ele>-1.0</ele>
        <time>2022-01-08T16:30:20Z</time>
      </trkpt>
      <trkpt lat="36.7447340" lon="-3.7892850">
        <ele>-1.0</ele>
        <time>2022-01-08T16:30:21Z</time>
      </trkpt>
      <trkpt lat="36.7447340" lon="-3.7892850">
        <ele>-1.0</ele>
        <time>2022-01-08T16:30:22Z</time>
      </trkpt>
      <trkpt lat="36.7447340" lon="-3.7892850">
        <ele>-1.0</ele>
        <time>2022-01-08T16:30:23Z</time>
      </trkpt>
      <trkpt lat="36.7447340" lon="-3.7892850">
        <ele>-1.0</ele>
        <time>2022-01-08T16:30:24Z</time>
      </trkpt>
      <trkpt lat="36.7447340" lon="-3.7892850">
        <ele>-1.0</ele>
        <time>2022-01-08T16:30:25Z</time>
      </trkpt>
      <trkpt lat="36.7447340" lon="-3.7892850">
        <ele>-1.0</ele>
        <time>2022-01-08T16:30:26Z</time>
      </trkpt>
      <trkpt lat="36.7447340" lon="-3.7892850">
        <ele>-1.0</ele>
        <time>2022-01-08T16:30:27Z</time>
      </trkpt>
      <trkpt lat="36.7447340" lon="-3.7892850">
        <ele>-1.0</ele>
        <time>2022-01-08T16:30:28Z</time>
      </trkpt>
      <trkpt lat="36.7447340" lon="-3.7892850">
        <ele>-1.0</ele>
        <time>2022-01-08T16:30:29Z</time>
      </trkpt>
      <trkpt lat="36.7447340" lon="-3.7892850">
        <ele>-1.0</ele>
        <time>2022-01-08T16:30:30Z</time>
      </trkpt>
      <trkpt lat="36.7447340" lon="-3.7892850">
        <ele>-1.0</ele>
        <time>2022-01-08T16:30:31Z</time>
      </trkpt>
      <trkpt lat="36.7447340" lon="-3.7892850">
        <ele>-1.0</ele>
        <time>2022-01-08T16:30:32Z</time>
      </trkpt>
      <trkpt lat="36.7447340" lon="-3.7892850">
        <ele>-1.0</ele>
        <time>2022-01-08T16:30:33Z</time>
      </trkpt>
      <trkpt lat="36.7447340" lon="-3.7892850">
        <ele>-1.0</ele>
        <time>2022-01-08T16:30:34Z</time>
      </trkpt>
      <trkpt lat="36.7447340" lon="-3.7892850">
        <ele>-1.0</ele>
        <time>2022-01-08T16:30:35Z</time>
      </trkpt>
      <trkpt lat="36.7447340" lon="-3.7892850">
        <ele>-1.0</ele>
        <time>2022-01-08T16:30:36Z</time>
      </trkpt>
      <trkpt lat="36.7447340" lon="-3.7892850">
        <ele>-1.0</ele>
        <time>2022-01-08T16:30:37Z</time>
      </trkpt>
      <trkpt lat="36.7447340" lon="-3.7892850">
        <ele>-1.0</ele>
        <time>2022-01-08T16:30:38Z</time>
      </trkpt>
      <trkpt lat="36.7447340" lon="-3.7892850">
        <ele>-1.0</ele>
        <time>2022-01-08T16:30:39Z</time>
      </trkpt>
      <trkpt lat="36.7447340" lon="-3.7892850">
        <ele>-1.0</ele>
        <time>2022-01-08T16:30:40Z</time>
      </trkpt>
      <trkpt lat="36.7447340" lon="-3.7892850">
        <ele>-1.0</ele>
        <time>2022-01-08T16:30:41Z</time>
      </trkpt>
      <trkpt lat="36.7447340" lon="-3.7892850">
        <ele>-1.0</ele>
        <time>2022-01-08T16:30:42Z</time>
      </trkpt>
      <trkpt lat="36.7447340" lon="-3.7892850">
        <ele>-1.0</ele>
        <time>2022-01-08T16:30:43Z</time>
      </trkpt>
      <trkpt lat="36.7447340" lon="-3.7892850">
        <ele>-1.0</ele>
        <time>2022-01-08T16:30:44Z</time>
      </trkpt>
      <trkpt lat="36.7447340" lon="-3.7892850">
        <ele>-1.0</ele>
        <time>2022-01-08T16:30:45Z</time>
      </trkpt>
      <trkpt lat="36.7447340" lon="-3.7892850">
        <ele>-1.0</ele>
        <time>2022-01-08T16:30:46Z</time>
      </trkpt>
      <trkpt lat="36.7447340" lon="-3.7892850">
        <ele>-1.0</ele>
        <time>2022-01-08T16:30:47Z</time>
      </trkpt>
      <trkpt lat="36.7447340" lon="-3.7892850">
        <ele>-1.0</ele>
        <time>2022-01-08T16:30:48Z</time>
      </trkpt>
      <trkpt lat="36.7447340" lon="-3.7892850">
        <ele>-1.0</ele>
        <time>2022-01-08T16:30:49Z</time>
      </trkpt>
      <trkpt lat="36.7447340" lon="-3.7892850">
        <ele>-1.0</ele>
        <time>2022-01-08T16:30:50Z</time>
      </trkpt>
      <trkpt lat="36.7447340" lon="-3.7892850">
        <ele>-1.0</ele>
        <time>2022-01-08T16:30:51Z</time>
      </trkpt>
      <trkpt lat="36.7447340" lon="-3.7892850">
        <ele>-1.0</ele>
        <time>2022-01-08T16:30:52Z</time>
      </trkpt>
      <trkpt lat="36.7447340" lon="-3.7892850">
        <ele>-1.0</ele>
        <time>2022-01-08T16:30:53Z</time>
      </trkpt>
      <trkpt lat="36.7447340" lon="-3.7892850">
        <ele>-1.0</ele>
        <time>2022-01-08T16:30:54Z</time>
      </trkpt>
      <trkpt lat="36.7447340" lon="-3.7892850">
        <ele>-1.0</ele>
        <time>2022-01-08T16:30:55Z</time>
      </trkpt>
      <trkpt lat="36.7447340" lon="-3.7892850">
        <ele>-1.0</ele>
        <time>2022-01-08T16:30:56Z</time>
      </trkpt>
      <trkpt lat="36.7447340" lon="-3.7892850">
        <ele>-1.0</ele>
        <time>2022-01-08T16:30:57Z</time>
      </trkpt>
      <trkpt lat="36.7447340" lon="-3.7892850">
        <ele>-1.0</ele>
        <time>2022-01-08T16:30:58Z</time>
      </trkpt>
      <trkpt lat="36.7447340" lon="-3.7892850">
        <ele>-1.0</ele>
        <time>2022-01-08T16:30:59Z</time>
      </trkpt>
      <trkpt lat="36.7447340" lon="-3.7892850">
        <ele>-1.0</ele>
        <time>2022-01-08T16:31:00Z</time>
      </trkpt>
      <trkpt lat="36.7447340" lon="-3.7892850">
        <ele>-1.0</ele>
        <time>2022-01-08T16:31:01Z</time>
      </trkpt>
      <trkpt lat="36.7447340" lon="-3.7892850">
        <ele>-1.0</ele>
        <time>2022-01-08T16:31:02Z</time>
      </trkpt>
      <trkpt lat="36.7447340" lon="-3.7892850">
        <ele>-1.0</ele>
        <time>2022-01-08T16:31:03Z</time>
      </trkpt>
      <trkpt lat="36.7447340" lon="-3.7892850">
        <ele>-1.0</ele>
        <time>2022-01-08T16:31:04Z</time>
      </trkpt>
      <trkpt lat="36.7447340" lon="-3.7892850">
        <ele>-1.0</ele>
        <time>2022-01-08T16:31:05Z</time>
      </trkpt>
      <trkpt lat="36.7447340" lon="-3.7892850">
        <ele>-1.0</ele>
        <time>2022-01-08T16:31:06Z</time>
      </trkpt>
      <trkpt lat="36.7447340" lon="-3.7892850">
        <ele>-1.0</ele>
        <time>2022-01-08T16:31:07Z</time>
      </trkpt>
      <trkpt lat="36.7447340" lon="-3.7892850">
        <ele>-1.0</ele>
        <time>2022-01-08T16:31:08Z</time>
      </trkpt>
      <trkpt lat="36.7447340" lon="-3.7892850">
        <ele>-1.0</ele>
        <time>2022-01-08T16:31:09Z</time>
      </trkpt>
      <trkpt lat="36.7447320" lon="-3.7892620">
        <ele>-1.0</ele>
        <time>2022-01-08T16:31:10Z</time>
      </trkpt>
      <trkpt lat="36.7447320" lon="-3.7892620">
        <ele>-1.0</ele>
        <time>2022-01-08T16:31:11Z</time>
      </trkpt>
      <trkpt lat="36.7447320" lon="-3.7892620">
        <ele>-1.0</ele>
        <time>2022-01-08T16:31:12Z</time>
      </trkpt>
      <trkpt lat="36.7447320" lon="-3.7892620">
        <ele>-1.0</ele>
        <time>2022-01-08T16:31:13Z</time>
      </trkpt>
      <trkpt lat="36.7447320" lon="-3.7892620">
        <ele>-1.0</ele>
        <time>2022-01-08T16:31:14Z</time>
      </trkpt>
      <trkpt lat="36.7447320" lon="-3.7892620">
        <ele>-1.0</ele>
        <time>2022-01-08T16:31:15Z</time>
      </trkpt>
      <trkpt lat="36.7447320" lon="-3.7892620">
        <ele>-1.0</ele>
        <time>2022-01-08T16:31:16Z</time>
      </trkpt>
      <trkpt lat="36.7447320" lon="-3.7892620">
        <ele>-1.0</ele>
        <time>2022-01-08T16:31:17Z</time>
      </trkpt>
      <trkpt lat="36.7447320" lon="-3.7892620">
        <ele>-1.0</ele>
        <time>2022-01-08T16:31:18Z</time>
      </trkpt>
      <trkpt lat="36.7447320" lon="-3.7892620">
        <ele>-1.0</ele>
        <time>2022-01-08T16:31:19Z</time>
      </trkpt>
      <trkpt lat="36.7447320" lon="-3.7892620">
        <ele>-1.0</ele>
        <time>2022-01-08T16:31:20Z</time>
      </trkpt>
      <trkpt lat="36.7447320" lon="-3.7892620">
        <ele>-1.0</ele>
        <time>2022-01-08T16:31:21Z</time>
      </trkpt>
      <trkpt lat="36.7447320" lon="-3.7892620">
        <ele>-1.0</ele>
        <time>2022-01-08T16:31:22Z</time>
      </trkpt>
      <trkpt lat="36.7447320" lon="-3.7892620">
        <ele>-1.0</ele>
        <time>2022-01-08T16:31:23Z</time>
      </trkpt>
      <trkpt lat="36.7447320" lon="-3.7892620">
        <ele>-1.0</ele>
        <time>2022-01-08T16:31:24Z</time>
      </trkpt>
      <trkpt lat="36.7447320" lon="-3.7892620">
        <ele>-1.0</ele>
        <time>2022-01-08T16:31:25Z</time>
      </trkpt>
      <trkpt lat="36.7447320" lon="-3.7892620">
        <ele>-1.0</ele>
        <time>2022-01-08T16:31:26Z</time>
      </trkpt>
      <trkpt lat="36.7447320" lon="-3.7892620">
        <ele>-1.0</ele>
        <time>2022-01-08T16:31:27Z</time>
      </trkpt>
      <trkpt lat="36.7447320" lon="-3.7892620">
        <ele>-1.0</ele>
        <time>2022-01-08T16:31:28Z</time>
      </trkpt>
      <trkpt lat="36.7447320" lon="-3.7892620">
        <ele>-1.0</ele>
        <time>2022-01-08T16:31:29Z</time>
      </trkpt>
      <trkpt lat="36.7447320" lon="-3.7892620">
        <ele>-1.0</ele>
        <time>2022-01-08T16:31:30Z</time>
      </trkpt>
      <trkpt lat="36.7447320" lon="-3.7892620">
        <ele>-1.0</ele>
        <time>2022-01-08T16:31:31Z</time>
      </trkpt>
      <trkpt lat="36.7447320" lon="-3.7892620">
        <ele>-1.0</ele>
        <time>2022-01-08T16:31:32Z</time>
      </trkpt>
      <trkpt lat="36.7447320" lon="-3.7892620">
        <ele>-1.0</ele>
        <time>2022-01-08T16:31:33Z</time>
      </trkpt>
      <trkpt lat="36.7447320" lon="-3.7892620">
        <ele>-1.0</ele>
        <time>2022-01-08T16:31:34Z</time>
      </trkpt>
      <trkpt lat="36.7447320" lon="-3.7892620">
        <ele>-1.0</ele>
        <time>2022-01-08T16:31:35Z</time>
      </trkpt>
      <trkpt lat="36.7447320" lon="-3.7892620">
        <ele>-1.0</ele>
        <time>2022-01-08T16:31:36Z</time>
      </trkpt>
      <trkpt lat="36.7447320" lon="-3.7892620">
        <ele>-1.0</ele>
        <time>2022-01-08T16:31:37Z</time>
      </trkpt>
      <trkpt lat="36.7447320" lon="-3.7892620">
        <ele>-1.0</ele>
        <time>2022-01-08T16:31:38Z</time>
      </trkpt>
      <trkpt lat="36.7447320" lon="-3.7892620">
        <ele>-1.0</ele>
        <time>2022-01-08T16:31:39Z</time>
      </trkpt>
      <trkpt lat="36.7447320" lon="-3.7892620">
        <ele>-1.0</ele>
        <time>2022-01-08T16:31:40Z</time>
      </trkpt>
      <trkpt lat="36.7447320" lon="-3.7892620">
        <ele>-1.0</ele>
        <time>2022-01-08T16:31:41Z</time>
      </trkpt>
      <trkpt lat="36.7447320" lon="-3.7892620">
        <ele>-1.0</ele>
        <time>2022-01-08T16:31:42Z</time>
      </trkpt>
      <trkpt lat="36.7447320" lon="-3.7892620">
        <ele>-1.0</ele>
        <time>2022-01-08T16:31:43Z</time>
      </trkpt>
      <trkpt lat="36.7447320" lon="-3.7892620">
        <ele>-1.0</ele>
        <time>2022-01-08T16:31:44Z</time>
      </trkpt>
      <trkpt lat="36.7447320" lon="-3.7892620">
        <ele>-1.0</ele>
        <time>2022-01-08T16:31:45Z</time>
      </trkpt>
      <trkpt lat="36.7447320" lon="-3.7892620">
        <ele>-1.0</ele>
        <time>2022-01-08T16:31:46Z</time>
      </trkpt>
      <trkpt lat="36.7447320" lon="-3.7892620">
        <ele>-1.0</ele>
        <time>2022-01-08T16:31:47Z</time>
      </trkpt>
      <trkpt lat="36.7447320" lon="-3.7892620">
        <ele>-1.0</ele>
        <time>2022-01-08T16:31:48Z</time>
      </trkpt>
      <trkpt lat="36.7447320" lon="-3.7892620">
        <ele>-1.0</ele>
        <time>2022-01-08T16:31:49Z</time>
      </trkpt>
      <trkpt lat="36.7447320" lon="-3.7892620">
        <ele>-1.0</ele>
        <time>2022-01-08T16:31:50Z</time>
      </trkpt>
      <trkpt lat="36.7447320" lon="-3.7892620">
        <ele>-1.0</ele>
        <time>2022-01-08T16:31:51Z</time>
      </trkpt>
      <trkpt lat="36.7447320" lon="-3.7892620">
        <ele>-1.0</ele>
        <time>2022-01-08T16:31:52Z</time>
      </trkpt>
      <trkpt lat="36.7447320" lon="-3.7892620">
        <ele>-1.0</ele>
        <time>2022-01-08T16:31:53Z</time>
      </trkpt>
      <trkpt lat="36.7447320" lon="-3.7892620">
        <ele>-1.0</ele>
        <time>2022-01-08T16:31:54Z</time>
      </trkpt>
      <trkpt lat="36.7447320" lon="-3.7892620">
        <ele>-1.0</ele>
        <time>2022-01-08T16:31:55Z</time>
      </trkpt>
      <trkpt lat="36.7447320" lon="-3.7892620">
        <ele>-1.0</ele>
        <time>2022-01-08T16:31:56Z</time>
      </trkpt>
      <trkpt lat="36.7447320" lon="-3.7892620">
        <ele>-1.0</ele>
        <time>2022-01-08T16:31:57Z</time>
      </trkpt>
      <trkpt lat="36.7447320" lon="-3.7892620">
        <ele>-1.0</ele>
        <time>2022-01-08T16:31:58Z</time>
      </trkpt>
      <trkpt lat="36.7447320" lon="-3.7892620">
        <ele>-1.0</ele>
        <time>2022-01-08T16:31:59Z</time>
      </trkpt>
      <trkpt lat="36.7447320" lon="-3.7892620">
        <ele>-1.0</ele>
        <time>2022-01-08T16:32:00Z</time>
      </trkpt>
      <trkpt lat="36.7447210" lon="-3.7892800">
        <ele>-1.0</ele>
        <time>2022-01-08T16:32:01Z</time>
      </trkpt>
      <trkpt lat="36.7447210" lon="-3.7892800">
        <ele>-1.0</ele>
        <time>2022-01-08T16:32:02Z</time>
      </trkpt>
      <trkpt lat="36.7447210" lon="-3.7892800">
        <ele>-1.0</ele>
        <time>2022-01-08T16:32:03Z</time>
      </trkpt>
      <trkpt lat="36.7447210" lon="-3.7892800">
        <ele>-1.0</ele>
        <time>2022-01-08T16:32:04Z</time>
      </trkpt>
      <trkpt lat="36.7447210" lon="-3.7892800">
        <ele>-1.0</ele>
        <time>2022-01-08T16:32:05Z</time>
      </trkpt>
      <trkpt lat="36.7447210" lon="-3.7892800">
        <ele>-1.0</ele>
        <time>2022-01-08T16:32:06Z</time>
      </trkpt>
      <trkpt lat="36.7447210" lon="-3.7892800">
        <ele>-1.0</ele>
        <time>2022-01-08T16:32:07Z</time>
      </trkpt>
      <trkpt lat="36.7447210" lon="-3.7892800">
        <ele>-1.0</ele>
        <time>2022-01-08T16:32:08Z</time>
      </trkpt>
      <trkpt lat="36.7447210" lon="-3.7892800">
        <ele>-1.0</ele>
        <time>2022-01-08T16:32:09Z</time>
      </trkpt>
      <trkpt lat="36.7447210" lon="-3.7892800">
        <ele>-1.0</ele>
        <time>2022-01-08T16:32:10Z</time>
      </trkpt>
      <trkpt lat="36.7447210" lon="-3.7892800">
        <ele>-1.0</ele>
        <time>2022-01-08T16:32:11Z</time>
      </trkpt>
      <trkpt lat="36.7447210" lon="-3.7892800">
        <ele>-1.0</ele>
        <time>2022-01-08T16:32:12Z</time>
      </trkpt>
      <trkpt lat="36.7447210" lon="-3.7892800">
        <ele>-1.0</ele>
        <time>2022-01-08T16:32:13Z</time>
      </trkpt>
      <trkpt lat="36.7447210" lon="-3.7892800">
        <ele>-1.0</ele>
        <time>2022-01-08T16:32:14Z</time>
      </trkpt>
      <trkpt lat="36.7447210" lon="-3.7892800">
        <ele>-1.0</ele>
        <time>2022-01-08T16:32:15Z</time>
      </trkpt>
      <trkpt lat="36.7447210" lon="-3.7892800">
        <ele>-1.0</ele>
        <time>2022-01-08T16:32:16Z</time>
      </trkpt>
      <trkpt lat="36.7447210" lon="-3.7892800">
        <ele>-1.0</ele>
        <time>2022-01-08T16:32:17Z</time>
      </trkpt>
      <trkpt lat="36.7447210" lon="-3.7892800">
        <ele>-1.0</ele>
        <time>2022-01-08T16:32:18Z</time>
      </trkpt>
      <trkpt lat="36.7447210" lon="-3.7892800">
        <ele>-1.0</ele>
        <time>2022-01-08T16:32:19Z</time>
      </trkpt>
      <trkpt lat="36.7447210" lon="-3.7892800">
        <ele>-1.0</ele>
        <time>2022-01-08T16:32:20Z</time>
      </trkpt>
      <trkpt lat="36.7447210" lon="-3.7892800">
        <ele>-1.0</ele>
        <time>2022-01-08T16:32:21Z</time>
      </trkpt>
      <trkpt lat="36.7447210" lon="-3.7892800">
        <ele>-1.0</ele>
        <time>2022-01-08T16:32:22Z</time>
      </trkpt>
      <trkpt lat="36.7447210" lon="-3.7892800">
        <ele>-1.0</ele>
        <time>2022-01-08T16:32:23Z</time>
      </trkpt>
      <trkpt lat="36.7447210" lon="-3.7892800">
        <ele>-1.0</ele>
        <time>2022-01-08T16:32:24Z</time>
      </trkpt>
      <trkpt lat="36.7447210" lon="-3.7892800">
        <ele>-1.0</ele>
        <time>2022-01-08T16:32:25Z</time>
      </trkpt>
      <trkpt lat="36.7447210" lon="-3.7892800">
        <ele>-1.0</ele>
        <time>2022-01-08T16:32:26Z</time>
      </trkpt>
      <trkpt lat="36.7447210" lon="-3.7892800">
        <ele>-1.0</ele>
        <time>2022-01-08T16:32:27Z</time>
      </trkpt>
      <trkpt lat="36.7447210" lon="-3.7892800">
        <ele>-1.0</ele>
        <time>2022-01-08T16:32:28Z</time>
      </trkpt>
      <trkpt lat="36.7447210" lon="-3.7892800">
        <ele>-1.0</ele>
        <time>2022-01-08T16:32:29Z</time>
      </trkpt>
      <trkpt lat="36.7447210" lon="-3.7892800">
        <ele>-1.0</ele>
        <time>2022-01-08T16:32:30Z</time>
      </trkpt>
      <trkpt lat="36.7447210" lon="-3.7892800">
        <ele>-1.0</ele>
        <time>2022-01-08T16:32:31Z</time>
      </trkpt>
      <trkpt lat="36.7447210" lon="-3.7892800">
        <ele>-1.0</ele>
        <time>2022-01-08T16:32:32Z</time>
      </trkpt>
      <trkpt lat="36.7447210" lon="-3.7892800">
        <ele>-1.0</ele>
        <time>2022-01-08T16:32:33Z</time>
      </trkpt>
      <trkpt lat="36.7447210" lon="-3.7892800">
        <ele>-1.0</ele>
        <time>2022-01-08T16:32:34Z</time>
      </trkpt>
      <trkpt lat="36.7447210" lon="-3.7892800">
        <ele>-1.0</ele>
        <time>2022-01-08T16:32:35Z</time>
      </trkpt>
      <trkpt lat="36.7447210" lon="-3.7892800">
        <ele>-1.0</ele>
        <time>2022-01-08T16:32:36Z</time>
      </trkpt>
      <trkpt lat="36.7447210" lon="-3.7892800">
        <ele>-1.0</ele>
        <time>2022-01-08T16:32:37Z</time>
      </trkpt>
      <trkpt lat="36.7447210" lon="-3.7892800">
        <ele>-1.0</ele>
        <time>2022-01-08T16:32:38Z</time>
      </trkpt>
      <trkpt lat="36.7447210" lon="-3.7892800">
        <ele>-1.0</ele>
        <time>2022-01-08T16:32:39Z</time>
      </trkpt>
      <trkpt lat="36.7447210" lon="-3.7892800">
        <ele>-1.0</ele>
        <time>2022-01-08T16:32:40Z</time>
      </trkpt>
      <trkpt lat="36.7447210" lon="-3.7892800">
        <ele>-1.0</ele>
        <time>2022-01-08T16:32:41Z</time>
      </trkpt>
      <trkpt lat="36.7447210" lon="-3.7892800">
        <ele>-1.0</ele>
        <time>2022-01-08T16:32:42Z</time>
      </trkpt>
      <trkpt lat="36.7447210" lon="-3.7892800">
        <ele>-1.0</ele>
        <time>2022-01-08T16:32:43Z</time>
      </trkpt>
      <trkpt lat="36.7447210" lon="-3.7892800">
        <ele>-1.0</ele>
        <time>2022-01-08T16:32:44Z</time>
      </trkpt>
      <trkpt lat="36.7447210" lon="-3.7892800">
        <ele>-1.0</ele>
        <time>2022-01-08T16:32:45Z</time>
      </trkpt>
      <trkpt lat="36.7447210" lon="-3.7892800">
        <ele>-1.0</ele>
        <time>2022-01-08T16:32:46Z</time>
      </trkpt>
      <trkpt lat="36.7447210" lon="-3.7892800">
        <ele>-1.0</ele>
        <time>2022-01-08T16:32:47Z</time>
      </trkpt>
      <trkpt lat="36.7447210" lon="-3.7892800">
        <ele>-1.0</ele>
        <time>2022-01-08T16:32:48Z</time>
      </trkpt>
      <trkpt lat="36.7447210" lon="-3.7892800">
        <ele>-1.0</ele>
        <time>2022-01-08T16:32:49Z</time>
      </trkpt>
      <trkpt lat="36.7447210" lon="-3.7892800">
        <ele>-1.0</ele>
        <time>2022-01-08T16:32:50Z</time>
      </trkpt>
      <trkpt lat="36.7447210" lon="-3.7892800">
        <ele>-1.0</ele>
        <time>2022-01-08T16:32:51Z</time>
      </trkpt>
      <trkpt lat="36.7447210" lon="-3.7892800">
        <ele>-1.0</ele>
        <time>2022-01-08T16:32:52Z</time>
      </trkpt>
      <trkpt lat="36.7447210" lon="-3.7892800">
        <ele>-1.0</ele>
        <time>2022-01-08T16:32:53Z</time>
      </trkpt>
      <trkpt lat="36.7447210" lon="-3.7892800">
        <ele>-1.0</ele>
        <time>2022-01-08T16:32:54Z</time>
      </trkpt>
      <trkpt lat="36.7447210" lon="-3.7892800">
        <ele>-1.0</ele>
        <time>2022-01-08T16:32:55Z</time>
      </trkpt>
      <trkpt lat="36.7447210" lon="-3.7892800">
        <ele>-1.0</ele>
        <time>2022-01-08T16:32:56Z</time>
      </trkpt>
      <trkpt lat="36.7447210" lon="-3.7892800">
        <ele>-1.0</ele>
        <time>2022-01-08T16:32:57Z</time>
      </trkpt>
      <trkpt lat="36.7447210" lon="-3.7892800">
        <ele>-1.0</ele>
        <time>2022-01-08T16:32:58Z</time>
      </trkpt>
      <trkpt lat="36.7447210" lon="-3.7892800">
        <ele>-1.0</ele>
        <time>2022-01-08T16:32:59Z</time>
      </trkpt>
      <trkpt lat="36.7447210" lon="-3.7892800">
        <ele>-1.0</ele>
        <time>2022-01-08T16:33:00Z</time>
      </trkpt>
      <trkpt lat="36.7447210" lon="-3.7892800">
        <ele>-1.0</ele>
        <time>2022-01-08T16:33:01Z</time>
      </trkpt>
      <trkpt lat="36.7447210" lon="-3.7892800">
        <ele>-1.0</ele>
        <time>2022-01-08T16:33:02Z</time>
      </trkpt>
      <trkpt lat="36.7447350" lon="-3.7892650">
        <ele>-1.0</ele>
        <time>2022-01-08T16:33:03Z</time>
      </trkpt>
      <trkpt lat="36.7447350" lon="-3.7892650">
        <ele>-1.0</ele>
        <time>2022-01-08T16:33:04Z</time>
      </trkpt>
      <trkpt lat="36.7447350" lon="-3.7892650">
        <ele>-1.0</ele>
        <time>2022-01-08T16:33:05Z</time>
      </trkpt>
      <trkpt lat="36.7447350" lon="-3.7892650">
        <ele>-1.0</ele>
        <time>2022-01-08T16:33:06Z</time>
      </trkpt>
      <trkpt lat="36.7447350" lon="-3.7892650">
        <ele>-1.0</ele>
        <time>2022-01-08T16:33:07Z</time>
      </trkpt>
      <trkpt lat="36.7447350" lon="-3.7892650">
        <ele>-1.0</ele>
        <time>2022-01-08T16:33:08Z</time>
      </trkpt>
      <trkpt lat="36.7447350" lon="-3.7892650">
        <ele>-1.0</ele>
        <time>2022-01-08T16:33:09Z</time>
      </trkpt>
      <trkpt lat="36.7447350" lon="-3.7892650">
        <ele>-1.0</ele>
        <time>2022-01-08T16:33:10Z</time>
      </trkpt>
      <trkpt lat="36.7447350" lon="-3.7892650">
        <ele>-1.0</ele>
        <time>2022-01-08T16:33:11Z</time>
      </trkpt>
      <trkpt lat="36.7447350" lon="-3.7892650">
        <ele>-1.0</ele>
        <time>2022-01-08T16:33:12Z</time>
      </trkpt>
      <trkpt lat="36.7447350" lon="-3.7892650">
        <ele>-1.0</ele>
        <time>2022-01-08T16:33:13Z</time>
      </trkpt>
      <trkpt lat="36.7447350" lon="-3.7892650">
        <ele>-1.0</ele>
        <time>2022-01-08T16:33:14Z</time>
      </trkpt>
      <trkpt lat="36.7447350" lon="-3.7892650">
        <ele>-1.0</ele>
        <time>2022-01-08T16:33:15Z</time>
      </trkpt>
      <trkpt lat="36.7447350" lon="-3.7892650">
        <ele>-1.0</ele>
        <time>2022-01-08T16:33:16Z</time>
      </trkpt>
      <trkpt lat="36.7447350" lon="-3.7892650">
        <ele>-1.0</ele>
        <time>2022-01-08T16:33:17Z</time>
      </trkpt>
      <trkpt lat="36.7447350" lon="-3.7892650">
        <ele>-1.0</ele>
        <time>2022-01-08T16:33:18Z</time>
      </trkpt>
      <trkpt lat="36.7447350" lon="-3.7892650">
        <ele>-1.0</ele>
        <time>2022-01-08T16:33:19Z</time>
      </trkpt>
      <trkpt lat="36.7447350" lon="-3.7892650">
        <ele>-1.0</ele>
        <time>2022-01-08T16:33:20Z</time>
      </trkpt>
      <trkpt lat="36.7447350" lon="-3.7892650">
        <ele>-1.0</ele>
        <time>2022-01-08T16:33:21Z</time>
      </trkpt>
      <trkpt lat="36.7447350" lon="-3.7892650">
        <ele>-1.0</ele>
        <time>2022-01-08T16:33:22Z</time>
      </trkpt>
      <trkpt lat="36.7447350" lon="-3.7892650">
        <ele>-1.0</ele>
        <time>2022-01-08T16:33:23Z</time>
      </trkpt>
      <trkpt lat="36.7447350" lon="-3.7892650">
        <ele>-1.0</ele>
        <time>2022-01-08T16:33:24Z</time>
      </trkpt>
      <trkpt lat="36.7447350" lon="-3.7892650">
        <ele>-1.0</ele>
        <time>2022-01-08T16:33:25Z</time>
      </trkpt>
      <trkpt lat="36.7447350" lon="-3.7892650">
        <ele>-1.0</ele>
        <time>2022-01-08T16:33:26Z</time>
      </trkpt>
      <trkpt lat="36.7447350" lon="-3.7892650">
        <ele>-1.0</ele>
        <time>2022-01-08T16:33:27Z</time>
      </trkpt>
      <trkpt lat="36.7447350" lon="-3.7892650">
        <ele>-1.0</ele>
        <time>2022-01-08T16:33:28Z</time>
      </trkpt>
      <trkpt lat="36.7447350" lon="-3.7892650">
        <ele>-1.0</ele>
        <time>2022-01-08T16:33:29Z</time>
      </trkpt>
      <trkpt lat="36.7447350" lon="-3.7892650">
        <ele>-1.0</ele>
        <time>2022-01-08T16:33:30Z</time>
      </trkpt>
      <trkpt lat="36.7447350" lon="-3.7892650">
        <ele>-1.0</ele>
        <time>2022-01-08T16:33:31Z</time>
      </trkpt>
      <trkpt lat="36.7447350" lon="-3.7892650">
        <ele>-1.0</ele>
        <time>2022-01-08T16:33:32Z</time>
      </trkpt>
      <trkpt lat="36.7447350" lon="-3.7892650">
        <ele>-1.0</ele>
        <time>2022-01-08T16:33:33Z</time>
      </trkpt>
      <trkpt lat="36.7447350" lon="-3.7892650">
        <ele>-1.0</ele>
        <time>2022-01-08T16:33:34Z</time>
      </trkpt>
      <trkpt lat="36.7447350" lon="-3.7892650">
        <ele>-1.0</ele>
        <time>2022-01-08T16:33:35Z</time>
      </trkpt>
      <trkpt lat="36.7447350" lon="-3.7892650">
        <ele>-1.0</ele>
        <time>2022-01-08T16:33:36Z</time>
      </trkpt>
      <trkpt lat="36.7447350" lon="-3.7892650">
        <ele>-1.0</ele>
        <time>2022-01-08T16:33:37Z</time>
      </trkpt>
      <trkpt lat="36.7447350" lon="-3.7892650">
        <ele>-1.0</ele>
        <time>2022-01-08T16:33:38Z</time>
      </trkpt>
      <trkpt lat="36.7447140" lon="-3.7892470">
        <ele>-1.0</ele>
        <time>2022-01-08T16:33:39Z</time>
      </trkpt>
      <trkpt lat="36.7447140" lon="-3.7892470">
        <ele>-1.0</ele>
        <time>2022-01-08T16:33:40Z</time>
      </trkpt>
      <trkpt lat="36.7447140" lon="-3.7892470">
        <ele>-1.0</ele>
        <time>2022-01-08T16:33:41Z</time>
      </trkpt>
      <trkpt lat="36.7447140" lon="-3.7892470">
        <ele>-1.0</ele>
        <time>2022-01-08T16:33:42Z</time>
      </trkpt>
      <trkpt lat="36.7447140" lon="-3.7892470">
        <ele>-1.0</ele>
        <time>2022-01-08T16:33:43Z</time>
      </trkpt>
      <trkpt lat="36.7447140" lon="-3.7892470">
        <ele>-1.0</ele>
        <time>2022-01-08T16:33:44Z</time>
      </trkpt>
      <trkpt lat="36.7447140" lon="-3.7892470">
        <ele>-1.0</ele>
        <time>2022-01-08T16:33:45Z</time>
      </trkpt>
      <trkpt lat="36.7447140" lon="-3.7892470">
        <ele>-1.0</ele>
        <time>2022-01-08T16:33:46Z</time>
      </trkpt>
      <trkpt lat="36.7447130" lon="-3.7892460">
        <ele>-1.0</ele>
        <time>2022-01-08T16:33:47Z</time>
      </trkpt>
      <trkpt lat="36.7447130" lon="-3.7892450">
        <ele>-1.0</ele>
        <time>2022-01-08T16:33:48Z</time>
      </trkpt>
      <trkpt lat="36.7447120" lon="-3.7892450">
        <ele>-1.0</ele>
        <time>2022-01-08T16:33:49Z</time>
      </trkpt>
      <trkpt lat="36.7447120" lon="-3.7892440">
        <ele>-1.0</ele>
        <time>2022-01-08T16:33:50Z</time>
      </trkpt>
      <trkpt lat="36.7447120" lon="-3.7892440">
        <ele>-1.0</ele>
        <time>2022-01-08T16:33:51Z</time>
      </trkpt>
      <trkpt lat="36.7447110" lon="-3.7892430">
        <ele>-1.0</ele>
        <time>2022-01-08T16:33:52Z</time>
      </trkpt>
      <trkpt lat="36.7447110" lon="-3.7892430">
        <ele>-1.0</ele>
        <time>2022-01-08T16:33:53Z</time>
      </trkpt>
      <trkpt lat="36.7447100" lon="-3.7892420">
        <ele>-1.0</ele>
        <time>2022-01-08T16:33:54Z</time>
      </trkpt>
      <trkpt lat="36.7447100" lon="-3.7892410">
        <ele>-1.0</ele>
        <time>2022-01-08T16:33:55Z</time>
      </trkpt>
      <trkpt lat="36.7447100" lon="-3.7892410">
        <ele>-1.0</ele>
        <time>2022-01-08T16:33:56Z</time>
      </trkpt>
      <trkpt lat="36.7447100" lon="-3.7892410">
        <ele>-1.0</ele>
        <time>2022-01-08T16:33:57Z</time>
      </trkpt>
      <trkpt lat="36.7447100" lon="-3.7892410">
        <ele>-1.0</ele>
        <time>2022-01-08T16:33:58Z</time>
      </trkpt>
      <trkpt lat="36.7447100" lon="-3.7892410">
        <ele>-1.0</ele>
        <time>2022-01-08T16:33:59Z</time>
      </trkpt>
      <trkpt lat="36.7447100" lon="-3.7892410">
        <ele>-1.0</ele>
        <time>2022-01-08T16:34:00Z</time>
      </trkpt>
      <trkpt lat="36.7447100" lon="-3.7892410">
        <ele>-1.0</ele>
        <time>2022-01-08T16:34:01Z</time>
      </trkpt>
      <trkpt lat="36.7447100" lon="-3.7892410">
        <ele>-1.0</ele>
        <time>2022-01-08T16:34:02Z</time>
      </trkpt>
      <trkpt lat="36.7447100" lon="-3.7892410">
        <ele>-1.0</ele>
        <time>2022-01-08T16:34:03Z</time>
      </trkpt>
      <trkpt lat="36.7447100" lon="-3.7892410">
        <ele>-1.0</ele>
        <time>2022-01-08T16:34:04Z</time>
      </trkpt>
      <trkpt lat="36.7447100" lon="-3.7892410">
        <ele>-1.0</ele>
        <time>2022-01-08T16:34:05Z</time>
      </trkpt>
      <trkpt lat="36.7447100" lon="-3.7892410">
        <ele>-1.0</ele>
        <time>2022-01-08T16:34:06Z</time>
      </trkpt>
      <trkpt lat="36.7447100" lon="-3.7892410">
        <ele>-1.0</ele>
        <time>2022-01-08T16:34:07Z</time>
      </trkpt>
      <trkpt lat="36.7447100" lon="-3.7892410">
        <ele>-1.0</ele>
        <time>2022-01-08T16:34:08Z</time>
      </trkpt>
      <trkpt lat="36.7447100" lon="-3.7892410">
        <ele>-1.0</ele>
        <time>2022-01-08T16:34:09Z</time>
      </trkpt>
      <trkpt lat="36.7447100" lon="-3.7892410">
        <ele>-1.0</ele>
        <time>2022-01-08T16:34:10Z</time>
      </trkpt>
      <trkpt lat="36.7447100" lon="-3.7892410">
        <ele>-1.0</ele>
        <time>2022-01-08T16:34:11Z</time>
      </trkpt>
      <trkpt lat="36.7447100" lon="-3.7892410">
        <ele>-1.0</ele>
        <time>2022-01-08T16:34:12Z</time>
      </trkpt>
      <trkpt lat="36.7447100" lon="-3.7892410">
        <ele>-1.0</ele>
        <time>2022-01-08T16:34:13Z</time>
      </trkpt>
      <trkpt lat="36.7447100" lon="-3.7892410">
        <ele>-1.0</ele>
        <time>2022-01-08T16:34:14Z</time>
      </trkpt>
      <trkpt lat="36.7447100" lon="-3.7892410">
        <ele>-1.0</ele>
        <time>2022-01-08T16:34:15Z</time>
      </trkpt>
      <trkpt lat="36.7447100" lon="-3.7892410">
        <ele>-1.0</ele>
        <time>2022-01-08T16:34:16Z</time>
      </trkpt>
      <trkpt lat="36.7447100" lon="-3.7892410">
        <ele>-1.0</ele>
        <time>2022-01-08T16:34:17Z</time>
      </trkpt>
      <trkpt lat="36.7447100" lon="-3.7892410">
        <ele>-1.0</ele>
        <time>2022-01-08T16:34:18Z</time>
      </trkpt>
      <trkpt lat="36.7447100" lon="-3.7892410">
        <ele>-1.0</ele>
        <time>2022-01-08T16:34:19Z</time>
      </trkpt>
      <trkpt lat="36.7447100" lon="-3.7892410">
        <ele>-1.0</ele>
        <time>2022-01-08T16:34:20Z</time>
      </trkpt>
      <trkpt lat="36.7447100" lon="-3.7892410">
        <ele>-1.0</ele>
        <time>2022-01-08T16:34:21Z</time>
      </trkpt>
      <trkpt lat="36.7447100" lon="-3.7892410">
        <ele>-1.0</ele>
        <time>2022-01-08T16:34:22Z</time>
      </trkpt>
      <trkpt lat="36.7447100" lon="-3.7892410">
        <ele>-1.0</ele>
        <time>2022-01-08T16:34:23Z</time>
      </trkpt>
      <trkpt lat="36.7447100" lon="-3.7892410">
        <ele>-1.0</ele>
        <time>2022-01-08T16:34:24Z</time>
      </trkpt>
      <trkpt lat="36.7447100" lon="-3.7892410">
        <ele>-1.0</ele>
        <time>2022-01-08T16:34:25Z</time>
      </trkpt>
      <trkpt lat="36.7447280" lon="-3.7892460">
        <ele>-1.0</ele>
        <time>2022-01-08T16:34:26Z</time>
      </trkpt>
      <trkpt lat="36.7447280" lon="-3.7892460">
        <ele>-1.0</ele>
        <time>2022-01-08T16:34:27Z</time>
      </trkpt>
      <trkpt lat="36.7447280" lon="-3.7892460">
        <ele>-1.0</ele>
        <time>2022-01-08T16:34:28Z</time>
      </trkpt>
      <trkpt lat="36.7447280" lon="-3.7892460">
        <ele>-1.0</ele>
        <time>2022-01-08T16:34:29Z</time>
      </trkpt>
      <trkpt lat="36.7447280" lon="-3.7892460">
        <ele>-1.0</ele>
        <time>2022-01-08T16:34:30Z</time>
      </trkpt>
      <trkpt lat="36.7447280" lon="-3.7892460">
        <ele>-1.0</ele>
        <time>2022-01-08T16:34:31Z</time>
      </trkpt>
      <trkpt lat="36.7447280" lon="-3.7892460">
        <ele>-1.0</ele>
        <time>2022-01-08T16:34:32Z</time>
      </trkpt>
      <trkpt lat="36.7447280" lon="-3.7892460">
        <ele>-1.0</ele>
        <time>2022-01-08T16:34:33Z</time>
      </trkpt>
      <trkpt lat="36.7447280" lon="-3.7892460">
        <ele>-1.0</ele>
        <time>2022-01-08T16:34:34Z</time>
      </trkpt>
      <trkpt lat="36.7447280" lon="-3.7892460">
        <ele>-1.0</ele>
        <time>2022-01-08T16:34:35Z</time>
      </trkpt>
      <trkpt lat="36.7447280" lon="-3.7892460">
        <ele>-1.0</ele>
        <time>2022-01-08T16:34:36Z</time>
      </trkpt>
      <trkpt lat="36.7447280" lon="-3.7892460">
        <ele>-1.0</ele>
        <time>2022-01-08T16:34:37Z</time>
      </trkpt>
      <trkpt lat="36.7447280" lon="-3.7892460">
        <ele>-1.0</ele>
        <time>2022-01-08T16:34:38Z</time>
      </trkpt>
      <trkpt lat="36.7447280" lon="-3.7892460">
        <ele>-1.0</ele>
        <time>2022-01-08T16:34:39Z</time>
      </trkpt>
      <trkpt lat="36.7447280" lon="-3.7892460">
        <ele>-1.0</ele>
        <time>2022-01-08T16:34:40Z</time>
      </trkpt>
      <trkpt lat="36.7447400" lon="-3.7892280">
        <ele>-1.0</ele>
        <time>2022-01-08T16:34:41Z</time>
      </trkpt>
      <trkpt lat="36.7447400" lon="-3.7892280">
        <ele>-1.0</ele>
        <time>2022-01-08T16:34:42Z</time>
      </trkpt>
      <trkpt lat="36.7447400" lon="-3.7892280">
        <ele>-1.0</ele>
        <time>2022-01-08T16:34:43Z</time>
      </trkpt>
      <trkpt lat="36.7447400" lon="-3.7892280">
        <ele>-1.0</ele>
        <time>2022-01-08T16:34:44Z</time>
      </trkpt>
      <trkpt lat="36.7447400" lon="-3.7892280">
        <ele>-1.0</ele>
        <time>2022-01-08T16:34:45Z</time>
      </trkpt>
      <trkpt lat="36.7447400" lon="-3.7892280">
        <ele>-1.0</ele>
        <time>2022-01-08T16:34:46Z</time>
      </trkpt>
      <trkpt lat="36.7447400" lon="-3.7892280">
        <ele>-1.0</ele>
        <time>2022-01-08T16:34:47Z</time>
      </trkpt>
      <trkpt lat="36.7447400" lon="-3.7892280">
        <ele>-1.0</ele>
        <time>2022-01-08T16:34:48Z</time>
      </trkpt>
      <trkpt lat="36.7447400" lon="-3.7892280">
        <ele>-1.0</ele>
        <time>2022-01-08T16:34:49Z</time>
      </trkpt>
      <trkpt lat="36.7447400" lon="-3.7892280">
        <ele>-1.0</ele>
        <time>2022-01-08T16:34:50Z</time>
      </trkpt>
      <trkpt lat="36.7447400" lon="-3.7892280">
        <ele>-1.0</ele>
        <time>2022-01-08T16:34:51Z</time>
      </trkpt>
      <trkpt lat="36.7447400" lon="-3.7892280">
        <ele>-1.0</ele>
        <time>2022-01-08T16:34:52Z</time>
      </trkpt>
      <trkpt lat="36.7447400" lon="-3.7892280">
        <ele>-1.0</ele>
        <time>2022-01-08T16:34:53Z</time>
      </trkpt>
      <trkpt lat="36.7447400" lon="-3.7892280">
        <ele>-1.0</ele>
        <time>2022-01-08T16:34:54Z</time>
      </trkpt>
      <trkpt lat="36.7447400" lon="-3.7892280">
        <ele>-1.0</ele>
        <time>2022-01-08T16:34:55Z</time>
      </trkpt>
      <trkpt lat="36.7447280" lon="-3.7892470">
        <ele>-1.0</ele>
        <time>2022-01-08T16:34:56Z</time>
      </trkpt>
      <trkpt lat="36.7447280" lon="-3.7892470">
        <ele>-1.0</ele>
        <time>2022-01-08T16:34:57Z</time>
      </trkpt>
      <trkpt lat="36.7447280" lon="-3.7892470">
        <ele>-1.0</ele>
        <time>2022-01-08T16:34:58Z</time>
      </trkpt>
      <trkpt lat="36.7447280" lon="-3.7892470">
        <ele>-1.0</ele>
        <time>2022-01-08T16:34:59Z</time>
      </trkpt>
      <trkpt lat="36.7447280" lon="-3.7892470">
        <ele>-1.0</ele>
        <time>2022-01-08T16:35:00Z</time>
      </trkpt>
      <trkpt lat="36.7447280" lon="-3.7892470">
        <ele>-1.0</ele>
        <time>2022-01-08T16:35:01Z</time>
      </trkpt>
      <trkpt lat="36.7447280" lon="-3.7892470">
        <ele>-1.0</ele>
        <time>2022-01-08T16:35:02Z</time>
      </trkpt>
      <trkpt lat="36.7447280" lon="-3.7892470">
        <ele>-1.0</ele>
        <time>2022-01-08T16:35:03Z</time>
      </trkpt>
      <trkpt lat="36.7447280" lon="-3.7892470">
        <ele>-1.0</ele>
        <time>2022-01-08T16:35:04Z</time>
      </trkpt>
      <trkpt lat="36.7447280" lon="-3.7892470">
        <ele>-1.0</ele>
        <time>2022-01-08T16:35:05Z</time>
      </trkpt>
      <trkpt lat="36.7447280" lon="-3.7892470">
        <ele>-1.0</ele>
        <time>2022-01-08T16:35:06Z</time>
      </trkpt>
      <trkpt lat="36.7447280" lon="-3.7892470">
        <ele>-1.0</ele>
        <time>2022-01-08T16:35:07Z</time>
      </trkpt>
      <trkpt lat="36.7447280" lon="-3.7892470">
        <ele>-1.0</ele>
        <time>2022-01-08T16:35:08Z</time>
      </trkpt>
      <trkpt lat="36.7447280" lon="-3.7892470">
        <ele>-1.0</ele>
        <time>2022-01-08T16:35:09Z</time>
      </trkpt>
      <trkpt lat="36.7447280" lon="-3.7892470">
        <ele>-1.0</ele>
        <time>2022-01-08T16:35:10Z</time>
      </trkpt>
      <trkpt lat="36.7447280" lon="-3.7892470">
        <ele>-1.0</ele>
        <time>2022-01-08T16:35:11Z</time>
      </trkpt>
      <trkpt lat="36.7447280" lon="-3.7892470">
        <ele>-1.0</ele>
        <time>2022-01-08T16:35:12Z</time>
      </trkpt>
      <trkpt lat="36.7447280" lon="-3.7892470">
        <ele>-1.0</ele>
        <time>2022-01-08T16:35:13Z</time>
      </trkpt>
      <trkpt lat="36.7447380" lon="-3.7892240">
        <ele>-1.0</ele>
        <time>2022-01-08T16:35:14Z</time>
      </trkpt>
      <trkpt lat="36.7447380" lon="-3.7892240">
        <ele>-1.0</ele>
        <time>2022-01-08T16:35:15Z</time>
      </trkpt>
      <trkpt lat="36.7447380" lon="-3.7892240">
        <ele>-1.0</ele>
        <time>2022-01-08T16:35:16Z</time>
      </trkpt>
      <trkpt lat="36.7447380" lon="-3.7892240">
        <ele>-1.0</ele>
        <time>2022-01-08T16:35:17Z</time>
      </trkpt>
      <trkpt lat="36.7447380" lon="-3.7892240">
        <ele>-1.0</ele>
        <time>2022-01-08T16:35:18Z</time>
      </trkpt>
      <trkpt lat="36.7447250" lon="-3.7892420">
        <ele>-1.0</ele>
        <time>2022-01-08T16:35:19Z</time>
      </trkpt>
      <trkpt lat="36.7447250" lon="-3.7892420">
        <ele>-1.0</ele>
        <time>2022-01-08T16:35:20Z</time>
      </trkpt>
      <trkpt lat="36.7447250" lon="-3.7892420">
        <ele>-1.0</ele>
        <time>2022-01-08T16:35:21Z</time>
      </trkpt>
      <trkpt lat="36.7447250" lon="-3.7892420">
        <ele>-1.0</ele>
        <time>2022-01-08T16:35:22Z</time>
      </trkpt>
      <trkpt lat="36.7447250" lon="-3.7892420">
        <ele>-1.0</ele>
        <time>2022-01-08T16:35:23Z</time>
      </trkpt>
      <trkpt lat="36.7447250" lon="-3.7892420">
        <ele>-1.0</ele>
        <time>2022-01-08T16:35:24Z</time>
      </trkpt>
      <trkpt lat="36.7447250" lon="-3.7892420">
        <ele>-1.0</ele>
        <time>2022-01-08T16:35:25Z</time>
      </trkpt>
      <trkpt lat="36.7447250" lon="-3.7892420">
        <ele>-1.0</ele>
        <time>2022-01-08T16:35:26Z</time>
      </trkpt>
      <trkpt lat="36.7447040" lon="-3.7892480">
        <ele>-1.0</ele>
        <time>2022-01-08T16:35:27Z</time>
      </trkpt>
      <trkpt lat="36.7447040" lon="-3.7892480">
        <ele>-1.0</ele>
        <time>2022-01-08T16:35:28Z</time>
      </trkpt>
      <trkpt lat="36.7447040" lon="-3.7892480">
        <ele>-1.0</ele>
        <time>2022-01-08T16:35:29Z</time>
      </trkpt>
      <trkpt lat="36.7447040" lon="-3.7892480">
        <ele>-1.0</ele>
        <time>2022-01-08T16:35:30Z</time>
      </trkpt>
      <trkpt lat="36.7447040" lon="-3.7892480">
        <ele>-1.0</ele>
        <time>2022-01-08T16:35:31Z</time>
      </trkpt>
      <trkpt lat="36.7447040" lon="-3.7892480">
        <ele>-1.0</ele>
        <time>2022-01-08T16:35:32Z</time>
      </trkpt>
      <trkpt lat="36.7447040" lon="-3.7892480">
        <ele>-1.0</ele>
        <time>2022-01-08T16:35:33Z</time>
      </trkpt>
      <trkpt lat="36.7447040" lon="-3.7892480">
        <ele>-1.0</ele>
        <time>2022-01-08T16:35:34Z</time>
      </trkpt>
      <trkpt lat="36.7447040" lon="-3.7892480">
        <ele>-1.0</ele>
        <time>2022-01-08T16:35:35Z</time>
      </trkpt>
      <trkpt lat="36.7447050" lon="-3.7892470">
        <ele>-1.0</ele>
        <time>2022-01-08T16:35:36Z</time>
      </trkpt>
      <trkpt lat="36.7447050" lon="-3.7892470">
        <ele>-1.0</ele>
        <time>2022-01-08T16:35:37Z</time>
      </trkpt>
      <trkpt lat="36.7447060" lon="-3.7892460">
        <ele>-1.0</ele>
        <time>2022-01-08T16:35:38Z</time>
      </trkpt>
      <trkpt lat="36.7447060" lon="-3.7892460">
        <ele>-1.0</ele>
        <time>2022-01-08T16:35:39Z</time>
      </trkpt>
      <trkpt lat="36.7447070" lon="-3.7892450">
        <ele>-1.0</ele>
        <time>2022-01-08T16:35:40Z</time>
      </trkpt>
      <trkpt lat="36.7447080" lon="-3.7892450">
        <ele>-1.0</ele>
        <time>2022-01-08T16:35:41Z</time>
      </trkpt>
      <trkpt lat="36.7447080" lon="-3.7892440">
        <ele>-1.0</ele>
        <time>2022-01-08T16:35:42Z</time>
      </trkpt>
      <trkpt lat="36.7447090" lon="-3.7892440">
        <ele>-1.0</ele>
        <time>2022-01-08T16:35:43Z</time>
      </trkpt>
      <trkpt lat="36.7447090" lon="-3.7892430">
        <ele>-1.0</ele>
        <time>2022-01-08T16:35:44Z</time>
      </trkpt>
      <trkpt lat="36.7447100" lon="-3.7892430">
        <ele>-1.0</ele>
        <time>2022-01-08T16:35:45Z</time>
      </trkpt>
      <trkpt lat="36.7447100" lon="-3.7892430">
        <ele>-1.0</ele>
        <time>2022-01-08T16:35:46Z</time>
      </trkpt>
      <trkpt lat="36.7447100" lon="-3.7892440">
        <ele>-1.0</ele>
        <time>2022-01-08T16:35:47Z</time>
      </trkpt>
      <trkpt lat="36.7447090" lon="-3.7892450">
        <ele>-1.0</ele>
        <time>2022-01-08T16:35:48Z</time>
      </trkpt>
      <trkpt lat="36.7447090" lon="-3.7892460">
        <ele>-1.0</ele>
        <time>2022-01-08T16:35:49Z</time>
      </trkpt>
      <trkpt lat="36.7447090" lon="-3.7892460">
        <ele>-1.0</ele>
        <time>2022-01-08T16:35:50Z</time>
      </trkpt>
      <trkpt lat="36.7447090" lon="-3.7892470">
        <ele>-1.0</ele>
        <time>2022-01-08T16:35:51Z</time>
      </trkpt>
      <trkpt lat="36.7447090" lon="-3.7892480">
        <ele>-1.0</ele>
        <time>2022-01-08T16:35:52Z</time>
      </trkpt>
      <trkpt lat="36.7447090" lon="-3.7892490">
        <ele>-1.0</ele>
        <time>2022-01-08T16:35:53Z</time>
      </trkpt>
      <trkpt lat="36.7447080" lon="-3.7892490">
        <ele>-1.0</ele>
        <time>2022-01-08T16:35:54Z</time>
      </trkpt>
      <trkpt lat="36.7447080" lon="-3.7892500">
        <ele>-1.0</ele>
        <time>2022-01-08T16:35:55Z</time>
      </trkpt>
      <trkpt lat="36.7447080" lon="-3.7892510">
        <ele>-1.0</ele>
        <time>2022-01-08T16:35:56Z</time>
      </trkpt>
      <trkpt lat="36.7447080" lon="-3.7892520">
        <ele>-1.0</ele>
        <time>2022-01-08T16:35:57Z</time>
      </trkpt>
      <trkpt lat="36.7447080" lon="-3.7892520">
        <ele>-1.0</ele>
        <time>2022-01-08T16:35:58Z</time>
      </trkpt>
      <trkpt lat="36.7447080" lon="-3.7892530">
        <ele>-1.0</ele>
        <time>2022-01-08T16:35:59Z</time>
      </trkpt>
      <trkpt lat="36.7447070" lon="-3.7892540">
        <ele>-1.0</ele>
        <time>2022-01-08T16:36:00Z</time>
      </trkpt>
      <trkpt lat="36.7447070" lon="-3.7892550">
        <ele>-1.0</ele>
        <time>2022-01-08T16:36:01Z</time>
      </trkpt>
      <trkpt lat="36.7447070" lon="-3.7892550">
        <ele>-1.0</ele>
        <time>2022-01-08T16:36:02Z</time>
      </trkpt>
      <trkpt lat="36.7447070" lon="-3.7892560">
        <ele>-1.0</ele>
        <time>2022-01-08T16:36:03Z</time>
      </trkpt>
      <trkpt lat="36.7447070" lon="-3.7892570">
        <ele>-1.0</ele>
        <time>2022-01-08T16:36:04Z</time>
      </trkpt>
      <trkpt lat="36.7447070" lon="-3.7892580">
        <ele>-1.0</ele>
        <time>2022-01-08T16:36:05Z</time>
      </trkpt>
      <trkpt lat="36.7447070" lon="-3.7892580">
        <ele>-1.0</ele>
        <time>2022-01-08T16:36:06Z</time>
      </trkpt>
      <trkpt lat="36.7447070" lon="-3.7892580">
        <ele>-1.0</ele>
        <time>2022-01-08T16:36:07Z</time>
      </trkpt>
      <trkpt lat="36.7447070" lon="-3.7892580">
        <ele>-1.0</ele>
        <time>2022-01-08T16:36:08Z</time>
      </trkpt>
      <trkpt lat="36.7447070" lon="-3.7892580">
        <ele>-1.0</ele>
        <time>2022-01-08T16:36:09Z</time>
      </trkpt>
      <trkpt lat="36.7447070" lon="-3.7892580">
        <ele>-1.0</ele>
        <time>2022-01-08T16:36:10Z</time>
      </trkpt>
      <trkpt lat="36.7447070" lon="-3.7892580">
        <ele>-1.0</ele>
        <time>2022-01-08T16:36:11Z</time>
      </trkpt>
      <trkpt lat="36.7447070" lon="-3.7892580">
        <ele>-1.0</ele>
        <time>2022-01-08T16:36:12Z</time>
      </trkpt>
      <trkpt lat="36.7447070" lon="-3.7892580">
        <ele>-1.0</ele>
        <time>2022-01-08T16:36:13Z</time>
      </trkpt>
      <trkpt lat="36.7447240" lon="-3.7892660">
        <ele>-1.0</ele>
        <time>2022-01-08T16:36:14Z</time>
      </trkpt>
      <trkpt lat="36.7447240" lon="-3.7892660">
        <ele>-1.0</ele>
        <time>2022-01-08T16:36:15Z</time>
      </trkpt>
      <trkpt lat="36.7447240" lon="-3.7892660">
        <ele>-1.0</ele>
        <time>2022-01-08T16:36:16Z</time>
      </trkpt>
      <trkpt lat="36.7447240" lon="-3.7892660">
        <ele>-1.0</ele>
        <time>2022-01-08T16:36:17Z</time>
      </trkpt>
      <trkpt lat="36.7447240" lon="-3.7892660">
        <ele>-1.0</ele>
        <time>2022-01-08T16:36:18Z</time>
      </trkpt>
      <trkpt lat="36.7447240" lon="-3.7892660">
        <ele>-1.0</ele>
        <time>2022-01-08T16:36:19Z</time>
      </trkpt>
      <trkpt lat="36.7447240" lon="-3.7892660">
        <ele>-1.0</ele>
        <time>2022-01-08T16:36:20Z</time>
      </trkpt>
      <trkpt lat="36.7447240" lon="-3.7892660">
        <ele>-1.0</ele>
        <time>2022-01-08T16:36:21Z</time>
      </trkpt>
      <trkpt lat="36.7447240" lon="-3.7892660">
        <ele>-1.0</ele>
        <time>2022-01-08T16:36:22Z</time>
      </trkpt>
      <trkpt lat="36.7447090" lon="-3.7892420">
        <ele>-1.0</ele>
        <time>2022-01-08T16:36:23Z</time>
      </trkpt>
      <trkpt lat="36.7447090" lon="-3.7892420">
        <ele>-1.0</ele>
        <time>2022-01-08T16:36:24Z</time>
      </trkpt>
      <trkpt lat="36.7447090" lon="-3.7892420">
        <ele>-1.0</ele>
        <time>2022-01-08T16:36:25Z</time>
      </trkpt>
      <trkpt lat="36.7447090" lon="-3.7892420">
        <ele>-1.0</ele>
        <time>2022-01-08T16:36:26Z</time>
      </trkpt>
      <trkpt lat="36.7447090" lon="-3.7892420">
        <ele>-1.0</ele>
        <time>2022-01-08T16:36:27Z</time>
      </trkpt>
      <trkpt lat="36.7447090" lon="-3.7892420">
        <ele>-1.0</ele>
        <time>2022-01-08T16:36:28Z</time>
      </trkpt>
      <trkpt lat="36.7447090" lon="-3.7892420">
        <ele>-1.0</ele>
        <time>2022-01-08T16:36:29Z</time>
      </trkpt>
      <trkpt lat="36.7447260" lon="-3.7892510">
        <ele>-1.0</ele>
        <time>2022-01-08T16:36:30Z</time>
      </trkpt>
      <trkpt lat="36.7447260" lon="-3.7892510">
        <ele>-1.0</ele>
        <time>2022-01-08T16:36:31Z</time>
      </trkpt>
      <trkpt lat="36.7447260" lon="-3.7892510">
        <ele>-1.0</ele>
        <time>2022-01-08T16:36:32Z</time>
      </trkpt>
      <trkpt lat="36.7447260" lon="-3.7892510">
        <ele>-1.0</ele>
        <time>2022-01-08T16:36:33Z</time>
      </trkpt>
      <trkpt lat="36.7447260" lon="-3.7892510">
        <ele>-1.0</ele>
        <time>2022-01-08T16:36:34Z</time>
      </trkpt>
      <trkpt lat="36.7447260" lon="-3.7892510">
        <ele>-1.0</ele>
        <time>2022-01-08T16:36:35Z</time>
      </trkpt>
      <trkpt lat="36.7447260" lon="-3.7892510">
        <ele>-1.0</ele>
        <time>2022-01-08T16:36:36Z</time>
      </trkpt>
      <trkpt lat="36.7447260" lon="-3.7892510">
        <ele>-1.0</ele>
        <time>2022-01-08T16:36:37Z</time>
      </trkpt>
      <trkpt lat="36.7447260" lon="-3.7892510">
        <ele>-1.0</ele>
        <time>2022-01-08T16:36:38Z</time>
      </trkpt>
      <trkpt lat="36.7447260" lon="-3.7892510">
        <ele>-1.0</ele>
        <time>2022-01-08T16:36:39Z</time>
      </trkpt>
      <trkpt lat="36.7447260" lon="-3.7892510">
        <ele>-1.0</ele>
        <time>2022-01-08T16:36:40Z</time>
      </trkpt>
      <trkpt lat="36.7447260" lon="-3.7892510">
        <ele>-1.0</ele>
        <time>2022-01-08T16:36:41Z</time>
      </trkpt>
      <trkpt lat="36.7447260" lon="-3.7892510">
        <ele>-1.0</ele>
        <time>2022-01-08T16:36:42Z</time>
      </trkpt>
      <trkpt lat="36.7447530" lon="-3.7892320">
        <ele>-1.0</ele>
        <time>2022-01-08T16:36:43Z</time>
      </trkpt>
      <trkpt lat="36.7447530" lon="-3.7892320">
        <ele>-1.0</ele>
        <time>2022-01-08T16:36:44Z</time>
      </trkpt>
      <trkpt lat="36.7447530" lon="-3.7892320">
        <ele>-1.0</ele>
        <time>2022-01-08T16:36:45Z</time>
      </trkpt>
      <trkpt lat="36.7447370" lon="-3.7892480">
        <ele>-1.0</ele>
        <time>2022-01-08T16:36:46Z</time>
      </trkpt>
      <trkpt lat="36.7447370" lon="-3.7892480">
        <ele>-1.0</ele>
        <time>2022-01-08T16:36:47Z</time>
      </trkpt>
      <trkpt lat="36.7447370" lon="-3.7892480">
        <ele>-1.0</ele>
        <time>2022-01-08T16:36:48Z</time>
      </trkpt>
      <trkpt lat="36.7447370" lon="-3.7892480">
        <ele>-1.0</ele>
        <time>2022-01-08T16:36:49Z</time>
      </trkpt>
      <trkpt lat="36.7447370" lon="-3.7892480">
        <ele>-1.0</ele>
        <time>2022-01-08T16:36:50Z</time>
      </trkpt>
      <trkpt lat="36.7447370" lon="-3.7892480">
        <ele>-1.0</ele>
        <time>2022-01-08T16:36:51Z</time>
      </trkpt>
      <trkpt lat="36.7447370" lon="-3.7892480">
        <ele>-1.0</ele>
        <time>2022-01-08T16:36:52Z</time>
      </trkpt>
      <trkpt lat="36.7447370" lon="-3.7892480">
        <ele>-1.0</ele>
        <time>2022-01-08T16:36:53Z</time>
      </trkpt>
      <trkpt lat="36.7447370" lon="-3.7892480">
        <ele>-1.0</ele>
        <time>2022-01-08T16:36:54Z</time>
      </trkpt>
      <trkpt lat="36.7447210" lon="-3.7892600">
        <ele>-1.0</ele>
        <time>2022-01-08T16:36:55Z</time>
      </trkpt>
      <trkpt lat="36.7447210" lon="-3.7892600">
        <ele>-1.0</ele>
        <time>2022-01-08T16:36:56Z</time>
      </trkpt>
      <trkpt lat="36.7447210" lon="-3.7892600">
        <ele>-1.0</ele>
        <time>2022-01-08T16:36:57Z</time>
      </trkpt>
      <trkpt lat="36.7447210" lon="-3.7892600">
        <ele>-1.0</ele>
        <time>2022-01-08T16:36:58Z</time>
      </trkpt>
      <trkpt lat="36.7447210" lon="-3.7892600">
        <ele>-1.0</ele>
        <time>2022-01-08T16:36:59Z</time>
      </trkpt>
      <trkpt lat="36.7447210" lon="-3.7892600">
        <ele>-1.0</ele>
        <time>2022-01-08T16:37:00Z</time>
      </trkpt>
      <trkpt lat="36.7447210" lon="-3.7892600">
        <ele>-1.0</ele>
        <time>2022-01-08T16:37:01Z</time>
      </trkpt>
      <trkpt lat="36.7447210" lon="-3.7892600">
        <ele>-1.0</ele>
        <time>2022-01-08T16:37:02Z</time>
      </trkpt>
      <trkpt lat="36.7447210" lon="-3.7892600">
        <ele>-1.0</ele>
        <time>2022-01-08T16:37:03Z</time>
      </trkpt>
      <trkpt lat="36.7447210" lon="-3.7892600">
        <ele>-1.0</ele>
        <time>2022-01-08T16:37:04Z</time>
      </trkpt>
      <trkpt lat="36.7447210" lon="-3.7892600">
        <ele>-1.0</ele>
        <time>2022-01-08T16:37:05Z</time>
      </trkpt>
      <trkpt lat="36.7447220" lon="-3.7892600">
        <ele>-1.0</ele>
        <time>2022-01-08T16:37:06Z</time>
      </trkpt>
      <trkpt lat="36.7447240" lon="-3.7892600">
        <ele>-1.0</ele>
        <time>2022-01-08T16:37:07Z</time>
      </trkpt>
      <trkpt lat="36.7447250" lon="-3.7892600">
        <ele>-1.0</ele>
        <time>2022-01-08T16:37:08Z</time>
      </trkpt>
      <trkpt lat="36.7447270" lon="-3.7892600">
        <ele>-1.0</ele>
        <time>2022-01-08T16:37:09Z</time>
      </trkpt>
      <trkpt lat="36.7447290" lon="-3.7892600">
        <ele>-1.0</ele>
        <time>2022-01-08T16:37:10Z</time>
      </trkpt>
      <trkpt lat="36.7447300" lon="-3.7892600">
        <ele>-1.0</ele>
        <time>2022-01-08T16:37:11Z</time>
      </trkpt>
      <trkpt lat="36.7447320" lon="-3.7892600">
        <ele>-1.0</ele>
        <time>2022-01-08T16:37:12Z</time>
      </trkpt>
      <trkpt lat="36.7447340" lon="-3.7892600">
        <ele>-1.0</ele>
        <time>2022-01-08T16:37:13Z</time>
      </trkpt>
      <trkpt lat="36.7447350" lon="-3.7892600">
        <ele>-1.0</ele>
        <time>2022-01-08T16:37:14Z</time>
      </trkpt>
      <trkpt lat="36.7447370" lon="-3.7892600">
        <ele>-1.0</ele>
        <time>2022-01-08T16:37:15Z</time>
      </trkpt>
      <trkpt lat="36.7447380" lon="-3.7892600">
        <ele>-1.0</ele>
        <time>2022-01-08T16:37:16Z</time>
      </trkpt>
      <trkpt lat="36.7447400" lon="-3.7892600">
        <ele>-1.0</ele>
        <time>2022-01-08T16:37:17Z</time>
      </trkpt>
      <trkpt lat="36.7447420" lon="-3.7892600">
        <ele>-1.0</ele>
        <time>2022-01-08T16:37:18Z</time>
      </trkpt>
      <trkpt lat="36.7447430" lon="-3.7892600">
        <ele>-1.0</ele>
        <time>2022-01-08T16:37:19Z</time>
      </trkpt>
      <trkpt lat="36.7447450" lon="-3.7892600">
        <ele>-1.0</ele>
        <time>2022-01-08T16:37:20Z</time>
      </trkpt>
      <trkpt lat="36.7447470" lon="-3.7892600">
        <ele>-1.0</ele>
        <time>2022-01-08T16:37:21Z</time>
      </trkpt>
      <trkpt lat="36.7447480" lon="-3.7892600">
        <ele>-1.0</ele>
        <time>2022-01-08T16:37:22Z</time>
      </trkpt>
      <trkpt lat="36.7447500" lon="-3.7892600">
        <ele>-1.0</ele>
        <time>2022-01-08T16:37:23Z</time>
      </trkpt>
      <trkpt lat="36.7447520" lon="-3.7892600">
        <ele>-1.0</ele>
        <time>2022-01-08T16:37:24Z</time>
      </trkpt>
      <trkpt lat="36.7447530" lon="-3.7892600">
        <ele>-1.0</ele>
        <time>2022-01-08T16:37:25Z</time>
      </trkpt>
      <trkpt lat="36.7447540" lon="-3.7892550">
        <ele>-1.0</ele>
        <time>2022-01-08T16:37:26Z</time>
      </trkpt>
      <trkpt lat="36.7447540" lon="-3.7892500">
        <ele>-1.0</ele>
        <time>2022-01-08T16:37:27Z</time>
      </trkpt>
      <trkpt lat="36.7447550" lon="-3.7892450">
        <ele>-1.0</ele>
        <time>2022-01-08T16:37:28Z</time>
      </trkpt>
      <trkpt lat="36.7447550" lon="-3.7892400">
        <ele>-1.0</ele>
        <time>2022-01-08T16:37:29Z</time>
      </trkpt>
      <trkpt lat="36.7447560" lon="-3.7892350">
        <ele>-1.0</ele>
        <time>2022-01-08T16:37:30Z</time>
      </trkpt>
      <trkpt lat="36.7447560" lon="-3.7892300">
        <ele>-1.0</ele>
        <time>2022-01-08T16:37:31Z</time>
      </trkpt>
      <trkpt lat="36.7447570" lon="-3.7892250">
        <ele>-1.0</ele>
        <time>2022-01-08T16:37:32Z</time>
      </trkpt>
      <trkpt lat="36.7447570" lon="-3.7892200">
        <ele>-1.0</ele>
        <time>2022-01-08T16:37:33Z</time>
      </trkpt>
      <trkpt lat="36.7447580" lon="-3.7892150">
        <ele>-1.0</ele>
        <time>2022-01-08T16:37:34Z</time>
      </trkpt>
      <trkpt lat="36.7447580" lon="-3.7892110">
        <ele>-1.0</ele>
        <time>2022-01-08T16:37:35Z</time>
      </trkpt>
      <trkpt lat="36.7447590" lon="-3.7892060">
        <ele>-1.0</ele>
        <time>2022-01-08T16:37:36Z</time>
      </trkpt>
      <trkpt lat="36.7447590" lon="-3.7892010">
        <ele>-1.0</ele>
        <time>2022-01-08T16:37:37Z</time>
      </trkpt>
      <trkpt lat="36.7447600" lon="-3.7891960">
        <ele>-1.0</ele>
        <time>2022-01-08T16:37:38Z</time>
      </trkpt>
      <trkpt lat="36.7447600" lon="-3.7891910">
        <ele>-1.0</ele>
        <time>2022-01-08T16:37:39Z</time>
      </trkpt>
      <trkpt lat="36.7447610" lon="-3.7891860">
        <ele>-1.0</ele>
        <time>2022-01-08T16:37:40Z</time>
      </trkpt>
      <trkpt lat="36.7447610" lon="-3.7891810">
        <ele>-1.0</ele>
        <time>2022-01-08T16:37:41Z</time>
      </trkpt>
      <trkpt lat="36.7447620" lon="-3.7891760">
        <ele>-1.0</ele>
        <time>2022-01-08T16:37:42Z</time>
      </trkpt>
      <trkpt lat="36.7447620" lon="-3.7891710">
        <ele>-1.0</ele>
        <time>2022-01-08T16:37:43Z</time>
      </trkpt>
      <trkpt lat="36.7447630" lon="-3.7891660">
        <ele>-1.0</ele>
        <time>2022-01-08T16:37:44Z</time>
      </trkpt>
      <trkpt lat="36.7447630" lon="-3.7891620">
        <ele>-1.0</ele>
        <time>2022-01-08T16:37:45Z</time>
      </trkpt>
      <trkpt lat="36.7447600" lon="-3.7891510">
        <ele>-1.0</ele>
        <time>2022-01-08T16:37:46Z</time>
      </trkpt>
      <trkpt lat="36.7447560" lon="-3.7891410">
        <ele>-1.0</ele>
        <time>2022-01-08T16:37:47Z</time>
      </trkpt>
      <trkpt lat="36.7447520" lon="-3.7891310">
        <ele>-1.0</ele>
        <time>2022-01-08T16:37:48Z</time>
      </trkpt>
      <trkpt lat="36.7447480" lon="-3.7891200">
        <ele>-1.0</ele>
        <time>2022-01-08T16:37:49Z</time>
      </trkpt>
      <trkpt lat="36.7447450" lon="-3.7891100">
        <ele>-1.0</ele>
        <time>2022-01-08T16:37:50Z</time>
      </trkpt>
      <trkpt lat="36.7447410" lon="-3.7891000">
        <ele>-1.0</ele>
        <time>2022-01-08T16:37:51Z</time>
      </trkpt>
      <trkpt lat="36.7447370" lon="-3.7890890">
        <ele>-1.0</ele>
        <time>2022-01-08T16:37:52Z</time>
      </trkpt>
      <trkpt lat="36.7447340" lon="-3.7890790">
        <ele>-1.0</ele>
        <time>2022-01-08T16:37:53Z</time>
      </trkpt>
      <trkpt lat="36.7447300" lon="-3.7890690">
        <ele>-1.0</ele>
        <time>2022-01-08T16:37:54Z</time>
      </trkpt>
      <trkpt lat="36.7447260" lon="-3.7890590">
        <ele>-1.0</ele>
        <time>2022-01-08T16:37:55Z</time>
      </trkpt>
      <trkpt lat="36.7447250" lon="-3.7890570">
        <ele>-1.0</ele>
        <time>2022-01-08T16:37:56Z</time>
      </trkpt>
      <trkpt lat="36.7447250" lon="-3.7890550">
        <ele>-1.0</ele>
        <time>2022-01-08T16:37:57Z</time>
      </trkpt>
      <trkpt lat="36.7447240" lon="-3.7890530">
        <ele>-1.0</ele>
        <time>2022-01-08T16:37:58Z</time>
      </trkpt>
      <trkpt lat="36.7447230" lon="-3.7890510">
        <ele>-1.0</ele>
        <time>2022-01-08T16:37:59Z</time>
      </trkpt>
      <trkpt lat="36.7447220" lon="-3.7890490">
        <ele>-1.0</ele>
        <time>2022-01-08T16:38:00Z</time>
      </trkpt>
      <trkpt lat="36.7447210" lon="-3.7890470">
        <ele>-1.0</ele>
        <time>2022-01-08T16:38:01Z</time>
      </trkpt>
      <trkpt lat="36.7447210" lon="-3.7890450">
        <ele>-1.0</ele>
        <time>2022-01-08T16:38:02Z</time>
      </trkpt>
      <trkpt lat="36.7447200" lon="-3.7890430">
        <ele>-1.0</ele>
        <time>2022-01-08T16:38:03Z</time>
      </trkpt>
      <trkpt lat="36.7447190" lon="-3.7890420">
        <ele>-1.0</ele>
        <time>2022-01-08T16:38:04Z</time>
      </trkpt>
      <trkpt lat="36.7447180" lon="-3.7890400">
        <ele>-1.0</ele>
        <time>2022-01-08T16:38:05Z</time>
      </trkpt>
      <trkpt lat="36.7447170" lon="-3.7890380">
        <ele>-1.0</ele>
        <time>2022-01-08T16:38:06Z</time>
      </trkpt>
      <trkpt lat="36.7447160" lon="-3.7890360">
        <ele>-1.0</ele>
        <time>2022-01-08T16:38:07Z</time>
      </trkpt>
      <trkpt lat="36.7447160" lon="-3.7890340">
        <ele>-1.0</ele>
        <time>2022-01-08T16:38:08Z</time>
      </trkpt>
      <trkpt lat="36.7447150" lon="-3.7890320">
        <ele>-1.0</ele>
        <time>2022-01-08T16:38:09Z</time>
      </trkpt>
      <trkpt lat="36.7447140" lon="-3.7890300">
        <ele>-1.0</ele>
        <time>2022-01-08T16:38:10Z</time>
      </trkpt>
      <trkpt lat="36.7447130" lon="-3.7890280">
        <ele>-1.0</ele>
        <time>2022-01-08T16:38:11Z</time>
      </trkpt>
      <trkpt lat="36.7447120" lon="-3.7890260">
        <ele>-1.0</ele>
        <time>2022-01-08T16:38:12Z</time>
      </trkpt>
      <trkpt lat="36.7447120" lon="-3.7890250">
        <ele>-1.0</ele>
        <time>2022-01-08T16:38:13Z</time>
      </trkpt>
      <trkpt lat="36.7447110" lon="-3.7890230">
        <ele>-1.0</ele>
        <time>2022-01-08T16:38:14Z</time>
      </trkpt>
      <trkpt lat="36.7447100" lon="-3.7890210">
        <ele>-1.0</ele>
        <time>2022-01-08T16:38:15Z</time>
      </trkpt>
      <trkpt lat="36.7447100" lon="-3.7890210">
        <ele>-1.0</ele>
        <time>2022-01-08T16:38:16Z</time>
      </trkpt>
      <trkpt lat="36.7447100" lon="-3.7890210">
        <ele>-1.0</ele>
        <time>2022-01-08T16:38:17Z</time>
      </trkpt>
      <trkpt lat="36.7447100" lon="-3.7890210">
        <ele>-1.0</ele>
        <time>2022-01-08T16:38:18Z</time>
      </trkpt>
      <trkpt lat="36.7447100" lon="-3.7890210">
        <ele>-1.0</ele>
        <time>2022-01-08T16:38:19Z</time>
      </trkpt>
      <trkpt lat="36.7447120" lon="-3.7889870">
        <ele>-1.0</ele>
        <time>2022-01-08T16:38:20Z</time>
      </trkpt>
      <trkpt lat="36.7447120" lon="-3.7889870">
        <ele>-1.0</ele>
        <time>2022-01-08T16:38:21Z</time>
      </trkpt>
      <trkpt lat="36.7447120" lon="-3.7889870">
        <ele>-1.0</ele>
        <time>2022-01-08T16:38:22Z</time>
      </trkpt>
      <trkpt lat="36.7447120" lon="-3.7889870">
        <ele>-1.0</ele>
        <time>2022-01-08T16:38:23Z</time>
      </trkpt>
      <trkpt lat="36.7447120" lon="-3.7889870">
        <ele>-1.0</ele>
        <time>2022-01-08T16:38:24Z</time>
      </trkpt>
      <trkpt lat="36.7447120" lon="-3.7889870">
        <ele>-1.0</ele>
        <time>2022-01-08T16:38:25Z</time>
      </trkpt>
      <trkpt lat="36.7447120" lon="-3.7889870">
        <ele>-1.0</ele>
        <time>2022-01-08T16:38:26Z</time>
      </trkpt>
      <trkpt lat="36.7447120" lon="-3.7889870">
        <ele>-1.0</ele>
        <time>2022-01-08T16:38:27Z</time>
      </trkpt>
      <trkpt lat="36.7447120" lon="-3.7889870">
        <ele>-1.0</ele>
        <time>2022-01-08T16:38:28Z</time>
      </trkpt>
      <trkpt lat="36.7447120" lon="-3.7889870">
        <ele>-1.0</ele>
        <time>2022-01-08T16:38:29Z</time>
      </trkpt>
      <trkpt lat="36.7447120" lon="-3.7889870">
        <ele>-1.0</ele>
        <time>2022-01-08T16:38:30Z</time>
      </trkpt>
      <trkpt lat="36.7447120" lon="-3.7889870">
        <ele>-1.0</ele>
        <time>2022-01-08T16:38:31Z</time>
      </trkpt>
      <trkpt lat="36.7446930" lon="-3.7889850">
        <ele>-1.0</ele>
        <time>2022-01-08T16:38:32Z</time>
      </trkpt>
      <trkpt lat="36.7446930" lon="-3.7889850">
        <ele>-1.0</ele>
        <time>2022-01-08T16:38:33Z</time>
      </trkpt>
      <trkpt lat="36.7446930" lon="-3.7889850">
        <ele>-1.0</ele>
        <time>2022-01-08T16:38:34Z</time>
      </trkpt>
      <trkpt lat="36.7446930" lon="-3.7889850">
        <ele>-1.0</ele>
        <time>2022-01-08T16:38:35Z</time>
      </trkpt>
      <trkpt lat="36.7446930" lon="-3.7889850">
        <ele>-1.0</ele>
        <time>2022-01-08T16:38:36Z</time>
      </trkpt>
      <trkpt lat="36.7446930" lon="-3.7889850">
        <ele>-1.0</ele>
        <time>2022-01-08T16:38:37Z</time>
      </trkpt>
      <trkpt lat="36.7446750" lon="-3.7889850">
        <ele>-1.0</ele>
        <time>2022-01-08T16:38:38Z</time>
      </trkpt>
      <trkpt lat="36.7446750" lon="-3.7889850">
        <ele>-1.0</ele>
        <time>2022-01-08T16:38:39Z</time>
      </trkpt>
      <trkpt lat="36.7446750" lon="-3.7889850">
        <ele>-1.0</ele>
        <time>2022-01-08T16:38:40Z</time>
      </trkpt>
      <trkpt lat="36.7446750" lon="-3.7889850">
        <ele>-1.0</ele>
        <time>2022-01-08T16:38:41Z</time>
      </trkpt>
      <trkpt lat="36.7446750" lon="-3.7889850">
        <ele>-1.0</ele>
        <time>2022-01-08T16:38:42Z</time>
      </trkpt>
      <trkpt lat="36.7446750" lon="-3.7889850">
        <ele>-1.0</ele>
        <time>2022-01-08T16:38:43Z</time>
      </trkpt>
      <trkpt lat="36.7446750" lon="-3.7889850">
        <ele>-1.0</ele>
        <time>2022-01-08T16:38:44Z</time>
      </trkpt>
      <trkpt lat="36.7446750" lon="-3.7889850">
        <ele>-1.0</ele>
        <time>2022-01-08T16:38:45Z</time>
      </trkpt>
      <trkpt lat="36.7446750" lon="-3.7889850">
        <ele>-1.0</ele>
        <time>2022-01-08T16:38:46Z</time>
      </trkpt>
      <trkpt lat="36.7446750" lon="-3.7889850">
        <ele>-1.0</ele>
        <time>2022-01-08T16:38:47Z</time>
      </trkpt>
      <trkpt lat="36.7446750" lon="-3.7889850">
        <ele>-1.0</ele>
        <time>2022-01-08T16:38:48Z</time>
      </trkpt>
      <trkpt lat="36.7446750" lon="-3.7889850">
        <ele>-1.0</ele>
        <time>2022-01-08T16:38:49Z</time>
      </trkpt>
      <trkpt lat="36.7446750" lon="-3.7889850">
        <ele>-1.0</ele>
        <time>2022-01-08T16:38:50Z</time>
      </trkpt>
      <trkpt lat="36.7446750" lon="-3.7889850">
        <ele>-1.0</ele>
        <time>2022-01-08T16:38:51Z</time>
      </trkpt>
      <trkpt lat="36.7446750" lon="-3.7889850">
        <ele>-1.0</ele>
        <time>2022-01-08T16:38:52Z</time>
      </trkpt>
      <trkpt lat="36.7446750" lon="-3.7889850">
        <ele>-1.0</ele>
        <time>2022-01-08T16:38:53Z</time>
      </trkpt>
      <trkpt lat="36.7446750" lon="-3.7889850">
        <ele>-1.0</ele>
        <time>2022-01-08T16:38:54Z</time>
      </trkpt>
      <trkpt lat="36.7446750" lon="-3.7889850">
        <ele>-1.0</ele>
        <time>2022-01-08T16:38:55Z</time>
      </trkpt>
      <trkpt lat="36.7446750" lon="-3.7889850">
        <ele>-1.0</ele>
        <time>2022-01-08T16:38:56Z</time>
      </trkpt>
      <trkpt lat="36.7446730" lon="-3.7889620">
        <ele>-1.0</ele>
        <time>2022-01-08T16:38:57Z</time>
      </trkpt>
      <trkpt lat="36.7446730" lon="-3.7889620">
        <ele>-1.0</ele>
        <time>2022-01-08T16:38:58Z</time>
      </trkpt>
      <trkpt lat="36.7446730" lon="-3.7889620">
        <ele>-1.0</ele>
        <time>2022-01-08T16:38:59Z</time>
      </trkpt>
      <trkpt lat="36.7446730" lon="-3.7889620">
        <ele>-1.0</ele>
        <time>2022-01-08T16:39:00Z</time>
      </trkpt>
      <trkpt lat="36.7446730" lon="-3.7889620">
        <ele>-1.0</ele>
        <time>2022-01-08T16:39:01Z</time>
      </trkpt>
      <trkpt lat="36.7446730" lon="-3.7889620">
        <ele>-1.0</ele>
        <time>2022-01-08T16:39:02Z</time>
      </trkpt>
      <trkpt lat="36.7446730" lon="-3.7889620">
        <ele>-1.0</ele>
        <time>2022-01-08T16:39:03Z</time>
      </trkpt>
      <trkpt lat="36.7446730" lon="-3.7889620">
        <ele>-1.0</ele>
        <time>2022-01-08T16:39:04Z</time>
      </trkpt>
      <trkpt lat="36.7446730" lon="-3.7889620">
        <ele>-1.0</ele>
        <time>2022-01-08T16:39:05Z</time>
      </trkpt>
      <trkpt lat="36.7446610" lon="-3.7889370">
        <ele>-1.0</ele>
        <time>2022-01-08T16:39:06Z</time>
      </trkpt>
      <trkpt lat="36.7446630" lon="-3.7889320">
        <ele>-1.0</ele>
        <time>2022-01-08T16:39:07Z</time>
      </trkpt>
      <trkpt lat="36.7446660" lon="-3.7889260">
        <ele>-1.0</ele>
        <time>2022-01-08T16:39:08Z</time>
      </trkpt>
      <trkpt lat="36.7446690" lon="-3.7889200">
        <ele>-1.0</ele>
        <time>2022-01-08T16:39:09Z</time>
      </trkpt>
      <trkpt lat="36.7446720" lon="-3.7889140">
        <ele>-1.0</ele>
        <time>2022-01-08T16:39:10Z</time>
      </trkpt>
      <trkpt lat="36.7446750" lon="-3.7889080">
        <ele>-1.0</ele>
        <time>2022-01-08T16:39:11Z</time>
      </trkpt>
      <trkpt lat="36.7446770" lon="-3.7889030">
        <ele>-1.0</ele>
        <time>2022-01-08T16:39:12Z</time>
      </trkpt>
      <trkpt lat="36.7446800" lon="-3.7888970">
        <ele>-1.0</ele>
        <time>2022-01-08T16:39:13Z</time>
      </trkpt>
      <trkpt lat="36.7446830" lon="-3.7888910">
        <ele>-1.0</ele>
        <time>2022-01-08T16:39:14Z</time>
      </trkpt>
      <trkpt lat="36.7446860" lon="-3.7888850">
        <ele>-1.0</ele>
        <time>2022-01-08T16:39:15Z</time>
      </trkpt>
      <trkpt lat="36.7446680" lon="-3.7888590">
        <ele>-1.0</ele>
        <time>2022-01-08T16:39:16Z</time>
      </trkpt>
      <trkpt lat="36.7446650" lon="-3.7888640">
        <ele>-1.0</ele>
        <time>2022-01-08T16:39:17Z</time>
      </trkpt>
      <trkpt lat="36.7446610" lon="-3.7888700">
        <ele>-1.0</ele>
        <time>2022-01-08T16:39:18Z</time>
      </trkpt>
      <trkpt lat="36.7446580" lon="-3.7888760">
        <ele>-1.0</ele>
        <time>2022-01-08T16:39:19Z</time>
      </trkpt>
      <trkpt lat="36.7446540" lon="-3.7888820">
        <ele>-1.0</ele>
        <time>2022-01-08T16:39:20Z</time>
      </trkpt>
      <trkpt lat="36.7446510" lon="-3.7888870">
        <ele>-1.0</ele>
        <time>2022-01-08T16:39:21Z</time>
      </trkpt>
      <trkpt lat="36.7446470" lon="-3.7888930">
        <ele>-1.0</ele>
        <time>2022-01-08T16:39:22Z</time>
      </trkpt>
      <trkpt lat="36.7446440" lon="-3.7888990">
        <ele>-1.0</ele>
        <time>2022-01-08T16:39:23Z</time>
      </trkpt>
      <trkpt lat="36.7446400" lon="-3.7889040">
        <ele>-1.0</ele>
        <time>2022-01-08T16:39:24Z</time>
      </trkpt>
      <trkpt lat="36.7446370" lon="-3.7889100">
        <ele>-1.0</ele>
        <time>2022-01-08T16:39:25Z</time>
      </trkpt>
      <trkpt lat="36.7446430" lon="-3.7889140">
        <ele>-1.0</ele>
        <time>2022-01-08T16:39:26Z</time>
      </trkpt>
      <trkpt lat="36.7446490" lon="-3.7889170">
        <ele>-1.0</ele>
        <time>2022-01-08T16:39:27Z</time>
      </trkpt>
      <trkpt lat="36.7446550" lon="-3.7889210">
        <ele>-1.0</ele>
        <time>2022-01-08T16:39:28Z</time>
      </trkpt>
      <trkpt lat="36.7446610" lon="-3.7889250">
        <ele>-1.0</ele>
        <time>2022-01-08T16:39:29Z</time>
      </trkpt>
      <trkpt lat="36.7446660" lon="-3.7889290">
        <ele>-1.0</ele>
        <time>2022-01-08T16:39:30Z</time>
      </trkpt>
      <trkpt lat="36.7446720" lon="-3.7889320">
        <ele>-1.0</ele>
        <time>2022-01-08T16:39:31Z</time>
      </trkpt>
      <trkpt lat="36.7446780" lon="-3.7889360">
        <ele>-1.0</ele>
        <time>2022-01-08T16:39:32Z</time>
      </trkpt>
      <trkpt lat="36.7446840" lon="-3.7889400">
        <ele>-1.0</ele>
        <time>2022-01-08T16:39:33Z</time>
      </trkpt>
      <trkpt lat="36.7446900" lon="-3.7889430">
        <ele>-1.0</ele>
        <time>2022-01-08T16:39:34Z</time>
      </trkpt>
      <trkpt lat="36.7446960" lon="-3.7889470">
        <ele>-1.0</ele>
        <time>2022-01-08T16:39:35Z</time>
      </trkpt>
      <trkpt lat="36.7447300" lon="-3.7889230">
        <ele>-1.0</ele>
        <time>2022-01-08T16:39:36Z</time>
      </trkpt>
      <trkpt lat="36.7447390" lon="-3.7889140">
        <ele>-1.0</ele>
        <time>2022-01-08T16:39:37Z</time>
      </trkpt>
      <trkpt lat="36.7447470" lon="-3.7889050">
        <ele>-1.0</ele>
        <time>2022-01-08T16:39:38Z</time>
      </trkpt>
      <trkpt lat="36.7447550" lon="-3.7888970">
        <ele>-1.0</ele>
        <time>2022-01-08T16:39:39Z</time>
      </trkpt>
      <trkpt lat="36.7447640" lon="-3.7888880">
        <ele>-1.0</ele>
        <time>2022-01-08T16:39:40Z</time>
      </trkpt>
      <trkpt lat="36.7447720" lon="-3.7888800">
        <ele>-1.0</ele>
        <time>2022-01-08T16:39:41Z</time>
      </trkpt>
      <trkpt lat="36.7447810" lon="-3.7888710">
        <ele>-1.0</ele>
        <time>2022-01-08T16:39:42Z</time>
      </trkpt>
      <trkpt lat="36.7447890" lon="-3.7888620">
        <ele>-1.0</ele>
        <time>2022-01-08T16:39:43Z</time>
      </trkpt>
      <trkpt lat="36.7447970" lon="-3.7888540">
        <ele>-1.0</ele>
        <time>2022-01-08T16:39:44Z</time>
      </trkpt>
      <trkpt lat="36.7448060" lon="-3.7888450">
        <ele>-1.0</ele>
        <time>2022-01-08T16:39:45Z</time>
      </trkpt>
      <trkpt lat="36.7447970" lon="-3.7888480">
        <ele>-1.0</ele>
        <time>2022-01-08T16:39:46Z</time>
      </trkpt>
      <trkpt lat="36.7447880" lon="-3.7888510">
        <ele>-1.0</ele>
        <time>2022-01-08T16:39:47Z</time>
      </trkpt>
      <trkpt lat="36.7447790" lon="-3.7888540">
        <ele>-1.0</ele>
        <time>2022-01-08T16:39:48Z</time>
      </trkpt>
      <trkpt lat="36.7447710" lon="-3.7888570">
        <ele>-1.0</ele>
        <time>2022-01-08T16:39:49Z</time>
      </trkpt>
      <trkpt lat="36.7447620" lon="-3.7888600">
        <ele>-1.0</ele>
        <time>2022-01-08T16:39:50Z</time>
      </trkpt>
      <trkpt lat="36.7447530" lon="-3.7888630">
        <ele>-1.0</ele>
        <time>2022-01-08T16:39:51Z</time>
      </trkpt>
      <trkpt lat="36.7447440" lon="-3.7888650">
        <ele>-1.0</ele>
        <time>2022-01-08T16:39:52Z</time>
      </trkpt>
      <trkpt lat="36.7447350" lon="-3.7888680">
        <ele>-1.0</ele>
        <time>2022-01-08T16:39:53Z</time>
      </trkpt>
      <trkpt lat="36.7447270" lon="-3.7888710">
        <ele>-1.0</ele>
        <time>2022-01-08T16:39:54Z</time>
      </trkpt>
      <trkpt lat="36.7447180" lon="-3.7888740">
        <ele>-1.0</ele>
        <time>2022-01-08T16:39:55Z</time>
      </trkpt>
      <trkpt lat="36.7447020" lon="-3.7888930">
        <ele>-1.0</ele>
        <time>2022-01-08T16:39:56Z</time>
      </trkpt>
      <trkpt lat="36.7447020" lon="-3.7888930">
        <ele>-1.0</ele>
        <time>2022-01-08T16:39:57Z</time>
      </trkpt>
      <trkpt lat="36.7447020" lon="-3.7888930">
        <ele>-1.0</ele>
        <time>2022-01-08T16:39:58Z</time>
      </trkpt>
      <trkpt lat="36.7447020" lon="-3.7888930">
        <ele>-1.0</ele>
        <time>2022-01-08T16:39:59Z</time>
      </trkpt>
      <trkpt lat="36.7447020" lon="-3.7888930">
        <ele>-1.0</ele>
        <time>2022-01-08T16:40:00Z</time>
      </trkpt>
      <trkpt lat="36.7447020" lon="-3.7888930">
        <ele>-1.0</ele>
        <time>2022-01-08T16:40:01Z</time>
      </trkpt>
      <trkpt lat="36.7447020" lon="-3.7888930">
        <ele>-1.0</ele>
        <time>2022-01-08T16:40:02Z</time>
      </trkpt>
      <trkpt lat="36.7447020" lon="-3.7888930">
        <ele>-1.0</ele>
        <time>2022-01-08T16:40:03Z</time>
      </trkpt>
      <trkpt lat="36.7447020" lon="-3.7888930">
        <ele>-1.0</ele>
        <time>2022-01-08T16:40:04Z</time>
      </trkpt>
      <trkpt lat="36.7446880" lon="-3.7889190">
        <ele>-1.0</ele>
        <time>2022-01-08T16:40:05Z</time>
      </trkpt>
      <trkpt lat="36.7446860" lon="-3.7889200">
        <ele>-1.0</ele>
        <time>2022-01-08T16:40:06Z</time>
      </trkpt>
      <trkpt lat="36.7446840" lon="-3.7889210">
        <ele>-1.0</ele>
        <time>2022-01-08T16:40:07Z</time>
      </trkpt>
      <trkpt lat="36.7446820" lon="-3.7889220">
        <ele>-1.0</ele>
        <time>2022-01-08T16:40:08Z</time>
      </trkpt>
      <trkpt lat="36.7446800" lon="-3.7889230">
        <ele>-1.0</ele>
        <time>2022-01-08T16:40:09Z</time>
      </trkpt>
      <trkpt lat="36.7446780" lon="-3.7889240">
        <ele>-1.0</ele>
        <time>2022-01-08T16:40:10Z</time>
      </trkpt>
      <trkpt lat="36.7446760" lon="-3.7889250">
        <ele>-1.0</ele>
        <time>2022-01-08T16:40:11Z</time>
      </trkpt>
      <trkpt lat="36.7446740" lon="-3.7889260">
        <ele>-1.0</ele>
        <time>2022-01-08T16:40:12Z</time>
      </trkpt>
      <trkpt lat="36.7446720" lon="-3.7889260">
        <ele>-1.0</ele>
        <time>2022-01-08T16:40:13Z</time>
      </trkpt>
      <trkpt lat="36.7446700" lon="-3.7889270">
        <ele>-1.0</ele>
        <time>2022-01-08T16:40:14Z</time>
      </trkpt>
      <trkpt lat="36.7446680" lon="-3.7889280">
        <ele>-1.0</ele>
        <time>2022-01-08T16:40:15Z</time>
      </trkpt>
      <trkpt lat="36.7446680" lon="-3.7889280">
        <ele>-1.0</ele>
        <time>2022-01-08T16:40:16Z</time>
      </trkpt>
      <trkpt lat="36.7446680" lon="-3.7889280">
        <ele>-1.0</ele>
        <time>2022-01-08T16:40:17Z</time>
      </trkpt>
      <trkpt lat="36.7446830" lon="-3.7889480">
        <ele>-1.0</ele>
        <time>2022-01-08T16:40:18Z</time>
      </trkpt>
      <trkpt lat="36.7446830" lon="-3.7889480">
        <ele>-1.0</ele>
        <time>2022-01-08T16:40:19Z</time>
      </trkpt>
      <trkpt lat="36.7446830" lon="-3.7889480">
        <ele>-1.0</ele>
        <time>2022-01-08T16:40:20Z</time>
      </trkpt>
      <trkpt lat="36.7446830" lon="-3.7889480">
        <ele>-1.0</ele>
        <time>2022-01-08T16:40:21Z</time>
      </trkpt>
      <trkpt lat="36.7446830" lon="-3.7889480">
        <ele>-1.0</ele>
        <time>2022-01-08T16:40:22Z</time>
      </trkpt>
      <trkpt lat="36.7446830" lon="-3.7889480">
        <ele>-1.0</ele>
        <time>2022-01-08T16:40:23Z</time>
      </trkpt>
      <trkpt lat="36.7446830" lon="-3.7889480">
        <ele>-1.0</ele>
        <time>2022-01-08T16:40:24Z</time>
      </trkpt>
      <trkpt lat="36.7446970" lon="-3.7889230">
        <ele>-1.0</ele>
        <time>2022-01-08T16:40:25Z</time>
      </trkpt>
      <trkpt lat="36.7446970" lon="-3.7889230">
        <ele>-1.0</ele>
        <time>2022-01-08T16:40:26Z</time>
      </trkpt>
      <trkpt lat="36.7446970" lon="-3.7889230">
        <ele>-1.0</ele>
        <time>2022-01-08T16:40:27Z</time>
      </trkpt>
      <trkpt lat="36.7446970" lon="-3.7889230">
        <ele>-1.0</ele>
        <time>2022-01-08T16:40:28Z</time>
      </trkpt>
      <trkpt lat="36.7446970" lon="-3.7889230">
        <ele>-1.0</ele>
        <time>2022-01-08T16:40:29Z</time>
      </trkpt>
      <trkpt lat="36.7446970" lon="-3.7889230">
        <ele>-1.0</ele>
        <time>2022-01-08T16:40:30Z</time>
      </trkpt>
      <trkpt lat="36.7446970" lon="-3.7889230">
        <ele>-1.0</ele>
        <time>2022-01-08T16:40:31Z</time>
      </trkpt>
      <trkpt lat="36.7446970" lon="-3.7889230">
        <ele>-1.0</ele>
        <time>2022-01-08T16:40:32Z</time>
      </trkpt>
      <trkpt lat="36.7446970" lon="-3.7889230">
        <ele>-1.0</ele>
        <time>2022-01-08T16:40:33Z</time>
      </trkpt>
      <trkpt lat="36.7446970" lon="-3.7889230">
        <ele>-1.0</ele>
        <time>2022-01-08T16:40:34Z</time>
      </trkpt>
      <trkpt lat="36.7446970" lon="-3.7889230">
        <ele>-1.0</ele>
        <time>2022-01-08T16:40:35Z</time>
      </trkpt>
      <trkpt lat="36.7446960" lon="-3.7889220">
        <ele>-1.0</ele>
        <time>2022-01-08T16:40:36Z</time>
      </trkpt>
      <trkpt lat="36.7446950" lon="-3.7889200">
        <ele>-1.0</ele>
        <time>2022-01-08T16:40:37Z</time>
      </trkpt>
      <trkpt lat="36.7446940" lon="-3.7889190">
        <ele>-1.0</ele>
        <time>2022-01-08T16:40:38Z</time>
      </trkpt>
      <trkpt lat="36.7446930" lon="-3.7889170">
        <ele>-1.0</ele>
        <time>2022-01-08T16:40:39Z</time>
      </trkpt>
      <trkpt lat="36.7446920" lon="-3.7889160">
        <ele>-1.0</ele>
        <time>2022-01-08T16:40:40Z</time>
      </trkpt>
      <trkpt lat="36.7446910" lon="-3.7889140">
        <ele>-1.0</ele>
        <time>2022-01-08T16:40:41Z</time>
      </trkpt>
      <trkpt lat="36.7446900" lon="-3.7889120">
        <ele>-1.0</ele>
        <time>2022-01-08T16:40:42Z</time>
      </trkpt>
      <trkpt lat="36.7446880" lon="-3.7889110">
        <ele>-1.0</ele>
        <time>2022-01-08T16:40:43Z</time>
      </trkpt>
      <trkpt lat="36.7446870" lon="-3.7889090">
        <ele>-1.0</ele>
        <time>2022-01-08T16:40:44Z</time>
      </trkpt>
      <trkpt lat="36.7446860" lon="-3.7889080">
        <ele>-1.0</ele>
        <time>2022-01-08T16:40:45Z</time>
      </trkpt>
      <trkpt lat="36.7446850" lon="-3.7889060">
        <ele>-1.0</ele>
        <time>2022-01-08T16:40:46Z</time>
      </trkpt>
      <trkpt lat="36.7446840" lon="-3.7889050">
        <ele>-1.0</ele>
        <time>2022-01-08T16:40:47Z</time>
      </trkpt>
      <trkpt lat="36.7446830" lon="-3.7889030">
        <ele>-1.0</ele>
        <time>2022-01-08T16:40:48Z</time>
      </trkpt>
      <trkpt lat="36.7446820" lon="-3.7889020">
        <ele>-1.0</ele>
        <time>2022-01-08T16:40:49Z</time>
      </trkpt>
      <trkpt lat="36.7446810" lon="-3.7889000">
        <ele>-1.0</ele>
        <time>2022-01-08T16:40:50Z</time>
      </trkpt>
      <trkpt lat="36.7446800" lon="-3.7888990">
        <ele>-1.0</ele>
        <time>2022-01-08T16:40:51Z</time>
      </trkpt>
      <trkpt lat="36.7446790" lon="-3.7888970">
        <ele>-1.0</ele>
        <time>2022-01-08T16:40:52Z</time>
      </trkpt>
      <trkpt lat="36.7446770" lon="-3.7888950">
        <ele>-1.0</ele>
        <time>2022-01-08T16:40:53Z</time>
      </trkpt>
      <trkpt lat="36.7446760" lon="-3.7888940">
        <ele>-1.0</ele>
        <time>2022-01-08T16:40:54Z</time>
      </trkpt>
      <trkpt lat="36.7446750" lon="-3.7888920">
        <ele>-1.0</ele>
        <time>2022-01-08T16:40:55Z</time>
      </trkpt>
      <trkpt lat="36.7446730" lon="-3.7888940">
        <ele>-1.0</ele>
        <time>2022-01-08T16:40:56Z</time>
      </trkpt>
      <trkpt lat="36.7446710" lon="-3.7888950">
        <ele>-1.0</ele>
        <time>2022-01-08T16:40:57Z</time>
      </trkpt>
      <trkpt lat="36.7446680" lon="-3.7888960">
        <ele>-1.0</ele>
        <time>2022-01-08T16:40:58Z</time>
      </trkpt>
      <trkpt lat="36.7446660" lon="-3.7888970">
        <ele>-1.0</ele>
        <time>2022-01-08T16:40:59Z</time>
      </trkpt>
      <trkpt lat="36.7446640" lon="-3.7888990">
        <ele>-1.0</ele>
        <time>2022-01-08T16:41:00Z</time>
      </trkpt>
      <trkpt lat="36.7446620" lon="-3.7889000">
        <ele>-1.0</ele>
        <time>2022-01-08T16:41:01Z</time>
      </trkpt>
      <trkpt lat="36.7446590" lon="-3.7889010">
        <ele>-1.0</ele>
        <time>2022-01-08T16:41:02Z</time>
      </trkpt>
      <trkpt lat="36.7446570" lon="-3.7889020">
        <ele>-1.0</ele>
        <time>2022-01-08T16:41:03Z</time>
      </trkpt>
      <trkpt lat="36.7446550" lon="-3.7889030">
        <ele>-1.0</ele>
        <time>2022-01-08T16:41:04Z</time>
      </trkpt>
      <trkpt lat="36.7446520" lon="-3.7889050">
        <ele>-1.0</ele>
        <time>2022-01-08T16:41:05Z</time>
      </trkpt>
      <trkpt lat="36.7446520" lon="-3.7889050">
        <ele>-1.0</ele>
        <time>2022-01-08T16:41:06Z</time>
      </trkpt>
      <trkpt lat="36.7446650" lon="-3.7888880">
        <ele>-1.0</ele>
        <time>2022-01-08T16:41:07Z</time>
      </trkpt>
      <trkpt lat="36.7446650" lon="-3.7888880">
        <ele>-1.0</ele>
        <time>2022-01-08T16:41:08Z</time>
      </trkpt>
      <trkpt lat="36.7446650" lon="-3.7888880">
        <ele>-1.0</ele>
        <time>2022-01-08T16:41:09Z</time>
      </trkpt>
      <trkpt lat="36.7446650" lon="-3.7888880">
        <ele>-1.0</ele>
        <time>2022-01-08T16:41:10Z</time>
      </trkpt>
      <trkpt lat="36.7446650" lon="-3.7888880">
        <ele>-1.0</ele>
        <time>2022-01-08T16:41:11Z</time>
      </trkpt>
      <trkpt lat="36.7446650" lon="-3.7888880">
        <ele>-1.0</ele>
        <time>2022-01-08T16:41:12Z</time>
      </trkpt>
      <trkpt lat="36.7446650" lon="-3.7888880">
        <ele>-1.0</ele>
        <time>2022-01-08T16:41:13Z</time>
      </trkpt>
      <trkpt lat="36.7446650" lon="-3.7888880">
        <ele>-1.0</ele>
        <time>2022-01-08T16:41:14Z</time>
      </trkpt>
      <trkpt lat="36.7446650" lon="-3.7888880">
        <ele>-1.0</ele>
        <time>2022-01-08T16:41:15Z</time>
      </trkpt>
      <trkpt lat="36.7446650" lon="-3.7888880">
        <ele>-1.0</ele>
        <time>2022-01-08T16:41:16Z</time>
      </trkpt>
      <trkpt lat="36.7446650" lon="-3.7888880">
        <ele>-1.0</ele>
        <time>2022-01-08T16:41:17Z</time>
      </trkpt>
      <trkpt lat="36.7446650" lon="-3.7888880">
        <ele>-1.0</ele>
        <time>2022-01-08T16:41:18Z</time>
      </trkpt>
      <trkpt lat="36.7446650" lon="-3.7888880">
        <ele>-1.0</ele>
        <time>2022-01-08T16:41:19Z</time>
      </trkpt>
      <trkpt lat="36.7446650" lon="-3.7888880">
        <ele>-1.0</ele>
        <time>2022-01-08T16:41:20Z</time>
      </trkpt>
      <trkpt lat="36.7446690" lon="-3.7889120">
        <ele>-1.0</ele>
        <time>2022-01-08T16:41:21Z</time>
      </trkpt>
      <trkpt lat="36.7446690" lon="-3.7889120">
        <ele>-1.0</ele>
        <time>2022-01-08T16:41:22Z</time>
      </trkpt>
      <trkpt lat="36.7446690" lon="-3.7889120">
        <ele>-1.0</ele>
        <time>2022-01-08T16:41:23Z</time>
      </trkpt>
      <trkpt lat="36.7446690" lon="-3.7889120">
        <ele>-1.0</ele>
        <time>2022-01-08T16:41:24Z</time>
      </trkpt>
      <trkpt lat="36.7446690" lon="-3.7889120">
        <ele>-1.0</ele>
        <time>2022-01-08T16:41:25Z</time>
      </trkpt>
      <trkpt lat="36.7446690" lon="-3.7889120">
        <ele>-1.0</ele>
        <time>2022-01-08T16:41:26Z</time>
      </trkpt>
      <trkpt lat="36.7446690" lon="-3.7889120">
        <ele>-1.0</ele>
        <time>2022-01-08T16:41:27Z</time>
      </trkpt>
      <trkpt lat="36.7446690" lon="-3.7889120">
        <ele>-1.0</ele>
        <time>2022-01-08T16:41:28Z</time>
      </trkpt>
      <trkpt lat="36.7446690" lon="-3.7889120">
        <ele>-1.0</ele>
        <time>2022-01-08T16:41:29Z</time>
      </trkpt>
      <trkpt lat="36.7446690" lon="-3.7889120">
        <ele>-1.0</ele>
        <time>2022-01-08T16:41:30Z</time>
      </trkpt>
      <trkpt lat="36.7446690" lon="-3.7889120">
        <ele>-1.0</ele>
        <time>2022-01-08T16:41:31Z</time>
      </trkpt>
      <trkpt lat="36.7446690" lon="-3.7889120">
        <ele>-1.0</ele>
        <time>2022-01-08T16:41:32Z</time>
      </trkpt>
      <trkpt lat="36.7446690" lon="-3.7889120">
        <ele>-1.0</ele>
        <time>2022-01-08T16:41:33Z</time>
      </trkpt>
      <trkpt lat="36.7446690" lon="-3.7889120">
        <ele>-1.0</ele>
        <time>2022-01-08T16:41:34Z</time>
      </trkpt>
      <trkpt lat="36.7446450" lon="-3.7889270">
        <ele>-1.0</ele>
        <time>2022-01-08T16:41:35Z</time>
      </trkpt>
      <trkpt lat="36.7446480" lon="-3.7889270">
        <ele>-1.0</ele>
        <time>2022-01-08T16:41:36Z</time>
      </trkpt>
      <trkpt lat="36.7446510" lon="-3.7889280">
        <ele>-1.0</ele>
        <time>2022-01-08T16:41:37Z</time>
      </trkpt>
      <trkpt lat="36.7446530" lon="-3.7889290">
        <ele>-1.0</ele>
        <time>2022-01-08T16:41:38Z</time>
      </trkpt>
      <trkpt lat="36.7446560" lon="-3.7889290">
        <ele>-1.0</ele>
        <time>2022-01-08T16:41:39Z</time>
      </trkpt>
      <trkpt lat="36.7446590" lon="-3.7889300">
        <ele>-1.0</ele>
        <time>2022-01-08T16:41:40Z</time>
      </trkpt>
      <trkpt lat="36.7446620" lon="-3.7889310">
        <ele>-1.0</ele>
        <time>2022-01-08T16:41:41Z</time>
      </trkpt>
      <trkpt lat="36.7446640" lon="-3.7889310">
        <ele>-1.0</ele>
        <time>2022-01-08T16:41:42Z</time>
      </trkpt>
      <trkpt lat="36.7446670" lon="-3.7889320">
        <ele>-1.0</ele>
        <time>2022-01-08T16:41:43Z</time>
      </trkpt>
      <trkpt lat="36.7446700" lon="-3.7889330">
        <ele>-1.0</ele>
        <time>2022-01-08T16:41:44Z</time>
      </trkpt>
      <trkpt lat="36.7446720" lon="-3.7889330">
        <ele>-1.0</ele>
        <time>2022-01-08T16:41:45Z</time>
      </trkpt>
      <trkpt lat="36.7446750" lon="-3.7889340">
        <ele>-1.0</ele>
        <time>2022-01-08T16:41:46Z</time>
      </trkpt>
      <trkpt lat="36.7446780" lon="-3.7889340">
        <ele>-1.0</ele>
        <time>2022-01-08T16:41:47Z</time>
      </trkpt>
      <trkpt lat="36.7446810" lon="-3.7889350">
        <ele>-1.0</ele>
        <time>2022-01-08T16:41:48Z</time>
      </trkpt>
      <trkpt lat="36.7446830" lon="-3.7889360">
        <ele>-1.0</ele>
        <time>2022-01-08T16:41:49Z</time>
      </trkpt>
      <trkpt lat="36.7446860" lon="-3.7889360">
        <ele>-1.0</ele>
        <time>2022-01-08T16:41:50Z</time>
      </trkpt>
      <trkpt lat="36.7446890" lon="-3.7889370">
        <ele>-1.0</ele>
        <time>2022-01-08T16:41:51Z</time>
      </trkpt>
      <trkpt lat="36.7446910" lon="-3.7889380">
        <ele>-1.0</ele>
        <time>2022-01-08T16:41:52Z</time>
      </trkpt>
      <trkpt lat="36.7446940" lon="-3.7889380">
        <ele>-1.0</ele>
        <time>2022-01-08T16:41:53Z</time>
      </trkpt>
      <trkpt lat="36.7446970" lon="-3.7889390">
        <ele>-1.0</ele>
        <time>2022-01-08T16:41:54Z</time>
      </trkpt>
      <trkpt lat="36.7446990" lon="-3.7889400">
        <ele>-1.0</ele>
        <time>2022-01-08T16:41:55Z</time>
      </trkpt>
      <trkpt lat="36.7447010" lon="-3.7889540">
        <ele>-1.0</ele>
        <time>2022-01-08T16:41:56Z</time>
      </trkpt>
      <trkpt lat="36.7447030" lon="-3.7889670">
        <ele>-1.0</ele>
        <time>2022-01-08T16:41:57Z</time>
      </trkpt>
      <trkpt lat="36.7447050" lon="-3.7889810">
        <ele>-1.0</ele>
        <time>2022-01-08T16:41:58Z</time>
      </trkpt>
      <trkpt lat="36.7447070" lon="-3.7889950">
        <ele>-1.0</ele>
        <time>2022-01-08T16:41:59Z</time>
      </trkpt>
      <trkpt lat="36.7447090" lon="-3.7890090">
        <ele>-1.0</ele>
        <time>2022-01-08T16:42:00Z</time>
      </trkpt>
      <trkpt lat="36.7447110" lon="-3.7890230">
        <ele>-1.0</ele>
        <time>2022-01-08T16:42:01Z</time>
      </trkpt>
      <trkpt lat="36.7447130" lon="-3.7890370">
        <ele>-1.0</ele>
        <time>2022-01-08T16:42:02Z</time>
      </trkpt>
      <trkpt lat="36.7447150" lon="-3.7890500">
        <ele>-1.0</ele>
        <time>2022-01-08T16:42:03Z</time>
      </trkpt>
      <trkpt lat="36.7447170" lon="-3.7890640">
        <ele>-1.0</ele>
        <time>2022-01-08T16:42:04Z</time>
      </trkpt>
      <trkpt lat="36.7447190" lon="-3.7890780">
        <ele>-1.0</ele>
        <time>2022-01-08T16:42:05Z</time>
      </trkpt>
      <trkpt lat="36.7447290" lon="-3.7891160">
        <ele>-1.0</ele>
        <time>2022-01-08T16:42:06Z</time>
      </trkpt>
      <trkpt lat="36.7447330" lon="-3.7891310">
        <ele>-1.0</ele>
        <time>2022-01-08T16:42:07Z</time>
      </trkpt>
      <trkpt lat="36.7447370" lon="-3.7891460">
        <ele>-1.0</ele>
        <time>2022-01-08T16:42:08Z</time>
      </trkpt>
      <trkpt lat="36.7447420" lon="-3.7891610">
        <ele>-1.0</ele>
        <time>2022-01-08T16:42:09Z</time>
      </trkpt>
      <trkpt lat="36.7447460" lon="-3.7891760">
        <ele>-1.0</ele>
        <time>2022-01-08T16:42:10Z</time>
      </trkpt>
      <trkpt lat="36.7447500" lon="-3.7891910">
        <ele>-1.0</ele>
        <time>2022-01-08T16:42:11Z</time>
      </trkpt>
      <trkpt lat="36.7447550" lon="-3.7892060">
        <ele>-1.0</ele>
        <time>2022-01-08T16:42:12Z</time>
      </trkpt>
      <trkpt lat="36.7447590" lon="-3.7892220">
        <ele>-1.0</ele>
        <time>2022-01-08T16:42:13Z</time>
      </trkpt>
      <trkpt lat="36.7447630" lon="-3.7892370">
        <ele>-1.0</ele>
        <time>2022-01-08T16:42:14Z</time>
      </trkpt>
      <trkpt lat="36.7447680" lon="-3.7892520">
        <ele>-1.0</ele>
        <time>2022-01-08T16:42:15Z</time>
      </trkpt>
      <trkpt lat="36.7447760" lon="-3.7892590">
        <ele>-1.0</ele>
        <time>2022-01-08T16:42:16Z</time>
      </trkpt>
      <trkpt lat="36.7447760" lon="-3.7892590">
        <ele>-1.0</ele>
        <time>2022-01-08T16:42:17Z</time>
      </trkpt>
      <trkpt lat="36.7447760" lon="-3.7892590">
        <ele>-1.0</ele>
        <time>2022-01-08T16:42:18Z</time>
      </trkpt>
      <trkpt lat="36.7447760" lon="-3.7892590">
        <ele>-1.0</ele>
        <time>2022-01-08T16:42:19Z</time>
      </trkpt>
      <trkpt lat="36.7447760" lon="-3.7892590">
        <ele>-1.0</ele>
        <time>2022-01-08T16:42:20Z</time>
      </trkpt>
      <trkpt lat="36.7447760" lon="-3.7892590">
        <ele>-1.0</ele>
        <time>2022-01-08T16:42:21Z</time>
      </trkpt>
      <trkpt lat="36.7447760" lon="-3.7892590">
        <ele>-1.0</ele>
        <time>2022-01-08T16:42:22Z</time>
      </trkpt>
      <trkpt lat="36.7447760" lon="-3.7892590">
        <ele>-1.0</ele>
        <time>2022-01-08T16:42:23Z</time>
      </trkpt>
      <trkpt lat="36.7447760" lon="-3.7892590">
        <ele>-1.0</ele>
        <time>2022-01-08T16:42:24Z</time>
      </trkpt>
      <trkpt lat="36.7447830" lon="-3.7892350">
        <ele>-1.0</ele>
        <time>2022-01-08T16:42:25Z</time>
      </trkpt>
      <trkpt lat="36.7447830" lon="-3.7892230">
        <ele>-1.0</ele>
        <time>2022-01-08T16:42:26Z</time>
      </trkpt>
      <trkpt lat="36.7447840" lon="-3.7892100">
        <ele>-1.0</ele>
        <time>2022-01-08T16:42:27Z</time>
      </trkpt>
      <trkpt lat="36.7447850" lon="-3.7891970">
        <ele>-1.0</ele>
        <time>2022-01-08T16:42:28Z</time>
      </trkpt>
      <trkpt lat="36.7447860" lon="-3.7891850">
        <ele>-1.0</ele>
        <time>2022-01-08T16:42:29Z</time>
      </trkpt>
      <trkpt lat="36.7447870" lon="-3.7891720">
        <ele>-1.0</ele>
        <time>2022-01-08T16:42:30Z</time>
      </trkpt>
      <trkpt lat="36.7447880" lon="-3.7891590">
        <ele>-1.0</ele>
        <time>2022-01-08T16:42:31Z</time>
      </trkpt>
      <trkpt lat="36.7447890" lon="-3.7891470">
        <ele>-1.0</ele>
        <time>2022-01-08T16:42:32Z</time>
      </trkpt>
      <trkpt lat="36.7447900" lon="-3.7891340">
        <ele>-1.0</ele>
        <time>2022-01-08T16:42:33Z</time>
      </trkpt>
      <trkpt lat="36.7447910" lon="-3.7891220">
        <ele>-1.0</ele>
        <time>2022-01-08T16:42:34Z</time>
      </trkpt>
      <trkpt lat="36.7447910" lon="-3.7891090">
        <ele>-1.0</ele>
        <time>2022-01-08T16:42:35Z</time>
      </trkpt>
      <trkpt lat="36.7447890" lon="-3.7891030">
        <ele>-1.0</ele>
        <time>2022-01-08T16:42:36Z</time>
      </trkpt>
      <trkpt lat="36.7447860" lon="-3.7890960">
        <ele>-1.0</ele>
        <time>2022-01-08T16:42:37Z</time>
      </trkpt>
      <trkpt lat="36.7447840" lon="-3.7890900">
        <ele>-1.0</ele>
        <time>2022-01-08T16:42:38Z</time>
      </trkpt>
      <trkpt lat="36.7447810" lon="-3.7890830">
        <ele>-1.0</ele>
        <time>2022-01-08T16:42:39Z</time>
      </trkpt>
      <trkpt lat="36.7447790" lon="-3.7890770">
        <ele>-1.0</ele>
        <time>2022-01-08T16:42:40Z</time>
      </trkpt>
      <trkpt lat="36.7447760" lon="-3.7890700">
        <ele>-1.0</ele>
        <time>2022-01-08T16:42:41Z</time>
      </trkpt>
      <trkpt lat="36.7447740" lon="-3.7890640">
        <ele>-1.0</ele>
        <time>2022-01-08T16:42:42Z</time>
      </trkpt>
      <trkpt lat="36.7447710" lon="-3.7890570">
        <ele>-1.0</ele>
        <time>2022-01-08T16:42:43Z</time>
      </trkpt>
      <trkpt lat="36.7447690" lon="-3.7890510">
        <ele>-1.0</ele>
        <time>2022-01-08T16:42:44Z</time>
      </trkpt>
      <trkpt lat="36.7447660" lon="-3.7890440">
        <ele>-1.0</ele>
        <time>2022-01-08T16:42:45Z</time>
      </trkpt>
      <trkpt lat="36.7447670" lon="-3.7890440">
        <ele>-1.0</ele>
        <time>2022-01-08T16:42:46Z</time>
      </trkpt>
      <trkpt lat="36.7447670" lon="-3.7890440">
        <ele>-1.0</ele>
        <time>2022-01-08T16:42:47Z</time>
      </trkpt>
      <trkpt lat="36.7447670" lon="-3.7890440">
        <ele>-1.0</ele>
        <time>2022-01-08T16:42:48Z</time>
      </trkpt>
      <trkpt lat="36.7447670" lon="-3.7890440">
        <ele>-1.0</ele>
        <time>2022-01-08T16:42:49Z</time>
      </trkpt>
      <trkpt lat="36.7447670" lon="-3.7890440">
        <ele>-1.0</ele>
        <time>2022-01-08T16:42:50Z</time>
      </trkpt>
      <trkpt lat="36.7447670" lon="-3.7890440">
        <ele>-1.0</ele>
        <time>2022-01-08T16:42:51Z</time>
      </trkpt>
      <trkpt lat="36.7447670" lon="-3.7890440">
        <ele>-1.0</ele>
        <time>2022-01-08T16:42:52Z</time>
      </trkpt>
      <trkpt lat="36.7447670" lon="-3.7890440">
        <ele>-1.0</ele>
        <time>2022-01-08T16:42:53Z</time>
      </trkpt>
      <trkpt lat="36.7447670" lon="-3.7890440">
        <ele>-1.0</ele>
        <time>2022-01-08T16:42:54Z</time>
      </trkpt>
      <trkpt lat="36.7447670" lon="-3.7890430">
        <ele>-1.0</ele>
        <time>2022-01-08T16:42:55Z</time>
      </trkpt>
      <trkpt lat="36.7447670" lon="-3.7890430">
        <ele>-1.0</ele>
        <time>2022-01-08T16:42:56Z</time>
      </trkpt>
      <trkpt lat="36.7447670" lon="-3.7890430">
        <ele>-1.0</ele>
        <time>2022-01-08T16:42:57Z</time>
      </trkpt>
      <trkpt lat="36.7447670" lon="-3.7890430">
        <ele>-1.0</ele>
        <time>2022-01-08T16:42:58Z</time>
      </trkpt>
      <trkpt lat="36.7447670" lon="-3.7890430">
        <ele>-1.0</ele>
        <time>2022-01-08T16:42:59Z</time>
      </trkpt>
      <trkpt lat="36.7447670" lon="-3.7890430">
        <ele>-1.0</ele>
        <time>2022-01-08T16:43:00Z</time>
      </trkpt>
      <trkpt lat="36.7447670" lon="-3.7890430">
        <ele>-1.0</ele>
        <time>2022-01-08T16:43:01Z</time>
      </trkpt>
      <trkpt lat="36.7447670" lon="-3.7890430">
        <ele>-1.0</ele>
        <time>2022-01-08T16:43:02Z</time>
      </trkpt>
      <trkpt lat="36.7447670" lon="-3.7890430">
        <ele>-1.0</ele>
        <time>2022-01-08T16:43:03Z</time>
      </trkpt>
      <trkpt lat="36.7447670" lon="-3.7890430">
        <ele>-1.0</ele>
        <time>2022-01-08T16:43:04Z</time>
      </trkpt>
      <trkpt lat="36.7447670" lon="-3.7890430">
        <ele>-1.0</ele>
        <time>2022-01-08T16:43:05Z</time>
      </trkpt>
      <trkpt lat="36.7447670" lon="-3.7890430">
        <ele>-1.0</ele>
        <time>2022-01-08T16:43:06Z</time>
      </trkpt>
      <trkpt lat="36.7447670" lon="-3.7890430">
        <ele>-1.0</ele>
        <time>2022-01-08T16:43:07Z</time>
      </trkpt>
      <trkpt lat="36.7447670" lon="-3.7890430">
        <ele>-1.0</ele>
        <time>2022-01-08T16:43:08Z</time>
      </trkpt>
      <trkpt lat="36.7447670" lon="-3.7890430">
        <ele>-1.0</ele>
        <time>2022-01-08T16:43:09Z</time>
      </trkpt>
      <trkpt lat="36.7447670" lon="-3.7890430">
        <ele>-1.0</ele>
        <time>2022-01-08T16:43:10Z</time>
      </trkpt>
      <trkpt lat="36.7447670" lon="-3.7890420">
        <ele>-1.0</ele>
        <time>2022-01-08T16:43:11Z</time>
      </trkpt>
      <trkpt lat="36.7447670" lon="-3.7890420">
        <ele>-1.0</ele>
        <time>2022-01-08T16:43:12Z</time>
      </trkpt>
      <trkpt lat="36.7447670" lon="-3.7890420">
        <ele>-1.0</ele>
        <time>2022-01-08T16:43:13Z</time>
      </trkpt>
      <trkpt lat="36.7447670" lon="-3.7890420">
        <ele>-1.0</ele>
        <time>2022-01-08T16:43:14Z</time>
      </trkpt>
      <trkpt lat="36.7447670" lon="-3.7890420">
        <ele>-1.0</ele>
        <time>2022-01-08T16:43:15Z</time>
      </trkpt>
      <trkpt lat="36.7447670" lon="-3.7890420">
        <ele>-1.0</ele>
        <time>2022-01-08T16:43:16Z</time>
      </trkpt>
      <trkpt lat="36.7447670" lon="-3.7890420">
        <ele>-1.0</ele>
        <time>2022-01-08T16:43:17Z</time>
      </trkpt>
      <trkpt lat="36.7447670" lon="-3.7890420">
        <ele>-1.0</ele>
        <time>2022-01-08T16:43:18Z</time>
      </trkpt>
      <trkpt lat="36.7447670" lon="-3.7890420">
        <ele>-1.0</ele>
        <time>2022-01-08T16:43:19Z</time>
      </trkpt>
      <trkpt lat="36.7447670" lon="-3.7890420">
        <ele>-1.0</ele>
        <time>2022-01-08T16:43:20Z</time>
      </trkpt>
      <trkpt lat="36.7447670" lon="-3.7890420">
        <ele>-1.0</ele>
        <time>2022-01-08T16:43:21Z</time>
      </trkpt>
      <trkpt lat="36.7447670" lon="-3.7890420">
        <ele>-1.0</ele>
        <time>2022-01-08T16:43:22Z</time>
      </trkpt>
      <trkpt lat="36.7447670" lon="-3.7890420">
        <ele>-1.0</ele>
        <time>2022-01-08T16:43:23Z</time>
      </trkpt>
      <trkpt lat="36.7447670" lon="-3.7890420">
        <ele>-1.0</ele>
        <time>2022-01-08T16:43:24Z</time>
      </trkpt>
      <trkpt lat="36.7447670" lon="-3.7890420">
        <ele>-1.0</ele>
        <time>2022-01-08T16:43:25Z</time>
      </trkpt>
      <trkpt lat="36.7447620" lon="-3.7890390">
        <ele>-1.0</ele>
        <time>2022-01-08T16:43:26Z</time>
      </trkpt>
      <trkpt lat="36.7447570" lon="-3.7890360">
        <ele>-1.0</ele>
        <time>2022-01-08T16:43:27Z</time>
      </trkpt>
      <trkpt lat="36.7447520" lon="-3.7890330">
        <ele>-1.0</ele>
        <time>2022-01-08T16:43:28Z</time>
      </trkpt>
      <trkpt lat="36.7447470" lon="-3.7890310">
        <ele>-1.0</ele>
        <time>2022-01-08T16:43:29Z</time>
      </trkpt>
      <trkpt lat="36.7447430" lon="-3.7890280">
        <ele>-1.0</ele>
        <time>2022-01-08T16:43:30Z</time>
      </trkpt>
      <trkpt lat="36.7447380" lon="-3.7890250">
        <ele>-1.0</ele>
        <time>2022-01-08T16:43:31Z</time>
      </trkpt>
      <trkpt lat="36.7447330" lon="-3.7890230">
        <ele>-1.0</ele>
        <time>2022-01-08T16:43:32Z</time>
      </trkpt>
      <trkpt lat="36.7447280" lon="-3.7890200">
        <ele>-1.0</ele>
        <time>2022-01-08T16:43:33Z</time>
      </trkpt>
      <trkpt lat="36.7447240" lon="-3.7890170">
        <ele>-1.0</ele>
        <time>2022-01-08T16:43:34Z</time>
      </trkpt>
      <trkpt lat="36.7447190" lon="-3.7890150">
        <ele>-1.0</ele>
        <time>2022-01-08T16:43:35Z</time>
      </trkpt>
      <trkpt lat="36.7447380" lon="-3.7890410">
        <ele>-1.0</ele>
        <time>2022-01-08T16:43:36Z</time>
      </trkpt>
      <trkpt lat="36.7447400" lon="-3.7890430">
        <ele>-1.0</ele>
        <time>2022-01-08T16:43:37Z</time>
      </trkpt>
      <trkpt lat="36.7447420" lon="-3.7890440">
        <ele>-1.0</ele>
        <time>2022-01-08T16:43:38Z</time>
      </trkpt>
      <trkpt lat="36.7447430" lon="-3.7890460">
        <ele>-1.0</ele>
        <time>2022-01-08T16:43:39Z</time>
      </trkpt>
      <trkpt lat="36.7447450" lon="-3.7890480">
        <ele>-1.0</ele>
        <time>2022-01-08T16:43:40Z</time>
      </trkpt>
      <trkpt lat="36.7447460" lon="-3.7890490">
        <ele>-1.0</ele>
        <time>2022-01-08T16:43:41Z</time>
      </trkpt>
      <trkpt lat="36.7447480" lon="-3.7890510">
        <ele>-1.0</ele>
        <time>2022-01-08T16:43:42Z</time>
      </trkpt>
      <trkpt lat="36.7447490" lon="-3.7890520">
        <ele>-1.0</ele>
        <time>2022-01-08T16:43:43Z</time>
      </trkpt>
      <trkpt lat="36.7447510" lon="-3.7890540">
        <ele>-1.0</ele>
        <time>2022-01-08T16:43:44Z</time>
      </trkpt>
      <trkpt lat="36.7447530" lon="-3.7890560">
        <ele>-1.0</ele>
        <time>2022-01-08T16:43:45Z</time>
      </trkpt>
      <trkpt lat="36.7447530" lon="-3.7890560">
        <ele>-1.0</ele>
        <time>2022-01-08T16:43:46Z</time>
      </trkpt>
      <trkpt lat="36.7447530" lon="-3.7890560">
        <ele>-1.0</ele>
        <time>2022-01-08T16:43:47Z</time>
      </trkpt>
      <trkpt lat="36.7447530" lon="-3.7890560">
        <ele>-1.0</ele>
        <time>2022-01-08T16:43:48Z</time>
      </trkpt>
      <trkpt lat="36.7447530" lon="-3.7890560">
        <ele>-1.0</ele>
        <time>2022-01-08T16:43:49Z</time>
      </trkpt>
      <trkpt lat="36.7447530" lon="-3.7890560">
        <ele>-1.0</ele>
        <time>2022-01-08T16:43:50Z</time>
      </trkpt>
      <trkpt lat="36.7447530" lon="-3.7890560">
        <ele>-1.0</ele>
        <time>2022-01-08T16:43:51Z</time>
      </trkpt>
      <trkpt lat="36.7447530" lon="-3.7890560">
        <ele>-1.0</ele>
        <time>2022-01-08T16:43:52Z</time>
      </trkpt>
      <trkpt lat="36.7447530" lon="-3.7890560">
        <ele>-1.0</ele>
        <time>2022-01-08T16:43:53Z</time>
      </trkpt>
      <trkpt lat="36.7447530" lon="-3.7890560">
        <ele>-1.0</ele>
        <time>2022-01-08T16:43:54Z</time>
      </trkpt>
      <trkpt lat="36.7447530" lon="-3.7890560">
        <ele>-1.0</ele>
        <time>2022-01-08T16:43:55Z</time>
      </trkpt>
      <trkpt lat="36.7447530" lon="-3.7890560">
        <ele>-1.0</ele>
        <time>2022-01-08T16:43:56Z</time>
      </trkpt>
      <trkpt lat="36.7447530" lon="-3.7890560">
        <ele>-1.0</ele>
        <time>2022-01-08T16:43:57Z</time>
      </trkpt>
      <trkpt lat="36.7447530" lon="-3.7890560">
        <ele>-1.0</ele>
        <time>2022-01-08T16:43:58Z</time>
      </trkpt>
      <trkpt lat="36.7447530" lon="-3.7890560">
        <ele>-1.0</ele>
        <time>2022-01-08T16:43:59Z</time>
      </trkpt>
      <trkpt lat="36.7447530" lon="-3.7890560">
        <ele>-1.0</ele>
        <time>2022-01-08T16:44:00Z</time>
      </trkpt>
      <trkpt lat="36.7447530" lon="-3.7890560">
        <ele>-1.0</ele>
        <time>2022-01-08T16:44:01Z</time>
      </trkpt>
      <trkpt lat="36.7447530" lon="-3.7890560">
        <ele>-1.0</ele>
        <time>2022-01-08T16:44:02Z</time>
      </trkpt>
      <trkpt lat="36.7447530" lon="-3.7890560">
        <ele>-1.0</ele>
        <time>2022-01-08T16:44:03Z</time>
      </trkpt>
      <trkpt lat="36.7447530" lon="-3.7890560">
        <ele>-1.0</ele>
        <time>2022-01-08T16:44:04Z</time>
      </trkpt>
      <trkpt lat="36.7447530" lon="-3.7890560">
        <ele>-1.0</ele>
        <time>2022-01-08T16:44:05Z</time>
      </trkpt>
      <trkpt lat="36.7447530" lon="-3.7890560">
        <ele>-1.0</ele>
        <time>2022-01-08T16:44:06Z</time>
      </trkpt>
      <trkpt lat="36.7447530" lon="-3.7890560">
        <ele>-1.0</ele>
        <time>2022-01-08T16:44:07Z</time>
      </trkpt>
      <trkpt lat="36.7447530" lon="-3.7890560">
        <ele>-1.0</ele>
        <time>2022-01-08T16:44:08Z</time>
      </trkpt>
      <trkpt lat="36.7447530" lon="-3.7890560">
        <ele>-1.0</ele>
        <time>2022-01-08T16:44:09Z</time>
      </trkpt>
      <trkpt lat="36.7447530" lon="-3.7890560">
        <ele>-1.0</ele>
        <time>2022-01-08T16:44:10Z</time>
      </trkpt>
      <trkpt lat="36.7447530" lon="-3.7890560">
        <ele>-1.0</ele>
        <time>2022-01-08T16:44:11Z</time>
      </trkpt>
      <trkpt lat="36.7447530" lon="-3.7890560">
        <ele>-1.0</ele>
        <time>2022-01-08T16:44:12Z</time>
      </trkpt>
      <trkpt lat="36.7447530" lon="-3.7890560">
        <ele>-1.0</ele>
        <time>2022-01-08T16:44:13Z</time>
      </trkpt>
      <trkpt lat="36.7447530" lon="-3.7890560">
        <ele>-1.0</ele>
        <time>2022-01-08T16:44:14Z</time>
      </trkpt>
      <trkpt lat="36.7447530" lon="-3.7890560">
        <ele>-1.0</ele>
        <time>2022-01-08T16:44:15Z</time>
      </trkpt>
      <trkpt lat="36.7447530" lon="-3.7890560">
        <ele>-1.0</ele>
        <time>2022-01-08T16:44:16Z</time>
      </trkpt>
      <trkpt lat="36.7447530" lon="-3.7890560">
        <ele>-1.0</ele>
        <time>2022-01-08T16:44:17Z</time>
      </trkpt>
      <trkpt lat="36.7447530" lon="-3.7890560">
        <ele>-1.0</ele>
        <time>2022-01-08T16:44:18Z</time>
      </trkpt>
      <trkpt lat="36.7447530" lon="-3.7890560">
        <ele>-1.0</ele>
        <time>2022-01-08T16:44:19Z</time>
      </trkpt>
      <trkpt lat="36.7447530" lon="-3.7890560">
        <ele>-1.0</ele>
        <time>2022-01-08T16:44:20Z</time>
      </trkpt>
      <trkpt lat="36.7447530" lon="-3.7890560">
        <ele>-1.0</ele>
        <time>2022-01-08T16:44:21Z</time>
      </trkpt>
      <trkpt lat="36.7447530" lon="-3.7890560">
        <ele>-1.0</ele>
        <time>2022-01-08T16:44:22Z</time>
      </trkpt>
      <trkpt lat="36.7447530" lon="-3.7890560">
        <ele>-1.0</ele>
        <time>2022-01-08T16:44:23Z</time>
      </trkpt>
      <trkpt lat="36.7447530" lon="-3.7890560">
        <ele>-1.0</ele>
        <time>2022-01-08T16:44:24Z</time>
      </trkpt>
      <trkpt lat="36.7447530" lon="-3.7890560">
        <ele>-1.0</ele>
        <time>2022-01-08T16:44:25Z</time>
      </trkpt>
      <trkpt lat="36.7447530" lon="-3.7890560">
        <ele>-1.0</ele>
        <time>2022-01-08T16:44:26Z</time>
      </trkpt>
      <trkpt lat="36.7447530" lon="-3.7890560">
        <ele>-1.0</ele>
        <time>2022-01-08T16:44:27Z</time>
      </trkpt>
      <trkpt lat="36.7447530" lon="-3.7890560">
        <ele>-1.0</ele>
        <time>2022-01-08T16:44:28Z</time>
      </trkpt>
      <trkpt lat="36.7447530" lon="-3.7890560">
        <ele>-1.0</ele>
        <time>2022-01-08T16:44:29Z</time>
      </trkpt>
      <trkpt lat="36.7447530" lon="-3.7890560">
        <ele>-1.0</ele>
        <time>2022-01-08T16:44:30Z</time>
      </trkpt>
      <trkpt lat="36.7447530" lon="-3.7890560">
        <ele>-1.0</ele>
        <time>2022-01-08T16:44:31Z</time>
      </trkpt>
      <trkpt lat="36.7447530" lon="-3.7890560">
        <ele>-1.0</ele>
        <time>2022-01-08T16:44:32Z</time>
      </trkpt>
      <trkpt lat="36.7447740" lon="-3.7890520">
        <ele>-1.0</ele>
        <time>2022-01-08T16:44:33Z</time>
      </trkpt>
      <trkpt lat="36.7447740" lon="-3.7890520">
        <ele>-1.0</ele>
        <time>2022-01-08T16:44:34Z</time>
      </trkpt>
      <trkpt lat="36.7447740" lon="-3.7890520">
        <ele>-1.0</ele>
        <time>2022-01-08T16:44:35Z</time>
      </trkpt>
      <trkpt lat="36.7447740" lon="-3.7890540">
        <ele>-1.0</ele>
        <time>2022-01-08T16:44:36Z</time>
      </trkpt>
      <trkpt lat="36.7447750" lon="-3.7890550">
        <ele>-1.0</ele>
        <time>2022-01-08T16:44:37Z</time>
      </trkpt>
      <trkpt lat="36.7447750" lon="-3.7890570">
        <ele>-1.0</ele>
        <time>2022-01-08T16:44:38Z</time>
      </trkpt>
      <trkpt lat="36.7447750" lon="-3.7890580">
        <ele>-1.0</ele>
        <time>2022-01-08T16:44:39Z</time>
      </trkpt>
      <trkpt lat="36.7447760" lon="-3.7890600">
        <ele>-1.0</ele>
        <time>2022-01-08T16:44:40Z</time>
      </trkpt>
      <trkpt lat="36.7447760" lon="-3.7890610">
        <ele>-1.0</ele>
        <time>2022-01-08T16:44:41Z</time>
      </trkpt>
      <trkpt lat="36.7447770" lon="-3.7890630">
        <ele>-1.0</ele>
        <time>2022-01-08T16:44:42Z</time>
      </trkpt>
      <trkpt lat="36.7447770" lon="-3.7890640">
        <ele>-1.0</ele>
        <time>2022-01-08T16:44:43Z</time>
      </trkpt>
      <trkpt lat="36.7447770" lon="-3.7890660">
        <ele>-1.0</ele>
        <time>2022-01-08T16:44:44Z</time>
      </trkpt>
      <trkpt lat="36.7447780" lon="-3.7890670">
        <ele>-1.0</ele>
        <time>2022-01-08T16:44:45Z</time>
      </trkpt>
      <trkpt lat="36.7447780" lon="-3.7890670">
        <ele>-1.0</ele>
        <time>2022-01-08T16:44:46Z</time>
      </trkpt>
      <trkpt lat="36.7447780" lon="-3.7890670">
        <ele>-1.0</ele>
        <time>2022-01-08T16:44:47Z</time>
      </trkpt>
      <trkpt lat="36.7447780" lon="-3.7890670">
        <ele>-1.0</ele>
        <time>2022-01-08T16:44:48Z</time>
      </trkpt>
      <trkpt lat="36.7447780" lon="-3.7890670">
        <ele>-1.0</ele>
        <time>2022-01-08T16:44:49Z</time>
      </trkpt>
      <trkpt lat="36.7447780" lon="-3.7890670">
        <ele>-1.0</ele>
        <time>2022-01-08T16:44:50Z</time>
      </trkpt>
      <trkpt lat="36.7447780" lon="-3.7890670">
        <ele>-1.0</ele>
        <time>2022-01-08T16:44:51Z</time>
      </trkpt>
      <trkpt lat="36.7447780" lon="-3.7890670">
        <ele>-1.0</ele>
        <time>2022-01-08T16:44:52Z</time>
      </trkpt>
      <trkpt lat="36.7447780" lon="-3.7890670">
        <ele>-1.0</ele>
        <time>2022-01-08T16:44:53Z</time>
      </trkpt>
      <trkpt lat="36.7447780" lon="-3.7890670">
        <ele>-1.0</ele>
        <time>2022-01-08T16:44:54Z</time>
      </trkpt>
      <trkpt lat="36.7447780" lon="-3.7890670">
        <ele>-1.0</ele>
        <time>2022-01-08T16:44:55Z</time>
      </trkpt>
      <trkpt lat="36.7447780" lon="-3.7890670">
        <ele>-1.0</ele>
        <time>2022-01-08T16:44:56Z</time>
      </trkpt>
      <trkpt lat="36.7447780" lon="-3.7890670">
        <ele>-1.0</ele>
        <time>2022-01-08T16:44:57Z</time>
      </trkpt>
      <trkpt lat="36.7447780" lon="-3.7890670">
        <ele>-1.0</ele>
        <time>2022-01-08T16:44:58Z</time>
      </trkpt>
      <trkpt lat="36.7447780" lon="-3.7890670">
        <ele>-1.0</ele>
        <time>2022-01-08T16:44:59Z</time>
      </trkpt>
      <trkpt lat="36.7447780" lon="-3.7890670">
        <ele>-1.0</ele>
        <time>2022-01-08T16:45:00Z</time>
      </trkpt>
      <trkpt lat="36.7447780" lon="-3.7890670">
        <ele>-1.0</ele>
        <time>2022-01-08T16:45:01Z</time>
      </trkpt>
      <trkpt lat="36.7447780" lon="-3.7890670">
        <ele>-1.0</ele>
        <time>2022-01-08T16:45:02Z</time>
      </trkpt>
      <trkpt lat="36.7447780" lon="-3.7890670">
        <ele>-1.0</ele>
        <time>2022-01-08T16:45:03Z</time>
      </trkpt>
      <trkpt lat="36.7447780" lon="-3.7890670">
        <ele>-1.0</ele>
        <time>2022-01-08T16:45:04Z</time>
      </trkpt>
      <trkpt lat="36.7447780" lon="-3.7890670">
        <ele>-1.0</ele>
        <time>2022-01-08T16:45:05Z</time>
      </trkpt>
      <trkpt lat="36.7447780" lon="-3.7890670">
        <ele>-1.0</ele>
        <time>2022-01-08T16:45:06Z</time>
      </trkpt>
      <trkpt lat="36.7447780" lon="-3.7890670">
        <ele>-1.0</ele>
        <time>2022-01-08T16:45:07Z</time>
      </trkpt>
      <trkpt lat="36.7447780" lon="-3.7890670">
        <ele>-1.0</ele>
        <time>2022-01-08T16:45:08Z</time>
      </trkpt>
      <trkpt lat="36.7447780" lon="-3.7890670">
        <ele>-1.0</ele>
        <time>2022-01-08T16:45:09Z</time>
      </trkpt>
      <trkpt lat="36.7447780" lon="-3.7890670">
        <ele>-1.0</ele>
        <time>2022-01-08T16:45:10Z</time>
      </trkpt>
      <trkpt lat="36.7447780" lon="-3.7890670">
        <ele>-1.0</ele>
        <time>2022-01-08T16:45:11Z</time>
      </trkpt>
      <trkpt lat="36.7447780" lon="-3.7890670">
        <ele>-1.0</ele>
        <time>2022-01-08T16:45:12Z</time>
      </trkpt>
      <trkpt lat="36.7447780" lon="-3.7890670">
        <ele>-1.0</ele>
        <time>2022-01-08T16:45:13Z</time>
      </trkpt>
      <trkpt lat="36.7447780" lon="-3.7890670">
        <ele>-1.0</ele>
        <time>2022-01-08T16:45:14Z</time>
      </trkpt>
      <trkpt lat="36.7447780" lon="-3.7890670">
        <ele>-1.0</ele>
        <time>2022-01-08T16:45:15Z</time>
      </trkpt>
      <trkpt lat="36.7447780" lon="-3.7890670">
        <ele>-1.0</ele>
        <time>2022-01-08T16:45:16Z</time>
      </trkpt>
      <trkpt lat="36.7447780" lon="-3.7890670">
        <ele>-1.0</ele>
        <time>2022-01-08T16:45:17Z</time>
      </trkpt>
      <trkpt lat="36.7447780" lon="-3.7890670">
        <ele>-1.0</ele>
        <time>2022-01-08T16:45:18Z</time>
      </trkpt>
      <trkpt lat="36.7447780" lon="-3.7890670">
        <ele>-1.0</ele>
        <time>2022-01-08T16:45:19Z</time>
      </trkpt>
      <trkpt lat="36.7447780" lon="-3.7890670">
        <ele>-1.0</ele>
        <time>2022-01-08T16:45:20Z</time>
      </trkpt>
      <trkpt lat="36.7447780" lon="-3.7890670">
        <ele>-1.0</ele>
        <time>2022-01-08T16:45:21Z</time>
      </trkpt>
      <trkpt lat="36.7447780" lon="-3.7890670">
        <ele>-1.0</ele>
        <time>2022-01-08T16:45:22Z</time>
      </trkpt>
      <trkpt lat="36.7447780" lon="-3.7890670">
        <ele>-1.0</ele>
        <time>2022-01-08T16:45:23Z</time>
      </trkpt>
      <trkpt lat="36.7447780" lon="-3.7890670">
        <ele>-1.0</ele>
        <time>2022-01-08T16:45:24Z</time>
      </trkpt>
      <trkpt lat="36.7447780" lon="-3.7890670">
        <ele>-1.0</ele>
        <time>2022-01-08T16:45:25Z</time>
      </trkpt>
      <trkpt lat="36.7447780" lon="-3.7890670">
        <ele>-1.0</ele>
        <time>2022-01-08T16:45:26Z</time>
      </trkpt>
      <trkpt lat="36.7447780" lon="-3.7890670">
        <ele>-1.0</ele>
        <time>2022-01-08T16:45:27Z</time>
      </trkpt>
      <trkpt lat="36.7447780" lon="-3.7890670">
        <ele>-1.0</ele>
        <time>2022-01-08T16:45:28Z</time>
      </trkpt>
      <trkpt lat="36.7447780" lon="-3.7890670">
        <ele>-1.0</ele>
        <time>2022-01-08T16:45:29Z</time>
      </trkpt>
      <trkpt lat="36.7447780" lon="-3.7890670">
        <ele>-1.0</ele>
        <time>2022-01-08T16:45:30Z</time>
      </trkpt>
      <trkpt lat="36.7447780" lon="-3.7890670">
        <ele>-1.0</ele>
        <time>2022-01-08T16:45:31Z</time>
      </trkpt>
      <trkpt lat="36.7447780" lon="-3.7890670">
        <ele>-1.0</ele>
        <time>2022-01-08T16:45:32Z</time>
      </trkpt>
      <trkpt lat="36.7447780" lon="-3.7890670">
        <ele>-1.0</ele>
        <time>2022-01-08T16:45:33Z</time>
      </trkpt>
      <trkpt lat="36.7447780" lon="-3.7890670">
        <ele>-1.0</ele>
        <time>2022-01-08T16:45:34Z</time>
      </trkpt>
      <trkpt lat="36.7447780" lon="-3.7890670">
        <ele>-1.0</ele>
        <time>2022-01-08T16:45:35Z</time>
      </trkpt>
      <trkpt lat="36.7447780" lon="-3.7890670">
        <ele>-1.0</ele>
        <time>2022-01-08T16:45:36Z</time>
      </trkpt>
      <trkpt lat="36.7447970" lon="-3.7890720">
        <ele>-1.0</ele>
        <time>2022-01-08T16:45:37Z</time>
      </trkpt>
      <trkpt lat="36.7447970" lon="-3.7890720">
        <ele>-1.0</ele>
        <time>2022-01-08T16:45:38Z</time>
      </trkpt>
      <trkpt lat="36.7447970" lon="-3.7890720">
        <ele>-1.0</ele>
        <time>2022-01-08T16:45:39Z</time>
      </trkpt>
      <trkpt lat="36.7447970" lon="-3.7890720">
        <ele>-1.0</ele>
        <time>2022-01-08T16:45:40Z</time>
      </trkpt>
      <trkpt lat="36.7447970" lon="-3.7890720">
        <ele>-1.0</ele>
        <time>2022-01-08T16:45:41Z</time>
      </trkpt>
      <trkpt lat="36.7447970" lon="-3.7890720">
        <ele>-1.0</ele>
        <time>2022-01-08T16:45:42Z</time>
      </trkpt>
      <trkpt lat="36.7447970" lon="-3.7890720">
        <ele>-1.0</ele>
        <time>2022-01-08T16:45:43Z</time>
      </trkpt>
      <trkpt lat="36.7447970" lon="-3.7890720">
        <ele>-1.0</ele>
        <time>2022-01-08T16:45:44Z</time>
      </trkpt>
      <trkpt lat="36.7447970" lon="-3.7890720">
        <ele>-1.0</ele>
        <time>2022-01-08T16:45:45Z</time>
      </trkpt>
      <trkpt lat="36.7447970" lon="-3.7890720">
        <ele>-1.0</ele>
        <time>2022-01-08T16:45:46Z</time>
      </trkpt>
      <trkpt lat="36.7447970" lon="-3.7890720">
        <ele>-1.0</ele>
        <time>2022-01-08T16:45:47Z</time>
      </trkpt>
      <trkpt lat="36.7447970" lon="-3.7890720">
        <ele>-1.0</ele>
        <time>2022-01-08T16:45:48Z</time>
      </trkpt>
      <trkpt lat="36.7447970" lon="-3.7890720">
        <ele>-1.0</ele>
        <time>2022-01-08T16:45:49Z</time>
      </trkpt>
      <trkpt lat="36.7447970" lon="-3.7890720">
        <ele>-1.0</ele>
        <time>2022-01-08T16:45:50Z</time>
      </trkpt>
      <trkpt lat="36.7447970" lon="-3.7890720">
        <ele>-1.0</ele>
        <time>2022-01-08T16:45:51Z</time>
      </trkpt>
      <trkpt lat="36.7447970" lon="-3.7890720">
        <ele>-1.0</ele>
        <time>2022-01-08T16:45:52Z</time>
      </trkpt>
      <trkpt lat="36.7447970" lon="-3.7890720">
        <ele>-1.0</ele>
        <time>2022-01-08T16:45:53Z</time>
      </trkpt>
      <trkpt lat="36.7447970" lon="-3.7890720">
        <ele>-1.0</ele>
        <time>2022-01-08T16:45:54Z</time>
      </trkpt>
      <trkpt lat="36.7447970" lon="-3.7890720">
        <ele>-1.0</ele>
        <time>2022-01-08T16:45:55Z</time>
      </trkpt>
      <trkpt lat="36.7447970" lon="-3.7890720">
        <ele>-1.0</ele>
        <time>2022-01-08T16:45:56Z</time>
      </trkpt>
      <trkpt lat="36.7447970" lon="-3.7890720">
        <ele>-1.0</ele>
        <time>2022-01-08T16:45:57Z</time>
      </trkpt>
      <trkpt lat="36.7447970" lon="-3.7890720">
        <ele>-1.0</ele>
        <time>2022-01-08T16:45:58Z</time>
      </trkpt>
      <trkpt lat="36.7447770" lon="-3.7890720">
        <ele>-1.0</ele>
        <time>2022-01-08T16:45:59Z</time>
      </trkpt>
      <trkpt lat="36.7447770" lon="-3.7890720">
        <ele>-1.0</ele>
        <time>2022-01-08T16:46:00Z</time>
      </trkpt>
      <trkpt lat="36.7447770" lon="-3.7890720">
        <ele>-1.0</ele>
        <time>2022-01-08T16:46:01Z</time>
      </trkpt>
      <trkpt lat="36.7447770" lon="-3.7890720">
        <ele>-1.0</ele>
        <time>2022-01-08T16:46:02Z</time>
      </trkpt>
      <trkpt lat="36.7447770" lon="-3.7890720">
        <ele>-1.0</ele>
        <time>2022-01-08T16:46:03Z</time>
      </trkpt>
      <trkpt lat="36.7447770" lon="-3.7890720">
        <ele>-1.0</ele>
        <time>2022-01-08T16:46:04Z</time>
      </trkpt>
      <trkpt lat="36.7447770" lon="-3.7890720">
        <ele>-1.0</ele>
        <time>2022-01-08T16:46:05Z</time>
      </trkpt>
      <trkpt lat="36.7447770" lon="-3.7890720">
        <ele>-1.0</ele>
        <time>2022-01-08T16:46:06Z</time>
      </trkpt>
      <trkpt lat="36.7447770" lon="-3.7890720">
        <ele>-1.0</ele>
        <time>2022-01-08T16:46:07Z</time>
      </trkpt>
      <trkpt lat="36.7447770" lon="-3.7890720">
        <ele>-1.0</ele>
        <time>2022-01-08T16:46:08Z</time>
      </trkpt>
      <trkpt lat="36.7447770" lon="-3.7890720">
        <ele>-1.0</ele>
        <time>2022-01-08T16:46:09Z</time>
      </trkpt>
      <trkpt lat="36.7447770" lon="-3.7890720">
        <ele>-1.0</ele>
        <time>2022-01-08T16:46:10Z</time>
      </trkpt>
      <trkpt lat="36.7447770" lon="-3.7890720">
        <ele>-1.0</ele>
        <time>2022-01-08T16:46:11Z</time>
      </trkpt>
      <trkpt lat="36.7447770" lon="-3.7890720">
        <ele>-1.0</ele>
        <time>2022-01-08T16:46:12Z</time>
      </trkpt>
      <trkpt lat="36.7447770" lon="-3.7890720">
        <ele>-1.0</ele>
        <time>2022-01-08T16:46:13Z</time>
      </trkpt>
      <trkpt lat="36.7447770" lon="-3.7890720">
        <ele>-1.0</ele>
        <time>2022-01-08T16:46:14Z</time>
      </trkpt>
      <trkpt lat="36.7447770" lon="-3.7890720">
        <ele>-1.0</ele>
        <time>2022-01-08T16:46:15Z</time>
      </trkpt>
      <trkpt lat="36.7447770" lon="-3.7890720">
        <ele>-1.0</ele>
        <time>2022-01-08T16:46:16Z</time>
      </trkpt>
      <trkpt lat="36.7447770" lon="-3.7890720">
        <ele>-1.0</ele>
        <time>2022-01-08T16:46:17Z</time>
      </trkpt>
      <trkpt lat="36.7447770" lon="-3.7890720">
        <ele>-1.0</ele>
        <time>2022-01-08T16:46:18Z</time>
      </trkpt>
      <trkpt lat="36.7447770" lon="-3.7890720">
        <ele>-1.0</ele>
        <time>2022-01-08T16:46:19Z</time>
      </trkpt>
      <trkpt lat="36.7447770" lon="-3.7890720">
        <ele>-1.0</ele>
        <time>2022-01-08T16:46:20Z</time>
      </trkpt>
      <trkpt lat="36.7447770" lon="-3.7890720">
        <ele>-1.0</ele>
        <time>2022-01-08T16:46:21Z</time>
      </trkpt>
      <trkpt lat="36.7447770" lon="-3.7890720">
        <ele>-1.0</ele>
        <time>2022-01-08T16:46:22Z</time>
      </trkpt>
      <trkpt lat="36.7447770" lon="-3.7890720">
        <ele>-1.0</ele>
        <time>2022-01-08T16:46:23Z</time>
      </trkpt>
      <trkpt lat="36.7447770" lon="-3.7890720">
        <ele>-1.0</ele>
        <time>2022-01-08T16:46:24Z</time>
      </trkpt>
      <trkpt lat="36.7447770" lon="-3.7890720">
        <ele>-1.0</ele>
        <time>2022-01-08T16:46:25Z</time>
      </trkpt>
      <trkpt lat="36.7447770" lon="-3.7890720">
        <ele>-1.0</ele>
        <time>2022-01-08T16:46:26Z</time>
      </trkpt>
      <trkpt lat="36.7447770" lon="-3.7890720">
        <ele>-1.0</ele>
        <time>2022-01-08T16:46:27Z</time>
      </trkpt>
      <trkpt lat="36.7447770" lon="-3.7890720">
        <ele>-1.0</ele>
        <time>2022-01-08T16:46:28Z</time>
      </trkpt>
      <trkpt lat="36.7447770" lon="-3.7890720">
        <ele>-1.0</ele>
        <time>2022-01-08T16:46:29Z</time>
      </trkpt>
      <trkpt lat="36.7447630" lon="-3.7890930">
        <ele>-1.0</ele>
        <time>2022-01-08T16:46:30Z</time>
      </trkpt>
      <trkpt lat="36.7447630" lon="-3.7890930">
        <ele>-1.0</ele>
        <time>2022-01-08T16:46:31Z</time>
      </trkpt>
      <trkpt lat="36.7447630" lon="-3.7890930">
        <ele>-1.0</ele>
        <time>2022-01-08T16:46:32Z</time>
      </trkpt>
      <trkpt lat="36.7447630" lon="-3.7890930">
        <ele>-1.0</ele>
        <time>2022-01-08T16:46:33Z</time>
      </trkpt>
      <trkpt lat="36.7447630" lon="-3.7890930">
        <ele>-1.0</ele>
        <time>2022-01-08T16:46:34Z</time>
      </trkpt>
      <trkpt lat="36.7447630" lon="-3.7890930">
        <ele>-1.0</ele>
        <time>2022-01-08T16:46:35Z</time>
      </trkpt>
      <trkpt lat="36.7447770" lon="-3.7890760">
        <ele>-1.0</ele>
        <time>2022-01-08T16:46:36Z</time>
      </trkpt>
      <trkpt lat="36.7447750" lon="-3.7890770">
        <ele>-1.0</ele>
        <time>2022-01-08T16:46:37Z</time>
      </trkpt>
      <trkpt lat="36.7447730" lon="-3.7890780">
        <ele>-1.0</ele>
        <time>2022-01-08T16:46:38Z</time>
      </trkpt>
      <trkpt lat="36.7447700" lon="-3.7890790">
        <ele>-1.0</ele>
        <time>2022-01-08T16:46:39Z</time>
      </trkpt>
      <trkpt lat="36.7447680" lon="-3.7890810">
        <ele>-1.0</ele>
        <time>2022-01-08T16:46:40Z</time>
      </trkpt>
      <trkpt lat="36.7447650" lon="-3.7890820">
        <ele>-1.0</ele>
        <time>2022-01-08T16:46:41Z</time>
      </trkpt>
      <trkpt lat="36.7447630" lon="-3.7890830">
        <ele>-1.0</ele>
        <time>2022-01-08T16:46:42Z</time>
      </trkpt>
      <trkpt lat="36.7447610" lon="-3.7890840">
        <ele>-1.0</ele>
        <time>2022-01-08T16:46:43Z</time>
      </trkpt>
      <trkpt lat="36.7447580" lon="-3.7890850">
        <ele>-1.0</ele>
        <time>2022-01-08T16:46:44Z</time>
      </trkpt>
      <trkpt lat="36.7447560" lon="-3.7890870">
        <ele>-1.0</ele>
        <time>2022-01-08T16:46:45Z</time>
      </trkpt>
      <trkpt lat="36.7447740" lon="-3.7890920">
        <ele>-1.0</ele>
        <time>2022-01-08T16:46:46Z</time>
      </trkpt>
      <trkpt lat="36.7447740" lon="-3.7890920">
        <ele>-1.0</ele>
        <time>2022-01-08T16:46:47Z</time>
      </trkpt>
      <trkpt lat="36.7447830" lon="-3.7890660">
        <ele>-1.0</ele>
        <time>2022-01-08T16:46:48Z</time>
      </trkpt>
      <trkpt lat="36.7447830" lon="-3.7890660">
        <ele>-1.0</ele>
        <time>2022-01-08T16:46:49Z</time>
      </trkpt>
      <trkpt lat="36.7447830" lon="-3.7890660">
        <ele>-1.0</ele>
        <time>2022-01-08T16:46:50Z</time>
      </trkpt>
      <trkpt lat="36.7447830" lon="-3.7890660">
        <ele>-1.0</ele>
        <time>2022-01-08T16:46:51Z</time>
      </trkpt>
      <trkpt lat="36.7447830" lon="-3.7890660">
        <ele>-1.0</ele>
        <time>2022-01-08T16:46:52Z</time>
      </trkpt>
      <trkpt lat="36.7447830" lon="-3.7890660">
        <ele>-1.0</ele>
        <time>2022-01-08T16:46:53Z</time>
      </trkpt>
      <trkpt lat="36.7447830" lon="-3.7890660">
        <ele>-1.0</ele>
        <time>2022-01-08T16:46:54Z</time>
      </trkpt>
      <trkpt lat="36.7447830" lon="-3.7890660">
        <ele>-1.0</ele>
        <time>2022-01-08T16:46:55Z</time>
      </trkpt>
      <trkpt lat="36.7447830" lon="-3.7890660">
        <ele>-1.0</ele>
        <time>2022-01-08T16:46:56Z</time>
      </trkpt>
      <trkpt lat="36.7447830" lon="-3.7890660">
        <ele>-1.0</ele>
        <time>2022-01-08T16:46:57Z</time>
      </trkpt>
      <trkpt lat="36.7447830" lon="-3.7890660">
        <ele>-1.0</ele>
        <time>2022-01-08T16:46:58Z</time>
      </trkpt>
      <trkpt lat="36.7447830" lon="-3.7890660">
        <ele>-1.0</ele>
        <time>2022-01-08T16:46:59Z</time>
      </trkpt>
      <trkpt lat="36.7447830" lon="-3.7890660">
        <ele>-1.0</ele>
        <time>2022-01-08T16:47:00Z</time>
      </trkpt>
      <trkpt lat="36.7447830" lon="-3.7890660">
        <ele>-1.0</ele>
        <time>2022-01-08T16:47:01Z</time>
      </trkpt>
      <trkpt lat="36.7447770" lon="-3.7890350">
        <ele>-1.0</ele>
        <time>2022-01-08T16:47:02Z</time>
      </trkpt>
      <trkpt lat="36.7447770" lon="-3.7890350">
        <ele>-1.0</ele>
        <time>2022-01-08T16:47:03Z</time>
      </trkpt>
      <trkpt lat="36.7447770" lon="-3.7890350">
        <ele>-1.0</ele>
        <time>2022-01-08T16:47:04Z</time>
      </trkpt>
      <trkpt lat="36.7447770" lon="-3.7890350">
        <ele>-1.0</ele>
        <time>2022-01-08T16:47:05Z</time>
      </trkpt>
      <trkpt lat="36.7447570" lon="-3.7890350">
        <ele>-1.0</ele>
        <time>2022-01-08T16:47:06Z</time>
      </trkpt>
      <trkpt lat="36.7447560" lon="-3.7890330">
        <ele>-1.0</ele>
        <time>2022-01-08T16:47:07Z</time>
      </trkpt>
      <trkpt lat="36.7447550" lon="-3.7890300">
        <ele>-1.0</ele>
        <time>2022-01-08T16:47:08Z</time>
      </trkpt>
      <trkpt lat="36.7447550" lon="-3.7890280">
        <ele>-1.0</ele>
        <time>2022-01-08T16:47:09Z</time>
      </trkpt>
      <trkpt lat="36.7447540" lon="-3.7890260">
        <ele>-1.0</ele>
        <time>2022-01-08T16:47:10Z</time>
      </trkpt>
      <trkpt lat="36.7447530" lon="-3.7890240">
        <ele>-1.0</ele>
        <time>2022-01-08T16:47:11Z</time>
      </trkpt>
      <trkpt lat="36.7447520" lon="-3.7890220">
        <ele>-1.0</ele>
        <time>2022-01-08T16:47:12Z</time>
      </trkpt>
      <trkpt lat="36.7447510" lon="-3.7890190">
        <ele>-1.0</ele>
        <time>2022-01-08T16:47:13Z</time>
      </trkpt>
      <trkpt lat="36.7447510" lon="-3.7890170">
        <ele>-1.0</ele>
        <time>2022-01-08T16:47:14Z</time>
      </trkpt>
      <trkpt lat="36.7447500" lon="-3.7890150">
        <ele>-1.0</ele>
        <time>2022-01-08T16:47:15Z</time>
      </trkpt>
      <trkpt lat="36.7447500" lon="-3.7890150">
        <ele>-1.0</ele>
        <time>2022-01-08T16:47:16Z</time>
      </trkpt>
      <trkpt lat="36.7447500" lon="-3.7890150">
        <ele>-1.0</ele>
        <time>2022-01-08T16:47:17Z</time>
      </trkpt>
      <trkpt lat="36.7447500" lon="-3.7890150">
        <ele>-1.0</ele>
        <time>2022-01-08T16:47:18Z</time>
      </trkpt>
      <trkpt lat="36.7447500" lon="-3.7890150">
        <ele>-1.0</ele>
        <time>2022-01-08T16:47:19Z</time>
      </trkpt>
      <trkpt lat="36.7447500" lon="-3.7890150">
        <ele>-1.0</ele>
        <time>2022-01-08T16:47:20Z</time>
      </trkpt>
      <trkpt lat="36.7447650" lon="-3.7889910">
        <ele>-1.0</ele>
        <time>2022-01-08T16:47:21Z</time>
      </trkpt>
      <trkpt lat="36.7447650" lon="-3.7889910">
        <ele>-1.0</ele>
        <time>2022-01-08T16:47:22Z</time>
      </trkpt>
      <trkpt lat="36.7447650" lon="-3.7889910">
        <ele>-1.0</ele>
        <time>2022-01-08T16:47:23Z</time>
      </trkpt>
      <trkpt lat="36.7447570" lon="-3.7889690">
        <ele>-1.0</ele>
        <time>2022-01-08T16:47:24Z</time>
      </trkpt>
      <trkpt lat="36.7447570" lon="-3.7889690">
        <ele>-1.0</ele>
        <time>2022-01-08T16:47:25Z</time>
      </trkpt>
      <trkpt lat="36.7447320" lon="-3.7889810">
        <ele>-1.0</ele>
        <time>2022-01-08T16:47:26Z</time>
      </trkpt>
      <trkpt lat="36.7447290" lon="-3.7889830">
        <ele>-1.0</ele>
        <time>2022-01-08T16:47:27Z</time>
      </trkpt>
      <trkpt lat="36.7447250" lon="-3.7889850">
        <ele>-1.0</ele>
        <time>2022-01-08T16:47:28Z</time>
      </trkpt>
      <trkpt lat="36.7447210" lon="-3.7889870">
        <ele>-1.0</ele>
        <time>2022-01-08T16:47:29Z</time>
      </trkpt>
      <trkpt lat="36.7447180" lon="-3.7889890">
        <ele>-1.0</ele>
        <time>2022-01-08T16:47:30Z</time>
      </trkpt>
      <trkpt lat="36.7447140" lon="-3.7889910">
        <ele>-1.0</ele>
        <time>2022-01-08T16:47:31Z</time>
      </trkpt>
      <trkpt lat="36.7447110" lon="-3.7889930">
        <ele>-1.0</ele>
        <time>2022-01-08T16:47:32Z</time>
      </trkpt>
      <trkpt lat="36.7447070" lon="-3.7889950">
        <ele>-1.0</ele>
        <time>2022-01-08T16:47:33Z</time>
      </trkpt>
      <trkpt lat="36.7447030" lon="-3.7889970">
        <ele>-1.0</ele>
        <time>2022-01-08T16:47:34Z</time>
      </trkpt>
      <trkpt lat="36.7447000" lon="-3.7889990">
        <ele>-1.0</ele>
        <time>2022-01-08T16:47:35Z</time>
      </trkpt>
      <trkpt lat="36.7446760" lon="-3.7890030">
        <ele>-1.0</ele>
        <time>2022-01-08T16:47:36Z</time>
      </trkpt>
      <trkpt lat="36.7446770" lon="-3.7889950">
        <ele>-1.0</ele>
        <time>2022-01-08T16:47:37Z</time>
      </trkpt>
      <trkpt lat="36.7446780" lon="-3.7889870">
        <ele>-1.0</ele>
        <time>2022-01-08T16:47:38Z</time>
      </trkpt>
      <trkpt lat="36.7446790" lon="-3.7889790">
        <ele>-1.0</ele>
        <time>2022-01-08T16:47:39Z</time>
      </trkpt>
      <trkpt lat="36.7446790" lon="-3.7889720">
        <ele>-1.0</ele>
        <time>2022-01-08T16:47:40Z</time>
      </trkpt>
      <trkpt lat="36.7446800" lon="-3.7889640">
        <ele>-1.0</ele>
        <time>2022-01-08T16:47:41Z</time>
      </trkpt>
      <trkpt lat="36.7446810" lon="-3.7889560">
        <ele>-1.0</ele>
        <time>2022-01-08T16:47:42Z</time>
      </trkpt>
      <trkpt lat="36.7446820" lon="-3.7889480">
        <ele>-1.0</ele>
        <time>2022-01-08T16:47:43Z</time>
      </trkpt>
      <trkpt lat="36.7446830" lon="-3.7889400">
        <ele>-1.0</ele>
        <time>2022-01-08T16:47:44Z</time>
      </trkpt>
      <trkpt lat="36.7446840" lon="-3.7889320">
        <ele>-1.0</ele>
        <time>2022-01-08T16:47:45Z</time>
      </trkpt>
      <trkpt lat="36.7446850" lon="-3.7889240">
        <ele>-1.0</ele>
        <time>2022-01-08T16:47:46Z</time>
      </trkpt>
      <trkpt lat="36.7446910" lon="-3.7889340">
        <ele>-1.0</ele>
        <time>2022-01-08T16:47:47Z</time>
      </trkpt>
      <trkpt lat="36.7446940" lon="-3.7889280">
        <ele>-1.0</ele>
        <time>2022-01-08T16:47:48Z</time>
      </trkpt>
      <trkpt lat="36.7446980" lon="-3.7889220">
        <ele>-1.0</ele>
        <time>2022-01-08T16:47:49Z</time>
      </trkpt>
      <trkpt lat="36.7447020" lon="-3.7889160">
        <ele>-1.0</ele>
        <time>2022-01-08T16:47:50Z</time>
      </trkpt>
      <trkpt lat="36.7447060" lon="-3.7889100">
        <ele>-1.0</ele>
        <time>2022-01-08T16:47:51Z</time>
      </trkpt>
      <trkpt lat="36.7447100" lon="-3.7889040">
        <ele>-1.0</ele>
        <time>2022-01-08T16:47:52Z</time>
      </trkpt>
      <trkpt lat="36.7447130" lon="-3.7888980">
        <ele>-1.0</ele>
        <time>2022-01-08T16:47:53Z</time>
      </trkpt>
      <trkpt lat="36.7447170" lon="-3.7888920">
        <ele>-1.0</ele>
        <time>2022-01-08T16:47:54Z</time>
      </trkpt>
      <trkpt lat="36.7447210" lon="-3.7888860">
        <ele>-1.0</ele>
        <time>2022-01-08T16:47:55Z</time>
      </trkpt>
      <trkpt lat="36.7447170" lon="-3.7888930">
        <ele>-1.0</ele>
        <time>2022-01-08T16:47:56Z</time>
      </trkpt>
      <trkpt lat="36.7447120" lon="-3.7889000">
        <ele>-1.0</ele>
        <time>2022-01-08T16:47:57Z</time>
      </trkpt>
      <trkpt lat="36.7447080" lon="-3.7889070">
        <ele>-1.0</ele>
        <time>2022-01-08T16:47:58Z</time>
      </trkpt>
      <trkpt lat="36.7447040" lon="-3.7889140">
        <ele>-1.0</ele>
        <time>2022-01-08T16:47:59Z</time>
      </trkpt>
      <trkpt lat="36.7447000" lon="-3.7889210">
        <ele>-1.0</ele>
        <time>2022-01-08T16:48:00Z</time>
      </trkpt>
      <trkpt lat="36.7446950" lon="-3.7889290">
        <ele>-1.0</ele>
        <time>2022-01-08T16:48:01Z</time>
      </trkpt>
      <trkpt lat="36.7446910" lon="-3.7889360">
        <ele>-1.0</ele>
        <time>2022-01-08T16:48:02Z</time>
      </trkpt>
      <trkpt lat="36.7446870" lon="-3.7889430">
        <ele>-1.0</ele>
        <time>2022-01-08T16:48:03Z</time>
      </trkpt>
      <trkpt lat="36.7446830" lon="-3.7889500">
        <ele>-1.0</ele>
        <time>2022-01-08T16:48:04Z</time>
      </trkpt>
      <trkpt lat="36.7446780" lon="-3.7889570">
        <ele>-1.0</ele>
        <time>2022-01-08T16:48:05Z</time>
      </trkpt>
      <trkpt lat="36.7446710" lon="-3.7889510">
        <ele>-1.0</ele>
        <time>2022-01-08T16:48:06Z</time>
      </trkpt>
      <trkpt lat="36.7446630" lon="-3.7889450">
        <ele>-1.0</ele>
        <time>2022-01-08T16:48:07Z</time>
      </trkpt>
      <trkpt lat="36.7446550" lon="-3.7889380">
        <ele>-1.0</ele>
        <time>2022-01-08T16:48:08Z</time>
      </trkpt>
      <trkpt lat="36.7446470" lon="-3.7889320">
        <ele>-1.0</ele>
        <time>2022-01-08T16:48:09Z</time>
      </trkpt>
      <trkpt lat="36.7446390" lon="-3.7889260">
        <ele>-1.0</ele>
        <time>2022-01-08T16:48:10Z</time>
      </trkpt>
      <trkpt lat="36.7446310" lon="-3.7889200">
        <ele>-1.0</ele>
        <time>2022-01-08T16:48:11Z</time>
      </trkpt>
      <trkpt lat="36.7446240" lon="-3.7889140">
        <ele>-1.0</ele>
        <time>2022-01-08T16:48:12Z</time>
      </trkpt>
      <trkpt lat="36.7446160" lon="-3.7889070">
        <ele>-1.0</ele>
        <time>2022-01-08T16:48:13Z</time>
      </trkpt>
      <trkpt lat="36.7446080" lon="-3.7889010">
        <ele>-1.0</ele>
        <time>2022-01-08T16:48:14Z</time>
      </trkpt>
      <trkpt lat="36.7446000" lon="-3.7888950">
        <ele>-1.0</ele>
        <time>2022-01-08T16:48:15Z</time>
      </trkpt>
      <trkpt lat="36.7446000" lon="-3.7888820">
        <ele>-1.0</ele>
        <time>2022-01-08T16:48:16Z</time>
      </trkpt>
      <trkpt lat="36.7446030" lon="-3.7888810">
        <ele>-1.0</ele>
        <time>2022-01-08T16:48:17Z</time>
      </trkpt>
      <trkpt lat="36.7446050" lon="-3.7888800">
        <ele>-1.0</ele>
        <time>2022-01-08T16:48:18Z</time>
      </trkpt>
      <trkpt lat="36.7446080" lon="-3.7888790">
        <ele>-1.0</ele>
        <time>2022-01-08T16:48:19Z</time>
      </trkpt>
      <trkpt lat="36.7446110" lon="-3.7888780">
        <ele>-1.0</ele>
        <time>2022-01-08T16:48:20Z</time>
      </trkpt>
      <trkpt lat="36.7446140" lon="-3.7888770">
        <ele>-1.0</ele>
        <time>2022-01-08T16:48:21Z</time>
      </trkpt>
      <trkpt lat="36.7446160" lon="-3.7888760">
        <ele>-1.0</ele>
        <time>2022-01-08T16:48:22Z</time>
      </trkpt>
      <trkpt lat="36.7446190" lon="-3.7888750">
        <ele>-1.0</ele>
        <time>2022-01-08T16:48:23Z</time>
      </trkpt>
      <trkpt lat="36.7446220" lon="-3.7888740">
        <ele>-1.0</ele>
        <time>2022-01-08T16:48:24Z</time>
      </trkpt>
      <trkpt lat="36.7446240" lon="-3.7888730">
        <ele>-1.0</ele>
        <time>2022-01-08T16:48:25Z</time>
      </trkpt>
      <trkpt lat="36.7446450" lon="-3.7888500">
        <ele>-1.0</ele>
        <time>2022-01-08T16:48:26Z</time>
      </trkpt>
      <trkpt lat="36.7446500" lon="-3.7888470">
        <ele>-1.0</ele>
        <time>2022-01-08T16:48:27Z</time>
      </trkpt>
      <trkpt lat="36.7446560" lon="-3.7888430">
        <ele>-1.0</ele>
        <time>2022-01-08T16:48:28Z</time>
      </trkpt>
      <trkpt lat="36.7446610" lon="-3.7888390">
        <ele>-1.0</ele>
        <time>2022-01-08T16:48:29Z</time>
      </trkpt>
      <trkpt lat="36.7446660" lon="-3.7888360">
        <ele>-1.0</ele>
        <time>2022-01-08T16:48:30Z</time>
      </trkpt>
      <trkpt lat="36.7446710" lon="-3.7888320">
        <ele>-1.0</ele>
        <time>2022-01-08T16:48:31Z</time>
      </trkpt>
      <trkpt lat="36.7446760" lon="-3.7888280">
        <ele>-1.0</ele>
        <time>2022-01-08T16:48:32Z</time>
      </trkpt>
      <trkpt lat="36.7446810" lon="-3.7888240">
        <ele>-1.0</ele>
        <time>2022-01-08T16:48:33Z</time>
      </trkpt>
      <trkpt lat="36.7446860" lon="-3.7888210">
        <ele>-1.0</ele>
        <time>2022-01-08T16:48:34Z</time>
      </trkpt>
      <trkpt lat="36.7446910" lon="-3.7888170">
        <ele>-1.0</ele>
        <time>2022-01-08T16:48:35Z</time>
      </trkpt>
      <trkpt lat="36.7446910" lon="-3.7888170">
        <ele>-1.0</ele>
        <time>2022-01-08T16:48:36Z</time>
      </trkpt>
      <trkpt lat="36.7447090" lon="-3.7888200">
        <ele>-1.0</ele>
        <time>2022-01-08T16:48:37Z</time>
      </trkpt>
      <trkpt lat="36.7447090" lon="-3.7888200">
        <ele>-1.0</ele>
        <time>2022-01-08T16:48:38Z</time>
      </trkpt>
      <trkpt lat="36.7447090" lon="-3.7888200">
        <ele>-1.0</ele>
        <time>2022-01-08T16:48:39Z</time>
      </trkpt>
      <trkpt lat="36.7447090" lon="-3.7888200">
        <ele>-1.0</ele>
        <time>2022-01-08T16:48:40Z</time>
      </trkpt>
      <trkpt lat="36.7447090" lon="-3.7888200">
        <ele>-1.0</ele>
        <time>2022-01-08T16:48:41Z</time>
      </trkpt>
      <trkpt lat="36.7447090" lon="-3.7888200">
        <ele>-1.0</ele>
        <time>2022-01-08T16:48:42Z</time>
      </trkpt>
      <trkpt lat="36.7446950" lon="-3.7888400">
        <ele>-1.0</ele>
        <time>2022-01-08T16:48:43Z</time>
      </trkpt>
      <trkpt lat="36.7446950" lon="-3.7888400">
        <ele>-1.0</ele>
        <time>2022-01-08T16:48:44Z</time>
      </trkpt>
      <trkpt lat="36.7446950" lon="-3.7888400">
        <ele>-1.0</ele>
        <time>2022-01-08T16:48:45Z</time>
      </trkpt>
      <trkpt lat="36.7447130" lon="-3.7888580">
        <ele>-1.0</ele>
        <time>2022-01-08T16:48:46Z</time>
      </trkpt>
      <trkpt lat="36.7447150" lon="-3.7888560">
        <ele>-1.0</ele>
        <time>2022-01-08T16:48:47Z</time>
      </trkpt>
      <trkpt lat="36.7447170" lon="-3.7888540">
        <ele>-1.0</ele>
        <time>2022-01-08T16:48:48Z</time>
      </trkpt>
      <trkpt lat="36.7447190" lon="-3.7888520">
        <ele>-1.0</ele>
        <time>2022-01-08T16:48:49Z</time>
      </trkpt>
      <trkpt lat="36.7447210" lon="-3.7888510">
        <ele>-1.0</ele>
        <time>2022-01-08T16:48:50Z</time>
      </trkpt>
      <trkpt lat="36.7447230" lon="-3.7888490">
        <ele>-1.0</ele>
        <time>2022-01-08T16:48:51Z</time>
      </trkpt>
      <trkpt lat="36.7447250" lon="-3.7888470">
        <ele>-1.0</ele>
        <time>2022-01-08T16:48:52Z</time>
      </trkpt>
      <trkpt lat="36.7447260" lon="-3.7888450">
        <ele>-1.0</ele>
        <time>2022-01-08T16:48:53Z</time>
      </trkpt>
      <trkpt lat="36.7447280" lon="-3.7888430">
        <ele>-1.0</ele>
        <time>2022-01-08T16:48:54Z</time>
      </trkpt>
      <trkpt lat="36.7447300" lon="-3.7888410">
        <ele>-1.0</ele>
        <time>2022-01-08T16:48:55Z</time>
      </trkpt>
      <trkpt lat="36.7447240" lon="-3.7888420">
        <ele>-1.0</ele>
        <time>2022-01-08T16:48:56Z</time>
      </trkpt>
      <trkpt lat="36.7447180" lon="-3.7888430">
        <ele>-1.0</ele>
        <time>2022-01-08T16:48:57Z</time>
      </trkpt>
      <trkpt lat="36.7447120" lon="-3.7888440">
        <ele>-1.0</ele>
        <time>2022-01-08T16:48:58Z</time>
      </trkpt>
      <trkpt lat="36.7447070" lon="-3.7888450">
        <ele>-1.0</ele>
        <time>2022-01-08T16:48:59Z</time>
      </trkpt>
      <trkpt lat="36.7447010" lon="-3.7888460">
        <ele>-1.0</ele>
        <time>2022-01-08T16:49:00Z</time>
      </trkpt>
      <trkpt lat="36.7446950" lon="-3.7888470">
        <ele>-1.0</ele>
        <time>2022-01-08T16:49:01Z</time>
      </trkpt>
      <trkpt lat="36.7446890" lon="-3.7888480">
        <ele>-1.0</ele>
        <time>2022-01-08T16:49:02Z</time>
      </trkpt>
      <trkpt lat="36.7446830" lon="-3.7888490">
        <ele>-1.0</ele>
        <time>2022-01-08T16:49:03Z</time>
      </trkpt>
      <trkpt lat="36.7446770" lon="-3.7888500">
        <ele>-1.0</ele>
        <time>2022-01-08T16:49:04Z</time>
      </trkpt>
      <trkpt lat="36.7446710" lon="-3.7888510">
        <ele>-1.0</ele>
        <time>2022-01-08T16:49:05Z</time>
      </trkpt>
      <trkpt lat="36.7446690" lon="-3.7888740">
        <ele>-1.0</ele>
        <time>2022-01-08T16:49:06Z</time>
      </trkpt>
      <trkpt lat="36.7446720" lon="-3.7888710">
        <ele>-1.0</ele>
        <time>2022-01-08T16:49:07Z</time>
      </trkpt>
      <trkpt lat="36.7446760" lon="-3.7888680">
        <ele>-1.0</ele>
        <time>2022-01-08T16:49:08Z</time>
      </trkpt>
      <trkpt lat="36.7446790" lon="-3.7888650">
        <ele>-1.0</ele>
        <time>2022-01-08T16:49:09Z</time>
      </trkpt>
      <trkpt lat="36.7446830" lon="-3.7888620">
        <ele>-1.0</ele>
        <time>2022-01-08T16:49:10Z</time>
      </trkpt>
      <trkpt lat="36.7446860" lon="-3.7888600">
        <ele>-1.0</ele>
        <time>2022-01-08T16:49:11Z</time>
      </trkpt>
      <trkpt lat="36.7446900" lon="-3.7888570">
        <ele>-1.0</ele>
        <time>2022-01-08T16:49:12Z</time>
      </trkpt>
      <trkpt lat="36.7446940" lon="-3.7888540">
        <ele>-1.0</ele>
        <time>2022-01-08T16:49:13Z</time>
      </trkpt>
      <trkpt lat="36.7446970" lon="-3.7888510">
        <ele>-1.0</ele>
        <time>2022-01-08T16:49:14Z</time>
      </trkpt>
      <trkpt lat="36.7447010" lon="-3.7888480">
        <ele>-1.0</ele>
        <time>2022-01-08T16:49:15Z</time>
      </trkpt>
      <trkpt lat="36.7447150" lon="-3.7888610">
        <ele>-1.0</ele>
        <time>2022-01-08T16:49:16Z</time>
      </trkpt>
      <trkpt lat="36.7447100" lon="-3.7888690">
        <ele>-1.0</ele>
        <time>2022-01-08T16:49:17Z</time>
      </trkpt>
      <trkpt lat="36.7447040" lon="-3.7888760">
        <ele>-1.0</ele>
        <time>2022-01-08T16:49:18Z</time>
      </trkpt>
      <trkpt lat="36.7446990" lon="-3.7888840">
        <ele>-1.0</ele>
        <time>2022-01-08T16:49:19Z</time>
      </trkpt>
      <trkpt lat="36.7446930" lon="-3.7888910">
        <ele>-1.0</ele>
        <time>2022-01-08T16:49:20Z</time>
      </trkpt>
      <trkpt lat="36.7446870" lon="-3.7888990">
        <ele>-1.0</ele>
        <time>2022-01-08T16:49:21Z</time>
      </trkpt>
      <trkpt lat="36.7446820" lon="-3.7889060">
        <ele>-1.0</ele>
        <time>2022-01-08T16:49:22Z</time>
      </trkpt>
      <trkpt lat="36.7446760" lon="-3.7889140">
        <ele>-1.0</ele>
        <time>2022-01-08T16:49:23Z</time>
      </trkpt>
      <trkpt lat="36.7446710" lon="-3.7889210">
        <ele>-1.0</ele>
        <time>2022-01-08T16:49:24Z</time>
      </trkpt>
      <trkpt lat="36.7446650" lon="-3.7889290">
        <ele>-1.0</ele>
        <time>2022-01-08T16:49:25Z</time>
      </trkpt>
      <trkpt lat="36.7446690" lon="-3.7889210">
        <ele>-1.0</ele>
        <time>2022-01-08T16:49:26Z</time>
      </trkpt>
      <trkpt lat="36.7446700" lon="-3.7889270">
        <ele>-1.0</ele>
        <time>2022-01-08T16:49:27Z</time>
      </trkpt>
      <trkpt lat="36.7446710" lon="-3.7889340">
        <ele>-1.0</ele>
        <time>2022-01-08T16:49:28Z</time>
      </trkpt>
      <trkpt lat="36.7446720" lon="-3.7889400">
        <ele>-1.0</ele>
        <time>2022-01-08T16:49:29Z</time>
      </trkpt>
      <trkpt lat="36.7446730" lon="-3.7889460">
        <ele>-1.0</ele>
        <time>2022-01-08T16:49:30Z</time>
      </trkpt>
      <trkpt lat="36.7446740" lon="-3.7889530">
        <ele>-1.0</ele>
        <time>2022-01-08T16:49:31Z</time>
      </trkpt>
      <trkpt lat="36.7446750" lon="-3.7889590">
        <ele>-1.0</ele>
        <time>2022-01-08T16:49:32Z</time>
      </trkpt>
      <trkpt lat="36.7446760" lon="-3.7889660">
        <ele>-1.0</ele>
        <time>2022-01-08T16:49:33Z</time>
      </trkpt>
      <trkpt lat="36.7446770" lon="-3.7889720">
        <ele>-1.0</ele>
        <time>2022-01-08T16:49:34Z</time>
      </trkpt>
      <trkpt lat="36.7446780" lon="-3.7889790">
        <ele>-1.0</ele>
        <time>2022-01-08T16:49:35Z</time>
      </trkpt>
      <trkpt lat="36.7446870" lon="-3.7889980">
        <ele>-1.0</ele>
        <time>2022-01-08T16:49:36Z</time>
      </trkpt>
      <trkpt lat="36.7446910" lon="-3.7890050">
        <ele>-1.0</ele>
        <time>2022-01-08T16:49:37Z</time>
      </trkpt>
      <trkpt lat="36.7446950" lon="-3.7890120">
        <ele>-1.0</ele>
        <time>2022-01-08T16:49:38Z</time>
      </trkpt>
      <trkpt lat="36.7446990" lon="-3.7890190">
        <ele>-1.0</ele>
        <time>2022-01-08T16:49:39Z</time>
      </trkpt>
      <trkpt lat="36.7447030" lon="-3.7890260">
        <ele>-1.0</ele>
        <time>2022-01-08T16:49:40Z</time>
      </trkpt>
      <trkpt lat="36.7447070" lon="-3.7890340">
        <ele>-1.0</ele>
        <time>2022-01-08T16:49:41Z</time>
      </trkpt>
      <trkpt lat="36.7447110" lon="-3.7890410">
        <ele>-1.0</ele>
        <time>2022-01-08T16:49:42Z</time>
      </trkpt>
      <trkpt lat="36.7447150" lon="-3.7890480">
        <ele>-1.0</ele>
        <time>2022-01-08T16:49:43Z</time>
      </trkpt>
      <trkpt lat="36.7447190" lon="-3.7890550">
        <ele>-1.0</ele>
        <time>2022-01-08T16:49:44Z</time>
      </trkpt>
      <trkpt lat="36.7447230" lon="-3.7890620">
        <ele>-1.0</ele>
        <time>2022-01-08T16:49:45Z</time>
      </trkpt>
      <trkpt lat="36.7447280" lon="-3.7890440">
        <ele>-1.0</ele>
        <time>2022-01-08T16:49:46Z</time>
      </trkpt>
      <trkpt lat="36.7447280" lon="-3.7890420">
        <ele>-1.0</ele>
        <time>2022-01-08T16:49:47Z</time>
      </trkpt>
      <trkpt lat="36.7447280" lon="-3.7890390">
        <ele>-1.0</ele>
        <time>2022-01-08T16:49:48Z</time>
      </trkpt>
      <trkpt lat="36.7447280" lon="-3.7890370">
        <ele>-1.0</ele>
        <time>2022-01-08T16:49:49Z</time>
      </trkpt>
      <trkpt lat="36.7447280" lon="-3.7890350">
        <ele>-1.0</ele>
        <time>2022-01-08T16:49:50Z</time>
      </trkpt>
      <trkpt lat="36.7447290" lon="-3.7890330">
        <ele>-1.0</ele>
        <time>2022-01-08T16:49:51Z</time>
      </trkpt>
      <trkpt lat="36.7447290" lon="-3.7890310">
        <ele>-1.0</ele>
        <time>2022-01-08T16:49:52Z</time>
      </trkpt>
      <trkpt lat="36.7447290" lon="-3.7890280">
        <ele>-1.0</ele>
        <time>2022-01-08T16:49:53Z</time>
      </trkpt>
      <trkpt lat="36.7447290" lon="-3.7890260">
        <ele>-1.0</ele>
        <time>2022-01-08T16:49:54Z</time>
      </trkpt>
      <trkpt lat="36.7447290" lon="-3.7890240">
        <ele>-1.0</ele>
        <time>2022-01-08T16:49:55Z</time>
      </trkpt>
      <trkpt lat="36.7447240" lon="-3.7890570">
        <ele>-1.0</ele>
        <time>2022-01-08T16:49:56Z</time>
      </trkpt>
      <trkpt lat="36.7447250" lon="-3.7890710">
        <ele>-1.0</ele>
        <time>2022-01-08T16:49:57Z</time>
      </trkpt>
      <trkpt lat="36.7447260" lon="-3.7890860">
        <ele>-1.0</ele>
        <time>2022-01-08T16:49:58Z</time>
      </trkpt>
      <trkpt lat="36.7447270" lon="-3.7891000">
        <ele>-1.0</ele>
        <time>2022-01-08T16:49:59Z</time>
      </trkpt>
      <trkpt lat="36.7447280" lon="-3.7891150">
        <ele>-1.0</ele>
        <time>2022-01-08T16:50:00Z</time>
      </trkpt>
      <trkpt lat="36.7447290" lon="-3.7891290">
        <ele>-1.0</ele>
        <time>2022-01-08T16:50:01Z</time>
      </trkpt>
      <trkpt lat="36.7447310" lon="-3.7891440">
        <ele>-1.0</ele>
        <time>2022-01-08T16:50:02Z</time>
      </trkpt>
      <trkpt lat="36.7447320" lon="-3.7891580">
        <ele>-1.0</ele>
        <time>2022-01-08T16:50:03Z</time>
      </trkpt>
      <trkpt lat="36.7447330" lon="-3.7891730">
        <ele>-1.0</ele>
        <time>2022-01-08T16:50:04Z</time>
      </trkpt>
      <trkpt lat="36.7447340" lon="-3.7891880">
        <ele>-1.0</ele>
        <time>2022-01-08T16:50:05Z</time>
      </trkpt>
      <trkpt lat="36.7447410" lon="-3.7892070">
        <ele>-1.0</ele>
        <time>2022-01-08T16:50:06Z</time>
      </trkpt>
      <trkpt lat="36.7447440" lon="-3.7892120">
        <ele>-1.0</ele>
        <time>2022-01-08T16:50:07Z</time>
      </trkpt>
      <trkpt lat="36.7447460" lon="-3.7892170">
        <ele>-1.0</ele>
        <time>2022-01-08T16:50:08Z</time>
      </trkpt>
      <trkpt lat="36.7447490" lon="-3.7892210">
        <ele>-1.0</ele>
        <time>2022-01-08T16:50:09Z</time>
      </trkpt>
      <trkpt lat="36.7447510" lon="-3.7892260">
        <ele>-1.0</ele>
        <time>2022-01-08T16:50:10Z</time>
      </trkpt>
      <trkpt lat="36.7447540" lon="-3.7892310">
        <ele>-1.0</ele>
        <time>2022-01-08T16:50:11Z</time>
      </trkpt>
      <trkpt lat="36.7447570" lon="-3.7892350">
        <ele>-1.0</ele>
        <time>2022-01-08T16:50:12Z</time>
      </trkpt>
      <trkpt lat="36.7447590" lon="-3.7892400">
        <ele>-1.0</ele>
        <time>2022-01-08T16:50:13Z</time>
      </trkpt>
      <trkpt lat="36.7447620" lon="-3.7892450">
        <ele>-1.0</ele>
        <time>2022-01-08T16:50:14Z</time>
      </trkpt>
      <trkpt lat="36.7447640" lon="-3.7892490">
        <ele>-1.0</ele>
        <time>2022-01-08T16:50:15Z</time>
      </trkpt>
      <trkpt lat="36.7447640" lon="-3.7892490">
        <ele>-1.0</ele>
        <time>2022-01-08T16:50:16Z</time>
      </trkpt>
      <trkpt lat="36.7447640" lon="-3.7892490">
        <ele>-1.0</ele>
        <time>2022-01-08T16:50:17Z</time>
      </trkpt>
      <trkpt lat="36.7447640" lon="-3.7892490">
        <ele>-1.0</ele>
        <time>2022-01-08T16:50:18Z</time>
      </trkpt>
      <trkpt lat="36.7447640" lon="-3.7892490">
        <ele>-1.0</ele>
        <time>2022-01-08T16:50:19Z</time>
      </trkpt>
      <trkpt lat="36.7447640" lon="-3.7892490">
        <ele>-1.0</ele>
        <time>2022-01-08T16:50:20Z</time>
      </trkpt>
      <trkpt lat="36.7447640" lon="-3.7892490">
        <ele>-1.0</ele>
        <time>2022-01-08T16:50:21Z</time>
      </trkpt>
      <trkpt lat="36.7447790" lon="-3.7892340">
        <ele>-1.0</ele>
        <time>2022-01-08T16:50:22Z</time>
      </trkpt>
      <trkpt lat="36.7447790" lon="-3.7892340">
        <ele>-1.0</ele>
        <time>2022-01-08T16:50:23Z</time>
      </trkpt>
      <trkpt lat="36.7447790" lon="-3.7892340">
        <ele>-1.0</ele>
        <time>2022-01-08T16:50:24Z</time>
      </trkpt>
      <trkpt lat="36.7447860" lon="-3.7891970">
        <ele>-1.0</ele>
        <time>2022-01-08T16:50:25Z</time>
      </trkpt>
      <trkpt lat="36.7447870" lon="-3.7891860">
        <ele>-1.0</ele>
        <time>2022-01-08T16:50:26Z</time>
      </trkpt>
      <trkpt lat="36.7447880" lon="-3.7891740">
        <ele>-1.0</ele>
        <time>2022-01-08T16:50:27Z</time>
      </trkpt>
      <trkpt lat="36.7447890" lon="-3.7891630">
        <ele>-1.0</ele>
        <time>2022-01-08T16:50:28Z</time>
      </trkpt>
      <trkpt lat="36.7447890" lon="-3.7891510">
        <ele>-1.0</ele>
        <time>2022-01-08T16:50:29Z</time>
      </trkpt>
      <trkpt lat="36.7447900" lon="-3.7891390">
        <ele>-1.0</ele>
        <time>2022-01-08T16:50:30Z</time>
      </trkpt>
      <trkpt lat="36.7447910" lon="-3.7891280">
        <ele>-1.0</ele>
        <time>2022-01-08T16:50:31Z</time>
      </trkpt>
      <trkpt lat="36.7447920" lon="-3.7891160">
        <ele>-1.0</ele>
        <time>2022-01-08T16:50:32Z</time>
      </trkpt>
      <trkpt lat="36.7447930" lon="-3.7891040">
        <ele>-1.0</ele>
        <time>2022-01-08T16:50:33Z</time>
      </trkpt>
      <trkpt lat="36.7447930" lon="-3.7890930">
        <ele>-1.0</ele>
        <time>2022-01-08T16:50:34Z</time>
      </trkpt>
      <trkpt lat="36.7447940" lon="-3.7890810">
        <ele>-1.0</ele>
        <time>2022-01-08T16:50:35Z</time>
      </trkpt>
      <trkpt lat="36.7447840" lon="-3.7890550">
        <ele>-1.0</ele>
        <time>2022-01-08T16:50:36Z</time>
      </trkpt>
      <trkpt lat="36.7447770" lon="-3.7890460">
        <ele>-1.0</ele>
        <time>2022-01-08T16:50:37Z</time>
      </trkpt>
      <trkpt lat="36.7447700" lon="-3.7890370">
        <ele>-1.0</ele>
        <time>2022-01-08T16:50:38Z</time>
      </trkpt>
      <trkpt lat="36.7447640" lon="-3.7890280">
        <ele>-1.0</ele>
        <time>2022-01-08T16:50:39Z</time>
      </trkpt>
      <trkpt lat="36.7447570" lon="-3.7890190">
        <ele>-1.0</ele>
        <time>2022-01-08T16:50:40Z</time>
      </trkpt>
      <trkpt lat="36.7447500" lon="-3.7890100">
        <ele>-1.0</ele>
        <time>2022-01-08T16:50:41Z</time>
      </trkpt>
      <trkpt lat="36.7447440" lon="-3.7890010">
        <ele>-1.0</ele>
        <time>2022-01-08T16:50:42Z</time>
      </trkpt>
      <trkpt lat="36.7447370" lon="-3.7889920">
        <ele>-1.0</ele>
        <time>2022-01-08T16:50:43Z</time>
      </trkpt>
      <trkpt lat="36.7447300" lon="-3.7889830">
        <ele>-1.0</ele>
        <time>2022-01-08T16:50:44Z</time>
      </trkpt>
      <trkpt lat="36.7447240" lon="-3.7889740">
        <ele>-1.0</ele>
        <time>2022-01-08T16:50:45Z</time>
      </trkpt>
      <trkpt lat="36.7447240" lon="-3.7889680">
        <ele>-1.0</ele>
        <time>2022-01-08T16:50:46Z</time>
      </trkpt>
      <trkpt lat="36.7447280" lon="-3.7889730">
        <ele>-1.0</ele>
        <time>2022-01-08T16:50:47Z</time>
      </trkpt>
      <trkpt lat="36.7447330" lon="-3.7889780">
        <ele>-1.0</ele>
        <time>2022-01-08T16:50:48Z</time>
      </trkpt>
      <trkpt lat="36.7447370" lon="-3.7889830">
        <ele>-1.0</ele>
        <time>2022-01-08T16:50:49Z</time>
      </trkpt>
      <trkpt lat="36.7447410" lon="-3.7889870">
        <ele>-1.0</ele>
        <time>2022-01-08T16:50:50Z</time>
      </trkpt>
      <trkpt lat="36.7447460" lon="-3.7889920">
        <ele>-1.0</ele>
        <time>2022-01-08T16:50:51Z</time>
      </trkpt>
      <trkpt lat="36.7447500" lon="-3.7889970">
        <ele>-1.0</ele>
        <time>2022-01-08T16:50:52Z</time>
      </trkpt>
      <trkpt lat="36.7447550" lon="-3.7890020">
        <ele>-1.0</ele>
        <time>2022-01-08T16:50:53Z</time>
      </trkpt>
      <trkpt lat="36.7447590" lon="-3.7890070">
        <ele>-1.0</ele>
        <time>2022-01-08T16:50:54Z</time>
      </trkpt>
      <trkpt lat="36.7447630" lon="-3.7890120">
        <ele>-1.0</ele>
        <time>2022-01-08T16:50:55Z</time>
      </trkpt>
      <trkpt lat="36.7447600" lon="-3.7890310">
        <ele>-1.0</ele>
        <time>2022-01-08T16:50:56Z</time>
      </trkpt>
      <trkpt lat="36.7447570" lon="-3.7890510">
        <ele>-1.0</ele>
        <time>2022-01-08T16:50:57Z</time>
      </trkpt>
      <trkpt lat="36.7447540" lon="-3.7890710">
        <ele>-1.0</ele>
        <time>2022-01-08T16:50:58Z</time>
      </trkpt>
      <trkpt lat="36.7447520" lon="-3.7890910">
        <ele>-1.0</ele>
        <time>2022-01-08T16:50:59Z</time>
      </trkpt>
      <trkpt lat="36.7447490" lon="-3.7891110">
        <ele>-1.0</ele>
        <time>2022-01-08T16:51:00Z</time>
      </trkpt>
      <trkpt lat="36.7447460" lon="-3.7891300">
        <ele>-1.0</ele>
        <time>2022-01-08T16:51:01Z</time>
      </trkpt>
      <trkpt lat="36.7447430" lon="-3.7891500">
        <ele>-1.0</ele>
        <time>2022-01-08T16:51:02Z</time>
      </trkpt>
      <trkpt lat="36.7447400" lon="-3.7891700">
        <ele>-1.0</ele>
        <time>2022-01-08T16:51:03Z</time>
      </trkpt>
      <trkpt lat="36.7447370" lon="-3.7891900">
        <ele>-1.0</ele>
        <time>2022-01-08T16:51:04Z</time>
      </trkpt>
      <trkpt lat="36.7447340" lon="-3.7892100">
        <ele>-1.0</ele>
        <time>2022-01-08T16:51:05Z</time>
      </trkpt>
      <trkpt lat="36.7447260" lon="-3.7892410">
        <ele>-1.0</ele>
        <time>2022-01-08T16:51:06Z</time>
      </trkpt>
      <trkpt lat="36.7447260" lon="-3.7892410">
        <ele>-1.0</ele>
        <time>2022-01-08T16:51:07Z</time>
      </trkpt>
      <trkpt lat="36.7447260" lon="-3.7892410">
        <ele>-1.0</ele>
        <time>2022-01-08T16:51:08Z</time>
      </trkpt>
      <trkpt lat="36.7447260" lon="-3.7892410">
        <ele>-1.0</ele>
        <time>2022-01-08T16:51:09Z</time>
      </trkpt>
      <trkpt lat="36.7447260" lon="-3.7892410">
        <ele>-1.0</ele>
        <time>2022-01-08T16:51:10Z</time>
      </trkpt>
      <trkpt lat="36.7447260" lon="-3.7892410">
        <ele>-1.0</ele>
        <time>2022-01-08T16:51:11Z</time>
      </trkpt>
      <trkpt lat="36.7447260" lon="-3.7892410">
        <ele>-1.0</ele>
        <time>2022-01-08T16:51:12Z</time>
      </trkpt>
      <trkpt lat="36.7447260" lon="-3.7892410">
        <ele>-1.0</ele>
        <time>2022-01-08T16:51:13Z</time>
      </trkpt>
      <trkpt lat="36.7447260" lon="-3.7892410">
        <ele>-1.0</ele>
        <time>2022-01-08T16:51:14Z</time>
      </trkpt>
      <trkpt lat="36.7447260" lon="-3.7892410">
        <ele>-1.0</ele>
        <time>2022-01-08T16:51:15Z</time>
      </trkpt>
      <trkpt lat="36.7447260" lon="-3.7892410">
        <ele>-1.0</ele>
        <time>2022-01-08T16:51:16Z</time>
      </trkpt>
      <trkpt lat="36.7447260" lon="-3.7892410">
        <ele>-1.0</ele>
        <time>2022-01-08T16:51:17Z</time>
      </trkpt>
      <trkpt lat="36.7447260" lon="-3.7892410">
        <ele>-1.0</ele>
        <time>2022-01-08T16:51:18Z</time>
      </trkpt>
      <trkpt lat="36.7447260" lon="-3.7892410">
        <ele>-1.0</ele>
        <time>2022-01-08T16:51:19Z</time>
      </trkpt>
      <trkpt lat="36.7447260" lon="-3.7892410">
        <ele>-1.0</ele>
        <time>2022-01-08T16:51:20Z</time>
      </trkpt>
      <trkpt lat="36.7447500" lon="-3.7892420">
        <ele>-1.0</ele>
        <time>2022-01-08T16:51:21Z</time>
      </trkpt>
      <trkpt lat="36.7447500" lon="-3.7892420">
        <ele>-1.0</ele>
        <time>2022-01-08T16:51:22Z</time>
      </trkpt>
      <trkpt lat="36.7447500" lon="-3.7892420">
        <ele>-1.0</ele>
        <time>2022-01-08T16:51:23Z</time>
      </trkpt>
      <trkpt lat="36.7447500" lon="-3.7892420">
        <ele>-1.0</ele>
        <time>2022-01-08T16:51:24Z</time>
      </trkpt>
      <trkpt lat="36.7447500" lon="-3.7892420">
        <ele>-1.0</ele>
        <time>2022-01-08T16:51:25Z</time>
      </trkpt>
      <trkpt lat="36.7447500" lon="-3.7892420">
        <ele>-1.0</ele>
        <time>2022-01-08T16:51:26Z</time>
      </trkpt>
      <trkpt lat="36.7447500" lon="-3.7892420">
        <ele>-1.0</ele>
        <time>2022-01-08T16:51:27Z</time>
      </trkpt>
      <trkpt lat="36.7447500" lon="-3.7892420">
        <ele>-1.0</ele>
        <time>2022-01-08T16:51:28Z</time>
      </trkpt>
      <trkpt lat="36.7447500" lon="-3.7892420">
        <ele>-1.0</ele>
        <time>2022-01-08T16:51:29Z</time>
      </trkpt>
      <trkpt lat="36.7447500" lon="-3.7892420">
        <ele>-1.0</ele>
        <time>2022-01-08T16:51:30Z</time>
      </trkpt>
      <trkpt lat="36.7447500" lon="-3.7892420">
        <ele>-1.0</ele>
        <time>2022-01-08T16:51:31Z</time>
      </trkpt>
      <trkpt lat="36.7447500" lon="-3.7892420">
        <ele>-1.0</ele>
        <time>2022-01-08T16:51:32Z</time>
      </trkpt>
      <trkpt lat="36.7447500" lon="-3.7892420">
        <ele>-1.0</ele>
        <time>2022-01-08T16:51:33Z</time>
      </trkpt>
      <trkpt lat="36.7447500" lon="-3.7892420">
        <ele>-1.0</ele>
        <time>2022-01-08T16:51:34Z</time>
      </trkpt>
      <trkpt lat="36.7447500" lon="-3.7892420">
        <ele>-1.0</ele>
        <time>2022-01-08T16:51:35Z</time>
      </trkpt>
      <trkpt lat="36.7447500" lon="-3.7892420">
        <ele>-1.0</ele>
        <time>2022-01-08T16:51:36Z</time>
      </trkpt>
      <trkpt lat="36.7447500" lon="-3.7892420">
        <ele>-1.0</ele>
        <time>2022-01-08T16:51:37Z</time>
      </trkpt>
      <trkpt lat="36.7447500" lon="-3.7892420">
        <ele>-1.0</ele>
        <time>2022-01-08T16:51:38Z</time>
      </trkpt>
      <trkpt lat="36.7447500" lon="-3.7892420">
        <ele>-1.0</ele>
        <time>2022-01-08T16:51:39Z</time>
      </trkpt>
      <trkpt lat="36.7447500" lon="-3.7892420">
        <ele>-1.0</ele>
        <time>2022-01-08T16:51:40Z</time>
      </trkpt>
      <trkpt lat="36.7447500" lon="-3.7892420">
        <ele>-1.0</ele>
        <time>2022-01-08T16:51:41Z</time>
      </trkpt>
      <trkpt lat="36.7447500" lon="-3.7892420">
        <ele>-1.0</ele>
        <time>2022-01-08T16:51:42Z</time>
      </trkpt>
      <trkpt lat="36.7447500" lon="-3.7892420">
        <ele>-1.0</ele>
        <time>2022-01-08T16:51:43Z</time>
      </trkpt>
      <trkpt lat="36.7447500" lon="-3.7892420">
        <ele>-1.0</ele>
        <time>2022-01-08T16:51:44Z</time>
      </trkpt>
      <trkpt lat="36.7447500" lon="-3.7892420">
        <ele>-1.0</ele>
        <time>2022-01-08T16:51:45Z</time>
      </trkpt>
      <trkpt lat="36.7447500" lon="-3.7892420">
        <ele>-1.0</ele>
        <time>2022-01-08T16:51:46Z</time>
      </trkpt>
      <trkpt lat="36.7447500" lon="-3.7892420">
        <ele>-1.0</ele>
        <time>2022-01-08T16:51:47Z</time>
      </trkpt>
      <trkpt lat="36.7447500" lon="-3.7892420">
        <ele>-1.0</ele>
        <time>2022-01-08T16:51:48Z</time>
      </trkpt>
      <trkpt lat="36.7447500" lon="-3.7892420">
        <ele>-1.0</ele>
        <time>2022-01-08T16:51:49Z</time>
      </trkpt>
      <trkpt lat="36.7447500" lon="-3.7892420">
        <ele>-1.0</ele>
        <time>2022-01-08T16:51:50Z</time>
      </trkpt>
      <trkpt lat="36.7447500" lon="-3.7892420">
        <ele>-1.0</ele>
        <time>2022-01-08T16:51:51Z</time>
      </trkpt>
      <trkpt lat="36.7447500" lon="-3.7892420">
        <ele>-1.0</ele>
        <time>2022-01-08T16:51:52Z</time>
      </trkpt>
      <trkpt lat="36.7447500" lon="-3.7892420">
        <ele>-1.0</ele>
        <time>2022-01-08T16:51:53Z</time>
      </trkpt>
      <trkpt lat="36.7447500" lon="-3.7892420">
        <ele>-1.0</ele>
        <time>2022-01-08T16:51:54Z</time>
      </trkpt>
      <trkpt lat="36.7447500" lon="-3.7892420">
        <ele>-1.0</ele>
        <time>2022-01-08T16:51:55Z</time>
      </trkpt>
      <trkpt lat="36.7447500" lon="-3.7892420">
        <ele>-1.0</ele>
        <time>2022-01-08T16:51:56Z</time>
      </trkpt>
      <trkpt lat="36.7447500" lon="-3.7892420">
        <ele>-1.0</ele>
        <time>2022-01-08T16:51:57Z</time>
      </trkpt>
      <trkpt lat="36.7447500" lon="-3.7892420">
        <ele>-1.0</ele>
        <time>2022-01-08T16:51:58Z</time>
      </trkpt>
      <trkpt lat="36.7447340" lon="-3.7892270">
        <ele>-1.0</ele>
        <time>2022-01-08T16:51:59Z</time>
      </trkpt>
      <trkpt lat="36.7447340" lon="-3.7892270">
        <ele>-1.0</ele>
        <time>2022-01-08T16:52:00Z</time>
      </trkpt>
      <trkpt lat="36.7447340" lon="-3.7892270">
        <ele>-1.0</ele>
        <time>2022-01-08T16:52:01Z</time>
      </trkpt>
      <trkpt lat="36.7447340" lon="-3.7892270">
        <ele>-1.0</ele>
        <time>2022-01-08T16:52:02Z</time>
      </trkpt>
      <trkpt lat="36.7447340" lon="-3.7892270">
        <ele>-1.0</ele>
        <time>2022-01-08T16:52:03Z</time>
      </trkpt>
      <trkpt lat="36.7447340" lon="-3.7892270">
        <ele>-1.0</ele>
        <time>2022-01-08T16:52:04Z</time>
      </trkpt>
      <trkpt lat="36.7447340" lon="-3.7892270">
        <ele>-1.0</ele>
        <time>2022-01-08T16:52:05Z</time>
      </trkpt>
      <trkpt lat="36.7447310" lon="-3.7892230">
        <ele>-1.0</ele>
        <time>2022-01-08T16:52:06Z</time>
      </trkpt>
      <trkpt lat="36.7447280" lon="-3.7892200">
        <ele>-1.0</ele>
        <time>2022-01-08T16:52:07Z</time>
      </trkpt>
      <trkpt lat="36.7447240" lon="-3.7892170">
        <ele>-1.0</ele>
        <time>2022-01-08T16:52:08Z</time>
      </trkpt>
      <trkpt lat="36.7447210" lon="-3.7892130">
        <ele>-1.0</ele>
        <time>2022-01-08T16:52:09Z</time>
      </trkpt>
      <trkpt lat="36.7447180" lon="-3.7892100">
        <ele>-1.0</ele>
        <time>2022-01-08T16:52:10Z</time>
      </trkpt>
      <trkpt lat="36.7447150" lon="-3.7892070">
        <ele>-1.0</ele>
        <time>2022-01-08T16:52:11Z</time>
      </trkpt>
      <trkpt lat="36.7447120" lon="-3.7892030">
        <ele>-1.0</ele>
        <time>2022-01-08T16:52:12Z</time>
      </trkpt>
      <trkpt lat="36.7447090" lon="-3.7892000">
        <ele>-1.0</ele>
        <time>2022-01-08T16:52:13Z</time>
      </trkpt>
      <trkpt lat="36.7447060" lon="-3.7891970">
        <ele>-1.0</ele>
        <time>2022-01-08T16:52:14Z</time>
      </trkpt>
      <trkpt lat="36.7447030" lon="-3.7891940">
        <ele>-1.0</ele>
        <time>2022-01-08T16:52:15Z</time>
      </trkpt>
      <trkpt lat="36.7447000" lon="-3.7891900">
        <ele>-1.0</ele>
        <time>2022-01-08T16:52:16Z</time>
      </trkpt>
      <trkpt lat="36.7446970" lon="-3.7891870">
        <ele>-1.0</ele>
        <time>2022-01-08T16:52:17Z</time>
      </trkpt>
      <trkpt lat="36.7446930" lon="-3.7891840">
        <ele>-1.0</ele>
        <time>2022-01-08T16:52:18Z</time>
      </trkpt>
      <trkpt lat="36.7446900" lon="-3.7891800">
        <ele>-1.0</ele>
        <time>2022-01-08T16:52:19Z</time>
      </trkpt>
      <trkpt lat="36.7446870" lon="-3.7891770">
        <ele>-1.0</ele>
        <time>2022-01-08T16:52:20Z</time>
      </trkpt>
      <trkpt lat="36.7446840" lon="-3.7891740">
        <ele>-1.0</ele>
        <time>2022-01-08T16:52:21Z</time>
      </trkpt>
      <trkpt lat="36.7446810" lon="-3.7891710">
        <ele>-1.0</ele>
        <time>2022-01-08T16:52:22Z</time>
      </trkpt>
      <trkpt lat="36.7446780" lon="-3.7891670">
        <ele>-1.0</ele>
        <time>2022-01-08T16:52:23Z</time>
      </trkpt>
      <trkpt lat="36.7446750" lon="-3.7891640">
        <ele>-1.0</ele>
        <time>2022-01-08T16:52:24Z</time>
      </trkpt>
      <trkpt lat="36.7446720" lon="-3.7891610">
        <ele>-1.0</ele>
        <time>2022-01-08T16:52:25Z</time>
      </trkpt>
      <trkpt lat="36.7446400" lon="-3.7891460">
        <ele>-1.0</ele>
        <time>2022-01-08T16:52:26Z</time>
      </trkpt>
      <trkpt lat="36.7446330" lon="-3.7891360">
        <ele>-1.0</ele>
        <time>2022-01-08T16:52:27Z</time>
      </trkpt>
      <trkpt lat="36.7446270" lon="-3.7891270">
        <ele>-1.0</ele>
        <time>2022-01-08T16:52:28Z</time>
      </trkpt>
      <trkpt lat="36.7446200" lon="-3.7891170">
        <ele>-1.0</ele>
        <time>2022-01-08T16:52:29Z</time>
      </trkpt>
      <trkpt lat="36.7446130" lon="-3.7891080">
        <ele>-1.0</ele>
        <time>2022-01-08T16:52:30Z</time>
      </trkpt>
      <trkpt lat="36.7446070" lon="-3.7890980">
        <ele>-1.0</ele>
        <time>2022-01-08T16:52:31Z</time>
      </trkpt>
      <trkpt lat="36.7446000" lon="-3.7890890">
        <ele>-1.0</ele>
        <time>2022-01-08T16:52:32Z</time>
      </trkpt>
      <trkpt lat="36.7445940" lon="-3.7890790">
        <ele>-1.0</ele>
        <time>2022-01-08T16:52:33Z</time>
      </trkpt>
      <trkpt lat="36.7445870" lon="-3.7890700">
        <ele>-1.0</ele>
        <time>2022-01-08T16:52:34Z</time>
      </trkpt>
      <trkpt lat="36.7445800" lon="-3.7890600">
        <ele>-1.0</ele>
        <time>2022-01-08T16:52:35Z</time>
      </trkpt>
      <trkpt lat="36.7445620" lon="-3.7890350">
        <ele>-1.0</ele>
        <time>2022-01-08T16:52:36Z</time>
      </trkpt>
      <trkpt lat="36.7445550" lon="-3.7890230">
        <ele>-1.0</ele>
        <time>2022-01-08T16:52:37Z</time>
      </trkpt>
      <trkpt lat="36.7445480" lon="-3.7890120">
        <ele>-1.0</ele>
        <time>2022-01-08T16:52:38Z</time>
      </trkpt>
      <trkpt lat="36.7445410" lon="-3.7890000">
        <ele>-1.0</ele>
        <time>2022-01-08T16:52:39Z</time>
      </trkpt>
      <trkpt lat="36.7445330" lon="-3.7889880">
        <ele>-1.0</ele>
        <time>2022-01-08T16:52:40Z</time>
      </trkpt>
      <trkpt lat="36.7445260" lon="-3.7889770">
        <ele>-1.0</ele>
        <time>2022-01-08T16:52:41Z</time>
      </trkpt>
      <trkpt lat="36.7445190" lon="-3.7889650">
        <ele>-1.0</ele>
        <time>2022-01-08T16:52:42Z</time>
      </trkpt>
      <trkpt lat="36.7445110" lon="-3.7889530">
        <ele>-1.0</ele>
        <time>2022-01-08T16:52:43Z</time>
      </trkpt>
      <trkpt lat="36.7445040" lon="-3.7889420">
        <ele>-1.0</ele>
        <time>2022-01-08T16:52:44Z</time>
      </trkpt>
      <trkpt lat="36.7444970" lon="-3.7889300">
        <ele>-1.0</ele>
        <time>2022-01-08T16:52:45Z</time>
      </trkpt>
      <trkpt lat="36.7444840" lon="-3.7889080">
        <ele>-1.0</ele>
        <time>2022-01-08T16:52:46Z</time>
      </trkpt>
      <trkpt lat="36.7444770" lon="-3.7888980">
        <ele>-1.0</ele>
        <time>2022-01-08T16:52:47Z</time>
      </trkpt>
      <trkpt lat="36.7444710" lon="-3.7888880">
        <ele>-1.0</ele>
        <time>2022-01-08T16:52:48Z</time>
      </trkpt>
      <trkpt lat="36.7444650" lon="-3.7888780">
        <ele>-1.0</ele>
        <time>2022-01-08T16:52:49Z</time>
      </trkpt>
      <trkpt lat="36.7444590" lon="-3.7888680">
        <ele>-1.0</ele>
        <time>2022-01-08T16:52:50Z</time>
      </trkpt>
      <trkpt lat="36.7444530" lon="-3.7888580">
        <ele>-1.0</ele>
        <time>2022-01-08T16:52:51Z</time>
      </trkpt>
      <trkpt lat="36.7444470" lon="-3.7888480">
        <ele>-1.0</ele>
        <time>2022-01-08T16:52:52Z</time>
      </trkpt>
      <trkpt lat="36.7444410" lon="-3.7888380">
        <ele>-1.0</ele>
        <time>2022-01-08T16:52:53Z</time>
      </trkpt>
      <trkpt lat="36.7444340" lon="-3.7888280">
        <ele>-1.0</ele>
        <time>2022-01-08T16:52:54Z</time>
      </trkpt>
      <trkpt lat="36.7444280" lon="-3.7888180">
        <ele>-1.0</ele>
        <time>2022-01-08T16:52:55Z</time>
      </trkpt>
      <trkpt lat="36.7444250" lon="-3.7887920">
        <ele>-1.0</ele>
        <time>2022-01-08T16:52:56Z</time>
      </trkpt>
      <trkpt lat="36.7444260" lon="-3.7887770">
        <ele>-1.0</ele>
        <time>2022-01-08T16:52:57Z</time>
      </trkpt>
      <trkpt lat="36.7444260" lon="-3.7887620">
        <ele>-1.0</ele>
        <time>2022-01-08T16:52:58Z</time>
      </trkpt>
      <trkpt lat="36.7444270" lon="-3.7887480">
        <ele>-1.0</ele>
        <time>2022-01-08T16:52:59Z</time>
      </trkpt>
      <trkpt lat="36.7444280" lon="-3.7887330">
        <ele>-1.0</ele>
        <time>2022-01-08T16:53:00Z</time>
      </trkpt>
      <trkpt lat="36.7444280" lon="-3.7887180">
        <ele>-1.0</ele>
        <time>2022-01-08T16:53:01Z</time>
      </trkpt>
      <trkpt lat="36.7444290" lon="-3.7887030">
        <ele>-1.0</ele>
        <time>2022-01-08T16:53:02Z</time>
      </trkpt>
      <trkpt lat="36.7444300" lon="-3.7886890">
        <ele>-1.0</ele>
        <time>2022-01-08T16:53:03Z</time>
      </trkpt>
      <trkpt lat="36.7444300" lon="-3.7886740">
        <ele>-1.0</ele>
        <time>2022-01-08T16:53:04Z</time>
      </trkpt>
      <trkpt lat="36.7444310" lon="-3.7886590">
        <ele>-1.0</ele>
        <time>2022-01-08T16:53:05Z</time>
      </trkpt>
      <trkpt lat="36.7444290" lon="-3.7886280">
        <ele>-1.0</ele>
        <time>2022-01-08T16:53:06Z</time>
      </trkpt>
      <trkpt lat="36.7444290" lon="-3.7886130">
        <ele>-1.0</ele>
        <time>2022-01-08T16:53:07Z</time>
      </trkpt>
      <trkpt lat="36.7444290" lon="-3.7885980">
        <ele>-1.0</ele>
        <time>2022-01-08T16:53:08Z</time>
      </trkpt>
      <trkpt lat="36.7444280" lon="-3.7885820">
        <ele>-1.0</ele>
        <time>2022-01-08T16:53:09Z</time>
      </trkpt>
      <trkpt lat="36.7444280" lon="-3.7885670">
        <ele>-1.0</ele>
        <time>2022-01-08T16:53:10Z</time>
      </trkpt>
      <trkpt lat="36.7444280" lon="-3.7885510">
        <ele>-1.0</ele>
        <time>2022-01-08T16:53:11Z</time>
      </trkpt>
      <trkpt lat="36.7444280" lon="-3.7885360">
        <ele>-1.0</ele>
        <time>2022-01-08T16:53:12Z</time>
      </trkpt>
      <trkpt lat="36.7444280" lon="-3.7885210">
        <ele>-1.0</ele>
        <time>2022-01-08T16:53:13Z</time>
      </trkpt>
      <trkpt lat="36.7444270" lon="-3.7885050">
        <ele>-1.0</ele>
        <time>2022-01-08T16:53:14Z</time>
      </trkpt>
      <trkpt lat="36.7444270" lon="-3.7884900">
        <ele>-1.0</ele>
        <time>2022-01-08T16:53:15Z</time>
      </trkpt>
      <trkpt lat="36.7444230" lon="-3.7884550">
        <ele>-1.0</ele>
        <time>2022-01-08T16:53:16Z</time>
      </trkpt>
      <trkpt lat="36.7444200" lon="-3.7884410">
        <ele>-1.0</ele>
        <time>2022-01-08T16:53:17Z</time>
      </trkpt>
      <trkpt lat="36.7444180" lon="-3.7884270">
        <ele>-1.0</ele>
        <time>2022-01-08T16:53:18Z</time>
      </trkpt>
      <trkpt lat="36.7444150" lon="-3.7884120">
        <ele>-1.0</ele>
        <time>2022-01-08T16:53:19Z</time>
      </trkpt>
      <trkpt lat="36.7444130" lon="-3.7883980">
        <ele>-1.0</ele>
        <time>2022-01-08T16:53:20Z</time>
      </trkpt>
      <trkpt lat="36.7444100" lon="-3.7883830">
        <ele>-1.0</ele>
        <time>2022-01-08T16:53:21Z</time>
      </trkpt>
      <trkpt lat="36.7444080" lon="-3.7883690">
        <ele>-1.0</ele>
        <time>2022-01-08T16:53:22Z</time>
      </trkpt>
      <trkpt lat="36.7444060" lon="-3.7883550">
        <ele>-1.0</ele>
        <time>2022-01-08T16:53:23Z</time>
      </trkpt>
      <trkpt lat="36.7444030" lon="-3.7883400">
        <ele>-1.0</ele>
        <time>2022-01-08T16:53:24Z</time>
      </trkpt>
      <trkpt lat="36.7444010" lon="-3.7883260">
        <ele>-1.0</ele>
        <time>2022-01-08T16:53:25Z</time>
      </trkpt>
      <trkpt lat="36.7444010" lon="-3.7882950">
        <ele>-1.0</ele>
        <time>2022-01-08T16:53:26Z</time>
      </trkpt>
      <trkpt lat="36.7444030" lon="-3.7882800">
        <ele>-1.0</ele>
        <time>2022-01-08T16:53:27Z</time>
      </trkpt>
      <trkpt lat="36.7444050" lon="-3.7882640">
        <ele>-1.0</ele>
        <time>2022-01-08T16:53:28Z</time>
      </trkpt>
      <trkpt lat="36.7444060" lon="-3.7882480">
        <ele>-1.0</ele>
        <time>2022-01-08T16:53:29Z</time>
      </trkpt>
      <trkpt lat="36.7444080" lon="-3.7882330">
        <ele>-1.0</ele>
        <time>2022-01-08T16:53:30Z</time>
      </trkpt>
      <trkpt lat="36.7444100" lon="-3.7882170">
        <ele>-1.0</ele>
        <time>2022-01-08T16:53:31Z</time>
      </trkpt>
      <trkpt lat="36.7444120" lon="-3.7882020">
        <ele>-1.0</ele>
        <time>2022-01-08T16:53:32Z</time>
      </trkpt>
      <trkpt lat="36.7444140" lon="-3.7881860">
        <ele>-1.0</ele>
        <time>2022-01-08T16:53:33Z</time>
      </trkpt>
      <trkpt lat="36.7444150" lon="-3.7881700">
        <ele>-1.0</ele>
        <time>2022-01-08T16:53:34Z</time>
      </trkpt>
      <trkpt lat="36.7444170" lon="-3.7881550">
        <ele>-1.0</ele>
        <time>2022-01-08T16:53:35Z</time>
      </trkpt>
      <trkpt lat="36.7444130" lon="-3.7881190">
        <ele>-1.0</ele>
        <time>2022-01-08T16:53:36Z</time>
      </trkpt>
      <trkpt lat="36.7444010" lon="-3.7881010">
        <ele>-1.0</ele>
        <time>2022-01-08T16:53:37Z</time>
      </trkpt>
      <trkpt lat="36.7443890" lon="-3.7880820">
        <ele>-1.0</ele>
        <time>2022-01-08T16:53:38Z</time>
      </trkpt>
      <trkpt lat="36.7443770" lon="-3.7880640">
        <ele>-1.0</ele>
        <time>2022-01-08T16:53:39Z</time>
      </trkpt>
      <trkpt lat="36.7443650" lon="-3.7880460">
        <ele>-1.0</ele>
        <time>2022-01-08T16:53:40Z</time>
      </trkpt>
      <trkpt lat="36.7443530" lon="-3.7880280">
        <ele>-1.0</ele>
        <time>2022-01-08T16:53:41Z</time>
      </trkpt>
      <trkpt lat="36.7443410" lon="-3.7880100">
        <ele>-1.0</ele>
        <time>2022-01-08T16:53:42Z</time>
      </trkpt>
      <trkpt lat="36.7443290" lon="-3.7879920">
        <ele>-1.0</ele>
        <time>2022-01-08T16:53:43Z</time>
      </trkpt>
      <trkpt lat="36.7443170" lon="-3.7879740">
        <ele>-1.0</ele>
        <time>2022-01-08T16:53:44Z</time>
      </trkpt>
      <trkpt lat="36.7443050" lon="-3.7879560">
        <ele>-1.0</ele>
        <time>2022-01-08T16:53:45Z</time>
      </trkpt>
      <trkpt lat="36.7442770" lon="-3.7879210">
        <ele>-1.0</ele>
        <time>2022-01-08T16:53:46Z</time>
      </trkpt>
      <trkpt lat="36.7442660" lon="-3.7879070">
        <ele>-1.0</ele>
        <time>2022-01-08T16:53:47Z</time>
      </trkpt>
      <trkpt lat="36.7442550" lon="-3.7878920">
        <ele>-1.0</ele>
        <time>2022-01-08T16:53:48Z</time>
      </trkpt>
      <trkpt lat="36.7442440" lon="-3.7878780">
        <ele>-1.0</ele>
        <time>2022-01-08T16:53:49Z</time>
      </trkpt>
      <trkpt lat="36.7442330" lon="-3.7878640">
        <ele>-1.0</ele>
        <time>2022-01-08T16:53:50Z</time>
      </trkpt>
      <trkpt lat="36.7442220" lon="-3.7878490">
        <ele>-1.0</ele>
        <time>2022-01-08T16:53:51Z</time>
      </trkpt>
      <trkpt lat="36.7442110" lon="-3.7878350">
        <ele>-1.0</ele>
        <time>2022-01-08T16:53:52Z</time>
      </trkpt>
      <trkpt lat="36.7441990" lon="-3.7878200">
        <ele>-1.0</ele>
        <time>2022-01-08T16:53:53Z</time>
      </trkpt>
      <trkpt lat="36.7441880" lon="-3.7878060">
        <ele>-1.0</ele>
        <time>2022-01-08T16:53:54Z</time>
      </trkpt>
      <trkpt lat="36.7441770" lon="-3.7877910">
        <ele>-1.0</ele>
        <time>2022-01-08T16:53:55Z</time>
      </trkpt>
      <trkpt lat="36.7441520" lon="-3.7877680">
        <ele>-1.0</ele>
        <time>2022-01-08T16:53:56Z</time>
      </trkpt>
      <trkpt lat="36.7441400" lon="-3.7877580">
        <ele>-1.0</ele>
        <time>2022-01-08T16:53:57Z</time>
      </trkpt>
      <trkpt lat="36.7441280" lon="-3.7877470">
        <ele>-1.0</ele>
        <time>2022-01-08T16:53:58Z</time>
      </trkpt>
      <trkpt lat="36.7441160" lon="-3.7877370">
        <ele>-1.0</ele>
        <time>2022-01-08T16:53:59Z</time>
      </trkpt>
      <trkpt lat="36.7441030" lon="-3.7877260">
        <ele>-1.0</ele>
        <time>2022-01-08T16:54:00Z</time>
      </trkpt>
      <trkpt lat="36.7440910" lon="-3.7877160">
        <ele>-1.0</ele>
        <time>2022-01-08T16:54:01Z</time>
      </trkpt>
      <trkpt lat="36.7440790" lon="-3.7877050">
        <ele>-1.0</ele>
        <time>2022-01-08T16:54:02Z</time>
      </trkpt>
      <trkpt lat="36.7440670" lon="-3.7876950">
        <ele>-1.0</ele>
        <time>2022-01-08T16:54:03Z</time>
      </trkpt>
      <trkpt lat="36.7440550" lon="-3.7876840">
        <ele>-1.0</ele>
        <time>2022-01-08T16:54:04Z</time>
      </trkpt>
      <trkpt lat="36.7440430" lon="-3.7876740">
        <ele>-1.0</ele>
        <time>2022-01-08T16:54:05Z</time>
      </trkpt>
      <trkpt lat="36.7440110" lon="-3.7876350">
        <ele>-1.0</ele>
        <time>2022-01-08T16:54:06Z</time>
      </trkpt>
      <trkpt lat="36.7440000" lon="-3.7876220">
        <ele>-1.0</ele>
        <time>2022-01-08T16:54:07Z</time>
      </trkpt>
      <trkpt lat="36.7439890" lon="-3.7876090">
        <ele>-1.0</ele>
        <time>2022-01-08T16:54:08Z</time>
      </trkpt>
      <trkpt lat="36.7439770" lon="-3.7875960">
        <ele>-1.0</ele>
        <time>2022-01-08T16:54:09Z</time>
      </trkpt>
      <trkpt lat="36.7439660" lon="-3.7875820">
        <ele>-1.0</ele>
        <time>2022-01-08T16:54:10Z</time>
      </trkpt>
      <trkpt lat="36.7439550" lon="-3.7875690">
        <ele>-1.0</ele>
        <time>2022-01-08T16:54:11Z</time>
      </trkpt>
      <trkpt lat="36.7439440" lon="-3.7875560">
        <ele>-1.0</ele>
        <time>2022-01-08T16:54:12Z</time>
      </trkpt>
      <trkpt lat="36.7439320" lon="-3.7875420">
        <ele>-1.0</ele>
        <time>2022-01-08T16:54:13Z</time>
      </trkpt>
      <trkpt lat="36.7439210" lon="-3.7875290">
        <ele>-1.0</ele>
        <time>2022-01-08T16:54:14Z</time>
      </trkpt>
      <trkpt lat="36.7439100" lon="-3.7875160">
        <ele>-1.0</ele>
        <time>2022-01-08T16:54:15Z</time>
      </trkpt>
      <trkpt lat="36.7438880" lon="-3.7874910">
        <ele>-1.0</ele>
        <time>2022-01-08T16:54:16Z</time>
      </trkpt>
      <trkpt lat="36.7438770" lon="-3.7874800">
        <ele>-1.0</ele>
        <time>2022-01-08T16:54:17Z</time>
      </trkpt>
      <trkpt lat="36.7438660" lon="-3.7874690">
        <ele>-1.0</ele>
        <time>2022-01-08T16:54:18Z</time>
      </trkpt>
      <trkpt lat="36.7438550" lon="-3.7874580">
        <ele>-1.0</ele>
        <time>2022-01-08T16:54:19Z</time>
      </trkpt>
      <trkpt lat="36.7438440" lon="-3.7874470">
        <ele>-1.0</ele>
        <time>2022-01-08T16:54:20Z</time>
      </trkpt>
      <trkpt lat="36.7438330" lon="-3.7874360">
        <ele>-1.0</ele>
        <time>2022-01-08T16:54:21Z</time>
      </trkpt>
      <trkpt lat="36.7438220" lon="-3.7874260">
        <ele>-1.0</ele>
        <time>2022-01-08T16:54:22Z</time>
      </trkpt>
      <trkpt lat="36.7438110" lon="-3.7874150">
        <ele>-1.0</ele>
        <time>2022-01-08T16:54:23Z</time>
      </trkpt>
      <trkpt lat="36.7438000" lon="-3.7874040">
        <ele>-1.0</ele>
        <time>2022-01-08T16:54:24Z</time>
      </trkpt>
      <trkpt lat="36.7437890" lon="-3.7873930">
        <ele>-1.0</ele>
        <time>2022-01-08T16:54:25Z</time>
      </trkpt>
      <trkpt lat="36.7437660" lon="-3.7873770">
        <ele>-1.0</ele>
        <time>2022-01-08T16:54:26Z</time>
      </trkpt>
      <trkpt lat="36.7437560" lon="-3.7873680">
        <ele>-1.0</ele>
        <time>2022-01-08T16:54:27Z</time>
      </trkpt>
      <trkpt lat="36.7437460" lon="-3.7873600">
        <ele>-1.0</ele>
        <time>2022-01-08T16:54:28Z</time>
      </trkpt>
      <trkpt lat="36.7437360" lon="-3.7873520">
        <ele>-1.0</ele>
        <time>2022-01-08T16:54:29Z</time>
      </trkpt>
      <trkpt lat="36.7437250" lon="-3.7873440">
        <ele>-1.0</ele>
        <time>2022-01-08T16:54:30Z</time>
      </trkpt>
      <trkpt lat="36.7437150" lon="-3.7873360">
        <ele>-1.0</ele>
        <time>2022-01-08T16:54:31Z</time>
      </trkpt>
      <trkpt lat="36.7437050" lon="-3.7873270">
        <ele>-1.0</ele>
        <time>2022-01-08T16:54:32Z</time>
      </trkpt>
      <trkpt lat="36.7436950" lon="-3.7873190">
        <ele>-1.0</ele>
        <time>2022-01-08T16:54:33Z</time>
      </trkpt>
      <trkpt lat="36.7436850" lon="-3.7873110">
        <ele>-1.0</ele>
        <time>2022-01-08T16:54:34Z</time>
      </trkpt>
      <trkpt lat="36.7436740" lon="-3.7873030">
        <ele>-1.0</ele>
        <time>2022-01-08T16:54:35Z</time>
      </trkpt>
      <trkpt lat="36.7436560" lon="-3.7872950">
        <ele>-1.0</ele>
        <time>2022-01-08T16:54:36Z</time>
      </trkpt>
      <trkpt lat="36.7436380" lon="-3.7872860">
        <ele>-1.0</ele>
        <time>2022-01-08T16:54:37Z</time>
      </trkpt>
      <trkpt lat="36.7436200" lon="-3.7872780">
        <ele>-1.0</ele>
        <time>2022-01-08T16:54:38Z</time>
      </trkpt>
      <trkpt lat="36.7436020" lon="-3.7872700">
        <ele>-1.0</ele>
        <time>2022-01-08T16:54:39Z</time>
      </trkpt>
      <trkpt lat="36.7435840" lon="-3.7872620">
        <ele>-1.0</ele>
        <time>2022-01-08T16:54:40Z</time>
      </trkpt>
      <trkpt lat="36.7435650" lon="-3.7872540">
        <ele>-1.0</ele>
        <time>2022-01-08T16:54:41Z</time>
      </trkpt>
      <trkpt lat="36.7435470" lon="-3.7872460">
        <ele>-1.0</ele>
        <time>2022-01-08T16:54:42Z</time>
      </trkpt>
      <trkpt lat="36.7435290" lon="-3.7872380">
        <ele>-1.0</ele>
        <time>2022-01-08T16:54:43Z</time>
      </trkpt>
      <trkpt lat="36.7435110" lon="-3.7872290">
        <ele>-1.0</ele>
        <time>2022-01-08T16:54:44Z</time>
      </trkpt>
      <trkpt lat="36.7434930" lon="-3.7872210">
        <ele>-1.0</ele>
        <time>2022-01-08T16:54:45Z</time>
      </trkpt>
      <trkpt lat="36.7434600" lon="-3.7872140">
        <ele>-1.0</ele>
        <time>2022-01-08T16:54:46Z</time>
      </trkpt>
      <trkpt lat="36.7434470" lon="-3.7872110">
        <ele>-1.0</ele>
        <time>2022-01-08T16:54:47Z</time>
      </trkpt>
      <trkpt lat="36.7434350" lon="-3.7872080">
        <ele>-1.0</ele>
        <time>2022-01-08T16:54:48Z</time>
      </trkpt>
      <trkpt lat="36.7434220" lon="-3.7872050">
        <ele>-1.0</ele>
        <time>2022-01-08T16:54:49Z</time>
      </trkpt>
      <trkpt lat="36.7434100" lon="-3.7872020">
        <ele>-1.0</ele>
        <time>2022-01-08T16:54:50Z</time>
      </trkpt>
      <trkpt lat="36.7433970" lon="-3.7871990">
        <ele>-1.0</ele>
        <time>2022-01-08T16:54:51Z</time>
      </trkpt>
      <trkpt lat="36.7433850" lon="-3.7871960">
        <ele>-1.0</ele>
        <time>2022-01-08T16:54:52Z</time>
      </trkpt>
      <trkpt lat="36.7433720" lon="-3.7871930">
        <ele>-1.0</ele>
        <time>2022-01-08T16:54:53Z</time>
      </trkpt>
      <trkpt lat="36.7433600" lon="-3.7871900">
        <ele>-1.0</ele>
        <time>2022-01-08T16:54:54Z</time>
      </trkpt>
      <trkpt lat="36.7433470" lon="-3.7871870">
        <ele>-1.0</ele>
        <time>2022-01-08T16:54:55Z</time>
      </trkpt>
      <trkpt lat="36.7433420" lon="-3.7871770">
        <ele>-1.0</ele>
        <time>2022-01-08T16:54:56Z</time>
      </trkpt>
      <trkpt lat="36.7433370" lon="-3.7871670">
        <ele>-1.0</ele>
        <time>2022-01-08T16:54:57Z</time>
      </trkpt>
      <trkpt lat="36.7433320" lon="-3.7871570">
        <ele>-1.0</ele>
        <time>2022-01-08T16:54:58Z</time>
      </trkpt>
      <trkpt lat="36.7433270" lon="-3.7871480">
        <ele>-1.0</ele>
        <time>2022-01-08T16:54:59Z</time>
      </trkpt>
      <trkpt lat="36.7433220" lon="-3.7871380">
        <ele>-1.0</ele>
        <time>2022-01-08T16:55:00Z</time>
      </trkpt>
      <trkpt lat="36.7433170" lon="-3.7871280">
        <ele>-1.0</ele>
        <time>2022-01-08T16:55:01Z</time>
      </trkpt>
      <trkpt lat="36.7433120" lon="-3.7871180">
        <ele>-1.0</ele>
        <time>2022-01-08T16:55:02Z</time>
      </trkpt>
      <trkpt lat="36.7433070" lon="-3.7871080">
        <ele>-1.0</ele>
        <time>2022-01-08T16:55:03Z</time>
      </trkpt>
      <trkpt lat="36.7433020" lon="-3.7870990">
        <ele>-1.0</ele>
        <time>2022-01-08T16:55:04Z</time>
      </trkpt>
      <trkpt lat="36.7432970" lon="-3.7870890">
        <ele>-1.0</ele>
        <time>2022-01-08T16:55:05Z</time>
      </trkpt>
      <trkpt lat="36.7432970" lon="-3.7870890">
        <ele>-1.0</ele>
        <time>2022-01-08T16:55:06Z</time>
      </trkpt>
      <trkpt lat="36.7432970" lon="-3.7870890">
        <ele>-1.0</ele>
        <time>2022-01-08T16:55:07Z</time>
      </trkpt>
      <trkpt lat="36.7432970" lon="-3.7870890">
        <ele>-1.0</ele>
        <time>2022-01-08T16:55:08Z</time>
      </trkpt>
      <trkpt lat="36.7432970" lon="-3.7870890">
        <ele>-1.0</ele>
        <time>2022-01-08T16:55:09Z</time>
      </trkpt>
      <trkpt lat="36.7433220" lon="-3.7870500">
        <ele>-1.0</ele>
        <time>2022-01-08T16:55:10Z</time>
      </trkpt>
      <trkpt lat="36.7433220" lon="-3.7870500">
        <ele>-1.0</ele>
        <time>2022-01-08T16:55:11Z</time>
      </trkpt>
      <trkpt lat="36.7433220" lon="-3.7870500">
        <ele>-1.0</ele>
        <time>2022-01-08T16:55:12Z</time>
      </trkpt>
      <trkpt lat="36.7433220" lon="-3.7870500">
        <ele>-1.0</ele>
        <time>2022-01-08T16:55:13Z</time>
      </trkpt>
      <trkpt lat="36.7433220" lon="-3.7870500">
        <ele>-1.0</ele>
        <time>2022-01-08T16:55:14Z</time>
      </trkpt>
      <trkpt lat="36.7433220" lon="-3.7870500">
        <ele>-1.0</ele>
        <time>2022-01-08T16:55:15Z</time>
      </trkpt>
      <trkpt lat="36.7433180" lon="-3.7870470">
        <ele>-1.0</ele>
        <time>2022-01-08T16:55:16Z</time>
      </trkpt>
      <trkpt lat="36.7433140" lon="-3.7870440">
        <ele>-1.0</ele>
        <time>2022-01-08T16:55:17Z</time>
      </trkpt>
      <trkpt lat="36.7433110" lon="-3.7870400">
        <ele>-1.0</ele>
        <time>2022-01-08T16:55:18Z</time>
      </trkpt>
      <trkpt lat="36.7433070" lon="-3.7870370">
        <ele>-1.0</ele>
        <time>2022-01-08T16:55:19Z</time>
      </trkpt>
      <trkpt lat="36.7433030" lon="-3.7870340">
        <ele>-1.0</ele>
        <time>2022-01-08T16:55:20Z</time>
      </trkpt>
      <trkpt lat="36.7432990" lon="-3.7870310">
        <ele>-1.0</ele>
        <time>2022-01-08T16:55:21Z</time>
      </trkpt>
      <trkpt lat="36.7432950" lon="-3.7870280">
        <ele>-1.0</ele>
        <time>2022-01-08T16:55:22Z</time>
      </trkpt>
      <trkpt lat="36.7432910" lon="-3.7870250">
        <ele>-1.0</ele>
        <time>2022-01-08T16:55:23Z</time>
      </trkpt>
      <trkpt lat="36.7432870" lon="-3.7870220">
        <ele>-1.0</ele>
        <time>2022-01-08T16:55:24Z</time>
      </trkpt>
      <trkpt lat="36.7432830" lon="-3.7870190">
        <ele>6.0</ele>
        <time>2022-01-08T16:55:25Z</time>
      </trkpt>
      <trkpt lat="36.7432790" lon="-3.7870160">
        <ele>6.0</ele>
        <time>2022-01-08T16:55:26Z</time>
      </trkpt>
      <trkpt lat="36.7432750" lon="-3.7870130">
        <ele>6.0</ele>
        <time>2022-01-08T16:55:27Z</time>
      </trkpt>
      <trkpt lat="36.7432710" lon="-3.7870090">
        <ele>6.0</ele>
        <time>2022-01-08T16:55:28Z</time>
      </trkpt>
      <trkpt lat="36.7432680" lon="-3.7870060">
        <ele>6.0</ele>
        <time>2022-01-08T16:55:29Z</time>
      </trkpt>
      <trkpt lat="36.7432640" lon="-3.7870030">
        <ele>6.0</ele>
        <time>2022-01-08T16:55:30Z</time>
      </trkpt>
      <trkpt lat="36.7432600" lon="-3.7870000">
        <ele>6.0</ele>
        <time>2022-01-08T16:55:31Z</time>
      </trkpt>
      <trkpt lat="36.7432560" lon="-3.7869970">
        <ele>6.0</ele>
        <time>2022-01-08T16:55:32Z</time>
      </trkpt>
      <trkpt lat="36.7432520" lon="-3.7869940">
        <ele>6.0</ele>
        <time>2022-01-08T16:55:33Z</time>
      </trkpt>
      <trkpt lat="36.7432480" lon="-3.7869910">
        <ele>6.0</ele>
        <time>2022-01-08T16:55:34Z</time>
      </trkpt>
      <trkpt lat="36.7432440" lon="-3.7869880">
        <ele>9.0</ele>
        <time>2022-01-08T16:55:35Z</time>
      </trkpt>
      <trkpt lat="36.7431960" lon="-3.7869100">
        <ele>9.0</ele>
        <time>2022-01-08T16:55:36Z</time>
      </trkpt>
      <trkpt lat="36.7431950" lon="-3.7869130">
        <ele>9.0</ele>
        <time>2022-01-08T16:55:37Z</time>
      </trkpt>
      <trkpt lat="36.7431950" lon="-3.7869150">
        <ele>9.0</ele>
        <time>2022-01-08T16:55:38Z</time>
      </trkpt>
      <trkpt lat="36.7431940" lon="-3.7869170">
        <ele>9.0</ele>
        <time>2022-01-08T16:55:39Z</time>
      </trkpt>
      <trkpt lat="36.7431940" lon="-3.7869200">
        <ele>9.0</ele>
        <time>2022-01-08T16:55:40Z</time>
      </trkpt>
      <trkpt lat="36.7431930" lon="-3.7869220">
        <ele>9.0</ele>
        <time>2022-01-08T16:55:41Z</time>
      </trkpt>
      <trkpt lat="36.7431930" lon="-3.7869250">
        <ele>9.0</ele>
        <time>2022-01-08T16:55:42Z</time>
      </trkpt>
      <trkpt lat="36.7431920" lon="-3.7869270">
        <ele>9.0</ele>
        <time>2022-01-08T16:55:43Z</time>
      </trkpt>
      <trkpt lat="36.7431920" lon="-3.7869290">
        <ele>9.0</ele>
        <time>2022-01-08T16:55:44Z</time>
      </trkpt>
      <trkpt lat="36.7431910" lon="-3.7869320">
        <ele>12.0</ele>
        <time>2022-01-08T16:55:45Z</time>
      </trkpt>
      <trkpt lat="36.7431930" lon="-3.7869270">
        <ele>12.0</ele>
        <time>2022-01-08T16:55:46Z</time>
      </trkpt>
      <trkpt lat="36.7431940" lon="-3.7869220">
        <ele>12.0</ele>
        <time>2022-01-08T16:55:47Z</time>
      </trkpt>
      <trkpt lat="36.7431950" lon="-3.7869160">
        <ele>12.0</ele>
        <time>2022-01-08T16:55:48Z</time>
      </trkpt>
      <trkpt lat="36.7431970" lon="-3.7869110">
        <ele>12.0</ele>
        <time>2022-01-08T16:55:49Z</time>
      </trkpt>
      <trkpt lat="36.7431980" lon="-3.7869060">
        <ele>12.0</ele>
        <time>2022-01-08T16:55:50Z</time>
      </trkpt>
      <trkpt lat="36.7432000" lon="-3.7869010">
        <ele>12.0</ele>
        <time>2022-01-08T16:55:51Z</time>
      </trkpt>
      <trkpt lat="36.7432010" lon="-3.7868960">
        <ele>12.0</ele>
        <time>2022-01-08T16:55:52Z</time>
      </trkpt>
      <trkpt lat="36.7432020" lon="-3.7868910">
        <ele>12.0</ele>
        <time>2022-01-08T16:55:53Z</time>
      </trkpt>
      <trkpt lat="36.7432040" lon="-3.7868860">
        <ele>12.0</ele>
        <time>2022-01-08T16:55:54Z</time>
      </trkpt>
      <trkpt lat="36.7432050" lon="-3.7868810">
        <ele>16.0</ele>
        <time>2022-01-08T16:55:55Z</time>
      </trkpt>
      <trkpt lat="36.7431930" lon="-3.7868630">
        <ele>16.0</ele>
        <time>2022-01-08T16:55:56Z</time>
      </trkpt>
      <trkpt lat="36.7431930" lon="-3.7868630">
        <ele>16.0</ele>
        <time>2022-01-08T16:55:57Z</time>
      </trkpt>
      <trkpt lat="36.7431930" lon="-3.7868630">
        <ele>16.0</ele>
        <time>2022-01-08T16:55:58Z</time>
      </trkpt>
      <trkpt lat="36.7431930" lon="-3.7868630">
        <ele>16.0</ele>
        <time>2022-01-08T16:55:59Z</time>
      </trkpt>
      <trkpt lat="36.7431930" lon="-3.7868630">
        <ele>16.0</ele>
        <time>2022-01-08T16:56:00Z</time>
      </trkpt>
      <trkpt lat="36.7431930" lon="-3.7868630">
        <ele>16.0</ele>
        <time>2022-01-08T16:56:01Z</time>
      </trkpt>
      <trkpt lat="36.7431930" lon="-3.7868630">
        <ele>16.0</ele>
        <time>2022-01-08T16:56:02Z</time>
      </trkpt>
      <trkpt lat="36.7431930" lon="-3.7868630">
        <ele>16.0</ele>
        <time>2022-01-08T16:56:03Z</time>
      </trkpt>
      <trkpt lat="36.7431780" lon="-3.7868470">
        <ele>16.0</ele>
        <time>2022-01-08T16:56:04Z</time>
      </trkpt>
      <trkpt lat="36.7431780" lon="-3.7868470">
        <ele>18.0</ele>
        <time>2022-01-08T16:56:05Z</time>
      </trkpt>
      <trkpt lat="36.7431780" lon="-3.7868470">
        <ele>18.0</ele>
        <time>2022-01-08T16:56:06Z</time>
      </trkpt>
      <trkpt lat="36.7431620" lon="-3.7868330">
        <ele>18.0</ele>
        <time>2022-01-08T16:56:07Z</time>
      </trkpt>
      <trkpt lat="36.7431620" lon="-3.7868330">
        <ele>18.0</ele>
        <time>2022-01-08T16:56:08Z</time>
      </trkpt>
      <trkpt lat="36.7431620" lon="-3.7868330">
        <ele>18.0</ele>
        <time>2022-01-08T16:56:09Z</time>
      </trkpt>
      <trkpt lat="36.7431620" lon="-3.7868330">
        <ele>18.0</ele>
        <time>2022-01-08T16:56:10Z</time>
      </trkpt>
      <trkpt lat="36.7431470" lon="-3.7868180">
        <ele>18.0</ele>
        <time>2022-01-08T16:56:11Z</time>
      </trkpt>
      <trkpt lat="36.7431470" lon="-3.7868180">
        <ele>18.0</ele>
        <time>2022-01-08T16:56:12Z</time>
      </trkpt>
      <trkpt lat="36.7431470" lon="-3.7868180">
        <ele>18.0</ele>
        <time>2022-01-08T16:56:13Z</time>
      </trkpt>
      <trkpt lat="36.7431470" lon="-3.7868180">
        <ele>18.0</ele>
        <time>2022-01-08T16:56:14Z</time>
      </trkpt>
      <trkpt lat="36.7431470" lon="-3.7868180">
        <ele>20.0</ele>
        <time>2022-01-08T16:56:15Z</time>
      </trkpt>
      <trkpt lat="36.7431380" lon="-3.7867910">
        <ele>20.0</ele>
        <time>2022-01-08T16:56:16Z</time>
      </trkpt>
      <trkpt lat="36.7431340" lon="-3.7867880">
        <ele>20.0</ele>
        <time>2022-01-08T16:56:17Z</time>
      </trkpt>
      <trkpt lat="36.7431300" lon="-3.7867850">
        <ele>20.0</ele>
        <time>2022-01-08T16:56:18Z</time>
      </trkpt>
      <trkpt lat="36.7431260" lon="-3.7867820">
        <ele>20.0</ele>
        <time>2022-01-08T16:56:19Z</time>
      </trkpt>
      <trkpt lat="36.7431220" lon="-3.7867780">
        <ele>20.0</ele>
        <time>2022-01-08T16:56:20Z</time>
      </trkpt>
      <trkpt lat="36.7431180" lon="-3.7867750">
        <ele>20.0</ele>
        <time>2022-01-08T16:56:21Z</time>
      </trkpt>
      <trkpt lat="36.7431140" lon="-3.7867720">
        <ele>20.0</ele>
        <time>2022-01-08T16:56:22Z</time>
      </trkpt>
      <trkpt lat="36.7431100" lon="-3.7867680">
        <ele>20.0</ele>
        <time>2022-01-08T16:56:23Z</time>
      </trkpt>
      <trkpt lat="36.7431060" lon="-3.7867650">
        <ele>20.0</ele>
        <time>2022-01-08T16:56:24Z</time>
      </trkpt>
      <trkpt lat="36.7431020" lon="-3.7867620">
        <ele>24.0</ele>
        <time>2022-01-08T16:56:25Z</time>
      </trkpt>
      <trkpt lat="36.7430980" lon="-3.7867620">
        <ele>24.0</ele>
        <time>2022-01-08T16:56:26Z</time>
      </trkpt>
      <trkpt lat="36.7430940" lon="-3.7867610">
        <ele>24.0</ele>
        <time>2022-01-08T16:56:27Z</time>
      </trkpt>
      <trkpt lat="36.7430890" lon="-3.7867610">
        <ele>24.0</ele>
        <time>2022-01-08T16:56:28Z</time>
      </trkpt>
      <trkpt lat="36.7430850" lon="-3.7867610">
        <ele>24.0</ele>
        <time>2022-01-08T16:56:29Z</time>
      </trkpt>
      <trkpt lat="36.7430810" lon="-3.7867610">
        <ele>24.0</ele>
        <time>2022-01-08T16:56:30Z</time>
      </trkpt>
      <trkpt lat="36.7430760" lon="-3.7867610">
        <ele>24.0</ele>
        <time>2022-01-08T16:56:31Z</time>
      </trkpt>
      <trkpt lat="36.7430720" lon="-3.7867600">
        <ele>24.0</ele>
        <time>2022-01-08T16:56:32Z</time>
      </trkpt>
      <trkpt lat="36.7430680" lon="-3.7867600">
        <ele>24.0</ele>
        <time>2022-01-08T16:56:33Z</time>
      </trkpt>
      <trkpt lat="36.7430630" lon="-3.7867600">
        <ele>24.0</ele>
        <time>2022-01-08T16:56:34Z</time>
      </trkpt>
      <trkpt lat="36.7430590" lon="-3.7867600">
        <ele>26.0</ele>
        <time>2022-01-08T16:56:35Z</time>
      </trkpt>
      <trkpt lat="36.7430550" lon="-3.7867600">
        <ele>26.0</ele>
        <time>2022-01-08T16:56:36Z</time>
      </trkpt>
      <trkpt lat="36.7430510" lon="-3.7867590">
        <ele>26.0</ele>
        <time>2022-01-08T16:56:37Z</time>
      </trkpt>
      <trkpt lat="36.7430460" lon="-3.7867590">
        <ele>26.0</ele>
        <time>2022-01-08T16:56:38Z</time>
      </trkpt>
      <trkpt lat="36.7430420" lon="-3.7867590">
        <ele>26.0</ele>
        <time>2022-01-08T16:56:39Z</time>
      </trkpt>
      <trkpt lat="36.7430380" lon="-3.7867590">
        <ele>26.0</ele>
        <time>2022-01-08T16:56:40Z</time>
      </trkpt>
      <trkpt lat="36.7430330" lon="-3.7867580">
        <ele>26.0</ele>
        <time>2022-01-08T16:56:41Z</time>
      </trkpt>
      <trkpt lat="36.7430290" lon="-3.7867580">
        <ele>26.0</ele>
        <time>2022-01-08T16:56:42Z</time>
      </trkpt>
      <trkpt lat="36.7430250" lon="-3.7867580">
        <ele>26.0</ele>
        <time>2022-01-08T16:56:43Z</time>
      </trkpt>
      <trkpt lat="36.7430200" lon="-3.7867580">
        <ele>26.0</ele>
        <time>2022-01-08T16:56:44Z</time>
      </trkpt>
      <trkpt lat="36.7430160" lon="-3.7867580">
        <ele>28.0</ele>
        <time>2022-01-08T16:56:45Z</time>
      </trkpt>
      <trkpt lat="36.7430120" lon="-3.7868000">
        <ele>28.0</ele>
        <time>2022-01-08T16:56:46Z</time>
      </trkpt>
      <trkpt lat="36.7430120" lon="-3.7868080">
        <ele>28.0</ele>
        <time>2022-01-08T16:56:47Z</time>
      </trkpt>
      <trkpt lat="36.7430130" lon="-3.7868170">
        <ele>28.0</ele>
        <time>2022-01-08T16:56:48Z</time>
      </trkpt>
      <trkpt lat="36.7430140" lon="-3.7868250">
        <ele>28.0</ele>
        <time>2022-01-08T16:56:49Z</time>
      </trkpt>
      <trkpt lat="36.7430140" lon="-3.7868330">
        <ele>28.0</ele>
        <time>2022-01-08T16:56:50Z</time>
      </trkpt>
      <trkpt lat="36.7430150" lon="-3.7868420">
        <ele>28.0</ele>
        <time>2022-01-08T16:56:51Z</time>
      </trkpt>
      <trkpt lat="36.7430150" lon="-3.7868500">
        <ele>28.0</ele>
        <time>2022-01-08T16:56:52Z</time>
      </trkpt>
      <trkpt lat="36.7430160" lon="-3.7868580">
        <ele>28.0</ele>
        <time>2022-01-08T16:56:53Z</time>
      </trkpt>
      <trkpt lat="36.7430170" lon="-3.7868660">
        <ele>28.0</ele>
        <time>2022-01-08T16:56:54Z</time>
      </trkpt>
      <trkpt lat="36.7430170" lon="-3.7868750">
        <ele>29.0</ele>
        <time>2022-01-08T16:56:55Z</time>
      </trkpt>
      <trkpt lat="36.7430120" lon="-3.7869090">
        <ele>29.0</ele>
        <time>2022-01-08T16:56:56Z</time>
      </trkpt>
      <trkpt lat="36.7430100" lon="-3.7869160">
        <ele>29.0</ele>
        <time>2022-01-08T16:56:57Z</time>
      </trkpt>
      <trkpt lat="36.7430090" lon="-3.7869240">
        <ele>29.0</ele>
        <time>2022-01-08T16:56:58Z</time>
      </trkpt>
      <trkpt lat="36.7430080" lon="-3.7869310">
        <ele>29.0</ele>
        <time>2022-01-08T16:56:59Z</time>
      </trkpt>
      <trkpt lat="36.7430060" lon="-3.7869380">
        <ele>29.0</ele>
        <time>2022-01-08T16:57:00Z</time>
      </trkpt>
      <trkpt lat="36.7430050" lon="-3.7869450">
        <ele>29.0</ele>
        <time>2022-01-08T16:57:01Z</time>
      </trkpt>
      <trkpt lat="36.7430030" lon="-3.7869530">
        <ele>29.0</ele>
        <time>2022-01-08T16:57:02Z</time>
      </trkpt>
      <trkpt lat="36.7430020" lon="-3.7869600">
        <ele>29.0</ele>
        <time>2022-01-08T16:57:03Z</time>
      </trkpt>
      <trkpt lat="36.7430000" lon="-3.7869670">
        <ele>29.0</ele>
        <time>2022-01-08T16:57:04Z</time>
      </trkpt>
      <trkpt lat="36.7429990" lon="-3.7869750">
        <ele>29.0</ele>
        <time>2022-01-08T16:57:05Z</time>
      </trkpt>
      <trkpt lat="36.7430040" lon="-3.7870030">
        <ele>29.0</ele>
        <time>2022-01-08T16:57:06Z</time>
      </trkpt>
      <trkpt lat="36.7430010" lon="-3.7870070">
        <ele>29.0</ele>
        <time>2022-01-08T16:57:07Z</time>
      </trkpt>
      <trkpt lat="36.7429980" lon="-3.7870110">
        <ele>29.0</ele>
        <time>2022-01-08T16:57:08Z</time>
      </trkpt>
      <trkpt lat="36.7429950" lon="-3.7870160">
        <ele>29.0</ele>
        <time>2022-01-08T16:57:09Z</time>
      </trkpt>
      <trkpt lat="36.7429920" lon="-3.7870200">
        <ele>29.0</ele>
        <time>2022-01-08T16:57:10Z</time>
      </trkpt>
      <trkpt lat="36.7429890" lon="-3.7870240">
        <ele>29.0</ele>
        <time>2022-01-08T16:57:11Z</time>
      </trkpt>
      <trkpt lat="36.7429860" lon="-3.7870290">
        <ele>29.0</ele>
        <time>2022-01-08T16:57:12Z</time>
      </trkpt>
      <trkpt lat="36.7429830" lon="-3.7870330">
        <ele>29.0</ele>
        <time>2022-01-08T16:57:13Z</time>
      </trkpt>
      <trkpt lat="36.7429800" lon="-3.7870370">
        <ele>29.0</ele>
        <time>2022-01-08T16:57:14Z</time>
      </trkpt>
      <trkpt lat="36.7429770" lon="-3.7870420">
        <ele>29.0</ele>
        <time>2022-01-08T16:57:15Z</time>
      </trkpt>
      <trkpt lat="36.7429770" lon="-3.7870420">
        <ele>29.0</ele>
        <time>2022-01-08T16:57:16Z</time>
      </trkpt>
      <trkpt lat="36.7429680" lon="-3.7870630">
        <ele>29.0</ele>
        <time>2022-01-08T16:57:17Z</time>
      </trkpt>
      <trkpt lat="36.7429680" lon="-3.7870630">
        <ele>29.0</ele>
        <time>2022-01-08T16:57:18Z</time>
      </trkpt>
      <trkpt lat="36.7429680" lon="-3.7870630">
        <ele>29.0</ele>
        <time>2022-01-08T16:57:19Z</time>
      </trkpt>
      <trkpt lat="36.7429680" lon="-3.7870630">
        <ele>29.0</ele>
        <time>2022-01-08T16:57:20Z</time>
      </trkpt>
      <trkpt lat="36.7429680" lon="-3.7870630">
        <ele>29.0</ele>
        <time>2022-01-08T16:57:21Z</time>
      </trkpt>
      <trkpt lat="36.7429570" lon="-3.7870910">
        <ele>29.0</ele>
        <time>2022-01-08T16:57:22Z</time>
      </trkpt>
      <trkpt lat="36.7429570" lon="-3.7870910">
        <ele>29.0</ele>
        <time>2022-01-08T16:57:23Z</time>
      </trkpt>
      <trkpt lat="36.7429570" lon="-3.7870910">
        <ele>29.0</ele>
        <time>2022-01-08T16:57:24Z</time>
      </trkpt>
      <trkpt lat="36.7429570" lon="-3.7870910">
        <ele>29.0</ele>
        <time>2022-01-08T16:57:25Z</time>
      </trkpt>
      <trkpt lat="36.7429590" lon="-3.7870890">
        <ele>29.0</ele>
        <time>2022-01-08T16:57:26Z</time>
      </trkpt>
      <trkpt lat="36.7429610" lon="-3.7870880">
        <ele>29.0</ele>
        <time>2022-01-08T16:57:27Z</time>
      </trkpt>
      <trkpt lat="36.7429630" lon="-3.7870860">
        <ele>29.0</ele>
        <time>2022-01-08T16:57:28Z</time>
      </trkpt>
      <trkpt lat="36.7429650" lon="-3.7870850">
        <ele>29.0</ele>
        <time>2022-01-08T16:57:29Z</time>
      </trkpt>
      <trkpt lat="36.7429670" lon="-3.7870830">
        <ele>29.0</ele>
        <time>2022-01-08T16:57:30Z</time>
      </trkpt>
      <trkpt lat="36.7429680" lon="-3.7870820">
        <ele>29.0</ele>
        <time>2022-01-08T16:57:31Z</time>
      </trkpt>
      <trkpt lat="36.7429700" lon="-3.7870800">
        <ele>29.0</ele>
        <time>2022-01-08T16:57:32Z</time>
      </trkpt>
      <trkpt lat="36.7429720" lon="-3.7870790">
        <ele>29.0</ele>
        <time>2022-01-08T16:57:33Z</time>
      </trkpt>
      <trkpt lat="36.7429740" lon="-3.7870770">
        <ele>29.0</ele>
        <time>2022-01-08T16:57:34Z</time>
      </trkpt>
      <trkpt lat="36.7429760" lon="-3.7870760">
        <ele>28.0</ele>
        <time>2022-01-08T16:57:35Z</time>
      </trkpt>
      <trkpt lat="36.7429780" lon="-3.7870740">
        <ele>28.0</ele>
        <time>2022-01-08T16:57:36Z</time>
      </trkpt>
      <trkpt lat="36.7429800" lon="-3.7870730">
        <ele>28.0</ele>
        <time>2022-01-08T16:57:37Z</time>
      </trkpt>
      <trkpt lat="36.7429820" lon="-3.7870710">
        <ele>28.0</ele>
        <time>2022-01-08T16:57:38Z</time>
      </trkpt>
      <trkpt lat="36.7429840" lon="-3.7870700">
        <ele>28.0</ele>
        <time>2022-01-08T16:57:39Z</time>
      </trkpt>
      <trkpt lat="36.7429860" lon="-3.7870680">
        <ele>28.0</ele>
        <time>2022-01-08T16:57:40Z</time>
      </trkpt>
      <trkpt lat="36.7429870" lon="-3.7870670">
        <ele>28.0</ele>
        <time>2022-01-08T16:57:41Z</time>
      </trkpt>
      <trkpt lat="36.7429890" lon="-3.7870650">
        <ele>28.0</ele>
        <time>2022-01-08T16:57:42Z</time>
      </trkpt>
      <trkpt lat="36.7429910" lon="-3.7870640">
        <ele>28.0</ele>
        <time>2022-01-08T16:57:43Z</time>
      </trkpt>
      <trkpt lat="36.7429930" lon="-3.7870620">
        <ele>28.0</ele>
        <time>2022-01-08T16:57:44Z</time>
      </trkpt>
      <trkpt lat="36.7429950" lon="-3.7870610">
        <ele>29.0</ele>
        <time>2022-01-08T16:57:45Z</time>
      </trkpt>
      <trkpt lat="36.7429950" lon="-3.7870610">
        <ele>29.0</ele>
        <time>2022-01-08T16:57:46Z</time>
      </trkpt>
      <trkpt lat="36.7429950" lon="-3.7870610">
        <ele>29.0</ele>
        <time>2022-01-08T16:57:47Z</time>
      </trkpt>
      <trkpt lat="36.7429950" lon="-3.7870610">
        <ele>29.0</ele>
        <time>2022-01-08T16:57:48Z</time>
      </trkpt>
      <trkpt lat="36.7429950" lon="-3.7870610">
        <ele>29.0</ele>
        <time>2022-01-08T16:57:49Z</time>
      </trkpt>
      <trkpt lat="36.7429950" lon="-3.7870610">
        <ele>29.0</ele>
        <time>2022-01-08T16:57:50Z</time>
      </trkpt>
      <trkpt lat="36.7429950" lon="-3.7870610">
        <ele>29.0</ele>
        <time>2022-01-08T16:57:51Z</time>
      </trkpt>
      <trkpt lat="36.7429950" lon="-3.7870610">
        <ele>29.0</ele>
        <time>2022-01-08T16:57:52Z</time>
      </trkpt>
      <trkpt lat="36.7429950" lon="-3.7870610">
        <ele>29.0</ele>
        <time>2022-01-08T16:57:53Z</time>
      </trkpt>
      <trkpt lat="36.7429950" lon="-3.7870610">
        <ele>29.0</ele>
        <time>2022-01-08T16:57:54Z</time>
      </trkpt>
      <trkpt lat="36.7429950" lon="-3.7870610">
        <ele>29.0</ele>
        <time>2022-01-08T16:57:55Z</time>
      </trkpt>
      <trkpt lat="36.7429950" lon="-3.7870610">
        <ele>29.0</ele>
        <time>2022-01-08T16:57:56Z</time>
      </trkpt>
      <trkpt lat="36.7429730" lon="-3.7870570">
        <ele>29.0</ele>
        <time>2022-01-08T16:57:57Z</time>
      </trkpt>
      <trkpt lat="36.7429730" lon="-3.7870570">
        <ele>29.0</ele>
        <time>2022-01-08T16:57:58Z</time>
      </trkpt>
      <trkpt lat="36.7429730" lon="-3.7870570">
        <ele>29.0</ele>
        <time>2022-01-08T16:57:59Z</time>
      </trkpt>
      <trkpt lat="36.7429730" lon="-3.7870570">
        <ele>29.0</ele>
        <time>2022-01-08T16:58:00Z</time>
      </trkpt>
      <trkpt lat="36.7429730" lon="-3.7870570">
        <ele>29.0</ele>
        <time>2022-01-08T16:58:01Z</time>
      </trkpt>
      <trkpt lat="36.7429730" lon="-3.7870570">
        <ele>29.0</ele>
        <time>2022-01-08T16:58:02Z</time>
      </trkpt>
      <trkpt lat="36.7429730" lon="-3.7870570">
        <ele>29.0</ele>
        <time>2022-01-08T16:58:03Z</time>
      </trkpt>
      <trkpt lat="36.7429730" lon="-3.7870570">
        <ele>29.0</ele>
        <time>2022-01-08T16:58:04Z</time>
      </trkpt>
      <trkpt lat="36.7429730" lon="-3.7870570">
        <ele>29.0</ele>
        <time>2022-01-08T16:58:05Z</time>
      </trkpt>
      <trkpt lat="36.7429690" lon="-3.7870630">
        <ele>29.0</ele>
        <time>2022-01-08T16:58:06Z</time>
      </trkpt>
      <trkpt lat="36.7429650" lon="-3.7870690">
        <ele>29.0</ele>
        <time>2022-01-08T16:58:07Z</time>
      </trkpt>
      <trkpt lat="36.7429610" lon="-3.7870760">
        <ele>29.0</ele>
        <time>2022-01-08T16:58:08Z</time>
      </trkpt>
      <trkpt lat="36.7429570" lon="-3.7870820">
        <ele>29.0</ele>
        <time>2022-01-08T16:58:09Z</time>
      </trkpt>
      <trkpt lat="36.7429530" lon="-3.7870880">
        <ele>29.0</ele>
        <time>2022-01-08T16:58:10Z</time>
      </trkpt>
      <trkpt lat="36.7429490" lon="-3.7870950">
        <ele>29.0</ele>
        <time>2022-01-08T16:58:11Z</time>
      </trkpt>
      <trkpt lat="36.7429450" lon="-3.7871010">
        <ele>29.0</ele>
        <time>2022-01-08T16:58:12Z</time>
      </trkpt>
      <trkpt lat="36.7429410" lon="-3.7871070">
        <ele>29.0</ele>
        <time>2022-01-08T16:58:13Z</time>
      </trkpt>
      <trkpt lat="36.7429370" lon="-3.7871130">
        <ele>29.0</ele>
        <time>2022-01-08T16:58:14Z</time>
      </trkpt>
      <trkpt lat="36.7429330" lon="-3.7871200">
        <ele>29.0</ele>
        <time>2022-01-08T16:58:15Z</time>
      </trkpt>
      <trkpt lat="36.7429330" lon="-3.7871200">
        <ele>29.0</ele>
        <time>2022-01-08T16:58:16Z</time>
      </trkpt>
      <trkpt lat="36.7429330" lon="-3.7871200">
        <ele>29.0</ele>
        <time>2022-01-08T16:58:17Z</time>
      </trkpt>
      <trkpt lat="36.7429330" lon="-3.7871200">
        <ele>29.0</ele>
        <time>2022-01-08T16:58:18Z</time>
      </trkpt>
      <trkpt lat="36.7429330" lon="-3.7871200">
        <ele>29.0</ele>
        <time>2022-01-08T16:58:19Z</time>
      </trkpt>
      <trkpt lat="36.7429330" lon="-3.7871200">
        <ele>29.0</ele>
        <time>2022-01-08T16:58:20Z</time>
      </trkpt>
      <trkpt lat="36.7429330" lon="-3.7871200">
        <ele>29.0</ele>
        <time>2022-01-08T16:58:21Z</time>
      </trkpt>
      <trkpt lat="36.7429330" lon="-3.7871200">
        <ele>29.0</ele>
        <time>2022-01-08T16:58:22Z</time>
      </trkpt>
      <trkpt lat="36.7429330" lon="-3.7871200">
        <ele>29.0</ele>
        <time>2022-01-08T16:58:23Z</time>
      </trkpt>
      <trkpt lat="36.7429330" lon="-3.7871200">
        <ele>29.0</ele>
        <time>2022-01-08T16:58:24Z</time>
      </trkpt>
      <trkpt lat="36.7429330" lon="-3.7871200">
        <ele>29.0</ele>
        <time>2022-01-08T16:58:25Z</time>
      </trkpt>
      <trkpt lat="36.7429330" lon="-3.7871200">
        <ele>29.0</ele>
        <time>2022-01-08T16:58:26Z</time>
      </trkpt>
      <trkpt lat="36.7429330" lon="-3.7871200">
        <ele>29.0</ele>
        <time>2022-01-08T16:58:27Z</time>
      </trkpt>
      <trkpt lat="36.7429330" lon="-3.7871200">
        <ele>29.0</ele>
        <time>2022-01-08T16:58:28Z</time>
      </trkpt>
      <trkpt lat="36.7429330" lon="-3.7871200">
        <ele>29.0</ele>
        <time>2022-01-08T16:58:29Z</time>
      </trkpt>
      <trkpt lat="36.7429330" lon="-3.7871200">
        <ele>29.0</ele>
        <time>2022-01-08T16:58:30Z</time>
      </trkpt>
      <trkpt lat="36.7429330" lon="-3.7871200">
        <ele>29.0</ele>
        <time>2022-01-08T16:58:31Z</time>
      </trkpt>
      <trkpt lat="36.7429330" lon="-3.7871200">
        <ele>29.0</ele>
        <time>2022-01-08T16:58:32Z</time>
      </trkpt>
      <trkpt lat="36.7429330" lon="-3.7871200">
        <ele>29.0</ele>
        <time>2022-01-08T16:58:33Z</time>
      </trkpt>
      <trkpt lat="36.7429330" lon="-3.7871200">
        <ele>29.0</ele>
        <time>2022-01-08T16:58:34Z</time>
      </trkpt>
      <trkpt lat="36.7429330" lon="-3.7871200">
        <ele>28.0</ele>
        <time>2022-01-08T16:58:35Z</time>
      </trkpt>
      <trkpt lat="36.7429330" lon="-3.7871200">
        <ele>28.0</ele>
        <time>2022-01-08T16:58:36Z</time>
      </trkpt>
      <trkpt lat="36.7429330" lon="-3.7871200">
        <ele>28.0</ele>
        <time>2022-01-08T16:58:37Z</time>
      </trkpt>
      <trkpt lat="36.7429330" lon="-3.7871200">
        <ele>28.0</ele>
        <time>2022-01-08T16:58:38Z</time>
      </trkpt>
      <trkpt lat="36.7429330" lon="-3.7871200">
        <ele>28.0</ele>
        <time>2022-01-08T16:58:39Z</time>
      </trkpt>
      <trkpt lat="36.7429330" lon="-3.7871200">
        <ele>28.0</ele>
        <time>2022-01-08T16:58:40Z</time>
      </trkpt>
      <trkpt lat="36.7429330" lon="-3.7871200">
        <ele>28.0</ele>
        <time>2022-01-08T16:58:41Z</time>
      </trkpt>
      <trkpt lat="36.7429330" lon="-3.7871200">
        <ele>28.0</ele>
        <time>2022-01-08T16:58:42Z</time>
      </trkpt>
      <trkpt lat="36.7429330" lon="-3.7871200">
        <ele>28.0</ele>
        <time>2022-01-08T16:58:43Z</time>
      </trkpt>
      <trkpt lat="36.7429330" lon="-3.7871200">
        <ele>28.0</ele>
        <time>2022-01-08T16:58:44Z</time>
      </trkpt>
      <trkpt lat="36.7429330" lon="-3.7871200">
        <ele>27.0</ele>
        <time>2022-01-08T16:58:45Z</time>
      </trkpt>
      <trkpt lat="36.7429330" lon="-3.7871200">
        <ele>27.0</ele>
        <time>2022-01-08T16:58:46Z</time>
      </trkpt>
      <trkpt lat="36.7429330" lon="-3.7871200">
        <ele>27.0</ele>
        <time>2022-01-08T16:58:47Z</time>
      </trkpt>
      <trkpt lat="36.7429330" lon="-3.7871200">
        <ele>27.0</ele>
        <time>2022-01-08T16:58:48Z</time>
      </trkpt>
      <trkpt lat="36.7429330" lon="-3.7871200">
        <ele>27.0</ele>
        <time>2022-01-08T16:58:49Z</time>
      </trkpt>
      <trkpt lat="36.7429330" lon="-3.7871200">
        <ele>27.0</ele>
        <time>2022-01-08T16:58:50Z</time>
      </trkpt>
      <trkpt lat="36.7429330" lon="-3.7871200">
        <ele>27.0</ele>
        <time>2022-01-08T16:58:51Z</time>
      </trkpt>
      <trkpt lat="36.7429330" lon="-3.7871200">
        <ele>27.0</ele>
        <time>2022-01-08T16:58:52Z</time>
      </trkpt>
      <trkpt lat="36.7429330" lon="-3.7871200">
        <ele>27.0</ele>
        <time>2022-01-08T16:58:53Z</time>
      </trkpt>
      <trkpt lat="36.7429220" lon="-3.7870980">
        <ele>27.0</ele>
        <time>2022-01-08T16:58:54Z</time>
      </trkpt>
      <trkpt lat="36.7429220" lon="-3.7870980">
        <ele>27.0</ele>
        <time>2022-01-08T16:58:55Z</time>
      </trkpt>
      <trkpt lat="36.7429240" lon="-3.7870960">
        <ele>27.0</ele>
        <time>2022-01-08T16:58:56Z</time>
      </trkpt>
      <trkpt lat="36.7429260" lon="-3.7870930">
        <ele>27.0</ele>
        <time>2022-01-08T16:58:57Z</time>
      </trkpt>
      <trkpt lat="36.7429280" lon="-3.7870910">
        <ele>27.0</ele>
        <time>2022-01-08T16:58:58Z</time>
      </trkpt>
      <trkpt lat="36.7429300" lon="-3.7870890">
        <ele>27.0</ele>
        <time>2022-01-08T16:58:59Z</time>
      </trkpt>
      <trkpt lat="36.7429320" lon="-3.7870870">
        <ele>27.0</ele>
        <time>2022-01-08T16:59:00Z</time>
      </trkpt>
      <trkpt lat="36.7429340" lon="-3.7870850">
        <ele>27.0</ele>
        <time>2022-01-08T16:59:01Z</time>
      </trkpt>
      <trkpt lat="36.7429360" lon="-3.7870820">
        <ele>27.0</ele>
        <time>2022-01-08T16:59:02Z</time>
      </trkpt>
      <trkpt lat="36.7429380" lon="-3.7870800">
        <ele>27.0</ele>
        <time>2022-01-08T16:59:03Z</time>
      </trkpt>
      <trkpt lat="36.7429400" lon="-3.7870780">
        <ele>27.0</ele>
        <time>2022-01-08T16:59:04Z</time>
      </trkpt>
      <trkpt lat="36.7429420" lon="-3.7870760">
        <ele>27.0</ele>
        <time>2022-01-08T16:59:05Z</time>
      </trkpt>
      <trkpt lat="36.7429440" lon="-3.7870740">
        <ele>27.0</ele>
        <time>2022-01-08T16:59:06Z</time>
      </trkpt>
      <trkpt lat="36.7429450" lon="-3.7870710">
        <ele>27.0</ele>
        <time>2022-01-08T16:59:07Z</time>
      </trkpt>
      <trkpt lat="36.7429470" lon="-3.7870690">
        <ele>27.0</ele>
        <time>2022-01-08T16:59:08Z</time>
      </trkpt>
      <trkpt lat="36.7429490" lon="-3.7870670">
        <ele>27.0</ele>
        <time>2022-01-08T16:59:09Z</time>
      </trkpt>
      <trkpt lat="36.7429510" lon="-3.7870650">
        <ele>27.0</ele>
        <time>2022-01-08T16:59:10Z</time>
      </trkpt>
      <trkpt lat="36.7429530" lon="-3.7870620">
        <ele>27.0</ele>
        <time>2022-01-08T16:59:11Z</time>
      </trkpt>
      <trkpt lat="36.7429550" lon="-3.7870600">
        <ele>27.0</ele>
        <time>2022-01-08T16:59:12Z</time>
      </trkpt>
      <trkpt lat="36.7429570" lon="-3.7870580">
        <ele>27.0</ele>
        <time>2022-01-08T16:59:13Z</time>
      </trkpt>
      <trkpt lat="36.7429590" lon="-3.7870560">
        <ele>27.0</ele>
        <time>2022-01-08T16:59:14Z</time>
      </trkpt>
      <trkpt lat="36.7429610" lon="-3.7870540">
        <ele>26.0</ele>
        <time>2022-01-08T16:59:15Z</time>
      </trkpt>
      <trkpt lat="36.7429630" lon="-3.7870510">
        <ele>26.0</ele>
        <time>2022-01-08T16:59:16Z</time>
      </trkpt>
      <trkpt lat="36.7429650" lon="-3.7870490">
        <ele>26.0</ele>
        <time>2022-01-08T16:59:17Z</time>
      </trkpt>
      <trkpt lat="36.7429660" lon="-3.7870470">
        <ele>26.0</ele>
        <time>2022-01-08T16:59:18Z</time>
      </trkpt>
      <trkpt lat="36.7429680" lon="-3.7870450">
        <ele>26.0</ele>
        <time>2022-01-08T16:59:19Z</time>
      </trkpt>
      <trkpt lat="36.7429700" lon="-3.7870430">
        <ele>26.0</ele>
        <time>2022-01-08T16:59:20Z</time>
      </trkpt>
      <trkpt lat="36.7429720" lon="-3.7870400">
        <ele>26.0</ele>
        <time>2022-01-08T16:59:21Z</time>
      </trkpt>
      <trkpt lat="36.7429740" lon="-3.7870380">
        <ele>27.0</ele>
        <time>2022-01-08T16:59:22Z</time>
      </trkpt>
      <trkpt lat="36.7429760" lon="-3.7870360">
        <ele>27.0</ele>
        <time>2022-01-08T17:17:44Z</time>
      </trkpt>
      <trkpt lat="36.7429780" lon="-3.7870340">
        <ele>31.0</ele>
        <time>2022-01-08T17:17:45Z</time>
      </trkpt>
      <trkpt lat="36.7429800" lon="-3.7870310">
        <ele>31.0</ele>
        <time>2022-01-08T17:17:46Z</time>
      </trkpt>
      <trkpt lat="36.7429820" lon="-3.7870290">
        <ele>31.0</ele>
        <time>2022-01-08T17:17:47Z</time>
      </trkpt>
      <trkpt lat="36.7429840" lon="-3.7870270">
        <ele>31.0</ele>
        <time>2022-01-08T17:17:48Z</time>
      </trkpt>
      <trkpt lat="36.7429860" lon="-3.7870250">
        <ele>31.0</ele>
        <time>2022-01-08T17:17:49Z</time>
      </trkpt>
      <trkpt lat="36.7429870" lon="-3.7870230">
        <ele>31.0</ele>
        <time>2022-01-08T17:17:50Z</time>
      </trkpt>
      <trkpt lat="36.7429890" lon="-3.7870200">
        <ele>31.0</ele>
        <time>2022-01-08T17:17:51Z</time>
      </trkpt>
      <trkpt lat="36.7429910" lon="-3.7870180">
        <ele>31.0</ele>
        <time>2022-01-08T17:17:52Z</time>
      </trkpt>
      <trkpt lat="36.7429930" lon="-3.7870160">
        <ele>31.0</ele>
        <time>2022-01-08T17:17:53Z</time>
      </trkpt>
      <trkpt lat="36.7429930" lon="-3.7870080">
        <ele>31.0</ele>
        <time>2022-01-08T17:17:54Z</time>
      </trkpt>
      <trkpt lat="36.7429930" lon="-3.7870010">
        <ele>31.0</ele>
        <time>2022-01-08T17:17:55Z</time>
      </trkpt>
      <trkpt lat="36.7429930" lon="-3.7869930">
        <ele>31.0</ele>
        <time>2022-01-08T17:17:56Z</time>
      </trkpt>
      <trkpt lat="36.7429930" lon="-3.7869850">
        <ele>31.0</ele>
        <time>2022-01-08T17:17:57Z</time>
      </trkpt>
      <trkpt lat="36.7429930" lon="-3.7869780">
        <ele>31.0</ele>
        <time>2022-01-08T17:17:58Z</time>
      </trkpt>
      <trkpt lat="36.7429930" lon="-3.7869700">
        <ele>31.0</ele>
        <time>2022-01-08T17:17:59Z</time>
      </trkpt>
      <trkpt lat="36.7429930" lon="-3.7869630">
        <ele>31.0</ele>
        <time>2022-01-08T17:18:00Z</time>
      </trkpt>
      <trkpt lat="36.7429930" lon="-3.7869550">
        <ele>31.0</ele>
        <time>2022-01-08T17:18:01Z</time>
      </trkpt>
      <trkpt lat="36.7429930" lon="-3.7869470">
        <ele>31.0</ele>
        <time>2022-01-08T17:18:02Z</time>
      </trkpt>
      <trkpt lat="36.7429930" lon="-3.7869400">
        <ele>31.0</ele>
        <time>2022-01-08T17:18:03Z</time>
      </trkpt>
      <trkpt lat="36.7430000" lon="-3.7869050">
        <ele>31.0</ele>
        <time>2022-01-08T17:18:04Z</time>
      </trkpt>
      <trkpt lat="36.7430020" lon="-3.7868940">
        <ele>31.0</ele>
        <time>2022-01-08T17:18:05Z</time>
      </trkpt>
      <trkpt lat="36.7430050" lon="-3.7868830">
        <ele>31.0</ele>
        <time>2022-01-08T17:18:06Z</time>
      </trkpt>
      <trkpt lat="36.7430070" lon="-3.7868730">
        <ele>31.0</ele>
        <time>2022-01-08T17:18:07Z</time>
      </trkpt>
      <trkpt lat="36.7430090" lon="-3.7868620">
        <ele>31.0</ele>
        <time>2022-01-08T17:18:08Z</time>
      </trkpt>
      <trkpt lat="36.7430110" lon="-3.7868510">
        <ele>31.0</ele>
        <time>2022-01-08T17:18:09Z</time>
      </trkpt>
      <trkpt lat="36.7430140" lon="-3.7868410">
        <ele>31.0</ele>
        <time>2022-01-08T17:18:10Z</time>
      </trkpt>
      <trkpt lat="36.7430160" lon="-3.7868300">
        <ele>31.0</ele>
        <time>2022-01-08T17:18:11Z</time>
      </trkpt>
      <trkpt lat="36.7430180" lon="-3.7868190">
        <ele>31.0</ele>
        <time>2022-01-08T17:18:12Z</time>
      </trkpt>
      <trkpt lat="36.7430200" lon="-3.7868090">
        <ele>31.0</ele>
        <time>2022-01-08T17:18:13Z</time>
      </trkpt>
      <trkpt lat="36.7430260" lon="-3.7868100">
        <ele>31.0</ele>
        <time>2022-01-08T17:18:14Z</time>
      </trkpt>
      <trkpt lat="36.7430310" lon="-3.7868110">
        <ele>31.0</ele>
        <time>2022-01-08T17:18:15Z</time>
      </trkpt>
      <trkpt lat="36.7430360" lon="-3.7868120">
        <ele>31.0</ele>
        <time>2022-01-08T17:18:16Z</time>
      </trkpt>
      <trkpt lat="36.7430420" lon="-3.7868130">
        <ele>31.0</ele>
        <time>2022-01-08T17:18:17Z</time>
      </trkpt>
      <trkpt lat="36.7430470" lon="-3.7868140">
        <ele>31.0</ele>
        <time>2022-01-08T17:18:18Z</time>
      </trkpt>
      <trkpt lat="36.7430530" lon="-3.7868150">
        <ele>31.0</ele>
        <time>2022-01-08T17:18:19Z</time>
      </trkpt>
      <trkpt lat="36.7430580" lon="-3.7868160">
        <ele>31.0</ele>
        <time>2022-01-08T17:18:20Z</time>
      </trkpt>
      <trkpt lat="36.7430630" lon="-3.7868170">
        <ele>31.0</ele>
        <time>2022-01-08T17:18:21Z</time>
      </trkpt>
      <trkpt lat="36.7430690" lon="-3.7868180">
        <ele>31.0</ele>
        <time>2022-01-08T17:18:22Z</time>
      </trkpt>
      <trkpt lat="36.7430740" lon="-3.7868190">
        <ele>31.0</ele>
        <time>2022-01-08T17:18:23Z</time>
      </trkpt>
      <trkpt lat="36.7430800" lon="-3.7868180">
        <ele>31.0</ele>
        <time>2022-01-08T17:18:24Z</time>
      </trkpt>
      <trkpt lat="36.7430850" lon="-3.7868180">
        <ele>31.0</ele>
        <time>2022-01-08T17:18:25Z</time>
      </trkpt>
      <trkpt lat="36.7430910" lon="-3.7868180">
        <ele>31.0</ele>
        <time>2022-01-08T17:18:26Z</time>
      </trkpt>
      <trkpt lat="36.7430960" lon="-3.7868180">
        <ele>31.0</ele>
        <time>2022-01-08T17:18:27Z</time>
      </trkpt>
      <trkpt lat="36.7431020" lon="-3.7868180">
        <ele>31.0</ele>
        <time>2022-01-08T17:18:28Z</time>
      </trkpt>
      <trkpt lat="36.7431070" lon="-3.7868170">
        <ele>31.0</ele>
        <time>2022-01-08T17:18:29Z</time>
      </trkpt>
      <trkpt lat="36.7431130" lon="-3.7868170">
        <ele>31.0</ele>
        <time>2022-01-08T17:18:30Z</time>
      </trkpt>
      <trkpt lat="36.7431180" lon="-3.7868170">
        <ele>31.0</ele>
        <time>2022-01-08T17:18:31Z</time>
      </trkpt>
      <trkpt lat="36.7431240" lon="-3.7868170">
        <ele>31.0</ele>
        <time>2022-01-08T17:18:32Z</time>
      </trkpt>
      <trkpt lat="36.7431290" lon="-3.7868170">
        <ele>31.0</ele>
        <time>2022-01-08T17:18:33Z</time>
      </trkpt>
      <trkpt lat="36.7431330" lon="-3.7868230">
        <ele>31.0</ele>
        <time>2022-01-08T17:18:34Z</time>
      </trkpt>
      <trkpt lat="36.7431370" lon="-3.7868290">
        <ele>31.0</ele>
        <time>2022-01-08T17:18:35Z</time>
      </trkpt>
      <trkpt lat="36.7431400" lon="-3.7868360">
        <ele>31.0</ele>
        <time>2022-01-08T17:18:36Z</time>
      </trkpt>
      <trkpt lat="36.7431440" lon="-3.7868420">
        <ele>31.0</ele>
        <time>2022-01-08T17:18:37Z</time>
      </trkpt>
      <trkpt lat="36.7431480" lon="-3.7868490">
        <ele>31.0</ele>
        <time>2022-01-08T17:18:38Z</time>
      </trkpt>
      <trkpt lat="36.7431520" lon="-3.7868550">
        <ele>31.0</ele>
        <time>2022-01-08T17:18:39Z</time>
      </trkpt>
      <trkpt lat="36.7431560" lon="-3.7868610">
        <ele>31.0</ele>
        <time>2022-01-08T17:18:40Z</time>
      </trkpt>
      <trkpt lat="36.7431590" lon="-3.7868680">
        <ele>31.0</ele>
        <time>2022-01-08T17:18:41Z</time>
      </trkpt>
      <trkpt lat="36.7431630" lon="-3.7868740">
        <ele>31.0</ele>
        <time>2022-01-08T17:18:42Z</time>
      </trkpt>
      <trkpt lat="36.7431670" lon="-3.7868810">
        <ele>31.0</ele>
        <time>2022-01-08T17:18:43Z</time>
      </trkpt>
      <trkpt lat="36.7431670" lon="-3.7868810">
        <ele>31.0</ele>
        <time>2022-01-08T17:18:44Z</time>
      </trkpt>
      <trkpt lat="36.7431710" lon="-3.7869060">
        <ele>31.0</ele>
        <time>2022-01-08T17:18:45Z</time>
      </trkpt>
      <trkpt lat="36.7431710" lon="-3.7869060">
        <ele>31.0</ele>
        <time>2022-01-08T17:18:46Z</time>
      </trkpt>
      <trkpt lat="36.7431810" lon="-3.7869250">
        <ele>31.0</ele>
        <time>2022-01-08T17:18:47Z</time>
      </trkpt>
      <trkpt lat="36.7431810" lon="-3.7869250">
        <ele>31.0</ele>
        <time>2022-01-08T17:18:48Z</time>
      </trkpt>
      <trkpt lat="36.7431810" lon="-3.7869250">
        <ele>31.0</ele>
        <time>2022-01-08T17:18:49Z</time>
      </trkpt>
      <trkpt lat="36.7431810" lon="-3.7869250">
        <ele>31.0</ele>
        <time>2022-01-08T17:18:50Z</time>
      </trkpt>
      <trkpt lat="36.7431810" lon="-3.7869250">
        <ele>31.0</ele>
        <time>2022-01-08T17:18:51Z</time>
      </trkpt>
      <trkpt lat="36.7431810" lon="-3.7869250">
        <ele>31.0</ele>
        <time>2022-01-08T17:18:52Z</time>
      </trkpt>
      <trkpt lat="36.7431810" lon="-3.7869250">
        <ele>22.0</ele>
        <time>2022-01-08T17:18:53Z</time>
      </trkpt>
      <trkpt lat="36.7431850" lon="-3.7869260">
        <ele>22.0</ele>
        <time>2022-01-08T17:18:54Z</time>
      </trkpt>
      <trkpt lat="36.7431890" lon="-3.7869280">
        <ele>22.0</ele>
        <time>2022-01-08T17:18:55Z</time>
      </trkpt>
      <trkpt lat="36.7431940" lon="-3.7869300">
        <ele>22.0</ele>
        <time>2022-01-08T17:18:56Z</time>
      </trkpt>
      <trkpt lat="36.7431980" lon="-3.7869320">
        <ele>22.0</ele>
        <time>2022-01-08T17:18:57Z</time>
      </trkpt>
      <trkpt lat="36.7432020" lon="-3.7869340">
        <ele>22.0</ele>
        <time>2022-01-08T17:18:58Z</time>
      </trkpt>
      <trkpt lat="36.7432060" lon="-3.7869350">
        <ele>22.0</ele>
        <time>2022-01-08T17:18:59Z</time>
      </trkpt>
      <trkpt lat="36.7432110" lon="-3.7869370">
        <ele>22.0</ele>
        <time>2022-01-08T17:19:00Z</time>
      </trkpt>
      <trkpt lat="36.7432150" lon="-3.7869390">
        <ele>22.0</ele>
        <time>2022-01-08T17:19:01Z</time>
      </trkpt>
      <trkpt lat="36.7432190" lon="-3.7869410">
        <ele>22.0</ele>
        <time>2022-01-08T17:19:02Z</time>
      </trkpt>
      <trkpt lat="36.7432230" lon="-3.7869430">
        <ele>20.0</ele>
        <time>2022-01-08T17:19:03Z</time>
      </trkpt>
      <trkpt lat="36.7432240" lon="-3.7869450">
        <ele>20.0</ele>
        <time>2022-01-08T17:19:04Z</time>
      </trkpt>
      <trkpt lat="36.7432240" lon="-3.7869480">
        <ele>20.0</ele>
        <time>2022-01-08T17:19:05Z</time>
      </trkpt>
      <trkpt lat="36.7432240" lon="-3.7869510">
        <ele>20.0</ele>
        <time>2022-01-08T17:19:06Z</time>
      </trkpt>
      <trkpt lat="36.7432250" lon="-3.7869540">
        <ele>20.0</ele>
        <time>2022-01-08T17:19:07Z</time>
      </trkpt>
      <trkpt lat="36.7432250" lon="-3.7869570">
        <ele>20.0</ele>
        <time>2022-01-08T17:19:08Z</time>
      </trkpt>
      <trkpt lat="36.7432250" lon="-3.7869590">
        <ele>20.0</ele>
        <time>2022-01-08T17:19:09Z</time>
      </trkpt>
      <trkpt lat="36.7432260" lon="-3.7869620">
        <ele>20.0</ele>
        <time>2022-01-08T17:19:10Z</time>
      </trkpt>
      <trkpt lat="36.7432260" lon="-3.7869650">
        <ele>20.0</ele>
        <time>2022-01-08T17:19:11Z</time>
      </trkpt>
      <trkpt lat="36.7432270" lon="-3.7869680">
        <ele>20.0</ele>
        <time>2022-01-08T17:19:12Z</time>
      </trkpt>
      <trkpt lat="36.7432270" lon="-3.7869700">
        <ele>19.0</ele>
        <time>2022-01-08T17:19:13Z</time>
      </trkpt>
      <trkpt lat="36.7432270" lon="-3.7869730">
        <ele>19.0</ele>
        <time>2022-01-08T17:19:14Z</time>
      </trkpt>
      <trkpt lat="36.7432280" lon="-3.7869760">
        <ele>19.0</ele>
        <time>2022-01-08T17:19:15Z</time>
      </trkpt>
      <trkpt lat="36.7432280" lon="-3.7869790">
        <ele>19.0</ele>
        <time>2022-01-08T17:19:16Z</time>
      </trkpt>
      <trkpt lat="36.7432290" lon="-3.7869820">
        <ele>19.0</ele>
        <time>2022-01-08T17:19:17Z</time>
      </trkpt>
      <trkpt lat="36.7432290" lon="-3.7869840">
        <ele>19.0</ele>
        <time>2022-01-08T17:19:18Z</time>
      </trkpt>
      <trkpt lat="36.7432290" lon="-3.7869870">
        <ele>19.0</ele>
        <time>2022-01-08T17:19:19Z</time>
      </trkpt>
      <trkpt lat="36.7432300" lon="-3.7869900">
        <ele>19.0</ele>
        <time>2022-01-08T17:19:20Z</time>
      </trkpt>
      <trkpt lat="36.7432300" lon="-3.7869930">
        <ele>19.0</ele>
        <time>2022-01-08T17:19:21Z</time>
      </trkpt>
      <trkpt lat="36.7432300" lon="-3.7869950">
        <ele>19.0</ele>
        <time>2022-01-08T17:19:22Z</time>
      </trkpt>
      <trkpt lat="36.7432310" lon="-3.7869980">
        <ele>17.0</ele>
        <time>2022-01-08T17:19:23Z</time>
      </trkpt>
      <trkpt lat="36.7432310" lon="-3.7870010">
        <ele>17.0</ele>
        <time>2022-01-08T17:19:24Z</time>
      </trkpt>
      <trkpt lat="36.7432320" lon="-3.7870040">
        <ele>17.0</ele>
        <time>2022-01-08T17:19:25Z</time>
      </trkpt>
      <trkpt lat="36.7432320" lon="-3.7870070">
        <ele>17.0</ele>
        <time>2022-01-08T17:19:26Z</time>
      </trkpt>
      <trkpt lat="36.7432320" lon="-3.7870090">
        <ele>17.0</ele>
        <time>2022-01-08T17:19:27Z</time>
      </trkpt>
      <trkpt lat="36.7432330" lon="-3.7870120">
        <ele>17.0</ele>
        <time>2022-01-08T17:19:28Z</time>
      </trkpt>
      <trkpt lat="36.7432330" lon="-3.7870150">
        <ele>17.0</ele>
        <time>2022-01-08T17:19:29Z</time>
      </trkpt>
      <trkpt lat="36.7432330" lon="-3.7870180">
        <ele>17.0</ele>
        <time>2022-01-08T17:19:30Z</time>
      </trkpt>
      <trkpt lat="36.7432340" lon="-3.7870210">
        <ele>17.0</ele>
        <time>2022-01-08T17:19:31Z</time>
      </trkpt>
      <trkpt lat="36.7432340" lon="-3.7870230">
        <ele>17.0</ele>
        <time>2022-01-08T17:19:32Z</time>
      </trkpt>
      <trkpt lat="36.7432350" lon="-3.7870260">
        <ele>15.0</ele>
        <time>2022-01-08T17:19:33Z</time>
      </trkpt>
      <trkpt lat="36.7432350" lon="-3.7870290">
        <ele>15.0</ele>
        <time>2022-01-08T17:19:34Z</time>
      </trkpt>
      <trkpt lat="36.7432350" lon="-3.7870320">
        <ele>15.0</ele>
        <time>2022-01-08T17:19:35Z</time>
      </trkpt>
      <trkpt lat="36.7432360" lon="-3.7870340">
        <ele>15.0</ele>
        <time>2022-01-08T17:19:36Z</time>
      </trkpt>
      <trkpt lat="36.7432360" lon="-3.7870370">
        <ele>15.0</ele>
        <time>2022-01-08T17:19:37Z</time>
      </trkpt>
      <trkpt lat="36.7432370" lon="-3.7870400">
        <ele>15.0</ele>
        <time>2022-01-08T17:19:38Z</time>
      </trkpt>
      <trkpt lat="36.7432370" lon="-3.7870430">
        <ele>15.0</ele>
        <time>2022-01-08T17:19:39Z</time>
      </trkpt>
      <trkpt lat="36.7432370" lon="-3.7870460">
        <ele>15.0</ele>
        <time>2022-01-08T17:19:40Z</time>
      </trkpt>
      <trkpt lat="36.7432380" lon="-3.7870480">
        <ele>15.0</ele>
        <time>2022-01-08T17:19:41Z</time>
      </trkpt>
      <trkpt lat="36.7432380" lon="-3.7870510">
        <ele>15.0</ele>
        <time>2022-01-08T17:19:42Z</time>
      </trkpt>
      <trkpt lat="36.7432380" lon="-3.7870540">
        <ele>11.0</ele>
        <time>2022-01-08T17:19:43Z</time>
      </trkpt>
      <trkpt lat="36.7432470" lon="-3.7870610">
        <ele>11.0</ele>
        <time>2022-01-08T17:19:44Z</time>
      </trkpt>
      <trkpt lat="36.7432550" lon="-3.7870680">
        <ele>11.0</ele>
        <time>2022-01-08T17:19:45Z</time>
      </trkpt>
      <trkpt lat="36.7432630" lon="-3.7870760">
        <ele>11.0</ele>
        <time>2022-01-08T17:19:46Z</time>
      </trkpt>
      <trkpt lat="36.7432710" lon="-3.7870830">
        <ele>11.0</ele>
        <time>2022-01-08T17:19:47Z</time>
      </trkpt>
      <trkpt lat="36.7432800" lon="-3.7870900">
        <ele>11.0</ele>
        <time>2022-01-08T17:19:48Z</time>
      </trkpt>
      <trkpt lat="36.7432880" lon="-3.7870970">
        <ele>11.0</ele>
        <time>2022-01-08T17:19:49Z</time>
      </trkpt>
      <trkpt lat="36.7432960" lon="-3.7871040">
        <ele>11.0</ele>
        <time>2022-01-08T17:19:50Z</time>
      </trkpt>
      <trkpt lat="36.7433040" lon="-3.7871120">
        <ele>11.0</ele>
        <time>2022-01-08T17:19:51Z</time>
      </trkpt>
      <trkpt lat="36.7433120" lon="-3.7871190">
        <ele>11.0</ele>
        <time>2022-01-08T17:19:52Z</time>
      </trkpt>
      <trkpt lat="36.7433210" lon="-3.7871260">
        <ele>7.0</ele>
        <time>2022-01-08T17:19:53Z</time>
      </trkpt>
      <trkpt lat="36.7433260" lon="-3.7871260">
        <ele>7.0</ele>
        <time>2022-01-08T17:19:54Z</time>
      </trkpt>
      <trkpt lat="36.7433310" lon="-3.7871260">
        <ele>7.0</ele>
        <time>2022-01-08T17:19:55Z</time>
      </trkpt>
      <trkpt lat="36.7433370" lon="-3.7871270">
        <ele>7.0</ele>
        <time>2022-01-08T17:19:56Z</time>
      </trkpt>
      <trkpt lat="36.7433420" lon="-3.7871270">
        <ele>7.0</ele>
        <time>2022-01-08T17:19:57Z</time>
      </trkpt>
      <trkpt lat="36.7433480" lon="-3.7871270">
        <ele>7.0</ele>
        <time>2022-01-08T17:19:58Z</time>
      </trkpt>
      <trkpt lat="36.7433530" lon="-3.7871270">
        <ele>7.0</ele>
        <time>2022-01-08T17:19:59Z</time>
      </trkpt>
      <trkpt lat="36.7433580" lon="-3.7871270">
        <ele>7.0</ele>
        <time>2022-01-08T17:20:00Z</time>
      </trkpt>
      <trkpt lat="36.7433640" lon="-3.7871280">
        <ele>7.0</ele>
        <time>2022-01-08T17:20:01Z</time>
      </trkpt>
      <trkpt lat="36.7433690" lon="-3.7871280">
        <ele>7.0</ele>
        <time>2022-01-08T17:20:02Z</time>
      </trkpt>
      <trkpt lat="36.7433750" lon="-3.7871280">
        <ele>5.0</ele>
        <time>2022-01-08T17:20:03Z</time>
      </trkpt>
      <trkpt lat="36.7433720" lon="-3.7871330">
        <ele>5.0</ele>
        <time>2022-01-08T17:20:04Z</time>
      </trkpt>
      <trkpt lat="36.7433700" lon="-3.7871390">
        <ele>5.0</ele>
        <time>2022-01-08T17:20:05Z</time>
      </trkpt>
      <trkpt lat="36.7433680" lon="-3.7871440">
        <ele>5.0</ele>
        <time>2022-01-08T17:20:06Z</time>
      </trkpt>
      <trkpt lat="36.7433660" lon="-3.7871490">
        <ele>5.0</ele>
        <time>2022-01-08T17:20:07Z</time>
      </trkpt>
      <trkpt lat="36.7433640" lon="-3.7871540">
        <ele>5.0</ele>
        <time>2022-01-08T17:20:08Z</time>
      </trkpt>
      <trkpt lat="36.7433620" lon="-3.7871600">
        <ele>5.0</ele>
        <time>2022-01-08T17:20:09Z</time>
      </trkpt>
      <trkpt lat="36.7433600" lon="-3.7871650">
        <ele>5.0</ele>
        <time>2022-01-08T17:20:10Z</time>
      </trkpt>
      <trkpt lat="36.7433580" lon="-3.7871700">
        <ele>5.0</ele>
        <time>2022-01-08T17:20:11Z</time>
      </trkpt>
      <trkpt lat="36.7433560" lon="-3.7871760">
        <ele>5.0</ele>
        <time>2022-01-08T17:20:12Z</time>
      </trkpt>
      <trkpt lat="36.7433540" lon="-3.7871810">
        <ele>5.0</ele>
        <time>2022-01-08T17:20:13Z</time>
      </trkpt>
      <trkpt lat="36.7433520" lon="-3.7871860">
        <ele>5.0</ele>
        <time>2022-01-08T17:20:14Z</time>
      </trkpt>
      <trkpt lat="36.7433500" lon="-3.7871910">
        <ele>5.0</ele>
        <time>2022-01-08T17:20:15Z</time>
      </trkpt>
      <trkpt lat="36.7433480" lon="-3.7871970">
        <ele>5.0</ele>
        <time>2022-01-08T17:20:16Z</time>
      </trkpt>
      <trkpt lat="36.7433460" lon="-3.7872020">
        <ele>5.0</ele>
        <time>2022-01-08T17:20:17Z</time>
      </trkpt>
      <trkpt lat="36.7433440" lon="-3.7872070">
        <ele>5.0</ele>
        <time>2022-01-08T17:20:18Z</time>
      </trkpt>
      <trkpt lat="36.7433420" lon="-3.7872130">
        <ele>5.0</ele>
        <time>2022-01-08T17:20:19Z</time>
      </trkpt>
      <trkpt lat="36.7433400" lon="-3.7872180">
        <ele>5.0</ele>
        <time>2022-01-08T17:20:20Z</time>
      </trkpt>
      <trkpt lat="36.7433380" lon="-3.7872230">
        <ele>5.0</ele>
        <time>2022-01-08T17:20:21Z</time>
      </trkpt>
      <trkpt lat="36.7433360" lon="-3.7872290">
        <ele>5.0</ele>
        <time>2022-01-08T17:20:22Z</time>
      </trkpt>
      <trkpt lat="36.7433340" lon="-3.7872340">
        <ele>5.0</ele>
        <time>2022-01-08T17:20:23Z</time>
      </trkpt>
      <trkpt lat="36.7433480" lon="-3.7872410">
        <ele>5.0</ele>
        <time>2022-01-08T17:20:24Z</time>
      </trkpt>
      <trkpt lat="36.7433630" lon="-3.7872490">
        <ele>5.0</ele>
        <time>2022-01-08T17:20:25Z</time>
      </trkpt>
      <trkpt lat="36.7433770" lon="-3.7872570">
        <ele>5.0</ele>
        <time>2022-01-08T17:20:26Z</time>
      </trkpt>
      <trkpt lat="36.7433920" lon="-3.7872640">
        <ele>5.0</ele>
        <time>2022-01-08T17:20:27Z</time>
      </trkpt>
      <trkpt lat="36.7434060" lon="-3.7872720">
        <ele>5.0</ele>
        <time>2022-01-08T17:20:28Z</time>
      </trkpt>
      <trkpt lat="36.7434210" lon="-3.7872790">
        <ele>5.0</ele>
        <time>2022-01-08T17:20:29Z</time>
      </trkpt>
      <trkpt lat="36.7434350" lon="-3.7872870">
        <ele>5.0</ele>
        <time>2022-01-08T17:20:30Z</time>
      </trkpt>
      <trkpt lat="36.7434500" lon="-3.7872950">
        <ele>5.0</ele>
        <time>2022-01-08T17:20:31Z</time>
      </trkpt>
      <trkpt lat="36.7434640" lon="-3.7873020">
        <ele>5.0</ele>
        <time>2022-01-08T17:20:32Z</time>
      </trkpt>
      <trkpt lat="36.7434790" lon="-3.7873100">
        <ele>0.0</ele>
        <time>2022-01-08T17:20:33Z</time>
      </trkpt>
      <trkpt lat="36.7434880" lon="-3.7873100">
        <ele>0.0</ele>
        <time>2022-01-08T17:20:34Z</time>
      </trkpt>
      <trkpt lat="36.7434980" lon="-3.7873110">
        <ele>0.0</ele>
        <time>2022-01-08T17:20:35Z</time>
      </trkpt>
      <trkpt lat="36.7435070" lon="-3.7873110">
        <ele>0.0</ele>
        <time>2022-01-08T17:20:36Z</time>
      </trkpt>
      <trkpt lat="36.7435170" lon="-3.7873110">
        <ele>0.0</ele>
        <time>2022-01-08T17:20:37Z</time>
      </trkpt>
      <trkpt lat="36.7435260" lon="-3.7873120">
        <ele>0.0</ele>
        <time>2022-01-08T17:20:38Z</time>
      </trkpt>
      <trkpt lat="36.7435360" lon="-3.7873120">
        <ele>0.0</ele>
        <time>2022-01-08T17:20:39Z</time>
      </trkpt>
      <trkpt lat="36.7435450" lon="-3.7873130">
        <ele>0.0</ele>
        <time>2022-01-08T17:20:40Z</time>
      </trkpt>
      <trkpt lat="36.7435550" lon="-3.7873130">
        <ele>0.0</ele>
        <time>2022-01-08T17:20:41Z</time>
      </trkpt>
      <trkpt lat="36.7435640" lon="-3.7873140">
        <ele>0.0</ele>
        <time>2022-01-08T17:20:42Z</time>
      </trkpt>
      <trkpt lat="36.7435740" lon="-3.7873140">
        <ele>0.0</ele>
        <time>2022-01-08T17:20:43Z</time>
      </trkpt>
      <trkpt lat="36.7435910" lon="-3.7873250">
        <ele>0.0</ele>
        <time>2022-01-08T17:20:44Z</time>
      </trkpt>
      <trkpt lat="36.7436080" lon="-3.7873350">
        <ele>0.0</ele>
        <time>2022-01-08T17:20:45Z</time>
      </trkpt>
      <trkpt lat="36.7436250" lon="-3.7873460">
        <ele>0.0</ele>
        <time>2022-01-08T17:20:46Z</time>
      </trkpt>
      <trkpt lat="36.7436420" lon="-3.7873560">
        <ele>0.0</ele>
        <time>2022-01-08T17:20:47Z</time>
      </trkpt>
      <trkpt lat="36.7436590" lon="-3.7873670">
        <ele>0.0</ele>
        <time>2022-01-08T17:20:48Z</time>
      </trkpt>
      <trkpt lat="36.7436760" lon="-3.7873770">
        <ele>0.0</ele>
        <time>2022-01-08T17:20:49Z</time>
      </trkpt>
      <trkpt lat="36.7436930" lon="-3.7873880">
        <ele>0.0</ele>
        <time>2022-01-08T17:20:50Z</time>
      </trkpt>
      <trkpt lat="36.7437100" lon="-3.7873990">
        <ele>0.0</ele>
        <time>2022-01-08T17:20:51Z</time>
      </trkpt>
      <trkpt lat="36.7437270" lon="-3.7874090">
        <ele>0.0</ele>
        <time>2022-01-08T17:20:52Z</time>
      </trkpt>
      <trkpt lat="36.7437440" lon="-3.7874200">
        <ele>2.0</ele>
        <time>2022-01-08T17:20:53Z</time>
      </trkpt>
      <trkpt lat="36.7437520" lon="-3.7874260">
        <ele>2.0</ele>
        <time>2022-01-08T17:20:54Z</time>
      </trkpt>
      <trkpt lat="36.7437600" lon="-3.7874320">
        <ele>2.0</ele>
        <time>2022-01-08T17:20:55Z</time>
      </trkpt>
      <trkpt lat="36.7437680" lon="-3.7874390">
        <ele>2.0</ele>
        <time>2022-01-08T17:20:56Z</time>
      </trkpt>
      <trkpt lat="36.7437770" lon="-3.7874450">
        <ele>2.0</ele>
        <time>2022-01-08T17:20:57Z</time>
      </trkpt>
      <trkpt lat="36.7437850" lon="-3.7874510">
        <ele>2.0</ele>
        <time>2022-01-08T17:20:58Z</time>
      </trkpt>
      <trkpt lat="36.7437930" lon="-3.7874580">
        <ele>2.0</ele>
        <time>2022-01-08T17:20:59Z</time>
      </trkpt>
      <trkpt lat="36.7438010" lon="-3.7874640">
        <ele>2.0</ele>
        <time>2022-01-08T17:21:00Z</time>
      </trkpt>
      <trkpt lat="36.7438090" lon="-3.7874700">
        <ele>2.0</ele>
        <time>2022-01-08T17:21:01Z</time>
      </trkpt>
      <trkpt lat="36.7438180" lon="-3.7874760">
        <ele>2.0</ele>
        <time>2022-01-08T17:21:02Z</time>
      </trkpt>
      <trkpt lat="36.7438260" lon="-3.7874830">
        <ele>2.0</ele>
        <time>2022-01-08T17:21:03Z</time>
      </trkpt>
      <trkpt lat="36.7438390" lon="-3.7874940">
        <ele>2.0</ele>
        <time>2022-01-08T17:21:04Z</time>
      </trkpt>
      <trkpt lat="36.7438510" lon="-3.7875060">
        <ele>2.0</ele>
        <time>2022-01-08T17:21:05Z</time>
      </trkpt>
      <trkpt lat="36.7438640" lon="-3.7875170">
        <ele>2.0</ele>
        <time>2022-01-08T17:21:06Z</time>
      </trkpt>
      <trkpt lat="36.7438760" lon="-3.7875290">
        <ele>2.0</ele>
        <time>2022-01-08T17:21:07Z</time>
      </trkpt>
      <trkpt lat="36.7438890" lon="-3.7875400">
        <ele>2.0</ele>
        <time>2022-01-08T17:21:08Z</time>
      </trkpt>
      <trkpt lat="36.7439020" lon="-3.7875520">
        <ele>2.0</ele>
        <time>2022-01-08T17:21:09Z</time>
      </trkpt>
      <trkpt lat="36.7439140" lon="-3.7875630">
        <ele>2.0</ele>
        <time>2022-01-08T17:21:10Z</time>
      </trkpt>
      <trkpt lat="36.7439270" lon="-3.7875750">
        <ele>2.0</ele>
        <time>2022-01-08T17:21:11Z</time>
      </trkpt>
      <trkpt lat="36.7439400" lon="-3.7875870">
        <ele>2.0</ele>
        <time>2022-01-08T17:21:12Z</time>
      </trkpt>
      <trkpt lat="36.7439520" lon="-3.7875980">
        <ele>2.0</ele>
        <time>2022-01-08T17:21:13Z</time>
      </trkpt>
      <trkpt lat="36.7439850" lon="-3.7876300">
        <ele>2.0</ele>
        <time>2022-01-08T17:21:14Z</time>
      </trkpt>
      <trkpt lat="36.7439950" lon="-3.7876410">
        <ele>2.0</ele>
        <time>2022-01-08T17:21:15Z</time>
      </trkpt>
      <trkpt lat="36.7440040" lon="-3.7876510">
        <ele>2.0</ele>
        <time>2022-01-08T17:21:16Z</time>
      </trkpt>
      <trkpt lat="36.7440140" lon="-3.7876620">
        <ele>2.0</ele>
        <time>2022-01-08T17:21:17Z</time>
      </trkpt>
      <trkpt lat="36.7440240" lon="-3.7876720">
        <ele>2.0</ele>
        <time>2022-01-08T17:21:18Z</time>
      </trkpt>
      <trkpt lat="36.7440340" lon="-3.7876830">
        <ele>2.0</ele>
        <time>2022-01-08T17:21:19Z</time>
      </trkpt>
      <trkpt lat="36.7440430" lon="-3.7876930">
        <ele>2.0</ele>
        <time>2022-01-08T17:21:20Z</time>
      </trkpt>
      <trkpt lat="36.7440530" lon="-3.7877040">
        <ele>2.0</ele>
        <time>2022-01-08T17:21:21Z</time>
      </trkpt>
      <trkpt lat="36.7440630" lon="-3.7877150">
        <ele>2.0</ele>
        <time>2022-01-08T17:21:22Z</time>
      </trkpt>
      <trkpt lat="36.7440730" lon="-3.7877250">
        <ele>2.0</ele>
        <time>2022-01-08T17:21:23Z</time>
      </trkpt>
      <trkpt lat="36.7440900" lon="-3.7877460">
        <ele>2.0</ele>
        <time>2022-01-08T17:21:24Z</time>
      </trkpt>
      <trkpt lat="36.7440970" lon="-3.7877560">
        <ele>2.0</ele>
        <time>2022-01-08T17:21:25Z</time>
      </trkpt>
      <trkpt lat="36.7441040" lon="-3.7877650">
        <ele>2.0</ele>
        <time>2022-01-08T17:21:26Z</time>
      </trkpt>
      <trkpt lat="36.7441110" lon="-3.7877750">
        <ele>2.0</ele>
        <time>2022-01-08T17:21:27Z</time>
      </trkpt>
      <trkpt lat="36.7441190" lon="-3.7877840">
        <ele>2.0</ele>
        <time>2022-01-08T17:21:28Z</time>
      </trkpt>
      <trkpt lat="36.7441260" lon="-3.7877940">
        <ele>2.0</ele>
        <time>2022-01-08T17:21:29Z</time>
      </trkpt>
      <trkpt lat="36.7441330" lon="-3.7878030">
        <ele>2.0</ele>
        <time>2022-01-08T17:21:30Z</time>
      </trkpt>
      <trkpt lat="36.7441400" lon="-3.7878130">
        <ele>2.0</ele>
        <time>2022-01-08T17:21:31Z</time>
      </trkpt>
      <trkpt lat="36.7441470" lon="-3.7878220">
        <ele>2.0</ele>
        <time>2022-01-08T17:21:32Z</time>
      </trkpt>
      <trkpt lat="36.7441540" lon="-3.7878320">
        <ele>2.0</ele>
        <time>2022-01-08T17:21:33Z</time>
      </trkpt>
      <trkpt lat="36.7441760" lon="-3.7878610">
        <ele>2.0</ele>
        <time>2022-01-08T17:21:34Z</time>
      </trkpt>
      <trkpt lat="36.7441810" lon="-3.7878680">
        <ele>2.0</ele>
        <time>2022-01-08T17:21:35Z</time>
      </trkpt>
      <trkpt lat="36.7441860" lon="-3.7878750">
        <ele>2.0</ele>
        <time>2022-01-08T17:21:36Z</time>
      </trkpt>
      <trkpt lat="36.7441910" lon="-3.7878820">
        <ele>2.0</ele>
        <time>2022-01-08T17:21:37Z</time>
      </trkpt>
      <trkpt lat="36.7441960" lon="-3.7878880">
        <ele>2.0</ele>
        <time>2022-01-08T17:21:38Z</time>
      </trkpt>
      <trkpt lat="36.7442010" lon="-3.7878950">
        <ele>2.0</ele>
        <time>2022-01-08T17:21:39Z</time>
      </trkpt>
      <trkpt lat="36.7442070" lon="-3.7879020">
        <ele>2.0</ele>
        <time>2022-01-08T17:21:40Z</time>
      </trkpt>
      <trkpt lat="36.7442120" lon="-3.7879090">
        <ele>2.0</ele>
        <time>2022-01-08T17:21:41Z</time>
      </trkpt>
      <trkpt lat="36.7442170" lon="-3.7879150">
        <ele>2.0</ele>
        <time>2022-01-08T17:21:42Z</time>
      </trkpt>
      <trkpt lat="36.7442220" lon="-3.7879220">
        <ele>2.0</ele>
        <time>2022-01-08T17:21:43Z</time>
      </trkpt>
      <trkpt lat="36.7442370" lon="-3.7879410">
        <ele>2.0</ele>
        <time>2022-01-08T17:21:44Z</time>
      </trkpt>
      <trkpt lat="36.7442440" lon="-3.7879490">
        <ele>2.0</ele>
        <time>2022-01-08T17:21:45Z</time>
      </trkpt>
      <trkpt lat="36.7442520" lon="-3.7879580">
        <ele>2.0</ele>
        <time>2022-01-08T17:21:46Z</time>
      </trkpt>
      <trkpt lat="36.7442600" lon="-3.7879660">
        <ele>2.0</ele>
        <time>2022-01-08T17:21:47Z</time>
      </trkpt>
      <trkpt lat="36.7442670" lon="-3.7879750">
        <ele>2.0</ele>
        <time>2022-01-08T17:21:48Z</time>
      </trkpt>
      <trkpt lat="36.7442750" lon="-3.7879830">
        <ele>2.0</ele>
        <time>2022-01-08T17:21:49Z</time>
      </trkpt>
      <trkpt lat="36.7442830" lon="-3.7879920">
        <ele>2.0</ele>
        <time>2022-01-08T17:21:50Z</time>
      </trkpt>
      <trkpt lat="36.7442910" lon="-3.7880000">
        <ele>2.0</ele>
        <time>2022-01-08T17:21:51Z</time>
      </trkpt>
      <trkpt lat="36.7442980" lon="-3.7880090">
        <ele>2.0</ele>
        <time>2022-01-08T17:21:52Z</time>
      </trkpt>
      <trkpt lat="36.7443060" lon="-3.7880170">
        <ele>1.0</ele>
        <time>2022-01-08T17:21:53Z</time>
      </trkpt>
      <trkpt lat="36.7443230" lon="-3.7880350">
        <ele>1.0</ele>
        <time>2022-01-08T17:21:54Z</time>
      </trkpt>
      <trkpt lat="36.7443320" lon="-3.7880450">
        <ele>1.0</ele>
        <time>2022-01-08T17:21:55Z</time>
      </trkpt>
      <trkpt lat="36.7443400" lon="-3.7880550">
        <ele>1.0</ele>
        <time>2022-01-08T17:21:56Z</time>
      </trkpt>
      <trkpt lat="36.7443490" lon="-3.7880650">
        <ele>1.0</ele>
        <time>2022-01-08T17:21:57Z</time>
      </trkpt>
      <trkpt lat="36.7443570" lon="-3.7880750">
        <ele>1.0</ele>
        <time>2022-01-08T17:21:58Z</time>
      </trkpt>
      <trkpt lat="36.7443660" lon="-3.7880850">
        <ele>1.0</ele>
        <time>2022-01-08T17:21:59Z</time>
      </trkpt>
      <trkpt lat="36.7443740" lon="-3.7880940">
        <ele>1.0</ele>
        <time>2022-01-08T17:22:00Z</time>
      </trkpt>
      <trkpt lat="36.7443830" lon="-3.7881040">
        <ele>1.0</ele>
        <time>2022-01-08T17:22:01Z</time>
      </trkpt>
      <trkpt lat="36.7443910" lon="-3.7881140">
        <ele>1.0</ele>
        <time>2022-01-08T17:22:02Z</time>
      </trkpt>
      <trkpt lat="36.7444000" lon="-3.7881240">
        <ele>1.0</ele>
        <time>2022-01-08T17:22:03Z</time>
      </trkpt>
      <trkpt lat="36.7444230" lon="-3.7881540">
        <ele>1.0</ele>
        <time>2022-01-08T17:22:04Z</time>
      </trkpt>
      <trkpt lat="36.7444300" lon="-3.7881670">
        <ele>1.0</ele>
        <time>2022-01-08T17:22:05Z</time>
      </trkpt>
      <trkpt lat="36.7444380" lon="-3.7881790">
        <ele>1.0</ele>
        <time>2022-01-08T17:22:06Z</time>
      </trkpt>
      <trkpt lat="36.7444450" lon="-3.7881910">
        <ele>1.0</ele>
        <time>2022-01-08T17:22:07Z</time>
      </trkpt>
      <trkpt lat="36.7444520" lon="-3.7882030">
        <ele>1.0</ele>
        <time>2022-01-08T17:22:08Z</time>
      </trkpt>
      <trkpt lat="36.7444600" lon="-3.7882150">
        <ele>1.0</ele>
        <time>2022-01-08T17:22:09Z</time>
      </trkpt>
      <trkpt lat="36.7444670" lon="-3.7882270">
        <ele>1.0</ele>
        <time>2022-01-08T17:22:10Z</time>
      </trkpt>
      <trkpt lat="36.7444740" lon="-3.7882390">
        <ele>1.0</ele>
        <time>2022-01-08T17:22:11Z</time>
      </trkpt>
      <trkpt lat="36.7444820" lon="-3.7882520">
        <ele>1.0</ele>
        <time>2022-01-08T17:22:12Z</time>
      </trkpt>
      <trkpt lat="36.7444890" lon="-3.7882640">
        <ele>1.0</ele>
        <time>2022-01-08T17:22:13Z</time>
      </trkpt>
      <trkpt lat="36.7445010" lon="-3.7882940">
        <ele>1.0</ele>
        <time>2022-01-08T17:22:14Z</time>
      </trkpt>
      <trkpt lat="36.7445040" lon="-3.7883070">
        <ele>1.0</ele>
        <time>2022-01-08T17:22:15Z</time>
      </trkpt>
      <trkpt lat="36.7445070" lon="-3.7883200">
        <ele>1.0</ele>
        <time>2022-01-08T17:22:16Z</time>
      </trkpt>
      <trkpt lat="36.7445100" lon="-3.7883340">
        <ele>1.0</ele>
        <time>2022-01-08T17:22:17Z</time>
      </trkpt>
      <trkpt lat="36.7445130" lon="-3.7883470">
        <ele>1.0</ele>
        <time>2022-01-08T17:22:18Z</time>
      </trkpt>
      <trkpt lat="36.7445160" lon="-3.7883610">
        <ele>1.0</ele>
        <time>2022-01-08T17:22:19Z</time>
      </trkpt>
      <trkpt lat="36.7445190" lon="-3.7883740">
        <ele>1.0</ele>
        <time>2022-01-08T17:22:20Z</time>
      </trkpt>
      <trkpt lat="36.7445220" lon="-3.7883880">
        <ele>1.0</ele>
        <time>2022-01-08T17:22:21Z</time>
      </trkpt>
      <trkpt lat="36.7445250" lon="-3.7884010">
        <ele>1.0</ele>
        <time>2022-01-08T17:22:22Z</time>
      </trkpt>
      <trkpt lat="36.7445280" lon="-3.7884140">
        <ele>0.0</ele>
        <time>2022-01-08T17:22:23Z</time>
      </trkpt>
      <trkpt lat="36.7445430" lon="-3.7884630">
        <ele>0.0</ele>
        <time>2022-01-08T17:22:24Z</time>
      </trkpt>
      <trkpt lat="36.7445480" lon="-3.7884760">
        <ele>0.0</ele>
        <time>2022-01-08T17:22:25Z</time>
      </trkpt>
      <trkpt lat="36.7445540" lon="-3.7884900">
        <ele>0.0</ele>
        <time>2022-01-08T17:22:26Z</time>
      </trkpt>
      <trkpt lat="36.7445590" lon="-3.7885030">
        <ele>0.0</ele>
        <time>2022-01-08T17:22:27Z</time>
      </trkpt>
      <trkpt lat="36.7445640" lon="-3.7885170">
        <ele>0.0</ele>
        <time>2022-01-08T17:22:28Z</time>
      </trkpt>
      <trkpt lat="36.7445700" lon="-3.7885300">
        <ele>0.0</ele>
        <time>2022-01-08T17:22:29Z</time>
      </trkpt>
      <trkpt lat="36.7445750" lon="-3.7885440">
        <ele>0.0</ele>
        <time>2022-01-08T17:22:30Z</time>
      </trkpt>
      <trkpt lat="36.7445800" lon="-3.7885570">
        <ele>0.0</ele>
        <time>2022-01-08T17:22:31Z</time>
      </trkpt>
      <trkpt lat="36.7445860" lon="-3.7885710">
        <ele>0.0</ele>
        <time>2022-01-08T17:22:32Z</time>
      </trkpt>
      <trkpt lat="36.7445910" lon="-3.7885840">
        <ele>1.0</ele>
        <time>2022-01-08T17:22:33Z</time>
      </trkpt>
      <trkpt lat="36.7446040" lon="-3.7886100">
        <ele>1.0</ele>
        <time>2022-01-08T17:22:34Z</time>
      </trkpt>
      <trkpt lat="36.7446080" lon="-3.7886240">
        <ele>1.0</ele>
        <time>2022-01-08T17:22:35Z</time>
      </trkpt>
      <trkpt lat="36.7446110" lon="-3.7886370">
        <ele>1.0</ele>
        <time>2022-01-08T17:22:36Z</time>
      </trkpt>
      <trkpt lat="36.7446150" lon="-3.7886500">
        <ele>1.0</ele>
        <time>2022-01-08T17:22:37Z</time>
      </trkpt>
      <trkpt lat="36.7446190" lon="-3.7886630">
        <ele>1.0</ele>
        <time>2022-01-08T17:22:38Z</time>
      </trkpt>
      <trkpt lat="36.7446220" lon="-3.7886760">
        <ele>1.0</ele>
        <time>2022-01-08T17:22:39Z</time>
      </trkpt>
      <trkpt lat="36.7446260" lon="-3.7886890">
        <ele>1.0</ele>
        <time>2022-01-08T17:22:40Z</time>
      </trkpt>
      <trkpt lat="36.7446290" lon="-3.7887020">
        <ele>1.0</ele>
        <time>2022-01-08T17:22:41Z</time>
      </trkpt>
      <trkpt lat="36.7446330" lon="-3.7887160">
        <ele>1.0</ele>
        <time>2022-01-08T17:22:42Z</time>
      </trkpt>
      <trkpt lat="36.7446370" lon="-3.7887290">
        <ele>1.0</ele>
        <time>2022-01-08T17:22:43Z</time>
      </trkpt>
      <trkpt lat="36.7446390" lon="-3.7887570">
        <ele>1.0</ele>
        <time>2022-01-08T17:22:44Z</time>
      </trkpt>
      <trkpt lat="36.7446400" lon="-3.7887690">
        <ele>1.0</ele>
        <time>2022-01-08T17:22:45Z</time>
      </trkpt>
      <trkpt lat="36.7446410" lon="-3.7887820">
        <ele>1.0</ele>
        <time>2022-01-08T17:22:46Z</time>
      </trkpt>
      <trkpt lat="36.7446420" lon="-3.7887940">
        <ele>1.0</ele>
        <time>2022-01-08T17:22:47Z</time>
      </trkpt>
      <trkpt lat="36.7446430" lon="-3.7888070">
        <ele>1.0</ele>
        <time>2022-01-08T17:22:48Z</time>
      </trkpt>
      <trkpt lat="36.7446430" lon="-3.7888190">
        <ele>1.0</ele>
        <time>2022-01-08T17:22:49Z</time>
      </trkpt>
      <trkpt lat="36.7446440" lon="-3.7888320">
        <ele>1.0</ele>
        <time>2022-01-08T17:22:50Z</time>
      </trkpt>
      <trkpt lat="36.7446450" lon="-3.7888440">
        <ele>1.0</ele>
        <time>2022-01-08T17:22:51Z</time>
      </trkpt>
      <trkpt lat="36.7446460" lon="-3.7888570">
        <ele>1.0</ele>
        <time>2022-01-08T17:22:52Z</time>
      </trkpt>
      <trkpt lat="36.7446470" lon="-3.7888690">
        <ele>1.0</ele>
        <time>2022-01-08T17:22:53Z</time>
      </trkpt>
      <trkpt lat="36.7446530" lon="-3.7889140">
        <ele>1.0</ele>
        <time>2022-01-08T17:22:54Z</time>
      </trkpt>
      <trkpt lat="36.7446570" lon="-3.7889280">
        <ele>1.0</ele>
        <time>2022-01-08T17:22:55Z</time>
      </trkpt>
      <trkpt lat="36.7446600" lon="-3.7889410">
        <ele>1.0</ele>
        <time>2022-01-08T17:22:56Z</time>
      </trkpt>
      <trkpt lat="36.7446640" lon="-3.7889550">
        <ele>1.0</ele>
        <time>2022-01-08T17:22:57Z</time>
      </trkpt>
      <trkpt lat="36.7446670" lon="-3.7889680">
        <ele>1.0</ele>
        <time>2022-01-08T17:22:58Z</time>
      </trkpt>
      <trkpt lat="36.7446710" lon="-3.7889820">
        <ele>1.0</ele>
        <time>2022-01-08T17:22:59Z</time>
      </trkpt>
      <trkpt lat="36.7446740" lon="-3.7889960">
        <ele>1.0</ele>
        <time>2022-01-08T17:23:00Z</time>
      </trkpt>
      <trkpt lat="36.7446780" lon="-3.7890090">
        <ele>1.0</ele>
        <time>2022-01-08T17:23:01Z</time>
      </trkpt>
      <trkpt lat="36.7446810" lon="-3.7890230">
        <ele>1.0</ele>
        <time>2022-01-08T17:23:02Z</time>
      </trkpt>
      <trkpt lat="36.7446850" lon="-3.7890370">
        <ele>0.0</ele>
        <time>2022-01-08T17:23:03Z</time>
      </trkpt>
      <trkpt lat="36.7446940" lon="-3.7890590">
        <ele>0.0</ele>
        <time>2022-01-08T17:23:04Z</time>
      </trkpt>
      <trkpt lat="36.7446970" lon="-3.7890690">
        <ele>0.0</ele>
        <time>2022-01-08T17:23:05Z</time>
      </trkpt>
      <trkpt lat="36.7447010" lon="-3.7890790">
        <ele>0.0</ele>
        <time>2022-01-08T17:23:06Z</time>
      </trkpt>
      <trkpt lat="36.7447050" lon="-3.7890890">
        <ele>0.0</ele>
        <time>2022-01-08T17:23:07Z</time>
      </trkpt>
      <trkpt lat="36.7447080" lon="-3.7890990">
        <ele>0.0</ele>
        <time>2022-01-08T17:23:08Z</time>
      </trkpt>
      <trkpt lat="36.7447120" lon="-3.7891090">
        <ele>0.0</ele>
        <time>2022-01-08T17:23:09Z</time>
      </trkpt>
      <trkpt lat="36.7447160" lon="-3.7891190">
        <ele>0.0</ele>
        <time>2022-01-08T17:23:10Z</time>
      </trkpt>
      <trkpt lat="36.7447190" lon="-3.7891300">
        <ele>0.0</ele>
        <time>2022-01-08T17:23:11Z</time>
      </trkpt>
      <trkpt lat="36.7447230" lon="-3.7891400">
        <ele>0.0</ele>
        <time>2022-01-08T17:23:12Z</time>
      </trkpt>
      <trkpt lat="36.7447270" lon="-3.7891500">
        <ele>0.0</ele>
        <time>2022-01-08T17:23:13Z</time>
      </trkpt>
      <trkpt lat="36.7447420" lon="-3.7891750">
        <ele>0.0</ele>
        <time>2022-01-08T17:23:14Z</time>
      </trkpt>
      <trkpt lat="36.7447440" lon="-3.7891790">
        <ele>0.0</ele>
        <time>2022-01-08T17:23:15Z</time>
      </trkpt>
      <trkpt lat="36.7447470" lon="-3.7891840">
        <ele>0.0</ele>
        <time>2022-01-08T17:23:16Z</time>
      </trkpt>
      <trkpt lat="36.7447490" lon="-3.7891880">
        <ele>0.0</ele>
        <time>2022-01-08T17:23:17Z</time>
      </trkpt>
      <trkpt lat="36.7447520" lon="-3.7891930">
        <ele>0.0</ele>
        <time>2022-01-08T17:23:18Z</time>
      </trkpt>
      <trkpt lat="36.7447540" lon="-3.7891970">
        <ele>0.0</ele>
        <time>2022-01-08T17:23:19Z</time>
      </trkpt>
      <trkpt lat="36.7447570" lon="-3.7892020">
        <ele>0.0</ele>
        <time>2022-01-08T17:23:20Z</time>
      </trkpt>
      <trkpt lat="36.7447590" lon="-3.7892060">
        <ele>0.0</ele>
        <time>2022-01-08T17:23:21Z</time>
      </trkpt>
      <trkpt lat="36.7447620" lon="-3.7892110">
        <ele>0.0</ele>
        <time>2022-01-08T17:23:22Z</time>
      </trkpt>
      <trkpt lat="36.7447640" lon="-3.7892150">
        <ele>-1.0</ele>
        <time>2022-01-08T17:23:23Z</time>
      </trkpt>
      <trkpt lat="36.7447640" lon="-3.7892150">
        <ele>-1.0</ele>
        <time>2022-01-08T17:23:24Z</time>
      </trkpt>
      <trkpt lat="36.7447590" lon="-3.7892380">
        <ele>-1.0</ele>
        <time>2022-01-08T17:23:25Z</time>
      </trkpt>
      <trkpt lat="36.7447590" lon="-3.7892380">
        <ele>-1.0</ele>
        <time>2022-01-08T17:23:26Z</time>
      </trkpt>
      <trkpt lat="36.7447590" lon="-3.7892380">
        <ele>-1.0</ele>
        <time>2022-01-08T17:23:27Z</time>
      </trkpt>
      <trkpt lat="36.7447590" lon="-3.7892380">
        <ele>-1.0</ele>
        <time>2022-01-08T17:23:28Z</time>
      </trkpt>
      <trkpt lat="36.7447590" lon="-3.7892380">
        <ele>-1.0</ele>
        <time>2022-01-08T17:23:29Z</time>
      </trkpt>
      <trkpt lat="36.7447590" lon="-3.7892380">
        <ele>-1.0</ele>
        <time>2022-01-08T17:23:30Z</time>
      </trkpt>
      <trkpt lat="36.7447590" lon="-3.7892380">
        <ele>-1.0</ele>
        <time>2022-01-08T17:23:31Z</time>
      </trkpt>
      <trkpt lat="36.7447590" lon="-3.7892380">
        <ele>-1.0</ele>
        <time>2022-01-08T17:23:32Z</time>
      </trkpt>
      <trkpt lat="36.7447590" lon="-3.7892380">
        <ele>-1.0</ele>
        <time>2022-01-08T17:23:33Z</time>
      </trkpt>
      <trkpt lat="36.7447590" lon="-3.7892380">
        <ele>-1.0</ele>
        <time>2022-01-08T17:23:34Z</time>
      </trkpt>
      <trkpt lat="36.7447590" lon="-3.7892380">
        <ele>-1.0</ele>
        <time>2022-01-08T17:23:35Z</time>
      </trkpt>
      <trkpt lat="36.7447590" lon="-3.7892380">
        <ele>-1.0</ele>
        <time>2022-01-08T17:23:36Z</time>
      </trkpt>
      <trkpt lat="36.7447590" lon="-3.7892380">
        <ele>-1.0</ele>
        <time>2022-01-08T17:23:37Z</time>
      </trkpt>
      <trkpt lat="36.7447590" lon="-3.7892380">
        <ele>-1.0</ele>
        <time>2022-01-08T17:23:38Z</time>
      </trkpt>
      <trkpt lat="36.7447590" lon="-3.7892380">
        <ele>-1.0</ele>
        <time>2022-01-08T17:23:39Z</time>
      </trkpt>
      <trkpt lat="36.7447590" lon="-3.7892380">
        <ele>-1.0</ele>
        <time>2022-01-08T17:23:40Z</time>
      </trkpt>
      <trkpt lat="36.7447590" lon="-3.7892380">
        <ele>-1.0</ele>
        <time>2022-01-08T17:23:41Z</time>
      </trkpt>
      <trkpt lat="36.7447590" lon="-3.7892380">
        <ele>-1.0</ele>
        <time>2022-01-08T17:23:42Z</time>
      </trkpt>
      <trkpt lat="36.7447590" lon="-3.7892380">
        <ele>-2.0</ele>
        <time>2022-01-08T17:23:43Z</time>
      </trkpt>
      <trkpt lat="36.7447590" lon="-3.7892380">
        <ele>-2.0</ele>
        <time>2022-01-08T17:23:44Z</time>
      </trkpt>
      <trkpt lat="36.7447590" lon="-3.7892380">
        <ele>-2.0</ele>
        <time>2022-01-08T17:23:45Z</time>
      </trkpt>
      <trkpt lat="36.7447590" lon="-3.7892380">
        <ele>-2.0</ele>
        <time>2022-01-08T17:23:46Z</time>
      </trkpt>
      <trkpt lat="36.7447590" lon="-3.7892380">
        <ele>-2.0</ele>
        <time>2022-01-08T17:23:47Z</time>
      </trkpt>
      <trkpt lat="36.7447590" lon="-3.7892380">
        <ele>-2.0</ele>
        <time>2022-01-08T17:23:48Z</time>
      </trkpt>
      <trkpt lat="36.7447590" lon="-3.7892380">
        <ele>-2.0</ele>
        <time>2022-01-08T17:23:49Z</time>
      </trkpt>
      <trkpt lat="36.7447590" lon="-3.7892380">
        <ele>-2.0</ele>
        <time>2022-01-08T17:23:50Z</time>
      </trkpt>
      <trkpt lat="36.7447590" lon="-3.7892380">
        <ele>-2.0</ele>
        <time>2022-01-08T17:23:51Z</time>
      </trkpt>
      <trkpt lat="36.7447590" lon="-3.7892380">
        <ele>-2.0</ele>
        <time>2022-01-08T17:23:52Z</time>
      </trkpt>
      <trkpt lat="36.7447590" lon="-3.7892380">
        <ele>-1.0</ele>
        <time>2022-01-08T17:23:53Z</time>
      </trkpt>
      <trkpt lat="36.7447590" lon="-3.7892380">
        <ele>-1.0</ele>
        <time>2022-01-08T17:23:54Z</time>
      </trkpt>
      <trkpt lat="36.7447590" lon="-3.7892380">
        <ele>-1.0</ele>
        <time>2022-01-08T17:23:55Z</time>
      </trkpt>
      <trkpt lat="36.7447590" lon="-3.7892380">
        <ele>-1.0</ele>
        <time>2022-01-08T17:23:56Z</time>
      </trkpt>
      <trkpt lat="36.7447590" lon="-3.7892380">
        <ele>-1.0</ele>
        <time>2022-01-08T17:23:57Z</time>
      </trkpt>
      <trkpt lat="36.7447590" lon="-3.7892380">
        <ele>-1.0</ele>
        <time>2022-01-08T17:23:58Z</time>
      </trkpt>
      <trkpt lat="36.7447590" lon="-3.7892380">
        <ele>-1.0</ele>
        <time>2022-01-08T17:23:59Z</time>
      </trkpt>
      <trkpt lat="36.7447590" lon="-3.7892380">
        <ele>-1.0</ele>
        <time>2022-01-08T17:24:00Z</time>
      </trkpt>
      <trkpt lat="36.7447590" lon="-3.7892380">
        <ele>-1.0</ele>
        <time>2022-01-08T17:24:01Z</time>
      </trkpt>
      <trkpt lat="36.7447590" lon="-3.7892380">
        <ele>-1.0</ele>
        <time>2022-01-08T17:24:02Z</time>
      </trkpt>
      <trkpt lat="36.7447590" lon="-3.7892380">
        <ele>-2.0</ele>
        <time>2022-01-08T17:24:03Z</time>
      </trkpt>
      <trkpt lat="36.7447590" lon="-3.7892380">
        <ele>-2.0</ele>
        <time>2022-01-08T17:24:04Z</time>
      </trkpt>
      <trkpt lat="36.7447590" lon="-3.7892380">
        <ele>-2.0</ele>
        <time>2022-01-08T17:24:05Z</time>
      </trkpt>
      <trkpt lat="36.7447590" lon="-3.7892380">
        <ele>-2.0</ele>
        <time>2022-01-08T17:24:06Z</time>
      </trkpt>
      <trkpt lat="36.7447590" lon="-3.7892380">
        <ele>-2.0</ele>
        <time>2022-01-08T17:24:07Z</time>
      </trkpt>
      <trkpt lat="36.7447590" lon="-3.7892380">
        <ele>-2.0</ele>
        <time>2022-01-08T17:24:08Z</time>
      </trkpt>
      <trkpt lat="36.7447590" lon="-3.7892380">
        <ele>-2.0</ele>
        <time>2022-01-08T17:24:09Z</time>
      </trkpt>
      <trkpt lat="36.7447590" lon="-3.7892380">
        <ele>-2.0</ele>
        <time>2022-01-08T17:24:10Z</time>
      </trkpt>
      <trkpt lat="36.7447590" lon="-3.7892380">
        <ele>-2.0</ele>
        <time>2022-01-08T17:24:11Z</time>
      </trkpt>
      <trkpt lat="36.7447590" lon="-3.7892380">
        <ele>-2.0</ele>
        <time>2022-01-08T17:24:12Z</time>
      </trkpt>
      <trkpt lat="36.7447590" lon="-3.7892380">
        <ele>-2.0</ele>
        <time>2022-01-08T17:24:13Z</time>
      </trkpt>
      <trkpt lat="36.7447590" lon="-3.7892380">
        <ele>-2.0</ele>
        <time>2022-01-08T17:24:14Z</time>
      </trkpt>
      <trkpt lat="36.7447590" lon="-3.7892380">
        <ele>-2.0</ele>
        <time>2022-01-08T17:24:15Z</time>
      </trkpt>
      <trkpt lat="36.7447590" lon="-3.7892380">
        <ele>-2.0</ele>
        <time>2022-01-08T17:24:16Z</time>
      </trkpt>
      <trkpt lat="36.7447590" lon="-3.7892380">
        <ele>-2.0</ele>
        <time>2022-01-08T17:24:17Z</time>
      </trkpt>
      <trkpt lat="36.7447590" lon="-3.7892380">
        <ele>-2.0</ele>
        <time>2022-01-08T17:24:18Z</time>
      </trkpt>
      <trkpt lat="36.7447590" lon="-3.7892380">
        <ele>-2.0</ele>
        <time>2022-01-08T17:24:19Z</time>
      </trkpt>
      <trkpt lat="36.7447590" lon="-3.7892380">
        <ele>-2.0</ele>
        <time>2022-01-08T17:24:20Z</time>
      </trkpt>
      <trkpt lat="36.7447590" lon="-3.7892380">
        <ele>-2.0</ele>
        <time>2022-01-08T17:24:21Z</time>
      </trkpt>
      <trkpt lat="36.7447590" lon="-3.7892380">
        <ele>-2.0</ele>
        <time>2022-01-08T17:24:22Z</time>
      </trkpt>
      <trkpt lat="36.7447590" lon="-3.7892380">
        <ele>-1.0</ele>
        <time>2022-01-08T17:24:23Z</time>
      </trkpt>
      <trkpt lat="36.7447590" lon="-3.7892380">
        <ele>-1.0</ele>
        <time>2022-01-08T17:24:24Z</time>
      </trkpt>
      <trkpt lat="36.7447590" lon="-3.7892380">
        <ele>-1.0</ele>
        <time>2022-01-08T17:24:25Z</time>
      </trkpt>
      <trkpt lat="36.7447590" lon="-3.7892380">
        <ele>-1.0</ele>
        <time>2022-01-08T17:24:26Z</time>
      </trkpt>
      <trkpt lat="36.7447590" lon="-3.7892380">
        <ele>-1.0</ele>
        <time>2022-01-08T17:24:27Z</time>
      </trkpt>
      <trkpt lat="36.7447720" lon="-3.7892570">
        <ele>-1.0</ele>
        <time>2022-01-08T17:24:28Z</time>
      </trkpt>
      <trkpt lat="36.7447720" lon="-3.7892570">
        <ele>-1.0</ele>
        <time>2022-01-08T17:24:29Z</time>
      </trkpt>
      <trkpt lat="36.7447720" lon="-3.7892570">
        <ele>-1.0</ele>
        <time>2022-01-08T17:24:30Z</time>
      </trkpt>
      <trkpt lat="36.7447720" lon="-3.7892570">
        <ele>-1.0</ele>
        <time>2022-01-08T17:24:31Z</time>
      </trkpt>
      <trkpt lat="36.7447720" lon="-3.7892570">
        <ele>-1.0</ele>
        <time>2022-01-08T17:24:32Z</time>
      </trkpt>
      <trkpt lat="36.7447720" lon="-3.7892570">
        <ele>-1.0</ele>
        <time>2022-01-08T17:24:33Z</time>
      </trkpt>
      <trkpt lat="36.7447720" lon="-3.7892570">
        <ele>-1.0</ele>
        <time>2022-01-08T17:24:34Z</time>
      </trkpt>
      <trkpt lat="36.7447720" lon="-3.7892570">
        <ele>-1.0</ele>
        <time>2022-01-08T17:24:35Z</time>
      </trkpt>
      <trkpt lat="36.7447720" lon="-3.7892570">
        <ele>-1.0</ele>
        <time>2022-01-08T17:24:36Z</time>
      </trkpt>
      <trkpt lat="36.7447720" lon="-3.7892570">
        <ele>-1.0</ele>
        <time>2022-01-08T17:24:37Z</time>
      </trkpt>
      <trkpt lat="36.7447720" lon="-3.7892570">
        <ele>-1.0</ele>
        <time>2022-01-08T17:24:38Z</time>
      </trkpt>
      <trkpt lat="36.7447720" lon="-3.7892570">
        <ele>-1.0</ele>
        <time>2022-01-08T17:24:39Z</time>
      </trkpt>
      <trkpt lat="36.7447720" lon="-3.7892570">
        <ele>-1.0</ele>
        <time>2022-01-08T17:24:40Z</time>
      </trkpt>
      <trkpt lat="36.7447720" lon="-3.7892570">
        <ele>-1.0</ele>
        <time>2022-01-08T17:24:41Z</time>
      </trkpt>
      <trkpt lat="36.7447720" lon="-3.7892570">
        <ele>-1.0</ele>
        <time>2022-01-08T17:24:42Z</time>
      </trkpt>
      <trkpt lat="36.7447720" lon="-3.7892570">
        <ele>-1.0</ele>
        <time>2022-01-08T17:24:43Z</time>
      </trkpt>
      <trkpt lat="36.7447720" lon="-3.7892570">
        <ele>-1.0</ele>
        <time>2022-01-08T17:24:44Z</time>
      </trkpt>
      <trkpt lat="36.7447810" lon="-3.7892770">
        <ele>-1.0</ele>
        <time>2022-01-08T17:24:45Z</time>
      </trkpt>
      <trkpt lat="36.7447810" lon="-3.7892770">
        <ele>-1.0</ele>
        <time>2022-01-08T17:24:46Z</time>
      </trkpt>
      <trkpt lat="36.7447810" lon="-3.7892770">
        <ele>-1.0</ele>
        <time>2022-01-08T17:24:47Z</time>
      </trkpt>
      <trkpt lat="36.7447810" lon="-3.7892770">
        <ele>-1.0</ele>
        <time>2022-01-08T17:24:48Z</time>
      </trkpt>
      <trkpt lat="36.7447810" lon="-3.7892770">
        <ele>-1.0</ele>
        <time>2022-01-08T17:24:49Z</time>
      </trkpt>
      <trkpt lat="36.7447810" lon="-3.7892770">
        <ele>-1.0</ele>
        <time>2022-01-08T17:24:50Z</time>
      </trkpt>
      <trkpt lat="36.7447810" lon="-3.7892770">
        <ele>-1.0</ele>
        <time>2022-01-08T17:24:51Z</time>
      </trkpt>
      <trkpt lat="36.7447810" lon="-3.7892770">
        <ele>-1.0</ele>
        <time>2022-01-08T17:24:52Z</time>
      </trkpt>
      <trkpt lat="36.7447810" lon="-3.7892770">
        <ele>0.0</ele>
        <time>2022-01-08T17:24:53Z</time>
      </trkpt>
      <trkpt lat="36.7447830" lon="-3.7892770">
        <ele>0.0</ele>
        <time>2022-01-08T17:24:54Z</time>
      </trkpt>
      <trkpt lat="36.7447840" lon="-3.7892770">
        <ele>0.0</ele>
        <time>2022-01-08T17:24:55Z</time>
      </trkpt>
      <trkpt lat="36.7447860" lon="-3.7892770">
        <ele>0.0</ele>
        <time>2022-01-08T17:24:56Z</time>
      </trkpt>
      <trkpt lat="36.7447870" lon="-3.7892760">
        <ele>0.0</ele>
        <time>2022-01-08T17:24:57Z</time>
      </trkpt>
      <trkpt lat="36.7447890" lon="-3.7892760">
        <ele>0.0</ele>
        <time>2022-01-08T17:24:58Z</time>
      </trkpt>
      <trkpt lat="36.7447900" lon="-3.7892760">
        <ele>0.0</ele>
        <time>2022-01-08T17:24:59Z</time>
      </trkpt>
      <trkpt lat="36.7447920" lon="-3.7892760">
        <ele>0.0</ele>
        <time>2022-01-08T17:25:00Z</time>
      </trkpt>
      <trkpt lat="36.7447930" lon="-3.7892760">
        <ele>0.0</ele>
        <time>2022-01-08T17:25:01Z</time>
      </trkpt>
      <trkpt lat="36.7447950" lon="-3.7892760">
        <ele>0.0</ele>
        <time>2022-01-08T17:25:02Z</time>
      </trkpt>
      <trkpt lat="36.7447960" lon="-3.7892760">
        <ele>0.0</ele>
        <time>2022-01-08T17:25:03Z</time>
      </trkpt>
      <trkpt lat="36.7447980" lon="-3.7892750">
        <ele>0.0</ele>
        <time>2022-01-08T17:25:04Z</time>
      </trkpt>
      <trkpt lat="36.7447990" lon="-3.7892750">
        <ele>0.0</ele>
        <time>2022-01-08T17:25:05Z</time>
      </trkpt>
      <trkpt lat="36.7448010" lon="-3.7892750">
        <ele>0.0</ele>
        <time>2022-01-08T17:25:06Z</time>
      </trkpt>
      <trkpt lat="36.7448020" lon="-3.7892750">
        <ele>0.0</ele>
        <time>2022-01-08T17:25:07Z</time>
      </trkpt>
      <trkpt lat="36.7448040" lon="-3.7892750">
        <ele>0.0</ele>
        <time>2022-01-08T17:25:08Z</time>
      </trkpt>
      <trkpt lat="36.7448050" lon="-3.7892750">
        <ele>0.0</ele>
        <time>2022-01-08T17:25:09Z</time>
      </trkpt>
      <trkpt lat="36.7448060" lon="-3.7892740">
        <ele>0.0</ele>
        <time>2022-01-08T17:25:10Z</time>
      </trkpt>
      <trkpt lat="36.7448080" lon="-3.7892740">
        <ele>0.0</ele>
        <time>2022-01-08T17:25:11Z</time>
      </trkpt>
      <trkpt lat="36.7448090" lon="-3.7892740">
        <ele>0.0</ele>
        <time>2022-01-08T17:25:13Z</time>
      </trkpt>
      <trkpt lat="36.7448110" lon="-3.7892740">
        <ele>0.0</ele>
        <time>2022-01-08T17:25:14Z</time>
      </trkpt>
      <trkpt lat="36.7448120" lon="-3.7892740">
        <ele>0.0</ele>
        <time>2022-01-08T17:25:15Z</time>
      </trkpt>
      <trkpt lat="36.7448140" lon="-3.7892740">
        <ele>0.0</ele>
        <time>2022-01-08T17:25:16Z</time>
      </trkpt>
      <trkpt lat="36.7448150" lon="-3.7892730">
        <ele>0.0</ele>
        <time>2022-01-08T17:25:17Z</time>
      </trkpt>
      <trkpt lat="36.7448170" lon="-3.7892730">
        <ele>0.0</ele>
        <time>2022-01-08T17:25:18Z</time>
      </trkpt>
      <trkpt lat="36.7448180" lon="-3.7892730">
        <ele>0.0</ele>
        <time>2022-01-08T17:25:19Z</time>
      </trkpt>
      <trkpt lat="36.7448200" lon="-3.7892730">
        <ele>0.0</ele>
        <time>2022-01-08T17:26:32Z</time>
      </trkpt>
      <trkpt lat="36.7448210" lon="-3.7892730">
        <ele>0.0</ele>
        <time>2022-01-08T17:26:33Z</time>
      </trkpt>
      <trkpt lat="36.7448230" lon="-3.7892730">
        <ele>0.0</ele>
        <time>2022-01-08T17:26:34Z</time>
      </trkpt>
      <trkpt lat="36.7448240" lon="-3.7892730">
        <ele>0.0</ele>
        <time>2022-01-08T17:26:35Z</time>
      </trkpt>
      <trkpt lat="36.7448260" lon="-3.7892720">
        <ele>0.0</ele>
        <time>2022-01-08T17:26:36Z</time>
      </trkpt>
      <trkpt lat="36.7448270" lon="-3.7892720">
        <ele>0.0</ele>
        <time>2022-01-08T17:26:37Z</time>
      </trkpt>
      <trkpt lat="36.7448280" lon="-3.7892720">
        <ele>0.0</ele>
        <time>2022-01-08T17:26:38Z</time>
      </trkpt>
      <trkpt lat="36.7448300" lon="-3.7892720">
        <ele>0.0</ele>
        <time>2022-01-08T17:26:39Z</time>
      </trkpt>
      <trkpt lat="36.7448310" lon="-3.7892720">
        <ele>0.0</ele>
        <time>2022-01-08T17:26:40Z</time>
      </trkpt>
      <trkpt lat="36.7448330" lon="-3.7892720">
        <ele>0.0</ele>
        <time>2022-01-08T17:26:41Z</time>
      </trkpt>
      <trkpt lat="36.7448390" lon="-3.7892740">
        <ele>0.0</ele>
        <time>2022-01-08T17:26:42Z</time>
      </trkpt>
      <trkpt lat="36.7448460" lon="-3.7892770">
        <ele>0.0</ele>
        <time>2022-01-08T17:26:43Z</time>
      </trkpt>
      <trkpt lat="36.7448530" lon="-3.7892800">
        <ele>0.0</ele>
        <time>2022-01-08T17:26:44Z</time>
      </trkpt>
      <trkpt lat="36.7448590" lon="-3.7892820">
        <ele>0.0</ele>
        <time>2022-01-08T17:26:45Z</time>
      </trkpt>
      <trkpt lat="36.7448660" lon="-3.7892850">
        <ele>0.0</ele>
        <time>2022-01-08T17:26:46Z</time>
      </trkpt>
      <trkpt lat="36.7448730" lon="-3.7892880">
        <ele>0.0</ele>
        <time>2022-01-08T17:26:47Z</time>
      </trkpt>
      <trkpt lat="36.7448790" lon="-3.7892900">
        <ele>0.0</ele>
        <time>2022-01-08T17:26:48Z</time>
      </trkpt>
      <trkpt lat="36.7448860" lon="-3.7892930">
        <ele>0.0</ele>
        <time>2022-01-08T17:26:49Z</time>
      </trkpt>
      <trkpt lat="36.7448920" lon="-3.7892960">
        <ele>0.0</ele>
        <time>2022-01-08T17:26:50Z</time>
      </trkpt>
      <trkpt lat="36.7448990" lon="-3.7892990">
        <ele>-1.0</ele>
        <time>2022-01-08T17:26:51Z</time>
      </trkpt>
      <trkpt lat="36.7449310" lon="-3.7893280">
        <ele>-1.0</ele>
        <time>2022-01-08T17:26:52Z</time>
      </trkpt>
      <trkpt lat="36.7449380" lon="-3.7893360">
        <ele>-1.0</ele>
        <time>2022-01-08T17:26:53Z</time>
      </trkpt>
      <trkpt lat="36.7449460" lon="-3.7893440">
        <ele>-1.0</ele>
        <time>2022-01-08T17:26:54Z</time>
      </trkpt>
      <trkpt lat="36.7449540" lon="-3.7893530">
        <ele>-1.0</ele>
        <time>2022-01-08T17:26:55Z</time>
      </trkpt>
      <trkpt lat="36.7449620" lon="-3.7893610">
        <ele>-1.0</ele>
        <time>2022-01-08T17:26:56Z</time>
      </trkpt>
      <trkpt lat="36.7449690" lon="-3.7893690">
        <ele>-1.0</ele>
        <time>2022-01-08T17:26:57Z</time>
      </trkpt>
      <trkpt lat="36.7449770" lon="-3.7893780">
        <ele>-1.0</ele>
        <time>2022-01-08T17:26:58Z</time>
      </trkpt>
      <trkpt lat="36.7449850" lon="-3.7893860">
        <ele>-1.0</ele>
        <time>2022-01-08T17:26:59Z</time>
      </trkpt>
      <trkpt lat="36.7449920" lon="-3.7893940">
        <ele>-1.0</ele>
        <time>2022-01-08T17:27:00Z</time>
      </trkpt>
      <trkpt lat="36.7450000" lon="-3.7894020">
        <ele>-1.0</ele>
        <time>2022-01-08T17:27:01Z</time>
      </trkpt>
      <trkpt lat="36.7450180" lon="-3.7894120">
        <ele>-1.0</ele>
        <time>2022-01-08T17:27:02Z</time>
      </trkpt>
      <trkpt lat="36.7450260" lon="-3.7894150">
        <ele>-1.0</ele>
        <time>2022-01-08T17:27:03Z</time>
      </trkpt>
      <trkpt lat="36.7450340" lon="-3.7894190">
        <ele>-1.0</ele>
        <time>2022-01-08T17:27:04Z</time>
      </trkpt>
      <trkpt lat="36.7450420" lon="-3.7894230">
        <ele>-1.0</ele>
        <time>2022-01-08T17:27:05Z</time>
      </trkpt>
      <trkpt lat="36.7450500" lon="-3.7894260">
        <ele>-1.0</ele>
        <time>2022-01-08T17:27:06Z</time>
      </trkpt>
      <trkpt lat="36.7450580" lon="-3.7894300">
        <ele>-1.0</ele>
        <time>2022-01-08T17:27:07Z</time>
      </trkpt>
      <trkpt lat="36.7450660" lon="-3.7894330">
        <ele>-1.0</ele>
        <time>2022-01-08T17:27:08Z</time>
      </trkpt>
      <trkpt lat="36.7450730" lon="-3.7894370">
        <ele>-1.0</ele>
        <time>2022-01-08T17:27:09Z</time>
      </trkpt>
      <trkpt lat="36.7450810" lon="-3.7894410">
        <ele>-1.0</ele>
        <time>2022-01-08T17:27:10Z</time>
      </trkpt>
      <trkpt lat="36.7450890" lon="-3.7894440">
        <ele>0.0</ele>
        <time>2022-01-08T17:27:11Z</time>
      </trkpt>
      <trkpt lat="36.7451210" lon="-3.7894660">
        <ele>0.0</ele>
        <time>2022-01-08T17:27:12Z</time>
      </trkpt>
      <trkpt lat="36.7451290" lon="-3.7894750">
        <ele>0.0</ele>
        <time>2022-01-08T17:27:13Z</time>
      </trkpt>
      <trkpt lat="36.7451370" lon="-3.7894840">
        <ele>0.0</ele>
        <time>2022-01-08T17:27:14Z</time>
      </trkpt>
      <trkpt lat="36.7451460" lon="-3.7894930">
        <ele>0.0</ele>
        <time>2022-01-08T17:27:15Z</time>
      </trkpt>
      <trkpt lat="36.7451540" lon="-3.7895020">
        <ele>0.0</ele>
        <time>2022-01-08T17:27:16Z</time>
      </trkpt>
      <trkpt lat="36.7451620" lon="-3.7895110">
        <ele>0.0</ele>
        <time>2022-01-08T17:27:17Z</time>
      </trkpt>
      <trkpt lat="36.7451710" lon="-3.7895200">
        <ele>0.0</ele>
        <time>2022-01-08T17:27:18Z</time>
      </trkpt>
      <trkpt lat="36.7451790" lon="-3.7895280">
        <ele>0.0</ele>
        <time>2022-01-08T17:27:19Z</time>
      </trkpt>
      <trkpt lat="36.7451870" lon="-3.7895370">
        <ele>0.0</ele>
        <time>2022-01-08T17:27:20Z</time>
      </trkpt>
      <trkpt lat="36.7451960" lon="-3.7895460">
        <ele>1.0</ele>
        <time>2022-01-08T17:27:21Z</time>
      </trkpt>
      <trkpt lat="36.7452100" lon="-3.7895700">
        <ele>1.0</ele>
        <time>2022-01-08T17:27:22Z</time>
      </trkpt>
      <trkpt lat="36.7452180" lon="-3.7895810">
        <ele>1.0</ele>
        <time>2022-01-08T17:27:23Z</time>
      </trkpt>
      <trkpt lat="36.7452250" lon="-3.7895930">
        <ele>1.0</ele>
        <time>2022-01-08T17:27:24Z</time>
      </trkpt>
      <trkpt lat="36.7452320" lon="-3.7896040">
        <ele>1.0</ele>
        <time>2022-01-08T17:27:25Z</time>
      </trkpt>
      <trkpt lat="36.7452390" lon="-3.7896150">
        <ele>1.0</ele>
        <time>2022-01-08T17:27:26Z</time>
      </trkpt>
      <trkpt lat="36.7452460" lon="-3.7896260">
        <ele>1.0</ele>
        <time>2022-01-08T17:27:27Z</time>
      </trkpt>
      <trkpt lat="36.7452540" lon="-3.7896370">
        <ele>1.0</ele>
        <time>2022-01-08T17:27:28Z</time>
      </trkpt>
      <trkpt lat="36.7452610" lon="-3.7896480">
        <ele>1.0</ele>
        <time>2022-01-08T17:27:29Z</time>
      </trkpt>
      <trkpt lat="36.7452680" lon="-3.7896590">
        <ele>1.0</ele>
        <time>2022-01-08T17:27:30Z</time>
      </trkpt>
      <trkpt lat="36.7452750" lon="-3.7896700">
        <ele>2.0</ele>
        <time>2022-01-08T17:27:31Z</time>
      </trkpt>
      <trkpt lat="36.7452920" lon="-3.7896920">
        <ele>2.0</ele>
        <time>2022-01-08T17:27:32Z</time>
      </trkpt>
      <trkpt lat="36.7453000" lon="-3.7897020">
        <ele>2.0</ele>
        <time>2022-01-08T17:27:33Z</time>
      </trkpt>
      <trkpt lat="36.7453080" lon="-3.7897110">
        <ele>2.0</ele>
        <time>2022-01-08T17:27:34Z</time>
      </trkpt>
      <trkpt lat="36.7453160" lon="-3.7897210">
        <ele>2.0</ele>
        <time>2022-01-08T17:27:35Z</time>
      </trkpt>
      <trkpt lat="36.7453230" lon="-3.7897300">
        <ele>2.0</ele>
        <time>2022-01-08T17:27:36Z</time>
      </trkpt>
      <trkpt lat="36.7453310" lon="-3.7897400">
        <ele>2.0</ele>
        <time>2022-01-08T17:27:37Z</time>
      </trkpt>
      <trkpt lat="36.7453390" lon="-3.7897500">
        <ele>2.0</ele>
        <time>2022-01-08T17:27:38Z</time>
      </trkpt>
      <trkpt lat="36.7453470" lon="-3.7897590">
        <ele>2.0</ele>
        <time>2022-01-08T17:27:39Z</time>
      </trkpt>
      <trkpt lat="36.7453550" lon="-3.7897690">
        <ele>2.0</ele>
        <time>2022-01-08T17:27:40Z</time>
      </trkpt>
      <trkpt lat="36.7453630" lon="-3.7897780">
        <ele>2.0</ele>
        <time>2022-01-08T17:27:41Z</time>
      </trkpt>
      <trkpt lat="36.7453800" lon="-3.7897880">
        <ele>2.0</ele>
        <time>2022-01-08T17:27:42Z</time>
      </trkpt>
      <trkpt lat="36.7453870" lon="-3.7897920">
        <ele>2.0</ele>
        <time>2022-01-08T17:27:43Z</time>
      </trkpt>
      <trkpt lat="36.7453950" lon="-3.7897970">
        <ele>2.0</ele>
        <time>2022-01-08T17:27:44Z</time>
      </trkpt>
      <trkpt lat="36.7454020" lon="-3.7898010">
        <ele>2.0</ele>
        <time>2022-01-08T17:27:45Z</time>
      </trkpt>
      <trkpt lat="36.7454090" lon="-3.7898060">
        <ele>2.0</ele>
        <time>2022-01-08T17:27:46Z</time>
      </trkpt>
      <trkpt lat="36.7454160" lon="-3.7898100">
        <ele>2.0</ele>
        <time>2022-01-08T17:27:47Z</time>
      </trkpt>
      <trkpt lat="36.7454230" lon="-3.7898150">
        <ele>2.0</ele>
        <time>2022-01-08T17:27:48Z</time>
      </trkpt>
      <trkpt lat="36.7454300" lon="-3.7898190">
        <ele>2.0</ele>
        <time>2022-01-08T17:27:49Z</time>
      </trkpt>
      <trkpt lat="36.7454380" lon="-3.7898240">
        <ele>2.0</ele>
        <time>2022-01-08T17:27:50Z</time>
      </trkpt>
      <trkpt lat="36.7454450" lon="-3.7898280">
        <ele>2.0</ele>
        <time>2022-01-08T17:27:51Z</time>
      </trkpt>
      <trkpt lat="36.7454670" lon="-3.7898370">
        <ele>2.0</ele>
        <time>2022-01-08T17:27:52Z</time>
      </trkpt>
      <trkpt lat="36.7454780" lon="-3.7898430">
        <ele>2.0</ele>
        <time>2022-01-08T17:27:53Z</time>
      </trkpt>
      <trkpt lat="36.7454890" lon="-3.7898490">
        <ele>2.0</ele>
        <time>2022-01-08T17:27:54Z</time>
      </trkpt>
      <trkpt lat="36.7454990" lon="-3.7898550">
        <ele>2.0</ele>
        <time>2022-01-08T17:27:55Z</time>
      </trkpt>
      <trkpt lat="36.7455100" lon="-3.7898610">
        <ele>2.0</ele>
        <time>2022-01-08T17:27:56Z</time>
      </trkpt>
      <trkpt lat="36.7455210" lon="-3.7898660">
        <ele>2.0</ele>
        <time>2022-01-08T17:27:57Z</time>
      </trkpt>
      <trkpt lat="36.7455320" lon="-3.7898720">
        <ele>2.0</ele>
        <time>2022-01-08T17:27:58Z</time>
      </trkpt>
      <trkpt lat="36.7455430" lon="-3.7898780">
        <ele>2.0</ele>
        <time>2022-01-08T17:27:59Z</time>
      </trkpt>
      <trkpt lat="36.7455540" lon="-3.7898840">
        <ele>2.0</ele>
        <time>2022-01-08T17:28:00Z</time>
      </trkpt>
      <trkpt lat="36.7455640" lon="-3.7898900">
        <ele>3.0</ele>
        <time>2022-01-08T17:28:01Z</time>
      </trkpt>
      <trkpt lat="36.7455810" lon="-3.7898930">
        <ele>3.0</ele>
        <time>2022-01-08T17:28:02Z</time>
      </trkpt>
      <trkpt lat="36.7455870" lon="-3.7898930">
        <ele>3.0</ele>
        <time>2022-01-08T17:28:03Z</time>
      </trkpt>
      <trkpt lat="36.7455930" lon="-3.7898930">
        <ele>3.0</ele>
        <time>2022-01-08T17:28:04Z</time>
      </trkpt>
      <trkpt lat="36.7455990" lon="-3.7898920">
        <ele>3.0</ele>
        <time>2022-01-08T17:28:05Z</time>
      </trkpt>
      <trkpt lat="36.7456060" lon="-3.7898920">
        <ele>3.0</ele>
        <time>2022-01-08T17:28:06Z</time>
      </trkpt>
      <trkpt lat="36.7456120" lon="-3.7898920">
        <ele>3.0</ele>
        <time>2022-01-08T17:28:07Z</time>
      </trkpt>
      <trkpt lat="36.7456180" lon="-3.7898920">
        <ele>3.0</ele>
        <time>2022-01-08T17:28:08Z</time>
      </trkpt>
      <trkpt lat="36.7456240" lon="-3.7898910">
        <ele>3.0</ele>
        <time>2022-01-08T17:28:09Z</time>
      </trkpt>
      <trkpt lat="36.7456300" lon="-3.7898910">
        <ele>3.0</ele>
        <time>2022-01-08T17:28:10Z</time>
      </trkpt>
      <trkpt lat="36.7456370" lon="-3.7898910">
        <ele>3.0</ele>
        <time>2022-01-08T17:28:11Z</time>
      </trkpt>
      <trkpt lat="36.7456430" lon="-3.7898880">
        <ele>3.0</ele>
        <time>2022-01-08T17:28:12Z</time>
      </trkpt>
      <trkpt lat="36.7456500" lon="-3.7898840">
        <ele>3.0</ele>
        <time>2022-01-08T17:28:13Z</time>
      </trkpt>
      <trkpt lat="36.7456570" lon="-3.7898810">
        <ele>3.0</ele>
        <time>2022-01-08T17:28:14Z</time>
      </trkpt>
      <trkpt lat="36.7456630" lon="-3.7898780">
        <ele>3.0</ele>
        <time>2022-01-08T17:28:15Z</time>
      </trkpt>
      <trkpt lat="36.7456700" lon="-3.7898750">
        <ele>3.0</ele>
        <time>2022-01-08T17:28:16Z</time>
      </trkpt>
      <trkpt lat="36.7456770" lon="-3.7898720">
        <ele>3.0</ele>
        <time>2022-01-08T17:28:17Z</time>
      </trkpt>
      <trkpt lat="36.7456830" lon="-3.7898690">
        <ele>3.0</ele>
        <time>2022-01-08T17:28:18Z</time>
      </trkpt>
      <trkpt lat="36.7456900" lon="-3.7898660">
        <ele>3.0</ele>
        <time>2022-01-08T17:28:19Z</time>
      </trkpt>
      <trkpt lat="36.7456970" lon="-3.7898630">
        <ele>3.0</ele>
        <time>2022-01-08T17:28:20Z</time>
      </trkpt>
      <trkpt lat="36.7457040" lon="-3.7898600">
        <ele>5.0</ele>
        <time>2022-01-08T17:28:21Z</time>
      </trkpt>
      <trkpt lat="36.7457320" lon="-3.7898410">
        <ele>5.0</ele>
        <time>2022-01-08T17:28:22Z</time>
      </trkpt>
      <trkpt lat="36.7457390" lon="-3.7898360">
        <ele>5.0</ele>
        <time>2022-01-08T17:28:23Z</time>
      </trkpt>
      <trkpt lat="36.7457450" lon="-3.7898310">
        <ele>5.0</ele>
        <time>2022-01-08T17:28:24Z</time>
      </trkpt>
      <trkpt lat="36.7457520" lon="-3.7898260">
        <ele>5.0</ele>
        <time>2022-01-08T17:28:25Z</time>
      </trkpt>
      <trkpt lat="36.7457580" lon="-3.7898220">
        <ele>5.0</ele>
        <time>2022-01-08T17:28:26Z</time>
      </trkpt>
      <trkpt lat="36.7457650" lon="-3.7898170">
        <ele>5.0</ele>
        <time>2022-01-08T17:28:27Z</time>
      </trkpt>
      <trkpt lat="36.7457720" lon="-3.7898120">
        <ele>5.0</ele>
        <time>2022-01-08T17:28:28Z</time>
      </trkpt>
      <trkpt lat="36.7457780" lon="-3.7898070">
        <ele>5.0</ele>
        <time>2022-01-08T17:28:29Z</time>
      </trkpt>
      <trkpt lat="36.7457850" lon="-3.7898030">
        <ele>5.0</ele>
        <time>2022-01-08T17:28:30Z</time>
      </trkpt>
      <trkpt lat="36.7457920" lon="-3.7897980">
        <ele>7.0</ele>
        <time>2022-01-08T17:28:31Z</time>
      </trkpt>
      <trkpt lat="36.7458190" lon="-3.7897870">
        <ele>7.0</ele>
        <time>2022-01-08T17:28:32Z</time>
      </trkpt>
      <trkpt lat="36.7458290" lon="-3.7897840">
        <ele>7.0</ele>
        <time>2022-01-08T17:28:33Z</time>
      </trkpt>
      <trkpt lat="36.7458390" lon="-3.7897810">
        <ele>7.0</ele>
        <time>2022-01-08T17:28:34Z</time>
      </trkpt>
      <trkpt lat="36.7458480" lon="-3.7897780">
        <ele>7.0</ele>
        <time>2022-01-08T17:28:35Z</time>
      </trkpt>
      <trkpt lat="36.7458580" lon="-3.7897750">
        <ele>7.0</ele>
        <time>2022-01-08T17:28:36Z</time>
      </trkpt>
      <trkpt lat="36.7458680" lon="-3.7897720">
        <ele>7.0</ele>
        <time>2022-01-08T17:28:37Z</time>
      </trkpt>
      <trkpt lat="36.7458770" lon="-3.7897690">
        <ele>7.0</ele>
        <time>2022-01-08T17:28:38Z</time>
      </trkpt>
      <trkpt lat="36.7458870" lon="-3.7897660">
        <ele>7.0</ele>
        <time>2022-01-08T17:28:39Z</time>
      </trkpt>
      <trkpt lat="36.7458970" lon="-3.7897630">
        <ele>7.0</ele>
        <time>2022-01-08T17:28:40Z</time>
      </trkpt>
      <trkpt lat="36.7459060" lon="-3.7897600">
        <ele>9.0</ele>
        <time>2022-01-08T17:28:41Z</time>
      </trkpt>
      <trkpt lat="36.7459240" lon="-3.7897580">
        <ele>9.0</ele>
        <time>2022-01-08T17:28:42Z</time>
      </trkpt>
      <trkpt lat="36.7459320" lon="-3.7897560">
        <ele>9.0</ele>
        <time>2022-01-08T17:28:43Z</time>
      </trkpt>
      <trkpt lat="36.7459410" lon="-3.7897550">
        <ele>9.0</ele>
        <time>2022-01-08T17:28:44Z</time>
      </trkpt>
      <trkpt lat="36.7459490" lon="-3.7897540">
        <ele>9.0</ele>
        <time>2022-01-08T17:28:45Z</time>
      </trkpt>
      <trkpt lat="36.7459570" lon="-3.7897530">
        <ele>9.0</ele>
        <time>2022-01-08T17:28:46Z</time>
      </trkpt>
      <trkpt lat="36.7459660" lon="-3.7897520">
        <ele>9.0</ele>
        <time>2022-01-08T17:28:47Z</time>
      </trkpt>
      <trkpt lat="36.7459740" lon="-3.7897510">
        <ele>9.0</ele>
        <time>2022-01-08T17:28:48Z</time>
      </trkpt>
      <trkpt lat="36.7459830" lon="-3.7897500">
        <ele>9.0</ele>
        <time>2022-01-08T17:28:49Z</time>
      </trkpt>
      <trkpt lat="36.7459910" lon="-3.7897490">
        <ele>9.0</ele>
        <time>2022-01-08T17:28:50Z</time>
      </trkpt>
      <trkpt lat="36.7459990" lon="-3.7897480">
        <ele>11.0</ele>
        <time>2022-01-08T17:28:51Z</time>
      </trkpt>
      <trkpt lat="36.7460100" lon="-3.7897490">
        <ele>11.0</ele>
        <time>2022-01-08T17:28:52Z</time>
      </trkpt>
      <trkpt lat="36.7460210" lon="-3.7897510">
        <ele>11.0</ele>
        <time>2022-01-08T17:28:53Z</time>
      </trkpt>
      <trkpt lat="36.7460310" lon="-3.7897520">
        <ele>11.0</ele>
        <time>2022-01-08T17:28:54Z</time>
      </trkpt>
      <trkpt lat="36.7460420" lon="-3.7897540">
        <ele>11.0</ele>
        <time>2022-01-08T17:28:55Z</time>
      </trkpt>
      <trkpt lat="36.7460520" lon="-3.7897560">
        <ele>11.0</ele>
        <time>2022-01-08T17:28:56Z</time>
      </trkpt>
      <trkpt lat="36.7460630" lon="-3.7897570">
        <ele>11.0</ele>
        <time>2022-01-08T17:28:57Z</time>
      </trkpt>
      <trkpt lat="36.7460730" lon="-3.7897590">
        <ele>11.0</ele>
        <time>2022-01-08T17:28:58Z</time>
      </trkpt>
      <trkpt lat="36.7460840" lon="-3.7897600">
        <ele>11.0</ele>
        <time>2022-01-08T17:28:59Z</time>
      </trkpt>
      <trkpt lat="36.7460940" lon="-3.7897620">
        <ele>11.0</ele>
        <time>2022-01-08T17:29:00Z</time>
      </trkpt>
      <trkpt lat="36.7461050" lon="-3.7897630">
        <ele>12.0</ele>
        <time>2022-01-08T17:29:01Z</time>
      </trkpt>
      <trkpt lat="36.7461090" lon="-3.7897560">
        <ele>12.0</ele>
        <time>2022-01-08T17:29:02Z</time>
      </trkpt>
      <trkpt lat="36.7461120" lon="-3.7897480">
        <ele>12.0</ele>
        <time>2022-01-08T17:29:03Z</time>
      </trkpt>
      <trkpt lat="36.7461160" lon="-3.7897400">
        <ele>12.0</ele>
        <time>2022-01-08T17:29:04Z</time>
      </trkpt>
      <trkpt lat="36.7461190" lon="-3.7897320">
        <ele>12.0</ele>
        <time>2022-01-08T17:29:05Z</time>
      </trkpt>
      <trkpt lat="36.7461230" lon="-3.7897240">
        <ele>12.0</ele>
        <time>2022-01-08T17:29:06Z</time>
      </trkpt>
      <trkpt lat="36.7461270" lon="-3.7897170">
        <ele>12.0</ele>
        <time>2022-01-08T17:29:07Z</time>
      </trkpt>
      <trkpt lat="36.7461300" lon="-3.7897090">
        <ele>12.0</ele>
        <time>2022-01-08T17:29:08Z</time>
      </trkpt>
      <trkpt lat="36.7461340" lon="-3.7897010">
        <ele>12.0</ele>
        <time>2022-01-08T17:29:09Z</time>
      </trkpt>
      <trkpt lat="36.7461370" lon="-3.7896930">
        <ele>12.0</ele>
        <time>2022-01-08T17:29:10Z</time>
      </trkpt>
      <trkpt lat="36.7461410" lon="-3.7896850">
        <ele>14.0</ele>
        <time>2022-01-08T17:29:11Z</time>
      </trkpt>
      <trkpt lat="36.7461340" lon="-3.7896520">
        <ele>14.0</ele>
        <time>2022-01-08T17:29:12Z</time>
      </trkpt>
      <trkpt lat="36.7461300" lon="-3.7896410">
        <ele>14.0</ele>
        <time>2022-01-08T17:29:13Z</time>
      </trkpt>
      <trkpt lat="36.7461270" lon="-3.7896310">
        <ele>14.0</ele>
        <time>2022-01-08T17:29:14Z</time>
      </trkpt>
      <trkpt lat="36.7461240" lon="-3.7896200">
        <ele>14.0</ele>
        <time>2022-01-08T17:29:15Z</time>
      </trkpt>
      <trkpt lat="36.7461210" lon="-3.7896100">
        <ele>14.0</ele>
        <time>2022-01-08T17:29:16Z</time>
      </trkpt>
      <trkpt lat="36.7461170" lon="-3.7895990">
        <ele>14.0</ele>
        <time>2022-01-08T17:29:17Z</time>
      </trkpt>
      <trkpt lat="36.7461140" lon="-3.7895890">
        <ele>14.0</ele>
        <time>2022-01-08T17:29:18Z</time>
      </trkpt>
      <trkpt lat="36.7461110" lon="-3.7895780">
        <ele>14.0</ele>
        <time>2022-01-08T17:29:19Z</time>
      </trkpt>
      <trkpt lat="36.7461070" lon="-3.7895680">
        <ele>14.0</ele>
        <time>2022-01-08T17:29:20Z</time>
      </trkpt>
      <trkpt lat="36.7461040" lon="-3.7895570">
        <ele>16.0</ele>
        <time>2022-01-08T17:29:21Z</time>
      </trkpt>
      <trkpt lat="36.7461040" lon="-3.7895490">
        <ele>16.0</ele>
        <time>2022-01-08T17:29:22Z</time>
      </trkpt>
      <trkpt lat="36.7461040" lon="-3.7895400">
        <ele>16.0</ele>
        <time>2022-01-08T17:29:23Z</time>
      </trkpt>
      <trkpt lat="36.7461050" lon="-3.7895310">
        <ele>16.0</ele>
        <time>2022-01-08T17:29:24Z</time>
      </trkpt>
      <trkpt lat="36.7461050" lon="-3.7895230">
        <ele>16.0</ele>
        <time>2022-01-08T17:29:25Z</time>
      </trkpt>
      <trkpt lat="36.7461050" lon="-3.7895140">
        <ele>16.0</ele>
        <time>2022-01-08T17:29:26Z</time>
      </trkpt>
      <trkpt lat="36.7461050" lon="-3.7895050">
        <ele>16.0</ele>
        <time>2022-01-08T17:29:27Z</time>
      </trkpt>
      <trkpt lat="36.7461050" lon="-3.7894970">
        <ele>16.0</ele>
        <time>2022-01-08T17:29:28Z</time>
      </trkpt>
      <trkpt lat="36.7461060" lon="-3.7894880">
        <ele>16.0</ele>
        <time>2022-01-08T17:29:29Z</time>
      </trkpt>
      <trkpt lat="36.7461060" lon="-3.7894790">
        <ele>16.0</ele>
        <time>2022-01-08T17:29:30Z</time>
      </trkpt>
      <trkpt lat="36.7461060" lon="-3.7894700">
        <ele>18.0</ele>
        <time>2022-01-08T17:29:31Z</time>
      </trkpt>
      <trkpt lat="36.7461040" lon="-3.7894380">
        <ele>18.0</ele>
        <time>2022-01-08T17:29:32Z</time>
      </trkpt>
      <trkpt lat="36.7461060" lon="-3.7894280">
        <ele>18.0</ele>
        <time>2022-01-08T17:29:33Z</time>
      </trkpt>
      <trkpt lat="36.7461080" lon="-3.7894180">
        <ele>18.0</ele>
        <time>2022-01-08T17:29:34Z</time>
      </trkpt>
      <trkpt lat="36.7461090" lon="-3.7894080">
        <ele>18.0</ele>
        <time>2022-01-08T17:29:35Z</time>
      </trkpt>
      <trkpt lat="36.7461110" lon="-3.7893980">
        <ele>18.0</ele>
        <time>2022-01-08T17:29:36Z</time>
      </trkpt>
      <trkpt lat="36.7461130" lon="-3.7893890">
        <ele>18.0</ele>
        <time>2022-01-08T17:29:37Z</time>
      </trkpt>
      <trkpt lat="36.7461150" lon="-3.7893790">
        <ele>18.0</ele>
        <time>2022-01-08T17:29:38Z</time>
      </trkpt>
      <trkpt lat="36.7461170" lon="-3.7893690">
        <ele>18.0</ele>
        <time>2022-01-08T17:29:39Z</time>
      </trkpt>
      <trkpt lat="36.7461190" lon="-3.7893590">
        <ele>18.0</ele>
        <time>2022-01-08T17:29:40Z</time>
      </trkpt>
      <trkpt lat="36.7461210" lon="-3.7893490">
        <ele>19.0</ele>
        <time>2022-01-08T17:29:41Z</time>
      </trkpt>
      <trkpt lat="36.7461210" lon="-3.7893150">
        <ele>19.0</ele>
        <time>2022-01-08T17:29:42Z</time>
      </trkpt>
      <trkpt lat="36.7461180" lon="-3.7893080">
        <ele>19.0</ele>
        <time>2022-01-08T17:29:43Z</time>
      </trkpt>
      <trkpt lat="36.7461150" lon="-3.7893010">
        <ele>19.0</ele>
        <time>2022-01-08T17:29:44Z</time>
      </trkpt>
      <trkpt lat="36.7461120" lon="-3.7892940">
        <ele>19.0</ele>
        <time>2022-01-08T17:29:45Z</time>
      </trkpt>
      <trkpt lat="36.7461090" lon="-3.7892870">
        <ele>19.0</ele>
        <time>2022-01-08T17:29:46Z</time>
      </trkpt>
      <trkpt lat="36.7461060" lon="-3.7892800">
        <ele>19.0</ele>
        <time>2022-01-08T17:29:47Z</time>
      </trkpt>
      <trkpt lat="36.7461030" lon="-3.7892730">
        <ele>19.0</ele>
        <time>2022-01-08T17:29:48Z</time>
      </trkpt>
      <trkpt lat="36.7461000" lon="-3.7892660">
        <ele>19.0</ele>
        <time>2022-01-08T17:29:49Z</time>
      </trkpt>
      <trkpt lat="36.7460970" lon="-3.7892590">
        <ele>19.0</ele>
        <time>2022-01-08T17:29:50Z</time>
      </trkpt>
      <trkpt lat="36.7460940" lon="-3.7892520">
        <ele>20.0</ele>
        <time>2022-01-08T17:29:51Z</time>
      </trkpt>
      <trkpt lat="36.7460980" lon="-3.7892400">
        <ele>20.0</ele>
        <time>2022-01-08T17:29:52Z</time>
      </trkpt>
      <trkpt lat="36.7461020" lon="-3.7892270">
        <ele>20.0</ele>
        <time>2022-01-08T17:29:53Z</time>
      </trkpt>
      <trkpt lat="36.7461070" lon="-3.7892140">
        <ele>20.0</ele>
        <time>2022-01-08T17:29:54Z</time>
      </trkpt>
      <trkpt lat="36.7461110" lon="-3.7892020">
        <ele>20.0</ele>
        <time>2022-01-08T17:29:55Z</time>
      </trkpt>
      <trkpt lat="36.7461150" lon="-3.7891890">
        <ele>20.0</ele>
        <time>2022-01-08T17:29:56Z</time>
      </trkpt>
      <trkpt lat="36.7461190" lon="-3.7891760">
        <ele>20.0</ele>
        <time>2022-01-08T17:29:57Z</time>
      </trkpt>
      <trkpt lat="36.7461240" lon="-3.7891630">
        <ele>20.0</ele>
        <time>2022-01-08T17:29:58Z</time>
      </trkpt>
      <trkpt lat="36.7461280" lon="-3.7891510">
        <ele>20.0</ele>
        <time>2022-01-08T17:29:59Z</time>
      </trkpt>
      <trkpt lat="36.7461320" lon="-3.7891380">
        <ele>20.0</ele>
        <time>2022-01-08T17:30:00Z</time>
      </trkpt>
      <trkpt lat="36.7461360" lon="-3.7891250">
        <ele>23.0</ele>
        <time>2022-01-08T17:30:01Z</time>
      </trkpt>
      <trkpt lat="36.7461430" lon="-3.7890880">
        <ele>23.0</ele>
        <time>2022-01-08T17:30:02Z</time>
      </trkpt>
      <trkpt lat="36.7461440" lon="-3.7890770">
        <ele>23.0</ele>
        <time>2022-01-08T17:30:03Z</time>
      </trkpt>
      <trkpt lat="36.7461450" lon="-3.7890670">
        <ele>23.0</ele>
        <time>2022-01-08T17:30:04Z</time>
      </trkpt>
      <trkpt lat="36.7461470" lon="-3.7890570">
        <ele>23.0</ele>
        <time>2022-01-08T17:30:05Z</time>
      </trkpt>
      <trkpt lat="36.7461480" lon="-3.7890470">
        <ele>23.0</ele>
        <time>2022-01-08T17:30:06Z</time>
      </trkpt>
      <trkpt lat="36.7461500" lon="-3.7890370">
        <ele>23.0</ele>
        <time>2022-01-08T17:30:07Z</time>
      </trkpt>
      <trkpt lat="36.7461510" lon="-3.7890260">
        <ele>23.0</ele>
        <time>2022-01-08T17:30:08Z</time>
      </trkpt>
      <trkpt lat="36.7461520" lon="-3.7890160">
        <ele>23.0</ele>
        <time>2022-01-08T17:30:09Z</time>
      </trkpt>
      <trkpt lat="36.7461540" lon="-3.7890060">
        <ele>23.0</ele>
        <time>2022-01-08T17:30:10Z</time>
      </trkpt>
      <trkpt lat="36.7461550" lon="-3.7889960">
        <ele>24.0</ele>
        <time>2022-01-08T17:30:11Z</time>
      </trkpt>
      <trkpt lat="36.7461510" lon="-3.7889870">
        <ele>24.0</ele>
        <time>2022-01-08T17:30:12Z</time>
      </trkpt>
      <trkpt lat="36.7461470" lon="-3.7889770">
        <ele>24.0</ele>
        <time>2022-01-08T17:30:13Z</time>
      </trkpt>
      <trkpt lat="36.7461420" lon="-3.7889680">
        <ele>24.0</ele>
        <time>2022-01-08T17:30:14Z</time>
      </trkpt>
      <trkpt lat="36.7461380" lon="-3.7889590">
        <ele>24.0</ele>
        <time>2022-01-08T17:30:15Z</time>
      </trkpt>
      <trkpt lat="36.7461340" lon="-3.7889490">
        <ele>24.0</ele>
        <time>2022-01-08T17:30:16Z</time>
      </trkpt>
      <trkpt lat="36.7461290" lon="-3.7889400">
        <ele>24.0</ele>
        <time>2022-01-08T17:30:17Z</time>
      </trkpt>
      <trkpt lat="36.7461250" lon="-3.7889310">
        <ele>24.0</ele>
        <time>2022-01-08T17:30:18Z</time>
      </trkpt>
      <trkpt lat="36.7461210" lon="-3.7889210">
        <ele>24.0</ele>
        <time>2022-01-08T17:30:19Z</time>
      </trkpt>
      <trkpt lat="36.7461170" lon="-3.7889120">
        <ele>24.0</ele>
        <time>2022-01-08T17:30:20Z</time>
      </trkpt>
      <trkpt lat="36.7461120" lon="-3.7889030">
        <ele>26.0</ele>
        <time>2022-01-08T17:30:21Z</time>
      </trkpt>
      <trkpt lat="36.7460930" lon="-3.7888800">
        <ele>26.0</ele>
        <time>2022-01-08T17:30:22Z</time>
      </trkpt>
      <trkpt lat="36.7460860" lon="-3.7888750">
        <ele>26.0</ele>
        <time>2022-01-08T17:30:23Z</time>
      </trkpt>
      <trkpt lat="36.7460790" lon="-3.7888700">
        <ele>26.0</ele>
        <time>2022-01-08T17:30:24Z</time>
      </trkpt>
      <trkpt lat="36.7460730" lon="-3.7888640">
        <ele>26.0</ele>
        <time>2022-01-08T17:30:25Z</time>
      </trkpt>
      <trkpt lat="36.7460660" lon="-3.7888590">
        <ele>26.0</ele>
        <time>2022-01-08T17:30:26Z</time>
      </trkpt>
      <trkpt lat="36.7460600" lon="-3.7888530">
        <ele>26.0</ele>
        <time>2022-01-08T17:30:27Z</time>
      </trkpt>
      <trkpt lat="36.7460530" lon="-3.7888480">
        <ele>26.0</ele>
        <time>2022-01-08T17:30:28Z</time>
      </trkpt>
      <trkpt lat="36.7460460" lon="-3.7888430">
        <ele>26.0</ele>
        <time>2022-01-08T17:30:29Z</time>
      </trkpt>
      <trkpt lat="36.7460400" lon="-3.7888370">
        <ele>26.0</ele>
        <time>2022-01-08T17:30:30Z</time>
      </trkpt>
      <trkpt lat="36.7460330" lon="-3.7888320">
        <ele>28.0</ele>
        <time>2022-01-08T17:30:31Z</time>
      </trkpt>
      <trkpt lat="36.7460070" lon="-3.7888190">
        <ele>28.0</ele>
        <time>2022-01-08T17:30:32Z</time>
      </trkpt>
      <trkpt lat="36.7460000" lon="-3.7888120">
        <ele>28.0</ele>
        <time>2022-01-08T17:30:33Z</time>
      </trkpt>
      <trkpt lat="36.7459920" lon="-3.7888050">
        <ele>28.0</ele>
        <time>2022-01-08T17:30:34Z</time>
      </trkpt>
      <trkpt lat="36.7459850" lon="-3.7887970">
        <ele>28.0</ele>
        <time>2022-01-08T17:30:35Z</time>
      </trkpt>
      <trkpt lat="36.7459780" lon="-3.7887900">
        <ele>28.0</ele>
        <time>2022-01-08T17:30:36Z</time>
      </trkpt>
      <trkpt lat="36.7459710" lon="-3.7887830">
        <ele>28.0</ele>
        <time>2022-01-08T17:30:37Z</time>
      </trkpt>
      <trkpt lat="36.7459630" lon="-3.7887760">
        <ele>28.0</ele>
        <time>2022-01-08T17:30:38Z</time>
      </trkpt>
      <trkpt lat="36.7459560" lon="-3.7887690">
        <ele>28.0</ele>
        <time>2022-01-08T17:30:39Z</time>
      </trkpt>
      <trkpt lat="36.7459490" lon="-3.7887620">
        <ele>28.0</ele>
        <time>2022-01-08T17:30:40Z</time>
      </trkpt>
      <trkpt lat="36.7459420" lon="-3.7887550">
        <ele>29.0</ele>
        <time>2022-01-08T17:30:41Z</time>
      </trkpt>
      <trkpt lat="36.7459260" lon="-3.7887430">
        <ele>29.0</ele>
        <time>2022-01-08T17:30:42Z</time>
      </trkpt>
      <trkpt lat="36.7459190" lon="-3.7887370">
        <ele>29.0</ele>
        <time>2022-01-08T17:30:43Z</time>
      </trkpt>
      <trkpt lat="36.7459130" lon="-3.7887320">
        <ele>29.0</ele>
        <time>2022-01-08T17:30:44Z</time>
      </trkpt>
      <trkpt lat="36.7459060" lon="-3.7887260">
        <ele>29.0</ele>
        <time>2022-01-08T17:30:45Z</time>
      </trkpt>
      <trkpt lat="36.7459000" lon="-3.7887200">
        <ele>29.0</ele>
        <time>2022-01-08T17:30:46Z</time>
      </trkpt>
      <trkpt lat="36.7458930" lon="-3.7887150">
        <ele>29.0</ele>
        <time>2022-01-08T17:30:47Z</time>
      </trkpt>
      <trkpt lat="36.7458870" lon="-3.7887090">
        <ele>29.0</ele>
        <time>2022-01-08T17:30:48Z</time>
      </trkpt>
      <trkpt lat="36.7458800" lon="-3.7887030">
        <ele>29.0</ele>
        <time>2022-01-08T17:30:49Z</time>
      </trkpt>
      <trkpt lat="36.7458740" lon="-3.7886980">
        <ele>29.0</ele>
        <time>2022-01-08T17:30:50Z</time>
      </trkpt>
      <trkpt lat="36.7458670" lon="-3.7886920">
        <ele>31.0</ele>
        <time>2022-01-08T17:30:51Z</time>
      </trkpt>
      <trkpt lat="36.7458580" lon="-3.7886860">
        <ele>31.0</ele>
        <time>2022-01-08T17:30:52Z</time>
      </trkpt>
      <trkpt lat="36.7458480" lon="-3.7886790">
        <ele>31.0</ele>
        <time>2022-01-08T17:30:53Z</time>
      </trkpt>
      <trkpt lat="36.7458390" lon="-3.7886730">
        <ele>31.0</ele>
        <time>2022-01-08T17:30:54Z</time>
      </trkpt>
      <trkpt lat="36.7458290" lon="-3.7886670">
        <ele>31.0</ele>
        <time>2022-01-08T17:30:55Z</time>
      </trkpt>
      <trkpt lat="36.7458200" lon="-3.7886610">
        <ele>31.0</ele>
        <time>2022-01-08T17:30:56Z</time>
      </trkpt>
      <trkpt lat="36.7458100" lon="-3.7886540">
        <ele>31.0</ele>
        <time>2022-01-08T17:30:57Z</time>
      </trkpt>
      <trkpt lat="36.7458010" lon="-3.7886480">
        <ele>31.0</ele>
        <time>2022-01-08T17:30:58Z</time>
      </trkpt>
      <trkpt lat="36.7457910" lon="-3.7886420">
        <ele>31.0</ele>
        <time>2022-01-08T17:30:59Z</time>
      </trkpt>
      <trkpt lat="36.7457820" lon="-3.7886360">
        <ele>31.0</ele>
        <time>2022-01-08T17:31:00Z</time>
      </trkpt>
      <trkpt lat="36.7457720" lon="-3.7886300">
        <ele>33.0</ele>
        <time>2022-01-08T17:31:01Z</time>
      </trkpt>
      <trkpt lat="36.7457650" lon="-3.7886260">
        <ele>33.0</ele>
        <time>2022-01-08T17:31:02Z</time>
      </trkpt>
      <trkpt lat="36.7457580" lon="-3.7886210">
        <ele>33.0</ele>
        <time>2022-01-08T17:31:03Z</time>
      </trkpt>
      <trkpt lat="36.7457500" lon="-3.7886170">
        <ele>33.0</ele>
        <time>2022-01-08T17:31:04Z</time>
      </trkpt>
      <trkpt lat="36.7457430" lon="-3.7886130">
        <ele>33.0</ele>
        <time>2022-01-08T17:31:05Z</time>
      </trkpt>
      <trkpt lat="36.7457360" lon="-3.7886090">
        <ele>33.0</ele>
        <time>2022-01-08T17:31:06Z</time>
      </trkpt>
      <trkpt lat="36.7457290" lon="-3.7886050">
        <ele>33.0</ele>
        <time>2022-01-08T17:31:07Z</time>
      </trkpt>
      <trkpt lat="36.7457220" lon="-3.7886010">
        <ele>33.0</ele>
        <time>2022-01-08T17:31:08Z</time>
      </trkpt>
      <trkpt lat="36.7457140" lon="-3.7885970">
        <ele>33.0</ele>
        <time>2022-01-08T17:31:09Z</time>
      </trkpt>
      <trkpt lat="36.7457070" lon="-3.7885930">
        <ele>33.0</ele>
        <time>2022-01-08T17:31:10Z</time>
      </trkpt>
      <trkpt lat="36.7457000" lon="-3.7885890">
        <ele>33.0</ele>
        <time>2022-01-08T17:31:11Z</time>
      </trkpt>
      <trkpt lat="36.7456760" lon="-3.7885720">
        <ele>33.0</ele>
        <time>2022-01-08T17:31:12Z</time>
      </trkpt>
      <trkpt lat="36.7456680" lon="-3.7885670">
        <ele>33.0</ele>
        <time>2022-01-08T17:31:13Z</time>
      </trkpt>
      <trkpt lat="36.7456610" lon="-3.7885620">
        <ele>33.0</ele>
        <time>2022-01-08T17:31:14Z</time>
      </trkpt>
      <trkpt lat="36.7456540" lon="-3.7885570">
        <ele>33.0</ele>
        <time>2022-01-08T17:31:15Z</time>
      </trkpt>
      <trkpt lat="36.7456460" lon="-3.7885520">
        <ele>33.0</ele>
        <time>2022-01-08T17:31:16Z</time>
      </trkpt>
      <trkpt lat="36.7456390" lon="-3.7885470">
        <ele>33.0</ele>
        <time>2022-01-08T17:31:17Z</time>
      </trkpt>
      <trkpt lat="36.7456310" lon="-3.7885420">
        <ele>33.0</ele>
        <time>2022-01-08T17:31:18Z</time>
      </trkpt>
      <trkpt lat="36.7456240" lon="-3.7885370">
        <ele>33.0</ele>
        <time>2022-01-08T17:31:19Z</time>
      </trkpt>
      <trkpt lat="36.7456170" lon="-3.7885320">
        <ele>33.0</ele>
        <time>2022-01-08T17:31:20Z</time>
      </trkpt>
      <trkpt lat="36.7456090" lon="-3.7885270">
        <ele>35.0</ele>
        <time>2022-01-08T17:31:21Z</time>
      </trkpt>
      <trkpt lat="36.7456040" lon="-3.7885190">
        <ele>35.0</ele>
        <time>2022-01-08T17:31:22Z</time>
      </trkpt>
      <trkpt lat="36.7455980" lon="-3.7885110">
        <ele>35.0</ele>
        <time>2022-01-08T17:31:23Z</time>
      </trkpt>
      <trkpt lat="36.7455930" lon="-3.7885030">
        <ele>35.0</ele>
        <time>2022-01-08T17:31:24Z</time>
      </trkpt>
      <trkpt lat="36.7455870" lon="-3.7884950">
        <ele>35.0</ele>
        <time>2022-01-08T17:31:25Z</time>
      </trkpt>
      <trkpt lat="36.7455820" lon="-3.7884870">
        <ele>35.0</ele>
        <time>2022-01-08T17:31:26Z</time>
      </trkpt>
      <trkpt lat="36.7455760" lon="-3.7884790">
        <ele>35.0</ele>
        <time>2022-01-08T17:31:27Z</time>
      </trkpt>
      <trkpt lat="36.7455710" lon="-3.7884710">
        <ele>35.0</ele>
        <time>2022-01-08T17:31:28Z</time>
      </trkpt>
      <trkpt lat="36.7455650" lon="-3.7884630">
        <ele>35.0</ele>
        <time>2022-01-08T17:31:29Z</time>
      </trkpt>
      <trkpt lat="36.7455600" lon="-3.7884550">
        <ele>35.0</ele>
        <time>2022-01-08T17:31:30Z</time>
      </trkpt>
      <trkpt lat="36.7455540" lon="-3.7884470">
        <ele>37.0</ele>
        <time>2022-01-08T17:31:31Z</time>
      </trkpt>
      <trkpt lat="36.7455380" lon="-3.7884160">
        <ele>37.0</ele>
        <time>2022-01-08T17:31:32Z</time>
      </trkpt>
      <trkpt lat="36.7455340" lon="-3.7884080">
        <ele>37.0</ele>
        <time>2022-01-08T17:31:33Z</time>
      </trkpt>
      <trkpt lat="36.7455300" lon="-3.7883990">
        <ele>37.0</ele>
        <time>2022-01-08T17:31:34Z</time>
      </trkpt>
      <trkpt lat="36.7455260" lon="-3.7883910">
        <ele>37.0</ele>
        <time>2022-01-08T17:31:35Z</time>
      </trkpt>
      <trkpt lat="36.7455230" lon="-3.7883820">
        <ele>37.0</ele>
        <time>2022-01-08T17:31:36Z</time>
      </trkpt>
      <trkpt lat="36.7455190" lon="-3.7883740">
        <ele>37.0</ele>
        <time>2022-01-08T17:31:37Z</time>
      </trkpt>
      <trkpt lat="36.7455150" lon="-3.7883650">
        <ele>37.0</ele>
        <time>2022-01-08T17:31:38Z</time>
      </trkpt>
      <trkpt lat="36.7455110" lon="-3.7883570">
        <ele>37.0</ele>
        <time>2022-01-08T17:31:39Z</time>
      </trkpt>
      <trkpt lat="36.7455070" lon="-3.7883480">
        <ele>37.0</ele>
        <time>2022-01-08T17:31:40Z</time>
      </trkpt>
      <trkpt lat="36.7455030" lon="-3.7883400">
        <ele>38.0</ele>
        <time>2022-01-08T17:31:41Z</time>
      </trkpt>
      <trkpt lat="36.7454980" lon="-3.7883090">
        <ele>38.0</ele>
        <time>2022-01-08T17:31:42Z</time>
      </trkpt>
      <trkpt lat="36.7455020" lon="-3.7883000">
        <ele>38.0</ele>
        <time>2022-01-08T17:31:43Z</time>
      </trkpt>
      <trkpt lat="36.7455050" lon="-3.7882910">
        <ele>38.0</ele>
        <time>2022-01-08T17:31:44Z</time>
      </trkpt>
      <trkpt lat="36.7455080" lon="-3.7882830">
        <ele>38.0</ele>
        <time>2022-01-08T17:31:45Z</time>
      </trkpt>
      <trkpt lat="36.7455110" lon="-3.7882740">
        <ele>38.0</ele>
        <time>2022-01-08T17:31:46Z</time>
      </trkpt>
      <trkpt lat="36.7455140" lon="-3.7882650">
        <ele>38.0</ele>
        <time>2022-01-08T17:31:47Z</time>
      </trkpt>
      <trkpt lat="36.7455170" lon="-3.7882570">
        <ele>38.0</ele>
        <time>2022-01-08T17:31:48Z</time>
      </trkpt>
      <trkpt lat="36.7455210" lon="-3.7882480">
        <ele>38.0</ele>
        <time>2022-01-08T17:31:49Z</time>
      </trkpt>
      <trkpt lat="36.7455240" lon="-3.7882390">
        <ele>38.0</ele>
        <time>2022-01-08T17:31:50Z</time>
      </trkpt>
      <trkpt lat="36.7455270" lon="-3.7882310">
        <ele>39.0</ele>
        <time>2022-01-08T17:31:51Z</time>
      </trkpt>
      <trkpt lat="36.7455260" lon="-3.7881950">
        <ele>39.0</ele>
        <time>2022-01-08T17:31:52Z</time>
      </trkpt>
      <trkpt lat="36.7455230" lon="-3.7881860">
        <ele>39.0</ele>
        <time>2022-01-08T17:31:53Z</time>
      </trkpt>
      <trkpt lat="36.7455210" lon="-3.7881770">
        <ele>39.0</ele>
        <time>2022-01-08T17:31:54Z</time>
      </trkpt>
      <trkpt lat="36.7455180" lon="-3.7881680">
        <ele>39.0</ele>
        <time>2022-01-08T17:31:55Z</time>
      </trkpt>
      <trkpt lat="36.7455160" lon="-3.7881590">
        <ele>39.0</ele>
        <time>2022-01-08T17:31:56Z</time>
      </trkpt>
      <trkpt lat="36.7455130" lon="-3.7881500">
        <ele>39.0</ele>
        <time>2022-01-08T17:31:57Z</time>
      </trkpt>
      <trkpt lat="36.7455110" lon="-3.7881410">
        <ele>39.0</ele>
        <time>2022-01-08T17:31:58Z</time>
      </trkpt>
      <trkpt lat="36.7455090" lon="-3.7881330">
        <ele>39.0</ele>
        <time>2022-01-08T17:31:59Z</time>
      </trkpt>
      <trkpt lat="36.7455060" lon="-3.7881240">
        <ele>39.0</ele>
        <time>2022-01-08T17:32:00Z</time>
      </trkpt>
      <trkpt lat="36.7455040" lon="-3.7881150">
        <ele>41.0</ele>
        <time>2022-01-08T17:32:01Z</time>
      </trkpt>
      <trkpt lat="36.7454980" lon="-3.7880870">
        <ele>41.0</ele>
        <time>2022-01-08T17:32:02Z</time>
      </trkpt>
      <trkpt lat="36.7454950" lon="-3.7880750">
        <ele>41.0</ele>
        <time>2022-01-08T17:32:03Z</time>
      </trkpt>
      <trkpt lat="36.7454930" lon="-3.7880620">
        <ele>41.0</ele>
        <time>2022-01-08T17:32:04Z</time>
      </trkpt>
      <trkpt lat="36.7454900" lon="-3.7880500">
        <ele>41.0</ele>
        <time>2022-01-08T17:32:05Z</time>
      </trkpt>
      <trkpt lat="36.7454870" lon="-3.7880380">
        <ele>41.0</ele>
        <time>2022-01-08T17:32:06Z</time>
      </trkpt>
      <trkpt lat="36.7454850" lon="-3.7880260">
        <ele>41.0</ele>
        <time>2022-01-08T17:32:07Z</time>
      </trkpt>
      <trkpt lat="36.7454820" lon="-3.7880140">
        <ele>41.0</ele>
        <time>2022-01-08T17:32:08Z</time>
      </trkpt>
      <trkpt lat="36.7454790" lon="-3.7880010">
        <ele>41.0</ele>
        <time>2022-01-08T17:32:09Z</time>
      </trkpt>
      <trkpt lat="36.7454770" lon="-3.7879890">
        <ele>41.0</ele>
        <time>2022-01-08T17:32:10Z</time>
      </trkpt>
      <trkpt lat="36.7454740" lon="-3.7879770">
        <ele>42.0</ele>
        <time>2022-01-08T17:32:11Z</time>
      </trkpt>
      <trkpt lat="36.7454650" lon="-3.7879430">
        <ele>42.0</ele>
        <time>2022-01-08T17:32:12Z</time>
      </trkpt>
      <trkpt lat="36.7454620" lon="-3.7879350">
        <ele>42.0</ele>
        <time>2022-01-08T17:32:13Z</time>
      </trkpt>
      <trkpt lat="36.7454590" lon="-3.7879280">
        <ele>42.0</ele>
        <time>2022-01-08T17:32:14Z</time>
      </trkpt>
      <trkpt lat="36.7454560" lon="-3.7879200">
        <ele>42.0</ele>
        <time>2022-01-08T17:32:15Z</time>
      </trkpt>
      <trkpt lat="36.7454520" lon="-3.7879130">
        <ele>42.0</ele>
        <time>2022-01-08T17:32:16Z</time>
      </trkpt>
      <trkpt lat="36.7454490" lon="-3.7879050">
        <ele>42.0</ele>
        <time>2022-01-08T17:32:17Z</time>
      </trkpt>
      <trkpt lat="36.7454460" lon="-3.7878980">
        <ele>42.0</ele>
        <time>2022-01-08T17:32:18Z</time>
      </trkpt>
      <trkpt lat="36.7454430" lon="-3.7878900">
        <ele>42.0</ele>
        <time>2022-01-08T17:32:19Z</time>
      </trkpt>
      <trkpt lat="36.7454390" lon="-3.7878830">
        <ele>42.0</ele>
        <time>2022-01-08T17:32:20Z</time>
      </trkpt>
      <trkpt lat="36.7454360" lon="-3.7878750">
        <ele>44.0</ele>
        <time>2022-01-08T17:32:21Z</time>
      </trkpt>
      <trkpt lat="36.7454330" lon="-3.7878670">
        <ele>44.0</ele>
        <time>2022-01-08T17:32:22Z</time>
      </trkpt>
      <trkpt lat="36.7454310" lon="-3.7878590">
        <ele>44.0</ele>
        <time>2022-01-08T17:32:23Z</time>
      </trkpt>
      <trkpt lat="36.7454280" lon="-3.7878520">
        <ele>44.0</ele>
        <time>2022-01-08T17:32:24Z</time>
      </trkpt>
      <trkpt lat="36.7454250" lon="-3.7878440">
        <ele>44.0</ele>
        <time>2022-01-08T17:32:25Z</time>
      </trkpt>
      <trkpt lat="36.7454220" lon="-3.7878360">
        <ele>44.0</ele>
        <time>2022-01-08T17:32:26Z</time>
      </trkpt>
      <trkpt lat="36.7454190" lon="-3.7878280">
        <ele>44.0</ele>
        <time>2022-01-08T17:32:27Z</time>
      </trkpt>
      <trkpt lat="36.7454170" lon="-3.7878200">
        <ele>44.0</ele>
        <time>2022-01-08T17:32:28Z</time>
      </trkpt>
      <trkpt lat="36.7454140" lon="-3.7878130">
        <ele>44.0</ele>
        <time>2022-01-08T17:32:29Z</time>
      </trkpt>
      <trkpt lat="36.7454110" lon="-3.7878050">
        <ele>44.0</ele>
        <time>2022-01-08T17:32:30Z</time>
      </trkpt>
      <trkpt lat="36.7454080" lon="-3.7877970">
        <ele>46.0</ele>
        <time>2022-01-08T17:32:31Z</time>
      </trkpt>
      <trkpt lat="36.7454170" lon="-3.7877550">
        <ele>46.0</ele>
        <time>2022-01-08T17:32:32Z</time>
      </trkpt>
      <trkpt lat="36.7454230" lon="-3.7877450">
        <ele>46.0</ele>
        <time>2022-01-08T17:32:33Z</time>
      </trkpt>
      <trkpt lat="36.7454280" lon="-3.7877340">
        <ele>46.0</ele>
        <time>2022-01-08T17:32:34Z</time>
      </trkpt>
      <trkpt lat="36.7454340" lon="-3.7877230">
        <ele>46.0</ele>
        <time>2022-01-08T17:32:35Z</time>
      </trkpt>
      <trkpt lat="36.7454390" lon="-3.7877130">
        <ele>46.0</ele>
        <time>2022-01-08T17:32:36Z</time>
      </trkpt>
      <trkpt lat="36.7454450" lon="-3.7877020">
        <ele>46.0</ele>
        <time>2022-01-08T17:32:37Z</time>
      </trkpt>
      <trkpt lat="36.7454510" lon="-3.7876910">
        <ele>46.0</ele>
        <time>2022-01-08T17:32:38Z</time>
      </trkpt>
      <trkpt lat="36.7454560" lon="-3.7876800">
        <ele>46.0</ele>
        <time>2022-01-08T17:32:39Z</time>
      </trkpt>
      <trkpt lat="36.7454620" lon="-3.7876700">
        <ele>46.0</ele>
        <time>2022-01-08T17:32:40Z</time>
      </trkpt>
      <trkpt lat="36.7454670" lon="-3.7876590">
        <ele>47.0</ele>
        <time>2022-01-08T17:32:41Z</time>
      </trkpt>
      <trkpt lat="36.7454670" lon="-3.7876590">
        <ele>47.0</ele>
        <time>2022-01-08T17:32:42Z</time>
      </trkpt>
      <trkpt lat="36.7454670" lon="-3.7876590">
        <ele>47.0</ele>
        <time>2022-01-08T17:32:43Z</time>
      </trkpt>
      <trkpt lat="36.7454670" lon="-3.7876590">
        <ele>47.0</ele>
        <time>2022-01-08T17:32:44Z</time>
      </trkpt>
      <trkpt lat="36.7454670" lon="-3.7876590">
        <ele>47.0</ele>
        <time>2022-01-08T17:32:45Z</time>
      </trkpt>
      <trkpt lat="36.7454670" lon="-3.7876590">
        <ele>47.0</ele>
        <time>2022-01-08T17:32:46Z</time>
      </trkpt>
      <trkpt lat="36.7454670" lon="-3.7876590">
        <ele>47.0</ele>
        <time>2022-01-08T17:32:47Z</time>
      </trkpt>
      <trkpt lat="36.7454670" lon="-3.7876590">
        <ele>47.0</ele>
        <time>2022-01-08T17:32:48Z</time>
      </trkpt>
      <trkpt lat="36.7454670" lon="-3.7876590">
        <ele>47.0</ele>
        <time>2022-01-08T17:32:49Z</time>
      </trkpt>
      <trkpt lat="36.7454670" lon="-3.7876590">
        <ele>47.0</ele>
        <time>2022-01-08T17:32:50Z</time>
      </trkpt>
      <trkpt lat="36.7454670" lon="-3.7876590">
        <ele>49.0</ele>
        <time>2022-01-08T17:32:51Z</time>
      </trkpt>
      <trkpt lat="36.7454800" lon="-3.7876560">
        <ele>49.0</ele>
        <time>2022-01-08T17:32:52Z</time>
      </trkpt>
      <trkpt lat="36.7454940" lon="-3.7876530">
        <ele>49.0</ele>
        <time>2022-01-08T17:32:53Z</time>
      </trkpt>
      <trkpt lat="36.7455070" lon="-3.7876490">
        <ele>49.0</ele>
        <time>2022-01-08T17:32:54Z</time>
      </trkpt>
      <trkpt lat="36.7455200" lon="-3.7876460">
        <ele>49.0</ele>
        <time>2022-01-08T17:32:55Z</time>
      </trkpt>
      <trkpt lat="36.7455330" lon="-3.7876430">
        <ele>49.0</ele>
        <time>2022-01-08T17:32:56Z</time>
      </trkpt>
      <trkpt lat="36.7455460" lon="-3.7876400">
        <ele>49.0</ele>
        <time>2022-01-08T17:32:57Z</time>
      </trkpt>
      <trkpt lat="36.7455590" lon="-3.7876370">
        <ele>49.0</ele>
        <time>2022-01-08T17:32:58Z</time>
      </trkpt>
      <trkpt lat="36.7455720" lon="-3.7876340">
        <ele>49.0</ele>
        <time>2022-01-08T17:32:59Z</time>
      </trkpt>
      <trkpt lat="36.7455850" lon="-3.7876300">
        <ele>49.0</ele>
        <time>2022-01-08T17:33:00Z</time>
      </trkpt>
      <trkpt lat="36.7455980" lon="-3.7876270">
        <ele>51.0</ele>
        <time>2022-01-08T17:33:01Z</time>
      </trkpt>
      <trkpt lat="36.7456170" lon="-3.7876360">
        <ele>51.0</ele>
        <time>2022-01-08T17:33:02Z</time>
      </trkpt>
      <trkpt lat="36.7456270" lon="-3.7876440">
        <ele>51.0</ele>
        <time>2022-01-08T17:33:03Z</time>
      </trkpt>
      <trkpt lat="36.7456370" lon="-3.7876520">
        <ele>51.0</ele>
        <time>2022-01-08T17:33:04Z</time>
      </trkpt>
      <trkpt lat="36.7456470" lon="-3.7876600">
        <ele>51.0</ele>
        <time>2022-01-08T17:33:05Z</time>
      </trkpt>
      <trkpt lat="36.7456570" lon="-3.7876680">
        <ele>51.0</ele>
        <time>2022-01-08T17:33:06Z</time>
      </trkpt>
      <trkpt lat="36.7456670" lon="-3.7876760">
        <ele>51.0</ele>
        <time>2022-01-08T17:33:07Z</time>
      </trkpt>
      <trkpt lat="36.7456770" lon="-3.7876840">
        <ele>51.0</ele>
        <time>2022-01-08T17:33:08Z</time>
      </trkpt>
      <trkpt lat="36.7456870" lon="-3.7876910">
        <ele>51.0</ele>
        <time>2022-01-08T17:33:09Z</time>
      </trkpt>
      <trkpt lat="36.7456960" lon="-3.7876990">
        <ele>51.0</ele>
        <time>2022-01-08T17:33:10Z</time>
      </trkpt>
      <trkpt lat="36.7457060" lon="-3.7877070">
        <ele>53.0</ele>
        <time>2022-01-08T17:33:11Z</time>
      </trkpt>
      <trkpt lat="36.7457190" lon="-3.7877250">
        <ele>53.0</ele>
        <time>2022-01-08T17:33:12Z</time>
      </trkpt>
      <trkpt lat="36.7457250" lon="-3.7877360">
        <ele>53.0</ele>
        <time>2022-01-08T17:33:13Z</time>
      </trkpt>
      <trkpt lat="36.7457300" lon="-3.7877460">
        <ele>53.0</ele>
        <time>2022-01-08T17:33:14Z</time>
      </trkpt>
      <trkpt lat="36.7457350" lon="-3.7877560">
        <ele>53.0</ele>
        <time>2022-01-08T17:33:15Z</time>
      </trkpt>
      <trkpt lat="36.7457400" lon="-3.7877660">
        <ele>53.0</ele>
        <time>2022-01-08T17:33:16Z</time>
      </trkpt>
      <trkpt lat="36.7457450" lon="-3.7877770">
        <ele>53.0</ele>
        <time>2022-01-08T17:33:17Z</time>
      </trkpt>
      <trkpt lat="36.7457500" lon="-3.7877870">
        <ele>53.0</ele>
        <time>2022-01-08T17:33:18Z</time>
      </trkpt>
      <trkpt lat="36.7457550" lon="-3.7877970">
        <ele>53.0</ele>
        <time>2022-01-08T17:33:19Z</time>
      </trkpt>
      <trkpt lat="36.7457600" lon="-3.7878070">
        <ele>53.0</ele>
        <time>2022-01-08T17:33:20Z</time>
      </trkpt>
      <trkpt lat="36.7457650" lon="-3.7878180">
        <ele>54.0</ele>
        <time>2022-01-08T17:33:21Z</time>
      </trkpt>
      <trkpt lat="36.7457750" lon="-3.7878370">
        <ele>54.0</ele>
        <time>2022-01-08T17:33:22Z</time>
      </trkpt>
      <trkpt lat="36.7457790" lon="-3.7878450">
        <ele>54.0</ele>
        <time>2022-01-08T17:33:23Z</time>
      </trkpt>
      <trkpt lat="36.7457820" lon="-3.7878530">
        <ele>54.0</ele>
        <time>2022-01-08T17:33:24Z</time>
      </trkpt>
      <trkpt lat="36.7457860" lon="-3.7878610">
        <ele>54.0</ele>
        <time>2022-01-08T17:33:25Z</time>
      </trkpt>
      <trkpt lat="36.7457900" lon="-3.7878700">
        <ele>54.0</ele>
        <time>2022-01-08T17:33:26Z</time>
      </trkpt>
      <trkpt lat="36.7457940" lon="-3.7878780">
        <ele>54.0</ele>
        <time>2022-01-08T17:33:27Z</time>
      </trkpt>
      <trkpt lat="36.7457970" lon="-3.7878860">
        <ele>54.0</ele>
        <time>2022-01-08T17:33:28Z</time>
      </trkpt>
      <trkpt lat="36.7458010" lon="-3.7878950">
        <ele>54.0</ele>
        <time>2022-01-08T17:33:29Z</time>
      </trkpt>
      <trkpt lat="36.7458050" lon="-3.7879030">
        <ele>54.0</ele>
        <time>2022-01-08T17:33:30Z</time>
      </trkpt>
      <trkpt lat="36.7458080" lon="-3.7879110">
        <ele>56.0</ele>
        <time>2022-01-08T17:33:31Z</time>
      </trkpt>
      <trkpt lat="36.7458150" lon="-3.7879180">
        <ele>56.0</ele>
        <time>2022-01-08T17:33:32Z</time>
      </trkpt>
      <trkpt lat="36.7458220" lon="-3.7879240">
        <ele>56.0</ele>
        <time>2022-01-08T17:33:33Z</time>
      </trkpt>
      <trkpt lat="36.7458290" lon="-3.7879300">
        <ele>56.0</ele>
        <time>2022-01-08T17:33:34Z</time>
      </trkpt>
      <trkpt lat="36.7458360" lon="-3.7879360">
        <ele>56.0</ele>
        <time>2022-01-08T17:33:35Z</time>
      </trkpt>
      <trkpt lat="36.7458420" lon="-3.7879430">
        <ele>56.0</ele>
        <time>2022-01-08T17:33:36Z</time>
      </trkpt>
      <trkpt lat="36.7458490" lon="-3.7879490">
        <ele>56.0</ele>
        <time>2022-01-08T17:33:37Z</time>
      </trkpt>
      <trkpt lat="36.7458560" lon="-3.7879550">
        <ele>56.0</ele>
        <time>2022-01-08T17:33:38Z</time>
      </trkpt>
      <trkpt lat="36.7458630" lon="-3.7879620">
        <ele>56.0</ele>
        <time>2022-01-08T17:33:39Z</time>
      </trkpt>
      <trkpt lat="36.7458700" lon="-3.7879680">
        <ele>56.0</ele>
        <time>2022-01-08T17:33:40Z</time>
      </trkpt>
      <trkpt lat="36.7458760" lon="-3.7879740">
        <ele>58.0</ele>
        <time>2022-01-08T17:33:41Z</time>
      </trkpt>
      <trkpt lat="36.7459060" lon="-3.7879820">
        <ele>58.0</ele>
        <time>2022-01-08T17:33:42Z</time>
      </trkpt>
      <trkpt lat="36.7459160" lon="-3.7879810">
        <ele>58.0</ele>
        <time>2022-01-08T17:33:43Z</time>
      </trkpt>
      <trkpt lat="36.7459260" lon="-3.7879810">
        <ele>58.0</ele>
        <time>2022-01-08T17:33:44Z</time>
      </trkpt>
      <trkpt lat="36.7459360" lon="-3.7879800">
        <ele>58.0</ele>
        <time>2022-01-08T17:33:45Z</time>
      </trkpt>
      <trkpt lat="36.7459450" lon="-3.7879790">
        <ele>58.0</ele>
        <time>2022-01-08T17:33:46Z</time>
      </trkpt>
      <trkpt lat="36.7459550" lon="-3.7879780">
        <ele>58.0</ele>
        <time>2022-01-08T17:33:47Z</time>
      </trkpt>
      <trkpt lat="36.7459650" lon="-3.7879770">
        <ele>58.0</ele>
        <time>2022-01-08T17:33:48Z</time>
      </trkpt>
      <trkpt lat="36.7459750" lon="-3.7879760">
        <ele>58.0</ele>
        <time>2022-01-08T17:33:49Z</time>
      </trkpt>
      <trkpt lat="36.7459850" lon="-3.7879750">
        <ele>58.0</ele>
        <time>2022-01-08T17:33:50Z</time>
      </trkpt>
      <trkpt lat="36.7459940" lon="-3.7879740">
        <ele>59.0</ele>
        <time>2022-01-08T17:33:51Z</time>
      </trkpt>
      <trkpt lat="36.7460020" lon="-3.7879710">
        <ele>59.0</ele>
        <time>2022-01-08T17:33:52Z</time>
      </trkpt>
      <trkpt lat="36.7460090" lon="-3.7879690">
        <ele>59.0</ele>
        <time>2022-01-08T17:33:53Z</time>
      </trkpt>
      <trkpt lat="36.7460160" lon="-3.7879660">
        <ele>59.0</ele>
        <time>2022-01-08T17:33:54Z</time>
      </trkpt>
      <trkpt lat="36.7460230" lon="-3.7879630">
        <ele>59.0</ele>
        <time>2022-01-08T17:33:55Z</time>
      </trkpt>
      <trkpt lat="36.7460310" lon="-3.7879600">
        <ele>59.0</ele>
        <time>2022-01-08T17:33:56Z</time>
      </trkpt>
      <trkpt lat="36.7460380" lon="-3.7879580">
        <ele>59.0</ele>
        <time>2022-01-08T17:33:57Z</time>
      </trkpt>
      <trkpt lat="36.7460450" lon="-3.7879550">
        <ele>59.0</ele>
        <time>2022-01-08T17:33:58Z</time>
      </trkpt>
      <trkpt lat="36.7460530" lon="-3.7879520">
        <ele>59.0</ele>
        <time>2022-01-08T17:33:59Z</time>
      </trkpt>
      <trkpt lat="36.7460600" lon="-3.7879490">
        <ele>59.0</ele>
        <time>2022-01-08T17:34:00Z</time>
      </trkpt>
      <trkpt lat="36.7460670" lon="-3.7879460">
        <ele>62.0</ele>
        <time>2022-01-08T17:34:01Z</time>
      </trkpt>
      <trkpt lat="36.7460910" lon="-3.7879360">
        <ele>62.0</ele>
        <time>2022-01-08T17:34:02Z</time>
      </trkpt>
      <trkpt lat="36.7460970" lon="-3.7879340">
        <ele>62.0</ele>
        <time>2022-01-08T17:34:03Z</time>
      </trkpt>
      <trkpt lat="36.7461030" lon="-3.7879320">
        <ele>62.0</ele>
        <time>2022-01-08T17:34:04Z</time>
      </trkpt>
      <trkpt lat="36.7461080" lon="-3.7879300">
        <ele>62.0</ele>
        <time>2022-01-08T17:34:05Z</time>
      </trkpt>
      <trkpt lat="36.7461140" lon="-3.7879280">
        <ele>62.0</ele>
        <time>2022-01-08T17:34:06Z</time>
      </trkpt>
      <trkpt lat="36.7461200" lon="-3.7879270">
        <ele>62.0</ele>
        <time>2022-01-08T17:34:07Z</time>
      </trkpt>
      <trkpt lat="36.7461260" lon="-3.7879250">
        <ele>62.0</ele>
        <time>2022-01-08T17:34:08Z</time>
      </trkpt>
      <trkpt lat="36.7461320" lon="-3.7879230">
        <ele>62.0</ele>
        <time>2022-01-08T17:34:09Z</time>
      </trkpt>
      <trkpt lat="36.7461370" lon="-3.7879210">
        <ele>62.0</ele>
        <time>2022-01-08T17:34:10Z</time>
      </trkpt>
      <trkpt lat="36.7461430" lon="-3.7879190">
        <ele>63.0</ele>
        <time>2022-01-08T17:34:11Z</time>
      </trkpt>
      <trkpt lat="36.7461750" lon="-3.7879160">
        <ele>63.0</ele>
        <time>2022-01-08T17:34:12Z</time>
      </trkpt>
      <trkpt lat="36.7461820" lon="-3.7879150">
        <ele>63.0</ele>
        <time>2022-01-08T17:34:13Z</time>
      </trkpt>
      <trkpt lat="36.7461890" lon="-3.7879140">
        <ele>63.0</ele>
        <time>2022-01-08T17:34:14Z</time>
      </trkpt>
      <trkpt lat="36.7461960" lon="-3.7879130">
        <ele>63.0</ele>
        <time>2022-01-08T17:34:15Z</time>
      </trkpt>
      <trkpt lat="36.7462030" lon="-3.7879120">
        <ele>63.0</ele>
        <time>2022-01-08T17:34:16Z</time>
      </trkpt>
      <trkpt lat="36.7462100" lon="-3.7879110">
        <ele>63.0</ele>
        <time>2022-01-08T17:34:17Z</time>
      </trkpt>
      <trkpt lat="36.7462170" lon="-3.7879100">
        <ele>63.0</ele>
        <time>2022-01-08T17:34:18Z</time>
      </trkpt>
      <trkpt lat="36.7462240" lon="-3.7879090">
        <ele>63.0</ele>
        <time>2022-01-08T17:34:19Z</time>
      </trkpt>
      <trkpt lat="36.7462310" lon="-3.7879080">
        <ele>63.0</ele>
        <time>2022-01-08T17:34:20Z</time>
      </trkpt>
      <trkpt lat="36.7462380" lon="-3.7879070">
        <ele>64.0</ele>
        <time>2022-01-08T17:34:21Z</time>
      </trkpt>
      <trkpt lat="36.7462670" lon="-3.7879010">
        <ele>64.0</ele>
        <time>2022-01-08T17:34:22Z</time>
      </trkpt>
      <trkpt lat="36.7462750" lon="-3.7878990">
        <ele>64.0</ele>
        <time>2022-01-08T17:34:23Z</time>
      </trkpt>
      <trkpt lat="36.7462840" lon="-3.7878970">
        <ele>64.0</ele>
        <time>2022-01-08T17:34:24Z</time>
      </trkpt>
      <trkpt lat="36.7462920" lon="-3.7878950">
        <ele>64.0</ele>
        <time>2022-01-08T17:34:25Z</time>
      </trkpt>
      <trkpt lat="36.7463000" lon="-3.7878920">
        <ele>64.0</ele>
        <time>2022-01-08T17:34:26Z</time>
      </trkpt>
      <trkpt lat="36.7463080" lon="-3.7878900">
        <ele>64.0</ele>
        <time>2022-01-08T17:34:27Z</time>
      </trkpt>
      <trkpt lat="36.7463170" lon="-3.7878880">
        <ele>64.0</ele>
        <time>2022-01-08T17:34:28Z</time>
      </trkpt>
      <trkpt lat="36.7463250" lon="-3.7878860">
        <ele>64.0</ele>
        <time>2022-01-08T17:34:29Z</time>
      </trkpt>
      <trkpt lat="36.7463330" lon="-3.7878840">
        <ele>64.0</ele>
        <time>2022-01-08T17:34:30Z</time>
      </trkpt>
      <trkpt lat="36.7463410" lon="-3.7878810">
        <ele>66.0</ele>
        <time>2022-01-08T17:34:31Z</time>
      </trkpt>
      <trkpt lat="36.7463490" lon="-3.7878780">
        <ele>66.0</ele>
        <time>2022-01-08T17:34:32Z</time>
      </trkpt>
      <trkpt lat="36.7463570" lon="-3.7878740">
        <ele>66.0</ele>
        <time>2022-01-08T17:34:33Z</time>
      </trkpt>
      <trkpt lat="36.7463650" lon="-3.7878700">
        <ele>66.0</ele>
        <time>2022-01-08T17:34:34Z</time>
      </trkpt>
      <trkpt lat="36.7463740" lon="-3.7878660">
        <ele>66.0</ele>
        <time>2022-01-08T17:34:35Z</time>
      </trkpt>
      <trkpt lat="36.7463820" lon="-3.7878620">
        <ele>66.0</ele>
        <time>2022-01-08T17:34:36Z</time>
      </trkpt>
      <trkpt lat="36.7463900" lon="-3.7878590">
        <ele>66.0</ele>
        <time>2022-01-08T17:34:37Z</time>
      </trkpt>
      <trkpt lat="36.7463980" lon="-3.7878550">
        <ele>66.0</ele>
        <time>2022-01-08T17:34:38Z</time>
      </trkpt>
      <trkpt lat="36.7464060" lon="-3.7878510">
        <ele>66.0</ele>
        <time>2022-01-08T17:34:39Z</time>
      </trkpt>
      <trkpt lat="36.7464140" lon="-3.7878470">
        <ele>66.0</ele>
        <time>2022-01-08T17:34:40Z</time>
      </trkpt>
      <trkpt lat="36.7464220" lon="-3.7878430">
        <ele>67.0</ele>
        <time>2022-01-08T17:34:41Z</time>
      </trkpt>
      <trkpt lat="36.7464280" lon="-3.7878360">
        <ele>67.0</ele>
        <time>2022-01-08T17:34:42Z</time>
      </trkpt>
      <trkpt lat="36.7464340" lon="-3.7878290">
        <ele>67.0</ele>
        <time>2022-01-08T17:34:43Z</time>
      </trkpt>
      <trkpt lat="36.7464400" lon="-3.7878210">
        <ele>67.0</ele>
        <time>2022-01-08T17:34:44Z</time>
      </trkpt>
      <trkpt lat="36.7464460" lon="-3.7878140">
        <ele>67.0</ele>
        <time>2022-01-08T17:34:45Z</time>
      </trkpt>
      <trkpt lat="36.7464520" lon="-3.7878060">
        <ele>67.0</ele>
        <time>2022-01-08T17:34:46Z</time>
      </trkpt>
      <trkpt lat="36.7464570" lon="-3.7877990">
        <ele>67.0</ele>
        <time>2022-01-08T17:34:47Z</time>
      </trkpt>
      <trkpt lat="36.7464630" lon="-3.7877920">
        <ele>67.0</ele>
        <time>2022-01-08T17:34:48Z</time>
      </trkpt>
      <trkpt lat="36.7464690" lon="-3.7877840">
        <ele>67.0</ele>
        <time>2022-01-08T17:34:49Z</time>
      </trkpt>
      <trkpt lat="36.7464750" lon="-3.7877770">
        <ele>67.0</ele>
        <time>2022-01-08T17:34:50Z</time>
      </trkpt>
      <trkpt lat="36.7464810" lon="-3.7877690">
        <ele>69.0</ele>
        <time>2022-01-08T17:34:51Z</time>
      </trkpt>
      <trkpt lat="36.7465000" lon="-3.7877320">
        <ele>69.0</ele>
        <time>2022-01-08T17:34:52Z</time>
      </trkpt>
      <trkpt lat="36.7465040" lon="-3.7877230">
        <ele>69.0</ele>
        <time>2022-01-08T17:34:53Z</time>
      </trkpt>
      <trkpt lat="36.7465090" lon="-3.7877130">
        <ele>69.0</ele>
        <time>2022-01-08T17:34:54Z</time>
      </trkpt>
      <trkpt lat="36.7465130" lon="-3.7877040">
        <ele>69.0</ele>
        <time>2022-01-08T17:34:55Z</time>
      </trkpt>
      <trkpt lat="36.7465180" lon="-3.7876940">
        <ele>69.0</ele>
        <time>2022-01-08T17:34:56Z</time>
      </trkpt>
      <trkpt lat="36.7465220" lon="-3.7876850">
        <ele>69.0</ele>
        <time>2022-01-08T17:34:57Z</time>
      </trkpt>
      <trkpt lat="36.7465270" lon="-3.7876760">
        <ele>69.0</ele>
        <time>2022-01-08T17:34:58Z</time>
      </trkpt>
      <trkpt lat="36.7465310" lon="-3.7876660">
        <ele>69.0</ele>
        <time>2022-01-08T17:34:59Z</time>
      </trkpt>
      <trkpt lat="36.7465360" lon="-3.7876570">
        <ele>69.0</ele>
        <time>2022-01-08T17:35:00Z</time>
      </trkpt>
      <trkpt lat="36.7465410" lon="-3.7876470">
        <ele>71.0</ele>
        <time>2022-01-08T17:35:01Z</time>
      </trkpt>
      <trkpt lat="36.7465460" lon="-3.7876380">
        <ele>71.0</ele>
        <time>2022-01-08T17:35:02Z</time>
      </trkpt>
      <trkpt lat="36.7465520" lon="-3.7876280">
        <ele>71.0</ele>
        <time>2022-01-08T17:35:03Z</time>
      </trkpt>
      <trkpt lat="36.7465580" lon="-3.7876190">
        <ele>71.0</ele>
        <time>2022-01-08T17:35:04Z</time>
      </trkpt>
      <trkpt lat="36.7465640" lon="-3.7876100">
        <ele>71.0</ele>
        <time>2022-01-08T17:35:05Z</time>
      </trkpt>
      <trkpt lat="36.7465700" lon="-3.7876000">
        <ele>71.0</ele>
        <time>2022-01-08T17:35:06Z</time>
      </trkpt>
      <trkpt lat="36.7465750" lon="-3.7875910">
        <ele>71.0</ele>
        <time>2022-01-08T17:35:07Z</time>
      </trkpt>
      <trkpt lat="36.7465810" lon="-3.7875810">
        <ele>71.0</ele>
        <time>2022-01-08T17:35:08Z</time>
      </trkpt>
      <trkpt lat="36.7465870" lon="-3.7875720">
        <ele>71.0</ele>
        <time>2022-01-08T17:35:09Z</time>
      </trkpt>
      <trkpt lat="36.7465930" lon="-3.7875630">
        <ele>71.0</ele>
        <time>2022-01-08T17:35:10Z</time>
      </trkpt>
      <trkpt lat="36.7465990" lon="-3.7875530">
        <ele>72.0</ele>
        <time>2022-01-08T17:35:11Z</time>
      </trkpt>
      <trkpt lat="36.7466030" lon="-3.7875440">
        <ele>72.0</ele>
        <time>2022-01-08T17:35:12Z</time>
      </trkpt>
      <trkpt lat="36.7466080" lon="-3.7875340">
        <ele>72.0</ele>
        <time>2022-01-08T17:35:13Z</time>
      </trkpt>
      <trkpt lat="36.7466120" lon="-3.7875250">
        <ele>72.0</ele>
        <time>2022-01-08T17:35:14Z</time>
      </trkpt>
      <trkpt lat="36.7466170" lon="-3.7875150">
        <ele>72.0</ele>
        <time>2022-01-08T17:35:15Z</time>
      </trkpt>
      <trkpt lat="36.7466210" lon="-3.7875050">
        <ele>72.0</ele>
        <time>2022-01-08T17:35:16Z</time>
      </trkpt>
      <trkpt lat="36.7466260" lon="-3.7874960">
        <ele>72.0</ele>
        <time>2022-01-08T17:35:17Z</time>
      </trkpt>
      <trkpt lat="36.7466310" lon="-3.7874860">
        <ele>72.0</ele>
        <time>2022-01-08T17:35:18Z</time>
      </trkpt>
      <trkpt lat="36.7466350" lon="-3.7874770">
        <ele>72.0</ele>
        <time>2022-01-08T17:35:19Z</time>
      </trkpt>
      <trkpt lat="36.7466400" lon="-3.7874670">
        <ele>72.0</ele>
        <time>2022-01-08T17:35:20Z</time>
      </trkpt>
      <trkpt lat="36.7466440" lon="-3.7874570">
        <ele>74.0</ele>
        <time>2022-01-08T17:35:21Z</time>
      </trkpt>
      <trkpt lat="36.7466610" lon="-3.7874230">
        <ele>74.0</ele>
        <time>2022-01-08T17:35:22Z</time>
      </trkpt>
      <trkpt lat="36.7466660" lon="-3.7874130">
        <ele>74.0</ele>
        <time>2022-01-08T17:35:23Z</time>
      </trkpt>
      <trkpt lat="36.7466710" lon="-3.7874030">
        <ele>74.0</ele>
        <time>2022-01-08T17:35:24Z</time>
      </trkpt>
      <trkpt lat="36.7466770" lon="-3.7873930">
        <ele>74.0</ele>
        <time>2022-01-08T17:35:25Z</time>
      </trkpt>
      <trkpt lat="36.7466820" lon="-3.7873830">
        <ele>74.0</ele>
        <time>2022-01-08T17:35:26Z</time>
      </trkpt>
      <trkpt lat="36.7466870" lon="-3.7873720">
        <ele>74.0</ele>
        <time>2022-01-08T17:35:27Z</time>
      </trkpt>
      <trkpt lat="36.7466920" lon="-3.7873620">
        <ele>74.0</ele>
        <time>2022-01-08T17:35:28Z</time>
      </trkpt>
      <trkpt lat="36.7466980" lon="-3.7873520">
        <ele>74.0</ele>
        <time>2022-01-08T17:35:29Z</time>
      </trkpt>
      <trkpt lat="36.7467030" lon="-3.7873420">
        <ele>74.0</ele>
        <time>2022-01-08T17:35:30Z</time>
      </trkpt>
      <trkpt lat="36.7467080" lon="-3.7873320">
        <ele>76.0</ele>
        <time>2022-01-08T17:35:31Z</time>
      </trkpt>
      <trkpt lat="36.7467240" lon="-3.7873150">
        <ele>76.0</ele>
        <time>2022-01-08T17:35:32Z</time>
      </trkpt>
      <trkpt lat="36.7467330" lon="-3.7873110">
        <ele>76.0</ele>
        <time>2022-01-08T17:35:33Z</time>
      </trkpt>
      <trkpt lat="36.7467420" lon="-3.7873060">
        <ele>76.0</ele>
        <time>2022-01-08T17:35:34Z</time>
      </trkpt>
      <trkpt lat="36.7467510" lon="-3.7873010">
        <ele>76.0</ele>
        <time>2022-01-08T17:35:35Z</time>
      </trkpt>
      <trkpt lat="36.7467600" lon="-3.7872960">
        <ele>76.0</ele>
        <time>2022-01-08T17:35:36Z</time>
      </trkpt>
      <trkpt lat="36.7467690" lon="-3.7872910">
        <ele>76.0</ele>
        <time>2022-01-08T17:35:37Z</time>
      </trkpt>
      <trkpt lat="36.7467790" lon="-3.7872860">
        <ele>76.0</ele>
        <time>2022-01-08T17:35:38Z</time>
      </trkpt>
      <trkpt lat="36.7467880" lon="-3.7872810">
        <ele>76.0</ele>
        <time>2022-01-08T17:35:39Z</time>
      </trkpt>
      <trkpt lat="36.7467970" lon="-3.7872770">
        <ele>76.0</ele>
        <time>2022-01-08T17:35:40Z</time>
      </trkpt>
      <trkpt lat="36.7468060" lon="-3.7872720">
        <ele>76.0</ele>
        <time>2022-01-08T17:35:41Z</time>
      </trkpt>
      <trkpt lat="36.7468260" lon="-3.7872670">
        <ele>76.0</ele>
        <time>2022-01-08T17:35:42Z</time>
      </trkpt>
      <trkpt lat="36.7468330" lon="-3.7872650">
        <ele>76.0</ele>
        <time>2022-01-08T17:35:43Z</time>
      </trkpt>
      <trkpt lat="36.7468410" lon="-3.7872630">
        <ele>76.0</ele>
        <time>2022-01-08T17:35:44Z</time>
      </trkpt>
      <trkpt lat="36.7468480" lon="-3.7872620">
        <ele>76.0</ele>
        <time>2022-01-08T17:35:45Z</time>
      </trkpt>
      <trkpt lat="36.7468560" lon="-3.7872600">
        <ele>76.0</ele>
        <time>2022-01-08T17:35:46Z</time>
      </trkpt>
      <trkpt lat="36.7468630" lon="-3.7872580">
        <ele>76.0</ele>
        <time>2022-01-08T17:35:47Z</time>
      </trkpt>
      <trkpt lat="36.7468710" lon="-3.7872560">
        <ele>76.0</ele>
        <time>2022-01-08T17:35:48Z</time>
      </trkpt>
      <trkpt lat="36.7468780" lon="-3.7872550">
        <ele>76.0</ele>
        <time>2022-01-08T17:35:49Z</time>
      </trkpt>
      <trkpt lat="36.7468860" lon="-3.7872530">
        <ele>76.0</ele>
        <time>2022-01-08T17:35:50Z</time>
      </trkpt>
      <trkpt lat="36.7468930" lon="-3.7872510">
        <ele>78.0</ele>
        <time>2022-01-08T17:35:51Z</time>
      </trkpt>
      <trkpt lat="36.7469180" lon="-3.7872490">
        <ele>78.0</ele>
        <time>2022-01-08T17:35:52Z</time>
      </trkpt>
      <trkpt lat="36.7469250" lon="-3.7872490">
        <ele>78.0</ele>
        <time>2022-01-08T17:35:53Z</time>
      </trkpt>
      <trkpt lat="36.7469320" lon="-3.7872480">
        <ele>78.0</ele>
        <time>2022-01-08T17:35:54Z</time>
      </trkpt>
      <trkpt lat="36.7469390" lon="-3.7872470">
        <ele>78.0</ele>
        <time>2022-01-08T17:35:55Z</time>
      </trkpt>
      <trkpt lat="36.7469460" lon="-3.7872460">
        <ele>78.0</ele>
        <time>2022-01-08T17:35:56Z</time>
      </trkpt>
      <trkpt lat="36.7469520" lon="-3.7872450">
        <ele>78.0</ele>
        <time>2022-01-08T17:35:57Z</time>
      </trkpt>
      <trkpt lat="36.7469590" lon="-3.7872440">
        <ele>78.0</ele>
        <time>2022-01-08T17:35:58Z</time>
      </trkpt>
      <trkpt lat="36.7469660" lon="-3.7872430">
        <ele>78.0</ele>
        <time>2022-01-08T17:35:59Z</time>
      </trkpt>
      <trkpt lat="36.7469730" lon="-3.7872430">
        <ele>78.0</ele>
        <time>2022-01-08T17:36:00Z</time>
      </trkpt>
      <trkpt lat="36.7469800" lon="-3.7872420">
        <ele>80.0</ele>
        <time>2022-01-08T17:36:01Z</time>
      </trkpt>
      <trkpt lat="36.7469900" lon="-3.7872410">
        <ele>80.0</ele>
        <time>2022-01-08T17:36:02Z</time>
      </trkpt>
      <trkpt lat="36.7470000" lon="-3.7872400">
        <ele>80.0</ele>
        <time>2022-01-08T17:36:03Z</time>
      </trkpt>
      <trkpt lat="36.7470100" lon="-3.7872390">
        <ele>80.0</ele>
        <time>2022-01-08T17:36:04Z</time>
      </trkpt>
      <trkpt lat="36.7470210" lon="-3.7872380">
        <ele>80.0</ele>
        <time>2022-01-08T17:36:05Z</time>
      </trkpt>
      <trkpt lat="36.7470310" lon="-3.7872370">
        <ele>80.0</ele>
        <time>2022-01-08T17:36:06Z</time>
      </trkpt>
      <trkpt lat="36.7470410" lon="-3.7872370">
        <ele>80.0</ele>
        <time>2022-01-08T17:36:07Z</time>
      </trkpt>
      <trkpt lat="36.7470510" lon="-3.7872360">
        <ele>80.0</ele>
        <time>2022-01-08T17:36:08Z</time>
      </trkpt>
      <trkpt lat="36.7470610" lon="-3.7872350">
        <ele>80.0</ele>
        <time>2022-01-08T17:36:09Z</time>
      </trkpt>
      <trkpt lat="36.7470720" lon="-3.7872340">
        <ele>80.0</ele>
        <time>2022-01-08T17:36:10Z</time>
      </trkpt>
      <trkpt lat="36.7470820" lon="-3.7872330">
        <ele>82.0</ele>
        <time>2022-01-08T17:36:11Z</time>
      </trkpt>
      <trkpt lat="36.7471080" lon="-3.7872340">
        <ele>82.0</ele>
        <time>2022-01-08T17:36:12Z</time>
      </trkpt>
      <trkpt lat="36.7471160" lon="-3.7872350">
        <ele>82.0</ele>
        <time>2022-01-08T17:36:13Z</time>
      </trkpt>
      <trkpt lat="36.7471230" lon="-3.7872360">
        <ele>82.0</ele>
        <time>2022-01-08T17:36:14Z</time>
      </trkpt>
      <trkpt lat="36.7471310" lon="-3.7872370">
        <ele>82.0</ele>
        <time>2022-01-08T17:36:15Z</time>
      </trkpt>
      <trkpt lat="36.7471390" lon="-3.7872370">
        <ele>82.0</ele>
        <time>2022-01-08T17:36:16Z</time>
      </trkpt>
      <trkpt lat="36.7471460" lon="-3.7872380">
        <ele>82.0</ele>
        <time>2022-01-08T17:36:17Z</time>
      </trkpt>
      <trkpt lat="36.7471540" lon="-3.7872390">
        <ele>82.0</ele>
        <time>2022-01-08T17:36:18Z</time>
      </trkpt>
      <trkpt lat="36.7471620" lon="-3.7872390">
        <ele>82.0</ele>
        <time>2022-01-08T17:36:19Z</time>
      </trkpt>
      <trkpt lat="36.7471690" lon="-3.7872400">
        <ele>82.0</ele>
        <time>2022-01-08T17:36:20Z</time>
      </trkpt>
      <trkpt lat="36.7471770" lon="-3.7872410">
        <ele>84.0</ele>
        <time>2022-01-08T17:36:21Z</time>
      </trkpt>
      <trkpt lat="36.7472050" lon="-3.7872380">
        <ele>84.0</ele>
        <time>2022-01-08T17:36:22Z</time>
      </trkpt>
      <trkpt lat="36.7472130" lon="-3.7872330">
        <ele>84.0</ele>
        <time>2022-01-08T17:36:23Z</time>
      </trkpt>
      <trkpt lat="36.7472210" lon="-3.7872280">
        <ele>84.0</ele>
        <time>2022-01-08T17:36:24Z</time>
      </trkpt>
      <trkpt lat="36.7472290" lon="-3.7872230">
        <ele>84.0</ele>
        <time>2022-01-08T17:36:25Z</time>
      </trkpt>
      <trkpt lat="36.7472380" lon="-3.7872180">
        <ele>84.0</ele>
        <time>2022-01-08T17:36:26Z</time>
      </trkpt>
      <trkpt lat="36.7472460" lon="-3.7872140">
        <ele>84.0</ele>
        <time>2022-01-08T17:36:27Z</time>
      </trkpt>
      <trkpt lat="36.7472540" lon="-3.7872090">
        <ele>84.0</ele>
        <time>2022-01-08T17:36:28Z</time>
      </trkpt>
      <trkpt lat="36.7472620" lon="-3.7872040">
        <ele>84.0</ele>
        <time>2022-01-08T17:36:29Z</time>
      </trkpt>
      <trkpt lat="36.7472700" lon="-3.7871990">
        <ele>84.0</ele>
        <time>2022-01-08T17:36:30Z</time>
      </trkpt>
      <trkpt lat="36.7472790" lon="-3.7871940">
        <ele>85.0</ele>
        <time>2022-01-08T17:36:31Z</time>
      </trkpt>
      <trkpt lat="36.7472900" lon="-3.7871740">
        <ele>85.0</ele>
        <time>2022-01-08T17:36:32Z</time>
      </trkpt>
      <trkpt lat="36.7472940" lon="-3.7871650">
        <ele>85.0</ele>
        <time>2022-01-08T17:36:33Z</time>
      </trkpt>
      <trkpt lat="36.7472980" lon="-3.7871560">
        <ele>85.0</ele>
        <time>2022-01-08T17:36:34Z</time>
      </trkpt>
      <trkpt lat="36.7473020" lon="-3.7871470">
        <ele>85.0</ele>
        <time>2022-01-08T17:36:35Z</time>
      </trkpt>
      <trkpt lat="36.7473060" lon="-3.7871380">
        <ele>85.0</ele>
        <time>2022-01-08T17:36:36Z</time>
      </trkpt>
      <trkpt lat="36.7473100" lon="-3.7871280">
        <ele>85.0</ele>
        <time>2022-01-08T17:36:37Z</time>
      </trkpt>
      <trkpt lat="36.7473140" lon="-3.7871190">
        <ele>85.0</ele>
        <time>2022-01-08T17:36:38Z</time>
      </trkpt>
      <trkpt lat="36.7473180" lon="-3.7871100">
        <ele>85.0</ele>
        <time>2022-01-08T17:36:39Z</time>
      </trkpt>
      <trkpt lat="36.7473230" lon="-3.7871010">
        <ele>85.0</ele>
        <time>2022-01-08T17:36:40Z</time>
      </trkpt>
      <trkpt lat="36.7473270" lon="-3.7870920">
        <ele>86.0</ele>
        <time>2022-01-08T17:36:41Z</time>
      </trkpt>
      <trkpt lat="36.7473260" lon="-3.7870780">
        <ele>86.0</ele>
        <time>2022-01-08T17:36:42Z</time>
      </trkpt>
      <trkpt lat="36.7473260" lon="-3.7870650">
        <ele>86.0</ele>
        <time>2022-01-08T17:36:43Z</time>
      </trkpt>
      <trkpt lat="36.7473260" lon="-3.7870520">
        <ele>86.0</ele>
        <time>2022-01-08T17:36:44Z</time>
      </trkpt>
      <trkpt lat="36.7473260" lon="-3.7870390">
        <ele>86.0</ele>
        <time>2022-01-08T17:36:45Z</time>
      </trkpt>
      <trkpt lat="36.7473250" lon="-3.7870250">
        <ele>86.0</ele>
        <time>2022-01-08T17:36:46Z</time>
      </trkpt>
      <trkpt lat="36.7473250" lon="-3.7870120">
        <ele>86.0</ele>
        <time>2022-01-08T17:36:47Z</time>
      </trkpt>
      <trkpt lat="36.7473250" lon="-3.7869990">
        <ele>86.0</ele>
        <time>2022-01-08T17:36:48Z</time>
      </trkpt>
      <trkpt lat="36.7473250" lon="-3.7869860">
        <ele>86.0</ele>
        <time>2022-01-08T17:36:49Z</time>
      </trkpt>
      <trkpt lat="36.7473240" lon="-3.7869720">
        <ele>86.0</ele>
        <time>2022-01-08T17:36:50Z</time>
      </trkpt>
      <trkpt lat="36.7473240" lon="-3.7869590">
        <ele>88.0</ele>
        <time>2022-01-08T17:36:51Z</time>
      </trkpt>
      <trkpt lat="36.7473150" lon="-3.7869250">
        <ele>88.0</ele>
        <time>2022-01-08T17:36:52Z</time>
      </trkpt>
      <trkpt lat="36.7473120" lon="-3.7869140">
        <ele>88.0</ele>
        <time>2022-01-08T17:36:53Z</time>
      </trkpt>
      <trkpt lat="36.7473090" lon="-3.7869030">
        <ele>88.0</ele>
        <time>2022-01-08T17:36:54Z</time>
      </trkpt>
      <trkpt lat="36.7473060" lon="-3.7868920">
        <ele>88.0</ele>
        <time>2022-01-08T17:36:55Z</time>
      </trkpt>
      <trkpt lat="36.7473030" lon="-3.7868810">
        <ele>88.0</ele>
        <time>2022-01-08T17:36:56Z</time>
      </trkpt>
      <trkpt lat="36.7473000" lon="-3.7868700">
        <ele>88.0</ele>
        <time>2022-01-08T17:36:57Z</time>
      </trkpt>
      <trkpt lat="36.7472970" lon="-3.7868590">
        <ele>88.0</ele>
        <time>2022-01-08T17:36:58Z</time>
      </trkpt>
      <trkpt lat="36.7472940" lon="-3.7868480">
        <ele>88.0</ele>
        <time>2022-01-08T17:36:59Z</time>
      </trkpt>
      <trkpt lat="36.7472910" lon="-3.7868370">
        <ele>88.0</ele>
        <time>2022-01-08T17:37:00Z</time>
      </trkpt>
      <trkpt lat="36.7472880" lon="-3.7868260">
        <ele>90.0</ele>
        <time>2022-01-08T17:37:01Z</time>
      </trkpt>
      <trkpt lat="36.7472850" lon="-3.7868170">
        <ele>90.0</ele>
        <time>2022-01-08T17:37:02Z</time>
      </trkpt>
      <trkpt lat="36.7472830" lon="-3.7868070">
        <ele>90.0</ele>
        <time>2022-01-08T17:37:03Z</time>
      </trkpt>
      <trkpt lat="36.7472800" lon="-3.7867980">
        <ele>90.0</ele>
        <time>2022-01-08T17:37:04Z</time>
      </trkpt>
      <trkpt lat="36.7472770" lon="-3.7867890">
        <ele>90.0</ele>
        <time>2022-01-08T17:37:05Z</time>
      </trkpt>
      <trkpt lat="36.7472750" lon="-3.7867800">
        <ele>90.0</ele>
        <time>2022-01-08T17:37:06Z</time>
      </trkpt>
      <trkpt lat="36.7472720" lon="-3.7867700">
        <ele>90.0</ele>
        <time>2022-01-08T17:37:07Z</time>
      </trkpt>
      <trkpt lat="36.7472690" lon="-3.7867610">
        <ele>90.0</ele>
        <time>2022-01-08T17:37:08Z</time>
      </trkpt>
      <trkpt lat="36.7472670" lon="-3.7867520">
        <ele>90.0</ele>
        <time>2022-01-08T17:37:09Z</time>
      </trkpt>
      <trkpt lat="36.7472640" lon="-3.7867420">
        <ele>90.0</ele>
        <time>2022-01-08T17:37:10Z</time>
      </trkpt>
      <trkpt lat="36.7472610" lon="-3.7867330">
        <ele>91.0</ele>
        <time>2022-01-08T17:37:11Z</time>
      </trkpt>
      <trkpt lat="36.7472580" lon="-3.7867210">
        <ele>91.0</ele>
        <time>2022-01-08T17:37:12Z</time>
      </trkpt>
      <trkpt lat="36.7472550" lon="-3.7867090">
        <ele>91.0</ele>
        <time>2022-01-08T17:37:13Z</time>
      </trkpt>
      <trkpt lat="36.7472510" lon="-3.7866970">
        <ele>91.0</ele>
        <time>2022-01-08T17:37:14Z</time>
      </trkpt>
      <trkpt lat="36.7472480" lon="-3.7866860">
        <ele>91.0</ele>
        <time>2022-01-08T17:37:15Z</time>
      </trkpt>
      <trkpt lat="36.7472450" lon="-3.7866740">
        <ele>91.0</ele>
        <time>2022-01-08T17:37:16Z</time>
      </trkpt>
      <trkpt lat="36.7472410" lon="-3.7866620">
        <ele>91.0</ele>
        <time>2022-01-08T17:37:17Z</time>
      </trkpt>
      <trkpt lat="36.7472380" lon="-3.7866500">
        <ele>91.0</ele>
        <time>2022-01-08T17:37:18Z</time>
      </trkpt>
      <trkpt lat="36.7472350" lon="-3.7866380">
        <ele>91.0</ele>
        <time>2022-01-08T17:37:19Z</time>
      </trkpt>
      <trkpt lat="36.7472310" lon="-3.7866260">
        <ele>91.0</ele>
        <time>2022-01-08T17:37:20Z</time>
      </trkpt>
      <trkpt lat="36.7472280" lon="-3.7866140">
        <ele>93.0</ele>
        <time>2022-01-08T17:37:21Z</time>
      </trkpt>
      <trkpt lat="36.7472290" lon="-3.7865810">
        <ele>93.0</ele>
        <time>2022-01-08T17:37:22Z</time>
      </trkpt>
      <trkpt lat="36.7472320" lon="-3.7865740">
        <ele>93.0</ele>
        <time>2022-01-08T17:37:23Z</time>
      </trkpt>
      <trkpt lat="36.7472350" lon="-3.7865670">
        <ele>93.0</ele>
        <time>2022-01-08T17:37:24Z</time>
      </trkpt>
      <trkpt lat="36.7472380" lon="-3.7865600">
        <ele>93.0</ele>
        <time>2022-01-08T17:37:25Z</time>
      </trkpt>
      <trkpt lat="36.7472410" lon="-3.7865530">
        <ele>93.0</ele>
        <time>2022-01-08T17:37:26Z</time>
      </trkpt>
      <trkpt lat="36.7472440" lon="-3.7865460">
        <ele>93.0</ele>
        <time>2022-01-08T17:37:27Z</time>
      </trkpt>
      <trkpt lat="36.7472470" lon="-3.7865390">
        <ele>93.0</ele>
        <time>2022-01-08T17:37:28Z</time>
      </trkpt>
      <trkpt lat="36.7472500" lon="-3.7865320">
        <ele>93.0</ele>
        <time>2022-01-08T17:37:29Z</time>
      </trkpt>
      <trkpt lat="36.7472530" lon="-3.7865250">
        <ele>93.0</ele>
        <time>2022-01-08T17:37:30Z</time>
      </trkpt>
      <trkpt lat="36.7472560" lon="-3.7865180">
        <ele>93.0</ele>
        <time>2022-01-08T17:37:31Z</time>
      </trkpt>
      <trkpt lat="36.7472830" lon="-3.7864960">
        <ele>93.0</ele>
        <time>2022-01-08T17:37:32Z</time>
      </trkpt>
      <trkpt lat="36.7472920" lon="-3.7864900">
        <ele>93.0</ele>
        <time>2022-01-08T17:37:33Z</time>
      </trkpt>
      <trkpt lat="36.7473000" lon="-3.7864840">
        <ele>93.0</ele>
        <time>2022-01-08T17:37:34Z</time>
      </trkpt>
      <trkpt lat="36.7473080" lon="-3.7864790">
        <ele>93.0</ele>
        <time>2022-01-08T17:37:35Z</time>
      </trkpt>
      <trkpt lat="36.7473160" lon="-3.7864730">
        <ele>93.0</ele>
        <time>2022-01-08T17:37:36Z</time>
      </trkpt>
      <trkpt lat="36.7473240" lon="-3.7864670">
        <ele>93.0</ele>
        <time>2022-01-08T17:37:37Z</time>
      </trkpt>
      <trkpt lat="36.7473320" lon="-3.7864610">
        <ele>93.0</ele>
        <time>2022-01-08T17:37:38Z</time>
      </trkpt>
      <trkpt lat="36.7473410" lon="-3.7864550">
        <ele>93.0</ele>
        <time>2022-01-08T17:37:39Z</time>
      </trkpt>
      <trkpt lat="36.7473490" lon="-3.7864490">
        <ele>93.0</ele>
        <time>2022-01-08T17:37:40Z</time>
      </trkpt>
      <trkpt lat="36.7473570" lon="-3.7864430">
        <ele>95.0</ele>
        <time>2022-01-08T17:37:41Z</time>
      </trkpt>
      <trkpt lat="36.7473910" lon="-3.7864280">
        <ele>95.0</ele>
        <time>2022-01-08T17:37:42Z</time>
      </trkpt>
      <trkpt lat="36.7474020" lon="-3.7864250">
        <ele>95.0</ele>
        <time>2022-01-08T17:37:43Z</time>
      </trkpt>
      <trkpt lat="36.7474120" lon="-3.7864220">
        <ele>95.0</ele>
        <time>2022-01-08T17:37:44Z</time>
      </trkpt>
      <trkpt lat="36.7474220" lon="-3.7864180">
        <ele>95.0</ele>
        <time>2022-01-08T17:37:45Z</time>
      </trkpt>
      <trkpt lat="36.7474330" lon="-3.7864150">
        <ele>95.0</ele>
        <time>2022-01-08T17:37:46Z</time>
      </trkpt>
      <trkpt lat="36.7474430" lon="-3.7864120">
        <ele>95.0</ele>
        <time>2022-01-08T17:37:47Z</time>
      </trkpt>
      <trkpt lat="36.7474530" lon="-3.7864090">
        <ele>95.0</ele>
        <time>2022-01-08T17:37:48Z</time>
      </trkpt>
      <trkpt lat="36.7474630" lon="-3.7864060">
        <ele>95.0</ele>
        <time>2022-01-08T17:37:49Z</time>
      </trkpt>
      <trkpt lat="36.7474740" lon="-3.7864020">
        <ele>95.0</ele>
        <time>2022-01-08T17:37:50Z</time>
      </trkpt>
      <trkpt lat="36.7474840" lon="-3.7863990">
        <ele>97.0</ele>
        <time>2022-01-08T17:37:51Z</time>
      </trkpt>
      <trkpt lat="36.7474940" lon="-3.7863980">
        <ele>97.0</ele>
        <time>2022-01-08T17:37:52Z</time>
      </trkpt>
      <trkpt lat="36.7475030" lon="-3.7863970">
        <ele>97.0</ele>
        <time>2022-01-08T17:37:53Z</time>
      </trkpt>
      <trkpt lat="36.7475130" lon="-3.7863960">
        <ele>97.0</ele>
        <time>2022-01-08T17:37:54Z</time>
      </trkpt>
      <trkpt lat="36.7475230" lon="-3.7863950">
        <ele>97.0</ele>
        <time>2022-01-08T17:37:55Z</time>
      </trkpt>
      <trkpt lat="36.7475320" lon="-3.7863950">
        <ele>97.0</ele>
        <time>2022-01-08T17:37:56Z</time>
      </trkpt>
      <trkpt lat="36.7475420" lon="-3.7863940">
        <ele>97.0</ele>
        <time>2022-01-08T17:37:57Z</time>
      </trkpt>
      <trkpt lat="36.7475510" lon="-3.7863930">
        <ele>97.0</ele>
        <time>2022-01-08T17:37:58Z</time>
      </trkpt>
      <trkpt lat="36.7475610" lon="-3.7863920">
        <ele>97.0</ele>
        <time>2022-01-08T17:37:59Z</time>
      </trkpt>
      <trkpt lat="36.7475710" lon="-3.7863910">
        <ele>97.0</ele>
        <time>2022-01-08T17:38:00Z</time>
      </trkpt>
      <trkpt lat="36.7475800" lon="-3.7863900">
        <ele>98.0</ele>
        <time>2022-01-08T17:38:01Z</time>
      </trkpt>
      <trkpt lat="36.7476010" lon="-3.7863900">
        <ele>98.0</ele>
        <time>2022-01-08T17:38:02Z</time>
      </trkpt>
      <trkpt lat="36.7476090" lon="-3.7863880">
        <ele>98.0</ele>
        <time>2022-01-08T17:38:03Z</time>
      </trkpt>
      <trkpt lat="36.7476170" lon="-3.7863870">
        <ele>98.0</ele>
        <time>2022-01-08T17:38:04Z</time>
      </trkpt>
      <trkpt lat="36.7476250" lon="-3.7863850">
        <ele>98.0</ele>
        <time>2022-01-08T17:38:05Z</time>
      </trkpt>
      <trkpt lat="36.7476320" lon="-3.7863830">
        <ele>98.0</ele>
        <time>2022-01-08T17:38:06Z</time>
      </trkpt>
      <trkpt lat="36.7476400" lon="-3.7863820">
        <ele>98.0</ele>
        <time>2022-01-08T17:38:07Z</time>
      </trkpt>
      <trkpt lat="36.7476480" lon="-3.7863800">
        <ele>98.0</ele>
        <time>2022-01-08T17:38:08Z</time>
      </trkpt>
      <trkpt lat="36.7476560" lon="-3.7863790">
        <ele>98.0</ele>
        <time>2022-01-08T17:38:09Z</time>
      </trkpt>
      <trkpt lat="36.7476640" lon="-3.7863770">
        <ele>98.0</ele>
        <time>2022-01-08T17:38:10Z</time>
      </trkpt>
      <trkpt lat="36.7476710" lon="-3.7863750">
        <ele>100.0</ele>
        <time>2022-01-08T17:38:11Z</time>
      </trkpt>
      <trkpt lat="36.7476810" lon="-3.7863740">
        <ele>100.0</ele>
        <time>2022-01-08T17:38:12Z</time>
      </trkpt>
      <trkpt lat="36.7476910" lon="-3.7863730">
        <ele>100.0</ele>
        <time>2022-01-08T17:38:13Z</time>
      </trkpt>
      <trkpt lat="36.7477000" lon="-3.7863710">
        <ele>100.0</ele>
        <time>2022-01-08T17:38:14Z</time>
      </trkpt>
      <trkpt lat="36.7477100" lon="-3.7863700">
        <ele>100.0</ele>
        <time>2022-01-08T17:38:15Z</time>
      </trkpt>
      <trkpt lat="36.7477190" lon="-3.7863680">
        <ele>100.0</ele>
        <time>2022-01-08T17:38:16Z</time>
      </trkpt>
      <trkpt lat="36.7477290" lon="-3.7863670">
        <ele>100.0</ele>
        <time>2022-01-08T17:38:17Z</time>
      </trkpt>
      <trkpt lat="36.7477390" lon="-3.7863660">
        <ele>100.0</ele>
        <time>2022-01-08T17:38:18Z</time>
      </trkpt>
      <trkpt lat="36.7477480" lon="-3.7863640">
        <ele>100.0</ele>
        <time>2022-01-08T17:38:19Z</time>
      </trkpt>
      <trkpt lat="36.7477580" lon="-3.7863630">
        <ele>100.0</ele>
        <time>2022-01-08T17:38:20Z</time>
      </trkpt>
      <trkpt lat="36.7477670" lon="-3.7863610">
        <ele>101.0</ele>
        <time>2022-01-08T17:38:21Z</time>
      </trkpt>
      <trkpt lat="36.7477780" lon="-3.7863570">
        <ele>101.0</ele>
        <time>2022-01-08T17:38:22Z</time>
      </trkpt>
      <trkpt lat="36.7477880" lon="-3.7863530">
        <ele>101.0</ele>
        <time>2022-01-08T17:38:23Z</time>
      </trkpt>
      <trkpt lat="36.7477990" lon="-3.7863490">
        <ele>101.0</ele>
        <time>2022-01-08T17:38:24Z</time>
      </trkpt>
      <trkpt lat="36.7478090" lon="-3.7863450">
        <ele>101.0</ele>
        <time>2022-01-08T17:38:25Z</time>
      </trkpt>
      <trkpt lat="36.7478200" lon="-3.7863410">
        <ele>101.0</ele>
        <time>2022-01-08T17:38:26Z</time>
      </trkpt>
      <trkpt lat="36.7478300" lon="-3.7863370">
        <ele>101.0</ele>
        <time>2022-01-08T17:38:27Z</time>
      </trkpt>
      <trkpt lat="36.7478410" lon="-3.7863330">
        <ele>101.0</ele>
        <time>2022-01-08T17:38:28Z</time>
      </trkpt>
      <trkpt lat="36.7478510" lon="-3.7863290">
        <ele>101.0</ele>
        <time>2022-01-08T17:38:29Z</time>
      </trkpt>
      <trkpt lat="36.7478620" lon="-3.7863250">
        <ele>101.0</ele>
        <time>2022-01-08T17:38:30Z</time>
      </trkpt>
      <trkpt lat="36.7478720" lon="-3.7863210">
        <ele>102.0</ele>
        <time>2022-01-08T17:38:31Z</time>
      </trkpt>
      <trkpt lat="36.7479010" lon="-3.7863030">
        <ele>102.0</ele>
        <time>2022-01-08T17:38:32Z</time>
      </trkpt>
      <trkpt lat="36.7479080" lon="-3.7862940">
        <ele>102.0</ele>
        <time>2022-01-08T17:38:33Z</time>
      </trkpt>
      <trkpt lat="36.7479160" lon="-3.7862850">
        <ele>102.0</ele>
        <time>2022-01-08T17:38:34Z</time>
      </trkpt>
      <trkpt lat="36.7479230" lon="-3.7862770">
        <ele>102.0</ele>
        <time>2022-01-08T17:38:35Z</time>
      </trkpt>
      <trkpt lat="36.7479310" lon="-3.7862680">
        <ele>102.0</ele>
        <time>2022-01-08T17:38:36Z</time>
      </trkpt>
      <trkpt lat="36.7479390" lon="-3.7862590">
        <ele>102.0</ele>
        <time>2022-01-08T17:38:37Z</time>
      </trkpt>
      <trkpt lat="36.7479460" lon="-3.7862510">
        <ele>102.0</ele>
        <time>2022-01-08T17:38:38Z</time>
      </trkpt>
      <trkpt lat="36.7479540" lon="-3.7862420">
        <ele>102.0</ele>
        <time>2022-01-08T17:38:39Z</time>
      </trkpt>
      <trkpt lat="36.7479610" lon="-3.7862330">
        <ele>102.0</ele>
        <time>2022-01-08T17:38:40Z</time>
      </trkpt>
      <trkpt lat="36.7479690" lon="-3.7862240">
        <ele>103.0</ele>
        <time>2022-01-08T17:38:41Z</time>
      </trkpt>
      <trkpt lat="36.7479840" lon="-3.7862050">
        <ele>103.0</ele>
        <time>2022-01-08T17:38:42Z</time>
      </trkpt>
      <trkpt lat="36.7479900" lon="-3.7861950">
        <ele>103.0</ele>
        <time>2022-01-08T17:38:43Z</time>
      </trkpt>
      <trkpt lat="36.7479960" lon="-3.7861850">
        <ele>103.0</ele>
        <time>2022-01-08T17:38:44Z</time>
      </trkpt>
      <trkpt lat="36.7480020" lon="-3.7861750">
        <ele>103.0</ele>
        <time>2022-01-08T17:38:45Z</time>
      </trkpt>
      <trkpt lat="36.7480090" lon="-3.7861650">
        <ele>103.0</ele>
        <time>2022-01-08T17:38:46Z</time>
      </trkpt>
      <trkpt lat="36.7480150" lon="-3.7861550">
        <ele>103.0</ele>
        <time>2022-01-08T17:38:47Z</time>
      </trkpt>
      <trkpt lat="36.7480210" lon="-3.7861450">
        <ele>103.0</ele>
        <time>2022-01-08T17:38:48Z</time>
      </trkpt>
      <trkpt lat="36.7480280" lon="-3.7861360">
        <ele>103.0</ele>
        <time>2022-01-08T17:38:49Z</time>
      </trkpt>
      <trkpt lat="36.7480340" lon="-3.7861260">
        <ele>103.0</ele>
        <time>2022-01-08T17:38:50Z</time>
      </trkpt>
      <trkpt lat="36.7480400" lon="-3.7861160">
        <ele>105.0</ele>
        <time>2022-01-08T17:38:51Z</time>
      </trkpt>
      <trkpt lat="36.7480520" lon="-3.7860950">
        <ele>105.0</ele>
        <time>2022-01-08T17:38:52Z</time>
      </trkpt>
      <trkpt lat="36.7480570" lon="-3.7860860">
        <ele>105.0</ele>
        <time>2022-01-08T17:38:53Z</time>
      </trkpt>
      <trkpt lat="36.7480620" lon="-3.7860770">
        <ele>105.0</ele>
        <time>2022-01-08T17:38:54Z</time>
      </trkpt>
      <trkpt lat="36.7480680" lon="-3.7860680">
        <ele>105.0</ele>
        <time>2022-01-08T17:38:55Z</time>
      </trkpt>
      <trkpt lat="36.7480730" lon="-3.7860580">
        <ele>105.0</ele>
        <time>2022-01-08T17:38:56Z</time>
      </trkpt>
      <trkpt lat="36.7480780" lon="-3.7860490">
        <ele>105.0</ele>
        <time>2022-01-08T17:38:57Z</time>
      </trkpt>
      <trkpt lat="36.7480840" lon="-3.7860400">
        <ele>105.0</ele>
        <time>2022-01-08T17:38:58Z</time>
      </trkpt>
      <trkpt lat="36.7480890" lon="-3.7860310">
        <ele>105.0</ele>
        <time>2022-01-08T17:38:59Z</time>
      </trkpt>
      <trkpt lat="36.7480940" lon="-3.7860210">
        <ele>105.0</ele>
        <time>2022-01-08T17:39:00Z</time>
      </trkpt>
      <trkpt lat="36.7481000" lon="-3.7860120">
        <ele>106.0</ele>
        <time>2022-01-08T17:39:01Z</time>
      </trkpt>
      <trkpt lat="36.7481040" lon="-3.7860010">
        <ele>106.0</ele>
        <time>2022-01-08T17:39:02Z</time>
      </trkpt>
      <trkpt lat="36.7481080" lon="-3.7859890">
        <ele>106.0</ele>
        <time>2022-01-08T17:39:03Z</time>
      </trkpt>
      <trkpt lat="36.7481120" lon="-3.7859770">
        <ele>106.0</ele>
        <time>2022-01-08T17:39:04Z</time>
      </trkpt>
      <trkpt lat="36.7481170" lon="-3.7859650">
        <ele>106.0</ele>
        <time>2022-01-08T17:39:05Z</time>
      </trkpt>
      <trkpt lat="36.7481210" lon="-3.7859540">
        <ele>106.0</ele>
        <time>2022-01-08T17:39:06Z</time>
      </trkpt>
      <trkpt lat="36.7481250" lon="-3.7859420">
        <ele>106.0</ele>
        <time>2022-01-08T17:39:07Z</time>
      </trkpt>
      <trkpt lat="36.7481290" lon="-3.7859300">
        <ele>106.0</ele>
        <time>2022-01-08T17:39:08Z</time>
      </trkpt>
      <trkpt lat="36.7481330" lon="-3.7859190">
        <ele>106.0</ele>
        <time>2022-01-08T17:39:09Z</time>
      </trkpt>
      <trkpt lat="36.7481380" lon="-3.7859070">
        <ele>106.0</ele>
        <time>2022-01-08T17:39:10Z</time>
      </trkpt>
      <trkpt lat="36.7481420" lon="-3.7858950">
        <ele>108.0</ele>
        <time>2022-01-08T17:39:11Z</time>
      </trkpt>
      <trkpt lat="36.7481460" lon="-3.7858830">
        <ele>108.0</ele>
        <time>2022-01-08T17:39:12Z</time>
      </trkpt>
      <trkpt lat="36.7481510" lon="-3.7858710">
        <ele>108.0</ele>
        <time>2022-01-08T17:39:13Z</time>
      </trkpt>
      <trkpt lat="36.7481560" lon="-3.7858580">
        <ele>108.0</ele>
        <time>2022-01-08T17:39:14Z</time>
      </trkpt>
      <trkpt lat="36.7481600" lon="-3.7858460">
        <ele>108.0</ele>
        <time>2022-01-08T17:39:15Z</time>
      </trkpt>
      <trkpt lat="36.7481650" lon="-3.7858340">
        <ele>108.0</ele>
        <time>2022-01-08T17:39:16Z</time>
      </trkpt>
      <trkpt lat="36.7481690" lon="-3.7858210">
        <ele>108.0</ele>
        <time>2022-01-08T17:39:17Z</time>
      </trkpt>
      <trkpt lat="36.7481740" lon="-3.7858090">
        <ele>108.0</ele>
        <time>2022-01-08T17:39:18Z</time>
      </trkpt>
      <trkpt lat="36.7481790" lon="-3.7857970">
        <ele>108.0</ele>
        <time>2022-01-08T17:39:19Z</time>
      </trkpt>
      <trkpt lat="36.7481830" lon="-3.7857850">
        <ele>108.0</ele>
        <time>2022-01-08T17:39:20Z</time>
      </trkpt>
      <trkpt lat="36.7481880" lon="-3.7857720">
        <ele>109.0</ele>
        <time>2022-01-08T17:39:21Z</time>
      </trkpt>
      <trkpt lat="36.7481940" lon="-3.7857620">
        <ele>109.0</ele>
        <time>2022-01-08T17:39:22Z</time>
      </trkpt>
      <trkpt lat="36.7482010" lon="-3.7857510">
        <ele>109.0</ele>
        <time>2022-01-08T17:39:23Z</time>
      </trkpt>
      <trkpt lat="36.7482070" lon="-3.7857400">
        <ele>109.0</ele>
        <time>2022-01-08T17:39:24Z</time>
      </trkpt>
      <trkpt lat="36.7482140" lon="-3.7857290">
        <ele>109.0</ele>
        <time>2022-01-08T17:39:25Z</time>
      </trkpt>
      <trkpt lat="36.7482200" lon="-3.7857190">
        <ele>109.0</ele>
        <time>2022-01-08T17:39:26Z</time>
      </trkpt>
      <trkpt lat="36.7482270" lon="-3.7857080">
        <ele>109.0</ele>
        <time>2022-01-08T17:39:27Z</time>
      </trkpt>
      <trkpt lat="36.7482340" lon="-3.7856970">
        <ele>109.0</ele>
        <time>2022-01-08T17:39:28Z</time>
      </trkpt>
      <trkpt lat="36.7482400" lon="-3.7856860">
        <ele>109.0</ele>
        <time>2022-01-08T17:39:29Z</time>
      </trkpt>
      <trkpt lat="36.7482470" lon="-3.7856760">
        <ele>109.0</ele>
        <time>2022-01-08T17:39:30Z</time>
      </trkpt>
      <trkpt lat="36.7482530" lon="-3.7856650">
        <ele>113.0</ele>
        <time>2022-01-08T17:39:31Z</time>
      </trkpt>
      <trkpt lat="36.7482680" lon="-3.7856450">
        <ele>113.0</ele>
        <time>2022-01-08T17:39:32Z</time>
      </trkpt>
      <trkpt lat="36.7482740" lon="-3.7856360">
        <ele>113.0</ele>
        <time>2022-01-08T17:39:33Z</time>
      </trkpt>
      <trkpt lat="36.7482800" lon="-3.7856260">
        <ele>113.0</ele>
        <time>2022-01-08T17:39:34Z</time>
      </trkpt>
      <trkpt lat="36.7482860" lon="-3.7856170">
        <ele>113.0</ele>
        <time>2022-01-08T17:39:35Z</time>
      </trkpt>
      <trkpt lat="36.7482920" lon="-3.7856080">
        <ele>113.0</ele>
        <time>2022-01-08T17:39:36Z</time>
      </trkpt>
      <trkpt lat="36.7482980" lon="-3.7855980">
        <ele>113.0</ele>
        <time>2022-01-08T17:39:37Z</time>
      </trkpt>
      <trkpt lat="36.7483040" lon="-3.7855890">
        <ele>113.0</ele>
        <time>2022-01-08T17:39:38Z</time>
      </trkpt>
      <trkpt lat="36.7483100" lon="-3.7855790">
        <ele>113.0</ele>
        <time>2022-01-08T17:39:39Z</time>
      </trkpt>
      <trkpt lat="36.7483160" lon="-3.7855700">
        <ele>113.0</ele>
        <time>2022-01-08T17:39:40Z</time>
      </trkpt>
      <trkpt lat="36.7483220" lon="-3.7855610">
        <ele>115.0</ele>
        <time>2022-01-08T17:39:41Z</time>
      </trkpt>
      <trkpt lat="36.7483330" lon="-3.7855390">
        <ele>115.0</ele>
        <time>2022-01-08T17:39:42Z</time>
      </trkpt>
      <trkpt lat="36.7483380" lon="-3.7855280">
        <ele>115.0</ele>
        <time>2022-01-08T17:39:43Z</time>
      </trkpt>
      <trkpt lat="36.7483430" lon="-3.7855170">
        <ele>115.0</ele>
        <time>2022-01-08T17:39:44Z</time>
      </trkpt>
      <trkpt lat="36.7483480" lon="-3.7855060">
        <ele>115.0</ele>
        <time>2022-01-08T17:39:45Z</time>
      </trkpt>
      <trkpt lat="36.7483530" lon="-3.7854960">
        <ele>115.0</ele>
        <time>2022-01-08T17:39:46Z</time>
      </trkpt>
      <trkpt lat="36.7483580" lon="-3.7854850">
        <ele>115.0</ele>
        <time>2022-01-08T17:39:47Z</time>
      </trkpt>
      <trkpt lat="36.7483630" lon="-3.7854740">
        <ele>115.0</ele>
        <time>2022-01-08T17:39:48Z</time>
      </trkpt>
      <trkpt lat="36.7483680" lon="-3.7854630">
        <ele>115.0</ele>
        <time>2022-01-08T17:39:49Z</time>
      </trkpt>
      <trkpt lat="36.7483730" lon="-3.7854530">
        <ele>115.0</ele>
        <time>2022-01-08T17:39:50Z</time>
      </trkpt>
      <trkpt lat="36.7483780" lon="-3.7854420">
        <ele>116.0</ele>
        <time>2022-01-08T17:39:51Z</time>
      </trkpt>
      <trkpt lat="36.7483900" lon="-3.7854210">
        <ele>116.0</ele>
        <time>2022-01-08T17:39:52Z</time>
      </trkpt>
      <trkpt lat="36.7483930" lon="-3.7854100">
        <ele>116.0</ele>
        <time>2022-01-08T17:39:53Z</time>
      </trkpt>
      <trkpt lat="36.7483970" lon="-3.7854000">
        <ele>116.0</ele>
        <time>2022-01-08T17:39:54Z</time>
      </trkpt>
      <trkpt lat="36.7484000" lon="-3.7853890">
        <ele>116.0</ele>
        <time>2022-01-08T17:39:55Z</time>
      </trkpt>
      <trkpt lat="36.7484030" lon="-3.7853790">
        <ele>116.0</ele>
        <time>2022-01-08T17:39:56Z</time>
      </trkpt>
      <trkpt lat="36.7484070" lon="-3.7853680">
        <ele>116.0</ele>
        <time>2022-01-08T17:39:57Z</time>
      </trkpt>
      <trkpt lat="36.7484100" lon="-3.7853580">
        <ele>116.0</ele>
        <time>2022-01-08T17:39:58Z</time>
      </trkpt>
      <trkpt lat="36.7484130" lon="-3.7853470">
        <ele>116.0</ele>
        <time>2022-01-08T17:39:59Z</time>
      </trkpt>
      <trkpt lat="36.7484170" lon="-3.7853370">
        <ele>116.0</ele>
        <time>2022-01-08T17:40:00Z</time>
      </trkpt>
      <trkpt lat="36.7484200" lon="-3.7853260">
        <ele>118.0</ele>
        <time>2022-01-08T17:40:01Z</time>
      </trkpt>
      <trkpt lat="36.7484210" lon="-3.7852970">
        <ele>118.0</ele>
        <time>2022-01-08T17:40:02Z</time>
      </trkpt>
      <trkpt lat="36.7484220" lon="-3.7852830">
        <ele>118.0</ele>
        <time>2022-01-08T17:40:03Z</time>
      </trkpt>
      <trkpt lat="36.7484240" lon="-3.7852680">
        <ele>118.0</ele>
        <time>2022-01-08T17:40:04Z</time>
      </trkpt>
      <trkpt lat="36.7484250" lon="-3.7852530">
        <ele>118.0</ele>
        <time>2022-01-08T17:40:05Z</time>
      </trkpt>
      <trkpt lat="36.7484260" lon="-3.7852390">
        <ele>118.0</ele>
        <time>2022-01-08T17:40:06Z</time>
      </trkpt>
      <trkpt lat="36.7484270" lon="-3.7852240">
        <ele>118.0</ele>
        <time>2022-01-08T17:40:07Z</time>
      </trkpt>
      <trkpt lat="36.7484280" lon="-3.7852100">
        <ele>118.0</ele>
        <time>2022-01-08T17:40:08Z</time>
      </trkpt>
      <trkpt lat="36.7484290" lon="-3.7851950">
        <ele>118.0</ele>
        <time>2022-01-08T17:40:09Z</time>
      </trkpt>
      <trkpt lat="36.7484310" lon="-3.7851800">
        <ele>118.0</ele>
        <time>2022-01-08T17:40:10Z</time>
      </trkpt>
      <trkpt lat="36.7484320" lon="-3.7851660">
        <ele>119.0</ele>
        <time>2022-01-08T17:40:11Z</time>
      </trkpt>
      <trkpt lat="36.7484390" lon="-3.7851300">
        <ele>119.0</ele>
        <time>2022-01-08T17:40:12Z</time>
      </trkpt>
      <trkpt lat="36.7484390" lon="-3.7851220">
        <ele>119.0</ele>
        <time>2022-01-08T17:40:13Z</time>
      </trkpt>
      <trkpt lat="36.7484400" lon="-3.7851150">
        <ele>119.0</ele>
        <time>2022-01-08T17:40:14Z</time>
      </trkpt>
      <trkpt lat="36.7484400" lon="-3.7851080">
        <ele>119.0</ele>
        <time>2022-01-08T17:40:15Z</time>
      </trkpt>
      <trkpt lat="36.7484410" lon="-3.7851000">
        <ele>119.0</ele>
        <time>2022-01-08T17:40:16Z</time>
      </trkpt>
      <trkpt lat="36.7484410" lon="-3.7850930">
        <ele>119.0</ele>
        <time>2022-01-08T17:40:17Z</time>
      </trkpt>
      <trkpt lat="36.7484420" lon="-3.7850860">
        <ele>119.0</ele>
        <time>2022-01-08T17:40:18Z</time>
      </trkpt>
      <trkpt lat="36.7484420" lon="-3.7850780">
        <ele>119.0</ele>
        <time>2022-01-08T17:40:19Z</time>
      </trkpt>
      <trkpt lat="36.7484430" lon="-3.7850710">
        <ele>119.0</ele>
        <time>2022-01-08T17:40:20Z</time>
      </trkpt>
      <trkpt lat="36.7484430" lon="-3.7850640">
        <ele>120.0</ele>
        <time>2022-01-08T17:40:21Z</time>
      </trkpt>
      <trkpt lat="36.7484440" lon="-3.7850080">
        <ele>120.0</ele>
        <time>2022-01-08T17:40:22Z</time>
      </trkpt>
      <trkpt lat="36.7484460" lon="-3.7849960">
        <ele>120.0</ele>
        <time>2022-01-08T17:40:23Z</time>
      </trkpt>
      <trkpt lat="36.7484480" lon="-3.7849840">
        <ele>120.0</ele>
        <time>2022-01-08T17:40:24Z</time>
      </trkpt>
      <trkpt lat="36.7484500" lon="-3.7849710">
        <ele>120.0</ele>
        <time>2022-01-08T17:40:25Z</time>
      </trkpt>
      <trkpt lat="36.7484520" lon="-3.7849590">
        <ele>120.0</ele>
        <time>2022-01-08T17:40:26Z</time>
      </trkpt>
      <trkpt lat="36.7484540" lon="-3.7849470">
        <ele>120.0</ele>
        <time>2022-01-08T17:40:27Z</time>
      </trkpt>
      <trkpt lat="36.7484560" lon="-3.7849350">
        <ele>120.0</ele>
        <time>2022-01-08T17:40:28Z</time>
      </trkpt>
      <trkpt lat="36.7484580" lon="-3.7849220">
        <ele>120.0</ele>
        <time>2022-01-08T17:40:29Z</time>
      </trkpt>
      <trkpt lat="36.7484600" lon="-3.7849100">
        <ele>120.0</ele>
        <time>2022-01-08T17:40:30Z</time>
      </trkpt>
      <trkpt lat="36.7484620" lon="-3.7848980">
        <ele>123.0</ele>
        <time>2022-01-08T17:40:31Z</time>
      </trkpt>
      <trkpt lat="36.7484680" lon="-3.7848940">
        <ele>123.0</ele>
        <time>2022-01-08T17:40:32Z</time>
      </trkpt>
      <trkpt lat="36.7484740" lon="-3.7848900">
        <ele>123.0</ele>
        <time>2022-01-08T17:40:33Z</time>
      </trkpt>
      <trkpt lat="36.7484800" lon="-3.7848860">
        <ele>123.0</ele>
        <time>2022-01-08T17:40:34Z</time>
      </trkpt>
      <trkpt lat="36.7484860" lon="-3.7848820">
        <ele>123.0</ele>
        <time>2022-01-08T17:40:35Z</time>
      </trkpt>
      <trkpt lat="36.7484920" lon="-3.7848780">
        <ele>123.0</ele>
        <time>2022-01-08T17:40:36Z</time>
      </trkpt>
      <trkpt lat="36.7484980" lon="-3.7848740">
        <ele>123.0</ele>
        <time>2022-01-08T17:40:37Z</time>
      </trkpt>
      <trkpt lat="36.7485040" lon="-3.7848700">
        <ele>123.0</ele>
        <time>2022-01-08T17:40:38Z</time>
      </trkpt>
      <trkpt lat="36.7485100" lon="-3.7848660">
        <ele>123.0</ele>
        <time>2022-01-08T17:40:39Z</time>
      </trkpt>
      <trkpt lat="36.7485160" lon="-3.7848620">
        <ele>123.0</ele>
        <time>2022-01-08T17:40:40Z</time>
      </trkpt>
      <trkpt lat="36.7485220" lon="-3.7848580">
        <ele>123.0</ele>
        <time>2022-01-08T17:40:41Z</time>
      </trkpt>
      <trkpt lat="36.7485310" lon="-3.7848640">
        <ele>123.0</ele>
        <time>2022-01-08T17:40:42Z</time>
      </trkpt>
      <trkpt lat="36.7485400" lon="-3.7848690">
        <ele>123.0</ele>
        <time>2022-01-08T17:40:43Z</time>
      </trkpt>
      <trkpt lat="36.7485490" lon="-3.7848750">
        <ele>123.0</ele>
        <time>2022-01-08T17:40:44Z</time>
      </trkpt>
      <trkpt lat="36.7485590" lon="-3.7848800">
        <ele>123.0</ele>
        <time>2022-01-08T17:40:45Z</time>
      </trkpt>
      <trkpt lat="36.7485680" lon="-3.7848860">
        <ele>123.0</ele>
        <time>2022-01-08T17:40:46Z</time>
      </trkpt>
      <trkpt lat="36.7485770" lon="-3.7848910">
        <ele>123.0</ele>
        <time>2022-01-08T17:40:47Z</time>
      </trkpt>
      <trkpt lat="36.7485860" lon="-3.7848970">
        <ele>123.0</ele>
        <time>2022-01-08T17:40:48Z</time>
      </trkpt>
      <trkpt lat="36.7485950" lon="-3.7849020">
        <ele>123.0</ele>
        <time>2022-01-08T17:40:49Z</time>
      </trkpt>
      <trkpt lat="36.7486040" lon="-3.7849080">
        <ele>123.0</ele>
        <time>2022-01-08T17:40:50Z</time>
      </trkpt>
      <trkpt lat="36.7486130" lon="-3.7849130">
        <ele>122.0</ele>
        <time>2022-01-08T17:40:51Z</time>
      </trkpt>
      <trkpt lat="36.7486370" lon="-3.7849050">
        <ele>122.0</ele>
        <time>2022-01-08T17:40:52Z</time>
      </trkpt>
      <trkpt lat="36.7486330" lon="-3.7848930">
        <ele>122.0</ele>
        <time>2022-01-08T17:40:53Z</time>
      </trkpt>
      <trkpt lat="36.7486290" lon="-3.7848810">
        <ele>122.0</ele>
        <time>2022-01-08T17:40:54Z</time>
      </trkpt>
      <trkpt lat="36.7486260" lon="-3.7848690">
        <ele>122.0</ele>
        <time>2022-01-08T17:40:55Z</time>
      </trkpt>
      <trkpt lat="36.7486220" lon="-3.7848570">
        <ele>122.0</ele>
        <time>2022-01-08T17:40:56Z</time>
      </trkpt>
      <trkpt lat="36.7486180" lon="-3.7848440">
        <ele>122.0</ele>
        <time>2022-01-08T17:40:57Z</time>
      </trkpt>
      <trkpt lat="36.7486150" lon="-3.7848320">
        <ele>122.0</ele>
        <time>2022-01-08T17:40:58Z</time>
      </trkpt>
      <trkpt lat="36.7486110" lon="-3.7848200">
        <ele>122.0</ele>
        <time>2022-01-08T17:40:59Z</time>
      </trkpt>
      <trkpt lat="36.7486070" lon="-3.7848080">
        <ele>122.0</ele>
        <time>2022-01-08T17:41:00Z</time>
      </trkpt>
      <trkpt lat="36.7486040" lon="-3.7847960">
        <ele>123.0</ele>
        <time>2022-01-08T17:41:01Z</time>
      </trkpt>
      <trkpt lat="36.7485960" lon="-3.7847910">
        <ele>123.0</ele>
        <time>2022-01-08T17:41:02Z</time>
      </trkpt>
      <trkpt lat="36.7485880" lon="-3.7847850">
        <ele>123.0</ele>
        <time>2022-01-08T17:41:03Z</time>
      </trkpt>
      <trkpt lat="36.7485800" lon="-3.7847800">
        <ele>123.0</ele>
        <time>2022-01-08T17:41:04Z</time>
      </trkpt>
      <trkpt lat="36.7485730" lon="-3.7847740">
        <ele>123.0</ele>
        <time>2022-01-08T17:41:05Z</time>
      </trkpt>
      <trkpt lat="36.7485650" lon="-3.7847690">
        <ele>123.0</ele>
        <time>2022-01-08T17:41:06Z</time>
      </trkpt>
      <trkpt lat="36.7485570" lon="-3.7847640">
        <ele>123.0</ele>
        <time>2022-01-08T17:41:07Z</time>
      </trkpt>
      <trkpt lat="36.7485500" lon="-3.7847580">
        <ele>123.0</ele>
        <time>2022-01-08T17:41:08Z</time>
      </trkpt>
      <trkpt lat="36.7485420" lon="-3.7847530">
        <ele>123.0</ele>
        <time>2022-01-08T17:41:09Z</time>
      </trkpt>
      <trkpt lat="36.7485340" lon="-3.7847470">
        <ele>123.0</ele>
        <time>2022-01-08T17:41:10Z</time>
      </trkpt>
      <trkpt lat="36.7485270" lon="-3.7847420">
        <ele>125.0</ele>
        <time>2022-01-08T17:41:11Z</time>
      </trkpt>
      <trkpt lat="36.7485220" lon="-3.7847410">
        <ele>125.0</ele>
        <time>2022-01-08T17:41:12Z</time>
      </trkpt>
      <trkpt lat="36.7485180" lon="-3.7847390">
        <ele>125.0</ele>
        <time>2022-01-08T17:41:13Z</time>
      </trkpt>
      <trkpt lat="36.7485130" lon="-3.7847380">
        <ele>125.0</ele>
        <time>2022-01-08T17:41:14Z</time>
      </trkpt>
      <trkpt lat="36.7485090" lon="-3.7847370">
        <ele>125.0</ele>
        <time>2022-01-08T17:41:15Z</time>
      </trkpt>
      <trkpt lat="36.7485050" lon="-3.7847360">
        <ele>125.0</ele>
        <time>2022-01-08T17:41:16Z</time>
      </trkpt>
      <trkpt lat="36.7485000" lon="-3.7847340">
        <ele>125.0</ele>
        <time>2022-01-08T17:41:17Z</time>
      </trkpt>
      <trkpt lat="36.7484960" lon="-3.7847330">
        <ele>125.0</ele>
        <time>2022-01-08T17:41:18Z</time>
      </trkpt>
      <trkpt lat="36.7484910" lon="-3.7847320">
        <ele>125.0</ele>
        <time>2022-01-08T17:41:19Z</time>
      </trkpt>
      <trkpt lat="36.7484870" lon="-3.7847300">
        <ele>125.0</ele>
        <time>2022-01-08T17:41:20Z</time>
      </trkpt>
      <trkpt lat="36.7484830" lon="-3.7847290">
        <ele>127.0</ele>
        <time>2022-01-08T17:41:21Z</time>
      </trkpt>
      <trkpt lat="36.7484730" lon="-3.7847260">
        <ele>127.0</ele>
        <time>2022-01-08T17:41:22Z</time>
      </trkpt>
      <trkpt lat="36.7484640" lon="-3.7847240">
        <ele>127.0</ele>
        <time>2022-01-08T17:41:23Z</time>
      </trkpt>
      <trkpt lat="36.7484550" lon="-3.7847210">
        <ele>127.0</ele>
        <time>2022-01-08T17:41:24Z</time>
      </trkpt>
      <trkpt lat="36.7484460" lon="-3.7847180">
        <ele>127.0</ele>
        <time>2022-01-08T17:41:25Z</time>
      </trkpt>
      <trkpt lat="36.7484370" lon="-3.7847150">
        <ele>127.0</ele>
        <time>2022-01-08T17:41:26Z</time>
      </trkpt>
      <trkpt lat="36.7484270" lon="-3.7847120">
        <ele>127.0</ele>
        <time>2022-01-08T17:41:27Z</time>
      </trkpt>
      <trkpt lat="36.7484180" lon="-3.7847100">
        <ele>127.0</ele>
        <time>2022-01-08T17:41:28Z</time>
      </trkpt>
      <trkpt lat="36.7484090" lon="-3.7847070">
        <ele>127.0</ele>
        <time>2022-01-08T17:41:29Z</time>
      </trkpt>
      <trkpt lat="36.7484000" lon="-3.7847040">
        <ele>127.0</ele>
        <time>2022-01-08T17:41:30Z</time>
      </trkpt>
      <trkpt lat="36.7483910" lon="-3.7847010">
        <ele>128.0</ele>
        <time>2022-01-08T17:41:31Z</time>
      </trkpt>
      <trkpt lat="36.7483670" lon="-3.7846860">
        <ele>128.0</ele>
        <time>2022-01-08T17:41:32Z</time>
      </trkpt>
      <trkpt lat="36.7483590" lon="-3.7846810">
        <ele>128.0</ele>
        <time>2022-01-08T17:41:33Z</time>
      </trkpt>
      <trkpt lat="36.7483500" lon="-3.7846760">
        <ele>128.0</ele>
        <time>2022-01-08T17:41:34Z</time>
      </trkpt>
      <trkpt lat="36.7483420" lon="-3.7846710">
        <ele>128.0</ele>
        <time>2022-01-08T17:41:35Z</time>
      </trkpt>
      <trkpt lat="36.7483330" lon="-3.7846660">
        <ele>128.0</ele>
        <time>2022-01-08T17:41:36Z</time>
      </trkpt>
      <trkpt lat="36.7483250" lon="-3.7846610">
        <ele>128.0</ele>
        <time>2022-01-08T17:41:37Z</time>
      </trkpt>
      <trkpt lat="36.7483160" lon="-3.7846550">
        <ele>128.0</ele>
        <time>2022-01-08T17:41:38Z</time>
      </trkpt>
      <trkpt lat="36.7483080" lon="-3.7846500">
        <ele>128.0</ele>
        <time>2022-01-08T17:41:39Z</time>
      </trkpt>
      <trkpt lat="36.7482990" lon="-3.7846450">
        <ele>128.0</ele>
        <time>2022-01-08T17:41:40Z</time>
      </trkpt>
      <trkpt lat="36.7482910" lon="-3.7846400">
        <ele>131.0</ele>
        <time>2022-01-08T17:41:41Z</time>
      </trkpt>
      <trkpt lat="36.7482590" lon="-3.7846190">
        <ele>131.0</ele>
        <time>2022-01-08T17:41:42Z</time>
      </trkpt>
      <trkpt lat="36.7482510" lon="-3.7846120">
        <ele>131.0</ele>
        <time>2022-01-08T17:41:43Z</time>
      </trkpt>
      <trkpt lat="36.7482430" lon="-3.7846050">
        <ele>131.0</ele>
        <time>2022-01-08T17:41:44Z</time>
      </trkpt>
      <trkpt lat="36.7482350" lon="-3.7845980">
        <ele>131.0</ele>
        <time>2022-01-08T17:41:45Z</time>
      </trkpt>
      <trkpt lat="36.7482260" lon="-3.7845920">
        <ele>131.0</ele>
        <time>2022-01-08T17:41:46Z</time>
      </trkpt>
      <trkpt lat="36.7482180" lon="-3.7845850">
        <ele>131.0</ele>
        <time>2022-01-08T17:41:47Z</time>
      </trkpt>
      <trkpt lat="36.7482100" lon="-3.7845780">
        <ele>131.0</ele>
        <time>2022-01-08T17:41:48Z</time>
      </trkpt>
      <trkpt lat="36.7482020" lon="-3.7845710">
        <ele>131.0</ele>
        <time>2022-01-08T17:41:49Z</time>
      </trkpt>
      <trkpt lat="36.7481930" lon="-3.7845640">
        <ele>131.0</ele>
        <time>2022-01-08T17:41:50Z</time>
      </trkpt>
      <trkpt lat="36.7481850" lon="-3.7845570">
        <ele>133.0</ele>
        <time>2022-01-08T17:41:51Z</time>
      </trkpt>
      <trkpt lat="36.7481710" lon="-3.7845410">
        <ele>133.0</ele>
        <time>2022-01-08T17:41:52Z</time>
      </trkpt>
      <trkpt lat="36.7481650" lon="-3.7845350">
        <ele>133.0</ele>
        <time>2022-01-08T17:41:53Z</time>
      </trkpt>
      <trkpt lat="36.7481590" lon="-3.7845280">
        <ele>133.0</ele>
        <time>2022-01-08T17:41:54Z</time>
      </trkpt>
      <trkpt lat="36.7481540" lon="-3.7845210">
        <ele>133.0</ele>
        <time>2022-01-08T17:41:55Z</time>
      </trkpt>
      <trkpt lat="36.7481480" lon="-3.7845140">
        <ele>133.0</ele>
        <time>2022-01-08T17:41:56Z</time>
      </trkpt>
      <trkpt lat="36.7481420" lon="-3.7845080">
        <ele>133.0</ele>
        <time>2022-01-08T17:41:57Z</time>
      </trkpt>
      <trkpt lat="36.7481370" lon="-3.7845010">
        <ele>133.0</ele>
        <time>2022-01-08T17:41:58Z</time>
      </trkpt>
      <trkpt lat="36.7481310" lon="-3.7844940">
        <ele>133.0</ele>
        <time>2022-01-08T17:41:59Z</time>
      </trkpt>
      <trkpt lat="36.7481250" lon="-3.7844870">
        <ele>133.0</ele>
        <time>2022-01-08T17:42:00Z</time>
      </trkpt>
      <trkpt lat="36.7481190" lon="-3.7844810">
        <ele>134.0</ele>
        <time>2022-01-08T17:42:01Z</time>
      </trkpt>
      <trkpt lat="36.7481160" lon="-3.7844740">
        <ele>134.0</ele>
        <time>2022-01-08T17:42:02Z</time>
      </trkpt>
      <trkpt lat="36.7481130" lon="-3.7844670">
        <ele>134.0</ele>
        <time>2022-01-08T17:42:03Z</time>
      </trkpt>
      <trkpt lat="36.7481090" lon="-3.7844610">
        <ele>134.0</ele>
        <time>2022-01-08T17:42:04Z</time>
      </trkpt>
      <trkpt lat="36.7481060" lon="-3.7844540">
        <ele>134.0</ele>
        <time>2022-01-08T17:42:05Z</time>
      </trkpt>
      <trkpt lat="36.7481020" lon="-3.7844480">
        <ele>134.0</ele>
        <time>2022-01-08T17:42:06Z</time>
      </trkpt>
      <trkpt lat="36.7480990" lon="-3.7844410">
        <ele>134.0</ele>
        <time>2022-01-08T17:42:07Z</time>
      </trkpt>
      <trkpt lat="36.7480960" lon="-3.7844340">
        <ele>134.0</ele>
        <time>2022-01-08T17:42:08Z</time>
      </trkpt>
      <trkpt lat="36.7480920" lon="-3.7844280">
        <ele>134.0</ele>
        <time>2022-01-08T17:42:09Z</time>
      </trkpt>
      <trkpt lat="36.7480890" lon="-3.7844210">
        <ele>134.0</ele>
        <time>2022-01-08T17:42:10Z</time>
      </trkpt>
      <trkpt lat="36.7480850" lon="-3.7844150">
        <ele>137.0</ele>
        <time>2022-01-08T17:42:11Z</time>
      </trkpt>
      <trkpt lat="36.7480640" lon="-3.7843850">
        <ele>137.0</ele>
        <time>2022-01-08T17:42:12Z</time>
      </trkpt>
      <trkpt lat="36.7480570" lon="-3.7843780">
        <ele>137.0</ele>
        <time>2022-01-08T17:42:13Z</time>
      </trkpt>
      <trkpt lat="36.7480500" lon="-3.7843710">
        <ele>137.0</ele>
        <time>2022-01-08T17:42:14Z</time>
      </trkpt>
      <trkpt lat="36.7480430" lon="-3.7843650">
        <ele>137.0</ele>
        <time>2022-01-08T17:42:15Z</time>
      </trkpt>
      <trkpt lat="36.7480360" lon="-3.7843580">
        <ele>137.0</ele>
        <time>2022-01-08T17:42:16Z</time>
      </trkpt>
      <trkpt lat="36.7480290" lon="-3.7843510">
        <ele>137.0</ele>
        <time>2022-01-08T17:42:17Z</time>
      </trkpt>
      <trkpt lat="36.7480220" lon="-3.7843440">
        <ele>137.0</ele>
        <time>2022-01-08T17:42:18Z</time>
      </trkpt>
      <trkpt lat="36.7480150" lon="-3.7843370">
        <ele>137.0</ele>
        <time>2022-01-08T17:42:19Z</time>
      </trkpt>
      <trkpt lat="36.7480080" lon="-3.7843300">
        <ele>137.0</ele>
        <time>2022-01-08T17:42:20Z</time>
      </trkpt>
      <trkpt lat="36.7480000" lon="-3.7843240">
        <ele>138.0</ele>
        <time>2022-01-08T17:42:21Z</time>
      </trkpt>
      <trkpt lat="36.7479960" lon="-3.7843170">
        <ele>138.0</ele>
        <time>2022-01-08T17:42:22Z</time>
      </trkpt>
      <trkpt lat="36.7479920" lon="-3.7843100">
        <ele>138.0</ele>
        <time>2022-01-08T17:42:23Z</time>
      </trkpt>
      <trkpt lat="36.7479880" lon="-3.7843030">
        <ele>138.0</ele>
        <time>2022-01-08T17:42:24Z</time>
      </trkpt>
      <trkpt lat="36.7479840" lon="-3.7842960">
        <ele>138.0</ele>
        <time>2022-01-08T17:42:25Z</time>
      </trkpt>
      <trkpt lat="36.7479800" lon="-3.7842890">
        <ele>138.0</ele>
        <time>2022-01-08T17:42:26Z</time>
      </trkpt>
      <trkpt lat="36.7479760" lon="-3.7842820">
        <ele>138.0</ele>
        <time>2022-01-08T17:42:27Z</time>
      </trkpt>
      <trkpt lat="36.7479720" lon="-3.7842750">
        <ele>138.0</ele>
        <time>2022-01-08T17:42:28Z</time>
      </trkpt>
      <trkpt lat="36.7479680" lon="-3.7842680">
        <ele>138.0</ele>
        <time>2022-01-08T17:42:29Z</time>
      </trkpt>
      <trkpt lat="36.7479640" lon="-3.7842620">
        <ele>138.0</ele>
        <time>2022-01-08T17:42:30Z</time>
      </trkpt>
      <trkpt lat="36.7479590" lon="-3.7842550">
        <ele>140.0</ele>
        <time>2022-01-08T17:42:31Z</time>
      </trkpt>
      <trkpt lat="36.7479350" lon="-3.7842340">
        <ele>140.0</ele>
        <time>2022-01-08T17:42:32Z</time>
      </trkpt>
      <trkpt lat="36.7479300" lon="-3.7842310">
        <ele>140.0</ele>
        <time>2022-01-08T17:42:33Z</time>
      </trkpt>
      <trkpt lat="36.7479260" lon="-3.7842280">
        <ele>140.0</ele>
        <time>2022-01-08T17:42:34Z</time>
      </trkpt>
      <trkpt lat="36.7479210" lon="-3.7842250">
        <ele>140.0</ele>
        <time>2022-01-08T17:42:35Z</time>
      </trkpt>
      <trkpt lat="36.7479170" lon="-3.7842220">
        <ele>140.0</ele>
        <time>2022-01-08T17:42:36Z</time>
      </trkpt>
      <trkpt lat="36.7479120" lon="-3.7842190">
        <ele>140.0</ele>
        <time>2022-01-08T17:42:37Z</time>
      </trkpt>
      <trkpt lat="36.7479080" lon="-3.7842160">
        <ele>140.0</ele>
        <time>2022-01-08T17:42:38Z</time>
      </trkpt>
      <trkpt lat="36.7479030" lon="-3.7842130">
        <ele>140.0</ele>
        <time>2022-01-08T17:42:39Z</time>
      </trkpt>
      <trkpt lat="36.7478990" lon="-3.7842110">
        <ele>140.0</ele>
        <time>2022-01-08T17:42:40Z</time>
      </trkpt>
      <trkpt lat="36.7478940" lon="-3.7842080">
        <ele>143.0</ele>
        <time>2022-01-08T17:42:41Z</time>
      </trkpt>
      <trkpt lat="36.7479060" lon="-3.7841690">
        <ele>143.0</ele>
        <time>2022-01-08T17:42:42Z</time>
      </trkpt>
      <trkpt lat="36.7479070" lon="-3.7841580">
        <ele>143.0</ele>
        <time>2022-01-08T17:42:43Z</time>
      </trkpt>
      <trkpt lat="36.7479080" lon="-3.7841470">
        <ele>143.0</ele>
        <time>2022-01-08T17:42:44Z</time>
      </trkpt>
      <trkpt lat="36.7479090" lon="-3.7841360">
        <ele>143.0</ele>
        <time>2022-01-08T17:42:45Z</time>
      </trkpt>
      <trkpt lat="36.7479100" lon="-3.7841260">
        <ele>143.0</ele>
        <time>2022-01-08T17:42:46Z</time>
      </trkpt>
      <trkpt lat="36.7479120" lon="-3.7841150">
        <ele>143.0</ele>
        <time>2022-01-08T17:42:47Z</time>
      </trkpt>
      <trkpt lat="36.7479130" lon="-3.7841040">
        <ele>143.0</ele>
        <time>2022-01-08T17:42:48Z</time>
      </trkpt>
      <trkpt lat="36.7479140" lon="-3.7840930">
        <ele>143.0</ele>
        <time>2022-01-08T17:42:49Z</time>
      </trkpt>
      <trkpt lat="36.7479150" lon="-3.7840830">
        <ele>143.0</ele>
        <time>2022-01-08T17:42:50Z</time>
      </trkpt>
      <trkpt lat="36.7479160" lon="-3.7840720">
        <ele>144.0</ele>
        <time>2022-01-08T17:42:51Z</time>
      </trkpt>
      <trkpt lat="36.7479180" lon="-3.7840660">
        <ele>144.0</ele>
        <time>2022-01-08T17:42:52Z</time>
      </trkpt>
      <trkpt lat="36.7479200" lon="-3.7840590">
        <ele>144.0</ele>
        <time>2022-01-08T17:42:53Z</time>
      </trkpt>
      <trkpt lat="36.7479210" lon="-3.7840530">
        <ele>144.0</ele>
        <time>2022-01-08T17:42:54Z</time>
      </trkpt>
      <trkpt lat="36.7479230" lon="-3.7840470">
        <ele>144.0</ele>
        <time>2022-01-08T17:42:55Z</time>
      </trkpt>
      <trkpt lat="36.7479240" lon="-3.7840410">
        <ele>144.0</ele>
        <time>2022-01-08T17:42:56Z</time>
      </trkpt>
      <trkpt lat="36.7479260" lon="-3.7840340">
        <ele>144.0</ele>
        <time>2022-01-08T17:42:57Z</time>
      </trkpt>
      <trkpt lat="36.7479280" lon="-3.7840280">
        <ele>144.0</ele>
        <time>2022-01-08T17:42:58Z</time>
      </trkpt>
      <trkpt lat="36.7479290" lon="-3.7840220">
        <ele>144.0</ele>
        <time>2022-01-08T17:42:59Z</time>
      </trkpt>
      <trkpt lat="36.7479310" lon="-3.7840160">
        <ele>144.0</ele>
        <time>2022-01-08T17:43:00Z</time>
      </trkpt>
      <trkpt lat="36.7479320" lon="-3.7840100">
        <ele>146.0</ele>
        <time>2022-01-08T17:43:01Z</time>
      </trkpt>
      <trkpt lat="36.7479390" lon="-3.7839980">
        <ele>146.0</ele>
        <time>2022-01-08T17:43:02Z</time>
      </trkpt>
      <trkpt lat="36.7479450" lon="-3.7839860">
        <ele>146.0</ele>
        <time>2022-01-08T17:43:03Z</time>
      </trkpt>
      <trkpt lat="36.7479510" lon="-3.7839750">
        <ele>146.0</ele>
        <time>2022-01-08T17:43:04Z</time>
      </trkpt>
      <trkpt lat="36.7479570" lon="-3.7839630">
        <ele>146.0</ele>
        <time>2022-01-08T17:43:05Z</time>
      </trkpt>
      <trkpt lat="36.7479640" lon="-3.7839510">
        <ele>146.0</ele>
        <time>2022-01-08T17:43:06Z</time>
      </trkpt>
      <trkpt lat="36.7479700" lon="-3.7839400">
        <ele>146.0</ele>
        <time>2022-01-08T17:43:07Z</time>
      </trkpt>
      <trkpt lat="36.7479760" lon="-3.7839280">
        <ele>146.0</ele>
        <time>2022-01-08T17:43:08Z</time>
      </trkpt>
      <trkpt lat="36.7479820" lon="-3.7839160">
        <ele>146.0</ele>
        <time>2022-01-08T17:43:09Z</time>
      </trkpt>
      <trkpt lat="36.7479890" lon="-3.7839050">
        <ele>146.0</ele>
        <time>2022-01-08T17:43:10Z</time>
      </trkpt>
      <trkpt lat="36.7479950" lon="-3.7838930">
        <ele>147.0</ele>
        <time>2022-01-08T17:43:11Z</time>
      </trkpt>
      <trkpt lat="36.7480020" lon="-3.7838820">
        <ele>147.0</ele>
        <time>2022-01-08T17:43:12Z</time>
      </trkpt>
      <trkpt lat="36.7480100" lon="-3.7838720">
        <ele>147.0</ele>
        <time>2022-01-08T17:43:13Z</time>
      </trkpt>
      <trkpt lat="36.7480180" lon="-3.7838610">
        <ele>147.0</ele>
        <time>2022-01-08T17:43:14Z</time>
      </trkpt>
      <trkpt lat="36.7480260" lon="-3.7838510">
        <ele>147.0</ele>
        <time>2022-01-08T17:43:15Z</time>
      </trkpt>
      <trkpt lat="36.7480330" lon="-3.7838400">
        <ele>147.0</ele>
        <time>2022-01-08T17:43:16Z</time>
      </trkpt>
      <trkpt lat="36.7480410" lon="-3.7838290">
        <ele>147.0</ele>
        <time>2022-01-08T17:43:17Z</time>
      </trkpt>
      <trkpt lat="36.7480490" lon="-3.7838190">
        <ele>147.0</ele>
        <time>2022-01-08T17:43:18Z</time>
      </trkpt>
      <trkpt lat="36.7480560" lon="-3.7838080">
        <ele>147.0</ele>
        <time>2022-01-08T17:43:19Z</time>
      </trkpt>
      <trkpt lat="36.7480640" lon="-3.7837980">
        <ele>147.0</ele>
        <time>2022-01-08T17:43:20Z</time>
      </trkpt>
      <trkpt lat="36.7480720" lon="-3.7837870">
        <ele>149.0</ele>
        <time>2022-01-08T17:43:21Z</time>
      </trkpt>
      <trkpt lat="36.7480820" lon="-3.7837810">
        <ele>149.0</ele>
        <time>2022-01-08T17:43:22Z</time>
      </trkpt>
      <trkpt lat="36.7480920" lon="-3.7837750">
        <ele>149.0</ele>
        <time>2022-01-08T17:43:23Z</time>
      </trkpt>
      <trkpt lat="36.7481030" lon="-3.7837690">
        <ele>149.0</ele>
        <time>2022-01-08T17:43:24Z</time>
      </trkpt>
      <trkpt lat="36.7481130" lon="-3.7837630">
        <ele>149.0</ele>
        <time>2022-01-08T17:43:25Z</time>
      </trkpt>
      <trkpt lat="36.7481230" lon="-3.7837570">
        <ele>149.0</ele>
        <time>2022-01-08T17:43:26Z</time>
      </trkpt>
      <trkpt lat="36.7481340" lon="-3.7837510">
        <ele>149.0</ele>
        <time>2022-01-08T17:43:27Z</time>
      </trkpt>
      <trkpt lat="36.7481440" lon="-3.7837450">
        <ele>149.0</ele>
        <time>2022-01-08T17:43:28Z</time>
      </trkpt>
      <trkpt lat="36.7481540" lon="-3.7837390">
        <ele>149.0</ele>
        <time>2022-01-08T17:43:29Z</time>
      </trkpt>
      <trkpt lat="36.7481650" lon="-3.7837330">
        <ele>149.0</ele>
        <time>2022-01-08T17:43:30Z</time>
      </trkpt>
      <trkpt lat="36.7481750" lon="-3.7837270">
        <ele>150.0</ele>
        <time>2022-01-08T17:43:31Z</time>
      </trkpt>
      <trkpt lat="36.7481820" lon="-3.7837210">
        <ele>150.0</ele>
        <time>2022-01-08T17:43:32Z</time>
      </trkpt>
      <trkpt lat="36.7481900" lon="-3.7837150">
        <ele>150.0</ele>
        <time>2022-01-08T17:43:33Z</time>
      </trkpt>
      <trkpt lat="36.7481970" lon="-3.7837090">
        <ele>150.0</ele>
        <time>2022-01-08T17:43:34Z</time>
      </trkpt>
      <trkpt lat="36.7482040" lon="-3.7837030">
        <ele>150.0</ele>
        <time>2022-01-08T17:43:35Z</time>
      </trkpt>
      <trkpt lat="36.7482120" lon="-3.7836970">
        <ele>150.0</ele>
        <time>2022-01-08T17:43:36Z</time>
      </trkpt>
      <trkpt lat="36.7482190" lon="-3.7836910">
        <ele>150.0</ele>
        <time>2022-01-08T17:43:37Z</time>
      </trkpt>
      <trkpt lat="36.7482270" lon="-3.7836850">
        <ele>150.0</ele>
        <time>2022-01-08T17:43:38Z</time>
      </trkpt>
      <trkpt lat="36.7482340" lon="-3.7836790">
        <ele>150.0</ele>
        <time>2022-01-08T17:43:39Z</time>
      </trkpt>
      <trkpt lat="36.7482410" lon="-3.7836730">
        <ele>150.0</ele>
        <time>2022-01-08T17:43:40Z</time>
      </trkpt>
      <trkpt lat="36.7482490" lon="-3.7836670">
        <ele>152.0</ele>
        <time>2022-01-08T17:43:41Z</time>
      </trkpt>
      <trkpt lat="36.7482560" lon="-3.7836590">
        <ele>152.0</ele>
        <time>2022-01-08T17:43:42Z</time>
      </trkpt>
      <trkpt lat="36.7482630" lon="-3.7836510">
        <ele>152.0</ele>
        <time>2022-01-08T17:43:43Z</time>
      </trkpt>
      <trkpt lat="36.7482710" lon="-3.7836430">
        <ele>152.0</ele>
        <time>2022-01-08T17:43:44Z</time>
      </trkpt>
      <trkpt lat="36.7482780" lon="-3.7836350">
        <ele>152.0</ele>
        <time>2022-01-08T17:43:45Z</time>
      </trkpt>
      <trkpt lat="36.7482850" lon="-3.7836270">
        <ele>152.0</ele>
        <time>2022-01-08T17:43:46Z</time>
      </trkpt>
      <trkpt lat="36.7482930" lon="-3.7836180">
        <ele>152.0</ele>
        <time>2022-01-08T17:43:47Z</time>
      </trkpt>
      <trkpt lat="36.7483000" lon="-3.7836100">
        <ele>152.0</ele>
        <time>2022-01-08T17:43:48Z</time>
      </trkpt>
      <trkpt lat="36.7483070" lon="-3.7836020">
        <ele>152.0</ele>
        <time>2022-01-08T17:43:49Z</time>
      </trkpt>
      <trkpt lat="36.7483140" lon="-3.7835940">
        <ele>152.0</ele>
        <time>2022-01-08T17:43:50Z</time>
      </trkpt>
      <trkpt lat="36.7483220" lon="-3.7835860">
        <ele>154.0</ele>
        <time>2022-01-08T17:43:51Z</time>
      </trkpt>
      <trkpt lat="36.7483290" lon="-3.7835800">
        <ele>154.0</ele>
        <time>2022-01-08T17:43:52Z</time>
      </trkpt>
      <trkpt lat="36.7483360" lon="-3.7835740">
        <ele>154.0</ele>
        <time>2022-01-08T17:43:53Z</time>
      </trkpt>
      <trkpt lat="36.7483430" lon="-3.7835680">
        <ele>154.0</ele>
        <time>2022-01-08T17:43:54Z</time>
      </trkpt>
      <trkpt lat="36.7483500" lon="-3.7835620">
        <ele>154.0</ele>
        <time>2022-01-08T17:43:55Z</time>
      </trkpt>
      <trkpt lat="36.7483560" lon="-3.7835550">
        <ele>154.0</ele>
        <time>2022-01-08T17:43:56Z</time>
      </trkpt>
      <trkpt lat="36.7483630" lon="-3.7835490">
        <ele>154.0</ele>
        <time>2022-01-08T17:43:57Z</time>
      </trkpt>
      <trkpt lat="36.7483700" lon="-3.7835430">
        <ele>154.0</ele>
        <time>2022-01-08T17:43:58Z</time>
      </trkpt>
      <trkpt lat="36.7483770" lon="-3.7835370">
        <ele>154.0</ele>
        <time>2022-01-08T17:43:59Z</time>
      </trkpt>
      <trkpt lat="36.7483840" lon="-3.7835310">
        <ele>154.0</ele>
        <time>2022-01-08T17:44:00Z</time>
      </trkpt>
      <trkpt lat="36.7483910" lon="-3.7835250">
        <ele>156.0</ele>
        <time>2022-01-08T17:44:01Z</time>
      </trkpt>
      <trkpt lat="36.7483990" lon="-3.7835140">
        <ele>156.0</ele>
        <time>2022-01-08T17:44:02Z</time>
      </trkpt>
      <trkpt lat="36.7484060" lon="-3.7835040">
        <ele>156.0</ele>
        <time>2022-01-08T17:44:03Z</time>
      </trkpt>
      <trkpt lat="36.7484140" lon="-3.7834930">
        <ele>156.0</ele>
        <time>2022-01-08T17:44:04Z</time>
      </trkpt>
      <trkpt lat="36.7484220" lon="-3.7834830">
        <ele>156.0</ele>
        <time>2022-01-08T17:44:05Z</time>
      </trkpt>
      <trkpt lat="36.7484290" lon="-3.7834720">
        <ele>156.0</ele>
        <time>2022-01-08T17:44:06Z</time>
      </trkpt>
      <trkpt lat="36.7484370" lon="-3.7834620">
        <ele>156.0</ele>
        <time>2022-01-08T17:44:07Z</time>
      </trkpt>
      <trkpt lat="36.7484440" lon="-3.7834510">
        <ele>156.0</ele>
        <time>2022-01-08T17:44:08Z</time>
      </trkpt>
      <trkpt lat="36.7484520" lon="-3.7834400">
        <ele>156.0</ele>
        <time>2022-01-08T17:44:09Z</time>
      </trkpt>
      <trkpt lat="36.7484600" lon="-3.7834300">
        <ele>156.0</ele>
        <time>2022-01-08T17:44:10Z</time>
      </trkpt>
      <trkpt lat="36.7484670" lon="-3.7834190">
        <ele>158.0</ele>
        <time>2022-01-08T17:44:11Z</time>
      </trkpt>
      <trkpt lat="36.7484780" lon="-3.7834020">
        <ele>158.0</ele>
        <time>2022-01-08T17:44:12Z</time>
      </trkpt>
      <trkpt lat="36.7484830" lon="-3.7833930">
        <ele>158.0</ele>
        <time>2022-01-08T17:44:13Z</time>
      </trkpt>
      <trkpt lat="36.7484890" lon="-3.7833850">
        <ele>158.0</ele>
        <time>2022-01-08T17:44:14Z</time>
      </trkpt>
      <trkpt lat="36.7484940" lon="-3.7833770">
        <ele>158.0</ele>
        <time>2022-01-08T17:44:15Z</time>
      </trkpt>
      <trkpt lat="36.7484990" lon="-3.7833690">
        <ele>158.0</ele>
        <time>2022-01-08T17:44:16Z</time>
      </trkpt>
      <trkpt lat="36.7485040" lon="-3.7833610">
        <ele>158.0</ele>
        <time>2022-01-08T17:44:17Z</time>
      </trkpt>
      <trkpt lat="36.7485090" lon="-3.7833520">
        <ele>158.0</ele>
        <time>2022-01-08T17:44:18Z</time>
      </trkpt>
      <trkpt lat="36.7485140" lon="-3.7833440">
        <ele>158.0</ele>
        <time>2022-01-08T17:44:19Z</time>
      </trkpt>
      <trkpt lat="36.7485190" lon="-3.7833360">
        <ele>158.0</ele>
        <time>2022-01-08T17:44:20Z</time>
      </trkpt>
      <trkpt lat="36.7485240" lon="-3.7833280">
        <ele>160.0</ele>
        <time>2022-01-08T17:44:21Z</time>
      </trkpt>
      <trkpt lat="36.7485430" lon="-3.7832990">
        <ele>160.0</ele>
        <time>2022-01-08T17:44:22Z</time>
      </trkpt>
      <trkpt lat="36.7485500" lon="-3.7832920">
        <ele>160.0</ele>
        <time>2022-01-08T17:44:23Z</time>
      </trkpt>
      <trkpt lat="36.7485570" lon="-3.7832860">
        <ele>160.0</ele>
        <time>2022-01-08T17:44:24Z</time>
      </trkpt>
      <trkpt lat="36.7485650" lon="-3.7832790">
        <ele>160.0</ele>
        <time>2022-01-08T17:44:25Z</time>
      </trkpt>
      <trkpt lat="36.7485720" lon="-3.7832720">
        <ele>160.0</ele>
        <time>2022-01-08T17:44:26Z</time>
      </trkpt>
      <trkpt lat="36.7485790" lon="-3.7832650">
        <ele>160.0</ele>
        <time>2022-01-08T17:44:27Z</time>
      </trkpt>
      <trkpt lat="36.7485860" lon="-3.7832580">
        <ele>160.0</ele>
        <time>2022-01-08T17:44:28Z</time>
      </trkpt>
      <trkpt lat="36.7485930" lon="-3.7832510">
        <ele>160.0</ele>
        <time>2022-01-08T17:44:29Z</time>
      </trkpt>
      <trkpt lat="36.7486000" lon="-3.7832450">
        <ele>160.0</ele>
        <time>2022-01-08T17:44:30Z</time>
      </trkpt>
      <trkpt lat="36.7486070" lon="-3.7832380">
        <ele>162.0</ele>
        <time>2022-01-08T17:44:31Z</time>
      </trkpt>
      <trkpt lat="36.7486170" lon="-3.7832310">
        <ele>162.0</ele>
        <time>2022-01-08T17:44:32Z</time>
      </trkpt>
      <trkpt lat="36.7486270" lon="-3.7832240">
        <ele>162.0</ele>
        <time>2022-01-08T17:44:33Z</time>
      </trkpt>
      <trkpt lat="36.7486370" lon="-3.7832170">
        <ele>162.0</ele>
        <time>2022-01-08T17:44:34Z</time>
      </trkpt>
      <trkpt lat="36.7486470" lon="-3.7832100">
        <ele>162.0</ele>
        <time>2022-01-08T17:44:35Z</time>
      </trkpt>
      <trkpt lat="36.7486570" lon="-3.7832030">
        <ele>162.0</ele>
        <time>2022-01-08T17:44:36Z</time>
      </trkpt>
      <trkpt lat="36.7486670" lon="-3.7831960">
        <ele>162.0</ele>
        <time>2022-01-08T17:44:37Z</time>
      </trkpt>
      <trkpt lat="36.7486760" lon="-3.7831900">
        <ele>162.0</ele>
        <time>2022-01-08T17:44:38Z</time>
      </trkpt>
      <trkpt lat="36.7486860" lon="-3.7831830">
        <ele>162.0</ele>
        <time>2022-01-08T17:44:39Z</time>
      </trkpt>
      <trkpt lat="36.7486960" lon="-3.7831760">
        <ele>162.0</ele>
        <time>2022-01-08T17:44:40Z</time>
      </trkpt>
      <trkpt lat="36.7487060" lon="-3.7831690">
        <ele>162.0</ele>
        <time>2022-01-08T17:44:41Z</time>
      </trkpt>
      <trkpt lat="36.7487360" lon="-3.7831510">
        <ele>162.0</ele>
        <time>2022-01-08T17:44:42Z</time>
      </trkpt>
      <trkpt lat="36.7487440" lon="-3.7831460">
        <ele>162.0</ele>
        <time>2022-01-08T17:44:43Z</time>
      </trkpt>
      <trkpt lat="36.7487520" lon="-3.7831400">
        <ele>162.0</ele>
        <time>2022-01-08T17:44:44Z</time>
      </trkpt>
      <trkpt lat="36.7487610" lon="-3.7831350">
        <ele>162.0</ele>
        <time>2022-01-08T17:44:45Z</time>
      </trkpt>
      <trkpt lat="36.7487690" lon="-3.7831290">
        <ele>162.0</ele>
        <time>2022-01-08T17:44:46Z</time>
      </trkpt>
      <trkpt lat="36.7487780" lon="-3.7831230">
        <ele>162.0</ele>
        <time>2022-01-08T17:44:47Z</time>
      </trkpt>
      <trkpt lat="36.7487860" lon="-3.7831180">
        <ele>162.0</ele>
        <time>2022-01-08T17:44:48Z</time>
      </trkpt>
      <trkpt lat="36.7487940" lon="-3.7831120">
        <ele>162.0</ele>
        <time>2022-01-08T17:44:49Z</time>
      </trkpt>
      <trkpt lat="36.7488030" lon="-3.7831070">
        <ele>162.0</ele>
        <time>2022-01-08T17:44:50Z</time>
      </trkpt>
      <trkpt lat="36.7488110" lon="-3.7831010">
        <ele>159.0</ele>
        <time>2022-01-08T17:44:51Z</time>
      </trkpt>
      <trkpt lat="36.7488230" lon="-3.7830980">
        <ele>159.0</ele>
        <time>2022-01-08T17:44:52Z</time>
      </trkpt>
      <trkpt lat="36.7488350" lon="-3.7830950">
        <ele>159.0</ele>
        <time>2022-01-08T17:44:53Z</time>
      </trkpt>
      <trkpt lat="36.7488460" lon="-3.7830920">
        <ele>159.0</ele>
        <time>2022-01-08T17:44:54Z</time>
      </trkpt>
      <trkpt lat="36.7488580" lon="-3.7830890">
        <ele>159.0</ele>
        <time>2022-01-08T17:44:55Z</time>
      </trkpt>
      <trkpt lat="36.7488700" lon="-3.7830860">
        <ele>159.0</ele>
        <time>2022-01-08T17:44:56Z</time>
      </trkpt>
      <trkpt lat="36.7488820" lon="-3.7830830">
        <ele>159.0</ele>
        <time>2022-01-08T17:44:57Z</time>
      </trkpt>
      <trkpt lat="36.7488930" lon="-3.7830800">
        <ele>159.0</ele>
        <time>2022-01-08T17:44:58Z</time>
      </trkpt>
      <trkpt lat="36.7489050" lon="-3.7830770">
        <ele>159.0</ele>
        <time>2022-01-08T17:44:59Z</time>
      </trkpt>
      <trkpt lat="36.7489170" lon="-3.7830740">
        <ele>159.0</ele>
        <time>2022-01-08T17:45:00Z</time>
      </trkpt>
      <trkpt lat="36.7489290" lon="-3.7830710">
        <ele>156.0</ele>
        <time>2022-01-08T17:45:01Z</time>
      </trkpt>
      <trkpt lat="36.7489380" lon="-3.7830780">
        <ele>156.0</ele>
        <time>2022-01-08T17:45:02Z</time>
      </trkpt>
      <trkpt lat="36.7489470" lon="-3.7830860">
        <ele>156.0</ele>
        <time>2022-01-08T17:45:03Z</time>
      </trkpt>
      <trkpt lat="36.7489560" lon="-3.7830930">
        <ele>156.0</ele>
        <time>2022-01-08T17:45:04Z</time>
      </trkpt>
      <trkpt lat="36.7489650" lon="-3.7831000">
        <ele>156.0</ele>
        <time>2022-01-08T17:45:05Z</time>
      </trkpt>
      <trkpt lat="36.7489750" lon="-3.7831080">
        <ele>156.0</ele>
        <time>2022-01-08T17:45:06Z</time>
      </trkpt>
    </trkseg>
  </trk>
</gpx>
